<?xml version="1.0" encoding="UTF-8"?>
<gpx version="1.1" creator="https://www.www-youtrack-es.amenigma.com" xsi:schemaLocation="http://www.topografix.com/GPX/1/1 http://www.topografix.com/GPX/1/1/gpx.xsd http://www.garmin.com/xmlschemas/GpxExtensions/v3 http://www.garmin.com/xmlschemas/GpxExtensionsv3.xsd http://www.garmin.com/xmlschemas/TrackPointExtension/v1 http://www.garmin.com/xmlschemas/TrackPointExtensionv1.xsd" xmlns:gpxtpx="http://www.garmin.com/xmlschemas/TrackPointExtension/v1" xmlns:gpxx="http://www.garmin.com/xmlschemas/GpxExtensions/v3" xmlns:xsi="http://www.w3.org/2001/XMLSchema-instance">
  <metadata>
    <link href="https://www.www-youtrack-es.amenigma.com">
      <text>YouTrack.es</text>
    </link>
    <time>2026-08-31T02:28:47Z</time>
  </metadata>
  <trk>
    <src>https://www.www-youtrack-es.amenigma.com</src>
    <link href="https://www.www-youtrack-es.amenigma.com/ruta/25012-subida-pico-carbacedin-desde-la-focella">
      <text>YouTrack.es</text>
    </link>
    <trkseg>
      <trkpt lat="43.10014374554157257080078125" lon="-6.0592454485595226287841796875">
        <ele>1015.5999755859375</ele>
        <time>2021-08-17T16:28:45.000Z</time>
      </trkpt>
      <trkpt lat="43.10014248825609683990478515625" lon="-6.0592617094516754150390625">
        <ele>1016.5999755859375</ele>
        <time>2021-08-17T16:28:49.000Z</time>
      </trkpt>
      <trkpt lat="43.10014030896127223968505859375" lon="-6.05926916934549808502197265625">
        <ele>1017.79998779296875</ele>
        <time>2021-08-17T16:28:51.000Z</time>
      </trkpt>
      <trkpt lat="43.1001385487616062164306640625" lon="-6.0592724382877349853515625">
        <ele>1018</ele>
        <time>2021-08-17T16:28:52.000Z</time>
      </trkpt>
      <trkpt lat="43.10012203641235828399658203125" lon="-6.0592925548553466796875">
        <ele>1018</ele>
        <time>2021-08-17T16:28:57.000Z</time>
      </trkpt>
      <trkpt lat="43.1000956334173679351806640625" lon="-6.05929783545434474945068359375">
        <ele>1017.5999755859375</ele>
        <time>2021-08-17T16:29:01.000Z</time>
      </trkpt>
      <trkpt lat="43.1000688113272190093994140625" lon="-6.0592937283217906951904296875">
        <ele>1017.4000244140625</ele>
        <time>2021-08-17T16:29:04.000Z</time>
      </trkpt>
      <trkpt lat="43.1000641174614429473876953125" lon="-6.05929800309240818023681640625">
        <ele>1017.5999755859375</ele>
        <time>2021-08-17T16:29:06.000Z</time>
      </trkpt>
      <trkpt lat="43.10005816631019115447998046875" lon="-6.05930387042462825775146484375">
        <ele>1017.5999755859375</ele>
        <time>2021-08-17T16:29:10.000Z</time>
      </trkpt>
      <trkpt lat="43.10005699284374713897705078125" lon="-6.05930487625300884246826171875">
        <ele>1017.4000244140625</ele>
        <time>2021-08-17T16:29:13.000Z</time>
      </trkpt>
      <trkpt lat="43.10004643164575099945068359375" lon="-6.0593064688146114349365234375">
        <ele>1017.4000244140625</ele>
        <time>2021-08-17T16:29:16.000Z</time>
      </trkpt>
      <trkpt lat="43.10004391707479953765869140625" lon="-6.0593126714229583740234375">
        <ele>1017.5999755859375</ele>
        <time>2021-08-17T16:29:19.000Z</time>
      </trkpt>
      <trkpt lat="43.1000121496617794036865234375" lon="-6.05927755124866962432861328125">
        <ele>1017.20001220703125</ele>
        <time>2021-08-17T16:29:31.000Z</time>
      </trkpt>
      <trkpt lat="43.09992975555360317230224609375" lon="-6.05922021903097629547119140625">
        <ele>1017</ele>
        <time>2021-08-17T16:29:41.000Z</time>
      </trkpt>
      <trkpt lat="43.0998683162033557891845703125" lon="-6.0590808279812335968017578125">
        <ele>1018</ele>
        <time>2021-08-17T16:29:53.000Z</time>
      </trkpt>
      <trkpt lat="43.09984811581671237945556640625" lon="-6.05900597758591175079345703125">
        <ele>1018.79998779296875</ele>
        <time>2021-08-17T16:30:00.000Z</time>
      </trkpt>
      <trkpt lat="43.09980251826345920562744140625" lon="-6.05892081744968891143798828125">
        <ele>1019.5999755859375</ele>
        <time>2021-08-17T16:30:08.000Z</time>
      </trkpt>
      <trkpt lat="43.09980251826345920562744140625" lon="-6.05892081744968891143798828125">
        <ele>1019.79998779296875</ele>
        <time>2021-08-17T16:30:09.000Z</time>
      </trkpt>
      <trkpt lat="43.0997818149626255035400390625" lon="-6.0589198954403400421142578125">
        <ele>1020</ele>
        <time>2021-08-17T16:30:10.000Z</time>
      </trkpt>
      <trkpt lat="43.099745772778987884521484375" lon="-6.05891637504100799560546875">
        <ele>1020.5999755859375</ele>
        <time>2021-08-17T16:30:13.000Z</time>
      </trkpt>
      <trkpt lat="43.09972607530653476715087890625" lon="-6.05891059152781963348388671875">
        <ele>1020.79998779296875</ele>
        <time>2021-08-17T16:30:15.000Z</time>
      </trkpt>
      <trkpt lat="43.09971417300403118133544921875" lon="-6.05890958569943904876708984375">
        <ele>1021</ele>
        <time>2021-08-17T16:30:16.000Z</time>
      </trkpt>
      <trkpt lat="43.09969858266413211822509765625" lon="-6.05890573002398014068603515625">
        <ele>1021.4000244140625</ele>
        <time>2021-08-17T16:30:18.000Z</time>
      </trkpt>
      <trkpt lat="43.09967100620269775390625" lon="-6.05888016521930694580078125">
        <ele>1022</ele>
        <time>2021-08-17T16:30:22.000Z</time>
      </trkpt>
      <trkpt lat="43.0996614508330821990966796875" lon="-6.05887723155319690704345703125">
        <ele>1022.20001220703125</ele>
        <time>2021-08-17T16:30:23.000Z</time>
      </trkpt>
      <trkpt lat="43.0996508896350860595703125" lon="-6.05886314995586872100830078125">
        <ele>1022.5999755859375</ele>
        <time>2021-08-17T16:30:25.000Z</time>
      </trkpt>
      <trkpt lat="43.09962079860270023345947265625" lon="-6.05884655378758907318115234375">
        <ele>1023.20001220703125</ele>
        <time>2021-08-17T16:30:29.000Z</time>
      </trkpt>
      <trkpt lat="43.099593557417392730712890625" lon="-6.05882978998124599456787109375">
        <ele>1024</ele>
        <time>2021-08-17T16:30:34.000Z</time>
      </trkpt>
      <trkpt lat="43.09957520104944705963134765625" lon="-6.05881956405937671661376953125">
        <ele>1024.199951171875</ele>
        <time>2021-08-17T16:30:36.000Z</time>
      </trkpt>
      <trkpt lat="43.09952977113425731658935546875" lon="-6.058799363672733306884765625">
        <ele>1025.199951171875</ele>
        <time>2021-08-17T16:30:44.000Z</time>
      </trkpt>
      <trkpt lat="43.09952105395495891571044921875" lon="-6.0587921552360057830810546875">
        <ele>1025.5999755859375</ele>
        <time>2021-08-17T16:30:46.000Z</time>
      </trkpt>
      <trkpt lat="43.0995033681392669677734375" lon="-6.0587787441909313201904296875">
        <ele>1026.199951171875</ele>
        <time>2021-08-17T16:30:49.000Z</time>
      </trkpt>
      <trkpt lat="43.099494315683841705322265625" lon="-6.05877379886806011199951171875">
        <ele>1026.4000244140625</ele>
        <time>2021-08-17T16:30:50.000Z</time>
      </trkpt>
      <trkpt lat="43.0994765460491180419921875" lon="-6.05876726098358631134033203125">
        <ele>1026.5999755859375</ele>
        <time>2021-08-17T16:30:52.000Z</time>
      </trkpt>
      <trkpt lat="43.09946020133793354034423828125" lon="-6.05875720269978046417236328125">
        <ele>1026.800048828125</ele>
        <time>2021-08-17T16:30:54.000Z</time>
      </trkpt>
      <trkpt lat="43.09938459657132625579833984375" lon="-6.058671958744525909423828125">
        <ele>1026.5999755859375</ele>
        <time>2021-08-17T16:31:01.000Z</time>
      </trkpt>
      <trkpt lat="43.09935375116765499114990234375" lon="-6.05855871923267841339111328125">
        <ele>1027.199951171875</ele>
        <time>2021-08-17T16:31:09.000Z</time>
      </trkpt>
      <trkpt lat="43.09934821911156177520751953125" lon="-6.0585474036633968353271484375">
        <ele>1027.199951171875</ele>
        <time>2021-08-17T16:31:10.000Z</time>
      </trkpt>
      <trkpt lat="43.09931435622274875640869140625" lon="-6.05844103731215000152587890625">
        <ele>1027.199951171875</ele>
        <time>2021-08-17T16:31:20.000Z</time>
      </trkpt>
      <trkpt lat="43.0993104167282581329345703125" lon="-6.05838169343769550323486328125">
        <ele>1027</ele>
        <time>2021-08-17T16:31:26.000Z</time>
      </trkpt>
      <trkpt lat="43.09931217692792415618896484375" lon="-6.05833232402801513671875">
        <ele>1026.5999755859375</ele>
        <time>2021-08-17T16:31:30.000Z</time>
      </trkpt>
      <trkpt lat="43.09931854717433452606201171875" lon="-6.0582952760159969329833984375">
        <ele>1026.4000244140625</ele>
        <time>2021-08-17T16:31:33.000Z</time>
      </trkpt>
      <trkpt lat="43.09931988827884197235107421875" lon="-6.05828605592250823974609375">
        <ele>1026.199951171875</ele>
        <time>2021-08-17T16:31:34.000Z</time>
      </trkpt>
      <trkpt lat="43.09931670315563678741455078125" lon="-6.0581987164914608001708984375">
        <ele>1025.4000244140625</ele>
        <time>2021-08-17T16:31:44.000Z</time>
      </trkpt>
      <trkpt lat="43.09931494295597076416015625" lon="-6.05819762684404850006103515625">
        <ele>1025.4000244140625</ele>
        <time>2021-08-17T16:31:45.000Z</time>
      </trkpt>
      <trkpt lat="43.09930748306214809417724609375" lon="-6.05820282362401485443115234375">
        <ele>1025.4000244140625</ele>
        <time>2021-08-17T16:31:50.000Z</time>
      </trkpt>
      <trkpt lat="43.09930530376732349395751953125" lon="-6.05820382945239543914794921875">
        <ele>1025.199951171875</ele>
        <time>2021-08-17T16:31:53.000Z</time>
      </trkpt>
      <trkpt lat="43.09930413030087947845458984375" lon="-6.05821187607944011688232421875">
        <ele>1025.4000244140625</ele>
        <time>2021-08-17T16:31:59.000Z</time>
      </trkpt>
      <trkpt lat="43.0993003584444522857666015625" lon="-6.05822629295289516448974609375">
        <ele>1025.5999755859375</ele>
        <time>2021-08-17T16:32:00.000Z</time>
      </trkpt>
      <trkpt lat="43.099292479455471038818359375" lon="-6.0583264566957950592041015625">
        <ele>1026</ele>
        <time>2021-08-17T16:32:06.000Z</time>
      </trkpt>
      <trkpt lat="43.09929080307483673095703125" lon="-6.05834011919796466827392578125">
        <ele>1026.800048828125</ele>
        <time>2021-08-17T16:32:07.000Z</time>
      </trkpt>
      <trkpt lat="43.0993006937205791473388671875" lon="-6.058423519134521484375">
        <ele>1027</ele>
        <time>2021-08-17T16:32:13.000Z</time>
      </trkpt>
      <trkpt lat="43.09931284748017787933349609375" lon="-6.0585433803498744964599609375">
        <ele>1026.5999755859375</ele>
        <time>2021-08-17T16:32:20.000Z</time>
      </trkpt>
      <trkpt lat="43.09930698014795780181884765625" lon="-6.058580093085765838623046875">
        <ele>1026.4000244140625</ele>
        <time>2021-08-17T16:32:22.000Z</time>
      </trkpt>
      <trkpt lat="43.09930161572992801666259765625" lon="-6.05859928764402866363525390625">
        <ele>1026.4000244140625</ele>
        <time>2021-08-17T16:32:23.000Z</time>
      </trkpt>
      <trkpt lat="43.09926934540271759033203125" lon="-6.0586681030690670013427734375">
        <ele>1027</ele>
        <time>2021-08-17T16:32:31.000Z</time>
      </trkpt>
      <trkpt lat="43.0992638133466243743896484375" lon="-6.05867254547774791717529296875">
        <ele>1027</ele>
        <time>2021-08-17T16:32:32.000Z</time>
      </trkpt>
      <trkpt lat="43.09925769455730915069580078125" lon="-6.05867204256355762481689453125">
        <ele>1027.4000244140625</ele>
        <time>2021-08-17T16:32:34.000Z</time>
      </trkpt>
      <trkpt lat="43.09924160130321979522705078125" lon="-6.05866567231714725494384765625">
        <ele>1027.800048828125</ele>
        <time>2021-08-17T16:32:36.000Z</time>
      </trkpt>
      <trkpt lat="43.0991793237626552581787109375" lon="-6.0586714558303356170654296875">
        <ele>1028.199951171875</ele>
        <time>2021-08-17T16:32:41.000Z</time>
      </trkpt>
      <trkpt lat="43.09917069040238857269287109375" lon="-6.0586724616587162017822265625">
        <ele>1028.4000244140625</ele>
        <time>2021-08-17T16:32:42.000Z</time>
      </trkpt>
      <trkpt lat="43.099155016243457794189453125" lon="-6.05867405422031879425048828125">
        <ele>1029</ele>
        <time>2021-08-17T16:32:44.000Z</time>
      </trkpt>
      <trkpt lat="43.09911109507083892822265625" lon="-6.05868260376155376434326171875">
        <ele>1029.800048828125</ele>
        <time>2021-08-17T16:32:49.000Z</time>
      </trkpt>
      <trkpt lat="43.09909240342676639556884765625" lon="-6.05868277139961719512939453125">
        <ele>1029.800048828125</ele>
        <time>2021-08-17T16:32:51.000Z</time>
      </trkpt>
      <trkpt lat="43.09907547198235988616943359375" lon="-6.05867807753384113311767578125">
        <ele>1030.199951171875</ele>
        <time>2021-08-17T16:32:53.000Z</time>
      </trkpt>
      <trkpt lat="43.09906021691858768463134765625" lon="-6.0586821846663951873779296875">
        <ele>1030.5999755859375</ele>
        <time>2021-08-17T16:32:55.000Z</time>
      </trkpt>
      <trkpt lat="43.0990542657673358917236328125" lon="-6.0586841963231563568115234375">
        <ele>1030.800048828125</ele>
        <time>2021-08-17T16:32:56.000Z</time>
      </trkpt>
      <trkpt lat="43.09902082197368144989013671875" lon="-6.05867019854485988616943359375">
        <ele>1031.4000244140625</ele>
        <time>2021-08-17T16:33:00.000Z</time>
      </trkpt>
      <trkpt lat="43.09901051223278045654296875" lon="-6.05865888297557830810546875">
        <ele>1031.5999755859375</ele>
        <time>2021-08-17T16:33:01.000Z</time>
      </trkpt>
      <trkpt lat="43.0989857017993927001953125" lon="-6.058598868548870086669921875">
        <ele>1032.4000244140625</ele>
        <time>2021-08-17T16:33:06.000Z</time>
      </trkpt>
      <trkpt lat="43.0989749729633331298828125" lon="-6.0585527680814266204833984375">
        <ele>1033.199951171875</ele>
        <time>2021-08-17T16:33:10.000Z</time>
      </trkpt>
      <trkpt lat="43.09897162020206451416015625" lon="-6.05853005312383174896240234375">
        <ele>1033.5999755859375</ele>
        <time>2021-08-17T16:33:12.000Z</time>
      </trkpt>
      <trkpt lat="43.09896290302276611328125" lon="-6.0584803484380245208740234375">
        <ele>1034.5999755859375</ele>
        <time>2021-08-17T16:33:17.000Z</time>
      </trkpt>
      <trkpt lat="43.09896089136600494384765625" lon="-6.05847054161131381988525390625">
        <ele>1034.800048828125</ele>
        <time>2021-08-17T16:33:18.000Z</time>
      </trkpt>
      <trkpt lat="43.098955862224102020263671875" lon="-6.0584300570189952850341796875">
        <ele>1035.4000244140625</ele>
        <time>2021-08-17T16:33:22.000Z</time>
      </trkpt>
      <trkpt lat="43.0989587120711803436279296875" lon="-6.05839870870113372802734375">
        <ele>1036</ele>
        <time>2021-08-17T16:33:25.000Z</time>
      </trkpt>
      <trkpt lat="43.0989535152912139892578125" lon="-6.05832092463970184326171875">
        <ele>1037.199951171875</ele>
        <time>2021-08-17T16:33:31.000Z</time>
      </trkpt>
      <trkpt lat="43.09894077479839324951171875" lon="-6.05827666819095611572265625">
        <ele>1038.4000244140625</ele>
        <time>2021-08-17T16:33:35.000Z</time>
      </trkpt>
      <trkpt lat="43.098936416208744049072265625" lon="-6.05825780890882015228271484375">
        <ele>1038.800048828125</ele>
        <time>2021-08-17T16:33:37.000Z</time>
      </trkpt>
      <trkpt lat="43.098941110074520111083984375" lon="-6.05821388773620128631591796875">
        <ele>1039.4000244140625</ele>
        <time>2021-08-17T16:33:41.000Z</time>
      </trkpt>
      <trkpt lat="43.0989508330821990966796875" lon="-6.0581780970096588134765625">
        <ele>1040.5999755859375</ele>
        <time>2021-08-17T16:33:45.000Z</time>
      </trkpt>
      <trkpt lat="43.09893867932260036468505859375" lon="-6.05813987553119659423828125">
        <ele>1041.5999755859375</ele>
        <time>2021-08-17T16:33:49.000Z</time>
      </trkpt>
      <trkpt lat="43.0989184789359569549560546875" lon="-6.05809293687343597412109375">
        <ele>1042.5999755859375</ele>
        <time>2021-08-17T16:33:54.000Z</time>
      </trkpt>
      <trkpt lat="43.09891772456467151641845703125" lon="-6.0580924339592456817626953125">
        <ele>1042.800048828125</ele>
        <time>2021-08-17T16:33:55.000Z</time>
      </trkpt>
      <trkpt lat="43.098903559148311614990234375" lon="-6.05807684361934661865234375">
        <ele>1043.5999755859375</ele>
        <time>2021-08-17T16:33:59.000Z</time>
      </trkpt>
      <trkpt lat="43.0988963507115840911865234375" lon="-6.05807290412485599517822265625">
        <ele>1043.800048828125</ele>
        <time>2021-08-17T16:34:00.000Z</time>
      </trkpt>
      <trkpt lat="43.098837174475193023681640625" lon="-6.05808354914188385009765625">
        <ele>1044.4000244140625</ele>
        <time>2021-08-17T16:34:06.000Z</time>
      </trkpt>
      <trkpt lat="43.09882678091526031494140625" lon="-6.05808832682669162750244140625">
        <ele>1044.800048828125</ele>
        <time>2021-08-17T16:34:07.000Z</time>
      </trkpt>
      <trkpt lat="43.09878244064748287200927734375" lon="-6.058094613254070281982421875">
        <ele>1045.5999755859375</ele>
        <time>2021-08-17T16:34:12.000Z</time>
      </trkpt>
      <trkpt lat="43.09877355583012104034423828125" lon="-6.05809293687343597412109375">
        <ele>1046</ele>
        <time>2021-08-17T16:34:13.000Z</time>
      </trkpt>
      <trkpt lat="43.09873147867619991302490234375" lon="-6.05809151194989681243896484375">
        <ele>1047</ele>
        <time>2021-08-17T16:34:18.000Z</time>
      </trkpt>
      <trkpt lat="43.09869694523513317108154296875" lon="-6.058090589940547943115234375">
        <ele>1048</ele>
        <time>2021-08-17T16:34:24.000Z</time>
      </trkpt>
      <trkpt lat="43.098679594695568084716796875" lon="-6.05807952582836151123046875">
        <ele>1049</ele>
        <time>2021-08-17T16:34:27.000Z</time>
      </trkpt>
      <trkpt lat="43.09865218587219715118408203125" lon="-6.05806888081133365631103515625">
        <ele>1049.4000244140625</ele>
        <time>2021-08-17T16:34:30.000Z</time>
      </trkpt>
      <trkpt lat="43.09859988279640674591064453125" lon="-6.05803267098963260650634765625">
        <ele>1050.5999755859375</ele>
        <time>2021-08-17T16:34:36.000Z</time>
      </trkpt>
      <trkpt lat="43.09855520725250244140625" lon="-6.05802093632519245147705078125">
        <ele>1051.800048828125</ele>
        <time>2021-08-17T16:34:41.000Z</time>
      </trkpt>
      <trkpt lat="43.09854607097804546356201171875" lon="-6.0580190084874629974365234375">
        <ele>1052</ele>
        <time>2021-08-17T16:34:42.000Z</time>
      </trkpt>
      <trkpt lat="43.0985248647630214691162109375" lon="-6.05801423080265522003173828125">
        <ele>1052.800048828125</ele>
        <time>2021-08-17T16:34:45.000Z</time>
      </trkpt>
      <trkpt lat="43.0984883196651935577392578125" lon="-6.05801741592586040496826171875">
        <ele>1054</ele>
        <time>2021-08-17T16:34:50.000Z</time>
      </trkpt>
      <trkpt lat="43.09845663607120513916015625" lon="-6.0580223612487316131591796875">
        <ele>1055.199951171875</ele>
        <time>2021-08-17T16:34:54.000Z</time>
      </trkpt>
      <trkpt lat="43.098430149257183074951171875" lon="-6.0580252110958099365234375">
        <ele>1056.199951171875</ele>
        <time>2021-08-17T16:34:58.000Z</time>
      </trkpt>
      <trkpt lat="43.098423443734645843505859375" lon="-6.05802848003804683685302734375">
        <ele>1056.4000244140625</ele>
        <time>2021-08-17T16:34:59.000Z</time>
      </trkpt>
      <trkpt lat="43.09839569963514804840087890625" lon="-6.0580387897789478302001953125">
        <ele>1057.5999755859375</ele>
        <time>2021-08-17T16:35:03.000Z</time>
      </trkpt>
      <trkpt lat="43.09836812317371368408203125" lon="-6.05805111117660999298095703125">
        <ele>1058.800048828125</ele>
        <time>2021-08-17T16:35:09.000Z</time>
      </trkpt>
      <trkpt lat="43.09835429303348064422607421875" lon="-6.05807474814355373382568359375">
        <ele>1060</ele>
        <time>2021-08-17T16:35:13.000Z</time>
      </trkpt>
      <trkpt lat="43.09832378290593624114990234375" lon="-6.05811045505106449127197265625">
        <ele>1061.199951171875</ele>
        <time>2021-08-17T16:35:18.000Z</time>
      </trkpt>
      <trkpt lat="43.09830106794834136962890625" lon="-6.058128811419010162353515625">
        <ele>1062</ele>
        <time>2021-08-17T16:35:21.000Z</time>
      </trkpt>
      <trkpt lat="43.09829293750226497650146484375" lon="-6.05813560076057910919189453125">
        <ele>1062.199951171875</ele>
        <time>2021-08-17T16:35:22.000Z</time>
      </trkpt>
      <trkpt lat="43.0982724018394947052001953125" lon="-6.0581598244607448577880859375">
        <ele>1063.199951171875</ele>
        <time>2021-08-17T16:35:25.000Z</time>
      </trkpt>
      <trkpt lat="43.09825873933732509613037109375" lon="-6.0581772588193416595458984375">
        <ele>1063.4000244140625</ele>
        <time>2021-08-17T16:35:27.000Z</time>
      </trkpt>
      <trkpt lat="43.09824381954967975616455078125" lon="-6.0582107864320278167724609375">
        <ele>1064.4000244140625</ele>
        <time>2021-08-17T16:35:31.000Z</time>
      </trkpt>
      <trkpt lat="43.09824046678841114044189453125" lon="-6.05823886580765247344970703125">
        <ele>1065</ele>
        <time>2021-08-17T16:35:34.000Z</time>
      </trkpt>
      <trkpt lat="43.09823862276971340179443359375" lon="-6.0582751594483852386474609375">
        <ele>1065.4000244140625</ele>
        <time>2021-08-17T16:35:37.000Z</time>
      </trkpt>
      <trkpt lat="43.09823795221745967864990234375" lon="-6.05828597210347652435302734375">
        <ele>1065.5999755859375</ele>
        <time>2021-08-17T16:35:38.000Z</time>
      </trkpt>
      <trkpt lat="43.09823610819876194000244140625" lon="-6.058305837213993072509765625">
        <ele>1066</ele>
        <time>2021-08-17T16:35:40.000Z</time>
      </trkpt>
      <trkpt lat="43.09823744930326938629150390625" lon="-6.05833928100764751434326171875">
        <ele>1066.5999755859375</ele>
        <time>2021-08-17T16:35:43.000Z</time>
      </trkpt>
      <trkpt lat="43.0982408858835697174072265625" lon="-6.05839225463569164276123046875">
        <ele>1067.199951171875</ele>
        <time>2021-08-17T16:35:47.000Z</time>
      </trkpt>
      <trkpt lat="43.09825002215802669525146484375" lon="-6.05842016637325286865234375">
        <ele>1067.5999755859375</ele>
        <time>2021-08-17T16:35:49.000Z</time>
      </trkpt>
      <trkpt lat="43.0982615053653717041015625" lon="-6.05845880694687366485595703125">
        <ele>1068.5999755859375</ele>
        <time>2021-08-17T16:35:53.000Z</time>
      </trkpt>
      <trkpt lat="43.0982646904885768890380859375" lon="-6.0584672726690769195556640625">
        <ele>1068.800048828125</ele>
        <time>2021-08-17T16:35:54.000Z</time>
      </trkpt>
      <trkpt lat="43.09826712124049663543701171875" lon="-6.05850507505238056182861328125">
        <ele>1069.800048828125</ele>
        <time>2021-08-17T16:35:58.000Z</time>
      </trkpt>
      <trkpt lat="43.09826259501278400421142578125" lon="-6.05856425128877162933349609375">
        <ele>1070.800048828125</ele>
        <time>2021-08-17T16:36:02.000Z</time>
      </trkpt>
      <trkpt lat="43.0982459150254726409912109375" lon="-6.0586285404860973358154296875">
        <ele>1071.5999755859375</ele>
        <time>2021-08-17T16:36:07.000Z</time>
      </trkpt>
      <trkpt lat="43.0982459150254726409912109375" lon="-6.05864639393985271453857421875">
        <ele>1072</ele>
        <time>2021-08-17T16:36:09.000Z</time>
      </trkpt>
      <trkpt lat="43.09824532829225063323974609375" lon="-6.05865779332816600799560546875">
        <ele>1072.199951171875</ele>
        <time>2021-08-17T16:36:10.000Z</time>
      </trkpt>
      <trkpt lat="43.0982227809727191925048828125" lon="-6.058777235448360443115234375">
        <ele>1072.800048828125</ele>
        <time>2021-08-17T16:36:19.000Z</time>
      </trkpt>
      <trkpt lat="43.09821012429893016815185546875" lon="-6.058818809688091278076171875">
        <ele>1073</ele>
        <time>2021-08-17T16:36:22.000Z</time>
      </trkpt>
      <trkpt lat="43.09819302521646022796630859375" lon="-6.058842949569225311279296875">
        <ele>1073.4000244140625</ele>
        <time>2021-08-17T16:36:24.000Z</time>
      </trkpt>
      <trkpt lat="43.0981768481433391571044921875" lon="-6.05886331759393215179443359375">
        <ele>1073.5999755859375</ele>
        <time>2021-08-17T16:36:26.000Z</time>
      </trkpt>
      <trkpt lat="43.09815983287990093231201171875" lon="-6.0589027963578701019287109375">
        <ele>1073.800048828125</ele>
        <time>2021-08-17T16:36:29.000Z</time>
      </trkpt>
      <trkpt lat="43.09813820756971836090087890625" lon="-6.05893204919993877410888671875">
        <ele>1074.199951171875</ele>
        <time>2021-08-17T16:36:32.000Z</time>
      </trkpt>
      <trkpt lat="43.09810459613800048828125" lon="-6.0589613020420074462890625">
        <ele>1074.4000244140625</ele>
        <time>2021-08-17T16:36:36.000Z</time>
      </trkpt>
      <trkpt lat="43.0980906821787357330322265625" lon="-6.058977730572223663330078125">
        <ele>1074.5999755859375</ele>
        <time>2021-08-17T16:36:38.000Z</time>
      </trkpt>
      <trkpt lat="43.098035193979740142822265625" lon="-6.0590231604874134063720703125">
        <ele>1075.199951171875</ele>
        <time>2021-08-17T16:36:43.000Z</time>
      </trkpt>
      <trkpt lat="43.09797107242047786712646484375" lon="-6.05908711440861225128173828125">
        <ele>1076.199951171875</ele>
        <time>2021-08-17T16:36:51.000Z</time>
      </trkpt>
      <trkpt lat="43.097943998873233795166015625" lon="-6.05909700505435466766357421875">
        <ele>1076.800048828125</ele>
        <time>2021-08-17T16:36:54.000Z</time>
      </trkpt>
      <trkpt lat="43.09793494641780853271484375" lon="-6.05909935198724269866943359375">
        <ele>1077</ele>
        <time>2021-08-17T16:36:55.000Z</time>
      </trkpt>
      <trkpt lat="43.09789312072098255157470703125" lon="-6.0591034591197967529296875">
        <ele>1077.199951171875</ele>
        <time>2021-08-17T16:36:59.000Z</time>
      </trkpt>
      <trkpt lat="43.0978844873607158660888671875" lon="-6.05910278856754302978515625">
        <ele>1077.4000244140625</ele>
        <time>2021-08-17T16:37:00.000Z</time>
      </trkpt>
      <trkpt lat="43.0978268198668956756591796875" lon="-6.05910873971879482269287109375">
        <ele>1078.4000244140625</ele>
        <time>2021-08-17T16:37:05.000Z</time>
      </trkpt>
      <trkpt lat="43.09772782959043979644775390625" lon="-6.0591076500713825225830078125">
        <ele>1079.5999755859375</ele>
        <time>2021-08-17T16:37:14.000Z</time>
      </trkpt>
      <trkpt lat="43.09767745435237884521484375" lon="-6.0590959154069423675537109375">
        <ele>1080.5999755859375</ele>
        <time>2021-08-17T16:37:19.000Z</time>
      </trkpt>
      <trkpt lat="43.0976685695350170135498046875" lon="-6.05909231118857860565185546875">
        <ele>1081</ele>
        <time>2021-08-17T16:37:20.000Z</time>
      </trkpt>
      <trkpt lat="43.0976303480565547943115234375" lon="-6.05907286517322063446044921875">
        <ele>1082</ele>
        <time>2021-08-17T16:37:25.000Z</time>
      </trkpt>
      <trkpt lat="43.09759606607258319854736328125" lon="-6.05907487682998180389404296875">
        <ele>1083</ele>
        <time>2021-08-17T16:37:29.000Z</time>
      </trkpt>
      <trkpt lat="43.09757611714303493499755859375" lon="-6.059107482433319091796875">
        <ele>1084</ele>
        <time>2021-08-17T16:37:33.000Z</time>
      </trkpt>
      <trkpt lat="43.0975767038762569427490234375" lon="-6.05914310552179813385009765625">
        <ele>1085</ele>
        <time>2021-08-17T16:37:37.000Z</time>
      </trkpt>
      <trkpt lat="43.09756840579211711883544921875" lon="-6.059194989502429962158203125">
        <ele>1086</ele>
        <time>2021-08-17T16:37:42.000Z</time>
      </trkpt>
      <trkpt lat="43.09756555594503879547119140625" lon="-6.0592068918049335479736328125">
        <ele>1086.199951171875</ele>
        <time>2021-08-17T16:37:43.000Z</time>
      </trkpt>
      <trkpt lat="43.0975606106221675872802734375" lon="-6.05924234725534915924072265625">
        <ele>1087</ele>
        <time>2021-08-17T16:37:46.000Z</time>
      </trkpt>
      <trkpt lat="43.0975374765694141387939453125" lon="-6.0592933930456638336181640625">
        <ele>1087.800048828125</ele>
        <time>2021-08-17T16:37:50.000Z</time>
      </trkpt>
      <trkpt lat="43.09752280823886394500732421875" lon="-6.0593099892139434814453125">
        <ele>1088.199951171875</ele>
        <time>2021-08-17T16:37:52.000Z</time>
      </trkpt>
      <trkpt lat="43.09749598614871501922607421875" lon="-6.059341169893741607666015625">
        <ele>1089</ele>
        <time>2021-08-17T16:37:56.000Z</time>
      </trkpt>
      <trkpt lat="43.097479641437530517578125" lon="-6.059353910386562347412109375">
        <ele>1089.199951171875</ele>
        <time>2021-08-17T16:37:58.000Z</time>
      </trkpt>
      <trkpt lat="43.0974560044705867767333984375" lon="-6.05939188040792942047119140625">
        <ele>1090.199951171875</ele>
        <time>2021-08-17T16:38:03.000Z</time>
      </trkpt>
      <trkpt lat="43.0974399112164974212646484375" lon="-6.05942071415483951568603515625">
        <ele>1091</ele>
        <time>2021-08-17T16:38:06.000Z</time>
      </trkpt>
      <trkpt lat="43.09743446297943592071533203125" lon="-6.05942926369607448577880859375">
        <ele>1091.199951171875</ele>
        <time>2021-08-17T16:38:07.000Z</time>
      </trkpt>
      <trkpt lat="43.09741820208728313446044921875" lon="-6.0594521462917327880859375">
        <ele>1092</ele>
        <time>2021-08-17T16:38:10.000Z</time>
      </trkpt>
      <trkpt lat="43.097406886518001556396484375" lon="-6.059481315314769744873046875">
        <ele>1092.5999755859375</ele>
        <time>2021-08-17T16:38:13.000Z</time>
      </trkpt>
      <trkpt lat="43.09739020653069019317626953125" lon="-6.0595254041254520416259765625">
        <ele>1093.5999755859375</ele>
        <time>2021-08-17T16:38:17.000Z</time>
      </trkpt>
      <trkpt lat="43.09738953597843647003173828125" lon="-6.05953487567603588104248046875">
        <ele>1093.800048828125</ele>
        <time>2021-08-17T16:38:18.000Z</time>
      </trkpt>
      <trkpt lat="43.0973832495510578155517578125" lon="-6.0595569200813770294189453125">
        <ele>1094.199951171875</ele>
        <time>2021-08-17T16:38:20.000Z</time>
      </trkpt>
      <trkpt lat="43.09737562201917171478271484375" lon="-6.05957753956317901611328125">
        <ele>1094.5999755859375</ele>
        <time>2021-08-17T16:38:22.000Z</time>
      </trkpt>
      <trkpt lat="43.0973668210208415985107421875" lon="-6.05963462032377719879150390625">
        <ele>1095.5999755859375</ele>
        <time>2021-08-17T16:38:26.000Z</time>
      </trkpt>
      <trkpt lat="43.0973641388118267059326171875" lon="-6.05964652262628078460693359375">
        <ele>1095.800048828125</ele>
        <time>2021-08-17T16:38:27.000Z</time>
      </trkpt>
      <trkpt lat="43.09735156595706939697265625" lon="-6.05971030890941619873046875">
        <ele>1096.800048828125</ele>
        <time>2021-08-17T16:38:32.000Z</time>
      </trkpt>
      <trkpt lat="43.09732281602919101715087890625" lon="-6.05978943407535552978515625">
        <ele>1098</ele>
        <time>2021-08-17T16:38:39.000Z</time>
      </trkpt>
      <trkpt lat="43.09730890206992626190185546875" lon="-6.05984031222760677337646484375">
        <ele>1098.800048828125</ele>
        <time>2021-08-17T16:38:43.000Z</time>
      </trkpt>
      <trkpt lat="43.09730471111834049224853515625" lon="-6.0598512925207614898681640625">
        <ele>1099</ele>
        <time>2021-08-17T16:38:44.000Z</time>
      </trkpt>
      <trkpt lat="43.0972900427877902984619140625" lon="-6.05990787036716938018798828125">
        <ele>1100</ele>
        <time>2021-08-17T16:38:49.000Z</time>
      </trkpt>
      <trkpt lat="43.09725458733737468719482421875" lon="-6.05999034829437732696533203125">
        <ele>1101</ele>
        <time>2021-08-17T16:38:56.000Z</time>
      </trkpt>
      <trkpt lat="43.09724603779613971710205078125" lon="-6.0600122250616550445556640625">
        <ele>1101.4000244140625</ele>
        <time>2021-08-17T16:38:58.000Z</time>
      </trkpt>
      <trkpt lat="43.09722558595240116119384765625" lon="-6.0600511170923709869384765625">
        <ele>1102.199951171875</ele>
        <time>2021-08-17T16:39:02.000Z</time>
      </trkpt>
      <trkpt lat="43.09721167199313640594482421875" lon="-6.06008070521056652069091796875">
        <ele>1103.199951171875</ele>
        <time>2021-08-17T16:39:05.000Z</time>
      </trkpt>
      <trkpt lat="43.09718116186559200286865234375" lon="-6.06014742515981197357177734375">
        <ele>1104.199951171875</ele>
        <time>2021-08-17T16:39:12.000Z</time>
      </trkpt>
      <trkpt lat="43.097173869609832763671875" lon="-6.060158908367156982421875">
        <ele>1104.199951171875</ele>
        <time>2021-08-17T16:39:13.000Z</time>
      </trkpt>
      <trkpt lat="43.0971455387771129608154296875" lon="-6.06022395193576812744140625">
        <ele>1105.4000244140625</ele>
        <time>2021-08-17T16:39:18.000Z</time>
      </trkpt>
      <trkpt lat="43.0971162021160125732421875" lon="-6.06027550064027309417724609375">
        <ele>1106.4000244140625</ele>
        <time>2021-08-17T16:39:23.000Z</time>
      </trkpt>
      <trkpt lat="43.09708275832235813140869140625" lon="-6.060319840908050537109375">
        <ele>1107.4000244140625</ele>
        <time>2021-08-17T16:39:28.000Z</time>
      </trkpt>
      <trkpt lat="43.097074963152408599853515625" lon="-6.060328222811222076416015625">
        <ele>1107.5999755859375</ele>
        <time>2021-08-17T16:39:29.000Z</time>
      </trkpt>
      <trkpt lat="43.09703498147428035736083984375" lon="-6.060373149812221527099609375">
        <ele>1108.5999755859375</ele>
        <time>2021-08-17T16:39:35.000Z</time>
      </trkpt>
      <trkpt lat="43.09702693484723567962646484375" lon="-6.06037742458283901214599609375">
        <ele>1108.800048828125</ele>
        <time>2021-08-17T16:39:36.000Z</time>
      </trkpt>
      <trkpt lat="43.09698955155909061431884765625" lon="-6.0604232735931873321533203125">
        <ele>1109.800048828125</ele>
        <time>2021-08-17T16:39:42.000Z</time>
      </trkpt>
      <trkpt lat="43.09698167257010936737060546875" lon="-6.0604319907724857330322265625">
        <ele>1110</ele>
        <time>2021-08-17T16:39:43.000Z</time>
      </trkpt>
      <trkpt lat="43.09694998897612094879150390625" lon="-6.06047415174543857574462890625">
        <ele>1111</ele>
        <time>2021-08-17T16:39:47.000Z</time>
      </trkpt>
      <trkpt lat="43.0968960933387279510498046875" lon="-6.06051824055612087249755859375">
        <ele>1112</ele>
        <time>2021-08-17T16:39:54.000Z</time>
      </trkpt>
      <trkpt lat="43.0968843586742877960205078125" lon="-6.06053969822824001312255859375">
        <ele>1112.4000244140625</ele>
        <time>2021-08-17T16:39:56.000Z</time>
      </trkpt>
      <trkpt lat="43.09687874279916286468505859375" lon="-6.0605473257601261138916015625">
        <ele>1112.800048828125</ele>
        <time>2021-08-17T16:39:57.000Z</time>
      </trkpt>
      <trkpt lat="43.09686952270567417144775390625" lon="-6.06056635268032550811767578125">
        <ele>1113</ele>
        <time>2021-08-17T16:39:59.000Z</time>
      </trkpt>
      <trkpt lat="43.096846640110015869140625" lon="-6.0605852119624614715576171875">
        <ele>1114.199951171875</ele>
        <time>2021-08-17T16:40:03.000Z</time>
      </trkpt>
      <trkpt lat="43.096798025071620941162109375" lon="-6.06058605015277862548828125">
        <ele>1115.199951171875</ele>
        <time>2021-08-17T16:40:09.000Z</time>
      </trkpt>
      <trkpt lat="43.09678754769265651702880859375" lon="-6.06058026663959026336669921875">
        <ele>1115.4000244140625</ele>
        <time>2021-08-17T16:40:10.000Z</time>
      </trkpt>
      <trkpt lat="43.0967782437801361083984375" lon="-6.0605751536786556243896484375">
        <ele>1115.4000244140625</ele>
        <time>2021-08-17T16:40:11.000Z</time>
      </trkpt>
      <trkpt lat="43.09674580581486225128173828125" lon="-6.0605744831264019012451171875">
        <ele>1116.4000244140625</ele>
        <time>2021-08-17T16:40:15.000Z</time>
      </trkpt>
      <trkpt lat="43.096700794994831085205078125" lon="-6.060564927756786346435546875">
        <ele>1117.4000244140625</ele>
        <time>2021-08-17T16:40:20.000Z</time>
      </trkpt>
      <trkpt lat="43.096691407263278961181640625" lon="-6.06056132353842258453369140625">
        <ele>1117.5999755859375</ele>
        <time>2021-08-17T16:40:21.000Z</time>
      </trkpt>
      <trkpt lat="43.09665461070835590362548828125" lon="-6.06054581701755523681640625">
        <ele>1118.800048828125</ele>
        <time>2021-08-17T16:40:25.000Z</time>
      </trkpt>
      <trkpt lat="43.09664488770067691802978515625" lon="-6.0605406202375888824462890625">
        <ele>1119</ele>
        <time>2021-08-17T16:40:26.000Z</time>
      </trkpt>
      <trkpt lat="43.0966178141534328460693359375" lon="-6.06054053641855716705322265625">
        <ele>1120</ele>
        <time>2021-08-17T16:40:29.000Z</time>
      </trkpt>
      <trkpt lat="43.09656542725861072540283203125" lon="-6.0605342499911785125732421875">
        <ele>1121</ele>
        <time>2021-08-17T16:40:35.000Z</time>
      </trkpt>
      <trkpt lat="43.09655503369867801666259765625" lon="-6.06053852476179599761962890625">
        <ele>1121.199951171875</ele>
        <time>2021-08-17T16:40:36.000Z</time>
      </trkpt>
      <trkpt lat="43.09652142226696014404296875" lon="-6.0605419613420963287353515625">
        <ele>1122.199951171875</ele>
        <time>2021-08-17T16:40:40.000Z</time>
      </trkpt>
      <trkpt lat="43.09646769426763057708740234375" lon="-6.06056450866162776947021484375">
        <ele>1123.4000244140625</ele>
        <time>2021-08-17T16:40:46.000Z</time>
      </trkpt>
      <trkpt lat="43.096428550779819488525390625" lon="-6.06058898381888866424560546875">
        <ele>1124</ele>
        <time>2021-08-17T16:40:50.000Z</time>
      </trkpt>
      <trkpt lat="43.09640281833708286285400390625" lon="-6.06059971265494823455810546875">
        <ele>1124.4000244140625</ele>
        <time>2021-08-17T16:40:53.000Z</time>
      </trkpt>
      <trkpt lat="43.096314556896686553955078125" lon="-6.06061915867030620574951171875">
        <ele>1125.5999755859375</ele>
        <time>2021-08-17T16:41:01.000Z</time>
      </trkpt>
      <trkpt lat="43.0962912552058696746826171875" lon="-6.06061614118516445159912109375">
        <ele>1126</ele>
        <time>2021-08-17T16:41:03.000Z</time>
      </trkpt>
      <trkpt lat="43.0962594039738178253173828125" lon="-6.060609854757785797119140625">
        <ele>1126.5999755859375</ele>
        <time>2021-08-17T16:41:06.000Z</time>
      </trkpt>
      <trkpt lat="43.096249513328075408935546875" lon="-6.0606093518435955047607421875">
        <ele>1126.800048828125</ele>
        <time>2021-08-17T16:41:07.000Z</time>
      </trkpt>
      <trkpt lat="43.0961749143898487091064453125" lon="-6.0605935938656330108642578125">
        <ele>1127.800048828125</ele>
        <time>2021-08-17T16:41:14.000Z</time>
      </trkpt>
      <trkpt lat="43.09614121913909912109375" lon="-6.06060608290135860443115234375">
        <ele>1128.800048828125</ele>
        <time>2021-08-17T16:41:18.000Z</time>
      </trkpt>
      <trkpt lat="43.09613359160721302032470703125" lon="-6.06061362661421298980712890625">
        <ele>1129</ele>
        <time>2021-08-17T16:41:19.000Z</time>
      </trkpt>
      <trkpt lat="43.096098639070987701416015625" lon="-6.0606713779270648956298828125">
        <ele>1130</ele>
        <time>2021-08-17T16:41:25.000Z</time>
      </trkpt>
      <trkpt lat="43.09609226882457733154296875" lon="-6.060704402625560760498046875">
        <ele>1131</ele>
        <time>2021-08-17T16:41:28.000Z</time>
      </trkpt>
      <trkpt lat="43.09609151445329189300537109375" lon="-6.0607149638235569000244140625">
        <ele>1131.4000244140625</ele>
        <time>2021-08-17T16:41:29.000Z</time>
      </trkpt>
      <trkpt lat="43.09610375203192234039306640625" lon="-6.06076500378549098968505859375">
        <ele>1132.199951171875</ele>
        <time>2021-08-17T16:41:34.000Z</time>
      </trkpt>
      <trkpt lat="43.09611481614410877227783203125" lon="-6.06082887388765811920166015625">
        <ele>1133.4000244140625</ele>
        <time>2021-08-17T16:41:40.000Z</time>
      </trkpt>
      <trkpt lat="43.09612839482724666595458984375" lon="-6.060851924121379852294921875">
        <ele>1133.5999755859375</ele>
        <time>2021-08-17T16:41:42.000Z</time>
      </trkpt>
      <trkpt lat="43.096140883862972259521484375" lon="-6.06087706983089447021484375">
        <ele>1133.800048828125</ele>
        <time>2021-08-17T16:41:44.000Z</time>
      </trkpt>
      <trkpt lat="43.09619142673909664154052734375" lon="-6.06104202568531036376953125">
        <ele>1134.199951171875</ele>
        <time>2021-08-17T16:41:56.000Z</time>
      </trkpt>
      <trkpt lat="43.096196539700031280517578125" lon="-6.0610737092792987823486328125">
        <ele>1134.4000244140625</ele>
        <time>2021-08-17T16:41:58.000Z</time>
      </trkpt>
      <trkpt lat="43.09620047919452190399169921875" lon="-6.06108971871435642242431640625">
        <ele>1134.5999755859375</ele>
        <time>2021-08-17T16:41:59.000Z</time>
      </trkpt>
      <trkpt lat="43.09620215557515621185302734375" lon="-6.06110631488263607025146484375">
        <ele>1134.5999755859375</ele>
        <time>2021-08-17T16:42:00.000Z</time>
      </trkpt>
      <trkpt lat="43.09620416723191738128662109375" lon="-6.06114336289465427398681640625">
        <ele>1134.5999755859375</ele>
        <time>2021-08-17T16:42:02.000Z</time>
      </trkpt>
      <trkpt lat="43.09620316140353679656982421875" lon="-6.0611768066883087158203125">
        <ele>1134.5999755859375</ele>
        <time>2021-08-17T16:42:04.000Z</time>
      </trkpt>
      <trkpt lat="43.09622260741889476776123046875" lon="-6.0612812452018260955810546875">
        <ele>1134</ele>
        <time>2021-08-17T16:42:11.000Z</time>
      </trkpt>
      <trkpt lat="43.09623149223625659942626953125" lon="-6.061309240758419036865234375">
        <ele>1133.800048828125</ele>
        <time>2021-08-17T16:42:13.000Z</time>
      </trkpt>
      <trkpt lat="43.09625722467899322509765625" lon="-6.06136162765324115753173828125">
        <ele>1133.800048828125</ele>
        <time>2021-08-17T16:42:17.000Z</time>
      </trkpt>
      <trkpt lat="43.0963036604225635528564453125" lon="-6.06144678778946399688720703125">
        <ele>1133.4000244140625</ele>
        <time>2021-08-17T16:42:24.000Z</time>
      </trkpt>
      <trkpt lat="43.09630810283124446868896484375" lon="-6.06150244362652301788330078125">
        <ele>1133.4000244140625</ele>
        <time>2021-08-17T16:42:27.000Z</time>
      </trkpt>
      <trkpt lat="43.09631145559251308441162109375" lon="-6.061558015644550323486328125">
        <ele>1133.199951171875</ele>
        <time>2021-08-17T16:42:30.000Z</time>
      </trkpt>
      <trkpt lat="43.09633039869368076324462890625" lon="-6.0616864264011383056640625">
        <ele>1133</ele>
        <time>2021-08-17T16:42:37.000Z</time>
      </trkpt>
      <trkpt lat="43.09633023105561733245849609375" lon="-6.06170930899679660797119140625">
        <ele>1133</ele>
        <time>2021-08-17T16:42:38.000Z</time>
      </trkpt>
      <trkpt lat="43.09631816111505031585693359375" lon="-6.0618968121707439422607421875">
        <ele>1132.5999755859375</ele>
        <time>2021-08-17T16:42:50.000Z</time>
      </trkpt>
      <trkpt lat="43.09625848196446895599365234375" lon="-6.0620624385774135589599609375">
        <ele>1133</ele>
        <time>2021-08-17T16:43:03.000Z</time>
      </trkpt>
      <trkpt lat="43.096247501671314239501953125" lon="-6.062070988118648529052734375">
        <ele>1133.199951171875</ele>
        <time>2021-08-17T16:43:04.000Z</time>
      </trkpt>
      <trkpt lat="43.0962134711444377899169921875" lon="-6.06211164034903049468994140625">
        <ele>1133.4000244140625</ele>
        <time>2021-08-17T16:43:08.000Z</time>
      </trkpt>
      <trkpt lat="43.09611598961055278778076171875" lon="-6.06217266060411930084228515625">
        <ele>1134.199951171875</ele>
        <time>2021-08-17T16:43:17.000Z</time>
      </trkpt>
      <trkpt lat="43.09609570540487766265869140625" lon="-6.062184311449527740478515625">
        <ele>1134.4000244140625</ele>
        <time>2021-08-17T16:43:19.000Z</time>
      </trkpt>
      <trkpt lat="43.09608497656881809234619140625" lon="-6.0621915198862552642822265625">
        <ele>1134.5999755859375</ele>
        <time>2021-08-17T16:43:20.000Z</time>
      </trkpt>
      <trkpt lat="43.09590359218418598175048828125" lon="-6.06225547380745410919189453125">
        <ele>1135.4000244140625</ele>
        <time>2021-08-17T16:43:35.000Z</time>
      </trkpt>
      <trkpt lat="43.09589370153844356536865234375" lon="-6.06226586736738681793212890625">
        <ele>1135.4000244140625</ele>
        <time>2021-08-17T16:43:36.000Z</time>
      </trkpt>
      <trkpt lat="43.09588439762592315673828125" lon="-6.06227257288992404937744140625">
        <ele>1135.4000244140625</ele>
        <time>2021-08-17T16:43:37.000Z</time>
      </trkpt>
      <trkpt lat="43.09586034156382083892822265625" lon="-6.0622870735824108123779296875">
        <ele>1135.4000244140625</ele>
        <time>2021-08-17T16:43:39.000Z</time>
      </trkpt>
      <trkpt lat="43.09583385474979877471923828125" lon="-6.06231817044317722320556640625">
        <ele>1135.5999755859375</ele>
        <time>2021-08-17T16:43:42.000Z</time>
      </trkpt>
      <trkpt lat="43.09578917920589447021484375" lon="-6.062349267303943634033203125">
        <ele>1135.800048828125</ele>
        <time>2021-08-17T16:43:46.000Z</time>
      </trkpt>
      <trkpt lat="43.0957715772092342376708984375" lon="-6.06236360035836696624755859375">
        <ele>1135.800048828125</ele>
        <time>2021-08-17T16:43:47.000Z</time>
      </trkpt>
      <trkpt lat="43.09573813341557979583740234375" lon="-6.06239193119108676910400390625">
        <ele>1136.199951171875</ele>
        <time>2021-08-17T16:43:50.000Z</time>
      </trkpt>
      <trkpt lat="43.09566403739154338836669921875" lon="-6.0624382831156253814697265625">
        <ele>1136.4000244140625</ele>
        <time>2021-08-17T16:43:56.000Z</time>
      </trkpt>
      <trkpt lat="43.09559178538620471954345703125" lon="-6.0624687932431697845458984375">
        <ele>1137.199951171875</ele>
        <time>2021-08-17T16:44:04.000Z</time>
      </trkpt>
      <trkpt lat="43.09546194970607757568359375" lon="-6.06253392063081264495849609375">
        <ele>1137.5999755859375</ele>
        <time>2021-08-17T16:44:15.000Z</time>
      </trkpt>
      <trkpt lat="43.0954316072165966033935546875" lon="-6.062553115189075469970703125">
        <ele>1137.800048828125</ele>
        <time>2021-08-17T16:44:18.000Z</time>
      </trkpt>
      <trkpt lat="43.0952922999858856201171875" lon="-6.06266099028289318084716796875">
        <ele>1137.800048828125</ele>
        <time>2021-08-17T16:44:31.000Z</time>
      </trkpt>
      <trkpt lat="43.095247708261013031005859375" lon="-6.06279560364782810211181640625">
        <ele>1137.4000244140625</ele>
        <time>2021-08-17T16:44:42.000Z</time>
      </trkpt>
      <trkpt lat="43.095246367156505584716796875" lon="-6.06282024644315242767333984375">
        <ele>1137.199951171875</ele>
        <time>2021-08-17T16:44:44.000Z</time>
      </trkpt>
      <trkpt lat="43.09523572213947772979736328125" lon="-6.06286332942545413970947265625">
        <ele>1136.800048828125</ele>
        <time>2021-08-17T16:44:48.000Z</time>
      </trkpt>
      <trkpt lat="43.0951982550323009490966796875" lon="-6.06305175460875034332275390625">
        <ele>1136.5999755859375</ele>
        <time>2021-08-17T16:44:58.000Z</time>
      </trkpt>
      <trkpt lat="43.09519129805266857147216796875" lon="-6.0630823485553264617919921875">
        <ele>1136.5999755859375</ele>
        <time>2021-08-17T16:45:00.000Z</time>
      </trkpt>
      <trkpt lat="43.09518509544432163238525390625" lon="-6.06311537325382232666015625">
        <ele>1136.5999755859375</ele>
        <time>2021-08-17T16:45:02.000Z</time>
      </trkpt>
      <trkpt lat="43.0952130071818828582763671875" lon="-6.063328944146633148193359375">
        <ele>1137.4000244140625</ele>
        <time>2021-08-17T16:45:13.000Z</time>
      </trkpt>
      <trkpt lat="43.09521786868572235107421875" lon="-6.06335677206516265869140625">
        <ele>1137.5999755859375</ele>
        <time>2021-08-17T16:45:15.000Z</time>
      </trkpt>
      <trkpt lat="43.0952264182269573211669921875" lon="-6.06342391110956668853759765625">
        <ele>1138</ele>
        <time>2021-08-17T16:45:20.000Z</time>
      </trkpt>
      <trkpt lat="43.09523371048271656036376953125" lon="-6.06345626525580883026123046875">
        <ele>1138.199951171875</ele>
        <time>2021-08-17T16:45:22.000Z</time>
      </trkpt>
      <trkpt lat="43.09524343349039554595947265625" lon="-6.0634712688624858856201171875">
        <ele>1138.199951171875</ele>
        <time>2021-08-17T16:45:23.000Z</time>
      </trkpt>
      <trkpt lat="43.0952472053468227386474609375" lon="-6.06348845176398754119873046875">
        <ele>1138.199951171875</ele>
        <time>2021-08-17T16:45:24.000Z</time>
      </trkpt>
      <trkpt lat="43.09525030665099620819091796875" lon="-6.06354360468685626983642578125">
        <ele>1138.199951171875</ele>
        <time>2021-08-17T16:45:27.000Z</time>
      </trkpt>
      <trkpt lat="43.0952904559671878814697265625" lon="-6.06367637403309345245361328125">
        <ele>1138</ele>
        <time>2021-08-17T16:45:36.000Z</time>
      </trkpt>
      <trkpt lat="43.0952871032059192657470703125" lon="-6.06369766406714916229248046875">
        <ele>1138</ele>
        <time>2021-08-17T16:45:39.000Z</time>
      </trkpt>
      <trkpt lat="43.0952869355678558349609375" lon="-6.0637049563229084014892578125">
        <ele>1137.800048828125</ele>
        <time>2021-08-17T16:45:40.000Z</time>
      </trkpt>
      <trkpt lat="43.0952777154743671417236328125" lon="-6.06376321054995059967041015625">
        <ele>1138</ele>
        <time>2021-08-17T16:45:51.000Z</time>
      </trkpt>
      <trkpt lat="43.09526086784899234771728515625" lon="-6.0637651383876800537109375">
        <ele>1138.4000244140625</ele>
        <time>2021-08-17T16:46:07.000Z</time>
      </trkpt>
      <trkpt lat="43.09525634162127971649169921875" lon="-6.06377477757632732391357421875">
        <ele>1138</ele>
        <time>2021-08-17T16:46:14.000Z</time>
      </trkpt>
      <trkpt lat="43.0952505581080913543701171875" lon="-6.0637790523469448089599609375">
        <ele>1138</ele>
        <time>2021-08-17T16:46:17.000Z</time>
      </trkpt>
      <trkpt lat="43.09525097720324993133544921875" lon="-6.06376941315829753875732421875">
        <ele>1137.800048828125</ele>
        <time>2021-08-17T16:46:26.000Z</time>
      </trkpt>
      <trkpt lat="43.095261789858341217041015625" lon="-6.0637797228991985321044921875">
        <ele>1138.199951171875</ele>
        <time>2021-08-17T16:46:42.000Z</time>
      </trkpt>
      <trkpt lat="43.09525785036385059356689453125" lon="-6.063788942992687225341796875">
        <ele>1138</ele>
        <time>2021-08-17T16:46:47.000Z</time>
      </trkpt>
      <trkpt lat="43.09523454867303371429443359375" lon="-6.06378969736397266387939453125">
        <ele>1138</ele>
        <time>2021-08-17T16:46:55.000Z</time>
      </trkpt>
      <trkpt lat="43.0952361412346363067626953125" lon="-6.06378726661205291748046875">
        <ele>1138</ele>
        <time>2021-08-17T16:46:56.000Z</time>
      </trkpt>
      <trkpt lat="43.09524209238588809967041015625" lon="-6.06378047727048397064208984375">
        <ele>1138</ele>
        <time>2021-08-17T16:46:57.000Z</time>
      </trkpt>
      <trkpt lat="43.095234967768192291259765625" lon="-6.06376857496798038482666015625">
        <ele>1138</ele>
        <time>2021-08-17T16:46:59.000Z</time>
      </trkpt>
      <trkpt lat="43.09526841156184673309326171875" lon="-6.06374309398233890533447265625">
        <ele>1138.4000244140625</ele>
        <time>2021-08-17T16:47:11.000Z</time>
      </trkpt>
      <trkpt lat="43.095291294157505035400390625" lon="-6.06382557190954685211181640625">
        <ele>1138</ele>
        <time>2021-08-17T16:47:20.000Z</time>
      </trkpt>
      <trkpt lat="43.09529372490942478179931640625" lon="-6.06384635902941226959228515625">
        <ele>1137.5999755859375</ele>
        <time>2021-08-17T16:47:22.000Z</time>
      </trkpt>
      <trkpt lat="43.0952978320419788360595703125" lon="-6.0638759471476078033447265625">
        <ele>1137</ele>
        <time>2021-08-17T16:47:24.000Z</time>
      </trkpt>
      <trkpt lat="43.095313422381877899169921875" lon="-6.06392799876630306243896484375">
        <ele>1136.5999755859375</ele>
        <time>2021-08-17T16:47:28.000Z</time>
      </trkpt>
      <trkpt lat="43.09531132690608501434326171875" lon="-6.0639460198581218719482421875">
        <ele>1136.4000244140625</ele>
        <time>2021-08-17T16:47:29.000Z</time>
      </trkpt>
      <trkpt lat="43.095316775143146514892578125" lon="-6.06403126381337642669677734375">
        <ele>1135.4000244140625</ele>
        <time>2021-08-17T16:47:35.000Z</time>
      </trkpt>
      <trkpt lat="43.09532381594181060791015625" lon="-6.064065881073474884033203125">
        <ele>1135</ele>
        <time>2021-08-17T16:47:37.000Z</time>
      </trkpt>
      <trkpt lat="43.09531820006668567657470703125" lon="-6.0641867481172084808349609375">
        <ele>1134.4000244140625</ele>
        <time>2021-08-17T16:47:43.000Z</time>
      </trkpt>
      <trkpt lat="43.09531685896217823028564453125" lon="-6.06420560739934444427490234375">
        <ele>1134.4000244140625</ele>
        <time>2021-08-17T16:47:44.000Z</time>
      </trkpt>
      <trkpt lat="43.09529121033847332000732421875" lon="-6.064283810555934906005859375">
        <ele>1134</ele>
        <time>2021-08-17T16:47:49.000Z</time>
      </trkpt>
      <trkpt lat="43.09521652758121490478515625" lon="-6.06439319439232349395751953125">
        <ele>1134</ele>
        <time>2021-08-17T16:48:00.000Z</time>
      </trkpt>
      <trkpt lat="43.095200099050998687744140625" lon="-6.0644144006073474884033203125">
        <ele>1133.800048828125</ele>
        <time>2021-08-17T16:48:04.000Z</time>
      </trkpt>
      <trkpt lat="43.09519683010876178741455078125" lon="-6.0644127242267131805419921875">
        <ele>1133.5999755859375</ele>
        <time>2021-08-17T16:48:05.000Z</time>
      </trkpt>
      <trkpt lat="43.09518358670175075531005859375" lon="-6.0644331760704517364501953125">
        <ele>1133.4000244140625</ele>
        <time>2021-08-17T16:48:08.000Z</time>
      </trkpt>
      <trkpt lat="43.0951794795691967010498046875" lon="-6.0644449107348918914794921875">
        <ele>1133.199951171875</ele>
        <time>2021-08-17T16:48:09.000Z</time>
      </trkpt>
      <trkpt lat="43.09516916982829570770263671875" lon="-6.06446050107479095458984375">
        <ele>1133.199951171875</ele>
        <time>2021-08-17T16:48:10.000Z</time>
      </trkpt>
      <trkpt lat="43.09512197971343994140625" lon="-6.06453803367912769317626953125">
        <ele>1132.4000244140625</ele>
        <time>2021-08-17T16:48:14.000Z</time>
      </trkpt>
      <trkpt lat="43.09510848484933376312255859375" lon="-6.0645532049238681793212890625">
        <ele>1132.199951171875</ele>
        <time>2021-08-17T16:48:15.000Z</time>
      </trkpt>
      <trkpt lat="43.0950594507157802581787109375" lon="-6.0646343417465686798095703125">
        <ele>1131.5999755859375</ele>
        <time>2021-08-17T16:48:21.000Z</time>
      </trkpt>
      <trkpt lat="43.095011673867702484130859375" lon="-6.0647138021886348724365234375">
        <ele>1131</ele>
        <time>2021-08-17T16:48:26.000Z</time>
      </trkpt>
      <trkpt lat="43.09497923590242862701416015625" lon="-6.06478035449981689453125">
        <ele>1130.5999755859375</ele>
        <time>2021-08-17T16:48:31.000Z</time>
      </trkpt>
      <trkpt lat="43.094923831522464752197265625" lon="-6.0648432187736034393310546875">
        <ele>1130.800048828125</ele>
        <time>2021-08-17T16:48:38.000Z</time>
      </trkpt>
      <trkpt lat="43.0949122644960880279541015625" lon="-6.06485000811517238616943359375">
        <ele>1130.800048828125</ele>
        <time>2021-08-17T16:48:39.000Z</time>
      </trkpt>
      <trkpt lat="43.0948592908680438995361328125" lon="-6.06490532867610454559326171875">
        <ele>1130.800048828125</ele>
        <time>2021-08-17T16:48:43.000Z</time>
      </trkpt>
      <trkpt lat="43.0947218276560306549072265625" lon="-6.06507313437759876251220703125">
        <ele>1130.800048828125</ele>
        <time>2021-08-17T16:48:57.000Z</time>
      </trkpt>
      <trkpt lat="43.09471554122865200042724609375" lon="-6.065084449946880340576171875">
        <ele>1130.5999755859375</ele>
        <time>2021-08-17T16:48:58.000Z</time>
      </trkpt>
      <trkpt lat="43.09469894506037235260009765625" lon="-6.06512703001499176025390625">
        <ele>1130.199951171875</ele>
        <time>2021-08-17T16:49:01.000Z</time>
      </trkpt>
      <trkpt lat="43.09469006024301052093505859375" lon="-6.06515225954353809356689453125">
        <ele>1130</ele>
        <time>2021-08-17T16:49:03.000Z</time>
      </trkpt>
      <trkpt lat="43.094686456024646759033203125" lon="-6.0651732981204986572265625">
        <ele>1129.4000244140625</ele>
        <time>2021-08-17T16:49:05.000Z</time>
      </trkpt>
      <trkpt lat="43.09466759674251079559326171875" lon="-6.06521227397024631500244140625">
        <ele>1128.5999755859375</ele>
        <time>2021-08-17T16:49:08.000Z</time>
      </trkpt>
      <trkpt lat="43.09465955011546611785888671875" lon="-6.0652351565659046173095703125">
        <ele>1128.199951171875</ele>
        <time>2021-08-17T16:49:10.000Z</time>
      </trkpt>
      <trkpt lat="43.0946551077067852020263671875" lon="-6.0652465559542179107666015625">
        <ele>1128</ele>
        <time>2021-08-17T16:49:11.000Z</time>
      </trkpt>
      <trkpt lat="43.0946430377662181854248046875" lon="-6.06527765281498432159423828125">
        <ele>1127.5999755859375</ele>
        <time>2021-08-17T16:49:13.000Z</time>
      </trkpt>
      <trkpt lat="43.09463582932949066162109375" lon="-6.06530179269611835479736328125">
        <ele>1127.4000244140625</ele>
        <time>2021-08-17T16:49:15.000Z</time>
      </trkpt>
      <trkpt lat="43.0946085043251514434814453125" lon="-6.0653414390981197357177734375">
        <ele>1127.199951171875</ele>
        <time>2021-08-17T16:49:21.000Z</time>
      </trkpt>
      <trkpt lat="43.09460900723934173583984375" lon="-6.065341271460056304931640625">
        <ele>1127.199951171875</ele>
        <time>2021-08-17T16:49:22.000Z</time>
      </trkpt>
      <trkpt lat="43.0946017988026142120361328125" lon="-6.06534001417458057403564453125">
        <ele>1127.199951171875</ele>
        <time>2021-08-17T16:49:24.000Z</time>
      </trkpt>
      <trkpt lat="43.094584532082080841064453125" lon="-6.06531738303601741790771484375">
        <ele>1127.199951171875</ele>
        <time>2021-08-17T16:49:35.000Z</time>
      </trkpt>
      <trkpt lat="43.094581179320812225341796875" lon="-6.06532610021531581878662109375">
        <ele>1127</ele>
        <time>2021-08-17T16:49:39.000Z</time>
      </trkpt>
      <trkpt lat="43.094548322260379791259765625" lon="-6.06531679630279541015625">
        <ele>1127</ele>
        <time>2021-08-17T16:49:47.000Z</time>
      </trkpt>
      <trkpt lat="43.09452292509377002716064453125" lon="-6.06530942022800445556640625">
        <ele>1127.199951171875</ele>
        <time>2021-08-17T16:49:49.000Z</time>
      </trkpt>
      <trkpt lat="43.09450599364936351776123046875" lon="-6.065306402742862701416015625">
        <ele>1127.199951171875</ele>
        <time>2021-08-17T16:49:51.000Z</time>
      </trkpt>
      <trkpt lat="43.09446643106639385223388671875" lon="-6.0653018765151500701904296875">
        <ele>1127.800048828125</ele>
        <time>2021-08-17T16:49:55.000Z</time>
      </trkpt>
      <trkpt lat="43.094406165182590484619140625" lon="-6.06530967168509960174560546875">
        <ele>1128.5999755859375</ele>
        <time>2021-08-17T16:50:01.000Z</time>
      </trkpt>
      <trkpt lat="43.0943862162530422210693359375" lon="-6.065306402742862701416015625">
        <ele>1128.800048828125</ele>
        <time>2021-08-17T16:50:03.000Z</time>
      </trkpt>
      <trkpt lat="43.09434724040329456329345703125" lon="-6.06532291509211063385009765625">
        <ele>1129.5999755859375</ele>
        <time>2021-08-17T16:50:07.000Z</time>
      </trkpt>
      <trkpt lat="43.0943355895578861236572265625" lon="-6.0653250105679035186767578125">
        <ele>1129.800048828125</ele>
        <time>2021-08-17T16:50:08.000Z</time>
      </trkpt>
      <trkpt lat="43.09426702558994293212890625" lon="-6.06535459868609905242919921875">
        <ele>1130.199951171875</ele>
        <time>2021-08-17T16:50:14.000Z</time>
      </trkpt>
      <trkpt lat="43.0942574702203273773193359375" lon="-6.065360046923160552978515625">
        <ele>1130.4000244140625</ele>
        <time>2021-08-17T16:50:15.000Z</time>
      </trkpt>
      <trkpt lat="43.09424783103168010711669921875" lon="-6.0653655789792537689208984375">
        <ele>1130.5999755859375</ele>
        <time>2021-08-17T16:50:16.000Z</time>
      </trkpt>
      <trkpt lat="43.09423877857625484466552734375" lon="-6.06537404470145702362060546875">
        <ele>1130.5999755859375</ele>
        <time>2021-08-17T16:50:17.000Z</time>
      </trkpt>
      <trkpt lat="43.094208352267742156982421875" lon="-6.06538058258593082427978515625">
        <ele>1130.800048828125</ele>
        <time>2021-08-17T16:50:20.000Z</time>
      </trkpt>
      <trkpt lat="43.0941810272634029388427734375" lon="-6.0653877072036266326904296875">
        <ele>1130.800048828125</ele>
        <time>2021-08-17T16:50:23.000Z</time>
      </trkpt>
      <trkpt lat="43.09416937641799449920654296875" lon="-6.06539214961230754852294921875">
        <ele>1130.800048828125</ele>
        <time>2021-08-17T16:50:24.000Z</time>
      </trkpt>
      <trkpt lat="43.09415730647742748260498046875" lon="-6.06539315544068813323974609375">
        <ele>1130.800048828125</ele>
        <time>2021-08-17T16:50:25.000Z</time>
      </trkpt>
      <trkpt lat="43.094147332012653350830078125" lon="-6.0653930716216564178466796875">
        <ele>1130.800048828125</ele>
        <time>2021-08-17T16:50:26.000Z</time>
      </trkpt>
      <trkpt lat="43.09412763454020023345947265625" lon="-6.06539181433618068695068359375">
        <ele>1130.800048828125</ele>
        <time>2021-08-17T16:50:28.000Z</time>
      </trkpt>
      <trkpt lat="43.0940576456487178802490234375" lon="-6.06540262699127197265625">
        <ele>1130.5999755859375</ele>
        <time>2021-08-17T16:50:35.000Z</time>
      </trkpt>
      <trkpt lat="43.09396619908511638641357421875" lon="-6.065401621162891387939453125">
        <ele>1130.4000244140625</ele>
        <time>2021-08-17T16:50:43.000Z</time>
      </trkpt>
      <trkpt lat="43.093926720321178436279296875" lon="-6.0653984360396862030029296875">
        <ele>1130.4000244140625</ele>
        <time>2021-08-17T16:50:47.000Z</time>
      </trkpt>
      <trkpt lat="43.09389763511717319488525390625" lon="-6.0653981007635593414306640625">
        <ele>1130.5999755859375</ele>
        <time>2021-08-17T16:50:50.000Z</time>
      </trkpt>
      <trkpt lat="43.09384667314589023590087890625" lon="-6.06541193090379238128662109375">
        <ele>1131.199951171875</ele>
        <time>2021-08-17T16:50:55.000Z</time>
      </trkpt>
      <trkpt lat="43.0937937833368778228759765625" lon="-6.06543908827006816864013671875">
        <ele>1131.800048828125</ele>
        <time>2021-08-17T16:50:59.000Z</time>
      </trkpt>
      <trkpt lat="43.0937300808727741241455078125" lon="-6.065474711358547210693359375">
        <ele>1132.199951171875</ele>
        <time>2021-08-17T16:51:05.000Z</time>
      </trkpt>
      <trkpt lat="43.09368423186242580413818359375" lon="-6.065517961978912353515625">
        <ele>1132.800048828125</ele>
        <time>2021-08-17T16:51:11.000Z</time>
      </trkpt>
      <trkpt lat="43.09364198707044124603271484375" lon="-6.06554822064936161041259765625">
        <ele>1133</ele>
        <time>2021-08-17T16:51:16.000Z</time>
      </trkpt>
      <trkpt lat="43.09361390769481658935546875" lon="-6.06556716375052928924560546875">
        <ele>1132.5999755859375</ele>
        <time>2021-08-17T16:51:19.000Z</time>
      </trkpt>
      <trkpt lat="43.0935959704220294952392578125" lon="-6.06558074243366718292236328125">
        <ele>1132.5999755859375</ele>
        <time>2021-08-17T16:51:21.000Z</time>
      </trkpt>
      <trkpt lat="43.0935681425034999847412109375" lon="-6.0656056366860866546630859375">
        <ele>1132.5999755859375</ele>
        <time>2021-08-17T16:51:24.000Z</time>
      </trkpt>
      <trkpt lat="43.09353905729949474334716796875" lon="-6.06564679183065891265869140625">
        <ele>1132.800048828125</ele>
        <time>2021-08-17T16:51:28.000Z</time>
      </trkpt>
      <trkpt lat="43.09347870759665966033935546875" lon="-6.06574217788875102996826171875">
        <ele>1133.199951171875</ele>
        <time>2021-08-17T16:51:36.000Z</time>
      </trkpt>
      <trkpt lat="43.0934549868106842041015625" lon="-6.0657794773578643798828125">
        <ele>1133.199951171875</ele>
        <time>2021-08-17T16:51:40.000Z</time>
      </trkpt>
      <trkpt lat="43.0934088863432407379150390625" lon="-6.0658369772136211395263671875">
        <ele>1133</ele>
        <time>2021-08-17T16:51:46.000Z</time>
      </trkpt>
      <trkpt lat="43.09338969178497791290283203125" lon="-6.0658577643334865570068359375">
        <ele>1132.5999755859375</ele>
        <time>2021-08-17T16:51:48.000Z</time>
      </trkpt>
      <trkpt lat="43.093382902443408966064453125" lon="-6.06586505658924579620361328125">
        <ele>1132.5999755859375</ele>
        <time>2021-08-17T16:51:49.000Z</time>
      </trkpt>
      <trkpt lat="43.0933730117976665496826171875" lon="-6.0658698342740535736083984375">
        <ele>1132.5999755859375</ele>
        <time>2021-08-17T16:51:50.000Z</time>
      </trkpt>
      <trkpt lat="43.0933099798858165740966796875" lon="-6.065905205905437469482421875">
        <ele>1132.4000244140625</ele>
        <time>2021-08-17T16:51:57.000Z</time>
      </trkpt>
      <trkpt lat="43.0932885222136974334716796875" lon="-6.0659003444015979766845703125">
        <ele>1132.4000244140625</ele>
        <time>2021-08-17T16:51:59.000Z</time>
      </trkpt>
      <trkpt lat="43.09326010756194591522216796875" lon="-6.0659015178680419921875">
        <ele>1132.199951171875</ele>
        <time>2021-08-17T16:52:02.000Z</time>
      </trkpt>
      <trkpt lat="43.09321283362805843353271484375" lon="-6.065887100994586944580078125">
        <ele>1131.800048828125</ele>
        <time>2021-08-17T16:52:07.000Z</time>
      </trkpt>
      <trkpt lat="43.0931760370731353759765625" lon="-6.06588601134717464447021484375">
        <ele>1131.199951171875</ele>
        <time>2021-08-17T16:52:11.000Z</time>
      </trkpt>
      <trkpt lat="43.09315499849617481231689453125" lon="-6.0658956505358219146728515625">
        <ele>1131.199951171875</ele>
        <time>2021-08-17T16:52:13.000Z</time>
      </trkpt>
      <trkpt lat="43.09313136152923107147216796875" lon="-6.0659080557525157928466796875">
        <ele>1131.199951171875</ele>
        <time>2021-08-17T16:52:16.000Z</time>
      </trkpt>
      <trkpt lat="43.093113005161285400390625" lon="-6.06591702438890933990478515625">
        <ele>1131.199951171875</ele>
        <time>2021-08-17T16:52:18.000Z</time>
      </trkpt>
      <trkpt lat="43.0930427648127079010009765625" lon="-6.065946109592914581298828125">
        <ele>1130.800048828125</ele>
        <time>2021-08-17T16:52:24.000Z</time>
      </trkpt>
      <trkpt lat="43.09301636181771755218505859375" lon="-6.06595792807638645172119140625">
        <ele>1130.199951171875</ele>
        <time>2021-08-17T16:52:27.000Z</time>
      </trkpt>
      <trkpt lat="43.0929877795279026031494140625" lon="-6.06596597470343112945556640625">
        <ele>1130</ele>
        <time>2021-08-17T16:52:30.000Z</time>
      </trkpt>
      <trkpt lat="43.09295232407748699188232421875" lon="-6.065986342728137969970703125">
        <ele>1129.5999755859375</ele>
        <time>2021-08-17T16:52:34.000Z</time>
      </trkpt>
      <trkpt lat="43.09288443066179752349853515625" lon="-6.0660032741725444793701171875">
        <ele>1129</ele>
        <time>2021-08-17T16:52:41.000Z</time>
      </trkpt>
      <trkpt lat="43.09284553863108158111572265625" lon="-6.06600117869675159454345703125">
        <ele>1129</ele>
        <time>2021-08-17T16:52:45.000Z</time>
      </trkpt>
      <trkpt lat="43.0927638150751590728759765625" lon="-6.06600855477154254913330078125">
        <ele>1129</ele>
        <time>2021-08-17T16:52:52.000Z</time>
      </trkpt>
      <trkpt lat="43.0927198939025402069091796875" lon="-6.06607125140726566314697265625">
        <ele>1129.199951171875</ele>
        <time>2021-08-17T16:52:57.000Z</time>
      </trkpt>
      <trkpt lat="43.092575557529926300048828125" lon="-6.0661477781832218170166015625">
        <ele>1129.4000244140625</ele>
        <time>2021-08-17T16:53:12.000Z</time>
      </trkpt>
      <trkpt lat="43.0924593843519687652587890625" lon="-6.066224388778209686279296875">
        <ele>1129.199951171875</ele>
        <time>2021-08-17T16:53:24.000Z</time>
      </trkpt>
      <trkpt lat="43.09239752590656280517578125" lon="-6.066263951361179351806640625">
        <ele>1130.199951171875</ele>
        <time>2021-08-17T16:53:30.000Z</time>
      </trkpt>
      <trkpt lat="43.09238587506115436553955078125" lon="-6.06626562774181365966796875">
        <ele>1130.4000244140625</ele>
        <time>2021-08-17T16:53:31.000Z</time>
      </trkpt>
      <trkpt lat="43.09234983287751674652099609375" lon="-6.066263951361179351806640625">
        <ele>1130.800048828125</ele>
        <time>2021-08-17T16:53:34.000Z</time>
      </trkpt>
      <trkpt lat="43.0923096835613250732421875" lon="-6.06627007015049457550048828125">
        <ele>1131.800048828125</ele>
        <time>2021-08-17T16:53:39.000Z</time>
      </trkpt>
      <trkpt lat="43.09228177182376384735107421875" lon="-6.0662569105625152587890625">
        <ele>1132.4000244140625</ele>
        <time>2021-08-17T16:53:42.000Z</time>
      </trkpt>
      <trkpt lat="43.09225562028586864471435546875" lon="-6.06625129468739032745361328125">
        <ele>1132.800048828125</ele>
        <time>2021-08-17T16:53:44.000Z</time>
      </trkpt>
      <trkpt lat="43.09224405325949192047119140625" lon="-6.0662460140883922576904296875">
        <ele>1132.800048828125</ele>
        <time>2021-08-17T16:53:45.000Z</time>
      </trkpt>
      <trkpt lat="43.09220013208687305450439453125" lon="-6.0662470199167728424072265625">
        <ele>1132.800048828125</ele>
        <time>2021-08-17T16:53:50.000Z</time>
      </trkpt>
      <trkpt lat="43.09217280708253383636474609375" lon="-6.0662554018199443817138671875">
        <ele>1132.4000244140625</ele>
        <time>2021-08-17T16:53:53.000Z</time>
      </trkpt>
      <trkpt lat="43.09213441796600818634033203125" lon="-6.06625783257186412811279296875">
        <ele>1131.5999755859375</ele>
        <time>2021-08-17T16:53:57.000Z</time>
      </trkpt>
      <trkpt lat="43.09202109463512897491455078125" lon="-6.0662557370960712432861328125">
        <ele>1131.199951171875</ele>
        <time>2021-08-17T16:54:07.000Z</time>
      </trkpt>
      <trkpt lat="43.09187851846218109130859375" lon="-6.066305525600910186767578125">
        <ele>1132.199951171875</ele>
        <time>2021-08-17T16:54:21.000Z</time>
      </trkpt>
      <trkpt lat="43.09185546822845935821533203125" lon="-6.0663214512169361114501953125">
        <ele>1132.800048828125</ele>
        <time>2021-08-17T16:54:24.000Z</time>
      </trkpt>
      <trkpt lat="43.0918310768902301788330078125" lon="-6.0663445852696895599365234375">
        <ele>1133.5999755859375</ele>
        <time>2021-08-17T16:54:27.000Z</time>
      </trkpt>
      <trkpt lat="43.09182194061577320098876953125" lon="-6.06635824777185916900634765625">
        <ele>1133.800048828125</ele>
        <time>2021-08-17T16:54:29.000Z</time>
      </trkpt>
      <trkpt lat="43.09182210825383663177490234375" lon="-6.066369228065013885498046875">
        <ele>1134</ele>
        <time>2021-08-17T16:54:30.000Z</time>
      </trkpt>
      <trkpt lat="43.0918055959045886993408203125" lon="-6.066388003528118133544921875">
        <ele>1134.5999755859375</ele>
        <time>2021-08-17T16:54:33.000Z</time>
      </trkpt>
      <trkpt lat="43.09178656898438930511474609375" lon="-6.06640040874481201171875">
        <ele>1134.800048828125</ele>
        <time>2021-08-17T16:54:35.000Z</time>
      </trkpt>
      <trkpt lat="43.09175019152462482452392578125" lon="-6.06642731465399265289306640625">
        <ele>1135.199951171875</ele>
        <time>2021-08-17T16:54:39.000Z</time>
      </trkpt>
      <trkpt lat="43.0917402170598506927490234375" lon="-6.0664381273090839385986328125">
        <ele>1135.199951171875</ele>
        <time>2021-08-17T16:54:40.000Z</time>
      </trkpt>
      <trkpt lat="43.09172856621444225311279296875" lon="-6.066446006298065185546875">
        <ele>1135.199951171875</ele>
        <time>2021-08-17T16:54:41.000Z</time>
      </trkpt>
      <trkpt lat="43.09170459397137165069580078125" lon="-6.06647090055048465728759765625">
        <ele>1135</ele>
        <time>2021-08-17T16:54:44.000Z</time>
      </trkpt>
      <trkpt lat="43.0916694737970829010009765625" lon="-6.06650023721158504486083984375">
        <ele>1134.800048828125</ele>
        <time>2021-08-17T16:54:48.000Z</time>
      </trkpt>
      <trkpt lat="43.09161088429391384124755859375" lon="-6.0665383748710155487060546875">
        <ele>1135</ele>
        <time>2021-08-17T16:54:55.000Z</time>
      </trkpt>
      <trkpt lat="43.09159194119274616241455078125" lon="-6.06655438430607318878173828125">
        <ele>1135</ele>
        <time>2021-08-17T16:54:57.000Z</time>
      </trkpt>
      <trkpt lat="43.09158347547054290771484375" lon="-6.06656645424664020538330078125">
        <ele>1135</ele>
        <time>2021-08-17T16:54:58.000Z</time>
      </trkpt>
      <trkpt lat="43.09155204333364963531494140625" lon="-6.06662780977785587310791015625">
        <ele>1135.199951171875</ele>
        <time>2021-08-17T16:55:03.000Z</time>
      </trkpt>
      <trkpt lat="43.09155019931495189666748046875" lon="-6.06663971208035945892333984375">
        <ele>1135.4000244140625</ele>
        <time>2021-08-17T16:55:04.000Z</time>
      </trkpt>
      <trkpt lat="43.09152957983314990997314453125" lon="-6.06671012006700038909912109375">
        <ele>1135.5999755859375</ele>
        <time>2021-08-17T16:55:10.000Z</time>
      </trkpt>
      <trkpt lat="43.09154919348657131195068359375" lon="-6.0669065080583095550537109375">
        <ele>1135.199951171875</ele>
        <time>2021-08-17T16:55:21.000Z</time>
      </trkpt>
      <trkpt lat="43.09155263006687164306640625" lon="-6.06702745892107486724853515625">
        <ele>1134.800048828125</ele>
        <time>2021-08-17T16:55:28.000Z</time>
      </trkpt>
      <trkpt lat="43.091554306447505950927734375" lon="-6.067056544125080108642578125">
        <ele>1134.800048828125</ele>
        <time>2021-08-17T16:55:30.000Z</time>
      </trkpt>
      <trkpt lat="43.09156243689358234405517578125" lon="-6.067130975425243377685546875">
        <ele>1135</ele>
        <time>2021-08-17T16:55:35.000Z</time>
      </trkpt>
      <trkpt lat="43.09156327508389949798583984375" lon="-6.06724723242223262786865234375">
        <ele>1136</ele>
        <time>2021-08-17T16:55:44.000Z</time>
      </trkpt>
      <trkpt lat="43.09156042523682117462158203125" lon="-6.06729282997548580169677734375">
        <ele>1136.5999755859375</ele>
        <time>2021-08-17T16:55:48.000Z</time>
      </trkpt>
      <trkpt lat="43.09155841358006000518798828125" lon="-6.06731210835278034210205078125">
        <ele>1137</ele>
        <time>2021-08-17T16:55:50.000Z</time>
      </trkpt>
      <trkpt lat="43.091544918715953826904296875" lon="-6.06741235591471195220947265625">
        <ele>1137.800048828125</ele>
        <time>2021-08-17T16:55:58.000Z</time>
      </trkpt>
      <trkpt lat="43.09154433198273181915283203125" lon="-6.06743683107197284698486328125">
        <ele>1138.199951171875</ele>
        <time>2021-08-17T16:56:00.000Z</time>
      </trkpt>
      <trkpt lat="43.09154332615435123443603515625" lon="-6.06744839809834957122802734375">
        <ele>1138.199951171875</ele>
        <time>2021-08-17T16:56:01.000Z</time>
      </trkpt>
      <trkpt lat="43.09153913520276546478271484375" lon="-6.0674613900482654571533203125">
        <ele>1138.4000244140625</ele>
        <time>2021-08-17T16:56:02.000Z</time>
      </trkpt>
      <trkpt lat="43.09153276495635509490966796875" lon="-6.06748544611036777496337890625">
        <ele>1138.800048828125</ele>
        <time>2021-08-17T16:56:04.000Z</time>
      </trkpt>
      <trkpt lat="43.09153117239475250244140625" lon="-6.067493744194507598876953125">
        <ele>1139.199951171875</ele>
        <time>2021-08-17T16:56:05.000Z</time>
      </trkpt>
      <trkpt lat="43.0915001593530178070068359375" lon="-6.06754244305193424224853515625">
        <ele>1140</ele>
        <time>2021-08-17T16:56:10.000Z</time>
      </trkpt>
      <trkpt lat="43.09149940498173236846923828125" lon="-6.06756775639951229095458984375">
        <ele>1140.199951171875</ele>
        <time>2021-08-17T16:56:12.000Z</time>
      </trkpt>
      <trkpt lat="43.09149186126887798309326171875" lon="-6.0676194727420806884765625">
        <ele>1140.800048828125</ele>
        <time>2021-08-17T16:56:17.000Z</time>
      </trkpt>
      <trkpt lat="43.091470487415790557861328125" lon="-6.06767177581787109375">
        <ele>1141.199951171875</ele>
        <time>2021-08-17T16:56:21.000Z</time>
      </trkpt>
      <trkpt lat="43.091430924832820892333984375" lon="-6.06777545996010303497314453125">
        <ele>1141</ele>
        <time>2021-08-17T16:56:30.000Z</time>
      </trkpt>
      <trkpt lat="43.091422878205776214599609375" lon="-6.06779926456511020660400390625">
        <ele>1141</ele>
        <time>2021-08-17T16:56:32.000Z</time>
      </trkpt>
      <trkpt lat="43.091406114399433135986328125" lon="-6.06783874332904815673828125">
        <ele>1141</ele>
        <time>2021-08-17T16:56:36.000Z</time>
      </trkpt>
      <trkpt lat="43.0913881771266460418701171875" lon="-6.06788576580584049224853515625">
        <ele>1140.5999755859375</ele>
        <time>2021-08-17T16:56:40.000Z</time>
      </trkpt>
      <trkpt lat="43.09136361815035343170166015625" lon="-6.06792599894106388092041015625">
        <ele>1140.5999755859375</ele>
        <time>2021-08-17T16:56:44.000Z</time>
      </trkpt>
      <trkpt lat="43.09132891707122325897216796875" lon="-6.06796204112470149993896484375">
        <ele>1141</ele>
        <time>2021-08-17T16:56:49.000Z</time>
      </trkpt>
      <trkpt lat="43.09131567366421222686767578125" lon="-6.06797008775174617767333984375">
        <ele>1141</ele>
        <time>2021-08-17T16:56:50.000Z</time>
      </trkpt>
      <trkpt lat="43.09129589237272739410400390625" lon="-6.06799297034740447998046875">
        <ele>1141</ele>
        <time>2021-08-17T16:56:52.000Z</time>
      </trkpt>
      <trkpt lat="43.09120520018041133880615234375" lon="-6.06807452626526355743408203125">
        <ele>1141.4000244140625</ele>
        <time>2021-08-17T16:57:02.000Z</time>
      </trkpt>
      <trkpt lat="43.0911348760128021240234375" lon="-6.06809967197477817535400390625">
        <ele>1142.199951171875</ele>
        <time>2021-08-17T16:57:12.000Z</time>
      </trkpt>
      <trkpt lat="43.09113085269927978515625" lon="-6.0680990852415561676025390625">
        <ele>1142.199951171875</ele>
        <time>2021-08-17T16:57:13.000Z</time>
      </trkpt>
      <trkpt lat="43.09112523682415485382080078125" lon="-6.0680960677564144134521484375">
        <ele>1142.199951171875</ele>
        <time>2021-08-17T16:57:14.000Z</time>
      </trkpt>
      <trkpt lat="43.09111065231263637542724609375" lon="-6.06809179298579692840576171875">
        <ele>1142.4000244140625</ele>
        <time>2021-08-17T16:57:16.000Z</time>
      </trkpt>
      <trkpt lat="43.0910793878138065338134765625" lon="-6.06808542273938655853271484375">
        <ele>1143</ele>
        <time>2021-08-17T16:57:19.000Z</time>
      </trkpt>
      <trkpt lat="43.0910736881196498870849609375" lon="-6.06807905249297618865966796875">
        <ele>1143.199951171875</ele>
        <time>2021-08-17T16:57:20.000Z</time>
      </trkpt>
      <trkpt lat="43.0910703353583812713623046875" lon="-6.06807209551334381103515625">
        <ele>1143.199951171875</ele>
        <time>2021-08-17T16:57:21.000Z</time>
      </trkpt>
      <trkpt lat="43.09104795567691326141357421875" lon="-6.068056337535381317138671875">
        <ele>1143.5999755859375</ele>
        <time>2021-08-17T16:57:23.000Z</time>
      </trkpt>
      <trkpt lat="43.09101358987390995025634765625" lon="-6.06802473776042461395263671875">
        <ele>1144.4000244140625</ele>
        <time>2021-08-17T16:57:26.000Z</time>
      </trkpt>
      <trkpt lat="43.0909873545169830322265625" lon="-6.06800369918346405029296875">
        <ele>1145</ele>
        <time>2021-08-17T16:57:30.000Z</time>
      </trkpt>
      <trkpt lat="43.09096983633935451507568359375" lon="-6.06799590401351451873779296875">
        <ele>1145.4000244140625</ele>
        <time>2021-08-17T16:57:32.000Z</time>
      </trkpt>
      <trkpt lat="43.090961873531341552734375" lon="-6.06799255125224590301513671875">
        <ele>1145.4000244140625</ele>
        <time>2021-08-17T16:57:33.000Z</time>
      </trkpt>
      <trkpt lat="43.09095223434269428253173828125" lon="-6.0679869353771209716796875">
        <ele>1145.5999755859375</ele>
        <time>2021-08-17T16:57:34.000Z</time>
      </trkpt>
      <trkpt lat="43.090907223522663116455078125" lon="-6.06795919127762317657470703125">
        <ele>1146.199951171875</ele>
        <time>2021-08-17T16:57:40.000Z</time>
      </trkpt>
      <trkpt lat="43.0908956564962863922119140625" lon="-6.0679515637457370758056640625">
        <ele>1146.4000244140625</ele>
        <time>2021-08-17T16:57:42.000Z</time>
      </trkpt>
      <trkpt lat="43.09088073670864105224609375" lon="-6.0679435171186923980712890625">
        <ele>1146.800048828125</ele>
        <time>2021-08-17T16:57:44.000Z</time>
      </trkpt>
      <trkpt lat="43.09087210334837436676025390625" lon="-6.0679441876709461212158203125">
        <ele>1147</ele>
        <time>2021-08-17T16:57:45.000Z</time>
      </trkpt>
      <trkpt lat="43.09085802175104618072509765625" lon="-6.0679448582231998443603515625">
        <ele>1147.4000244140625</ele>
        <time>2021-08-17T16:57:47.000Z</time>
      </trkpt>
      <trkpt lat="43.09085383079946041107177734375" lon="-6.067935638129711151123046875">
        <ele>1147.4000244140625</ele>
        <time>2021-08-17T16:57:48.000Z</time>
      </trkpt>
      <trkpt lat="43.09084863401949405670166015625" lon="-6.0679257474839687347412109375">
        <ele>1147.5999755859375</ele>
        <time>2021-08-17T16:57:49.000Z</time>
      </trkpt>
      <trkpt lat="43.09084041975438594818115234375" lon="-6.0679091513156890869140625">
        <ele>1147.800048828125</ele>
        <time>2021-08-17T16:57:51.000Z</time>
      </trkpt>
      <trkpt lat="43.090799264609813690185546875" lon="-6.06790579855442047119140625">
        <ele>1148.5999755859375</ele>
        <time>2021-08-17T16:57:57.000Z</time>
      </trkpt>
      <trkpt lat="43.090792559087276458740234375" lon="-6.0679049603641033172607421875">
        <ele>1148.800048828125</ele>
        <time>2021-08-17T16:57:58.000Z</time>
      </trkpt>
      <trkpt lat="43.09077906422317028045654296875" lon="-6.06791208498179912567138671875">
        <ele>1150</ele>
        <time>2021-08-17T16:58:04.000Z</time>
      </trkpt>
      <trkpt lat="43.09075676836073398590087890625" lon="-6.06792281381785869598388671875">
        <ele>1151</ele>
        <time>2021-08-17T16:58:10.000Z</time>
      </trkpt>
      <trkpt lat="43.09072307310998439788818359375" lon="-6.06791795231401920318603515625">
        <ele>1152.199951171875</ele>
        <time>2021-08-17T16:58:17.000Z</time>
      </trkpt>
      <trkpt lat="43.09069004841148853302001953125" lon="-6.0678970813751220703125">
        <ele>1152.800048828125</ele>
        <time>2021-08-17T16:58:22.000Z</time>
      </trkpt>
      <trkpt lat="43.09068770147860050201416015625" lon="-6.06789096258580684661865234375">
        <ele>1153</ele>
        <time>2021-08-17T16:58:23.000Z</time>
      </trkpt>
      <trkpt lat="43.09067948721349239349365234375" lon="-6.0678845085203647613525390625">
        <ele>1153.199951171875</ele>
        <time>2021-08-17T16:58:24.000Z</time>
      </trkpt>
      <trkpt lat="43.09064696542918682098388671875" lon="-6.0678258351981639862060546875">
        <ele>1154.4000244140625</ele>
        <time>2021-08-17T16:58:30.000Z</time>
      </trkpt>
      <trkpt lat="43.09061653912067413330078125" lon="-6.06779021210968494415283203125">
        <ele>1155.199951171875</ele>
        <time>2021-08-17T16:58:37.000Z</time>
      </trkpt>
      <trkpt lat="43.090599440038204193115234375" lon="-6.067782081663608551025390625">
        <ele>1155.5999755859375</ele>
        <time>2021-08-17T16:58:39.000Z</time>
      </trkpt>
      <trkpt lat="43.09055761434137821197509765625" lon="-6.06772206723690032958984375">
        <ele>1156.800048828125</ele>
        <time>2021-08-17T16:58:46.000Z</time>
      </trkpt>
      <trkpt lat="43.090545125305652618408203125" lon="-6.067698933184146881103515625">
        <ele>1157.4000244140625</ele>
        <time>2021-08-17T16:58:50.000Z</time>
      </trkpt>
      <trkpt lat="43.0905365757644176483154296875" lon="-6.067690886557102203369140625">
        <ele>1157.5999755859375</ele>
        <time>2021-08-17T16:58:52.000Z</time>
      </trkpt>
      <trkpt lat="43.0905318818986415863037109375" lon="-6.0676934011280536651611328125">
        <ele>1157.800048828125</ele>
        <time>2021-08-17T16:58:54.000Z</time>
      </trkpt>
      <trkpt lat="43.0905211530625820159912109375" lon="-6.067703627049922943115234375">
        <ele>1159</ele>
        <time>2021-08-17T16:58:57.000Z</time>
      </trkpt>
      <trkpt lat="43.0905003659427165985107421875" lon="-6.067717038094997406005859375">
        <ele>1160</ele>
        <time>2021-08-17T16:59:02.000Z</time>
      </trkpt>
      <trkpt lat="43.0904933251440525054931640625" lon="-6.06772198341786861419677734375">
        <ele>1160</ele>
        <time>2021-08-17T16:59:03.000Z</time>
      </trkpt>
      <trkpt lat="43.09046742506325244903564453125" lon="-6.06770195066928863525390625">
        <ele>1161</ele>
        <time>2021-08-17T16:59:09.000Z</time>
      </trkpt>
      <trkpt lat="43.09045493602752685546875" lon="-6.067688874900341033935546875">
        <ele>1161.4000244140625</ele>
        <time>2021-08-17T16:59:11.000Z</time>
      </trkpt>
      <trkpt lat="43.0904423631727695465087890625" lon="-6.06767085380852222442626953125">
        <ele>1161.5999755859375</ele>
        <time>2021-08-17T16:59:14.000Z</time>
      </trkpt>
      <trkpt lat="43.09043305926024913787841796875" lon="-6.06766398064792156219482421875">
        <ele>1162.199951171875</ele>
        <time>2021-08-17T16:59:16.000Z</time>
      </trkpt>
      <trkpt lat="43.0904135294258594512939453125" lon="-6.067649312317371368408203125">
        <ele>1163</ele>
        <time>2021-08-17T16:59:19.000Z</time>
      </trkpt>
      <trkpt lat="43.09040598571300506591796875" lon="-6.0676424391567707061767578125">
        <ele>1163.5999755859375</ele>
        <time>2021-08-17T16:59:21.000Z</time>
      </trkpt>
      <trkpt lat="43.09038293547928333282470703125" lon="-6.06763087213039398193359375">
        <ele>1164.5999755859375</ele>
        <time>2021-08-17T16:59:26.000Z</time>
      </trkpt>
      <trkpt lat="43.09036214835941791534423828125" lon="-6.06762642972171306610107421875">
        <ele>1165.5999755859375</ele>
        <time>2021-08-17T16:59:29.000Z</time>
      </trkpt>
      <trkpt lat="43.09035745449364185333251953125" lon="-6.0676253400743007659912109375">
        <ele>1165.800048828125</ele>
        <time>2021-08-17T16:59:30.000Z</time>
      </trkpt>
      <trkpt lat="43.0903350748121738433837890625" lon="-6.06762978248298168182373046875">
        <ele>1166.800048828125</ele>
        <time>2021-08-17T16:59:34.000Z</time>
      </trkpt>
      <trkpt lat="43.09029760770499706268310546875" lon="-6.06763212941586971282958984375">
        <ele>1167.800048828125</ele>
        <time>2021-08-17T16:59:40.000Z</time>
      </trkpt>
      <trkpt lat="43.09027916751801967620849609375" lon="-6.067615449428558349609375">
        <ele>1168.5999755859375</ele>
        <time>2021-08-17T16:59:43.000Z</time>
      </trkpt>
      <trkpt lat="43.0902740545570850372314453125" lon="-6.0676125995814800262451171875">
        <ele>1169</ele>
        <time>2021-08-17T16:59:44.000Z</time>
      </trkpt>
      <trkpt lat="43.09026793576776981353759765625" lon="-6.06761209666728973388671875">
        <ele>1169.199951171875</ele>
        <time>2021-08-17T16:59:45.000Z</time>
      </trkpt>
      <trkpt lat="43.09025418944656848907470703125" lon="-6.067613102495670318603515625">
        <ele>1170</ele>
        <time>2021-08-17T16:59:48.000Z</time>
      </trkpt>
      <trkpt lat="43.09023834764957427978515625" lon="-6.06761771254241466522216796875">
        <ele>1171</ele>
        <time>2021-08-17T16:59:53.000Z</time>
      </trkpt>
      <trkpt lat="43.09021194465458393096923828125" lon="-6.067621819674968719482421875">
        <ele>1172</ele>
        <time>2021-08-17T16:59:57.000Z</time>
      </trkpt>
      <trkpt lat="43.09019677340984344482421875" lon="-6.0676179639995098114013671875">
        <ele>1172.4000244140625</ele>
        <time>2021-08-17T16:59:59.000Z</time>
      </trkpt>
      <trkpt lat="43.09017942287027835845947265625" lon="-6.06761435978114604949951171875">
        <ele>1173</ele>
        <time>2021-08-17T17:00:02.000Z</time>
      </trkpt>
      <trkpt lat="43.0901617370545864105224609375" lon="-6.06762173585593700408935546875">
        <ele>1173.800048828125</ele>
        <time>2021-08-17T17:00:05.000Z</time>
      </trkpt>
      <trkpt lat="43.0901506729423999786376953125" lon="-6.06762659735977649688720703125">
        <ele>1174.199951171875</ele>
        <time>2021-08-17T17:00:07.000Z</time>
      </trkpt>
      <trkpt lat="43.09014002792537212371826171875" lon="-6.06763514690101146697998046875">
        <ele>1175.4000244140625</ele>
        <time>2021-08-17T17:00:11.000Z</time>
      </trkpt>
      <trkpt lat="43.09010214172303676605224609375" lon="-6.0676226578652858734130859375">
        <ele>1176.199951171875</ele>
        <time>2021-08-17T17:00:15.000Z</time>
      </trkpt>
      <trkpt lat="43.0900966934859752655029296875" lon="-6.06762391515076160430908203125">
        <ele>1176.4000244140625</ele>
        <time>2021-08-17T17:00:16.000Z</time>
      </trkpt>
      <trkpt lat="43.0900645069777965545654296875" lon="-6.06762425042688846588134765625">
        <ele>1177.4000244140625</ele>
        <time>2021-08-17T17:00:21.000Z</time>
      </trkpt>
      <trkpt lat="43.090043552219867706298828125" lon="-6.0676263459026813507080078125">
        <ele>1178.800048828125</ele>
        <time>2021-08-17T17:00:24.000Z</time>
      </trkpt>
      <trkpt lat="43.090020753443241119384765625" lon="-6.0676302015781402587890625">
        <ele>1179.800048828125</ele>
        <time>2021-08-17T17:00:28.000Z</time>
      </trkpt>
      <trkpt lat="43.0899887345731258392333984375" lon="-6.06764721684157848358154296875">
        <ele>1181</ele>
        <time>2021-08-17T17:00:33.000Z</time>
      </trkpt>
      <trkpt lat="43.08998328633606433868408203125" lon="-6.06764621101319789886474609375">
        <ele>1181.199951171875</ele>
        <time>2021-08-17T17:00:34.000Z</time>
      </trkpt>
      <trkpt lat="43.0899709649384021759033203125" lon="-6.0676481388509273529052734375">
        <ele>1181.5999755859375</ele>
        <time>2021-08-17T17:00:36.000Z</time>
      </trkpt>
      <trkpt lat="43.08996451087296009063720703125" lon="-6.0676484741270542144775390625">
        <ele>1181.800048828125</ele>
        <time>2021-08-17T17:00:37.000Z</time>
      </trkpt>
      <trkpt lat="43.08995964936912059783935546875" lon="-6.06764964759349822998046875">
        <ele>1182.199951171875</ele>
        <time>2021-08-17T17:00:38.000Z</time>
      </trkpt>
      <trkpt lat="43.089933581650257110595703125" lon="-6.06767244637012481689453125">
        <ele>1183.199951171875</ele>
        <time>2021-08-17T17:00:44.000Z</time>
      </trkpt>
      <trkpt lat="43.08988655917346477508544921875" lon="-6.06767739169299602508544921875">
        <ele>1183.800048828125</ele>
        <time>2021-08-17T17:00:50.000Z</time>
      </trkpt>
      <trkpt lat="43.08986694552004337310791015625" lon="-6.06766297481954097747802734375">
        <ele>1184.199951171875</ele>
        <time>2021-08-17T17:00:55.000Z</time>
      </trkpt>
      <trkpt lat="43.089862167835235595703125" lon="-6.0676635615527629852294921875">
        <ele>1184.199951171875</ele>
        <time>2021-08-17T17:00:56.000Z</time>
      </trkpt>
      <trkpt lat="43.08985571376979351043701171875" lon="-6.067664735019207000732421875">
        <ele>1184.199951171875</ele>
        <time>2021-08-17T17:00:57.000Z</time>
      </trkpt>
      <trkpt lat="43.08983040042221546173095703125" lon="-6.067685522139072418212890625">
        <ele>1184.199951171875</ele>
        <time>2021-08-17T17:01:00.000Z</time>
      </trkpt>
      <trkpt lat="43.08981321752071380615234375" lon="-6.06770421378314495086669921875">
        <ele>1184.199951171875</ele>
        <time>2021-08-17T17:01:02.000Z</time>
      </trkpt>
      <trkpt lat="43.0897872336208820343017578125" lon="-6.0677175410091876983642578125">
        <ele>1184.4000244140625</ele>
        <time>2021-08-17T17:01:05.000Z</time>
      </trkpt>
      <trkpt lat="43.08976837433874607086181640625" lon="-6.06773816049098968505859375">
        <ele>1184.5999755859375</ele>
        <time>2021-08-17T17:01:08.000Z</time>
      </trkpt>
      <trkpt lat="43.08975144289433956146240234375" lon="-6.0677500627934932708740234375">
        <ele>1184.5999755859375</ele>
        <time>2021-08-17T17:01:10.000Z</time>
      </trkpt>
      <trkpt lat="43.0897168256342411041259765625" lon="-6.067788116633892059326171875">
        <ele>1184.199951171875</ele>
        <time>2021-08-17T17:01:15.000Z</time>
      </trkpt>
      <trkpt lat="43.089683465659618377685546875" lon="-6.06780479662120342254638671875">
        <ele>1184.4000244140625</ele>
        <time>2021-08-17T17:01:18.000Z</time>
      </trkpt>
      <trkpt lat="43.08966175653040409088134765625" lon="-6.06781150214374065399169921875">
        <ele>1184.4000244140625</ele>
        <time>2021-08-17T17:01:20.000Z</time>
      </trkpt>
      <trkpt lat="43.089631162583827972412109375" lon="-6.067819632589817047119140625">
        <ele>1184.5999755859375</ele>
        <time>2021-08-17T17:01:23.000Z</time>
      </trkpt>
      <trkpt lat="43.0895716510713100433349609375" lon="-6.06784704141318798065185546875">
        <ele>1185.199951171875</ele>
        <time>2021-08-17T17:01:29.000Z</time>
      </trkpt>
      <trkpt lat="43.08956268243491649627685546875" lon="-6.06785274110734462738037109375">
        <ele>1185.199951171875</ele>
        <time>2021-08-17T17:01:30.000Z</time>
      </trkpt>
      <trkpt lat="43.08955438435077667236328125" lon="-6.06785592623054981231689453125">
        <ele>1185.4000244140625</ele>
        <time>2021-08-17T17:01:31.000Z</time>
      </trkpt>
      <trkpt lat="43.08953301049768924713134765625" lon="-6.06785844080150127410888671875">
        <ele>1185.5999755859375</ele>
        <time>2021-08-17T17:01:33.000Z</time>
      </trkpt>
      <trkpt lat="43.08952228166162967681884765625" lon="-6.0678581893444061279296875">
        <ele>1185.5999755859375</ele>
        <time>2021-08-17T17:01:34.000Z</time>
      </trkpt>
      <trkpt lat="43.08951289393007755279541015625" lon="-6.0678617097437381744384765625">
        <ele>1185.800048828125</ele>
        <time>2021-08-17T17:01:35.000Z</time>
      </trkpt>
      <trkpt lat="43.089458160102367401123046875" lon="-6.0678935609757900238037109375">
        <ele>1186.4000244140625</ele>
        <time>2021-08-17T17:01:43.000Z</time>
      </trkpt>
      <trkpt lat="43.08945137076079845428466796875" lon="-6.06789565645158290863037109375">
        <ele>1186.4000244140625</ele>
        <time>2021-08-17T17:01:44.000Z</time>
      </trkpt>
      <trkpt lat="43.08942387811839580535888671875" lon="-6.0678888671100139617919921875">
        <ele>1187</ele>
        <time>2021-08-17T17:01:48.000Z</time>
      </trkpt>
      <trkpt lat="43.08940828777849674224853515625" lon="-6.0678868554532527923583984375">
        <ele>1187.199951171875</ele>
        <time>2021-08-17T17:01:50.000Z</time>
      </trkpt>
      <trkpt lat="43.08940258808434009552001953125" lon="-6.06788995675742626190185546875">
        <ele>1187.4000244140625</ele>
        <time>2021-08-17T17:01:51.000Z</time>
      </trkpt>
      <trkpt lat="43.089387416839599609375" lon="-6.0678955726325511932373046875">
        <ele>1187.5999755859375</ele>
        <time>2021-08-17T17:01:53.000Z</time>
      </trkpt>
      <trkpt lat="43.08937425725162029266357421875" lon="-6.06790269725024700164794921875">
        <ele>1187.800048828125</ele>
        <time>2021-08-17T17:01:55.000Z</time>
      </trkpt>
      <trkpt lat="43.08936419896781444549560546875" lon="-6.06790521182119846343994140625">
        <ele>1188</ele>
        <time>2021-08-17T17:01:56.000Z</time>
      </trkpt>
      <trkpt lat="43.08934994973242282867431640625" lon="-6.06790487654507160186767578125">
        <ele>1188.4000244140625</ele>
        <time>2021-08-17T17:01:58.000Z</time>
      </trkpt>
      <trkpt lat="43.08932966552674770355224609375" lon="-6.06791912578046321868896484375">
        <ele>1189.199951171875</ele>
        <time>2021-08-17T17:02:04.000Z</time>
      </trkpt>
      <trkpt lat="43.089318685233592987060546875" lon="-6.06792323291301727294921875">
        <ele>1189.5999755859375</ele>
        <time>2021-08-17T17:02:06.000Z</time>
      </trkpt>
      <trkpt lat="43.08929747901856899261474609375" lon="-6.067936979234218597412109375">
        <ele>1190.199951171875</ele>
        <time>2021-08-17T17:02:10.000Z</time>
      </trkpt>
      <trkpt lat="43.0892695672810077667236328125" lon="-6.06796220876276493072509765625">
        <ele>1190.800048828125</ele>
        <time>2021-08-17T17:02:14.000Z</time>
      </trkpt>
      <trkpt lat="43.0892534740269184112548828125" lon="-6.0679968260228633880615234375">
        <ele>1191.4000244140625</ele>
        <time>2021-08-17T17:02:17.000Z</time>
      </trkpt>
      <trkpt lat="43.08925439603626728057861328125" lon="-6.06803261674940586090087890625">
        <ele>1192</ele>
        <time>2021-08-17T17:02:19.000Z</time>
      </trkpt>
      <trkpt lat="43.08921969495713710784912109375" lon="-6.06808860786259174346923828125">
        <ele>1193</ele>
        <time>2021-08-17T17:02:26.000Z</time>
      </trkpt>
      <trkpt lat="43.08920837938785552978515625" lon="-6.068099252879619598388671875">
        <ele>1193.4000244140625</ele>
        <time>2021-08-17T17:02:28.000Z</time>
      </trkpt>
      <trkpt lat="43.08919203467667102813720703125" lon="-6.06811702251434326171875">
        <ele>1194.199951171875</ele>
        <time>2021-08-17T17:02:31.000Z</time>
      </trkpt>
      <trkpt lat="43.08916755951941013336181640625" lon="-6.06812749989330768585205078125">
        <ele>1195.199951171875</ele>
        <time>2021-08-17T17:02:36.000Z</time>
      </trkpt>
      <trkpt lat="43.0891528911888599395751953125" lon="-6.06812532059848308563232421875">
        <ele>1196.199951171875</ele>
        <time>2021-08-17T17:02:39.000Z</time>
      </trkpt>
      <trkpt lat="43.0891465209424495697021484375" lon="-6.0681295953691005706787109375">
        <ele>1196.4000244140625</ele>
        <time>2021-08-17T17:02:40.000Z</time>
      </trkpt>
      <trkpt lat="43.0891388095915317535400390625" lon="-6.06813512742519378662109375">
        <ele>1196.5999755859375</ele>
        <time>2021-08-17T17:02:41.000Z</time>
      </trkpt>
      <trkpt lat="43.0891331098973751068115234375" lon="-6.068141162395477294921875">
        <ele>1196.5999755859375</ele>
        <time>2021-08-17T17:02:42.000Z</time>
      </trkpt>
      <trkpt lat="43.089118860661983489990234375" lon="-6.06814585626125335693359375">
        <ele>1197</ele>
        <time>2021-08-17T17:02:44.000Z</time>
      </trkpt>
      <trkpt lat="43.08911123313009738922119140625" lon="-6.0681544058024883270263671875">
        <ele>1197.199951171875</ele>
        <time>2021-08-17T17:02:45.000Z</time>
      </trkpt>
      <trkpt lat="43.089106120169162750244140625" lon="-6.06815901584923267364501953125">
        <ele>1197.4000244140625</ele>
        <time>2021-08-17T17:02:46.000Z</time>
      </trkpt>
      <trkpt lat="43.0890838243067264556884765625" lon="-6.06818734668195247650146484375">
        <ele>1198</ele>
        <time>2021-08-17T17:02:51.000Z</time>
      </trkpt>
      <trkpt lat="43.08907837606966495513916015625" lon="-6.0681966505944728851318359375">
        <ele>1198.4000244140625</ele>
        <time>2021-08-17T17:02:52.000Z</time>
      </trkpt>
      <trkpt lat="43.089078962802886962890625" lon="-6.06820746324956417083740234375">
        <ele>1198.5999755859375</ele>
        <time>2021-08-17T17:02:53.000Z</time>
      </trkpt>
      <trkpt lat="43.08906949125230312347412109375" lon="-6.06822607107460498809814453125">
        <ele>1199</ele>
        <time>2021-08-17T17:02:55.000Z</time>
      </trkpt>
      <trkpt lat="43.08906094171106815338134765625" lon="-6.06824182905256748199462890625">
        <ele>1199.800048828125</ele>
        <time>2021-08-17T17:02:57.000Z</time>
      </trkpt>
      <trkpt lat="43.08905792422592639923095703125" lon="-6.068252809345722198486328125">
        <ele>1200</ele>
        <time>2021-08-17T17:02:58.000Z</time>
      </trkpt>
      <trkpt lat="43.0890496261417865753173828125" lon="-6.0682677291333675384521484375">
        <ele>1200.4000244140625</ele>
        <time>2021-08-17T17:03:00.000Z</time>
      </trkpt>
      <trkpt lat="43.089040406048297882080078125" lon="-6.06827535666525363922119140625">
        <ele>1200.4000244140625</ele>
        <time>2021-08-17T17:03:02.000Z</time>
      </trkpt>
      <trkpt lat="43.08902758173644542694091796875" lon="-6.0682927072048187255859375">
        <ele>1200.800048828125</ele>
        <time>2021-08-17T17:03:05.000Z</time>
      </trkpt>
      <trkpt lat="43.0890238098800182342529296875" lon="-6.0682972334325313568115234375">
        <ele>1201</ele>
        <time>2021-08-17T17:03:06.000Z</time>
      </trkpt>
      <trkpt lat="43.08897527866065502166748046875" lon="-6.06828893534839153289794921875">
        <ele>1202</ele>
        <time>2021-08-17T17:03:14.000Z</time>
      </trkpt>
      <trkpt lat="43.088953904807567596435546875" lon="-6.0683022625744342803955078125">
        <ele>1202.4000244140625</ele>
        <time>2021-08-17T17:03:18.000Z</time>
      </trkpt>
      <trkpt lat="43.0889322794973850250244140625" lon="-6.068305112421512603759765625">
        <ele>1203.199951171875</ele>
        <time>2021-08-17T17:03:22.000Z</time>
      </trkpt>
      <trkpt lat="43.08892314322292804718017578125" lon="-6.06830947101116180419921875">
        <ele>1203.4000244140625</ele>
        <time>2021-08-17T17:03:23.000Z</time>
      </trkpt>
      <trkpt lat="43.08891174383461475372314453125" lon="-6.06831106357276439666748046875">
        <ele>1203.5999755859375</ele>
        <time>2021-08-17T17:03:25.000Z</time>
      </trkpt>
      <trkpt lat="43.08890528976917266845703125" lon="-6.0683153383433818817138671875">
        <ele>1203.5999755859375</ele>
        <time>2021-08-17T17:03:26.000Z</time>
      </trkpt>
      <trkpt lat="43.08889296837151050567626953125" lon="-6.06833503581583499908447265625">
        <ele>1204.199951171875</ele>
        <time>2021-08-17T17:03:29.000Z</time>
      </trkpt>
      <trkpt lat="43.08887821622192859649658203125" lon="-6.0683512128889560699462890625">
        <ele>1205</ele>
        <time>2021-08-17T17:03:33.000Z</time>
      </trkpt>
      <trkpt lat="43.0888726003468036651611328125" lon="-6.06836101971566677093505859375">
        <ele>1205.199951171875</ele>
        <time>2021-08-17T17:03:35.000Z</time>
      </trkpt>
      <trkpt lat="43.08884988538920879364013671875" lon="-6.06837124563753604888916015625">
        <ele>1206.4000244140625</ele>
        <time>2021-08-17T17:03:40.000Z</time>
      </trkpt>
      <trkpt lat="43.08883513323962688446044921875" lon="-6.06839505024254322052001953125">
        <ele>1207</ele>
        <time>2021-08-17T17:03:43.000Z</time>
      </trkpt>
      <trkpt lat="43.08882088400423526763916015625" lon="-6.06840066611766815185546875">
        <ele>1207.4000244140625</ele>
        <time>2021-08-17T17:03:45.000Z</time>
      </trkpt>
      <trkpt lat="43.08879674412310123443603515625" lon="-6.06841013766825199127197265625">
        <ele>1207.800048828125</ele>
        <time>2021-08-17T17:03:48.000Z</time>
      </trkpt>
      <trkpt lat="43.0887914635241031646728515625" lon="-6.0684169270098209381103515625">
        <ele>1208.4000244140625</ele>
        <time>2021-08-17T17:03:49.000Z</time>
      </trkpt>
      <trkpt lat="43.08877495117485523223876953125" lon="-6.06842958368360996246337890625">
        <ele>1208.5999755859375</ele>
        <time>2021-08-17T17:03:51.000Z</time>
      </trkpt>
      <trkpt lat="43.08873991481959819793701171875" lon="-6.068417094647884368896484375">
        <ele>1209.4000244140625</ele>
        <time>2021-08-17T17:03:55.000Z</time>
      </trkpt>
      <trkpt lat="43.0887277610599994659423828125" lon="-6.0684162564575672149658203125">
        <ele>1209.800048828125</ele>
        <time>2021-08-17T17:03:57.000Z</time>
      </trkpt>
      <trkpt lat="43.088701777160167694091796875" lon="-6.06842304579913616180419921875">
        <ele>1210.5999755859375</ele>
        <time>2021-08-17T17:04:01.000Z</time>
      </trkpt>
      <trkpt lat="43.0886995978653430938720703125" lon="-6.06842748820781707763671875">
        <ele>1210.800048828125</ele>
        <time>2021-08-17T17:04:02.000Z</time>
      </trkpt>
      <trkpt lat="43.0886955745518207550048828125" lon="-6.0684697329998016357421875">
        <ele>1212</ele>
        <time>2021-08-17T17:04:07.000Z</time>
      </trkpt>
      <trkpt lat="43.0887099914252758026123046875" lon="-6.0685175098478794097900390625">
        <ele>1213</ele>
        <time>2021-08-17T17:04:14.000Z</time>
      </trkpt>
      <trkpt lat="43.08870621956884860992431640625" lon="-6.06852538883686065673828125">
        <ele>1213.4000244140625</ele>
        <time>2021-08-17T17:04:16.000Z</time>
      </trkpt>
      <trkpt lat="43.08870487846434116363525390625" lon="-6.06853921897709369659423828125">
        <ele>1214.199951171875</ele>
        <time>2021-08-17T17:04:19.000Z</time>
      </trkpt>
      <trkpt lat="43.08868534862995147705078125" lon="-6.068531088531017303466796875">
        <ele>1215.199951171875</ele>
        <time>2021-08-17T17:04:24.000Z</time>
      </trkpt>
      <trkpt lat="43.08868400752544403076171875" lon="-6.068546511232852935791015625">
        <ele>1215.5999755859375</ele>
        <time>2021-08-17T17:04:26.000Z</time>
      </trkpt>
      <trkpt lat="43.08869314379990100860595703125" lon="-6.06856553815305233001708984375">
        <ele>1216.4000244140625</ele>
        <time>2021-08-17T17:04:30.000Z</time>
      </trkpt>
      <trkpt lat="43.0886982567608356475830078125" lon="-6.0685892589390277862548828125">
        <ele>1217.4000244140625</ele>
        <time>2021-08-17T17:04:36.000Z</time>
      </trkpt>
      <trkpt lat="43.08867487125098705291748046875" lon="-6.0686237923800945281982421875">
        <ele>1218.5999755859375</ele>
        <time>2021-08-17T17:04:41.000Z</time>
      </trkpt>
      <trkpt lat="43.08865056373178958892822265625" lon="-6.06862538494169712066650390625">
        <ele>1219</ele>
        <time>2021-08-17T17:04:44.000Z</time>
      </trkpt>
      <trkpt lat="43.08862944133579730987548828125" lon="-6.06861591339111328125">
        <ele>1219.5999755859375</ele>
        <time>2021-08-17T17:04:47.000Z</time>
      </trkpt>
      <trkpt lat="43.08861502446234226226806640625" lon="-6.068612895905971527099609375">
        <ele>1220</ele>
        <time>2021-08-17T17:04:49.000Z</time>
      </trkpt>
      <trkpt lat="43.0886060558259487152099609375" lon="-6.0686201043426990509033203125">
        <ele>1220.5999755859375</ele>
        <time>2021-08-17T17:04:51.000Z</time>
      </trkpt>
      <trkpt lat="43.088606558740139007568359375" lon="-6.068667881190776824951171875">
        <ele>1221.5999755859375</ele>
        <time>2021-08-17T17:04:56.000Z</time>
      </trkpt>
      <trkpt lat="43.08860396035015583038330078125" lon="-6.06867014430463314056396484375">
        <ele>1221.800048828125</ele>
        <time>2021-08-17T17:04:57.000Z</time>
      </trkpt>
      <trkpt lat="43.0885866098105907440185546875" lon="-6.068683974444866180419921875">
        <ele>1223</ele>
        <time>2021-08-17T17:05:03.000Z</time>
      </trkpt>
      <trkpt lat="43.08857403695583343505859375" lon="-6.06870710849761962890625">
        <ele>1224</ele>
        <time>2021-08-17T17:05:07.000Z</time>
      </trkpt>
      <trkpt lat="43.0885599553585052490234375" lon="-6.0687260515987873077392578125">
        <ele>1224.4000244140625</ele>
        <time>2021-08-17T17:05:09.000Z</time>
      </trkpt>
      <trkpt lat="43.0885510705411434173583984375" lon="-6.06874071992933750152587890625">
        <ele>1224.800048828125</ele>
        <time>2021-08-17T17:05:11.000Z</time>
      </trkpt>
      <trkpt lat="43.08854411356151103973388671875" lon="-6.068755052983760833740234375">
        <ele>1225</ele>
        <time>2021-08-17T17:05:13.000Z</time>
      </trkpt>
      <trkpt lat="43.08853019960224628448486328125" lon="-6.0687810368835926055908203125">
        <ele>1225.4000244140625</ele>
        <time>2021-08-17T17:05:17.000Z</time>
      </trkpt>
      <trkpt lat="43.088507317006587982177734375" lon="-6.06878648512065410614013671875">
        <ele>1226.199951171875</ele>
        <time>2021-08-17T17:05:21.000Z</time>
      </trkpt>
      <trkpt lat="43.08847504667937755584716796875" lon="-6.06882043182849884033203125">
        <ele>1227.4000244140625</ele>
        <time>2021-08-17T17:05:27.000Z</time>
      </trkpt>
      <trkpt lat="43.08846532367169857025146484375" lon="-6.06883174739778041839599609375">
        <ele>1227.800048828125</ele>
        <time>2021-08-17T17:05:29.000Z</time>
      </trkpt>
      <trkpt lat="43.08844252489507198333740234375" lon="-6.06887214817106723785400390625">
        <ele>1228.5999755859375</ele>
        <time>2021-08-17T17:05:34.000Z</time>
      </trkpt>
      <trkpt lat="43.0884410999715328216552734375" lon="-6.06890517286956310272216796875">
        <ele>1229.5999755859375</ele>
        <time>2021-08-17T17:05:38.000Z</time>
      </trkpt>
      <trkpt lat="43.0884467996656894683837890625" lon="-6.0689164884388446807861328125">
        <ele>1230.199951171875</ele>
        <time>2021-08-17T17:05:42.000Z</time>
      </trkpt>
      <trkpt lat="43.08844503946602344512939453125" lon="-6.06891808100044727325439453125">
        <ele>1230.5999755859375</ele>
        <time>2021-08-17T17:05:47.000Z</time>
      </trkpt>
      <trkpt lat="43.08843992650508880615234375" lon="-6.0689298994839191436767578125">
        <ele>1231</ele>
        <time>2021-08-17T17:05:56.000Z</time>
      </trkpt>
      <trkpt lat="43.08848678134381771087646484375" lon="-6.06896552257239818572998046875">
        <ele>1231</ele>
        <time>2021-08-17T17:06:08.000Z</time>
      </trkpt>
      <trkpt lat="43.0884910561144351959228515625" lon="-6.06897172518074512481689453125">
        <ele>1231</ele>
        <time>2021-08-17T17:06:18.000Z</time>
      </trkpt>
      <trkpt lat="43.0884902179241180419921875" lon="-6.0689711384475231170654296875">
        <ele>1231</ele>
        <time>2021-08-17T17:06:19.000Z</time>
      </trkpt>
      <trkpt lat="43.08849097229540348052978515625" lon="-6.0689714737236499786376953125">
        <ele>1231</ele>
        <time>2021-08-17T17:06:22.000Z</time>
      </trkpt>
      <trkpt lat="43.088494576513767242431640625" lon="-6.0689704678952693939208984375">
        <ele>1231</ele>
        <time>2021-08-17T17:06:26.000Z</time>
      </trkpt>
      <trkpt lat="43.08849566616117954254150390625" lon="-6.06897105462849140167236328125">
        <ele>1231</ele>
        <time>2021-08-17T17:06:27.000Z</time>
      </trkpt>
      <trkpt lat="43.08851905167102813720703125" lon="-6.0689954459667205810546875">
        <ele>1231.199951171875</ele>
        <time>2021-08-17T17:06:32.000Z</time>
      </trkpt>
      <trkpt lat="43.08852651156485080718994140625" lon="-6.0690130479633808135986328125">
        <ele>1231.800048828125</ele>
        <time>2021-08-17T17:06:36.000Z</time>
      </trkpt>
      <trkpt lat="43.08851896785199642181396484375" lon="-6.06902025640010833740234375">
        <ele>1231.800048828125</ele>
        <time>2021-08-17T17:06:38.000Z</time>
      </trkpt>
      <trkpt lat="43.08852215297520160675048828125" lon="-6.06905353255569934844970703125">
        <ele>1232</ele>
        <time>2021-08-17T17:06:42.000Z</time>
      </trkpt>
      <trkpt lat="43.0885168723762035369873046875" lon="-6.06907792389392852783203125">
        <ele>1233.199951171875</ele>
        <time>2021-08-17T17:06:47.000Z</time>
      </trkpt>
      <trkpt lat="43.08851108886301517486572265625" lon="-6.0690774209797382354736328125">
        <ele>1233.4000244140625</ele>
        <time>2021-08-17T17:06:48.000Z</time>
      </trkpt>
      <trkpt lat="43.08848678134381771087646484375" lon="-6.06907867826521396636962890625">
        <ele>1234.199951171875</ele>
        <time>2021-08-17T17:06:52.000Z</time>
      </trkpt>
      <trkpt lat="43.08846398256719112396240234375" lon="-6.06908370740711688995361328125">
        <ele>1234.5999755859375</ele>
        <time>2021-08-17T17:06:55.000Z</time>
      </trkpt>
      <trkpt lat="43.08844587765634059906005859375" lon="-6.06908521614968776702880859375">
        <ele>1234.800048828125</ele>
        <time>2021-08-17T17:06:57.000Z</time>
      </trkpt>
      <trkpt lat="43.0884280242025852203369140625" lon="-6.06908731162548065185546875">
        <ele>1235.4000244140625</ele>
        <time>2021-08-17T17:06:59.000Z</time>
      </trkpt>
      <trkpt lat="43.0884028784930706024169921875" lon="-6.0690898261964321136474609375">
        <ele>1235.800048828125</ele>
        <time>2021-08-17T17:07:02.000Z</time>
      </trkpt>
      <trkpt lat="43.08837915770709514617919921875" lon="-6.06909292750060558319091796875">
        <ele>1236.4000244140625</ele>
        <time>2021-08-17T17:07:05.000Z</time>
      </trkpt>
      <trkpt lat="43.0883421935141086578369140625" lon="-6.0691035725176334381103515625">
        <ele>1237.199951171875</ele>
        <time>2021-08-17T17:07:10.000Z</time>
      </trkpt>
      <trkpt lat="43.0883373320102691650390625" lon="-6.06910952366888523101806640625">
        <ele>1237.4000244140625</ele>
        <time>2021-08-17T17:07:11.000Z</time>
      </trkpt>
      <trkpt lat="43.0883314646780490875244140625" lon="-6.0691153071820735931396484375">
        <ele>1237.4000244140625</ele>
        <time>2021-08-17T17:07:12.000Z</time>
      </trkpt>
      <trkpt lat="43.08831654489040374755859375" lon="-6.0691283829510211944580078125">
        <ele>1238</ele>
        <time>2021-08-17T17:07:15.000Z</time>
      </trkpt>
      <trkpt lat="43.088301122188568115234375" lon="-6.06913668103516101837158203125">
        <ele>1238.4000244140625</ele>
        <time>2021-08-17T17:07:17.000Z</time>
      </trkpt>
      <trkpt lat="43.08829106390476226806640625" lon="-6.0691414587199687957763671875">
        <ele>1238.5999755859375</ele>
        <time>2021-08-17T17:07:19.000Z</time>
      </trkpt>
      <trkpt lat="43.08826516382396221160888671875" lon="-6.06914103962481021881103515625">
        <ele>1239.4000244140625</ele>
        <time>2021-08-17T17:07:25.000Z</time>
      </trkpt>
      <trkpt lat="43.0882241763174533843994140625" lon="-6.06913559138774871826171875">
        <ele>1238.800048828125</ele>
        <time>2021-08-17T17:07:35.000Z</time>
      </trkpt>
      <trkpt lat="43.08816474862396717071533203125" lon="-6.0691324062645435333251953125">
        <ele>1239</ele>
        <time>2021-08-17T17:07:42.000Z</time>
      </trkpt>
      <trkpt lat="43.0881460569798946380615234375" lon="-6.06915595941245555877685546875">
        <ele>1239.5999755859375</ele>
        <time>2021-08-17T17:07:46.000Z</time>
      </trkpt>
      <trkpt lat="43.08814178220927715301513671875" lon="-6.06916098855435848236083984375">
        <ele>1239.5999755859375</ele>
        <time>2021-08-17T17:07:47.000Z</time>
      </trkpt>
      <trkpt lat="43.08813557960093021392822265625" lon="-6.069163419306278228759765625">
        <ele>1240</ele>
        <time>2021-08-17T17:07:48.000Z</time>
      </trkpt>
      <trkpt lat="43.08812736533582210540771484375" lon="-6.069170795381069183349609375">
        <ele>1240.4000244140625</ele>
        <time>2021-08-17T17:07:50.000Z</time>
      </trkpt>
      <trkpt lat="43.08812552131712436676025390625" lon="-6.06917574070394039154052734375">
        <ele>1240.5999755859375</ele>
        <time>2021-08-17T17:07:52.000Z</time>
      </trkpt>
      <trkpt lat="43.08811764232814311981201171875" lon="-6.06917423196136951446533203125">
        <ele>1240.5999755859375</ele>
        <time>2021-08-17T17:07:55.000Z</time>
      </trkpt>
      <trkpt lat="43.0880816839635372161865234375" lon="-6.06916417367756366729736328125">
        <ele>1240.199951171875</ele>
        <time>2021-08-17T17:07:59.000Z</time>
      </trkpt>
      <trkpt lat="43.08803885243833065032958984375" lon="-6.06917825527489185333251953125">
        <ele>1240</ele>
        <time>2021-08-17T17:08:06.000Z</time>
      </trkpt>
      <trkpt lat="43.0880132876336574554443359375" lon="-6.069187559187412261962890625">
        <ele>1240.199951171875</ele>
        <time>2021-08-17T17:08:10.000Z</time>
      </trkpt>
      <trkpt lat="43.08793709613382816314697265625" lon="-6.0691525228321552276611328125">
        <ele>1241</ele>
        <time>2021-08-17T17:08:23.000Z</time>
      </trkpt>
      <trkpt lat="43.08784573338925838470458984375" lon="-6.069144308567047119140625">
        <ele>1240.199951171875</ele>
        <time>2021-08-17T17:08:34.000Z</time>
      </trkpt>
      <trkpt lat="43.08773308061063289642333984375" lon="-6.069101393222808837890625">
        <ele>1241</ele>
        <time>2021-08-17T17:08:47.000Z</time>
      </trkpt>
      <trkpt lat="43.0877244472503662109375" lon="-6.06909938156604766845703125">
        <ele>1241</ele>
        <time>2021-08-17T17:08:48.000Z</time>
      </trkpt>
      <trkpt lat="43.08762319386005401611328125" lon="-6.069106757640838623046875">
        <ele>1241.4000244140625</ele>
        <time>2021-08-17T17:08:58.000Z</time>
      </trkpt>
      <trkpt lat="43.08761506341397762298583984375" lon="-6.069112122058868408203125">
        <ele>1241.5999755859375</ele>
        <time>2021-08-17T17:08:59.000Z</time>
      </trkpt>
      <trkpt lat="43.087603747844696044921875" lon="-6.06912511400878429412841796875">
        <ele>1242</ele>
        <time>2021-08-17T17:09:01.000Z</time>
      </trkpt>
      <trkpt lat="43.08758832514286041259765625" lon="-6.069139949977397918701171875">
        <ele>1242.4000244140625</ele>
        <time>2021-08-17T17:09:03.000Z</time>
      </trkpt>
      <trkpt lat="43.08756795711815357208251953125" lon="-6.06915528886020183563232421875">
        <ele>1242.5999755859375</ele>
        <time>2021-08-17T17:09:06.000Z</time>
      </trkpt>
      <trkpt lat="43.08752797544002532958984375" lon="-6.06918646953999996185302734375">
        <ele>1243.5999755859375</ele>
        <time>2021-08-17T17:09:12.000Z</time>
      </trkpt>
      <trkpt lat="43.08751297183334827423095703125" lon="-6.069202311336994171142578125">
        <ele>1243.800048828125</ele>
        <time>2021-08-17T17:09:14.000Z</time>
      </trkpt>
      <trkpt lat="43.0875073559582233428955078125" lon="-6.06921312399208545684814453125">
        <ele>1244</ele>
        <time>2021-08-17T17:09:15.000Z</time>
      </trkpt>
      <trkpt lat="43.0874721519649028778076171875" lon="-6.06928202323615550994873046875">
        <ele>1244.4000244140625</ele>
        <time>2021-08-17T17:09:23.000Z</time>
      </trkpt>
      <trkpt lat="43.0874587409198284149169921875" lon="-6.06929006986320018768310546875">
        <ele>1244.5999755859375</ele>
        <time>2021-08-17T17:09:26.000Z</time>
      </trkpt>
      <trkpt lat="43.087445162236690521240234375" lon="-6.069291494786739349365234375">
        <ele>1244.4000244140625</ele>
        <time>2021-08-17T17:09:29.000Z</time>
      </trkpt>
      <trkpt lat="43.08742605149745941162109375" lon="-6.06928386725485324859619140625">
        <ele>1243.800048828125</ele>
        <time>2021-08-17T17:09:32.000Z</time>
      </trkpt>
      <trkpt lat="43.08738020248711109161376953125" lon="-6.06927313841879367828369140625">
        <ele>1243</ele>
        <time>2021-08-17T17:09:39.000Z</time>
      </trkpt>
      <trkpt lat="43.08735765516757965087890625" lon="-6.06927967630326747894287109375">
        <ele>1242.5999755859375</ele>
        <time>2021-08-17T17:09:42.000Z</time>
      </trkpt>
      <trkpt lat="43.08728029020130634307861328125" lon="-6.06927104294300079345703125">
        <ele>1241.5999755859375</ele>
        <time>2021-08-17T17:09:52.000Z</time>
      </trkpt>
      <trkpt lat="43.0872679688036441802978515625" lon="-6.06926492415368556976318359375">
        <ele>1241.5999755859375</ele>
        <time>2021-08-17T17:09:53.000Z</time>
      </trkpt>
      <trkpt lat="43.0871985666453838348388671875" lon="-6.06928219087421894073486328125">
        <ele>1241</ele>
        <time>2021-08-17T17:10:00.000Z</time>
      </trkpt>
      <trkpt lat="43.08717149309813976287841796875" lon="-6.06929794885218143463134765625">
        <ele>1241.5999755859375</ele>
        <time>2021-08-17T17:10:04.000Z</time>
      </trkpt>
      <trkpt lat="43.08714039623737335205078125" lon="-6.069315634667873382568359375">
        <ele>1242</ele>
        <time>2021-08-17T17:10:08.000Z</time>
      </trkpt>
      <trkpt lat="43.0871357023715972900390625" lon="-6.069324351847171783447265625">
        <ele>1242.199951171875</ele>
        <time>2021-08-17T17:10:09.000Z</time>
      </trkpt>
      <trkpt lat="43.0871234647929668426513671875" lon="-6.06933684088289737701416015625">
        <ele>1242.800048828125</ele>
        <time>2021-08-17T17:10:11.000Z</time>
      </trkpt>
      <trkpt lat="43.0870644561946392059326171875" lon="-6.069367267191410064697265625">
        <ele>1243.4000244140625</ele>
        <time>2021-08-17T17:10:18.000Z</time>
      </trkpt>
      <trkpt lat="43.08703771792352199554443359375" lon="-6.0693878866732120513916015625">
        <ele>1243.800048828125</ele>
        <time>2021-08-17T17:10:21.000Z</time>
      </trkpt>
      <trkpt lat="43.08700603432953357696533203125" lon="-6.06941764242947101593017578125">
        <ele>1244.199951171875</ele>
        <time>2021-08-17T17:10:25.000Z</time>
      </trkpt>
      <trkpt lat="43.08699128217995166778564453125" lon="-6.06944697909057140350341796875">
        <ele>1245</ele>
        <time>2021-08-17T17:10:28.000Z</time>
      </trkpt>
      <trkpt lat="43.08698088862001895904541015625" lon="-6.06946282088756561279296875">
        <ele>1245.199951171875</ele>
        <time>2021-08-17T17:10:30.000Z</time>
      </trkpt>
      <trkpt lat="43.08695808984339237213134765625" lon="-6.06947883032262325286865234375">
        <ele>1246</ele>
        <time>2021-08-17T17:10:34.000Z</time>
      </trkpt>
      <trkpt lat="43.08695205487310886383056640625" lon="-6.06948151253163814544677734375">
        <ele>1246.199951171875</ele>
        <time>2021-08-17T17:10:35.000Z</time>
      </trkpt>
      <trkpt lat="43.08694333769381046295166015625" lon="-6.0694867931306362152099609375">
        <ele>1246.199951171875</ele>
        <time>2021-08-17T17:10:36.000Z</time>
      </trkpt>
      <trkpt lat="43.08691903017461299896240234375" lon="-6.0695223324000835418701171875">
        <ele>1246.800048828125</ele>
        <time>2021-08-17T17:10:40.000Z</time>
      </trkpt>
      <trkpt lat="43.0869115702807903289794921875" lon="-6.06953616254031658172607421875">
        <ele>1247.199951171875</ele>
        <time>2021-08-17T17:10:42.000Z</time>
      </trkpt>
      <trkpt lat="43.086897321045398712158203125" lon="-6.0695404373109340667724609375">
        <ele>1247.4000244140625</ele>
        <time>2021-08-17T17:10:44.000Z</time>
      </trkpt>
      <trkpt lat="43.086863122880458831787109375" lon="-6.06956030242145061492919921875">
        <ele>1247.800048828125</ele>
        <time>2021-08-17T17:10:49.000Z</time>
      </trkpt>
      <trkpt lat="43.086851723492145538330078125" lon="-6.069563739001750946044921875">
        <ele>1248.199951171875</ele>
        <time>2021-08-17T17:10:51.000Z</time>
      </trkpt>
      <trkpt lat="43.08681559748947620391845703125" lon="-6.06956650502979755401611328125">
        <ele>1249.199951171875</ele>
        <time>2021-08-17T17:10:56.000Z</time>
      </trkpt>
      <trkpt lat="43.086808137595653533935546875" lon="-6.069573126733303070068359375">
        <ele>1249.4000244140625</ele>
        <time>2021-08-17T17:10:57.000Z</time>
      </trkpt>
      <trkpt lat="43.08678592555224895477294921875" lon="-6.0695783235132694244384765625">
        <ele>1249.5999755859375</ele>
        <time>2021-08-17T17:11:00.000Z</time>
      </trkpt>
      <trkpt lat="43.08676756918430328369140625" lon="-6.06958276592195034027099609375">
        <ele>1250.199951171875</ele>
        <time>2021-08-17T17:11:03.000Z</time>
      </trkpt>
      <trkpt lat="43.08675792999565601348876953125" lon="-6.06958217918872833251953125">
        <ele>1250.4000244140625</ele>
        <time>2021-08-17T17:11:04.000Z</time>
      </trkpt>
      <trkpt lat="43.08673446066677570343017578125" lon="-6.0696034692227840423583984375">
        <ele>1250.5999755859375</ele>
        <time>2021-08-17T17:11:08.000Z</time>
      </trkpt>
      <trkpt lat="43.0867271684110164642333984375" lon="-6.06960606761276721954345703125">
        <ele>1250.800048828125</ele>
        <time>2021-08-17T17:11:09.000Z</time>
      </trkpt>
      <trkpt lat="43.0867087282240390777587890625" lon="-6.06961126439273357391357421875">
        <ele>1251.199951171875</ele>
        <time>2021-08-17T17:11:11.000Z</time>
      </trkpt>
      <trkpt lat="43.08669456280767917633056640625" lon="-6.06961512006819248199462890625">
        <ele>1251.4000244140625</ele>
        <time>2021-08-17T17:11:13.000Z</time>
      </trkpt>
      <trkpt lat="43.08668970130383968353271484375" lon="-6.0696158744394779205322265625">
        <ele>1251.5999755859375</ele>
        <time>2021-08-17T17:11:14.000Z</time>
      </trkpt>
      <trkpt lat="43.08666388504207134246826171875" lon="-6.06961168348789215087890625">
        <ele>1252.199951171875</ele>
        <time>2021-08-17T17:11:18.000Z</time>
      </trkpt>
      <trkpt lat="43.08664997108280658721923828125" lon="-6.06960489414632320404052734375">
        <ele>1252.4000244140625</ele>
        <time>2021-08-17T17:11:20.000Z</time>
      </trkpt>
      <trkpt lat="43.08664619922637939453125" lon="-6.06961042620241641998291015625">
        <ele>1252.4000244140625</ele>
        <time>2021-08-17T17:11:21.000Z</time>
      </trkpt>
      <trkpt lat="43.08663253672420978546142578125" lon="-6.069624088704586029052734375">
        <ele>1252.800048828125</ele>
        <time>2021-08-17T17:11:24.000Z</time>
      </trkpt>
      <trkpt lat="43.08662717230618000030517578125" lon="-6.06965434737503528594970703125">
        <ele>1253</ele>
        <time>2021-08-17T17:11:26.000Z</time>
      </trkpt>
      <trkpt lat="43.08657973073422908782958984375" lon="-6.06961394660174846649169921875">
        <ele>1253.5999755859375</ele>
        <time>2021-08-17T17:11:29.000Z</time>
      </trkpt>
      <trkpt lat="43.08657051064074039459228515625" lon="-6.06960707344114780426025390625">
        <ele>1253.800048828125</ele>
        <time>2021-08-17T17:11:30.000Z</time>
      </trkpt>
      <trkpt lat="43.0865665711462497711181640625" lon="-6.06961679644882678985595703125">
        <ele>1254</ele>
        <time>2021-08-17T17:11:31.000Z</time>
      </trkpt>
      <trkpt lat="43.086560033261775970458984375" lon="-6.0696172155439853668212890625">
        <ele>1254</ele>
        <time>2021-08-17T17:11:32.000Z</time>
      </trkpt>
      <trkpt lat="43.0865253321826457977294921875" lon="-6.069642193615436553955078125">
        <ele>1254.5999755859375</ele>
        <time>2021-08-17T17:11:40.000Z</time>
      </trkpt>
      <trkpt lat="43.08651753701269626617431640625" lon="-6.069658286869525909423828125">
        <ele>1255</ele>
        <time>2021-08-17T17:11:42.000Z</time>
      </trkpt>
      <trkpt lat="43.0865112505853176116943359375" lon="-6.06968167237937450408935546875">
        <ele>1255.5999755859375</ele>
        <time>2021-08-17T17:11:44.000Z</time>
      </trkpt>
      <trkpt lat="43.08649490587413311004638671875" lon="-6.06971620582044124603271484375">
        <ele>1256.800048828125</ele>
        <time>2021-08-17T17:11:49.000Z</time>
      </trkpt>
      <trkpt lat="43.08650127612054347991943359375" lon="-6.069768927991390228271484375">
        <ele>1257.800048828125</ele>
        <time>2021-08-17T17:11:53.000Z</time>
      </trkpt>
      <trkpt lat="43.08650077320635318756103515625" lon="-6.0697801597416400909423828125">
        <ele>1258</ele>
        <time>2021-08-17T17:11:54.000Z</time>
      </trkpt>
      <trkpt lat="43.08650337159633636474609375" lon="-6.0698234103620052337646484375">
        <ele>1259</ele>
        <time>2021-08-17T17:11:58.000Z</time>
      </trkpt>
      <trkpt lat="43.08648166246712207794189453125" lon="-6.06986649334430694580078125">
        <ele>1260.199951171875</ele>
        <time>2021-08-17T17:12:04.000Z</time>
      </trkpt>
      <trkpt lat="43.0864713527262210845947265625" lon="-6.06988837011158466339111328125">
        <ele>1260.4000244140625</ele>
        <time>2021-08-17T17:12:07.000Z</time>
      </trkpt>
      <trkpt lat="43.08646188117563724517822265625" lon="-6.06990396045148372650146484375">
        <ele>1261.199951171875</ele>
        <time>2021-08-17T17:12:11.000Z</time>
      </trkpt>
      <trkpt lat="43.08647596277296543121337890625" lon="-6.06990748085081577301025390625">
        <ele>1261.800048828125</ele>
        <time>2021-08-17T17:12:17.000Z</time>
      </trkpt>
      <trkpt lat="43.08647981844842433929443359375" lon="-6.06991033069789409637451171875">
        <ele>1262</ele>
        <time>2021-08-17T17:12:19.000Z</time>
      </trkpt>
      <trkpt lat="43.08648417703807353973388671875" lon="-6.0699119232594966888427734375">
        <ele>1262.4000244140625</ele>
        <time>2021-08-17T17:12:20.000Z</time>
      </trkpt>
      <trkpt lat="43.0864968337118625640869140625" lon="-6.06991745531558990478515625">
        <ele>1262.5999755859375</ele>
        <time>2021-08-17T17:12:21.000Z</time>
      </trkpt>
      <trkpt lat="43.0865045450627803802490234375" lon="-6.06991888023912906646728515625">
        <ele>1262.800048828125</ele>
        <time>2021-08-17T17:12:22.000Z</time>
      </trkpt>
      <trkpt lat="43.08651586063206195831298828125" lon="-6.06992139481008052825927734375">
        <ele>1263</ele>
        <time>2021-08-17T17:12:23.000Z</time>
      </trkpt>
      <trkpt lat="43.086529187858104705810546875" lon="-6.06992189772427082061767578125">
        <ele>1263.4000244140625</ele>
        <time>2021-08-17T17:12:25.000Z</time>
      </trkpt>
      <trkpt lat="43.0865776352584362030029296875" lon="-6.06997914612293243408203125">
        <ele>1264.4000244140625</ele>
        <time>2021-08-17T17:12:31.000Z</time>
      </trkpt>
      <trkpt lat="43.0865912139415740966796875" lon="-6.0700198821723461151123046875">
        <ele>1265.4000244140625</ele>
        <time>2021-08-17T17:12:38.000Z</time>
      </trkpt>
      <trkpt lat="43.08659163303673267364501953125" lon="-6.07003019191324710845947265625">
        <ele>1265.5999755859375</ele>
        <time>2021-08-17T17:12:40.000Z</time>
      </trkpt>
      <trkpt lat="43.08657788671553134918212890625" lon="-6.07004259712994098663330078125">
        <ele>1266.199951171875</ele>
        <time>2021-08-17T17:12:43.000Z</time>
      </trkpt>
      <trkpt lat="43.08656464330852031707763671875" lon="-6.0700468719005584716796875">
        <ele>1266.5999755859375</ele>
        <time>2021-08-17T17:12:45.000Z</time>
      </trkpt>
      <trkpt lat="43.0865187942981719970703125" lon="-6.0700835846364498138427734375">
        <ele>1267.199951171875</ele>
        <time>2021-08-17T17:12:52.000Z</time>
      </trkpt>
      <trkpt lat="43.0865068919956684112548828125" lon="-6.0700842551887035369873046875">
        <ele>1267.5999755859375</ele>
        <time>2021-08-17T17:12:54.000Z</time>
      </trkpt>
      <trkpt lat="43.08648057281970977783203125" lon="-6.070106215775012969970703125">
        <ele>1268.5999755859375</ele>
        <time>2021-08-17T17:13:00.000Z</time>
      </trkpt>
      <trkpt lat="43.0864777229726314544677734375" lon="-6.07014368288218975067138671875">
        <ele>1269.4000244140625</ele>
        <time>2021-08-17T17:13:05.000Z</time>
      </trkpt>
      <trkpt lat="43.08647998608648777008056640625" lon="-6.07015508227050304412841796875">
        <ele>1269.800048828125</ele>
        <time>2021-08-17T17:13:06.000Z</time>
      </trkpt>
      <trkpt lat="43.08648032136261463165283203125" lon="-6.0701781325042247772216796875">
        <ele>1271</ele>
        <time>2021-08-17T17:13:10.000Z</time>
      </trkpt>
      <trkpt lat="43.086479566991329193115234375" lon="-6.07017989270389080047607421875">
        <ele>1272.199951171875</ele>
        <time>2021-08-17T17:13:14.000Z</time>
      </trkpt>
      <trkpt lat="43.0865129269659519195556640625" lon="-6.07018894515931606292724609375">
        <ele>1272.800048828125</ele>
        <time>2021-08-17T17:13:18.000Z</time>
      </trkpt>
      <trkpt lat="43.08654905296862125396728515625" lon="-6.070189364254474639892578125">
        <ele>1273.199951171875</ele>
        <time>2021-08-17T17:13:23.000Z</time>
      </trkpt>
      <trkpt lat="43.08657906018197536468505859375" lon="-6.07019045390188694000244140625">
        <ele>1274.199951171875</ele>
        <time>2021-08-17T17:13:28.000Z</time>
      </trkpt>
      <trkpt lat="43.08658744208514690399169921875" lon="-6.0701928846538066864013671875">
        <ele>1275.199951171875</ele>
        <time>2021-08-17T17:13:32.000Z</time>
      </trkpt>
      <trkpt lat="43.0865883640944957733154296875" lon="-6.07019129209220409393310546875">
        <ele>1275.5999755859375</ele>
        <time>2021-08-17T17:13:33.000Z</time>
      </trkpt>
      <trkpt lat="43.0865689180791378021240234375" lon="-6.0702022723853588104248046875">
        <ele>1276.5999755859375</ele>
        <time>2021-08-17T17:13:41.000Z</time>
      </trkpt>
      <trkpt lat="43.0865652300417423248291015625" lon="-6.07021744363009929656982421875">
        <ele>1277</ele>
        <time>2021-08-17T17:13:44.000Z</time>
      </trkpt>
      <trkpt lat="43.08654226362705230712890625" lon="-6.07022012583911418914794921875">
        <ele>1277.5999755859375</ele>
        <time>2021-08-17T17:13:49.000Z</time>
      </trkpt>
      <trkpt lat="43.08651678264141082763671875" lon="-6.070233620703220367431640625">
        <ele>1278.5999755859375</ele>
        <time>2021-08-17T17:13:56.000Z</time>
      </trkpt>
      <trkpt lat="43.08651334606111049652099609375" lon="-6.0702346265316009521484375">
        <ele>1278.800048828125</ele>
        <time>2021-08-17T17:13:57.000Z</time>
      </trkpt>
      <trkpt lat="43.08648719452321529388427734375" lon="-6.07024443335831165313720703125">
        <ele>1279.800048828125</ele>
        <time>2021-08-17T17:14:02.000Z</time>
      </trkpt>
      <trkpt lat="43.0864663235843181610107421875" lon="-6.070263125002384185791015625">
        <ele>1280.800048828125</ele>
        <time>2021-08-17T17:14:07.000Z</time>
      </trkpt>
      <trkpt lat="43.086457438766956329345703125" lon="-6.07026538811624050140380859375">
        <ele>1281.4000244140625</ele>
        <time>2021-08-17T17:14:10.000Z</time>
      </trkpt>
      <trkpt lat="43.08645869605243206024169921875" lon="-6.07028768397867679595947265625">
        <ele>1281.800048828125</ele>
        <time>2021-08-17T17:14:13.000Z</time>
      </trkpt>
      <trkpt lat="43.0864569358527660369873046875" lon="-6.0703216306865215301513671875">
        <ele>1282.5999755859375</ele>
        <time>2021-08-17T17:14:18.000Z</time>
      </trkpt>
      <trkpt lat="43.0864539183676242828369140625" lon="-6.07032825239002704620361328125">
        <ele>1282.800048828125</ele>
        <time>2021-08-17T17:14:19.000Z</time>
      </trkpt>
      <trkpt lat="43.08646858669817447662353515625" lon="-6.0703606903553009033203125">
        <ele>1283</ele>
        <time>2021-08-17T17:14:23.000Z</time>
      </trkpt>
      <trkpt lat="43.08647093363106250762939453125" lon="-6.0703655518591403961181640625">
        <ele>1283</ele>
        <time>2021-08-17T17:14:24.000Z</time>
      </trkpt>
      <trkpt lat="43.08650446124374866485595703125" lon="-6.07039153575897216796875">
        <ele>1284</ele>
        <time>2021-08-17T17:14:31.000Z</time>
      </trkpt>
      <trkpt lat="43.0865228176116943359375" lon="-6.07040620408952236175537109375">
        <ele>1285</ele>
        <time>2021-08-17T17:14:35.000Z</time>
      </trkpt>
      <trkpt lat="43.08653061278164386749267578125" lon="-6.07041173614561557769775390625">
        <ele>1285.199951171875</ele>
        <time>2021-08-17T17:14:36.000Z</time>
      </trkpt>
      <trkpt lat="43.08654285036027431488037109375" lon="-6.0704304277896881103515625">
        <ele>1285.800048828125</ele>
        <time>2021-08-17T17:14:40.000Z</time>
      </trkpt>
      <trkpt lat="43.086541593074798583984375" lon="-6.0704332776367664337158203125">
        <ele>1286</ele>
        <time>2021-08-17T17:14:41.000Z</time>
      </trkpt>
      <trkpt lat="43.08653161861002445220947265625" lon="-6.07045548968017101287841796875">
        <ele>1287.199951171875</ele>
        <time>2021-08-17T17:14:47.000Z</time>
      </trkpt>
      <trkpt lat="43.0865464545786380767822265625" lon="-6.07047141529619693756103515625">
        <ele>1288.4000244140625</ele>
        <time>2021-08-17T17:14:53.000Z</time>
      </trkpt>
      <trkpt lat="43.0865709297358989715576171875" lon="-6.0704865865409374237060546875">
        <ele>1289.5999755859375</ele>
        <time>2021-08-17T17:14:59.000Z</time>
      </trkpt>
      <trkpt lat="43.086575455963611602783203125" lon="-6.07049278914928436279296875">
        <ele>1290</ele>
        <time>2021-08-17T17:15:00.000Z</time>
      </trkpt>
      <trkpt lat="43.0865912139415740966796875" lon="-6.0705077089369297027587890625">
        <ele>1290.5999755859375</ele>
        <time>2021-08-17T17:15:03.000Z</time>
      </trkpt>
      <trkpt lat="43.08660185895860195159912109375" lon="-6.0705103911459445953369140625">
        <ele>1291</ele>
        <time>2021-08-17T17:15:05.000Z</time>
      </trkpt>
      <trkpt lat="43.08660663664340972900390625" lon="-6.07051013968884944915771484375">
        <ele>1291.199951171875</ele>
        <time>2021-08-17T17:15:06.000Z</time>
      </trkpt>
      <trkpt lat="43.08660521171987056732177734375" lon="-6.0705077089369297027587890625">
        <ele>1291.800048828125</ele>
        <time>2021-08-17T17:15:08.000Z</time>
      </trkpt>
      <trkpt lat="43.0866128392517566680908203125" lon="-6.0705135762691497802734375">
        <ele>1292</ele>
        <time>2021-08-17T17:15:09.000Z</time>
      </trkpt>
      <trkpt lat="43.0866161920130252838134765625" lon="-6.07051148079335689544677734375">
        <ele>1292.5999755859375</ele>
        <time>2021-08-17T17:15:12.000Z</time>
      </trkpt>
      <trkpt lat="43.08662331663072109222412109375" lon="-6.070501841604709625244140625">
        <ele>1292.800048828125</ele>
        <time>2021-08-17T17:15:14.000Z</time>
      </trkpt>
      <trkpt lat="43.08662381954491138458251953125" lon="-6.070501841604709625244140625">
        <ele>1292.800048828125</ele>
        <time>2021-08-17T17:15:15.000Z</time>
      </trkpt>
      <trkpt lat="43.0866299383342266082763671875" lon="-6.07050024904310703277587890625">
        <ele>1292.5999755859375</ele>
        <time>2021-08-17T17:15:19.000Z</time>
      </trkpt>
      <trkpt lat="43.086646534502506256103515625" lon="-6.0704885981976985931396484375">
        <ele>1292</ele>
        <time>2021-08-17T17:15:28.000Z</time>
      </trkpt>
      <trkpt lat="43.086640834808349609375" lon="-6.0704828985035419464111328125">
        <ele>1292</ele>
        <time>2021-08-17T17:15:35.000Z</time>
      </trkpt>
      <trkpt lat="43.08664695359766483306884765625" lon="-6.07047937810420989990234375">
        <ele>1292</ele>
        <time>2021-08-17T17:15:40.000Z</time>
      </trkpt>
      <trkpt lat="43.0866463668644428253173828125" lon="-6.07046940363943576812744140625">
        <ele>1292</ele>
        <time>2021-08-17T17:15:45.000Z</time>
      </trkpt>
      <trkpt lat="43.08662918396294116973876953125" lon="-6.07042984105646610260009765625">
        <ele>1292.5999755859375</ele>
        <time>2021-08-17T17:15:50.000Z</time>
      </trkpt>
      <trkpt lat="43.0866198800504207611083984375" lon="-6.07042598538100719451904296875">
        <ele>1292.800048828125</ele>
        <time>2021-08-17T17:15:54.000Z</time>
      </trkpt>
      <trkpt lat="43.08661996386945247650146484375" lon="-6.0704248957335948944091796875">
        <ele>1292.800048828125</ele>
        <time>2021-08-17T17:15:59.000Z</time>
      </trkpt>
      <trkpt lat="43.0866218917071819305419921875" lon="-6.0704195313155651092529296875">
        <ele>1292.5999755859375</ele>
        <time>2021-08-17T17:16:04.000Z</time>
      </trkpt>
      <trkpt lat="43.08661879040300846099853515625" lon="-6.07041710056364536285400390625">
        <ele>1292</ele>
        <time>2021-08-17T17:16:11.000Z</time>
      </trkpt>
      <trkpt lat="43.0866296030580997467041015625" lon="-6.07041793875396251678466796875">
        <ele>1292</ele>
        <time>2021-08-17T17:16:15.000Z</time>
      </trkpt>
      <trkpt lat="43.08662935160100460052490234375" lon="-6.07042464427649974822998046875">
        <ele>1292</ele>
        <time>2021-08-17T17:16:23.000Z</time>
      </trkpt>
      <trkpt lat="43.08662096969783306121826171875" lon="-6.07045213691890239715576171875">
        <ele>1292</ele>
        <time>2021-08-17T17:16:29.000Z</time>
      </trkpt>
      <trkpt lat="43.086594231426715850830078125" lon="-6.0704906098544597625732421875">
        <ele>1293.800048828125</ele>
        <time>2021-08-17T17:16:38.000Z</time>
      </trkpt>
      <trkpt lat="43.08658677153289318084716796875" lon="-6.0705010034143924713134765625">
        <ele>1294.199951171875</ele>
        <time>2021-08-17T17:16:40.000Z</time>
      </trkpt>
      <trkpt lat="43.08656799606978893280029296875" lon="-6.07051961123943328857421875">
        <ele>1294.5999755859375</ele>
        <time>2021-08-17T17:16:44.000Z</time>
      </trkpt>
      <trkpt lat="43.0865612067282199859619140625" lon="-6.07052371837198734283447265625">
        <ele>1295</ele>
        <time>2021-08-17T17:16:46.000Z</time>
      </trkpt>
      <trkpt lat="43.08655056171119213104248046875" lon="-6.070536039769649505615234375">
        <ele>1295.5999755859375</ele>
        <time>2021-08-17T17:16:49.000Z</time>
      </trkpt>
      <trkpt lat="43.08654855005443096160888671875" lon="-6.07054618187248706817626953125">
        <ele>1296</ele>
        <time>2021-08-17T17:16:51.000Z</time>
      </trkpt>
      <trkpt lat="43.086549974977970123291015625" lon="-6.07055255211889743804931640625">
        <ele>1296.199951171875</ele>
        <time>2021-08-17T17:16:52.000Z</time>
      </trkpt>
      <trkpt lat="43.0865420959889888763427734375" lon="-6.0705680586397647857666015625">
        <ele>1297</ele>
        <time>2021-08-17T17:16:55.000Z</time>
      </trkpt>
      <trkpt lat="43.0865404196083545684814453125" lon="-6.07057518325746059417724609375">
        <ele>1297.4000244140625</ele>
        <time>2021-08-17T17:16:56.000Z</time>
      </trkpt>
      <trkpt lat="43.08651083149015903472900390625" lon="-6.07059479691088199615478515625">
        <ele>1298.199951171875</ele>
        <time>2021-08-17T17:17:01.000Z</time>
      </trkpt>
      <trkpt lat="43.08649172075092792510986328125" lon="-6.07060669921338558197021484375">
        <ele>1298.5999755859375</ele>
        <time>2021-08-17T17:17:04.000Z</time>
      </trkpt>
      <trkpt lat="43.08646556921303272247314453125" lon="-6.070621199905872344970703125">
        <ele>1299</ele>
        <time>2021-08-17T17:17:09.000Z</time>
      </trkpt>
      <trkpt lat="43.08646540157496929168701171875" lon="-6.07064835727214813232421875">
        <ele>1299.5999755859375</ele>
        <time>2021-08-17T17:17:11.000Z</time>
      </trkpt>
      <trkpt lat="43.08641712181270122528076171875" lon="-6.07066889293491840362548828125">
        <ele>1299.800048828125</ele>
        <time>2021-08-17T17:17:17.000Z</time>
      </trkpt>
      <trkpt lat="43.08638594113290309906005859375" lon="-6.07067048549652099609375">
        <ele>1300</ele>
        <time>2021-08-17T17:17:22.000Z</time>
      </trkpt>
      <trkpt lat="43.0863801576197147369384765625" lon="-6.070680208504199981689453125">
        <ele>1300.5999755859375</ele>
        <time>2021-08-17T17:17:25.000Z</time>
      </trkpt>
      <trkpt lat="43.08635392226278781890869140625" lon="-6.07068548910319805145263671875">
        <ele>1301.4000244140625</ele>
        <time>2021-08-17T17:17:31.000Z</time>
      </trkpt>
      <trkpt lat="43.0863479711115360260009765625" lon="-6.0706825554370880126953125">
        <ele>1301.5999755859375</ele>
        <time>2021-08-17T17:17:32.000Z</time>
      </trkpt>
      <trkpt lat="43.08632902801036834716796875" lon="-6.070695631206035614013671875">
        <ele>1302.5999755859375</ele>
        <time>2021-08-17T17:17:39.000Z</time>
      </trkpt>
      <trkpt lat="43.08632609434425830841064453125" lon="-6.07071449048817157745361328125">
        <ele>1303.5999755859375</ele>
        <time>2021-08-17T17:17:43.000Z</time>
      </trkpt>
      <trkpt lat="43.08632173575460910797119140625" lon="-6.07072019018232822418212890625">
        <ele>1303.800048828125</ele>
        <time>2021-08-17T17:17:44.000Z</time>
      </trkpt>
      <trkpt lat="43.08630363084375858306884765625" lon="-6.07073091901838779449462890625">
        <ele>1305</ele>
        <time>2021-08-17T17:17:48.000Z</time>
      </trkpt>
      <trkpt lat="43.08627312071621417999267578125" lon="-6.0707308351993560791015625">
        <ele>1306</ele>
        <time>2021-08-17T17:17:54.000Z</time>
      </trkpt>
      <trkpt lat="43.08625937439501285552978515625" lon="-6.07072614133358001708984375">
        <ele>1306.199951171875</ele>
        <time>2021-08-17T17:17:56.000Z</time>
      </trkpt>
      <trkpt lat="43.08621997945010662078857421875" lon="-6.070711053907871246337890625">
        <ele>1307.199951171875</ele>
        <time>2021-08-17T17:18:01.000Z</time>
      </trkpt>
      <trkpt lat="43.0861518345773220062255859375" lon="-6.07071298174560070037841796875">
        <ele>1308.199951171875</ele>
        <time>2021-08-17T17:18:10.000Z</time>
      </trkpt>
      <trkpt lat="43.0861468054354190826416015625" lon="-6.07072035782039165496826171875">
        <ele>1308.199951171875</ele>
        <time>2021-08-17T17:18:11.000Z</time>
      </trkpt>
      <trkpt lat="43.08614261448383331298828125" lon="-6.070768050849437713623046875">
        <ele>1309.199951171875</ele>
        <time>2021-08-17T17:18:17.000Z</time>
      </trkpt>
      <trkpt lat="43.08614320121705532073974609375" lon="-6.07077517546713352203369140625">
        <ele>1309.4000244140625</ele>
        <time>2021-08-17T17:18:18.000Z</time>
      </trkpt>
      <trkpt lat="43.08614755980670452117919921875" lon="-6.0707940347492694854736328125">
        <ele>1310</ele>
        <time>2021-08-17T17:18:21.000Z</time>
      </trkpt>
      <trkpt lat="43.086155690252780914306640625" lon="-6.07080903835594654083251953125">
        <ele>1310.5999755859375</ele>
        <time>2021-08-17T17:18:23.000Z</time>
      </trkpt>
      <trkpt lat="43.086192570626735687255859375" lon="-6.07086301781237125396728515625">
        <ele>1311.5999755859375</ele>
        <time>2021-08-17T17:18:30.000Z</time>
      </trkpt>
      <trkpt lat="43.08620832860469818115234375" lon="-6.07088305056095123291015625">
        <ele>1312.4000244140625</ele>
        <time>2021-08-17T17:18:33.000Z</time>
      </trkpt>
      <trkpt lat="43.086213357746601104736328125" lon="-6.0708859004080295562744140625">
        <ele>1312.800048828125</ele>
        <time>2021-08-17T17:18:34.000Z</time>
      </trkpt>
      <trkpt lat="43.08623104356229305267333984375" lon="-6.07089436613023281097412109375">
        <ele>1313.800048828125</ele>
        <time>2021-08-17T17:18:38.000Z</time>
      </trkpt>
      <trkpt lat="43.08625065721571445465087890625" lon="-6.0709009878337383270263671875">
        <ele>1314.800048828125</ele>
        <time>2021-08-17T17:18:41.000Z</time>
      </trkpt>
      <trkpt lat="43.08628343045711517333984375" lon="-6.0709341801702976226806640625">
        <ele>1316</ele>
        <time>2021-08-17T17:18:47.000Z</time>
      </trkpt>
      <trkpt lat="43.08628879487514495849609375" lon="-6.07094080187380313873291015625">
        <ele>1316.199951171875</ele>
        <time>2021-08-17T17:18:48.000Z</time>
      </trkpt>
      <trkpt lat="43.0863077379763126373291015625" lon="-6.0709588229656219482421875">
        <ele>1317</ele>
        <time>2021-08-17T17:18:52.000Z</time>
      </trkpt>
      <trkpt lat="43.0862996913492679595947265625" lon="-6.070983968675136566162109375">
        <ele>1318</ele>
        <time>2021-08-17T17:18:57.000Z</time>
      </trkpt>
      <trkpt lat="43.086294494569301605224609375" lon="-6.0709838010370731353759765625">
        <ele>1318.199951171875</ele>
        <time>2021-08-17T17:18:58.000Z</time>
      </trkpt>
      <trkpt lat="43.08628653176128864288330078125" lon="-6.07098774053156375885009765625">
        <ele>1318.5999755859375</ele>
        <time>2021-08-17T17:19:00.000Z</time>
      </trkpt>
      <trkpt lat="43.086278736591339111328125" lon="-6.07098472304642200469970703125">
        <ele>1319.199951171875</ele>
        <time>2021-08-17T17:19:03.000Z</time>
      </trkpt>
      <trkpt lat="43.0862510763108730316162109375" lon="-6.071006767451763153076171875">
        <ele>1320.4000244140625</ele>
        <time>2021-08-17T17:19:09.000Z</time>
      </trkpt>
      <trkpt lat="43.08624680154025554656982421875" lon="-6.07101892121136188507080078125">
        <ele>1320.800048828125</ele>
        <time>2021-08-17T17:19:10.000Z</time>
      </trkpt>
      <trkpt lat="43.0862433649599552154541015625" lon="-6.07101657427847385406494140625">
        <ele>1321.5999755859375</ele>
        <time>2021-08-17T17:19:13.000Z</time>
      </trkpt>
      <trkpt lat="43.08622618205845355987548828125" lon="-6.0709883272647857666015625">
        <ele>1322.4000244140625</ele>
        <time>2021-08-17T17:19:18.000Z</time>
      </trkpt>
      <trkpt lat="43.0862225778400897979736328125" lon="-6.07098187319934368133544921875">
        <ele>1322.5999755859375</ele>
        <time>2021-08-17T17:19:19.000Z</time>
      </trkpt>
      <trkpt lat="43.08616952039301395416259765625" lon="-6.07097550295293331146240234375">
        <ele>1323.800048828125</ele>
        <time>2021-08-17T17:19:28.000Z</time>
      </trkpt>
      <trkpt lat="43.0861655808985233306884765625" lon="-6.07097986154258251190185546875">
        <ele>1324</ele>
        <time>2021-08-17T17:19:29.000Z</time>
      </trkpt>
      <trkpt lat="43.0861608870327472686767578125" lon="-6.071005426347255706787109375">
        <ele>1324.5999755859375</ele>
        <time>2021-08-17T17:19:32.000Z</time>
      </trkpt>
      <trkpt lat="43.0861578695476055145263671875" lon="-6.07101020403206348419189453125">
        <ele>1324.800048828125</ele>
        <time>2021-08-17T17:19:33.000Z</time>
      </trkpt>
      <trkpt lat="43.08614705689251422882080078125" lon="-6.07104591093957424163818359375">
        <ele>1325.800048828125</ele>
        <time>2021-08-17T17:19:39.000Z</time>
      </trkpt>
      <trkpt lat="43.0861407704651355743408203125" lon="-6.07104876078665256500244140625">
        <ele>1326</ele>
        <time>2021-08-17T17:19:40.000Z</time>
      </trkpt>
      <trkpt lat="43.086126856505870819091796875" lon="-6.07106007635593414306640625">
        <ele>1326.4000244140625</ele>
        <time>2021-08-17T17:19:43.000Z</time>
      </trkpt>
      <trkpt lat="43.086096346378326416015625" lon="-6.0710780136287212371826171875">
        <ele>1327</ele>
        <time>2021-08-17T17:19:47.000Z</time>
      </trkpt>
      <trkpt lat="43.08608503080904483795166015625" lon="-6.0711031593382358551025390625">
        <ele>1328</ele>
        <time>2021-08-17T17:19:50.000Z</time>
      </trkpt>
      <trkpt lat="43.0860851146280765533447265625" lon="-6.07110676355659961700439453125">
        <ele>1328.199951171875</ele>
        <time>2021-08-17T17:19:51.000Z</time>
      </trkpt>
      <trkpt lat="43.086099363863468170166015625" lon="-6.0711371898651123046875">
        <ele>1329.199951171875</ele>
        <time>2021-08-17T17:19:55.000Z</time>
      </trkpt>
      <trkpt lat="43.086124844849109649658203125" lon="-6.0711675323545932769775390625">
        <ele>1330.199951171875</ele>
        <time>2021-08-17T17:19:59.000Z</time>
      </trkpt>
      <trkpt lat="43.08614487759768962860107421875" lon="-6.07118454761803150177001953125">
        <ele>1331.199951171875</ele>
        <time>2021-08-17T17:20:03.000Z</time>
      </trkpt>
      <trkpt lat="43.08614973910152912139892578125" lon="-6.0711899958550930023193359375">
        <ele>1331.4000244140625</ele>
        <time>2021-08-17T17:20:04.000Z</time>
      </trkpt>
      <trkpt lat="43.08620564639568328857421875" lon="-6.07122628949582576751708984375">
        <ele>1332.4000244140625</ele>
        <time>2021-08-17T17:20:11.000Z</time>
      </trkpt>
      <trkpt lat="43.08623783290386199951171875" lon="-6.07125185430049896240234375">
        <ele>1333.5999755859375</ele>
        <time>2021-08-17T17:20:15.000Z</time>
      </trkpt>
      <trkpt lat="43.0862681753933429718017578125" lon="-6.0712523572146892547607421875">
        <ele>1334.5999755859375</ele>
        <time>2021-08-17T17:20:20.000Z</time>
      </trkpt>
      <trkpt lat="43.0862705223262310028076171875" lon="-6.07127456925809383392333984375">
        <ele>1335.800048828125</ele>
        <time>2021-08-17T17:20:25.000Z</time>
      </trkpt>
      <trkpt lat="43.0862661637365818023681640625" lon="-6.07127976603806018829345703125">
        <ele>1336</ele>
        <time>2021-08-17T17:20:26.000Z</time>
      </trkpt>
      <trkpt lat="43.08622215874493122100830078125" lon="-6.0713049955666065216064453125">
        <ele>1337</ele>
        <time>2021-08-17T17:20:33.000Z</time>
      </trkpt>
      <trkpt lat="43.08620455674827098846435546875" lon="-6.0713043250143527984619140625">
        <ele>1337.4000244140625</ele>
        <time>2021-08-17T17:20:36.000Z</time>
      </trkpt>
      <trkpt lat="43.0861736275255680084228515625" lon="-6.071289740502834320068359375">
        <ele>1338</ele>
        <time>2021-08-17T17:20:41.000Z</time>
      </trkpt>
      <trkpt lat="43.08612325228750705718994140625" lon="-6.07130357064306735992431640625">
        <ele>1339.199951171875</ele>
        <time>2021-08-17T17:20:48.000Z</time>
      </trkpt>
      <trkpt lat="43.0860955081880092620849609375" lon="-6.07130927033722400665283203125">
        <ele>1339.800048828125</ele>
        <time>2021-08-17T17:20:52.000Z</time>
      </trkpt>
      <trkpt lat="43.08608301915228366851806640625" lon="-6.07131077907979488372802734375">
        <ele>1340.199951171875</ele>
        <time>2021-08-17T17:20:54.000Z</time>
      </trkpt>
      <trkpt lat="43.08604546822607517242431640625" lon="-6.0712865553796291351318359375">
        <ele>1341.199951171875</ele>
        <time>2021-08-17T17:21:01.000Z</time>
      </trkpt>
      <trkpt lat="43.08600473217666149139404296875" lon="-6.0712379403412342071533203125">
        <ele>1341.199951171875</ele>
        <time>2021-08-17T17:21:10.000Z</time>
      </trkpt>
      <trkpt lat="43.08599852956831455230712890625" lon="-6.07123039662837982177734375">
        <ele>1341.199951171875</ele>
        <time>2021-08-17T17:21:12.000Z</time>
      </trkpt>
      <trkpt lat="43.0859040655195713043212890625" lon="-6.0712268762290477752685546875">
        <ele>1340.199951171875</ele>
        <time>2021-08-17T17:21:24.000Z</time>
      </trkpt>
      <trkpt lat="43.08583407662808895111083984375" lon="-6.07124405913054943084716796875">
        <ele>1340.199951171875</ele>
        <time>2021-08-17T17:21:33.000Z</time>
      </trkpt>
      <trkpt lat="43.0858145467936992645263671875" lon="-6.07123970054090023040771484375">
        <ele>1340.199951171875</ele>
        <time>2021-08-17T17:21:36.000Z</time>
      </trkpt>
      <trkpt lat="43.08579795062541961669921875" lon="-6.0712439753115177154541015625">
        <ele>1340.199951171875</ele>
        <time>2021-08-17T17:21:38.000Z</time>
      </trkpt>
      <trkpt lat="43.08578881435096263885498046875" lon="-6.0712453164160251617431640625">
        <ele>1340.199951171875</ele>
        <time>2021-08-17T17:21:39.000Z</time>
      </trkpt>
      <trkpt lat="43.08576442301273345947265625" lon="-6.0712402872741222381591796875">
        <ele>1340.4000244140625</ele>
        <time>2021-08-17T17:21:42.000Z</time>
      </trkpt>
      <trkpt lat="43.085732571780681610107421875" lon="-6.071250848472118377685546875">
        <ele>1341.199951171875</ele>
        <time>2021-08-17T17:21:46.000Z</time>
      </trkpt>
      <trkpt lat="43.0857060849666595458984375" lon="-6.071270294487476348876953125">
        <ele>1342.199951171875</ele>
        <time>2021-08-17T17:21:51.000Z</time>
      </trkpt>
      <trkpt lat="43.08569912798702716827392578125" lon="-6.0712691210210323333740234375">
        <ele>1342.4000244140625</ele>
        <time>2021-08-17T17:21:52.000Z</time>
      </trkpt>
      <trkpt lat="43.0856894887983798980712890625" lon="-6.07126367278397083282470703125">
        <ele>1342.5999755859375</ele>
        <time>2021-08-17T17:21:53.000Z</time>
      </trkpt>
      <trkpt lat="43.08568806387484073638916015625" lon="-6.07127138413488864898681640625">
        <ele>1342.5999755859375</ele>
        <time>2021-08-17T17:21:54.000Z</time>
      </trkpt>
      <trkpt lat="43.08566727675497531890869140625" lon="-6.07129150070250034332275390625">
        <ele>1343.4000244140625</ele>
        <time>2021-08-17T17:22:00.000Z</time>
      </trkpt>
      <trkpt lat="43.08566040359437465667724609375" lon="-6.07129820622503757476806640625">
        <ele>1343.5999755859375</ele>
        <time>2021-08-17T17:22:02.000Z</time>
      </trkpt>
      <trkpt lat="43.08565990068018436431884765625" lon="-6.07131128199398517608642578125">
        <ele>1344.199951171875</ele>
        <time>2021-08-17T17:22:05.000Z</time>
      </trkpt>
      <trkpt lat="43.08565872721374034881591796875" lon="-6.07131631113588809967041015625">
        <ele>1344.4000244140625</ele>
        <time>2021-08-17T17:22:06.000Z</time>
      </trkpt>
      <trkpt lat="43.08563701808452606201171875" lon="-6.071329303085803985595703125">
        <ele>1345.199951171875</ele>
        <time>2021-08-17T17:22:11.000Z</time>
      </trkpt>
      <trkpt lat="43.08562654070556163787841796875" lon="-6.071342043578624725341796875">
        <ele>1345.5999755859375</ele>
        <time>2021-08-17T17:22:13.000Z</time>
      </trkpt>
      <trkpt lat="43.0856080166995525360107421875" lon="-6.0713609866797924041748046875">
        <ele>1346.199951171875</ele>
        <time>2021-08-17T17:22:17.000Z</time>
      </trkpt>
      <trkpt lat="43.0855915881693363189697265625" lon="-6.07136777602136135101318359375">
        <ele>1346.5999755859375</ele>
        <time>2021-08-17T17:22:21.000Z</time>
      </trkpt>
      <trkpt lat="43.08557130396366119384765625" lon="-6.07137129642069339752197265625">
        <ele>1347.199951171875</ele>
        <time>2021-08-17T17:22:24.000Z</time>
      </trkpt>
      <trkpt lat="43.08556233532726764678955078125" lon="-6.071378923952579498291015625">
        <ele>1348</ele>
        <time>2021-08-17T17:22:26.000Z</time>
      </trkpt>
      <trkpt lat="43.0854970403015613555908203125" lon="-6.0713767446577548980712890625">
        <ele>1348.800048828125</ele>
        <time>2021-08-17T17:22:32.000Z</time>
      </trkpt>
      <trkpt lat="43.08548790402710437774658203125" lon="-6.07137498445808887481689453125">
        <ele>1349</ele>
        <time>2021-08-17T17:22:33.000Z</time>
      </trkpt>
      <trkpt lat="43.08547700755298137664794921875" lon="-6.0713770799338817596435546875">
        <ele>1349.4000244140625</ele>
        <time>2021-08-17T17:22:34.000Z</time>
      </trkpt>
      <trkpt lat="43.08546208776533603668212890625" lon="-6.071375906467437744140625">
        <ele>1349.800048828125</ele>
        <time>2021-08-17T17:22:36.000Z</time>
      </trkpt>
      <trkpt lat="43.0854534544050693511962890625" lon="-6.07136006467044353485107421875">
        <ele>1350</ele>
        <time>2021-08-17T17:22:37.000Z</time>
      </trkpt>
      <trkpt lat="43.0854470841586589813232421875" lon="-6.07135654427111148834228515625">
        <ele>1350.199951171875</ele>
        <time>2021-08-17T17:22:38.000Z</time>
      </trkpt>
      <trkpt lat="43.085441887378692626953125" lon="-6.07134598307311534881591796875">
        <ele>1350.4000244140625</ele>
        <time>2021-08-17T17:22:40.000Z</time>
      </trkpt>
      <trkpt lat="43.08541162870824337005615234375" lon="-6.07133156619966030120849609375">
        <ele>1351.4000244140625</ele>
        <time>2021-08-17T17:22:45.000Z</time>
      </trkpt>
      <trkpt lat="43.08540408499538898468017578125" lon="-6.0713298059999942779541015625">
        <ele>1351.4000244140625</ele>
        <time>2021-08-17T17:22:46.000Z</time>
      </trkpt>
      <trkpt lat="43.08539235033094882965087890625" lon="-6.07132972218096256256103515625">
        <ele>1351.800048828125</ele>
        <time>2021-08-17T17:22:48.000Z</time>
      </trkpt>
      <trkpt lat="43.08537550270557403564453125" lon="-6.0713264532387256622314453125">
        <ele>1352</ele>
        <time>2021-08-17T17:22:50.000Z</time>
      </trkpt>
      <trkpt lat="43.085352368652820587158203125" lon="-6.07131497003138065338134765625">
        <ele>1352.4000244140625</ele>
        <time>2021-08-17T17:22:53.000Z</time>
      </trkpt>
      <trkpt lat="43.08530467562377452850341796875" lon="-6.07131756842136383056640625">
        <ele>1353.5999755859375</ele>
        <time>2021-08-17T17:23:00.000Z</time>
      </trkpt>
      <trkpt lat="43.08528564870357513427734375" lon="-6.0713163949549198150634765625">
        <ele>1354.199951171875</ele>
        <time>2021-08-17T17:23:03.000Z</time>
      </trkpt>
      <trkpt lat="43.085270561277866363525390625" lon="-6.07131354510784149169921875">
        <ele>1354.5999755859375</ele>
        <time>2021-08-17T17:23:05.000Z</time>
      </trkpt>
      <trkpt lat="43.08523108251392841339111328125" lon="-6.07130541466176509857177734375">
        <ele>1355.4000244140625</ele>
        <time>2021-08-17T17:23:10.000Z</time>
      </trkpt>
      <trkpt lat="43.08522655628621578216552734375" lon="-6.0713086836040019989013671875">
        <ele>1355.800048828125</ele>
        <time>2021-08-17T17:23:11.000Z</time>
      </trkpt>
      <trkpt lat="43.08519780635833740234375" lon="-6.0713365115225315093994140625">
        <ele>1356.800048828125</ele>
        <time>2021-08-17T17:23:17.000Z</time>
      </trkpt>
      <trkpt lat="43.08519319631159305572509765625" lon="-6.07134413905441761016845703125">
        <ele>1357</ele>
        <time>2021-08-17T17:23:18.000Z</time>
      </trkpt>
      <trkpt lat="43.08515614829957485198974609375" lon="-6.0713764093816280364990234375">
        <ele>1358</ele>
        <time>2021-08-17T17:23:25.000Z</time>
      </trkpt>
      <trkpt lat="43.08512547053396701812744140625" lon="-6.07139526866376399993896484375">
        <ele>1358.800048828125</ele>
        <time>2021-08-17T17:23:31.000Z</time>
      </trkpt>
      <trkpt lat="43.0851213634014129638671875" lon="-6.07139392755925655364990234375">
        <ele>1359</ele>
        <time>2021-08-17T17:23:32.000Z</time>
      </trkpt>
      <trkpt lat="43.08509395457804203033447265625" lon="-6.071392334997653961181640625">
        <ele>1360.199951171875</ele>
        <time>2021-08-17T17:23:37.000Z</time>
      </trkpt>
      <trkpt lat="43.0850890092551708221435546875" lon="-6.0714186541736125946044921875">
        <ele>1360.800048828125</ele>
        <time>2021-08-17T17:23:40.000Z</time>
      </trkpt>
      <trkpt lat="43.08508071117103099822998046875" lon="-6.07143290340900421142578125">
        <ele>1361.199951171875</ele>
        <time>2021-08-17T17:23:42.000Z</time>
      </trkpt>
      <trkpt lat="43.08507769368588924407958984375" lon="-6.07143902219831943511962890625">
        <ele>1361.4000244140625</ele>
        <time>2021-08-17T17:23:43.000Z</time>
      </trkpt>
      <trkpt lat="43.08504500426352024078369140625" lon="-6.07141924090683460235595703125">
        <ele>1362.199951171875</ele>
        <time>2021-08-17T17:23:48.000Z</time>
      </trkpt>
      <trkpt lat="43.085040561854839324951171875" lon="-6.07141622342169284820556640625">
        <ele>1362.4000244140625</ele>
        <time>2021-08-17T17:23:49.000Z</time>
      </trkpt>
      <trkpt lat="43.0850273184478282928466796875" lon="-6.07141002081334590911865234375">
        <ele>1363.4000244140625</ele>
        <time>2021-08-17T17:23:52.000Z</time>
      </trkpt>
      <trkpt lat="43.0850239656865596771240234375" lon="-6.0714199952781200408935546875">
        <ele>1363.5999755859375</ele>
        <time>2021-08-17T17:23:53.000Z</time>
      </trkpt>
      <trkpt lat="43.08500259183347225189208984375" lon="-6.07146400026977062225341796875">
        <ele>1364.5999755859375</ele>
        <time>2021-08-17T17:24:00.000Z</time>
      </trkpt>
      <trkpt lat="43.08499873615801334381103515625" lon="-6.07146106660366058349609375">
        <ele>1364.5999755859375</ele>
        <time>2021-08-17T17:24:01.000Z</time>
      </trkpt>
      <trkpt lat="43.08497476391494274139404296875" lon="-6.0714657604694366455078125">
        <ele>1365.800048828125</ele>
        <time>2021-08-17T17:24:06.000Z</time>
      </trkpt>
      <trkpt lat="43.0849743448197841644287109375" lon="-6.07147908769547939300537109375">
        <ele>1366</ele>
        <time>2021-08-17T17:24:08.000Z</time>
      </trkpt>
      <trkpt lat="43.08497392572462558746337890625" lon="-6.07150800526142120361328125">
        <ele>1366.800048828125</ele>
        <time>2021-08-17T17:24:12.000Z</time>
      </trkpt>
      <trkpt lat="43.084959425032138824462890625" lon="-6.07153725810348987579345703125">
        <ele>1367.800048828125</ele>
        <time>2021-08-17T17:24:16.000Z</time>
      </trkpt>
      <trkpt lat="43.0849381349980831146240234375" lon="-6.0715448856353759765625">
        <ele>1368.5999755859375</ele>
        <time>2021-08-17T17:24:19.000Z</time>
      </trkpt>
      <trkpt lat="43.08493067510426044464111328125" lon="-6.07154748402535915374755859375">
        <ele>1369</ele>
        <time>2021-08-17T17:24:20.000Z</time>
      </trkpt>
      <trkpt lat="43.08490276336669921875" lon="-6.0715604759752750396728515625">
        <ele>1370.4000244140625</ele>
        <time>2021-08-17T17:24:25.000Z</time>
      </trkpt>
      <trkpt lat="43.08487921021878719329833984375" lon="-6.071568019688129425048828125">
        <ele>1371.4000244140625</ele>
        <time>2021-08-17T17:24:29.000Z</time>
      </trkpt>
      <trkpt lat="43.08486613444983959197998046875" lon="-6.0715879686176776885986328125">
        <ele>1371.5999755859375</ele>
        <time>2021-08-17T17:24:32.000Z</time>
      </trkpt>
      <trkpt lat="43.08488574810326099395751953125" lon="-6.0716052353382110595703125">
        <ele>1372.5999755859375</ele>
        <time>2021-08-17T17:24:37.000Z</time>
      </trkpt>
      <trkpt lat="43.08491189964115619659423828125" lon="-6.0716124437749385833740234375">
        <ele>1373.199951171875</ele>
        <time>2021-08-17T17:24:40.000Z</time>
      </trkpt>
      <trkpt lat="43.084923215210437774658203125" lon="-6.0716105997562408447265625">
        <ele>1373.5999755859375</ele>
        <time>2021-08-17T17:24:42.000Z</time>
      </trkpt>
      <trkpt lat="43.08493218384683132171630859375" lon="-6.0716265253722667694091796875">
        <ele>1374</ele>
        <time>2021-08-17T17:24:46.000Z</time>
      </trkpt>
      <trkpt lat="43.08492765761911869049072265625" lon="-6.071641445159912109375">
        <ele>1374.800048828125</ele>
        <time>2021-08-17T17:24:49.000Z</time>
      </trkpt>
      <trkpt lat="43.0849280767142772674560546875" lon="-6.07163314707577228546142578125">
        <ele>1375.4000244140625</ele>
        <time>2021-08-17T17:24:56.000Z</time>
      </trkpt>
      <trkpt lat="43.08492950163781642913818359375" lon="-6.07163230888545513153076171875">
        <ele>1375.4000244140625</ele>
        <time>2021-08-17T17:24:57.000Z</time>
      </trkpt>
      <trkpt lat="43.0849336087703704833984375" lon="-6.07163046486675739288330078125">
        <ele>1375</ele>
        <time>2021-08-17T17:25:00.000Z</time>
      </trkpt>
      <trkpt lat="43.08493696153163909912109375" lon="-6.07163264416158199310302734375">
        <ele>1374.800048828125</ele>
        <time>2021-08-17T17:25:03.000Z</time>
      </trkpt>
      <trkpt lat="43.08493922464549541473388671875" lon="-6.07163264416158199310302734375">
        <ele>1374.800048828125</ele>
        <time>2021-08-17T17:25:04.000Z</time>
      </trkpt>
      <trkpt lat="43.0849421583116054534912109375" lon="-6.07163029722869396209716796875">
        <ele>1374.800048828125</ele>
        <time>2021-08-17T17:25:06.000Z</time>
      </trkpt>
      <trkpt lat="43.08494140394032001495361328125" lon="-6.07163029722869396209716796875">
        <ele>1375</ele>
        <time>2021-08-17T17:25:10.000Z</time>
      </trkpt>
      <trkpt lat="43.08494073338806629180908203125" lon="-6.07162945903837680816650390625">
        <ele>1375</ele>
        <time>2021-08-17T17:25:15.000Z</time>
      </trkpt>
      <trkpt lat="43.0849364586174488067626953125" lon="-6.0716265253722667694091796875">
        <ele>1375</ele>
        <time>2021-08-17T17:25:18.000Z</time>
      </trkpt>
      <trkpt lat="43.08493562042713165283203125" lon="-6.0716248489916324615478515625">
        <ele>1374.800048828125</ele>
        <time>2021-08-17T17:25:23.000Z</time>
      </trkpt>
      <trkpt lat="43.08492816053330898284912109375" lon="-6.07162535190582275390625">
        <ele>1374.800048828125</ele>
        <time>2021-08-17T17:25:30.000Z</time>
      </trkpt>
      <trkpt lat="43.08492581360042095184326171875" lon="-6.07162007130682468414306640625">
        <ele>1374.4000244140625</ele>
        <time>2021-08-17T17:25:36.000Z</time>
      </trkpt>
      <trkpt lat="43.0849240534007549285888671875" lon="-6.07161621563136577606201171875">
        <ele>1374.800048828125</ele>
        <time>2021-08-17T17:25:40.000Z</time>
      </trkpt>
      <trkpt lat="43.084923885762691497802734375" lon="-6.0716235078871250152587890625">
        <ele>1374.5999755859375</ele>
        <time>2021-08-17T17:25:45.000Z</time>
      </trkpt>
      <trkpt lat="43.08492296375334262847900390625" lon="-6.0716245137155055999755859375">
        <ele>1374.5999755859375</ele>
        <time>2021-08-17T17:25:46.000Z</time>
      </trkpt>
      <trkpt lat="43.08492396958172321319580078125" lon="-6.07162744738161563873291015625">
        <ele>1374.5999755859375</ele>
        <time>2021-08-17T17:25:51.000Z</time>
      </trkpt>
      <trkpt lat="43.08492581360042095184326171875" lon="-6.07163566164672374725341796875">
        <ele>1374.800048828125</ele>
        <time>2021-08-17T17:25:58.000Z</time>
      </trkpt>
      <trkpt lat="43.08492212556302547454833984375" lon="-6.0716302134096622467041015625">
        <ele>1374.800048828125</ele>
        <time>2021-08-17T17:26:02.000Z</time>
      </trkpt>
      <trkpt lat="43.0849227122962474822998046875" lon="-6.07162962667644023895263671875">
        <ele>1374.800048828125</ele>
        <time>2021-08-17T17:26:04.000Z</time>
      </trkpt>
      <trkpt lat="43.08492296375334262847900390625" lon="-6.071629039943218231201171875">
        <ele>1375</ele>
        <time>2021-08-17T17:26:08.000Z</time>
      </trkpt>
      <trkpt lat="43.08493184857070446014404296875" lon="-6.07163448818027973175048828125">
        <ele>1375.199951171875</ele>
        <time>2021-08-17T17:26:18.000Z</time>
      </trkpt>
      <trkpt lat="43.08493318967521190643310546875" lon="-6.07163448818027973175048828125">
        <ele>1375.199951171875</ele>
        <time>2021-08-17T17:26:24.000Z</time>
      </trkpt>
      <trkpt lat="43.08493754826486110687255859375" lon="-6.07163415290415287017822265625">
        <ele>1375</ele>
        <time>2021-08-17T17:26:26.000Z</time>
      </trkpt>
      <trkpt lat="43.084942996501922607421875" lon="-6.07163130305707454681396484375">
        <ele>1375</ele>
        <time>2021-08-17T17:26:29.000Z</time>
      </trkpt>
      <trkpt lat="43.08494760654866695404052734375" lon="-6.07162644155323505401611328125">
        <ele>1374.800048828125</ele>
        <time>2021-08-17T17:26:40.000Z</time>
      </trkpt>
      <trkpt lat="43.0849438346922397613525390625" lon="-6.07162593863904476165771484375">
        <ele>1375</ele>
        <time>2021-08-17T17:26:43.000Z</time>
      </trkpt>
      <trkpt lat="43.08494039811193943023681640625" lon="-6.07162845320999622344970703125">
        <ele>1375.199951171875</ele>
        <time>2021-08-17T17:26:56.000Z</time>
      </trkpt>
      <trkpt lat="43.08493402786552906036376953125" lon="-6.07162225060164928436279296875">
        <ele>1375.5999755859375</ele>
        <time>2021-08-17T17:27:05.000Z</time>
      </trkpt>
      <trkpt lat="43.0849309265613555908203125" lon="-6.07162141241133213043212890625">
        <ele>1374.800048828125</ele>
        <time>2021-08-17T17:27:11.000Z</time>
      </trkpt>
      <trkpt lat="43.08489044196903705596923828125" lon="-6.07167430222034454345703125">
        <ele>1374.800048828125</ele>
        <time>2021-08-17T17:27:21.000Z</time>
      </trkpt>
      <trkpt lat="43.08488222770392894744873046875" lon="-6.071696095168590545654296875">
        <ele>1374.800048828125</ele>
        <time>2021-08-17T17:27:23.000Z</time>
      </trkpt>
      <trkpt lat="43.08487116359174251556396484375" lon="-6.0717100091278553009033203125">
        <ele>1374.800048828125</ele>
        <time>2021-08-17T17:27:25.000Z</time>
      </trkpt>
      <trkpt lat="43.0848459340631961822509765625" lon="-6.071731634438037872314453125">
        <ele>1375</ele>
        <time>2021-08-17T17:27:29.000Z</time>
      </trkpt>
      <trkpt lat="43.0848395638167858123779296875" lon="-6.0717487335205078125">
        <ele>1376.199951171875</ele>
        <time>2021-08-17T17:27:31.000Z</time>
      </trkpt>
      <trkpt lat="43.08483771979808807373046875" lon="-6.07175569050014019012451171875">
        <ele>1376.800048828125</ele>
        <time>2021-08-17T17:27:32.000Z</time>
      </trkpt>
      <trkpt lat="43.0848328582942485809326171875" lon="-6.0717706941068172454833984375">
        <ele>1377.4000244140625</ele>
        <time>2021-08-17T17:27:34.000Z</time>
      </trkpt>
      <trkpt lat="43.08482875116169452667236328125" lon="-6.07177949510514736175537109375">
        <ele>1377.5999755859375</ele>
        <time>2021-08-17T17:27:35.000Z</time>
      </trkpt>
      <trkpt lat="43.084828667342662811279296875" lon="-6.0717864520847797393798828125">
        <ele>1377.5999755859375</ele>
        <time>2021-08-17T17:27:36.000Z</time>
      </trkpt>
      <trkpt lat="43.08482791297137737274169921875" lon="-6.071794331073760986328125">
        <ele>1377.800048828125</ele>
        <time>2021-08-17T17:27:37.000Z</time>
      </trkpt>
      <trkpt lat="43.08481735177338123321533203125" lon="-6.0718075744807720184326171875">
        <ele>1378.4000244140625</ele>
        <time>2021-08-17T17:27:39.000Z</time>
      </trkpt>
      <trkpt lat="43.08478365652263164520263671875" lon="-6.0718359053134918212890625">
        <ele>1379.4000244140625</ele>
        <time>2021-08-17T17:27:45.000Z</time>
      </trkpt>
      <trkpt lat="43.08475616388022899627685546875" lon="-6.07184302993118762969970703125">
        <ele>1380.199951171875</ele>
        <time>2021-08-17T17:27:49.000Z</time>
      </trkpt>
      <trkpt lat="43.08474920690059661865234375" lon="-6.07183531858026981353759765625">
        <ele>1380.4000244140625</ele>
        <time>2021-08-17T17:27:50.000Z</time>
      </trkpt>
      <trkpt lat="43.08474116027355194091796875" lon="-6.0718320496380329132080078125">
        <ele>1380.5999755859375</ele>
        <time>2021-08-17T17:27:51.000Z</time>
      </trkpt>
      <trkpt lat="43.0847366340458393096923828125" lon="-6.07183121144771575927734375">
        <ele>1380.800048828125</ele>
        <time>2021-08-17T17:27:52.000Z</time>
      </trkpt>
      <trkpt lat="43.0846886895596981048583984375" lon="-6.0718229971826076507568359375">
        <ele>1381.4000244140625</ele>
        <time>2021-08-17T17:27:57.000Z</time>
      </trkpt>
      <trkpt lat="43.08466874063014984130859375" lon="-6.07182140462100505828857421875">
        <ele>1381.5999755859375</ele>
        <time>2021-08-17T17:27:59.000Z</time>
      </trkpt>
      <trkpt lat="43.084622807800769805908203125" lon="-6.07181511819362640380859375">
        <ele>1381.5999755859375</ele>
        <time>2021-08-17T17:28:04.000Z</time>
      </trkpt>
      <trkpt lat="43.08458249084651470184326171875" lon="-6.07183297164738178253173828125">
        <ele>1382</ele>
        <time>2021-08-17T17:28:11.000Z</time>
      </trkpt>
      <trkpt lat="43.084568493068218231201171875" lon="-6.071844287216663360595703125">
        <ele>1382.800048828125</ele>
        <time>2021-08-17T17:28:14.000Z</time>
      </trkpt>
      <trkpt lat="43.08452599681913852691650390625" lon="-6.07184864580631256103515625">
        <ele>1383.800048828125</ele>
        <time>2021-08-17T17:28:21.000Z</time>
      </trkpt>
      <trkpt lat="43.0845160223543643951416015625" lon="-6.0718639008700847625732421875">
        <ele>1384.199951171875</ele>
        <time>2021-08-17T17:28:24.000Z</time>
      </trkpt>
      <trkpt lat="43.08451359160244464874267578125" lon="-6.071863733232021331787109375">
        <ele>1384.199951171875</ele>
        <time>2021-08-17T17:28:25.000Z</time>
      </trkpt>
      <trkpt lat="43.08449733071029186248779296875" lon="-6.071877144277095794677734375">
        <ele>1384.800048828125</ele>
        <time>2021-08-17T17:28:28.000Z</time>
      </trkpt>
      <trkpt lat="43.0844902060925960540771484375" lon="-6.07188460417091846466064453125">
        <ele>1385.800048828125</ele>
        <time>2021-08-17T17:28:32.000Z</time>
      </trkpt>
      <trkpt lat="43.08448475785553455352783203125" lon="-6.071881167590618133544921875">
        <ele>1386.199951171875</ele>
        <time>2021-08-17T17:28:34.000Z</time>
      </trkpt>
      <trkpt lat="43.08446933515369892120361328125" lon="-6.0719096660614013671875">
        <ele>1387</ele>
        <time>2021-08-17T17:28:40.000Z</time>
      </trkpt>
      <trkpt lat="43.08445726521313190460205078125" lon="-6.0719051398336887359619140625">
        <ele>1387.800048828125</ele>
        <time>2021-08-17T17:28:43.000Z</time>
      </trkpt>
      <trkpt lat="43.08444477617740631103515625" lon="-6.07189767993986606597900390625">
        <ele>1388.199951171875</ele>
        <time>2021-08-17T17:28:45.000Z</time>
      </trkpt>
      <trkpt lat="43.08442306704819202423095703125" lon="-6.07188460417091846466064453125">
        <ele>1388.4000244140625</ele>
        <time>2021-08-17T17:28:49.000Z</time>
      </trkpt>
      <trkpt lat="43.08441460132598876953125" lon="-6.071878485381603240966796875">
        <ele>1388.800048828125</ele>
        <time>2021-08-17T17:28:51.000Z</time>
      </trkpt>
      <trkpt lat="43.084409236907958984375" lon="-6.07188711874186992645263671875">
        <ele>1389</ele>
        <time>2021-08-17T17:28:53.000Z</time>
      </trkpt>
      <trkpt lat="43.084409236907958984375" lon="-6.071887202560901641845703125">
        <ele>1389.199951171875</ele>
        <time>2021-08-17T17:28:54.000Z</time>
      </trkpt>
      <trkpt lat="43.08440764434635639190673828125" lon="-6.07188946567475795745849609375">
        <ele>1389.4000244140625</ele>
        <time>2021-08-17T17:28:55.000Z</time>
      </trkpt>
      <trkpt lat="43.0844033695757389068603515625" lon="-6.07189248315989971160888671875">
        <ele>1389.800048828125</ele>
        <time>2021-08-17T17:28:56.000Z</time>
      </trkpt>
      <trkpt lat="43.08437445200979709625244140625" lon="-6.07191913761198520660400390625">
        <ele>1390.5999755859375</ele>
        <time>2021-08-17T17:29:02.000Z</time>
      </trkpt>
      <trkpt lat="43.084349893033504486083984375" lon="-6.07192299328744411468505859375">
        <ele>1391.800048828125</ele>
        <time>2021-08-17T17:29:07.000Z</time>
      </trkpt>
      <trkpt lat="43.08434712700545787811279296875" lon="-6.07192249037325382232666015625">
        <ele>1392.199951171875</ele>
        <time>2021-08-17T17:29:08.000Z</time>
      </trkpt>
      <trkpt lat="43.08433539234101772308349609375" lon="-6.071910001337528228759765625">
        <ele>1392.800048828125</ele>
        <time>2021-08-17T17:29:10.000Z</time>
      </trkpt>
      <trkpt lat="43.08431460522115230560302734375" lon="-6.0719195567071437835693359375">
        <ele>1393.199951171875</ele>
        <time>2021-08-17T17:29:19.000Z</time>
      </trkpt>
      <trkpt lat="43.0842967517673969268798828125" lon="-6.07193456031382083892822265625">
        <ele>1393.800048828125</ele>
        <time>2021-08-17T17:29:24.000Z</time>
      </trkpt>
      <trkpt lat="43.0842887051403522491455078125" lon="-6.0719379968941211700439453125">
        <ele>1395</ele>
        <time>2021-08-17T17:29:27.000Z</time>
      </trkpt>
      <trkpt lat="43.0842791497707366943359375" lon="-6.071942858397960662841796875">
        <ele>1395.4000244140625</ele>
        <time>2021-08-17T17:29:29.000Z</time>
      </trkpt>
      <trkpt lat="43.08427252806723117828369140625" lon="-6.071957610547542572021484375">
        <ele>1395.800048828125</ele>
        <time>2021-08-17T17:29:32.000Z</time>
      </trkpt>
      <trkpt lat="43.08426900766789913177490234375" lon="-6.071960963308811187744140625">
        <ele>1396</ele>
        <time>2021-08-17T17:29:33.000Z</time>
      </trkpt>
      <trkpt lat="43.08422206901013851165771484375" lon="-6.07194897718727588653564453125">
        <ele>1397.199951171875</ele>
        <time>2021-08-17T17:29:42.000Z</time>
      </trkpt>
      <trkpt lat="43.0842085741460323333740234375" lon="-6.071946211159229278564453125">
        <ele>1397.4000244140625</ele>
        <time>2021-08-17T17:29:44.000Z</time>
      </trkpt>
      <trkpt lat="43.08416993357241153717041015625" lon="-6.071963645517826080322265625">
        <ele>1398.199951171875</ele>
        <time>2021-08-17T17:29:51.000Z</time>
      </trkpt>
      <trkpt lat="43.084126599133014678955078125" lon="-6.071966327726840972900390625">
        <ele>1399.5999755859375</ele>
        <time>2021-08-17T17:29:57.000Z</time>
      </trkpt>
      <trkpt lat="43.08410556055605411529541015625" lon="-6.0719648189842700958251953125">
        <ele>1400</ele>
        <time>2021-08-17T17:29:59.000Z</time>
      </trkpt>
      <trkpt lat="43.0840952508151531219482421875" lon="-6.07196423225104808807373046875">
        <ele>1400</ele>
        <time>2021-08-17T17:30:00.000Z</time>
      </trkpt>
      <trkpt lat="43.084072284400463104248046875" lon="-6.07196842320263385772705078125">
        <ele>1400.800048828125</ele>
        <time>2021-08-17T17:30:03.000Z</time>
      </trkpt>
      <trkpt lat="43.0840664170682430267333984375" lon="-6.07196674682199954986572265625">
        <ele>1401</ele>
        <time>2021-08-17T17:30:04.000Z</time>
      </trkpt>
      <trkpt lat="43.08404982089996337890625" lon="-6.071964316070079803466796875">
        <ele>1401.800048828125</ele>
        <time>2021-08-17T17:30:08.000Z</time>
      </trkpt>
      <trkpt lat="43.0840456299483776092529296875" lon="-6.071964986622333526611328125">
        <ele>1401.800048828125</ele>
        <time>2021-08-17T17:30:09.000Z</time>
      </trkpt>
      <trkpt lat="43.0840114317834377288818359375" lon="-6.0719611309468746185302734375">
        <ele>1402.5999755859375</ele>
        <time>2021-08-17T17:30:14.000Z</time>
      </trkpt>
      <trkpt lat="43.084004558622837066650390625" lon="-6.071958951652050018310546875">
        <ele>1402.800048828125</ele>
        <time>2021-08-17T17:30:15.000Z</time>
      </trkpt>
      <trkpt lat="43.08395116589963436126708984375" lon="-6.0719691775739192962646484375">
        <ele>1403.4000244140625</ele>
        <time>2021-08-17T17:30:22.000Z</time>
      </trkpt>
      <trkpt lat="43.083938173949718475341796875" lon="-6.07197294943034648895263671875">
        <ele>1403.800048828125</ele>
        <time>2021-08-17T17:30:24.000Z</time>
      </trkpt>
      <trkpt lat="43.0838981084525585174560546875" lon="-6.0719708539545536041259765625">
        <ele>1405</ele>
        <time>2021-08-17T17:30:30.000Z</time>
      </trkpt>
      <trkpt lat="43.08383717201650142669677734375" lon="-6.0719980113208293914794921875">
        <ele>1406</ele>
        <time>2021-08-17T17:30:37.000Z</time>
      </trkpt>
      <trkpt lat="43.0838280357420444488525390625" lon="-6.07199775986373424530029296875">
        <ele>1406.199951171875</ele>
        <time>2021-08-17T17:30:38.000Z</time>
      </trkpt>
      <trkpt lat="43.08378621004521846771240234375" lon="-6.0720102488994598388671875">
        <ele>1407</ele>
        <time>2021-08-17T17:30:43.000Z</time>
      </trkpt>
      <trkpt lat="43.0837388522922992706298828125" lon="-6.07202407903969287872314453125">
        <ele>1408.199951171875</ele>
        <time>2021-08-17T17:30:50.000Z</time>
      </trkpt>
      <trkpt lat="43.0837039835751056671142578125" lon="-6.0720157809555530548095703125">
        <ele>1409.199951171875</ele>
        <time>2021-08-17T17:30:56.000Z</time>
      </trkpt>
      <trkpt lat="43.08368445374071598052978515625" lon="-6.0720060579478740692138671875">
        <ele>1409.800048828125</ele>
        <time>2021-08-17T17:31:00.000Z</time>
      </trkpt>
      <trkpt lat="43.0836676061153411865234375" lon="-6.07199491001665592193603515625">
        <ele>1410.4000244140625</ele>
        <time>2021-08-17T17:31:03.000Z</time>
      </trkpt>
      <trkpt lat="43.083636760711669921875" lon="-6.0719929821789264678955078125">
        <ele>1411</ele>
        <time>2021-08-17T17:31:07.000Z</time>
      </trkpt>
      <trkpt lat="43.08362913317978382110595703125" lon="-6.07199256308376789093017578125">
        <ele>1411.4000244140625</ele>
        <time>2021-08-17T17:31:08.000Z</time>
      </trkpt>
      <trkpt lat="43.0836144648492336273193359375" lon="-6.071992479264736175537109375">
        <ele>1411.800048828125</ele>
        <time>2021-08-17T17:31:10.000Z</time>
      </trkpt>
      <trkpt lat="43.0836030654609203338623046875" lon="-6.07199273072183132171630859375">
        <ele>1412</ele>
        <time>2021-08-17T17:31:12.000Z</time>
      </trkpt>
      <trkpt lat="43.083589486777782440185546875" lon="-6.07200530357658863067626953125">
        <ele>1412.5999755859375</ele>
        <time>2021-08-17T17:31:15.000Z</time>
      </trkpt>
      <trkpt lat="43.08352855034172534942626953125" lon="-6.07200287282466888427734375">
        <ele>1413.5999755859375</ele>
        <time>2021-08-17T17:31:23.000Z</time>
      </trkpt>
      <trkpt lat="43.0835215933620929718017578125" lon="-6.072001866996288299560546875">
        <ele>1413.800048828125</ele>
        <time>2021-08-17T17:31:24.000Z</time>
      </trkpt>
      <trkpt lat="43.0834619142115116119384765625" lon="-6.07201351784169673919677734375">
        <ele>1414.5999755859375</ele>
        <time>2021-08-17T17:31:32.000Z</time>
      </trkpt>
      <trkpt lat="43.08341455645859241485595703125" lon="-6.07201301492750644683837890625">
        <ele>1415.4000244140625</ele>
        <time>2021-08-17T17:31:38.000Z</time>
      </trkpt>
      <trkpt lat="43.08335286565124988555908203125" lon="-6.07200178317725658416748046875">
        <ele>1415.5999755859375</ele>
        <time>2021-08-17T17:31:45.000Z</time>
      </trkpt>
      <trkpt lat="43.08330391533672809600830078125" lon="-6.0720167867839336395263671875">
        <ele>1416</ele>
        <time>2021-08-17T17:31:51.000Z</time>
      </trkpt>
      <trkpt lat="43.08325613848865032196044921875" lon="-6.07201360166072845458984375">
        <ele>1416.4000244140625</ele>
        <time>2021-08-17T17:31:57.000Z</time>
      </trkpt>
      <trkpt lat="43.0832275561988353729248046875" lon="-6.072019301354885101318359375">
        <ele>1416.800048828125</ele>
        <time>2021-08-17T17:32:00.000Z</time>
      </trkpt>
      <trkpt lat="43.08320400305092334747314453125" lon="-6.0720130987465381622314453125">
        <ele>1417.199951171875</ele>
        <time>2021-08-17T17:32:03.000Z</time>
      </trkpt>
      <trkpt lat="43.08316594921052455902099609375" lon="-6.07200563885271549224853515625">
        <ele>1417.5999755859375</ele>
        <time>2021-08-17T17:32:08.000Z</time>
      </trkpt>
      <trkpt lat="43.08314968831837177276611328125" lon="-6.07200480066239833831787109375">
        <ele>1417.800048828125</ele>
        <time>2021-08-17T17:32:11.000Z</time>
      </trkpt>
      <trkpt lat="43.0831263028085231781005859375" lon="-6.07201603241264820098876953125">
        <ele>1418.199951171875</ele>
        <time>2021-08-17T17:32:14.000Z</time>
      </trkpt>
      <trkpt lat="43.08308866806328296661376953125" lon="-6.072023324668407440185546875">
        <ele>1418.800048828125</ele>
        <time>2021-08-17T17:32:19.000Z</time>
      </trkpt>
      <trkpt lat="43.08308129198849201202392578125" lon="-6.07202106155455112457275390625">
        <ele>1418.800048828125</ele>
        <time>2021-08-17T17:32:20.000Z</time>
      </trkpt>
      <trkpt lat="43.0830399692058563232421875" lon="-6.0720130987465381622314453125">
        <ele>1419.4000244140625</ele>
        <time>2021-08-17T17:32:25.000Z</time>
      </trkpt>
      <trkpt lat="43.0830230377614498138427734375" lon="-6.07201703824102878570556640625">
        <ele>1419.5999755859375</ele>
        <time>2021-08-17T17:32:27.000Z</time>
      </trkpt>
      <trkpt lat="43.08301490731537342071533203125" lon="-6.07201787643134593963623046875">
        <ele>1419.800048828125</ele>
        <time>2021-08-17T17:32:28.000Z</time>
      </trkpt>
      <trkpt lat="43.08300836943089962005615234375" lon="-6.07201854698359966278076171875">
        <ele>1420</ele>
        <time>2021-08-17T17:32:29.000Z</time>
      </trkpt>
      <trkpt lat="43.08298774994909763336181640625" lon="-6.07201469130814075469970703125">
        <ele>1420.800048828125</ele>
        <time>2021-08-17T17:32:32.000Z</time>
      </trkpt>
      <trkpt lat="43.08297500945627689361572265625" lon="-6.072012595832347869873046875">
        <ele>1421</ele>
        <time>2021-08-17T17:32:34.000Z</time>
      </trkpt>
      <trkpt lat="43.08296897448599338531494140625" lon="-6.0720129311084747314453125">
        <ele>1421.199951171875</ele>
        <time>2021-08-17T17:32:35.000Z</time>
      </trkpt>
      <trkpt lat="43.0829543061554431915283203125" lon="-6.07201217673718929290771484375">
        <ele>1421.4000244140625</ele>
        <time>2021-08-17T17:32:37.000Z</time>
      </trkpt>
      <trkpt lat="43.0829402245581150054931640625" lon="-6.07200396247208118438720703125">
        <ele>1421.5999755859375</ele>
        <time>2021-08-17T17:32:39.000Z</time>
      </trkpt>
      <trkpt lat="43.08292840607464313507080078125" lon="-6.07200010679662227630615234375">
        <ele>1422.199951171875</ele>
        <time>2021-08-17T17:32:43.000Z</time>
      </trkpt>
      <trkpt lat="43.082922957837581634521484375" lon="-6.07199893333017826080322265625">
        <ele>1422.800048828125</ele>
        <time>2021-08-17T17:32:49.000Z</time>
      </trkpt>
      <trkpt lat="43.0829211138188838958740234375" lon="-6.07200111262500286102294921875">
        <ele>1422.800048828125</ele>
        <time>2021-08-17T17:32:51.000Z</time>
      </trkpt>
      <trkpt lat="43.0829234607517719268798828125" lon="-6.07200128026306629180908203125">
        <ele>1422.800048828125</ele>
        <time>2021-08-17T17:32:53.000Z</time>
      </trkpt>
      <trkpt lat="43.08292488567531108856201171875" lon="-6.0720023699104785919189453125">
        <ele>1422.5999755859375</ele>
        <time>2021-08-17T17:32:55.000Z</time>
      </trkpt>
      <trkpt lat="43.0829251371324062347412109375" lon="-6.07200228609144687652587890625">
        <ele>1422.4000244140625</ele>
        <time>2021-08-17T17:32:57.000Z</time>
      </trkpt>
      <trkpt lat="43.0829261429607868194580078125" lon="-6.07200086116790771484375">
        <ele>1422.199951171875</ele>
        <time>2021-08-17T17:32:58.000Z</time>
      </trkpt>
      <trkpt lat="43.08292656205594539642333984375" lon="-6.0720057226717472076416015625">
        <ele>1422.800048828125</ele>
        <time>2021-08-17T17:33:06.000Z</time>
      </trkpt>
      <trkpt lat="43.08292069472372531890869140625" lon="-6.07200345955789089202880859375">
        <ele>1423.199951171875</ele>
        <time>2021-08-17T17:33:09.000Z</time>
      </trkpt>
      <trkpt lat="43.0829147435724735260009765625" lon="-6.07200421392917633056640625">
        <ele>1423</ele>
        <time>2021-08-17T17:33:12.000Z</time>
      </trkpt>
      <trkpt lat="43.08289839886128902435302734375" lon="-6.07201368547976016998291015625">
        <ele>1423</ele>
        <time>2021-08-17T17:33:22.000Z</time>
      </trkpt>
      <trkpt lat="43.08289772830903530120849609375" lon="-6.07201284728944301605224609375">
        <ele>1423</ele>
        <time>2021-08-17T17:33:24.000Z</time>
      </trkpt>
      <trkpt lat="43.0828989855945110321044921875" lon="-6.07201418839395046234130859375">
        <ele>1423.199951171875</ele>
        <time>2021-08-17T17:33:27.000Z</time>
      </trkpt>
      <trkpt lat="43.08290258981287479400634765625" lon="-6.07201016508042812347412109375">
        <ele>1423.199951171875</ele>
        <time>2021-08-17T17:33:31.000Z</time>
      </trkpt>
      <trkpt lat="43.08290745131671428680419921875" lon="-6.0720094107091426849365234375">
        <ele>1423.4000244140625</ele>
        <time>2021-08-17T17:33:36.000Z</time>
      </trkpt>
      <trkpt lat="43.08291189372539520263671875" lon="-6.07200781814754009246826171875">
        <ele>1423.4000244140625</ele>
        <time>2021-08-17T17:33:37.000Z</time>
      </trkpt>
      <trkpt lat="43.08291885070502758026123046875" lon="-6.072007901966571807861328125">
        <ele>1423.199951171875</ele>
        <time>2021-08-17T17:33:38.000Z</time>
      </trkpt>
      <trkpt lat="43.0829261429607868194580078125" lon="-6.07200555503368377685546875">
        <ele>1423.199951171875</ele>
        <time>2021-08-17T17:33:44.000Z</time>
      </trkpt>
      <trkpt lat="43.08292438276112079620361328125" lon="-6.072003878653049468994140625">
        <ele>1423.199951171875</ele>
        <time>2021-08-17T17:33:49.000Z</time>
      </trkpt>
      <trkpt lat="43.0829248018562793731689453125" lon="-6.07200396247208118438720703125">
        <ele>1423.199951171875</ele>
        <time>2021-08-17T17:33:53.000Z</time>
      </trkpt>
      <trkpt lat="43.0829251371324062347412109375" lon="-6.0720033757388591766357421875">
        <ele>1423.4000244140625</ele>
        <time>2021-08-17T17:33:56.000Z</time>
      </trkpt>
      <trkpt lat="43.08292304165661334991455078125" lon="-6.07199960388243198394775390625">
        <ele>1423.4000244140625</ele>
        <time>2021-08-17T17:34:04.000Z</time>
      </trkpt>
      <trkpt lat="43.08292153291404247283935546875" lon="-6.07199625112116336822509765625">
        <ele>1422.5999755859375</ele>
        <time>2021-08-17T17:34:08.000Z</time>
      </trkpt>
      <trkpt lat="43.08292455039918422698974609375" lon="-6.072003208100795745849609375">
        <ele>1422.199951171875</ele>
        <time>2021-08-17T17:34:13.000Z</time>
      </trkpt>
      <trkpt lat="43.08291935361921787261962890625" lon="-6.07201485894620418548583984375">
        <ele>1422.199951171875</ele>
        <time>2021-08-17T17:34:20.000Z</time>
      </trkpt>
      <trkpt lat="43.08292237110435962677001953125" lon="-6.07201854698359966278076171875">
        <ele>1422</ele>
        <time>2021-08-17T17:34:23.000Z</time>
      </trkpt>
      <trkpt lat="43.0829224549233913421630859375" lon="-6.0720201395452022552490234375">
        <ele>1422</ele>
        <time>2021-08-17T17:34:27.000Z</time>
      </trkpt>
      <trkpt lat="43.08292320929467678070068359375" lon="-6.07202223502099514007568359375">
        <ele>1422</ele>
        <time>2021-08-17T17:34:28.000Z</time>
      </trkpt>
      <trkpt lat="43.08292287401854991912841796875" lon="-6.072026677429676055908203125">
        <ele>1422</ele>
        <time>2021-08-17T17:34:34.000Z</time>
      </trkpt>
      <trkpt lat="43.0829268135130405426025390625" lon="-6.07202676124870777130126953125">
        <ele>1422</ele>
        <time>2021-08-17T17:34:40.000Z</time>
      </trkpt>
      <trkpt lat="43.08292522095143795013427734375" lon="-6.0720224864780902862548828125">
        <ele>1422</ele>
        <time>2021-08-17T17:34:44.000Z</time>
      </trkpt>
      <trkpt lat="43.08292421512305736541748046875" lon="-6.07200848869979381561279296875">
        <ele>1421.800048828125</ele>
        <time>2021-08-17T17:34:53.000Z</time>
      </trkpt>
      <trkpt lat="43.0829219520092010498046875" lon="-6.07199457474052906036376953125">
        <ele>1422</ele>
        <time>2021-08-17T17:34:55.000Z</time>
      </trkpt>
      <trkpt lat="43.082915246486663818359375" lon="-6.0719835944473743438720703125">
        <ele>1421.800048828125</ele>
        <time>2021-08-17T17:35:00.000Z</time>
      </trkpt>
      <trkpt lat="43.08291046880185604095458984375" lon="-6.0719732008874416351318359375">
        <ele>1421.800048828125</ele>
        <time>2021-08-17T17:35:02.000Z</time>
      </trkpt>
      <trkpt lat="43.0829077027738094329833984375" lon="-6.07196339406073093414306640625">
        <ele>1421.5999755859375</ele>
        <time>2021-08-17T17:35:05.000Z</time>
      </trkpt>
      <trkpt lat="43.0829016678035259246826171875" lon="-6.07195015065371990203857421875">
        <ele>1421.800048828125</ele>
        <time>2021-08-17T17:35:09.000Z</time>
      </trkpt>
      <trkpt lat="43.082899488508701324462890625" lon="-6.0719460435211658477783203125">
        <ele>1421.5999755859375</ele>
        <time>2021-08-17T17:35:10.000Z</time>
      </trkpt>
      <trkpt lat="43.0828978121280670166015625" lon="-6.07194310985505580902099609375">
        <ele>1421.5999755859375</ele>
        <time>2021-08-17T17:35:11.000Z</time>
      </trkpt>
      <trkpt lat="43.0828986503183841705322265625" lon="-6.07195048592984676361083984375">
        <ele>1421.5999755859375</ele>
        <time>2021-08-17T17:35:17.000Z</time>
      </trkpt>
      <trkpt lat="43.08289705775678157806396484375" lon="-6.0719520784914493560791015625">
        <ele>1423</ele>
        <time>2021-08-17T17:35:26.000Z</time>
      </trkpt>
      <trkpt lat="43.08289823122322559356689453125" lon="-6.07195300050079822540283203125">
        <ele>1422.800048828125</ele>
        <time>2021-08-17T17:35:32.000Z</time>
      </trkpt>
      <trkpt lat="43.08289789594709873199462890625" lon="-6.07195266522467136383056640625">
        <ele>1422.800048828125</ele>
        <time>2021-08-17T17:35:35.000Z</time>
      </trkpt>
      <trkpt lat="43.0828979797661304473876953125" lon="-6.07195283286273479461669921875">
        <ele>1422.800048828125</ele>
        <time>2021-08-17T17:35:36.000Z</time>
      </trkpt>
      <trkpt lat="43.0828979797661304473876953125" lon="-6.071952916681766510009765625">
        <ele>1422.800048828125</ele>
        <time>2021-08-17T17:35:37.000Z</time>
      </trkpt>
      <trkpt lat="43.0828979797661304473876953125" lon="-6.07195300050079822540283203125">
        <ele>1422.800048828125</ele>
        <time>2021-08-17T17:35:38.000Z</time>
      </trkpt>
      <trkpt lat="43.08289823122322559356689453125" lon="-6.0719534195959568023681640625">
        <ele>1423</ele>
        <time>2021-08-17T17:35:39.000Z</time>
      </trkpt>
      <trkpt lat="43.08289873413741588592529296875" lon="-6.0719540901482105255126953125">
        <ele>1422.800048828125</ele>
        <time>2021-08-17T17:35:40.000Z</time>
      </trkpt>
      <trkpt lat="43.08289689011871814727783203125" lon="-6.07195618562400341033935546875">
        <ele>1422</ele>
        <time>2021-08-17T17:35:46.000Z</time>
      </trkpt>
      <trkpt lat="43.08289169333875179290771484375" lon="-6.07195501215755939483642578125">
        <ele>1422.4000244140625</ele>
        <time>2021-08-17T17:35:59.000Z</time>
      </trkpt>
      <trkpt lat="43.08288817293941974639892578125" lon="-6.07196037657558917999267578125">
        <ele>1422.4000244140625</ele>
        <time>2021-08-17T17:36:02.000Z</time>
      </trkpt>
      <trkpt lat="43.0828983150422573089599609375" lon="-6.07196909375488758087158203125">
        <ele>1422.4000244140625</ele>
        <time>2021-08-17T17:36:07.000Z</time>
      </trkpt>
      <trkpt lat="43.08290158398449420928955078125" lon="-6.0719718597829341888427734375">
        <ele>1422.4000244140625</ele>
        <time>2021-08-17T17:36:10.000Z</time>
      </trkpt>
      <trkpt lat="43.08292387984693050384521484375" lon="-6.07198703102767467498779296875">
        <ele>1422.4000244140625</ele>
        <time>2021-08-17T17:36:22.000Z</time>
      </trkpt>
      <trkpt lat="43.08292052708566188812255859375" lon="-6.07198887504637241363525390625">
        <ele>1422.4000244140625</ele>
        <time>2021-08-17T17:36:25.000Z</time>
      </trkpt>
      <trkpt lat="43.0829177610576152801513671875" lon="-6.071989797055721282958984375">
        <ele>1422.4000244140625</ele>
        <time>2021-08-17T17:36:35.000Z</time>
      </trkpt>
      <trkpt lat="43.08291935361921787261962890625" lon="-6.071988455951213836669921875">
        <ele>1422.4000244140625</ele>
        <time>2021-08-17T17:36:38.000Z</time>
      </trkpt>
      <trkpt lat="43.08292287401854991912841796875" lon="-6.07198786921799182891845703125">
        <ele>1422.4000244140625</ele>
        <time>2021-08-17T17:36:40.000Z</time>
      </trkpt>
      <trkpt lat="43.082922957837581634521484375" lon="-6.07199055142700672149658203125">
        <ele>1422.4000244140625</ele>
        <time>2021-08-17T17:36:42.000Z</time>
      </trkpt>
      <trkpt lat="43.0829117260873317718505859375" lon="-6.071995161473751068115234375">
        <ele>1422.4000244140625</ele>
        <time>2021-08-17T17:36:49.000Z</time>
      </trkpt>
      <trkpt lat="43.08290510438382625579833984375" lon="-6.07200027443468570709228515625">
        <ele>1422.4000244140625</ele>
        <time>2021-08-17T17:36:50.000Z</time>
      </trkpt>
      <trkpt lat="43.0828865803778171539306640625" lon="-6.07201301492750644683837890625">
        <ele>1422.4000244140625</ele>
        <time>2021-08-17T17:36:53.000Z</time>
      </trkpt>
      <trkpt lat="43.082850873470306396484375" lon="-6.0720201395452022552490234375">
        <ele>1422.4000244140625</ele>
        <time>2021-08-17T17:36:58.000Z</time>
      </trkpt>
      <trkpt lat="43.08282933197915554046630859375" lon="-6.07201904989778995513916015625">
        <ele>1422.4000244140625</ele>
        <time>2021-08-17T17:37:01.000Z</time>
      </trkpt>
      <trkpt lat="43.08281659148633480072021484375" lon="-6.072026006877422332763671875">
        <ele>1423.5999755859375</ele>
        <time>2021-08-17T17:37:03.000Z</time>
      </trkpt>
      <trkpt lat="43.08280820958316326141357421875" lon="-6.0720355622470378875732421875">
        <ele>1425.199951171875</ele>
        <time>2021-08-17T17:37:05.000Z</time>
      </trkpt>
      <trkpt lat="43.0827958881855010986328125" lon="-6.07203983701765537261962890625">
        <ele>1426.199951171875</ele>
        <time>2021-08-17T17:37:07.000Z</time>
      </trkpt>
      <trkpt lat="43.0827883444726467132568359375" lon="-6.07204654254019260406494140625">
        <ele>1426.5999755859375</ele>
        <time>2021-08-17T17:37:08.000Z</time>
      </trkpt>
      <trkpt lat="43.08277308940887451171875" lon="-6.072054840624332427978515625">
        <ele>1427</ele>
        <time>2021-08-17T17:37:10.000Z</time>
      </trkpt>
      <trkpt lat="43.08275691233575344085693359375" lon="-6.0720556788146495819091796875">
        <ele>1427.4000244140625</ele>
        <time>2021-08-17T17:37:12.000Z</time>
      </trkpt>
      <trkpt lat="43.0827514640986919403076171875" lon="-6.072054840624332427978515625">
        <ele>1427.5999755859375</ele>
        <time>2021-08-17T17:37:13.000Z</time>
      </trkpt>
      <trkpt lat="43.08273947797715663909912109375" lon="-6.07205249369144439697265625">
        <ele>1428</ele>
        <time>2021-08-17T17:37:15.000Z</time>
      </trkpt>
      <trkpt lat="43.08272279798984527587890625" lon="-6.072052828967571258544921875">
        <ele>1428.4000244140625</ele>
        <time>2021-08-17T17:37:17.000Z</time>
      </trkpt>
      <trkpt lat="43.082710392773151397705078125" lon="-6.0720506496727466583251953125">
        <ele>1428.800048828125</ele>
        <time>2021-08-17T17:37:19.000Z</time>
      </trkpt>
      <trkpt lat="43.08270293287932872772216796875" lon="-6.07205375097692012786865234375">
        <ele>1429</ele>
        <time>2021-08-17T17:37:20.000Z</time>
      </trkpt>
      <trkpt lat="43.08269522152841091156005859375" lon="-6.07205458916723728179931640625">
        <ele>1429.4000244140625</ele>
        <time>2021-08-17T17:37:21.000Z</time>
      </trkpt>
      <trkpt lat="43.08268382214009761810302734375" lon="-6.072057187557220458984375">
        <ele>1429.800048828125</ele>
        <time>2021-08-17T17:37:23.000Z</time>
      </trkpt>
      <trkpt lat="43.08267577551305294036865234375" lon="-6.07206297107040882110595703125">
        <ele>1430</ele>
        <time>2021-08-17T17:37:25.000Z</time>
      </trkpt>
      <trkpt lat="43.08267175219953060150146484375" lon="-6.07206682674586772918701171875">
        <ele>1430</ele>
        <time>2021-08-17T17:37:26.000Z</time>
      </trkpt>
      <trkpt lat="43.08266538195312023162841796875" lon="-6.0720707662403583526611328125">
        <ele>1430.199951171875</ele>
        <time>2021-08-17T17:37:27.000Z</time>
      </trkpt>
      <trkpt lat="43.082659430801868438720703125" lon="-6.0720754601061344146728515625">
        <ele>1430.4000244140625</ele>
        <time>2021-08-17T17:37:28.000Z</time>
      </trkpt>
      <trkpt lat="43.08265565894544124603271484375" lon="-6.0720791481435298919677734375">
        <ele>1430.5999755859375</ele>
        <time>2021-08-17T17:37:29.000Z</time>
      </trkpt>
      <trkpt lat="43.08264342136681079864501953125" lon="-6.0720825009047985076904296875">
        <ele>1431</ele>
        <time>2021-08-17T17:37:31.000Z</time>
      </trkpt>
      <trkpt lat="43.08262011967599391937255859375" lon="-6.0720868594944477081298828125">
        <ele>1432</ele>
        <time>2021-08-17T17:37:35.000Z</time>
      </trkpt>
      <trkpt lat="43.082613833248615264892578125" lon="-6.0720907151699066162109375">
        <ele>1432.199951171875</ele>
        <time>2021-08-17T17:37:36.000Z</time>
      </trkpt>
      <trkpt lat="43.08257351629436016082763671875" lon="-6.0720999352633953094482421875">
        <ele>1432.5999755859375</ele>
        <time>2021-08-17T17:37:42.000Z</time>
      </trkpt>
      <trkpt lat="43.08256781660020351409912109375" lon="-6.07210672460496425628662109375">
        <ele>1433</ele>
        <time>2021-08-17T17:37:44.000Z</time>
      </trkpt>
      <trkpt lat="43.08256764896214008331298828125" lon="-6.072142682969570159912109375">
        <ele>1434.199951171875</ele>
        <time>2021-08-17T17:37:49.000Z</time>
      </trkpt>
      <trkpt lat="43.082570247352123260498046875" lon="-6.0721606202423572540283203125">
        <ele>1434.5999755859375</ele>
        <time>2021-08-17T17:37:51.000Z</time>
      </trkpt>
      <trkpt lat="43.08258139528334140777587890625" lon="-6.07219104655086994171142578125">
        <ele>1435.199951171875</ele>
        <time>2021-08-17T17:37:56.000Z</time>
      </trkpt>
      <trkpt lat="43.08259631507098674774169921875" lon="-6.0722301900386810302734375">
        <ele>1436.199951171875</ele>
        <time>2021-08-17T17:38:01.000Z</time>
      </trkpt>
      <trkpt lat="43.0826066248118877410888671875" lon="-6.0722565092146396636962890625">
        <ele>1436.800048828125</ele>
        <time>2021-08-17T17:38:04.000Z</time>
      </trkpt>
      <trkpt lat="43.08260201476514339447021484375" lon="-6.07227235101163387298583984375">
        <ele>1437.199951171875</ele>
        <time>2021-08-17T17:38:06.000Z</time>
      </trkpt>
      <trkpt lat="43.0825647152960300445556640625" lon="-6.07231090776622295379638671875">
        <ele>1438.199951171875</ele>
        <time>2021-08-17T17:38:13.000Z</time>
      </trkpt>
      <trkpt lat="43.08255893178284168243408203125" lon="-6.07231258414685726165771484375">
        <ele>1438.4000244140625</ele>
        <time>2021-08-17T17:38:14.000Z</time>
      </trkpt>
      <trkpt lat="43.08254040777683258056640625" lon="-6.07232607901096343994140625">
        <ele>1439.4000244140625</ele>
        <time>2021-08-17T17:38:17.000Z</time>
      </trkpt>
      <trkpt lat="43.082499839365482330322265625" lon="-6.0723235644400119781494140625">
        <ele>1440.5999755859375</ele>
        <time>2021-08-17T17:38:23.000Z</time>
      </trkpt>
      <trkpt lat="43.08246773667633533477783203125" lon="-6.07230353169143199920654296875">
        <ele>1441</ele>
        <time>2021-08-17T17:38:27.000Z</time>
      </trkpt>
      <trkpt lat="43.08244292624294757843017578125" lon="-6.0723215527832508087158203125">
        <ele>1441.800048828125</ele>
        <time>2021-08-17T17:38:31.000Z</time>
      </trkpt>
      <trkpt lat="43.082423396408557891845703125" lon="-6.07233286835253238677978515625">
        <ele>1442.800048828125</ele>
        <time>2021-08-17T17:38:35.000Z</time>
      </trkpt>
      <trkpt lat="43.0823927186429500579833984375" lon="-6.07235155999660491943359375">
        <ele>1443.5999755859375</ele>
        <time>2021-08-17T17:38:39.000Z</time>
      </trkpt>
      <trkpt lat="43.08238081634044647216796875" lon="-6.07234845869243144989013671875">
        <ele>1444</ele>
        <time>2021-08-17T17:38:41.000Z</time>
      </trkpt>
      <trkpt lat="43.08234921656548976898193359375" lon="-6.07235600240528583526611328125">
        <ele>1444.5999755859375</ele>
        <time>2021-08-17T17:38:45.000Z</time>
      </trkpt>
      <trkpt lat="43.082322143018245697021484375" lon="-6.07236874289810657501220703125">
        <ele>1445.199951171875</ele>
        <time>2021-08-17T17:38:48.000Z</time>
      </trkpt>
      <trkpt lat="43.08229641057550907135009765625" lon="-6.0723751969635486602783203125">
        <ele>1445.800048828125</ele>
        <time>2021-08-17T17:38:51.000Z</time>
      </trkpt>
      <trkpt lat="43.0822674930095672607421875" lon="-6.0723855905234813690185546875">
        <ele>1446.4000244140625</ele>
        <time>2021-08-17T17:38:55.000Z</time>
      </trkpt>
      <trkpt lat="43.08224293403327465057373046875" lon="-6.07237041927874088287353515625">
        <ele>1447.199951171875</ele>
        <time>2021-08-17T17:38:58.000Z</time>
      </trkpt>
      <trkpt lat="43.08222918771207332611083984375" lon="-6.07236522249877452850341796875">
        <ele>1447.5999755859375</ele>
        <time>2021-08-17T17:39:00.000Z</time>
      </trkpt>
      <trkpt lat="43.0822066403925418853759765625" lon="-6.07237167656421661376953125">
        <ele>1448.199951171875</ele>
        <time>2021-08-17T17:39:03.000Z</time>
      </trkpt>
      <trkpt lat="43.08219817467033863067626953125" lon="-6.072381399571895599365234375">
        <ele>1448.5999755859375</ele>
        <time>2021-08-17T17:39:05.000Z</time>
      </trkpt>
      <trkpt lat="43.08216431178152561187744140625" lon="-6.0724006779491901397705078125">
        <ele>1449.5999755859375</ele>
        <time>2021-08-17T17:39:10.000Z</time>
      </trkpt>
      <trkpt lat="43.0821389146149158477783203125" lon="-6.07241434045135974884033203125">
        <ele>1450.800048828125</ele>
        <time>2021-08-17T17:39:14.000Z</time>
      </trkpt>
      <trkpt lat="43.082132376730442047119140625" lon="-6.072413586080074310302734375">
        <ele>1451</ele>
        <time>2021-08-17T17:39:15.000Z</time>
      </trkpt>
      <trkpt lat="43.082096837460994720458984375" lon="-6.07242104597389698028564453125">
        <ele>1452</ele>
        <time>2021-08-17T17:39:20.000Z</time>
      </trkpt>
      <trkpt lat="43.0820664949715137481689453125" lon="-6.07243881560862064361572265625">
        <ele>1453</ele>
        <time>2021-08-17T17:39:25.000Z</time>
      </trkpt>
      <trkpt lat="43.0820390023291110992431640625" lon="-6.07243931852281093597412109375">
        <ele>1453.800048828125</ele>
        <time>2021-08-17T17:39:29.000Z</time>
      </trkpt>
      <trkpt lat="43.0820239149034023284912109375" lon="-6.07243814505636692047119140625">
        <ele>1454.199951171875</ele>
        <time>2021-08-17T17:39:31.000Z</time>
      </trkpt>
      <trkpt lat="43.0819776467978954315185546875" lon="-6.07242607511579990386962890625">
        <ele>1455.4000244140625</ele>
        <time>2021-08-17T17:39:36.000Z</time>
      </trkpt>
      <trkpt lat="43.081927858293056488037109375" lon="-6.072434373199939727783203125">
        <ele>1456.199951171875</ele>
        <time>2021-08-17T17:39:41.000Z</time>
      </trkpt>
      <trkpt lat="43.0819199793040752410888671875" lon="-6.07243948616087436676025390625">
        <ele>1456.4000244140625</ele>
        <time>2021-08-17T17:39:42.000Z</time>
      </trkpt>
      <trkpt lat="43.0818837694823741912841796875" lon="-6.07246479950845241546630859375">
        <ele>1457.5999755859375</ele>
        <time>2021-08-17T17:39:47.000Z</time>
      </trkpt>
      <trkpt lat="43.08185853995382785797119140625" lon="-6.07250603847205638885498046875">
        <ele>1458.800048828125</ele>
        <time>2021-08-17T17:39:52.000Z</time>
      </trkpt>
      <trkpt lat="43.08185434900224208831787109375" lon="-6.07251224108040332794189453125">
        <ele>1459.199951171875</ele>
        <time>2021-08-17T17:39:53.000Z</time>
      </trkpt>
      <trkpt lat="43.08182769455015659332275390625" lon="-6.07254895381629467010498046875">
        <ele>1459.800048828125</ele>
        <time>2021-08-17T17:39:58.000Z</time>
      </trkpt>
      <trkpt lat="43.08179743587970733642578125" lon="-6.072556413710117340087890625">
        <ele>1461.199951171875</ele>
        <time>2021-08-17T17:40:03.000Z</time>
      </trkpt>
      <trkpt lat="43.08177824132144451141357421875" lon="-6.0725465230643749237060546875">
        <ele>1461.5999755859375</ele>
        <time>2021-08-17T17:40:06.000Z</time>
      </trkpt>
      <trkpt lat="43.0817436240613460540771484375" lon="-6.07253017835319042205810546875">
        <ele>1462.199951171875</ele>
        <time>2021-08-17T17:40:10.000Z</time>
      </trkpt>
      <trkpt lat="43.08173440396785736083984375" lon="-6.0725438408553600311279296875">
        <ele>1462.5999755859375</ele>
        <time>2021-08-17T17:40:12.000Z</time>
      </trkpt>
      <trkpt lat="43.0817149579524993896484375" lon="-6.07256001792848110198974609375">
        <ele>1463.4000244140625</ele>
        <time>2021-08-17T17:40:15.000Z</time>
      </trkpt>
      <trkpt lat="43.08170330710709095001220703125" lon="-6.07257342897355556488037109375">
        <ele>1463.5999755859375</ele>
        <time>2021-08-17T17:40:17.000Z</time>
      </trkpt>
      <trkpt lat="43.0816712044179439544677734375" lon="-6.0725817270576953887939453125">
        <ele>1464.4000244140625</ele>
        <time>2021-08-17T17:40:21.000Z</time>
      </trkpt>
      <trkpt lat="43.08162954635918140411376953125" lon="-6.07256907038390636444091796875">
        <ele>1465.5999755859375</ele>
        <time>2021-08-17T17:40:26.000Z</time>
      </trkpt>
      <trkpt lat="43.0816132016479969024658203125" lon="-6.072567813098430633544921875">
        <ele>1466</ele>
        <time>2021-08-17T17:40:29.000Z</time>
      </trkpt>
      <trkpt lat="43.0815701186656951904296875" lon="-6.07258013449609279632568359375">
        <ele>1466.5999755859375</ele>
        <time>2021-08-17T17:40:35.000Z</time>
      </trkpt>
      <trkpt lat="43.081534914672374725341796875" lon="-6.072604358196258544921875">
        <ele>1467.800048828125</ele>
        <time>2021-08-17T17:40:41.000Z</time>
      </trkpt>
      <trkpt lat="43.08148839510977268218994140625" lon="-6.072650961577892303466796875">
        <ele>1468.800048828125</ele>
        <time>2021-08-17T17:40:48.000Z</time>
      </trkpt>
      <trkpt lat="43.08147154748439788818359375" lon="-6.0726652108132839202880859375">
        <ele>1469.4000244140625</ele>
        <time>2021-08-17T17:40:51.000Z</time>
      </trkpt>
      <trkpt lat="43.08145402930676937103271484375" lon="-6.072675772011280059814453125">
        <ele>1470</ele>
        <time>2021-08-17T17:40:53.000Z</time>
      </trkpt>
      <trkpt lat="43.08144547976553440093994140625" lon="-6.07268205843865871429443359375">
        <ele>1470</ele>
        <time>2021-08-17T17:40:54.000Z</time>
      </trkpt>
      <trkpt lat="43.08140776120126247406005859375" lon="-6.07270502485334873199462890625">
        <ele>1471</ele>
        <time>2021-08-17T17:40:59.000Z</time>
      </trkpt>
      <trkpt lat="43.08136166073381900787353515625" lon="-6.07273637317121028900146484375">
        <ele>1472</ele>
        <time>2021-08-17T17:41:05.000Z</time>
      </trkpt>
      <trkpt lat="43.0813302285969257354736328125" lon="-6.07275565154850482940673828125">
        <ele>1472.4000244140625</ele>
        <time>2021-08-17T17:41:09.000Z</time>
      </trkpt>
      <trkpt lat="43.0812943540513515472412109375" lon="-6.07278331182897090911865234375">
        <ele>1473</ele>
        <time>2021-08-17T17:41:14.000Z</time>
      </trkpt>
      <trkpt lat="43.0812718905508518218994140625" lon="-6.07280351221561431884765625">
        <ele>1473.199951171875</ele>
        <time>2021-08-17T17:41:17.000Z</time>
      </trkpt>
      <trkpt lat="43.081225790083408355712890625" lon="-6.07284366153180599212646484375">
        <ele>1473.800048828125</ele>
        <time>2021-08-17T17:41:23.000Z</time>
      </trkpt>
      <trkpt lat="43.08118949644267559051513671875" lon="-6.07289135456085205078125">
        <ele>1474.199951171875</ele>
        <time>2021-08-17T17:41:28.000Z</time>
      </trkpt>
      <trkpt lat="43.08116535656154155731201171875" lon="-6.07295346446335315704345703125">
        <ele>1475</ele>
        <time>2021-08-17T17:41:34.000Z</time>
      </trkpt>
      <trkpt lat="43.08116099797189235687255859375" lon="-6.07296603731811046600341796875">
        <ele>1475.199951171875</ele>
        <time>2021-08-17T17:41:35.000Z</time>
      </trkpt>
      <trkpt lat="43.08114507235586643218994140625" lon="-6.0730400495231151580810546875">
        <ele>1475.5999755859375</ele>
        <time>2021-08-17T17:41:41.000Z</time>
      </trkpt>
      <trkpt lat="43.08112420141696929931640625" lon="-6.0730843059718608856201171875">
        <ele>1476.199951171875</ele>
        <time>2021-08-17T17:41:45.000Z</time>
      </trkpt>
      <trkpt lat="43.0811154842376708984375" lon="-6.073109619319438934326171875">
        <ele>1476.199951171875</ele>
        <time>2021-08-17T17:41:47.000Z</time>
      </trkpt>
      <trkpt lat="43.0811109580099582672119140625" lon="-6.0731513611972332000732421875">
        <ele>1476.4000244140625</ele>
        <time>2021-08-17T17:41:50.000Z</time>
      </trkpt>
      <trkpt lat="43.08111288584768772125244140625" lon="-6.073249094188213348388671875">
        <ele>1476.5999755859375</ele>
        <time>2021-08-17T17:41:58.000Z</time>
      </trkpt>
      <trkpt lat="43.081101737916469573974609375" lon="-6.07331556268036365509033203125">
        <ele>1476.800048828125</ele>
        <time>2021-08-17T17:42:04.000Z</time>
      </trkpt>
      <trkpt lat="43.08109343983232975006103515625" lon="-6.0733642615377902984619140625">
        <ele>1477</ele>
        <time>2021-08-17T17:42:09.000Z</time>
      </trkpt>
      <trkpt lat="43.08109528385102748870849609375" lon="-6.07337574474513530731201171875">
        <ele>1477.199951171875</ele>
        <time>2021-08-17T17:42:10.000Z</time>
      </trkpt>
      <trkpt lat="43.0810962058603763580322265625" lon="-6.07338278554379940032958984375">
        <ele>1477.199951171875</ele>
        <time>2021-08-17T17:42:11.000Z</time>
      </trkpt>
      <trkpt lat="43.08109737932682037353515625" lon="-6.0733860544860363006591796875">
        <ele>1477.4000244140625</ele>
        <time>2021-08-17T17:42:12.000Z</time>
      </trkpt>
      <trkpt lat="43.08109628967940807342529296875" lon="-6.07341463677585124969482421875">
        <ele>1477</ele>
        <time>2021-08-17T17:42:17.000Z</time>
      </trkpt>
      <trkpt lat="43.08108824305236339569091796875" lon="-6.07342846691608428955078125">
        <ele>1477</ele>
        <time>2021-08-17T17:42:19.000Z</time>
      </trkpt>
      <trkpt lat="43.0810703895986080169677734375" lon="-6.07345319353044033050537109375">
        <ele>1477.199951171875</ele>
        <time>2021-08-17T17:42:24.000Z</time>
      </trkpt>
      <trkpt lat="43.08107164688408374786376953125" lon="-6.07344984076917171478271484375">
        <ele>1477.4000244140625</ele>
        <time>2021-08-17T17:42:35.000Z</time>
      </trkpt>
      <trkpt lat="43.08107231743633747100830078125" lon="-6.07344992458820343017578125">
        <ele>1477.5999755859375</ele>
        <time>2021-08-17T17:42:36.000Z</time>
      </trkpt>
      <trkpt lat="43.08107399381697177886962890625" lon="-6.0734507627785205841064453125">
        <ele>1477.4000244140625</ele>
        <time>2021-08-17T17:42:38.000Z</time>
      </trkpt>
      <trkpt lat="43.08107516728341579437255859375" lon="-6.0734678618609905242919921875">
        <ele>1477.4000244140625</ele>
        <time>2021-08-17T17:42:50.000Z</time>
      </trkpt>
      <trkpt lat="43.08106896467506885528564453125" lon="-6.07347942888736724853515625">
        <ele>1477.199951171875</ele>
        <time>2021-08-17T17:42:52.000Z</time>
      </trkpt>
      <trkpt lat="43.08105840347707271575927734375" lon="-6.073519997298717498779296875">
        <ele>1476.199951171875</ele>
        <time>2021-08-17T17:42:59.000Z</time>
      </trkpt>
      <trkpt lat="43.08106544427573680877685546875" lon="-6.073540784418582916259765625">
        <ele>1476</ele>
        <time>2021-08-17T17:43:03.000Z</time>
      </trkpt>
      <trkpt lat="43.08106519281864166259765625" lon="-6.07354656793177127838134765625">
        <ele>1476</ele>
        <time>2021-08-17T17:43:04.000Z</time>
      </trkpt>
      <trkpt lat="43.08105044066905975341796875" lon="-6.07360817492008209228515625">
        <ele>1476.800048828125</ele>
        <time>2021-08-17T17:43:16.000Z</time>
      </trkpt>
      <trkpt lat="43.08104264549911022186279296875" lon="-6.07353667728602886199951171875">
        <ele>1476.4000244140625</ele>
        <time>2021-08-17T17:43:23.000Z</time>
      </trkpt>
      <trkpt lat="43.08105739764869213104248046875" lon="-6.07352796010673046112060546875">
        <ele>1475.800048828125</ele>
        <time>2021-08-17T17:43:29.000Z</time>
      </trkpt>
      <trkpt lat="43.08105991221964359283447265625" lon="-6.07352175749838352203369140625">
        <ele>1475.5999755859375</ele>
        <time>2021-08-17T17:43:33.000Z</time>
      </trkpt>
      <trkpt lat="43.08105890639126300811767578125" lon="-6.0735174827277660369873046875">
        <ele>1475.5999755859375</ele>
        <time>2021-08-17T17:43:39.000Z</time>
      </trkpt>
      <trkpt lat="43.08105991221964359283447265625" lon="-6.0735096037387847900390625">
        <ele>1475.5999755859375</ele>
        <time>2021-08-17T17:43:45.000Z</time>
      </trkpt>
      <trkpt lat="43.0810563080012798309326171875" lon="-6.073498539626598358154296875">
        <ele>1475.4000244140625</ele>
        <time>2021-08-17T17:43:56.000Z</time>
      </trkpt>
      <trkpt lat="43.081057481467723846435546875" lon="-6.07350356876850128173828125">
        <ele>1475.199951171875</ele>
        <time>2021-08-17T17:43:59.000Z</time>
      </trkpt>
      <trkpt lat="43.0810573138296604156494140625" lon="-6.07350616715848445892333984375">
        <ele>1475.199951171875</ele>
        <time>2021-08-17T17:44:00.000Z</time>
      </trkpt>
      <trkpt lat="43.08106410317122936248779296875" lon="-6.07356534339487552642822265625">
        <ele>1475.199951171875</ele>
        <time>2021-08-17T17:44:07.000Z</time>
      </trkpt>
      <trkpt lat="43.0810549668967723846435546875" lon="-6.07359015382826328277587890625">
        <ele>1475</ele>
        <time>2021-08-17T17:44:10.000Z</time>
      </trkpt>
      <trkpt lat="43.08104281313717365264892578125" lon="-6.0736485756933689117431640625">
        <ele>1475.199951171875</ele>
        <time>2021-08-17T17:44:20.000Z</time>
      </trkpt>
      <trkpt lat="43.0810076929628849029541015625" lon="-6.07361563481390476226806640625">
        <ele>1475</ele>
        <time>2021-08-17T17:44:33.000Z</time>
      </trkpt>
      <trkpt lat="43.08099755086004734039306640625" lon="-6.0736167244613170623779296875">
        <ele>1475.199951171875</ele>
        <time>2021-08-17T17:44:44.000Z</time>
      </trkpt>
      <trkpt lat="43.080995120108127593994140625" lon="-6.073615886270999908447265625">
        <ele>1475.4000244140625</ele>
        <time>2021-08-17T17:44:45.000Z</time>
      </trkpt>
      <trkpt lat="43.08099545538425445556640625" lon="-6.07361731119453907012939453125">
        <ele>1475.4000244140625</ele>
        <time>2021-08-17T17:44:47.000Z</time>
      </trkpt>
      <trkpt lat="43.08099553920328617095947265625" lon="-6.07361881993710994720458984375">
        <ele>1475.4000244140625</ele>
        <time>2021-08-17T17:44:54.000Z</time>
      </trkpt>
      <trkpt lat="43.08097441680729389190673828125" lon="-6.07363625429570674896240234375">
        <ele>1475.5999755859375</ele>
        <time>2021-08-17T17:45:00.000Z</time>
      </trkpt>
      <trkpt lat="43.080967627465724945068359375" lon="-6.07364111579954624176025390625">
        <ele>1475.5999755859375</ele>
        <time>2021-08-17T17:45:01.000Z</time>
      </trkpt>
      <trkpt lat="43.080956228077411651611328125" lon="-6.073652766644954681396484375">
        <ele>1475.5999755859375</ele>
        <time>2021-08-17T17:45:03.000Z</time>
      </trkpt>
      <trkpt lat="43.08093510568141937255859375" lon="-6.0736760683357715606689453125">
        <ele>1475.800048828125</ele>
        <time>2021-08-17T17:45:07.000Z</time>
      </trkpt>
      <trkpt lat="43.080923371016979217529296875" lon="-6.07368688099086284637451171875">
        <ele>1476.199951171875</ele>
        <time>2021-08-17T17:45:09.000Z</time>
      </trkpt>
      <trkpt lat="43.0809134803712368011474609375" lon="-6.0736958496272563934326171875">
        <ele>1476.4000244140625</ele>
        <time>2021-08-17T17:45:11.000Z</time>
      </trkpt>
      <trkpt lat="43.0809076130390167236328125" lon="-6.07370113022625446319580078125">
        <ele>1476.5999755859375</ele>
        <time>2021-08-17T17:45:12.000Z</time>
      </trkpt>
      <trkpt lat="43.08089353144168853759765625" lon="-6.07370951212942600250244140625">
        <ele>1476.800048828125</ele>
        <time>2021-08-17T17:45:15.000Z</time>
      </trkpt>
      <trkpt lat="43.08088925667107105255126953125" lon="-6.07370741665363311767578125">
        <ele>1477.4000244140625</ele>
        <time>2021-08-17T17:45:17.000Z</time>
      </trkpt>
      <trkpt lat="43.08089696802198886871337890625" lon="-6.07371621765196323394775390625">
        <ele>1477.4000244140625</ele>
        <time>2021-08-17T17:45:24.000Z</time>
      </trkpt>
      <trkpt lat="43.08090048842132091522216796875" lon="-6.07371755875647068023681640625">
        <ele>1477.5999755859375</ele>
        <time>2021-08-17T17:45:25.000Z</time>
      </trkpt>
      <trkpt lat="43.08090426027774810791015625" lon="-6.07372350990772247314453125">
        <ele>1477.5999755859375</ele>
        <time>2021-08-17T17:45:26.000Z</time>
      </trkpt>
      <trkpt lat="43.0809114687144756317138671875" lon="-6.07372879050672054290771484375">
        <ele>1477.5999755859375</ele>
        <time>2021-08-17T17:45:28.000Z</time>
      </trkpt>
      <trkpt lat="43.0809131450951099395751953125" lon="-6.07372996397316455841064453125">
        <ele>1477.5999755859375</ele>
        <time>2021-08-17T17:45:29.000Z</time>
      </trkpt>
      <trkpt lat="43.08091490529477596282958984375" lon="-6.07373381964862346649169921875">
        <ele>1477.800048828125</ele>
        <time>2021-08-17T17:45:30.000Z</time>
      </trkpt>
      <trkpt lat="43.08092244900763034820556640625" lon="-6.07374387793242931365966796875">
        <ele>1477.800048828125</ele>
        <time>2021-08-17T17:45:37.000Z</time>
      </trkpt>
      <trkpt lat="43.0809158273041248321533203125" lon="-6.07374790124595165252685546875">
        <ele>1477.800048828125</ele>
        <time>2021-08-17T17:45:50.000Z</time>
      </trkpt>
      <trkpt lat="43.0809144861996173858642578125" lon="-6.0737501643598079681396484375">
        <ele>1477.800048828125</ele>
        <time>2021-08-17T17:45:51.000Z</time>
      </trkpt>
      <trkpt lat="43.08091222308576107025146484375" lon="-6.07376583851873874664306640625">
        <ele>1478</ele>
        <time>2021-08-17T17:45:57.000Z</time>
      </trkpt>
      <trkpt lat="43.08090467937290668487548828125" lon="-6.0737696103751659393310546875">
        <ele>1478.199951171875</ele>
        <time>2021-08-17T17:46:00.000Z</time>
      </trkpt>
      <trkpt lat="43.0809047631919384002685546875" lon="-6.07377304695546627044677734375">
        <ele>1478.199951171875</ele>
        <time>2021-08-17T17:46:03.000Z</time>
      </trkpt>
      <trkpt lat="43.08090602047741413116455078125" lon="-6.073776818811893463134765625">
        <ele>1478.4000244140625</ele>
        <time>2021-08-17T17:46:05.000Z</time>
      </trkpt>
      <trkpt lat="43.080907948315143585205078125" lon="-6.07377405278384685516357421875">
        <ele>1478.4000244140625</ele>
        <time>2021-08-17T17:46:12.000Z</time>
      </trkpt>
      <trkpt lat="43.08091222308576107025146484375" lon="-6.0737789981067180633544921875">
        <ele>1478.4000244140625</ele>
        <time>2021-08-17T17:46:16.000Z</time>
      </trkpt>
      <trkpt lat="43.0809198506176471710205078125" lon="-6.07377958483994007110595703125">
        <ele>1478.4000244140625</ele>
        <time>2021-08-17T17:46:27.000Z</time>
      </trkpt>
      <trkpt lat="43.0809255503118038177490234375" lon="-6.0737805068492889404296875">
        <ele>1478.4000244140625</ele>
        <time>2021-08-17T17:46:31.000Z</time>
      </trkpt>
      <trkpt lat="43.08093401603400707244873046875" lon="-6.07377137057483196258544921875">
        <ele>1478.199951171875</ele>
        <time>2021-08-17T17:46:45.000Z</time>
      </trkpt>
      <trkpt lat="43.0809339322149753570556640625" lon="-6.07377204112708568572998046875">
        <ele>1478.199951171875</ele>
        <time>2021-08-17T17:46:46.000Z</time>
      </trkpt>
      <trkpt lat="43.0809451639652252197265625" lon="-6.07379081659018993377685546875">
        <ele>1478.199951171875</ele>
        <time>2021-08-17T17:46:50.000Z</time>
      </trkpt>
      <trkpt lat="43.0809476785361766815185546875" lon="-6.07379634864628314971923828125">
        <ele>1478.4000244140625</ele>
        <time>2021-08-17T17:46:51.000Z</time>
      </trkpt>
      <trkpt lat="43.08095128275454044342041015625" lon="-6.07384043745696544647216796875">
        <ele>1478.5999755859375</ele>
        <time>2021-08-17T17:46:56.000Z</time>
      </trkpt>
      <trkpt lat="43.08094994165003299713134765625" lon="-6.0738805867731571197509765625">
        <ele>1479.199951171875</ele>
        <time>2021-08-17T17:47:02.000Z</time>
      </trkpt>
      <trkpt lat="43.08094826526939868927001953125" lon="-6.0738950036466121673583984375">
        <ele>1479.4000244140625</ele>
        <time>2021-08-17T17:47:04.000Z</time>
      </trkpt>
      <trkpt lat="43.0809607543051242828369140625" lon="-6.07393213547766208648681640625">
        <ele>1479.800048828125</ele>
        <time>2021-08-17T17:47:08.000Z</time>
      </trkpt>
      <trkpt lat="43.0809848941862583160400390625" lon="-6.07395543716847896575927734375">
        <ele>1480.199951171875</ele>
        <time>2021-08-17T17:47:12.000Z</time>
      </trkpt>
      <trkpt lat="43.08099721558392047882080078125" lon="-6.0739697702229022979736328125">
        <ele>1480.199951171875</ele>
        <time>2021-08-17T17:47:14.000Z</time>
      </trkpt>
      <trkpt lat="43.08100459165871143341064453125" lon="-6.07400975190103054046630859375">
        <ele>1480.199951171875</ele>
        <time>2021-08-17T17:47:18.000Z</time>
      </trkpt>
      <trkpt lat="43.08100274764001369476318359375" lon="-6.07401964254677295684814453125">
        <ele>1480.4000244140625</ele>
        <time>2021-08-17T17:47:19.000Z</time>
      </trkpt>
      <trkpt lat="43.08100107125937938690185546875" lon="-6.074026264250278472900390625">
        <ele>1480.4000244140625</ele>
        <time>2021-08-17T17:47:20.000Z</time>
      </trkpt>
      <trkpt lat="43.08099671266973018646240234375" lon="-6.07403062283992767333984375">
        <ele>1480.5999755859375</ele>
        <time>2021-08-17T17:47:22.000Z</time>
      </trkpt>
      <trkpt lat="43.08099403046071529388427734375" lon="-6.07403338886797428131103515625">
        <ele>1480.800048828125</ele>
        <time>2021-08-17T17:47:23.000Z</time>
      </trkpt>
      <trkpt lat="43.08099201880395412445068359375" lon="-6.07403934001922607421875">
        <ele>1480.800048828125</ele>
        <time>2021-08-17T17:47:24.000Z</time>
      </trkpt>
      <trkpt lat="43.08099101297557353973388671875" lon="-6.07404629699885845184326171875">
        <ele>1480.800048828125</ele>
        <time>2021-08-17T17:47:25.000Z</time>
      </trkpt>
      <trkpt lat="43.08098179288208484649658203125" lon="-6.07407965697348117828369140625">
        <ele>1481</ele>
        <time>2021-08-17T17:47:29.000Z</time>
      </trkpt>
      <trkpt lat="43.08097592554986476898193359375" lon="-6.07408602721989154815673828125">
        <ele>1481.199951171875</ele>
        <time>2021-08-17T17:47:30.000Z</time>
      </trkpt>
      <trkpt lat="43.0809597484767436981201171875" lon="-6.07408803887665271759033203125">
        <ele>1481.4000244140625</ele>
        <time>2021-08-17T17:47:32.000Z</time>
      </trkpt>
      <trkpt lat="43.0809295736253261566162109375" lon="-6.0741052217781543731689453125">
        <ele>1482.199951171875</ele>
        <time>2021-08-17T17:47:38.000Z</time>
      </trkpt>
      <trkpt lat="43.0809076130390167236328125" lon="-6.074104718863964080810546875">
        <ele>1482.4000244140625</ele>
        <time>2021-08-17T17:47:41.000Z</time>
      </trkpt>
      <trkpt lat="43.080895207822322845458984375" lon="-6.07410161755979061126708984375">
        <ele>1482.5999755859375</ele>
        <time>2021-08-17T17:47:43.000Z</time>
      </trkpt>
      <trkpt lat="43.0808781087398529052734375" lon="-6.074089966714382171630859375">
        <ele>1482.800048828125</ele>
        <time>2021-08-17T17:47:50.000Z</time>
      </trkpt>
      <trkpt lat="43.08087450452148914337158203125" lon="-6.07409575022757053375244140625">
        <ele>1482.800048828125</ele>
        <time>2021-08-17T17:47:52.000Z</time>
      </trkpt>
      <trkpt lat="43.080875091254711151123046875" lon="-6.074100695550441741943359375">
        <ele>1482.5999755859375</ele>
        <time>2021-08-17T17:47:53.000Z</time>
      </trkpt>
      <trkpt lat="43.080855309963226318359375" lon="-6.07414587400853633880615234375">
        <ele>1483.199951171875</ele>
        <time>2021-08-17T17:48:00.000Z</time>
      </trkpt>
      <trkpt lat="43.0808440782129764556884765625" lon="-6.07417546212673187255859375">
        <ele>1483.4000244140625</ele>
        <time>2021-08-17T17:48:03.000Z</time>
      </trkpt>
      <trkpt lat="43.080838210880756378173828125" lon="-6.074171103537082672119140625">
        <ele>1483.5999755859375</ele>
        <time>2021-08-17T17:48:04.000Z</time>
      </trkpt>
      <trkpt lat="43.08083326555788516998291015625" lon="-6.074164398014545440673828125">
        <ele>1483.5999755859375</ele>
        <time>2021-08-17T17:48:05.000Z</time>
      </trkpt>
      <trkpt lat="43.08079739101231098175048828125" lon="-6.0741397552192211151123046875">
        <ele>1483.4000244140625</ele>
        <time>2021-08-17T17:48:11.000Z</time>
      </trkpt>
      <trkpt lat="43.08078565634787082672119140625" lon="-6.0741360671818256378173828125">
        <ele>1483.5999755859375</ele>
        <time>2021-08-17T17:48:16.000Z</time>
      </trkpt>
      <trkpt lat="43.08080811984837055206298828125" lon="-6.07410346157848834991455078125">
        <ele>1484.199951171875</ele>
        <time>2021-08-17T17:48:26.000Z</time>
      </trkpt>
      <trkpt lat="43.08080761693418025970458984375" lon="-6.074100024998188018798828125">
        <ele>1483.5999755859375</ele>
        <time>2021-08-17T17:48:30.000Z</time>
      </trkpt>
      <trkpt lat="43.08079370297491550445556640625" lon="-6.07410547323524951934814453125">
        <ele>1483.199951171875</ele>
        <time>2021-08-17T17:48:37.000Z</time>
      </trkpt>
      <trkpt lat="43.08078381232917308807373046875" lon="-6.07412139885127544403076171875">
        <ele>1484.4000244140625</ele>
        <time>2021-08-17T17:48:45.000Z</time>
      </trkpt>
      <trkpt lat="43.08077895082533359527587890625" lon="-6.07412374578416347503662109375">
        <ele>1484.5999755859375</ele>
        <time>2021-08-17T17:48:47.000Z</time>
      </trkpt>
      <trkpt lat="43.08077283203601837158203125" lon="-6.07412273995578289031982421875">
        <ele>1484.800048828125</ele>
        <time>2021-08-17T17:48:54.000Z</time>
      </trkpt>
      <trkpt lat="43.080767802894115447998046875" lon="-6.07412156648933887481689453125">
        <ele>1484.800048828125</ele>
        <time>2021-08-17T17:49:03.000Z</time>
      </trkpt>
      <trkpt lat="43.08076101355254650115966796875" lon="-6.07411871664226055145263671875">
        <ele>1485</ele>
        <time>2021-08-17T17:49:13.000Z</time>
      </trkpt>
      <trkpt lat="43.080764450132846832275390625" lon="-6.0741193033754825592041015625">
        <ele>1484.800048828125</ele>
        <time>2021-08-17T17:49:19.000Z</time>
      </trkpt>
      <trkpt lat="43.08075615204870700836181640625" lon="-6.074114777147769927978515625">
        <ele>1485</ele>
        <time>2021-08-17T17:49:30.000Z</time>
      </trkpt>
      <trkpt lat="43.08075749315321445465087890625" lon="-6.0741131007671356201171875">
        <ele>1485</ele>
        <time>2021-08-17T17:49:31.000Z</time>
      </trkpt>
      <trkpt lat="43.080766461789608001708984375" lon="-6.074101366102695465087890625">
        <ele>1484.4000244140625</ele>
        <time>2021-08-17T17:49:41.000Z</time>
      </trkpt>
      <trkpt lat="43.080768473446369171142578125" lon="-6.0740996897220611572265625">
        <ele>1484.4000244140625</ele>
        <time>2021-08-17T17:49:43.000Z</time>
      </trkpt>
      <trkpt lat="43.08077191002666950225830078125" lon="-6.07410371303558349609375">
        <ele>1484.199951171875</ele>
        <time>2021-08-17T17:49:47.000Z</time>
      </trkpt>
      <trkpt lat="43.08076704852283000946044921875" lon="-6.07411586679518222808837890625">
        <ele>1484.5999755859375</ele>
        <time>2021-08-17T17:50:00.000Z</time>
      </trkpt>
      <trkpt lat="43.08078146539628505706787109375" lon="-6.07412592507898807525634765625">
        <ele>1484.800048828125</ele>
        <time>2021-08-17T17:50:08.000Z</time>
      </trkpt>
      <trkpt lat="43.08079135604202747344970703125" lon="-6.0741236619651317596435546875">
        <ele>1484.800048828125</ele>
        <time>2021-08-17T17:50:14.000Z</time>
      </trkpt>
      <trkpt lat="43.080796636641025543212890625" lon="-6.0741216503083705902099609375">
        <ele>1484.800048828125</ele>
        <time>2021-08-17T17:50:19.000Z</time>
      </trkpt>
      <trkpt lat="43.08078113012015819549560546875" lon="-6.0741330496966838836669921875">
        <ele>1484.800048828125</ele>
        <time>2021-08-17T17:50:26.000Z</time>
      </trkpt>
      <trkpt lat="43.0807733349502086639404296875" lon="-6.0741260088980197906494140625">
        <ele>1484.800048828125</ele>
        <time>2021-08-17T17:50:29.000Z</time>
      </trkpt>
      <trkpt lat="43.08078113012015819549560546875" lon="-6.0741198062896728515625">
        <ele>1484.800048828125</ele>
        <time>2021-08-17T17:50:36.000Z</time>
      </trkpt>
      <trkpt lat="43.08074693195521831512451171875" lon="-6.074105389416217803955078125">
        <ele>1484.800048828125</ele>
        <time>2021-08-17T17:50:44.000Z</time>
      </trkpt>
      <trkpt lat="43.0807156674563884735107421875" lon="-6.07407714240252971649169921875">
        <ele>1484.800048828125</ele>
        <time>2021-08-17T17:50:57.000Z</time>
      </trkpt>
      <trkpt lat="43.08070066384971141815185546875" lon="-6.0740763880312442779541015625">
        <ele>1484.800048828125</ele>
        <time>2021-08-17T17:51:00.000Z</time>
      </trkpt>
      <trkpt lat="43.080677278339862823486328125" lon="-6.0740810818970203399658203125">
        <ele>1484.800048828125</ele>
        <time>2021-08-17T17:51:07.000Z</time>
      </trkpt>
      <trkpt lat="43.0806683935225009918212890625" lon="-6.07409189455211162567138671875">
        <ele>1484.800048828125</ele>
        <time>2021-08-17T17:51:10.000Z</time>
      </trkpt>
      <trkpt lat="43.0806506238877773284912109375" lon="-6.0741105861961841583251953125">
        <ele>1484.800048828125</ele>
        <time>2021-08-17T17:51:13.000Z</time>
      </trkpt>
      <trkpt lat="43.0806286633014678955078125" lon="-6.0741266794502735137939453125">
        <ele>1484.800048828125</ele>
        <time>2021-08-17T17:51:16.000Z</time>
      </trkpt>
      <trkpt lat="43.0806045234203338623046875" lon="-6.0741427727043628692626953125">
        <ele>1484.800048828125</ele>
        <time>2021-08-17T17:51:20.000Z</time>
      </trkpt>
      <trkpt lat="43.08059169910848140716552734375" lon="-6.07415375299751758575439453125">
        <ele>1484.800048828125</ele>
        <time>2021-08-17T17:51:23.000Z</time>
      </trkpt>
      <trkpt lat="43.08058063499629497528076171875" lon="-6.07416599057614803314208984375">
        <ele>1486.4000244140625</ele>
        <time>2021-08-17T17:51:25.000Z</time>
      </trkpt>
      <trkpt lat="43.08057568967342376708984375" lon="-6.0741689242422580718994140625">
        <ele>1487.800048828125</ele>
        <time>2021-08-17T17:51:26.000Z</time>
      </trkpt>
      <trkpt lat="43.08056605048477649688720703125" lon="-6.07416951097548007965087890625">
        <ele>1489</ele>
        <time>2021-08-17T17:51:28.000Z</time>
      </trkpt>
      <trkpt lat="43.080562613904476165771484375" lon="-6.07417034916579723358154296875">
        <ele>1489.199951171875</ele>
        <time>2021-08-17T17:51:29.000Z</time>
      </trkpt>
      <trkpt lat="43.08055230416357517242431640625" lon="-6.0741783119738101959228515625">
        <ele>1489.5999755859375</ele>
        <time>2021-08-17T17:51:31.000Z</time>
      </trkpt>
      <trkpt lat="43.08054727502167224884033203125" lon="-6.074179820716381072998046875">
        <ele>1489.5999755859375</ele>
        <time>2021-08-17T17:51:32.000Z</time>
      </trkpt>
      <trkpt lat="43.0805443413555622100830078125" lon="-6.07418208383023738861083984375">
        <ele>1490</ele>
        <time>2021-08-17T17:51:33.000Z</time>
      </trkpt>
      <trkpt lat="43.0805428326129913330078125" lon="-6.07418711297214031219482421875">
        <ele>1490.199951171875</ele>
        <time>2021-08-17T17:51:34.000Z</time>
      </trkpt>
      <trkpt lat="43.08054216206073760986328125" lon="-6.07419147156178951263427734375">
        <ele>1490.5999755859375</ele>
        <time>2021-08-17T17:51:36.000Z</time>
      </trkpt>
      <trkpt lat="43.08052933774888515472412109375" lon="-6.07420764863491058349609375">
        <ele>1491.199951171875</ele>
        <time>2021-08-17T17:51:41.000Z</time>
      </trkpt>
      <trkpt lat="43.08053302578628063201904296875" lon="-6.07420957647264003753662109375">
        <ele>1491.199951171875</ele>
        <time>2021-08-17T17:51:43.000Z</time>
      </trkpt>
      <trkpt lat="43.0805322714149951934814453125" lon="-6.0742056369781494140625">
        <ele>1491.5999755859375</ele>
        <time>2021-08-17T17:51:46.000Z</time>
      </trkpt>
      <trkpt lat="43.08052229695022106170654296875" lon="-6.0741964168846607208251953125">
        <ele>1491.800048828125</ele>
        <time>2021-08-17T17:51:52.000Z</time>
      </trkpt>
      <trkpt lat="43.08051760308444499969482421875" lon="-6.074177809059619903564453125">
        <ele>1491.5999755859375</ele>
        <time>2021-08-17T17:51:56.000Z</time>
      </trkpt>
      <trkpt lat="43.08051265776157379150390625" lon="-6.07417705468833446502685546875">
        <ele>1492.4000244140625</ele>
        <time>2021-08-17T17:51:59.000Z</time>
      </trkpt>
      <trkpt lat="43.08050083927810192108154296875" lon="-6.07419013045728206634521484375">
        <ele>1493.4000244140625</ele>
        <time>2021-08-17T17:52:04.000Z</time>
      </trkpt>
      <trkpt lat="43.08048851788043975830078125" lon="-6.07420094311237335205078125">
        <ele>1494.4000244140625</ele>
        <time>2021-08-17T17:52:09.000Z</time>
      </trkpt>
      <trkpt lat="43.08047921396791934967041015625" lon="-6.07420018874108791351318359375">
        <ele>1495</ele>
        <time>2021-08-17T17:52:13.000Z</time>
      </trkpt>
      <trkpt lat="43.08046965859830379486083984375" lon="-6.0742145217955112457275390625">
        <ele>1495.5999755859375</ele>
        <time>2021-08-17T17:52:18.000Z</time>
      </trkpt>
      <trkpt lat="43.080461360514163970947265625" lon="-6.07423623092472553253173828125">
        <ele>1495.5999755859375</ele>
        <time>2021-08-17T17:52:20.000Z</time>
      </trkpt>
      <trkpt lat="43.08043931610882282257080078125" lon="-6.07427763752639293670654296875">
        <ele>1496.5999755859375</ele>
        <time>2021-08-17T17:52:25.000Z</time>
      </trkpt>
      <trkpt lat="43.0804355442523956298828125" lon="-6.074304878711700439453125">
        <ele>1497.5999755859375</ele>
        <time>2021-08-17T17:52:28.000Z</time>
      </trkpt>
      <trkpt lat="43.08043998666107654571533203125" lon="-6.074315942823886871337890625">
        <ele>1498</ele>
        <time>2021-08-17T17:52:29.000Z</time>
      </trkpt>
      <trkpt lat="43.08043646626174449920654296875" lon="-6.07435273937880992889404296875">
        <ele>1498.800048828125</ele>
        <time>2021-08-17T17:52:35.000Z</time>
      </trkpt>
      <trkpt lat="43.08043680153787136077880859375" lon="-6.074358858168125152587890625">
        <ele>1499</ele>
        <time>2021-08-17T17:52:36.000Z</time>
      </trkpt>
      <trkpt lat="43.0804551579058170318603515625" lon="-6.07437822036445140838623046875">
        <ele>1499.199951171875</ele>
        <time>2021-08-17T17:52:42.000Z</time>
      </trkpt>
      <trkpt lat="43.080447949469089508056640625" lon="-6.074369251728057861328125">
        <ele>1499.5999755859375</ele>
        <time>2021-08-17T17:52:52.000Z</time>
      </trkpt>
      <trkpt lat="43.0804461054503917694091796875" lon="-6.07437067665159702301025390625">
        <ele>1499.5999755859375</ele>
        <time>2021-08-17T17:52:53.000Z</time>
      </trkpt>
      <trkpt lat="43.08044954203069210052490234375" lon="-6.074375621974468231201171875">
        <ele>1499.5999755859375</ele>
        <time>2021-08-17T17:52:56.000Z</time>
      </trkpt>
      <trkpt lat="43.08045633137226104736328125" lon="-6.0743710957467555999755859375">
        <ele>1499.5999755859375</ele>
        <time>2021-08-17T17:53:02.000Z</time>
      </trkpt>
      <trkpt lat="43.08046161197125911712646484375" lon="-6.074370928108692169189453125">
        <ele>1499.5999755859375</ele>
        <time>2021-08-17T17:53:04.000Z</time>
      </trkpt>
      <trkpt lat="43.08045842684805393218994140625" lon="-6.07438123784959316253662109375">
        <ele>1499.5999755859375</ele>
        <time>2021-08-17T17:53:08.000Z</time>
      </trkpt>
      <trkpt lat="43.08046161197125911712646484375" lon="-6.07439381070435047149658203125">
        <ele>1499.5999755859375</ele>
        <time>2021-08-17T17:53:11.000Z</time>
      </trkpt>
      <trkpt lat="43.0804568342864513397216796875" lon="-6.07438710518181324005126953125">
        <ele>1500</ele>
        <time>2021-08-17T17:53:15.000Z</time>
      </trkpt>
      <trkpt lat="43.0804489552974700927734375" lon="-6.07438911683857440948486328125">
        <ele>1499.4000244140625</ele>
        <time>2021-08-17T17:53:19.000Z</time>
      </trkpt>
      <trkpt lat="43.08043956756591796875" lon="-6.0743798129260540008544921875">
        <ele>1499</ele>
        <time>2021-08-17T17:53:23.000Z</time>
      </trkpt>
      <trkpt lat="43.0804306827485561370849609375" lon="-6.07436858117580413818359375">
        <ele>1499.5999755859375</ele>
        <time>2021-08-17T17:53:27.000Z</time>
      </trkpt>
      <trkpt lat="43.08041819371283054351806640625" lon="-6.07434846460819244384765625">
        <ele>1500</ele>
        <time>2021-08-17T17:53:30.000Z</time>
      </trkpt>
      <trkpt lat="43.08040402829647064208984375" lon="-6.0743275098502635955810546875">
        <ele>1500</ele>
        <time>2021-08-17T17:53:36.000Z</time>
      </trkpt>
      <trkpt lat="43.08039740659296512603759765625" lon="-6.07432507909834384918212890625">
        <ele>1500</ele>
        <time>2021-08-17T17:53:37.000Z</time>
      </trkpt>
      <trkpt lat="43.08037444017827510833740234375" lon="-6.07436212711036205291748046875">
        <ele>1500.800048828125</ele>
        <time>2021-08-17T17:53:44.000Z</time>
      </trkpt>
      <trkpt lat="43.080362118780612945556640625" lon="-6.0743664018809795379638671875">
        <ele>1501.4000244140625</ele>
        <time>2021-08-17T17:53:46.000Z</time>
      </trkpt>
      <trkpt lat="43.0803448520600795745849609375" lon="-6.074360869824886322021484375">
        <ele>1501.800048828125</ele>
        <time>2021-08-17T17:53:47.000Z</time>
      </trkpt>
      <trkpt lat="43.08034191839396953582763671875" lon="-6.07437193393707275390625">
        <ele>1502.4000244140625</ele>
        <time>2021-08-17T17:53:49.000Z</time>
      </trkpt>
      <trkpt lat="43.08033856563270092010498046875" lon="-6.074375621974468231201171875">
        <ele>1502.800048828125</ele>
        <time>2021-08-17T17:53:50.000Z</time>
      </trkpt>
      <trkpt lat="43.08032917790114879608154296875" lon="-6.07437838800251483917236328125">
        <ele>1503.5999755859375</ele>
        <time>2021-08-17T17:53:53.000Z</time>
      </trkpt>
      <trkpt lat="43.08031727559864521026611328125" lon="-6.07437587343156337738037109375">
        <ele>1504</ele>
        <time>2021-08-17T17:53:54.000Z</time>
      </trkpt>
      <trkpt lat="43.08031191118061542510986328125" lon="-6.074377633631229400634765625">
        <ele>1504.4000244140625</ele>
        <time>2021-08-17T17:53:55.000Z</time>
      </trkpt>
      <trkpt lat="43.080302774906158447265625" lon="-6.07438609935343265533447265625">
        <ele>1504.800048828125</ele>
        <time>2021-08-17T17:53:57.000Z</time>
      </trkpt>
      <trkpt lat="43.08030210435390472412109375" lon="-6.07438827864825725555419921875">
        <ele>1505</ele>
        <time>2021-08-17T17:53:58.000Z</time>
      </trkpt>
      <trkpt lat="43.08029095642268657684326171875" lon="-6.074403785169124603271484375">
        <ele>1505.800048828125</ele>
        <time>2021-08-17T17:54:01.000Z</time>
      </trkpt>
      <trkpt lat="43.0802821554243564605712890625" lon="-6.07441962696611881256103515625">
        <ele>1506.4000244140625</ele>
        <time>2021-08-17T17:54:04.000Z</time>
      </trkpt>
      <trkpt lat="43.08027804829180240631103515625" lon="-6.0744287632405757904052734375">
        <ele>1506.800048828125</ele>
        <time>2021-08-17T17:54:06.000Z</time>
      </trkpt>
      <trkpt lat="43.08026949875056743621826171875" lon="-6.07444846071302890777587890625">
        <ele>1508.199951171875</ele>
        <time>2021-08-17T17:54:10.000Z</time>
      </trkpt>
      <trkpt lat="43.0802741087973117828369140625" lon="-6.0744609497487545013427734375">
        <ele>1508.4000244140625</ele>
        <time>2021-08-17T17:54:12.000Z</time>
      </trkpt>
      <trkpt lat="43.08026430197060108184814453125" lon="-6.07447293587028980255126953125">
        <ele>1509.199951171875</ele>
        <time>2021-08-17T17:54:16.000Z</time>
      </trkpt>
      <trkpt lat="43.08025181293487548828125" lon="-6.07448131777346134185791015625">
        <ele>1510.199951171875</ele>
        <time>2021-08-17T17:54:19.000Z</time>
      </trkpt>
      <trkpt lat="43.08026195503771305084228515625" lon="-6.0744897834956645965576171875">
        <ele>1510.4000244140625</ele>
        <time>2021-08-17T17:54:20.000Z</time>
      </trkpt>
      <trkpt lat="43.080261535942554473876953125" lon="-6.07451652176678180694580078125">
        <ele>1510.800048828125</ele>
        <time>2021-08-17T17:54:24.000Z</time>
      </trkpt>
      <trkpt lat="43.080262206494808197021484375" lon="-6.0745286755263805389404296875">
        <ele>1510.800048828125</ele>
        <time>2021-08-17T17:54:25.000Z</time>
      </trkpt>
      <trkpt lat="43.0802692472934722900390625" lon="-6.07455189339816570281982421875">
        <ele>1511.4000244140625</ele>
        <time>2021-08-17T17:54:30.000Z</time>
      </trkpt>
      <trkpt lat="43.08025876991450786590576171875" lon="-6.0745447687804698944091796875">
        <ele>1512.5999755859375</ele>
        <time>2021-08-17T17:54:34.000Z</time>
      </trkpt>
      <trkpt lat="43.080254495143890380859375" lon="-6.07454359531402587890625">
        <ele>1512.800048828125</ele>
        <time>2021-08-17T17:54:35.000Z</time>
      </trkpt>
      <trkpt lat="43.08024980127811431884765625" lon="-6.074543260037899017333984375">
        <ele>1513.5999755859375</ele>
        <time>2021-08-17T17:54:37.000Z</time>
      </trkpt>
      <trkpt lat="43.0802459456026554107666015625" lon="-6.07452909462153911590576171875">
        <ele>1513.4000244140625</ele>
        <time>2021-08-17T17:54:53.000Z</time>
      </trkpt>
      <trkpt lat="43.0802456103265285491943359375" lon="-6.0745296813547611236572265625">
        <ele>1513.4000244140625</ele>
        <time>2021-08-17T17:54:54.000Z</time>
      </trkpt>
      <trkpt lat="43.08025156147778034210205078125" lon="-6.07453496195375919342041015625">
        <ele>1513.199951171875</ele>
        <time>2021-08-17T17:54:57.000Z</time>
      </trkpt>
      <trkpt lat="43.08026715181767940521240234375" lon="-6.074534542858600616455078125">
        <ele>1513.199951171875</ele>
        <time>2021-08-17T17:55:00.000Z</time>
      </trkpt>
      <trkpt lat="43.080287016928195953369140625" lon="-6.07453890144824981689453125">
        <ele>1513.4000244140625</ele>
        <time>2021-08-17T17:55:08.000Z</time>
      </trkpt>
      <trkpt lat="43.08027922175824642181396484375" lon="-6.07453580014407634735107421875">
        <ele>1513.4000244140625</ele>
        <time>2021-08-17T17:55:11.000Z</time>
      </trkpt>
      <trkpt lat="43.08027394115924835205078125" lon="-6.0745209641754627227783203125">
        <ele>1513.5999755859375</ele>
        <time>2021-08-17T17:55:15.000Z</time>
      </trkpt>
      <trkpt lat="43.0802264995872974395751953125" lon="-6.07451233081519603729248046875">
        <ele>1514.4000244140625</ele>
        <time>2021-08-17T17:55:25.000Z</time>
      </trkpt>
      <trkpt lat="43.080225996673107147216796875" lon="-6.0745115764439105987548828125">
        <ele>1514.4000244140625</ele>
        <time>2021-08-17T17:55:26.000Z</time>
      </trkpt>
      <trkpt lat="43.0802228115499019622802734375" lon="-6.074512414634227752685546875">
        <ele>1514.5999755859375</ele>
        <time>2021-08-17T17:55:27.000Z</time>
      </trkpt>
      <trkpt lat="43.080198504030704498291015625" lon="-6.0745199583470821380615234375">
        <ele>1515.4000244140625</ele>
        <time>2021-08-17T17:55:31.000Z</time>
      </trkpt>
      <trkpt lat="43.08019624091684818267822265625" lon="-6.0745206288993358612060546875">
        <ele>1515.800048828125</ele>
        <time>2021-08-17T17:55:32.000Z</time>
      </trkpt>
      <trkpt lat="43.08018601499497890472412109375" lon="-6.07452280819416046142578125">
        <ele>1516.5999755859375</ele>
        <time>2021-08-17T17:55:36.000Z</time>
      </trkpt>
      <trkpt lat="43.08018098585307598114013671875" lon="-6.07451610267162322998046875">
        <ele>1516.800048828125</ele>
        <time>2021-08-17T17:55:39.000Z</time>
      </trkpt>
      <trkpt lat="43.08016723953187465667724609375" lon="-6.07451166026294231414794921875">
        <ele>1517</ele>
        <time>2021-08-17T17:55:48.000Z</time>
      </trkpt>
      <trkpt lat="43.0801678262650966644287109375" lon="-6.0745095647871494293212890625">
        <ele>1517</ele>
        <time>2021-08-17T17:55:49.000Z</time>
      </trkpt>
      <trkpt lat="43.08015483431518077850341796875" lon="-6.07451207935810089111328125">
        <ele>1517.199951171875</ele>
        <time>2021-08-17T17:55:52.000Z</time>
      </trkpt>
      <trkpt lat="43.08015550486743450164794921875" lon="-6.07451149262487888336181640625">
        <ele>1517.800048828125</ele>
        <time>2021-08-17T17:55:57.000Z</time>
      </trkpt>
      <trkpt lat="43.08015324175357818603515625" lon="-6.0745119117200374603271484375">
        <ele>1518</ele>
        <time>2021-08-17T17:55:58.000Z</time>
      </trkpt>
      <trkpt lat="43.080141507089138031005859375" lon="-6.07451266609132289886474609375">
        <ele>1518.5999755859375</ele>
        <time>2021-08-17T17:56:03.000Z</time>
      </trkpt>
      <trkpt lat="43.0801430158317089080810546875" lon="-6.07451266609132289886474609375">
        <ele>1518.800048828125</ele>
        <time>2021-08-17T17:56:06.000Z</time>
      </trkpt>
      <trkpt lat="43.08014745824038982391357421875" lon="-6.07451350428164005279541015625">
        <ele>1518.800048828125</ele>
        <time>2021-08-17T17:56:09.000Z</time>
      </trkpt>
      <trkpt lat="43.08014385402202606201171875" lon="-6.07450805604457855224609375">
        <ele>1519</ele>
        <time>2021-08-17T17:56:10.000Z</time>
      </trkpt>
      <trkpt lat="43.080142177641391754150390625" lon="-6.07451031915843486785888671875">
        <ele>1519</ele>
        <time>2021-08-17T17:56:11.000Z</time>
      </trkpt>
      <trkpt lat="43.08013672940433025360107421875" lon="-6.074507050216197967529296875">
        <ele>1519.199951171875</ele>
        <time>2021-08-17T17:56:13.000Z</time>
      </trkpt>
      <trkpt lat="43.0801329575479030609130859375" lon="-6.07450537383556365966796875">
        <ele>1519.4000244140625</ele>
        <time>2021-08-17T17:56:14.000Z</time>
      </trkpt>
      <trkpt lat="43.080126084387302398681640625" lon="-6.074501015245914459228515625">
        <ele>1519.5999755859375</ele>
        <time>2021-08-17T17:56:17.000Z</time>
      </trkpt>
      <trkpt lat="43.08011703193187713623046875" lon="-6.07450176961719989776611328125">
        <ele>1519.800048828125</ele>
        <time>2021-08-17T17:56:20.000Z</time>
      </trkpt>
      <trkpt lat="43.080109991133213043212890625" lon="-6.0745021887123584747314453125">
        <ele>1519.800048828125</ele>
        <time>2021-08-17T17:56:23.000Z</time>
      </trkpt>
      <trkpt lat="43.08010839857161045074462890625" lon="-6.07450244016945362091064453125">
        <ele>1519.5999755859375</ele>
        <time>2021-08-17T17:56:27.000Z</time>
      </trkpt>
      <trkpt lat="43.08011275716125965118408203125" lon="-6.07450780458748340606689453125">
        <ele>1519.5999755859375</ele>
        <time>2021-08-17T17:56:38.000Z</time>
      </trkpt>
      <trkpt lat="43.0801165290176868438720703125" lon="-6.0745092295110225677490234375">
        <ele>1519.5999755859375</ele>
        <time>2021-08-17T17:56:39.000Z</time>
      </trkpt>
      <trkpt lat="43.08011963032186031341552734375" lon="-6.074503026902675628662109375">
        <ele>1520</ele>
        <time>2021-08-17T17:56:42.000Z</time>
      </trkpt>
      <trkpt lat="43.08012214489281177520751953125" lon="-6.07450327835977077484130859375">
        <ele>1520</ele>
        <time>2021-08-17T17:56:44.000Z</time>
      </trkpt>
      <trkpt lat="43.0801182053983211517333984375" lon="-6.0745001770555973052978515625">
        <ele>1520</ele>
        <time>2021-08-17T17:56:48.000Z</time>
      </trkpt>
      <trkpt lat="43.0801178701221942901611328125" lon="-6.07450026087462902069091796875">
        <ele>1520</ele>
        <time>2021-08-17T17:56:49.000Z</time>
      </trkpt>
      <trkpt lat="43.080109991133213043212890625" lon="-6.07450135052204132080078125">
        <ele>1520.199951171875</ele>
        <time>2021-08-17T17:56:53.000Z</time>
      </trkpt>
      <trkpt lat="43.08010873384773731231689453125" lon="-6.07449741102755069732666015625">
        <ele>1520.199951171875</ele>
        <time>2021-08-17T17:56:57.000Z</time>
      </trkpt>
      <trkpt lat="43.08009448461234569549560546875" lon="-6.0745005123317241668701171875">
        <ele>1519.5999755859375</ele>
        <time>2021-08-17T17:57:05.000Z</time>
      </trkpt>
      <trkpt lat="43.08009968139231204986572265625" lon="-6.074504368007183074951171875">
        <ele>1519.800048828125</ele>
        <time>2021-08-17T17:57:07.000Z</time>
      </trkpt>
      <trkpt lat="43.0801029503345489501953125" lon="-6.0745068825781345367431640625">
        <ele>1519.800048828125</ele>
        <time>2021-08-17T17:57:08.000Z</time>
      </trkpt>
      <trkpt lat="43.08012298308312892913818359375" lon="-6.07451048679649829864501953125">
        <ele>1519.800048828125</ele>
        <time>2021-08-17T17:57:15.000Z</time>
      </trkpt>
      <trkpt lat="43.080130107700824737548828125" lon="-6.07450981624424457550048828125">
        <ele>1519.800048828125</ele>
        <time>2021-08-17T17:57:18.000Z</time>
      </trkpt>
      <trkpt lat="43.0801346339285373687744140625" lon="-6.07451048679649829864501953125">
        <ele>1520</ele>
        <time>2021-08-17T17:57:22.000Z</time>
      </trkpt>
      <trkpt lat="43.0801292695105075836181640625" lon="-6.074513085186481475830078125">
        <ele>1520</ele>
        <time>2021-08-17T17:57:32.000Z</time>
      </trkpt>
      <trkpt lat="43.08012901805341243743896484375" lon="-6.074516773223876953125">
        <ele>1520</ele>
        <time>2021-08-17T17:57:39.000Z</time>
      </trkpt>
      <trkpt lat="43.0801406688988208770751953125" lon="-6.07451819814741611480712890625">
        <ele>1520.199951171875</ele>
        <time>2021-08-17T17:57:55.000Z</time>
      </trkpt>
      <trkpt lat="43.08014024980366230010986328125" lon="-6.07451333664357662200927734375">
        <ele>1520</ele>
        <time>2021-08-17T17:58:06.000Z</time>
      </trkpt>
      <trkpt lat="43.08013840578496456146240234375" lon="-6.07450931333005428314208984375">
        <ele>1520</ele>
        <time>2021-08-17T17:58:13.000Z</time>
      </trkpt>
      <trkpt lat="43.08013102971017360687255859375" lon="-6.0745082236826419830322265625">
        <ele>1520</ele>
        <time>2021-08-17T17:58:24.000Z</time>
      </trkpt>
      <trkpt lat="43.08013178408145904541015625" lon="-6.07451015152037143707275390625">
        <ele>1520</ele>
        <time>2021-08-17T17:58:28.000Z</time>
      </trkpt>
      <trkpt lat="43.0801292695105075836181640625" lon="-6.0745192877948284149169921875">
        <ele>1520</ele>
        <time>2021-08-17T17:58:37.000Z</time>
      </trkpt>
      <trkpt lat="43.08012901805341243743896484375" lon="-6.07451886869966983795166015625">
        <ele>1520</ele>
        <time>2021-08-17T17:58:39.000Z</time>
      </trkpt>
      <trkpt lat="43.08012348599731922149658203125" lon="-6.07451786287128925323486328125">
        <ele>1520</ele>
        <time>2021-08-17T17:58:44.000Z</time>
      </trkpt>
      <trkpt lat="43.080121390521526336669921875" lon="-6.07451886869966983795166015625">
        <ele>1520</ele>
        <time>2021-08-17T17:58:46.000Z</time>
      </trkpt>
      <trkpt lat="43.080115355551242828369140625" lon="-6.07452440075576305389404296875">
        <ele>1520</ele>
        <time>2021-08-17T17:58:51.000Z</time>
      </trkpt>
      <trkpt lat="43.0801212228834629058837890625" lon="-6.0745246522128582000732421875">
        <ele>1520</ele>
        <time>2021-08-17T17:58:53.000Z</time>
      </trkpt>
      <trkpt lat="43.08012583293020725250244140625" lon="-6.07451719231903553009033203125">
        <ele>1520</ele>
        <time>2021-08-17T17:59:00.000Z</time>
      </trkpt>
      <trkpt lat="43.08012013323605060577392578125" lon="-6.0745060443878173828125">
        <ele>1520</ele>
        <time>2021-08-17T17:59:04.000Z</time>
      </trkpt>
      <trkpt lat="43.080126754939556121826171875" lon="-6.074497997760772705078125">
        <ele>1520</ele>
        <time>2021-08-17T17:59:06.000Z</time>
      </trkpt>
      <trkpt lat="43.0801235698163509368896484375" lon="-6.07448550872504711151123046875">
        <ele>1520</ele>
        <time>2021-08-17T17:59:08.000Z</time>
      </trkpt>
      <trkpt lat="43.08011175133287906646728515625" lon="-6.07446472160518169403076171875">
        <ele>1520</ele>
        <time>2021-08-17T17:59:12.000Z</time>
      </trkpt>
      <trkpt lat="43.08009683154523372650146484375" lon="-6.074448712170124053955078125">
        <ele>1520</ele>
        <time>2021-08-17T17:59:15.000Z</time>
      </trkpt>
      <trkpt lat="43.08008995838463306427001953125" lon="-6.074446029961109161376953125">
        <ele>1520</ele>
        <time>2021-08-17T17:59:16.000Z</time>
      </trkpt>
      <trkpt lat="43.08008157648146152496337890625" lon="-6.074433289468288421630859375">
        <ele>1520</ele>
        <time>2021-08-17T17:59:19.000Z</time>
      </trkpt>
      <trkpt lat="43.080068416893482208251953125" lon="-6.0744076408445835113525390625">
        <ele>1520</ele>
        <time>2021-08-17T17:59:26.000Z</time>
      </trkpt>
      <trkpt lat="43.08005743660032749176025390625" lon="-6.07440420426428318023681640625">
        <ele>1520</ele>
        <time>2021-08-17T17:59:29.000Z</time>
      </trkpt>
      <trkpt lat="43.08004503138363361358642578125" lon="-6.07440437190234661102294921875">
        <ele>1520</ele>
        <time>2021-08-17T17:59:41.000Z</time>
      </trkpt>
      <trkpt lat="43.0800397507846355438232421875" lon="-6.074397079646587371826171875">
        <ele>1520</ele>
        <time>2021-08-17T17:59:44.000Z</time>
      </trkpt>
      <trkpt lat="43.080039583146572113037109375" lon="-6.07439406216144561767578125">
        <ele>1520</ele>
        <time>2021-08-17T17:59:45.000Z</time>
      </trkpt>
      <trkpt lat="43.08002449572086334228515625" lon="-6.07437486760318279266357421875">
        <ele>1520</ele>
        <time>2021-08-17T17:59:53.000Z</time>
      </trkpt>
      <trkpt lat="43.07999356649816036224365234375" lon="-6.0743097402155399322509765625">
        <ele>1517</ele>
        <time>2021-08-17T18:00:04.000Z</time>
      </trkpt>
      <trkpt lat="43.07998350821435451507568359375" lon="-6.074295826256275177001953125">
        <ele>1516.800048828125</ele>
        <time>2021-08-17T18:00:06.000Z</time>
      </trkpt>
      <trkpt lat="43.07996682822704315185546875" lon="-6.07427780516445636749267578125">
        <ele>1516.5999755859375</ele>
        <time>2021-08-17T18:00:10.000Z</time>
      </trkpt>
      <trkpt lat="43.079955093562602996826171875" lon="-6.07427068054676055908203125">
        <ele>1516.5999755859375</ele>
        <time>2021-08-17T18:00:12.000Z</time>
      </trkpt>
      <trkpt lat="43.0799498967826366424560546875" lon="-6.0742659866809844970703125">
        <ele>1516.5999755859375</ele>
        <time>2021-08-17T18:00:14.000Z</time>
      </trkpt>
      <trkpt lat="43.07996590621769428253173828125" lon="-6.0742560960352420806884765625">
        <ele>1516.800048828125</ele>
        <time>2021-08-17T18:00:19.000Z</time>
      </trkpt>
      <trkpt lat="43.07996506802737712860107421875" lon="-6.07425324618816375732421875">
        <ele>1516.800048828125</ele>
        <time>2021-08-17T18:00:20.000Z</time>
      </trkpt>
      <trkpt lat="43.079969845712184906005859375" lon="-6.07425785623490810394287109375">
        <ele>1517</ele>
        <time>2021-08-17T18:00:23.000Z</time>
      </trkpt>
      <trkpt lat="43.07996213436126708984375" lon="-6.0742648132145404815673828125">
        <ele>1517</ele>
        <time>2021-08-17T18:00:29.000Z</time>
      </trkpt>
      <trkpt lat="43.0799549259245395660400390625" lon="-6.0742695070803165435791015625">
        <ele>1516.800048828125</ele>
        <time>2021-08-17T18:00:38.000Z</time>
      </trkpt>
      <trkpt lat="43.07996272109448909759521484375" lon="-6.07428082264959812164306640625">
        <ele>1516.5999755859375</ele>
        <time>2021-08-17T18:00:52.000Z</time>
      </trkpt>
      <trkpt lat="43.0799690075218677520751953125" lon="-6.07427780516445636749267578125">
        <ele>1515.800048828125</ele>
        <time>2021-08-17T18:00:59.000Z</time>
      </trkpt>
      <trkpt lat="43.079986609518527984619140625" lon="-6.07430177740752696990966796875">
        <ele>1515.5999755859375</ele>
        <time>2021-08-17T18:01:05.000Z</time>
      </trkpt>
      <trkpt lat="43.07998870499432086944580078125" lon="-6.07430831529200077056884765625">
        <ele>1515.5999755859375</ele>
        <time>2021-08-17T18:01:06.000Z</time>
      </trkpt>
      <trkpt lat="43.07999021373689174652099609375" lon="-6.0743140988051891326904296875">
        <ele>1515.800048828125</ele>
        <time>2021-08-17T18:01:07.000Z</time>
      </trkpt>
      <trkpt lat="43.08000504970550537109375" lon="-6.07433329336345195770263671875">
        <ele>1516</ele>
        <time>2021-08-17T18:01:12.000Z</time>
      </trkpt>
      <trkpt lat="43.0800129286944866180419921875" lon="-6.0743422619998455047607421875">
        <ele>1516</ele>
        <time>2021-08-17T18:01:14.000Z</time>
      </trkpt>
      <trkpt lat="43.080024830996990203857421875" lon="-6.07434435747563838958740234375">
        <ele>1515.800048828125</ele>
        <time>2021-08-17T18:01:17.000Z</time>
      </trkpt>
      <trkpt lat="43.0800273455679416656494140625" lon="-6.07434184290468692779541015625">
        <ele>1515.5999755859375</ele>
        <time>2021-08-17T18:01:21.000Z</time>
      </trkpt>
      <trkpt lat="43.08005056343972682952880859375" lon="-6.07435693033039569854736328125">
        <ele>1515.5999755859375</ele>
        <time>2021-08-17T18:01:26.000Z</time>
      </trkpt>
      <trkpt lat="43.0800680816173553466796875" lon="-6.074403785169124603271484375">
        <ele>1515.199951171875</ele>
        <time>2021-08-17T18:01:37.000Z</time>
      </trkpt>
      <trkpt lat="43.08007948100566864013671875" lon="-6.0744083113968372344970703125">
        <ele>1515.5999755859375</ele>
        <time>2021-08-17T18:01:43.000Z</time>
      </trkpt>
      <trkpt lat="43.0800903774797916412353515625" lon="-6.0744230635464191436767578125">
        <ele>1515.5999755859375</ele>
        <time>2021-08-17T18:01:47.000Z</time>
      </trkpt>
      <trkpt lat="43.08009448461234569549560546875" lon="-6.0744240693747997283935546875">
        <ele>1515.5999755859375</ele>
        <time>2021-08-17T18:01:48.000Z</time>
      </trkpt>
      <trkpt lat="43.08010739274322986602783203125" lon="-6.0744525678455829620361328125">
        <ele>1515.4000244140625</ele>
        <time>2021-08-17T18:02:02.000Z</time>
      </trkpt>
      <trkpt lat="43.08010303415358066558837890625" lon="-6.07444561086595058441162109375">
        <ele>1515.4000244140625</ele>
        <time>2021-08-17T18:02:12.000Z</time>
      </trkpt>
      <trkpt lat="43.08010269887745380401611328125" lon="-6.07445164583623409271240234375">
        <ele>1515.5999755859375</ele>
        <time>2021-08-17T18:02:15.000Z</time>
      </trkpt>
      <trkpt lat="43.08010269887745380401611328125" lon="-6.0744586028158664703369140625">
        <ele>1515.5999755859375</ele>
        <time>2021-08-17T18:02:19.000Z</time>
      </trkpt>
      <trkpt lat="43.08010630309581756591796875" lon="-6.07446136884391307830810546875">
        <ele>1515.5999755859375</ele>
        <time>2021-08-17T18:02:22.000Z</time>
      </trkpt>
      <trkpt lat="43.08011996559798717498779296875" lon="-6.07445969246327877044677734375">
        <ele>1515.4000244140625</ele>
        <time>2021-08-17T18:02:29.000Z</time>
      </trkpt>
      <trkpt lat="43.08011761866509914398193359375" lon="-6.07444695197045803070068359375">
        <ele>1515.4000244140625</ele>
        <time>2021-08-17T18:02:34.000Z</time>
      </trkpt>
      <trkpt lat="43.08011091314256191253662109375" lon="-6.07442365027964115142822265625">
        <ele>1515.199951171875</ele>
        <time>2021-08-17T18:02:42.000Z</time>
      </trkpt>
      <trkpt lat="43.0801208876073360443115234375" lon="-6.07441761530935764312744140625">
        <ele>1515.4000244140625</ele>
        <time>2021-08-17T18:02:51.000Z</time>
      </trkpt>
      <trkpt lat="43.08011845685541629791259765625" lon="-6.07442582957446575164794921875">
        <ele>1515.4000244140625</ele>
        <time>2021-08-17T18:02:58.000Z</time>
      </trkpt>
      <trkpt lat="43.080120719969272613525390625" lon="-6.074431948363780975341796875">
        <ele>1514.800048828125</ele>
        <time>2021-08-17T18:03:02.000Z</time>
      </trkpt>
      <trkpt lat="43.0801178701221942901611328125" lon="-6.0744257457554340362548828125">
        <ele>1515.4000244140625</ele>
        <time>2021-08-17T18:03:08.000Z</time>
      </trkpt>
      <trkpt lat="43.0801336281001567840576171875" lon="-6.07442549429833889007568359375">
        <ele>1515.199951171875</ele>
        <time>2021-08-17T18:03:21.000Z</time>
      </trkpt>
      <trkpt lat="43.08013689704239368438720703125" lon="-6.074426583945751190185546875">
        <ele>1515.199951171875</ele>
        <time>2021-08-17T18:03:22.000Z</time>
      </trkpt>
      <trkpt lat="43.08014519512653350830078125" lon="-6.07443102635443210601806640625">
        <ele>1515</ele>
        <time>2021-08-17T18:03:24.000Z</time>
      </trkpt>
      <trkpt lat="43.08016455732285976409912109375" lon="-6.0744119994342327117919921875">
        <ele>1514.4000244140625</ele>
        <time>2021-08-17T18:03:32.000Z</time>
      </trkpt>
      <trkpt lat="43.08016598224639892578125" lon="-6.074403785169124603271484375">
        <ele>1513.4000244140625</ele>
        <time>2021-08-17T18:03:35.000Z</time>
      </trkpt>
      <trkpt lat="43.08015885762870311737060546875" lon="-6.0743975825607776641845703125">
        <ele>1512.4000244140625</ele>
        <time>2021-08-17T18:03:40.000Z</time>
      </trkpt>
      <trkpt lat="43.08016422204673290252685546875" lon="-6.0743627138435840606689453125">
        <ele>1512.199951171875</ele>
        <time>2021-08-17T18:03:46.000Z</time>
      </trkpt>
      <trkpt lat="43.08016455732285976409912109375" lon="-6.07434905134141445159912109375">
        <ele>1512</ele>
        <time>2021-08-17T18:03:48.000Z</time>
      </trkpt>
      <trkpt lat="43.08016204275190830230712890625" lon="-6.07434217818081378936767578125">
        <ele>1511.800048828125</ele>
        <time>2021-08-17T18:03:50.000Z</time>
      </trkpt>
      <trkpt lat="43.0801674909889698028564453125" lon="-6.07433664612472057342529296875">
        <ele>1511.199951171875</ele>
        <time>2021-08-17T18:03:53.000Z</time>
      </trkpt>
      <trkpt lat="43.0801775492727756500244140625" lon="-6.0743265040218830108642578125">
        <ele>1510.800048828125</ele>
        <time>2021-08-17T18:03:56.000Z</time>
      </trkpt>
      <trkpt lat="43.08017998002469539642333984375" lon="-6.07431435026228427886962890625">
        <ele>1510.5999755859375</ele>
        <time>2021-08-17T18:03:58.000Z</time>
      </trkpt>
      <trkpt lat="43.08017713017761707305908203125" lon="-6.07431359589099884033203125">
        <ele>1510.199951171875</ele>
        <time>2021-08-17T18:04:00.000Z</time>
      </trkpt>
      <trkpt lat="43.0801698379218578338623046875" lon="-6.0743003524839878082275390625">
        <ele>1509.199951171875</ele>
        <time>2021-08-17T18:04:08.000Z</time>
      </trkpt>
      <trkpt lat="43.08016891591250896453857421875" lon="-6.0743000172078609466552734375">
        <ele>1509</ele>
        <time>2021-08-17T18:04:09.000Z</time>
      </trkpt>
      <trkpt lat="43.080183751881122589111328125" lon="-6.0743124224245548248291015625">
        <ele>1508.5999755859375</ele>
        <time>2021-08-17T18:04:19.000Z</time>
      </trkpt>
      <trkpt lat="43.08019137941300868988037109375" lon="-6.074303872883319854736328125">
        <ele>1508.800048828125</ele>
        <time>2021-08-17T18:04:23.000Z</time>
      </trkpt>
      <trkpt lat="43.080186434090137481689453125" lon="-6.0743035376071929931640625">
        <ele>1508.800048828125</ele>
        <time>2021-08-17T18:04:25.000Z</time>
      </trkpt>
      <trkpt lat="43.08018065057694911956787109375" lon="-6.074279062449932098388671875">
        <ele>1508</ele>
        <time>2021-08-17T18:04:31.000Z</time>
      </trkpt>
      <trkpt lat="43.08015902526676654815673828125" lon="-6.0742584429681301116943359375">
        <ele>1508</ele>
        <time>2021-08-17T18:04:38.000Z</time>
      </trkpt>
      <trkpt lat="43.08015835471451282501220703125" lon="-6.07425768859684467315673828125">
        <ele>1508</ele>
        <time>2021-08-17T18:04:39.000Z</time>
      </trkpt>
      <trkpt lat="43.08017872273921966552734375" lon="-6.074266321957111358642578125">
        <ele>1507.800048828125</ele>
        <time>2021-08-17T18:04:43.000Z</time>
      </trkpt>
      <trkpt lat="43.08018408715724945068359375" lon="-6.07426573522388935089111328125">
        <ele>1507</ele>
        <time>2021-08-17T18:04:47.000Z</time>
      </trkpt>
      <trkpt lat="43.08018903248012065887451171875" lon="-6.0742644779384136199951171875">
        <ele>1506.800048828125</ele>
        <time>2021-08-17T18:04:49.000Z</time>
      </trkpt>
      <trkpt lat="43.0802000127732753753662109375" lon="-6.074224747717380523681640625">
        <ele>1506</ele>
        <time>2021-08-17T18:04:56.000Z</time>
      </trkpt>
      <trkpt lat="43.080198504030704498291015625" lon="-6.0742044635117053985595703125">
        <ele>1505.5999755859375</ele>
        <time>2021-08-17T18:04:58.000Z</time>
      </trkpt>
      <trkpt lat="43.0801983363926410675048828125" lon="-6.0741989314556121826171875">
        <ele>1505.4000244140625</ele>
        <time>2021-08-17T18:04:59.000Z</time>
      </trkpt>
      <trkpt lat="43.08019707910716533660888671875" lon="-6.07418543659150600433349609375">
        <ele>1505.4000244140625</ele>
        <time>2021-08-17T18:05:01.000Z</time>
      </trkpt>
      <trkpt lat="43.08019883930683135986328125" lon="-6.07417336665093898773193359375">
        <ele>1505.199951171875</ele>
        <time>2021-08-17T18:05:03.000Z</time>
      </trkpt>
      <trkpt lat="43.08020160533487796783447265625" lon="-6.07416875660419464111328125">
        <ele>1505</ele>
        <time>2021-08-17T18:05:04.000Z</time>
      </trkpt>
      <trkpt lat="43.080190457403659820556640625" lon="-6.07413782738149166107177734375">
        <ele>1503.800048828125</ele>
        <time>2021-08-17T18:05:12.000Z</time>
      </trkpt>
      <trkpt lat="43.08019842021167278289794921875" lon="-6.07411201111972332000732421875">
        <ele>1503.5999755859375</ele>
        <time>2021-08-17T18:05:25.000Z</time>
      </trkpt>
      <trkpt lat="43.08019758202135562896728515625" lon="-6.07411603443324565887451171875">
        <ele>1503.800048828125</ele>
        <time>2021-08-17T18:05:28.000Z</time>
      </trkpt>
      <trkpt lat="43.08019481599330902099609375" lon="-6.07411335222423076629638671875">
        <ele>1503.800048828125</ele>
        <time>2021-08-17T18:05:29.000Z</time>
      </trkpt>
      <trkpt lat="43.08017008937895298004150390625" lon="-6.07408032752573490142822265625">
        <ele>1503.5999755859375</ele>
        <time>2021-08-17T18:05:40.000Z</time>
      </trkpt>
      <trkpt lat="43.08017528615891933441162109375" lon="-6.07408083043992519378662109375">
        <ele>1503.5999755859375</ele>
        <time>2021-08-17T18:05:43.000Z</time>
      </trkpt>
      <trkpt lat="43.080193139612674713134765625" lon="-6.07411511242389678955078125">
        <ele>1503.5999755859375</ele>
        <time>2021-08-17T18:05:53.000Z</time>
      </trkpt>
      <trkpt lat="43.08019674383103847503662109375" lon="-6.07411134056746959686279296875">
        <ele>1503.5999755859375</ele>
        <time>2021-08-17T18:05:57.000Z</time>
      </trkpt>
      <trkpt lat="43.08019741438329219818115234375" lon="-6.07411268167197704315185546875">
        <ele>1503.4000244140625</ele>
        <time>2021-08-17T18:05:59.000Z</time>
      </trkpt>
      <trkpt lat="43.08019858784973621368408203125" lon="-6.0741162858903408050537109375">
        <ele>1503.4000244140625</ele>
        <time>2021-08-17T18:06:00.000Z</time>
      </trkpt>
      <trkpt lat="43.080213926732540130615234375" lon="-6.07413522899150848388671875">
        <ele>1504</ele>
        <time>2021-08-17T18:06:10.000Z</time>
      </trkpt>
      <trkpt lat="43.0802142620086669921875" lon="-6.07412357814610004425048828125">
        <ele>1504</ele>
        <time>2021-08-17T18:06:14.000Z</time>
      </trkpt>
      <trkpt lat="43.0802043713629245758056640625" lon="-6.07409139163792133331298828125">
        <ele>1504</ele>
        <time>2021-08-17T18:06:20.000Z</time>
      </trkpt>
      <trkpt lat="43.08020294643938541412353515625" lon="-6.07408736832439899444580078125">
        <ele>1504</ele>
        <time>2021-08-17T18:06:22.000Z</time>
      </trkpt>
      <trkpt lat="43.0802030302584171295166015625" lon="-6.0740716941654682159423828125">
        <ele>1504</ele>
        <time>2021-08-17T18:06:24.000Z</time>
      </trkpt>
      <trkpt lat="43.0802006833255290985107421875" lon="-6.07406272552907466888427734375">
        <ele>1504</ele>
        <time>2021-08-17T18:06:25.000Z</time>
      </trkpt>
      <trkpt lat="43.0802043713629245758056640625" lon="-6.07404411770403385162353515625">
        <ele>1504</ele>
        <time>2021-08-17T18:06:28.000Z</time>
      </trkpt>
      <trkpt lat="43.08022323064506053924560546875" lon="-6.07400371693074703216552734375">
        <ele>1504</ele>
        <time>2021-08-17T18:06:34.000Z</time>
      </trkpt>
      <trkpt lat="43.08023278601467609405517578125" lon="-6.07398594729602336883544921875">
        <ele>1504</ele>
        <time>2021-08-17T18:06:37.000Z</time>
      </trkpt>
      <trkpt lat="43.08024988509714603424072265625" lon="-6.0739711113274097442626953125">
        <ele>1502.800048828125</ele>
        <time>2021-08-17T18:06:49.000Z</time>
      </trkpt>
      <trkpt lat="43.08025089092552661895751953125" lon="-6.0739801637828350067138671875">
        <ele>1502.800048828125</ele>
        <time>2021-08-17T18:06:52.000Z</time>
      </trkpt>
      <trkpt lat="43.08024904690682888031005859375" lon="-6.07398569583892822265625">
        <ele>1502.5999755859375</ele>
        <time>2021-08-17T18:07:00.000Z</time>
      </trkpt>
      <trkpt lat="43.08024737052619457244873046875" lon="-6.07398494146764278411865234375">
        <ele>1502.5999755859375</ele>
        <time>2021-08-17T18:07:03.000Z</time>
      </trkpt>
      <trkpt lat="43.0802451074123382568359375" lon="-6.07397203333675861358642578125">
        <ele>1502.800048828125</ele>
        <time>2021-08-17T18:07:13.000Z</time>
      </trkpt>
      <trkpt lat="43.08024485595524311065673828125" lon="-6.07397538609802722930908203125">
        <ele>1502.800048828125</ele>
        <time>2021-08-17T18:07:15.000Z</time>
      </trkpt>
      <trkpt lat="43.08023228310048580169677734375" lon="-6.07398100197315216064453125">
        <ele>1503.199951171875</ele>
        <time>2021-08-17T18:07:27.000Z</time>
      </trkpt>
      <trkpt lat="43.0802298523485660552978515625" lon="-6.0739774815738201141357421875">
        <ele>1503.199951171875</ele>
        <time>2021-08-17T18:07:31.000Z</time>
      </trkpt>
      <trkpt lat="43.080229349434375762939453125" lon="-6.073979996144771575927734375">
        <ele>1503</ele>
        <time>2021-08-17T18:07:32.000Z</time>
      </trkpt>
      <trkpt lat="43.080228008329868316650390625" lon="-6.073977649211883544921875">
        <ele>1502.800048828125</ele>
        <time>2021-08-17T18:07:33.000Z</time>
      </trkpt>
      <trkpt lat="43.08021736331284046173095703125" lon="-6.07395627535879611968994140625">
        <ele>1501.800048828125</ele>
        <time>2021-08-17T18:07:38.000Z</time>
      </trkpt>
      <trkpt lat="43.08021786622703075408935546875" lon="-6.07394353486597537994384765625">
        <ele>1501.4000244140625</ele>
        <time>2021-08-17T18:07:41.000Z</time>
      </trkpt>
      <trkpt lat="43.0802207998931407928466796875" lon="-6.07393515296280384063720703125">
        <ele>1501.4000244140625</ele>
        <time>2021-08-17T18:07:43.000Z</time>
      </trkpt>
      <trkpt lat="43.08021987788379192352294921875" lon="-6.07388720847666263580322265625">
        <ele>1500.5999755859375</ele>
        <time>2021-08-17T18:07:50.000Z</time>
      </trkpt>
      <trkpt lat="43.080228008329868316650390625" lon="-6.0738624818623065948486328125">
        <ele>1499.800048828125</ele>
        <time>2021-08-17T18:07:53.000Z</time>
      </trkpt>
      <trkpt lat="43.0802305229008197784423828125" lon="-6.07385552488267421722412109375">
        <ele>1499.199951171875</ele>
        <time>2021-08-17T18:07:54.000Z</time>
      </trkpt>
      <trkpt lat="43.08025491423904895782470703125" lon="-6.07383272610604763031005859375">
        <ele>1498.4000244140625</ele>
        <time>2021-08-17T18:07:59.000Z</time>
      </trkpt>
      <trkpt lat="43.0802556686103343963623046875" lon="-6.07383079826831817626953125">
        <ele>1498.199951171875</ele>
        <time>2021-08-17T18:08:00.000Z</time>
      </trkpt>
      <trkpt lat="43.0802627094089984893798828125" lon="-6.07382535003125667572021484375">
        <ele>1498</ele>
        <time>2021-08-17T18:08:01.000Z</time>
      </trkpt>
      <trkpt lat="43.080274276435375213623046875" lon="-6.073811016976833343505859375">
        <ele>1497.4000244140625</ele>
        <time>2021-08-17T18:08:04.000Z</time>
      </trkpt>
      <trkpt lat="43.08028358034789562225341796875" lon="-6.07380129396915435791015625">
        <ele>1497.199951171875</ele>
        <time>2021-08-17T18:08:06.000Z</time>
      </trkpt>
      <trkpt lat="43.08027930557727813720703125" lon="-6.0737981088459491729736328125">
        <ele>1497.199951171875</ele>
        <time>2021-08-17T18:08:07.000Z</time>
      </trkpt>
      <trkpt lat="43.08026715181767940521240234375" lon="-6.0737877152860164642333984375">
        <ele>1496</ele>
        <time>2021-08-17T18:08:14.000Z</time>
      </trkpt>
      <trkpt lat="43.08025918900966644287109375" lon="-6.073779501020908355712890625">
        <ele>1495.800048828125</ele>
        <time>2021-08-17T18:08:20.000Z</time>
      </trkpt>
      <trkpt lat="43.08028140105307102203369140625" lon="-6.07374656014144420623779296875">
        <ele>1496</ele>
        <time>2021-08-17T18:08:32.000Z</time>
      </trkpt>
      <trkpt lat="43.080289699137210845947265625" lon="-6.073709428310394287109375">
        <ele>1495.800048828125</ele>
        <time>2021-08-17T18:08:39.000Z</time>
      </trkpt>
      <trkpt lat="43.080297075212001800537109375" lon="-6.07369140721857547760009765625">
        <ele>1495</ele>
        <time>2021-08-17T18:08:41.000Z</time>
      </trkpt>
      <trkpt lat="43.0803099833428859710693359375" lon="-6.07368336059153079986572265625">
        <ele>1494.4000244140625</ele>
        <time>2021-08-17T18:08:44.000Z</time>
      </trkpt>
      <trkpt lat="43.08032666333019733428955078125" lon="-6.0736764036118984222412109375">
        <ele>1494</ele>
        <time>2021-08-17T18:08:47.000Z</time>
      </trkpt>
      <trkpt lat="43.08033269830048084259033203125" lon="-6.07366475276648998260498046875">
        <ele>1493.199951171875</ele>
        <time>2021-08-17T18:08:51.000Z</time>
      </trkpt>
      <trkpt lat="43.08033688925206661224365234375" lon="-6.07366357930004596710205078125">
        <ele>1493</ele>
        <time>2021-08-17T18:08:52.000Z</time>
      </trkpt>
      <trkpt lat="43.08034409768879413604736328125" lon="-6.07366383075714111328125">
        <ele>1492.800048828125</ele>
        <time>2021-08-17T18:08:53.000Z</time>
      </trkpt>
      <trkpt lat="43.0803562514483928680419921875" lon="-6.07366190291941165924072265625">
        <ele>1492.800048828125</ele>
        <time>2021-08-17T18:08:57.000Z</time>
      </trkpt>
      <trkpt lat="43.08041417039930820465087890625" lon="-6.0736544430255889892578125">
        <ele>1492.4000244140625</ele>
        <time>2021-08-17T18:09:07.000Z</time>
      </trkpt>
      <trkpt lat="43.08041836135089397430419921875" lon="-6.0736552812159061431884765625">
        <ele>1492.4000244140625</ele>
        <time>2021-08-17T18:09:08.000Z</time>
      </trkpt>
      <trkpt lat="43.0804248154163360595703125" lon="-6.07363893650472164154052734375">
        <ele>1491.800048828125</ele>
        <time>2021-08-17T18:09:17.000Z</time>
      </trkpt>
      <trkpt lat="43.0804239772260189056396484375" lon="-6.0736298002302646636962890625">
        <ele>1491.5999755859375</ele>
        <time>2021-08-17T18:09:19.000Z</time>
      </trkpt>
      <trkpt lat="43.0804280005395412445068359375" lon="-6.073641367256641387939453125">
        <ele>1492</ele>
        <time>2021-08-17T18:09:29.000Z</time>
      </trkpt>
      <trkpt lat="43.0804293416440486907958984375" lon="-6.07364715076982975006103515625">
        <ele>1492</ele>
        <time>2021-08-17T18:09:36.000Z</time>
      </trkpt>
      <trkpt lat="43.080428503453731536865234375" lon="-6.0736468993127346038818359375">
        <ele>1492</ele>
        <time>2021-08-17T18:09:37.000Z</time>
      </trkpt>
      <trkpt lat="43.0804323591291904449462890625" lon="-6.07364078052341938018798828125">
        <ele>1491.800048828125</ele>
        <time>2021-08-17T18:09:44.000Z</time>
      </trkpt>
      <trkpt lat="43.08042339049279689788818359375" lon="-6.07364170253276824951171875">
        <ele>1492</ele>
        <time>2021-08-17T18:09:52.000Z</time>
      </trkpt>
      <trkpt lat="43.08041048236191272735595703125" lon="-6.07364765368402004241943359375">
        <ele>1491.800048828125</ele>
        <time>2021-08-17T18:09:55.000Z</time>
      </trkpt>
      <trkpt lat="43.08037259615957736968994140625" lon="-6.073673553764820098876953125">
        <ele>1491.800048828125</ele>
        <time>2021-08-17T18:10:01.000Z</time>
      </trkpt>
      <trkpt lat="43.08036471717059612274169921875" lon="-6.07367548160254955291748046875">
        <ele>1491.800048828125</ele>
        <time>2021-08-17T18:10:02.000Z</time>
      </trkpt>
      <trkpt lat="43.08034560643136501312255859375" lon="-6.0736777447164058685302734375">
        <ele>1492</ele>
        <time>2021-08-17T18:10:04.000Z</time>
      </trkpt>
      <trkpt lat="43.08028743602335453033447265625" lon="-6.07368084602057933807373046875">
        <ele>1492.199951171875</ele>
        <time>2021-08-17T18:10:13.000Z</time>
      </trkpt>
      <trkpt lat="43.0802799761295318603515625" lon="-6.0736707039177417755126953125">
        <ele>1491.4000244140625</ele>
        <time>2021-08-17T18:10:15.000Z</time>
      </trkpt>
      <trkpt lat="43.08027603663504123687744140625" lon="-6.0736519284546375274658203125">
        <ele>1490.5999755859375</ele>
        <time>2021-08-17T18:10:18.000Z</time>
      </trkpt>
      <trkpt lat="43.08027260005474090576171875" lon="-6.0736133717000484466552734375">
        <ele>1489.5999755859375</ele>
        <time>2021-08-17T18:10:23.000Z</time>
      </trkpt>
      <trkpt lat="43.08026849292218685150146484375" lon="-6.0735925845801830291748046875">
        <ele>1488.199951171875</ele>
        <time>2021-08-17T18:10:26.000Z</time>
      </trkpt>
      <trkpt lat="43.08026790618896484375" lon="-6.073569953441619873046875">
        <ele>1487</ele>
        <time>2021-08-17T18:10:29.000Z</time>
      </trkpt>
      <trkpt lat="43.080297075212001800537109375" lon="-6.07353617437183856964111328125">
        <ele>1486</ele>
        <time>2021-08-17T18:10:36.000Z</time>
      </trkpt>
      <trkpt lat="43.0803029425442218780517578125" lon="-6.07352427206933498382568359375">
        <ele>1486</ele>
        <time>2021-08-17T18:10:37.000Z</time>
      </trkpt>
      <trkpt lat="43.08032582513988018035888671875" lon="-6.07350164093077182769775390625">
        <ele>1485.4000244140625</ele>
        <time>2021-08-17T18:10:40.000Z</time>
      </trkpt>
      <trkpt lat="43.0803361348807811737060546875" lon="-6.07349275611340999603271484375">
        <ele>1484.800048828125</ele>
        <time>2021-08-17T18:10:42.000Z</time>
      </trkpt>
      <trkpt lat="43.08034208603203296661376953125" lon="-6.07347699813544750213623046875">
        <ele>1483.800048828125</ele>
        <time>2021-08-17T18:10:45.000Z</time>
      </trkpt>
      <trkpt lat="43.0803475342690944671630859375" lon="-6.0734554566442966461181640625">
        <ele>1483</ele>
        <time>2021-08-17T18:10:48.000Z</time>
      </trkpt>
      <trkpt lat="43.0803535692393779754638671875" lon="-6.073442883789539337158203125">
        <ele>1482.800048828125</ele>
        <time>2021-08-17T18:10:50.000Z</time>
      </trkpt>
      <trkpt lat="43.080352060496807098388671875" lon="-6.07343710027635097503662109375">
        <ele>1482.5999755859375</ele>
        <time>2021-08-17T18:10:51.000Z</time>
      </trkpt>
      <trkpt lat="43.08035038411617279052734375" lon="-6.07343391515314579010009765625">
        <ele>1482.4000244140625</ele>
        <time>2021-08-17T18:10:52.000Z</time>
      </trkpt>
      <trkpt lat="43.08035482652485370635986328125" lon="-6.07342855073511600494384765625">
        <ele>1481.4000244140625</ele>
        <time>2021-08-17T18:10:54.000Z</time>
      </trkpt>
      <trkpt lat="43.080360107123851776123046875" lon="-6.073410026729106903076171875">
        <ele>1480.199951171875</ele>
        <time>2021-08-17T18:10:59.000Z</time>
      </trkpt>
      <trkpt lat="43.08035465888679027557373046875" lon="-6.07339669950306415557861328125">
        <ele>1479.5999755859375</ele>
        <time>2021-08-17T18:11:02.000Z</time>
      </trkpt>
      <trkpt lat="43.08035465888679027557373046875" lon="-6.07338446192443370819091796875">
        <ele>1479.199951171875</ele>
        <time>2021-08-17T18:11:04.000Z</time>
      </trkpt>
      <trkpt lat="43.0803471989929676055908203125" lon="-6.07336551882326602935791015625">
        <ele>1478.800048828125</ele>
        <time>2021-08-17T18:11:06.000Z</time>
      </trkpt>
      <trkpt lat="43.0803492106497287750244140625" lon="-6.073357053101062774658203125">
        <ele>1478.5999755859375</ele>
        <time>2021-08-17T18:11:07.000Z</time>
      </trkpt>
      <trkpt lat="43.0803465284407138824462890625" lon="-6.0733464919030666351318359375">
        <ele>1478</ele>
        <time>2021-08-17T18:11:09.000Z</time>
      </trkpt>
      <trkpt lat="43.08033906854689121246337890625" lon="-6.07332310639321804046630859375">
        <ele>1476.800048828125</ele>
        <time>2021-08-17T18:11:16.000Z</time>
      </trkpt>
      <trkpt lat="43.08032683096826076507568359375" lon="-6.073304079473018646240234375">
        <ele>1476</ele>
        <time>2021-08-17T18:11:20.000Z</time>
      </trkpt>
      <trkpt lat="43.0803267471492290496826171875" lon="-6.0733049176633358001708984375">
        <ele>1475.5999755859375</ele>
        <time>2021-08-17T18:11:22.000Z</time>
      </trkpt>
      <trkpt lat="43.0803203769028186798095703125" lon="-6.073301397264003753662109375">
        <ele>1475.199951171875</ele>
        <time>2021-08-17T18:11:27.000Z</time>
      </trkpt>
      <trkpt lat="43.08032180182635784149169921875" lon="-6.0733025707304477691650390625">
        <ele>1475.199951171875</ele>
        <time>2021-08-17T18:11:29.000Z</time>
      </trkpt>
      <trkpt lat="43.0803217180073261260986328125" lon="-6.07329611666500568389892578125">
        <ele>1475.4000244140625</ele>
        <time>2021-08-17T18:11:33.000Z</time>
      </trkpt>
      <trkpt lat="43.080321885645389556884765625" lon="-6.07329209335148334503173828125">
        <ele>1475.4000244140625</ele>
        <time>2021-08-17T18:11:36.000Z</time>
      </trkpt>
      <trkpt lat="43.08031308464705944061279296875" lon="-6.0733002237975597381591796875">
        <ele>1475.4000244140625</ele>
        <time>2021-08-17T18:11:38.000Z</time>
      </trkpt>
      <trkpt lat="43.080304451286792755126953125" lon="-6.0732784308493137359619140625">
        <ele>1475</ele>
        <time>2021-08-17T18:11:50.000Z</time>
      </trkpt>
      <trkpt lat="43.0803042836487293243408203125" lon="-6.07327063567936420440673828125">
        <ele>1474.4000244140625</ele>
        <time>2021-08-17T18:11:52.000Z</time>
      </trkpt>
      <trkpt lat="43.080301769077777862548828125" lon="-6.0732643492519855499267578125">
        <ele>1474</ele>
        <time>2021-08-17T18:11:54.000Z</time>
      </trkpt>
      <trkpt lat="43.0803041160106658935546875" lon="-6.07325890101492404937744140625">
        <ele>1473.4000244140625</ele>
        <time>2021-08-17T18:11:58.000Z</time>
      </trkpt>
      <trkpt lat="43.0803260765969753265380859375" lon="-6.0732656903564929962158203125">
        <ele>1473.199951171875</ele>
        <time>2021-08-17T18:12:06.000Z</time>
      </trkpt>
      <trkpt lat="43.080341331660747528076171875" lon="-6.0732440650463104248046875">
        <ele>1472.4000244140625</ele>
        <time>2021-08-17T18:12:17.000Z</time>
      </trkpt>
      <trkpt lat="43.0803435109555721282958984375" lon="-6.07323526404798030853271484375">
        <ele>1472.199951171875</ele>
        <time>2021-08-17T18:12:18.000Z</time>
      </trkpt>
      <trkpt lat="43.080343343317508697509765625" lon="-6.07318312861025333404541015625">
        <ele>1471.199951171875</ele>
        <time>2021-08-17T18:12:22.000Z</time>
      </trkpt>
      <trkpt lat="43.08034208603203296661376953125" lon="-6.07313434593379497528076171875">
        <ele>1470</ele>
        <time>2021-08-17T18:12:26.000Z</time>
      </trkpt>
      <trkpt lat="43.08033420704305171966552734375" lon="-6.07311196625232696533203125">
        <ele>1469.800048828125</ele>
        <time>2021-08-17T18:12:28.000Z</time>
      </trkpt>
      <trkpt lat="43.08032381348311901092529296875" lon="-6.07309310697019100189208984375">
        <ele>1469.5999755859375</ele>
        <time>2021-08-17T18:12:30.000Z</time>
      </trkpt>
      <trkpt lat="43.08032163418829441070556640625" lon="-6.07306511141359806060791015625">
        <ele>1469</ele>
        <time>2021-08-17T18:12:33.000Z</time>
      </trkpt>
      <trkpt lat="43.08031861670315265655517578125" lon="-6.073049940168857574462890625">
        <ele>1468.5999755859375</ele>
        <time>2021-08-17T18:12:35.000Z</time>
      </trkpt>
      <trkpt lat="43.08030956424772739410400390625" lon="-6.073035858571529388427734375">
        <ele>1468.199951171875</ele>
        <time>2021-08-17T18:12:37.000Z</time>
      </trkpt>
      <trkpt lat="43.08030654676258563995361328125" lon="-6.07302906922996044158935546875">
        <ele>1468</ele>
        <time>2021-08-17T18:12:38.000Z</time>
      </trkpt>
      <trkpt lat="43.08030336163938045501708984375" lon="-6.0730219446122646331787109375">
        <ele>1467.800048828125</ele>
        <time>2021-08-17T18:12:39.000Z</time>
      </trkpt>
      <trkpt lat="43.0802865140140056610107421875" lon="-6.072996966540813446044921875">
        <ele>1467.5999755859375</ele>
        <time>2021-08-17T18:12:47.000Z</time>
      </trkpt>
      <trkpt lat="43.08025692589581012725830078125" lon="-6.07301540672779083251953125">
        <ele>1467.800048828125</ele>
        <time>2021-08-17T18:13:00.000Z</time>
      </trkpt>
      <trkpt lat="43.0802140943706035614013671875" lon="-6.072915159165859222412109375">
        <ele>1467.199951171875</ele>
        <time>2021-08-17T18:13:09.000Z</time>
      </trkpt>
      <trkpt lat="43.0802107416093349456787109375" lon="-6.07289680279791355133056640625">
        <ele>1467.4000244140625</ele>
        <time>2021-08-17T18:13:12.000Z</time>
      </trkpt>
      <trkpt lat="43.08020646683871746063232421875" lon="-6.07287903316318988800048828125">
        <ele>1467.4000244140625</ele>
        <time>2021-08-17T18:13:14.000Z</time>
      </trkpt>
      <trkpt lat="43.08018266223371028900146484375" lon="-6.07285137288272380828857421875">
        <ele>1468.4000244140625</ele>
        <time>2021-08-17T18:13:24.000Z</time>
      </trkpt>
      <trkpt lat="43.08018517680466175079345703125" lon="-6.0728305019438266754150390625">
        <ele>1468.5999755859375</ele>
        <time>2021-08-17T18:13:28.000Z</time>
      </trkpt>
      <trkpt lat="43.08019003830850124359130859375" lon="-6.0728180967271327972412109375">
        <ele>1468.4000244140625</ele>
        <time>2021-08-17T18:13:32.000Z</time>
      </trkpt>
      <trkpt lat="43.080195151269435882568359375" lon="-6.07281558215618133544921875">
        <ele>1468.4000244140625</ele>
        <time>2021-08-17T18:13:33.000Z</time>
      </trkpt>
      <trkpt lat="43.08019540272653102874755859375" lon="-6.072811894118785858154296875">
        <ele>1468.4000244140625</ele>
        <time>2021-08-17T18:13:34.000Z</time>
      </trkpt>
      <trkpt lat="43.08020043186843395233154296875" lon="-6.07281558215618133544921875">
        <ele>1468.800048828125</ele>
        <time>2021-08-17T18:13:37.000Z</time>
      </trkpt>
      <trkpt lat="43.0801993422210216522216796875" lon="-6.07281298376619815826416015625">
        <ele>1469</ele>
        <time>2021-08-17T18:13:39.000Z</time>
      </trkpt>
      <trkpt lat="43.08018467389047145843505859375" lon="-6.07281499542295932769775390625">
        <ele>1470</ele>
        <time>2021-08-17T18:13:43.000Z</time>
      </trkpt>
      <trkpt lat="43.080176375806331634521484375" lon="-6.0728184320032596588134765625">
        <ele>1470.5999755859375</ele>
        <time>2021-08-17T18:13:46.000Z</time>
      </trkpt>
      <trkpt lat="43.08016992174088954925537109375" lon="-6.07282136566936969757080078125">
        <ele>1470.800048828125</ele>
        <time>2021-08-17T18:13:48.000Z</time>
      </trkpt>
      <trkpt lat="43.0801695026457309722900390625" lon="-6.072819270193576812744140625">
        <ele>1471</ele>
        <time>2021-08-17T18:13:49.000Z</time>
      </trkpt>
      <trkpt lat="43.080160953104496002197265625" lon="-6.07281650416553020477294921875">
        <ele>1471.199951171875</ele>
        <time>2021-08-17T18:13:51.000Z</time>
      </trkpt>
      <trkpt lat="43.080152571201324462890625" lon="-6.072811223566532135009765625">
        <ele>1471.5999755859375</ele>
        <time>2021-08-17T18:13:54.000Z</time>
      </trkpt>
      <trkpt lat="43.0801507271826267242431640625" lon="-6.072811894118785858154296875">
        <ele>1471.800048828125</ele>
        <time>2021-08-17T18:13:55.000Z</time>
      </trkpt>
      <trkpt lat="43.08014745824038982391357421875" lon="-6.0728083737194538116455078125">
        <ele>1472</ele>
        <time>2021-08-17T18:13:56.000Z</time>
      </trkpt>
      <trkpt lat="43.08014544658362865447998046875" lon="-6.0728023387491703033447265625">
        <ele>1472</ele>
        <time>2021-08-17T18:13:57.000Z</time>
      </trkpt>
      <trkpt lat="43.08014796115458011627197265625" lon="-6.07278834097087383270263671875">
        <ele>1472</ele>
        <time>2021-08-17T18:13:59.000Z</time>
      </trkpt>
      <trkpt lat="43.0801520682871341705322265625" lon="-6.072777695953845977783203125">
        <ele>1471.5999755859375</ele>
        <time>2021-08-17T18:14:01.000Z</time>
      </trkpt>
      <trkpt lat="43.08016262948513031005859375" lon="-6.07276730239391326904296875">
        <ele>1471.199951171875</ele>
        <time>2021-08-17T18:14:03.000Z</time>
      </trkpt>
      <trkpt lat="43.08017243631184101104736328125" lon="-6.07275665737688541412353515625">
        <ele>1471</ele>
        <time>2021-08-17T18:14:05.000Z</time>
      </trkpt>
      <trkpt lat="43.08017528615891933441162109375" lon="-6.072752214968204498291015625">
        <ele>1471</ele>
        <time>2021-08-17T18:14:06.000Z</time>
      </trkpt>
      <trkpt lat="43.0801807343959808349609375" lon="-6.07274240814149379730224609375">
        <ele>1470.4000244140625</ele>
        <time>2021-08-17T18:14:08.000Z</time>
      </trkpt>
      <trkpt lat="43.080184422433376312255859375" lon="-6.0727356187999248504638671875">
        <ele>1469.5999755859375</ele>
        <time>2021-08-17T18:14:10.000Z</time>
      </trkpt>
      <trkpt lat="43.0801849253475666046142578125" lon="-6.0727356187999248504638671875">
        <ele>1468.800048828125</ele>
        <time>2021-08-17T18:14:12.000Z</time>
      </trkpt>
      <trkpt lat="43.0801860988140106201171875" lon="-6.0727371275424957275390625">
        <ele>1468.4000244140625</ele>
        <time>2021-08-17T18:14:13.000Z</time>
      </trkpt>
      <trkpt lat="43.08019188232719898223876953125" lon="-6.07273771427571773529052734375">
        <ele>1467.4000244140625</ele>
        <time>2021-08-17T18:14:16.000Z</time>
      </trkpt>
      <trkpt lat="43.08018945157527923583984375" lon="-6.07273369096219539642333984375">
        <ele>1467.199951171875</ele>
        <time>2021-08-17T18:14:18.000Z</time>
      </trkpt>
      <trkpt lat="43.08017947711050510406494140625" lon="-6.072738133370876312255859375">
        <ele>1467.4000244140625</ele>
        <time>2021-08-17T18:14:23.000Z</time>
      </trkpt>
      <trkpt lat="43.080179728567600250244140625" lon="-6.07274894602596759796142578125">
        <ele>1467.800048828125</ele>
        <time>2021-08-17T18:14:27.000Z</time>
      </trkpt>
      <trkpt lat="43.080180399119853973388671875" lon="-6.0727476887404918670654296875">
        <ele>1468</ele>
        <time>2021-08-17T18:14:28.000Z</time>
      </trkpt>
      <trkpt lat="43.08019892312586307525634765625" lon="-6.07275146059691905975341796875">
        <ele>1468.199951171875</ele>
        <time>2021-08-17T18:14:33.000Z</time>
      </trkpt>
      <trkpt lat="43.08019674383103847503662109375" lon="-6.0727500356733798980712890625">
        <ele>1468.199951171875</ele>
        <time>2021-08-17T18:14:34.000Z</time>
      </trkpt>
      <trkpt lat="43.08018618263304233551025390625" lon="-6.0727359540760517120361328125">
        <ele>1468.4000244140625</ele>
        <time>2021-08-17T18:14:37.000Z</time>
      </trkpt>
      <trkpt lat="43.080175034701824188232421875" lon="-6.0727245546877384185791015625">
        <ele>1468.4000244140625</ele>
        <time>2021-08-17T18:14:39.000Z</time>
      </trkpt>
      <trkpt lat="43.0801788903772830963134765625" lon="-6.07270938344299793243408203125">
        <ele>1468</ele>
        <time>2021-08-17T18:14:45.000Z</time>
      </trkpt>
      <trkpt lat="43.0801772139966487884521484375" lon="-6.07270820997655391693115234375">
        <ele>1467.800048828125</ele>
        <time>2021-08-17T18:14:46.000Z</time>
      </trkpt>
      <trkpt lat="43.0801752023398876190185546875" lon="-6.07269966043531894683837890625">
        <ele>1467.5999755859375</ele>
        <time>2021-08-17T18:14:48.000Z</time>
      </trkpt>
      <trkpt lat="43.08017067611217498779296875" lon="-6.07269077561795711517333984375">
        <ele>1467.199951171875</ele>
        <time>2021-08-17T18:14:50.000Z</time>
      </trkpt>
      <trkpt lat="43.0801755376160144805908203125" lon="-6.07267049141228199005126953125">
        <ele>1466</ele>
        <time>2021-08-17T18:14:55.000Z</time>
      </trkpt>
      <trkpt lat="43.08015801943838596343994140625" lon="-6.0726486146450042724609375">
        <ele>1465</ele>
        <time>2021-08-17T18:14:58.000Z</time>
      </trkpt>
      <trkpt lat="43.0801560916006565093994140625" lon="-6.07264132238924503326416015625">
        <ele>1464.800048828125</ele>
        <time>2021-08-17T18:14:59.000Z</time>
      </trkpt>
      <trkpt lat="43.08013488538563251495361328125" lon="-6.0725854150950908660888671875">
        <ele>1465</ele>
        <time>2021-08-17T18:15:09.000Z</time>
      </trkpt>
      <trkpt lat="43.080126754939556121826171875" lon="-6.07255280949175357818603515625">
        <ele>1464.4000244140625</ele>
        <time>2021-08-17T18:15:12.000Z</time>
      </trkpt>
      <trkpt lat="43.08011996559798717498779296875" lon="-6.0725305974483489990234375">
        <ele>1464.199951171875</ele>
        <time>2021-08-17T18:15:15.000Z</time>
      </trkpt>
      <trkpt lat="43.080116696655750274658203125" lon="-6.0725277476012706756591796875">
        <ele>1464.199951171875</ele>
        <time>2021-08-17T18:15:16.000Z</time>
      </trkpt>
      <trkpt lat="43.08011057786643505096435546875" lon="-6.072517521679401397705078125">
        <ele>1464</ele>
        <time>2021-08-17T18:15:20.000Z</time>
      </trkpt>
      <trkpt lat="43.08009289205074310302734375" lon="-6.07243311591446399688720703125">
        <ele>1463.800048828125</ele>
        <time>2021-08-17T18:15:30.000Z</time>
      </trkpt>
      <trkpt lat="43.0800447799265384674072265625" lon="-6.07236228883266448974609375">
        <ele>1464.5999755859375</ele>
        <time>2021-08-17T18:15:39.000Z</time>
      </trkpt>
      <trkpt lat="43.08003413490951061248779296875" lon="-6.07237108983099460601806640625">
        <ele>1464.800048828125</ele>
        <time>2021-08-17T18:15:40.000Z</time>
      </trkpt>
      <trkpt lat="43.08000563643872737884521484375" lon="-6.0723882727324962615966796875">
        <ele>1465.199951171875</ele>
        <time>2021-08-17T18:15:42.000Z</time>
      </trkpt>
      <trkpt lat="43.07994067668914794921875" lon="-6.07244099490344524383544921875">
        <ele>1465.199951171875</ele>
        <time>2021-08-17T18:15:49.000Z</time>
      </trkpt>
      <trkpt lat="43.0798818357288837432861328125" lon="-6.0724456049501895904541015625">
        <ele>1465.800048828125</ele>
        <time>2021-08-17T18:15:55.000Z</time>
      </trkpt>
      <trkpt lat="43.07984570972621440887451171875" lon="-6.07244099490344524383544921875">
        <ele>1466.199951171875</ele>
        <time>2021-08-17T18:15:59.000Z</time>
      </trkpt>
      <trkpt lat="43.07983347214758396148681640625" lon="-6.07243345119059085845947265625">
        <ele>1466.4000244140625</ele>
        <time>2021-08-17T18:16:00.000Z</time>
      </trkpt>
      <trkpt lat="43.079810254275798797607421875" lon="-6.07241366989910602569580078125">
        <ele>1466.4000244140625</ele>
        <time>2021-08-17T18:16:02.000Z</time>
      </trkpt>
      <trkpt lat="43.079802207648754119873046875" lon="-6.07240897603332996368408203125">
        <ele>1466.5999755859375</ele>
        <time>2021-08-17T18:16:03.000Z</time>
      </trkpt>
      <trkpt lat="43.07978309690952301025390625" lon="-6.07240025885403156280517578125">
        <ele>1466.800048828125</ele>
        <time>2021-08-17T18:16:05.000Z</time>
      </trkpt>
      <trkpt lat="43.07977530173957347869873046875" lon="-6.072396822273731231689453125">
        <ele>1467</ele>
        <time>2021-08-17T18:16:06.000Z</time>
      </trkpt>
      <trkpt lat="43.0797648243606090545654296875" lon="-6.07238969765603542327880859375">
        <ele>1467</ele>
        <time>2021-08-17T18:16:08.000Z</time>
      </trkpt>
      <trkpt lat="43.0797292850911617279052734375" lon="-6.07236924581229686737060546875">
        <ele>1467.4000244140625</ele>
        <time>2021-08-17T18:16:12.000Z</time>
      </trkpt>
      <trkpt lat="43.07968519628047943115234375" lon="-6.07235181145370006561279296875">
        <ele>1467.5999755859375</ele>
        <time>2021-08-17T18:16:16.000Z</time>
      </trkpt>
      <trkpt lat="43.0796496570110321044921875" lon="-6.0723423399031162261962890625">
        <ele>1468</ele>
        <time>2021-08-17T18:16:20.000Z</time>
      </trkpt>
      <trkpt lat="43.0796280317008495330810546875" lon="-6.07233052141964435577392578125">
        <ele>1468.4000244140625</ele>
        <time>2021-08-17T18:16:23.000Z</time>
      </trkpt>
      <trkpt lat="43.0795978568494319915771484375" lon="-6.072320044040679931640625">
        <ele>1468.5999755859375</ele>
        <time>2021-08-17T18:16:26.000Z</time>
      </trkpt>
      <trkpt lat="43.07954966090619564056396484375" lon="-6.0722642205655574798583984375">
        <ele>1467.800048828125</ele>
        <time>2021-08-17T18:16:34.000Z</time>
      </trkpt>
      <trkpt lat="43.07952652685344219207763671875" lon="-6.07225106097757816314697265625">
        <ele>1467.4000244140625</ele>
        <time>2021-08-17T18:16:37.000Z</time>
      </trkpt>
      <trkpt lat="43.0795066617429256439208984375" lon="-6.072210408747196197509765625">
        <ele>1467.199951171875</ele>
        <time>2021-08-17T18:16:41.000Z</time>
      </trkpt>
      <trkpt lat="43.0795100145041942596435546875" lon="-6.072173528373241424560546875">
        <ele>1467</ele>
        <time>2021-08-17T18:16:45.000Z</time>
      </trkpt>
      <trkpt lat="43.0795126967132091522216796875" lon="-6.072168163955211639404296875">
        <ele>1467</ele>
        <time>2021-08-17T18:16:46.000Z</time>
      </trkpt>
      <trkpt lat="43.079515881836414337158203125" lon="-6.07216405682265758514404296875">
        <ele>1467.199951171875</ele>
        <time>2021-08-17T18:16:47.000Z</time>
      </trkpt>
      <trkpt lat="43.07952267117798328399658203125" lon="-6.0721609555184841156005859375">
        <ele>1467.199951171875</ele>
        <time>2021-08-17T18:16:48.000Z</time>
      </trkpt>
      <trkpt lat="43.0795274488627910614013671875" lon="-6.07214913703501224517822265625">
        <ele>1467.4000244140625</ele>
        <time>2021-08-17T18:16:50.000Z</time>
      </trkpt>
      <trkpt lat="43.07955200783908367156982421875" lon="-6.07211829163134098052978515625">
        <ele>1468</ele>
        <time>2021-08-17T18:16:55.000Z</time>
      </trkpt>
      <trkpt lat="43.07955334894359111785888671875" lon="-6.0721056349575519561767578125">
        <ele>1468.199951171875</ele>
        <time>2021-08-17T18:16:56.000Z</time>
      </trkpt>
      <trkpt lat="43.0795525945723056793212890625" lon="-6.072093732655048370361328125">
        <ele>1468.4000244140625</ele>
        <time>2021-08-17T18:16:57.000Z</time>
      </trkpt>
      <trkpt lat="43.07955720461905002593994140625" lon="-6.07205157168209552764892578125">
        <ele>1469.199951171875</ele>
        <time>2021-08-17T18:17:01.000Z</time>
      </trkpt>
      <trkpt lat="43.0795579589903354644775390625" lon="-6.07204318977892398834228515625">
        <ele>1469.5999755859375</ele>
        <time>2021-08-17T18:17:02.000Z</time>
      </trkpt>
      <trkpt lat="43.07955871336162090301513671875" lon="-6.07203480787575244903564453125">
        <ele>1469.800048828125</ele>
        <time>2021-08-17T18:17:03.000Z</time>
      </trkpt>
      <trkpt lat="43.07955435477197170257568359375" lon="-6.07203363440930843353271484375">
        <ele>1470.199951171875</ele>
        <time>2021-08-17T18:17:04.000Z</time>
      </trkpt>
      <trkpt lat="43.079548738896846771240234375" lon="-6.07203799299895763397216796875">
        <ele>1470.4000244140625</ele>
        <time>2021-08-17T18:17:05.000Z</time>
      </trkpt>
      <trkpt lat="43.0795264430344104766845703125" lon="-6.072027347981929779052734375">
        <ele>1470.800048828125</ele>
        <time>2021-08-17T18:17:09.000Z</time>
      </trkpt>
      <trkpt lat="43.0795235931873321533203125" lon="-6.07202156446874141693115234375">
        <ele>1471</ele>
        <time>2021-08-17T18:17:10.000Z</time>
      </trkpt>
      <trkpt lat="43.079516887664794921875" lon="-6.0720104165375232696533203125">
        <ele>1471.5999755859375</ele>
        <time>2021-08-17T18:17:12.000Z</time>
      </trkpt>
      <trkpt lat="43.0795093439519405364990234375" lon="-6.07199792750179767608642578125">
        <ele>1471.800048828125</ele>
        <time>2021-08-17T18:17:14.000Z</time>
      </trkpt>
      <trkpt lat="43.07949618436396121978759765625" lon="-6.0719892941415309906005859375">
        <ele>1472.4000244140625</ele>
        <time>2021-08-17T18:17:17.000Z</time>
      </trkpt>
      <trkpt lat="43.079493083059787750244140625" lon="-6.07198770157992839813232421875">
        <ele>1472.5999755859375</ele>
        <time>2021-08-17T18:17:18.000Z</time>
      </trkpt>
      <trkpt lat="43.0794811807572841644287109375" lon="-6.07197127304971218109130859375">
        <ele>1473.4000244140625</ele>
        <time>2021-08-17T18:17:21.000Z</time>
      </trkpt>
      <trkpt lat="43.0794801749289035797119140625" lon="-6.071965657174587249755859375">
        <ele>1473.5999755859375</ele>
        <time>2021-08-17T18:17:22.000Z</time>
      </trkpt>
      <trkpt lat="43.07948344387114048004150390625" lon="-6.07193849980831146240234375">
        <ele>1474.5999755859375</ele>
        <time>2021-08-17T18:17:25.000Z</time>
      </trkpt>
      <trkpt lat="43.07949014939367771148681640625" lon="-6.071927435696125030517578125">
        <ele>1474.800048828125</ele>
        <time>2021-08-17T18:17:26.000Z</time>
      </trkpt>
      <trkpt lat="43.07950121350586414337158203125" lon="-6.07187605462968349456787109375">
        <ele>1475.800048828125</ele>
        <time>2021-08-17T18:17:32.000Z</time>
      </trkpt>
      <trkpt lat="43.07951076887547969818115234375" lon="-6.07186297886073589324951171875">
        <ele>1476</ele>
        <time>2021-08-17T18:17:34.000Z</time>
      </trkpt>
      <trkpt lat="43.07953658513724803924560546875" lon="-6.07182827778160572052001953125">
        <ele>1477</ele>
        <time>2021-08-17T18:17:40.000Z</time>
      </trkpt>
      <trkpt lat="43.07953926734626293182373046875" lon="-6.07180380262434482574462890625">
        <ele>1477.4000244140625</ele>
        <time>2021-08-17T18:17:43.000Z</time>
      </trkpt>
      <trkpt lat="43.07954178191721439361572265625" lon="-6.07177245430648326873779296875">
        <ele>1478.199951171875</ele>
        <time>2021-08-17T18:17:47.000Z</time>
      </trkpt>
      <trkpt lat="43.07954681105911731719970703125" lon="-6.0717187263071537017822265625">
        <ele>1479.199951171875</ele>
        <time>2021-08-17T18:17:53.000Z</time>
      </trkpt>
      <trkpt lat="43.07954882271587848663330078125" lon="-6.07171160168945789337158203125">
        <ele>1479.4000244140625</ele>
        <time>2021-08-17T18:17:54.000Z</time>
      </trkpt>
      <trkpt lat="43.07956424541771411895751953125" lon="-6.071692407131195068359375">
        <ele>1480.199951171875</ele>
        <time>2021-08-17T18:17:57.000Z</time>
      </trkpt>
      <trkpt lat="43.07956583797931671142578125" lon="-6.07168310321867465972900390625">
        <ele>1480.4000244140625</ele>
        <time>2021-08-17T18:17:58.000Z</time>
      </trkpt>
      <trkpt lat="43.07957254350185394287109375" lon="-6.07163180597126483917236328125">
        <ele>1481.4000244140625</ele>
        <time>2021-08-17T18:18:04.000Z</time>
      </trkpt>
      <trkpt lat="43.0795727111399173736572265625" lon="-6.0715956799685955047607421875">
        <ele>1481.800048828125</ele>
        <time>2021-08-17T18:18:07.000Z</time>
      </trkpt>
      <trkpt lat="43.07957916520535945892333984375" lon="-6.07156994752585887908935546875">
        <ele>1482.199951171875</ele>
        <time>2021-08-17T18:18:10.000Z</time>
      </trkpt>
      <trkpt lat="43.07958721183240413665771484375" lon="-6.071558296680450439453125">
        <ele>1482.4000244140625</ele>
        <time>2021-08-17T18:18:11.000Z</time>
      </trkpt>
      <trkpt lat="43.07959224097430706024169921875" lon="-6.07154932804405689239501953125">
        <ele>1482.800048828125</ele>
        <time>2021-08-17T18:18:12.000Z</time>
      </trkpt>
      <trkpt lat="43.07959777303040027618408203125" lon="-6.07153273187577724456787109375">
        <ele>1483.4000244140625</ele>
        <time>2021-08-17T18:18:14.000Z</time>
      </trkpt>
      <trkpt lat="43.07959861122071743011474609375" lon="-6.07152284123003482818603515625">
        <ele>1483.5999755859375</ele>
        <time>2021-08-17T18:18:15.000Z</time>
      </trkpt>
      <trkpt lat="43.0796002037823200225830078125" lon="-6.0714940913021564483642578125">
        <ele>1484</ele>
        <time>2021-08-17T18:18:18.000Z</time>
      </trkpt>
      <trkpt lat="43.07959961704909801483154296875" lon="-6.07148176990449428558349609375">
        <ele>1484.4000244140625</ele>
        <time>2021-08-17T18:18:21.000Z</time>
      </trkpt>
      <trkpt lat="43.07959559373557567596435546875" lon="-6.07147959060966968536376953125">
        <ele>1484.5999755859375</ele>
        <time>2021-08-17T18:18:23.000Z</time>
      </trkpt>
      <trkpt lat="43.0795656703412532806396484375" lon="-6.07149660587310791015625">
        <ele>1485</ele>
        <time>2021-08-17T18:18:27.000Z</time>
      </trkpt>
      <trkpt lat="43.07955519296228885650634765625" lon="-6.07149853371083736419677734375">
        <ele>1485.5999755859375</ele>
        <time>2021-08-17T18:18:29.000Z</time>
      </trkpt>
      <trkpt lat="43.079552091658115386962890625" lon="-6.07150222174823284149169921875">
        <ele>1485.800048828125</ele>
        <time>2021-08-17T18:18:30.000Z</time>
      </trkpt>
      <trkpt lat="43.07954094372689723968505859375" lon="-6.07150264084339141845703125">
        <ele>1486.4000244140625</ele>
        <time>2021-08-17T18:18:32.000Z</time>
      </trkpt>
      <trkpt lat="43.07953021489083766937255859375" lon="-6.071500964462757110595703125">
        <ele>1487</ele>
        <time>2021-08-17T18:18:35.000Z</time>
      </trkpt>
      <trkpt lat="43.07952501811087131500244140625" lon="-6.0714977793395519256591796875">
        <ele>1487.5999755859375</ele>
        <time>2021-08-17T18:18:40.000Z</time>
      </trkpt>
      <trkpt lat="43.0795318074524402618408203125" lon="-6.07147087343037128448486328125">
        <ele>1488.199951171875</ele>
        <time>2021-08-17T18:18:45.000Z</time>
      </trkpt>
      <trkpt lat="43.07953222654759883880615234375" lon="-6.07144036330282688140869140625">
        <ele>1489</ele>
        <time>2021-08-17T18:18:50.000Z</time>
      </trkpt>
      <trkpt lat="43.07952434755861759185791015625" lon="-6.071429550647735595703125">
        <ele>1489.4000244140625</ele>
        <time>2021-08-17T18:18:53.000Z</time>
      </trkpt>
      <trkpt lat="43.079512529075145721435546875" lon="-6.0714300535619258880615234375">
        <ele>1490.199951171875</ele>
        <time>2021-08-17T18:18:58.000Z</time>
      </trkpt>
      <trkpt lat="43.079508841037750244140625" lon="-6.07142795808613300323486328125">
        <ele>1490.4000244140625</ele>
        <time>2021-08-17T18:18:59.000Z</time>
      </trkpt>
      <trkpt lat="43.07949685491621494293212890625" lon="-6.07142393477261066436767578125">
        <ele>1491</ele>
        <time>2021-08-17T18:19:02.000Z</time>
      </trkpt>
      <trkpt lat="43.0794828571379184722900390625" lon="-6.071433909237384796142578125">
        <ele>1491.5999755859375</ele>
        <time>2021-08-17T18:19:07.000Z</time>
      </trkpt>
      <trkpt lat="43.07947875000536441802978515625" lon="-6.07143751345574855804443359375">
        <ele>1491.199951171875</ele>
        <time>2021-08-17T18:19:13.000Z</time>
      </trkpt>
      <trkpt lat="43.07948361150920391082763671875" lon="-6.07143667526543140411376953125">
        <ele>1491.199951171875</ele>
        <time>2021-08-17T18:19:15.000Z</time>
      </trkpt>
      <trkpt lat="43.07946885935962200164794921875" lon="-6.0714451409876346588134765625">
        <ele>1491.4000244140625</ele>
        <time>2021-08-17T18:19:22.000Z</time>
      </trkpt>
      <trkpt lat="43.07945779524743556976318359375" lon="-6.0714491643011569976806640625">
        <ele>1491.4000244140625</ele>
        <time>2021-08-17T18:19:24.000Z</time>
      </trkpt>
      <trkpt lat="43.0794379301369190216064453125" lon="-6.07146383263170719146728515625">
        <ele>1490.800048828125</ele>
        <time>2021-08-17T18:19:27.000Z</time>
      </trkpt>
      <trkpt lat="43.07942661456763744354248046875" lon="-6.07146534137427806854248046875">
        <ele>1490.4000244140625</ele>
        <time>2021-08-17T18:19:29.000Z</time>
      </trkpt>
      <trkpt lat="43.079395852982997894287109375" lon="-6.07149300165474414825439453125">
        <ele>1489.199951171875</ele>
        <time>2021-08-17T18:19:33.000Z</time>
      </trkpt>
      <trkpt lat="43.07937464676797389984130859375" lon="-6.0715071670711040496826171875">
        <ele>1489</ele>
        <time>2021-08-17T18:19:35.000Z</time>
      </trkpt>
      <trkpt lat="43.07930834591388702392578125" lon="-6.071517728269100189208984375">
        <ele>1490.4000244140625</ele>
        <time>2021-08-17T18:19:43.000Z</time>
      </trkpt>
      <trkpt lat="43.0792823620140552520751953125" lon="-6.071513034403324127197265625">
        <ele>1491.5999755859375</ele>
        <time>2021-08-17T18:19:47.000Z</time>
      </trkpt>
      <trkpt lat="43.07927221991121768951416015625" lon="-6.07149953953921794891357421875">
        <ele>1492.199951171875</ele>
        <time>2021-08-17T18:19:50.000Z</time>
      </trkpt>
      <trkpt lat="43.07926543056964874267578125" lon="-6.07149836607277393341064453125">
        <ele>1492.800048828125</ele>
        <time>2021-08-17T18:19:52.000Z</time>
      </trkpt>
      <trkpt lat="43.07922813110053539276123046875" lon="-6.071496941149234771728515625">
        <ele>1493</ele>
        <time>2021-08-17T18:19:58.000Z</time>
      </trkpt>
      <trkpt lat="43.07921136729419231414794921875" lon="-6.07149132527410984039306640625">
        <ele>1493.4000244140625</ele>
        <time>2021-08-17T18:20:02.000Z</time>
      </trkpt>
      <trkpt lat="43.07917264290153980255126953125" lon="-6.071471460163593292236328125">
        <ele>1493.5999755859375</ele>
        <time>2021-08-17T18:20:08.000Z</time>
      </trkpt>
      <trkpt lat="43.07915680110454559326171875" lon="-6.071483194828033447265625">
        <ele>1493.800048828125</ele>
        <time>2021-08-17T18:20:10.000Z</time>
      </trkpt>
      <trkpt lat="43.07910743169486522674560546875" lon="-6.0714863799512386322021484375">
        <ele>1494.5999755859375</ele>
        <time>2021-08-17T18:20:16.000Z</time>
      </trkpt>
      <trkpt lat="43.0790842138230800628662109375" lon="-6.07147707603871822357177734375">
        <ele>1494.800048828125</ele>
        <time>2021-08-17T18:20:18.000Z</time>
      </trkpt>
      <trkpt lat="43.07907323352992534637451171875" lon="-6.07147003524005413055419921875">
        <ele>1495.199951171875</ele>
        <time>2021-08-17T18:20:20.000Z</time>
      </trkpt>
      <trkpt lat="43.0790664441883563995361328125" lon="-6.071464084088802337646484375">
        <ele>1495.5999755859375</ele>
        <time>2021-08-17T18:20:21.000Z</time>
      </trkpt>
      <trkpt lat="43.0790543742477893829345703125" lon="-6.07145167887210845947265625">
        <ele>1496</ele>
        <time>2021-08-17T18:20:23.000Z</time>
      </trkpt>
      <trkpt lat="43.079041801393032073974609375" lon="-6.07141706161201000213623046875">
        <ele>1496.800048828125</ele>
        <time>2021-08-17T18:20:27.000Z</time>
      </trkpt>
      <trkpt lat="43.07903987355530261993408203125" lon="-6.0714129544794559478759765625">
        <ele>1497</ele>
        <time>2021-08-17T18:20:28.000Z</time>
      </trkpt>
      <trkpt lat="43.07903601787984371185302734375" lon="-6.07140616513788700103759765625">
        <ele>1497.199951171875</ele>
        <time>2021-08-17T18:20:29.000Z</time>
      </trkpt>
      <trkpt lat="43.07902445085346698760986328125" lon="-6.07139342464506626129150390625">
        <ele>1497.5999755859375</ele>
        <time>2021-08-17T18:20:31.000Z</time>
      </trkpt>
      <trkpt lat="43.07900751940906047821044921875" lon="-6.07138973660767078399658203125">
        <ele>1497.800048828125</ele>
        <time>2021-08-17T18:20:34.000Z</time>
      </trkpt>
      <trkpt lat="43.07899863459169864654541015625" lon="-6.0713935084640979766845703125">
        <ele>1498</ele>
        <time>2021-08-17T18:20:35.000Z</time>
      </trkpt>
      <trkpt lat="43.0789859779179096221923828125" lon="-6.07139744795858860015869140625">
        <ele>1498.4000244140625</ele>
        <time>2021-08-17T18:20:37.000Z</time>
      </trkpt>
      <trkpt lat="43.078975416719913482666015625" lon="-6.07140071690082550048828125">
        <ele>1498.800048828125</ele>
        <time>2021-08-17T18:20:39.000Z</time>
      </trkpt>
      <trkpt lat="43.07896410115063190460205078125" lon="-6.07140063308179378509521484375">
        <ele>1499.4000244140625</ele>
        <time>2021-08-17T18:20:41.000Z</time>
      </trkpt>
      <trkpt lat="43.078954629600048065185546875" lon="-6.07139526866376399993896484375">
        <ele>1500</ele>
        <time>2021-08-17T18:20:43.000Z</time>
      </trkpt>
      <trkpt lat="43.07894364930689334869384765625" lon="-6.071384288370609283447265625">
        <ele>1500.4000244140625</ele>
        <time>2021-08-17T18:20:45.000Z</time>
      </trkpt>
      <trkpt lat="43.078942559659481048583984375" lon="-6.07138336636126041412353515625">
        <ele>1500.800048828125</ele>
        <time>2021-08-17T18:20:46.000Z</time>
      </trkpt>
      <trkpt lat="43.07893828488886356353759765625" lon="-6.07138328254222869873046875">
        <ele>1501</ele>
        <time>2021-08-17T18:20:47.000Z</time>
      </trkpt>
      <trkpt lat="43.078930489718914031982421875" lon="-6.07138252817094326019287109375">
        <ele>1501.199951171875</ele>
        <time>2021-08-17T18:20:48.000Z</time>
      </trkpt>
      <trkpt lat="43.0789174139499664306640625" lon="-6.07137523591518402099609375">
        <ele>1501.5999755859375</ele>
        <time>2021-08-17T18:20:50.000Z</time>
      </trkpt>
      <trkpt lat="43.07891179807484149932861328125" lon="-6.07136760838329792022705078125">
        <ele>1501.800048828125</ele>
        <time>2021-08-17T18:20:51.000Z</time>
      </trkpt>
      <trkpt lat="43.0789081938564777374267578125" lon="-6.07136048376560211181640625">
        <ele>1502</ele>
        <time>2021-08-17T18:20:52.000Z</time>
      </trkpt>
      <trkpt lat="43.07890056632459163665771484375" lon="-6.07135470025241374969482421875">
        <ele>1502.199951171875</ele>
        <time>2021-08-17T18:20:54.000Z</time>
      </trkpt>
      <trkpt lat="43.07888514362275600433349609375" lon="-6.0713418759405612945556640625">
        <ele>1503</ele>
        <time>2021-08-17T18:20:57.000Z</time>
      </trkpt>
      <trkpt lat="43.07886804454028606414794921875" lon="-6.0713303089141845703125">
        <ele>1504.199951171875</ele>
        <time>2021-08-17T18:21:00.000Z</time>
      </trkpt>
      <trkpt lat="43.0788369476795196533203125" lon="-6.0713026486337184906005859375">
        <ele>1505.199951171875</ele>
        <time>2021-08-17T18:21:05.000Z</time>
      </trkpt>
      <trkpt lat="43.0788344331085681915283203125" lon="-6.07129770331084728240966796875">
        <ele>1505.4000244140625</ele>
        <time>2021-08-17T18:21:06.000Z</time>
      </trkpt>
      <trkpt lat="43.07881020940840244293212890625" lon="-6.07129921205341815948486328125">
        <ele>1506.5999755859375</ele>
        <time>2021-08-17T18:21:11.000Z</time>
      </trkpt>
      <trkpt lat="43.07880182750523090362548828125" lon="-6.07129015959799289703369140625">
        <ele>1507.199951171875</ele>
        <time>2021-08-17T18:21:13.000Z</time>
      </trkpt>
      <trkpt lat="43.07878271676599979400634765625" lon="-6.07127188704907894134521484375">
        <ele>1507.5999755859375</ele>
        <time>2021-08-17T18:21:16.000Z</time>
      </trkpt>
      <trkpt lat="43.078751452267169952392578125" lon="-6.07124690897762775421142578125">
        <ele>1508.800048828125</ele>
        <time>2021-08-17T18:21:21.000Z</time>
      </trkpt>
      <trkpt lat="43.0787345208227634429931640625" lon="-6.07121204026043415069580078125">
        <ele>1509.800048828125</ele>
        <time>2021-08-17T18:21:26.000Z</time>
      </trkpt>
      <trkpt lat="43.07873024605214595794677734375" lon="-6.071183793246746063232421875">
        <ele>1510.800048828125</ele>
        <time>2021-08-17T18:21:30.000Z</time>
      </trkpt>
      <trkpt lat="43.07869135402143001556396484375" lon="-6.071160323917865753173828125">
        <ele>1512</ele>
        <time>2021-08-17T18:21:36.000Z</time>
      </trkpt>
      <trkpt lat="43.07868741452693939208984375" lon="-6.07115638442337512969970703125">
        <ele>1512.199951171875</ele>
        <time>2021-08-17T18:21:37.000Z</time>
      </trkpt>
      <trkpt lat="43.0786652863025665283203125" lon="-6.07111774384975433349609375">
        <ele>1513.199951171875</ele>
        <time>2021-08-17T18:21:42.000Z</time>
      </trkpt>
      <trkpt lat="43.0786413140594959259033203125" lon="-6.07105546630918979644775390625">
        <ele>1514.4000244140625</ele>
        <time>2021-08-17T18:21:48.000Z</time>
      </trkpt>
      <trkpt lat="43.07862698100507259368896484375" lon="-6.0710304044187068939208984375">
        <ele>1515.199951171875</ele>
        <time>2021-08-17T18:21:51.000Z</time>
      </trkpt>
      <trkpt lat="43.07862010784447193145751953125" lon="-6.07101305387914180755615234375">
        <ele>1515.5999755859375</ele>
        <time>2021-08-17T18:21:53.000Z</time>
      </trkpt>
      <trkpt lat="43.07858339510858058929443359375" lon="-6.0709507763385772705078125">
        <ele>1516.800048828125</ele>
        <time>2021-08-17T18:22:00.000Z</time>
      </trkpt>
      <trkpt lat="43.0785450898110866546630859375" lon="-6.07091791927814483642578125">
        <ele>1517.800048828125</ele>
        <time>2021-08-17T18:22:05.000Z</time>
      </trkpt>
      <trkpt lat="43.07850108481943607330322265625" lon="-6.07087961398065090179443359375">
        <ele>1519</ele>
        <time>2021-08-17T18:22:12.000Z</time>
      </trkpt>
      <trkpt lat="43.07847007177770137786865234375" lon="-6.07084793038666248321533203125">
        <ele>1520.199951171875</ele>
        <time>2021-08-17T18:22:17.000Z</time>
      </trkpt>
      <trkpt lat="43.078453056514263153076171875" lon="-6.07082965783774852752685546875">
        <ele>1521</ele>
        <time>2021-08-17T18:22:20.000Z</time>
      </trkpt>
      <trkpt lat="43.07843922637403011322021484375" lon="-6.07082697562873363494873046875">
        <ele>1521.4000244140625</ele>
        <time>2021-08-17T18:22:22.000Z</time>
      </trkpt>
      <trkpt lat="43.07841760106384754180908203125" lon="-6.0708220303058624267578125">
        <ele>1522.5999755859375</ele>
        <time>2021-08-17T18:22:26.000Z</time>
      </trkpt>
      <trkpt lat="43.07837317697703838348388671875" lon="-6.07082630507647991180419921875">
        <ele>1523.800048828125</ele>
        <time>2021-08-17T18:22:32.000Z</time>
      </trkpt>
      <trkpt lat="43.07836948893964290618896484375" lon="-6.07082161121070384979248046875">
        <ele>1524</ele>
        <time>2021-08-17T18:22:33.000Z</time>
      </trkpt>
      <trkpt lat="43.0783375538885593414306640625" lon="-6.070829071104526519775390625">
        <ele>1524.800048828125</ele>
        <time>2021-08-17T18:22:37.000Z</time>
      </trkpt>
      <trkpt lat="43.0783023498952388763427734375" lon="-6.07085756957530975341796875">
        <ele>1525.800048828125</ele>
        <time>2021-08-17T18:22:43.000Z</time>
      </trkpt>
      <trkpt lat="43.07825767435133457183837890625" lon="-6.0708553902804851531982421875">
        <ele>1527</ele>
        <time>2021-08-17T18:22:48.000Z</time>
      </trkpt>
      <trkpt lat="43.078237809240818023681640625" lon="-6.07085245661437511444091796875">
        <ele>1527.199951171875</ele>
        <time>2021-08-17T18:22:50.000Z</time>
      </trkpt>
      <trkpt lat="43.0782235600054264068603515625" lon="-6.07085932977497577667236328125">
        <ele>1527.4000244140625</ele>
        <time>2021-08-17T18:22:52.000Z</time>
      </trkpt>
      <trkpt lat="43.07820939458906650543212890625" lon="-6.07086720876395702362060546875">
        <ele>1527.800048828125</ele>
        <time>2021-08-17T18:22:54.000Z</time>
      </trkpt>
      <trkpt lat="43.07820285670459270477294921875" lon="-6.07087911106646060943603515625">
        <ele>1528</ele>
        <time>2021-08-17T18:22:55.000Z</time>
      </trkpt>
      <trkpt lat="43.078196905553340911865234375" lon="-6.0708842240273952484130859375">
        <ele>1528</ele>
        <time>2021-08-17T18:22:56.000Z</time>
      </trkpt>
      <trkpt lat="43.07815340347588062286376953125" lon="-6.070888750255107879638671875">
        <ele>1529</ele>
        <time>2021-08-17T18:23:02.000Z</time>
      </trkpt>
      <trkpt lat="43.07813043706119060516357421875" lon="-6.07089436613023281097412109375">
        <ele>1529.199951171875</ele>
        <time>2021-08-17T18:23:05.000Z</time>
      </trkpt>
      <trkpt lat="43.07808131910860538482666015625" lon="-6.0708916001021862030029296875">
        <ele>1529.199951171875</ele>
        <time>2021-08-17T18:23:12.000Z</time>
      </trkpt>
      <trkpt lat="43.0780552513897418975830078125" lon="-6.0709254629909992218017578125">
        <ele>1529.199951171875</ele>
        <time>2021-08-17T18:23:18.000Z</time>
      </trkpt>
      <trkpt lat="43.07800118811428546905517578125" lon="-6.07093325816094875335693359375">
        <ele>1528.800048828125</ele>
        <time>2021-08-17T18:23:26.000Z</time>
      </trkpt>
      <trkpt lat="43.0779576860368251800537109375" lon="-6.0709150694310665130615234375">
        <ele>1528.800048828125</ele>
        <time>2021-08-17T18:23:30.000Z</time>
      </trkpt>
      <trkpt lat="43.0779419280588626861572265625" lon="-6.0709019936621189117431640625">
        <ele>1529.199951171875</ele>
        <time>2021-08-17T18:23:32.000Z</time>
      </trkpt>
      <trkpt lat="43.07793463580310344696044921875" lon="-6.0708979703485965728759765625">
        <ele>1529.4000244140625</ele>
        <time>2021-08-17T18:23:33.000Z</time>
      </trkpt>
      <trkpt lat="43.07793145067989826202392578125" lon="-6.07089377939701080322265625">
        <ele>1529.5999755859375</ele>
        <time>2021-08-17T18:23:35.000Z</time>
      </trkpt>
      <trkpt lat="43.07791988365352153778076171875" lon="-6.0708885826170444488525390625">
        <ele>1530</ele>
        <time>2021-08-17T18:23:39.000Z</time>
      </trkpt>
      <trkpt lat="43.07791720144450664520263671875" lon="-6.0708885826170444488525390625">
        <ele>1530.199951171875</ele>
        <time>2021-08-17T18:23:41.000Z</time>
      </trkpt>
      <trkpt lat="43.077915944159030914306640625" lon="-6.07089621014893054962158203125">
        <ele>1529.800048828125</ele>
        <time>2021-08-17T18:23:50.000Z</time>
      </trkpt>
      <trkpt lat="43.0779211409389972686767578125" lon="-6.07089838944375514984130859375">
        <ele>1530</ele>
        <time>2021-08-17T18:23:53.000Z</time>
      </trkpt>
      <trkpt lat="43.07792424224317073822021484375" lon="-6.0708916001021862030029296875">
        <ele>1529.800048828125</ele>
        <time>2021-08-17T18:24:02.000Z</time>
      </trkpt>
      <trkpt lat="43.07792189531028270721435546875" lon="-6.070893108844757080078125">
        <ele>1529.800048828125</ele>
        <time>2021-08-17T18:24:05.000Z</time>
      </trkpt>
      <trkpt lat="43.07792164385318756103515625" lon="-6.070893444120883941650390625">
        <ele>1529.800048828125</ele>
        <time>2021-08-17T18:24:06.000Z</time>
      </trkpt>
      <trkpt lat="43.0779208056628704071044921875" lon="-6.0708939470350742340087890625">
        <ele>1529.800048828125</ele>
        <time>2021-08-17T18:24:07.000Z</time>
      </trkpt>
      <trkpt lat="43.0779182910919189453125" lon="-6.07089453376829624176025390625">
        <ele>1529.800048828125</ele>
        <time>2021-08-17T18:24:10.000Z</time>
      </trkpt>
      <trkpt lat="43.07791627943515777587890625" lon="-6.07089570723474025726318359375">
        <ele>1529.800048828125</ele>
        <time>2021-08-17T18:24:13.000Z</time>
      </trkpt>
      <trkpt lat="43.077929355204105377197265625" lon="-6.0709036700427532196044921875">
        <ele>1529.5999755859375</ele>
        <time>2021-08-17T18:24:22.000Z</time>
      </trkpt>
      <trkpt lat="43.077924661338329315185546875" lon="-6.07089914381504058837890625">
        <ele>1529.5999755859375</ele>
        <time>2021-08-17T18:24:26.000Z</time>
      </trkpt>
      <trkpt lat="43.0779142677783966064453125" lon="-6.070885397493839263916015625">
        <ele>1530</ele>
        <time>2021-08-17T18:24:36.000Z</time>
      </trkpt>
      <trkpt lat="43.07789775542914867401123046875" lon="-6.07084005139768123626708984375">
        <ele>1531.4000244140625</ele>
        <time>2021-08-17T18:24:44.000Z</time>
      </trkpt>
      <trkpt lat="43.07789021171629428863525390625" lon="-6.07081037946045398712158203125">
        <ele>1531.5999755859375</ele>
        <time>2021-08-17T18:24:47.000Z</time>
      </trkpt>
      <trkpt lat="43.07788602076470851898193359375" lon="-6.07078523375093936920166015625">
        <ele>1531.800048828125</ele>
        <time>2021-08-17T18:24:49.000Z</time>
      </trkpt>
      <trkpt lat="43.077877052128314971923828125" lon="-6.07075824402272701263427734375">
        <ele>1532.199951171875</ele>
        <time>2021-08-17T18:24:51.000Z</time>
      </trkpt>
      <trkpt lat="43.0778718553483486175537109375" lon="-6.0707440786063671112060546875">
        <ele>1532.199951171875</ele>
        <time>2021-08-17T18:24:52.000Z</time>
      </trkpt>
      <trkpt lat="43.07787177152931690216064453125" lon="-6.07073150575160980224609375">
        <ele>1532.4000244140625</ele>
        <time>2021-08-17T18:24:53.000Z</time>
      </trkpt>
      <trkpt lat="43.0778654851019382476806640625" lon="-6.07071482576429843902587890625">
        <ele>1532.5999755859375</ele>
        <time>2021-08-17T18:24:54.000Z</time>
      </trkpt>
      <trkpt lat="43.077862970530986785888671875" lon="-6.0706988163292407989501953125">
        <ele>1532.5999755859375</ele>
        <time>2021-08-17T18:24:55.000Z</time>
      </trkpt>
      <trkpt lat="43.07786389254033565521240234375" lon="-6.07066847383975982666015625">
        <ele>1533</ele>
        <time>2021-08-17T18:24:57.000Z</time>
      </trkpt>
      <trkpt lat="43.07785618118941783905029296875" lon="-6.07062228955328464508056640625">
        <ele>1533.4000244140625</ele>
        <time>2021-08-17T18:25:01.000Z</time>
      </trkpt>
      <trkpt lat="43.07783849537372589111328125" lon="-6.07060544192790985107421875">
        <ele>1534</ele>
        <time>2021-08-17T18:25:03.000Z</time>
      </trkpt>
      <trkpt lat="43.07782432995736598968505859375" lon="-6.0705985687673091888427734375">
        <ele>1534.199951171875</ele>
        <time>2021-08-17T18:25:04.000Z</time>
      </trkpt>
      <trkpt lat="43.0778141878545284271240234375" lon="-6.07059597037732601165771484375">
        <ele>1534.5999755859375</ele>
        <time>2021-08-17T18:25:05.000Z</time>
      </trkpt>
      <trkpt lat="43.07775492779910564422607421875" lon="-6.07057300396263599395751953125">
        <ele>1535.5999755859375</ele>
        <time>2021-08-17T18:25:11.000Z</time>
      </trkpt>
      <trkpt lat="43.0777397565543651580810546875" lon="-6.070573590695858001708984375">
        <ele>1536</ele>
        <time>2021-08-17T18:25:13.000Z</time>
      </trkpt>
      <trkpt lat="43.0776889622211456298828125" lon="-6.0705804638564586639404296875">
        <ele>1536.800048828125</ele>
        <time>2021-08-17T18:25:18.000Z</time>
      </trkpt>
      <trkpt lat="43.07766406796872615814208984375" lon="-6.070597730576992034912109375">
        <ele>1537.4000244140625</ele>
        <time>2021-08-17T18:25:20.000Z</time>
      </trkpt>
      <trkpt lat="43.0776368267834186553955078125" lon="-6.07060854323208332061767578125">
        <ele>1538</ele>
        <time>2021-08-17T18:25:23.000Z</time>
      </trkpt>
      <trkpt lat="43.07763003744184970855712890625" lon="-6.07061214745044708251953125">
        <ele>1538</ele>
        <time>2021-08-17T18:25:24.000Z</time>
      </trkpt>
      <trkpt lat="43.0776227451860904693603515625" lon="-6.07061558403074741363525390625">
        <ele>1538.199951171875</ele>
        <time>2021-08-17T18:25:25.000Z</time>
      </trkpt>
      <trkpt lat="43.0776130221784114837646484375" lon="-6.07061843387782573699951171875">
        <ele>1538.4000244140625</ele>
        <time>2021-08-17T18:25:26.000Z</time>
      </trkpt>
      <trkpt lat="43.07760338298976421356201171875" lon="-6.07061943970620632171630859375">
        <ele>1538.4000244140625</ele>
        <time>2021-08-17T18:25:27.000Z</time>
      </trkpt>
      <trkpt lat="43.07759282179176807403564453125" lon="-6.070619523525238037109375">
        <ele>1538.4000244140625</ele>
        <time>2021-08-17T18:25:28.000Z</time>
      </trkpt>
      <trkpt lat="43.0775818414986133575439453125" lon="-6.07061684131622314453125">
        <ele>1538.4000244140625</ele>
        <time>2021-08-17T18:25:29.000Z</time>
      </trkpt>
      <trkpt lat="43.07757438160479068756103515625" lon="-6.07061575166881084442138671875">
        <ele>1538.5999755859375</ele>
        <time>2021-08-17T18:25:30.000Z</time>
      </trkpt>
      <trkpt lat="43.077566586434841156005859375" lon="-6.07061105780303478240966796875">
        <ele>1538.5999755859375</ele>
        <time>2021-08-17T18:25:31.000Z</time>
      </trkpt>
      <trkpt lat="43.0775600485503673553466796875" lon="-6.07060569338500499725341796875">
        <ele>1538.5999755859375</ele>
        <time>2021-08-17T18:25:32.000Z</time>
      </trkpt>
      <trkpt lat="43.0775496549904346466064453125" lon="-6.07059831731021404266357421875">
        <ele>1538.800048828125</ele>
        <time>2021-08-17T18:25:33.000Z</time>
      </trkpt>
      <trkpt lat="43.0775409378111362457275390625" lon="-6.0705898515880107879638671875">
        <ele>1539</ele>
        <time>2021-08-17T18:25:34.000Z</time>
      </trkpt>
      <trkpt lat="43.07753347791731357574462890625" lon="-6.070584319531917572021484375">
        <ele>1539.199951171875</ele>
        <time>2021-08-17T18:25:35.000Z</time>
      </trkpt>
      <trkpt lat="43.077535741031169891357421875" lon="-6.070582307875156402587890625">
        <ele>1539.4000244140625</ele>
        <time>2021-08-17T18:25:36.000Z</time>
      </trkpt>
      <trkpt lat="43.0775100924074649810791015625" lon="-6.07053914107382297515869140625">
        <ele>1540.4000244140625</ele>
        <time>2021-08-17T18:25:41.000Z</time>
      </trkpt>
      <trkpt lat="43.07748503051698207855224609375" lon="-6.07054014690220355987548828125">
        <ele>1541.4000244140625</ele>
        <time>2021-08-17T18:25:44.000Z</time>
      </trkpt>
      <trkpt lat="43.07747446931898593902587890625" lon="-6.07054869644343852996826171875">
        <ele>1542</ele>
        <time>2021-08-17T18:25:46.000Z</time>
      </trkpt>
      <trkpt lat="43.0774433724582195281982421875" lon="-6.070568896830081939697265625">
        <ele>1542.4000244140625</ele>
        <time>2021-08-17T18:25:51.000Z</time>
      </trkpt>
      <trkpt lat="43.0774363316595554351806640625" lon="-6.0705697350203990936279296875">
        <ele>1542.5999755859375</ele>
        <time>2021-08-17T18:25:52.000Z</time>
      </trkpt>
      <trkpt lat="43.0774155445396900177001953125" lon="-6.07056797482073307037353515625">
        <ele>1543</ele>
        <time>2021-08-17T18:25:55.000Z</time>
      </trkpt>
      <trkpt lat="43.07739970274269580841064453125" lon="-6.070568896830081939697265625">
        <ele>1543.800048828125</ele>
        <time>2021-08-17T18:25:57.000Z</time>
      </trkpt>
      <trkpt lat="43.07738042436540126800537109375" lon="-6.0705647058784961700439453125">
        <ele>1544.5999755859375</ele>
        <time>2021-08-17T18:26:00.000Z</time>
      </trkpt>
      <trkpt lat="43.07736097835004329681396484375" lon="-6.0705509595572948455810546875">
        <ele>1544.800048828125</ele>
        <time>2021-08-17T18:26:02.000Z</time>
      </trkpt>
      <trkpt lat="43.0773323960602283477783203125" lon="-6.0705127380788326263427734375">
        <ele>1545.800048828125</ele>
        <time>2021-08-17T18:26:07.000Z</time>
      </trkpt>
      <trkpt lat="43.077315129339694976806640625" lon="-6.07047761790454387664794921875">
        <ele>1546.4000244140625</ele>
        <time>2021-08-17T18:26:11.000Z</time>
      </trkpt>
      <trkpt lat="43.07729777880012989044189453125" lon="-6.07045331038534641265869140625">
        <ele>1547.199951171875</ele>
        <time>2021-08-17T18:26:14.000Z</time>
      </trkpt>
      <trkpt lat="43.0772831104695796966552734375" lon="-6.07040788047015666961669921875">
        <ele>1548.199951171875</ele>
        <time>2021-08-17T18:26:19.000Z</time>
      </trkpt>
      <trkpt lat="43.0772598087787628173828125" lon="-6.0703799687325954437255859375">
        <ele>1549</ele>
        <time>2021-08-17T18:26:24.000Z</time>
      </trkpt>
      <trkpt lat="43.077255450189113616943359375" lon="-6.0703739337623119354248046875">
        <ele>1549.199951171875</ele>
        <time>2021-08-17T18:26:25.000Z</time>
      </trkpt>
      <trkpt lat="43.07723189704120159149169921875" lon="-6.07035172171890735626220703125">
        <ele>1550.4000244140625</ele>
        <time>2021-08-17T18:26:28.000Z</time>
      </trkpt>
      <trkpt lat="43.0772251076996326446533203125" lon="-6.07034300453960895538330078125">
        <ele>1550.5999755859375</ele>
        <time>2021-08-17T18:26:29.000Z</time>
      </trkpt>
      <trkpt lat="43.0772061645984649658203125" lon="-6.07031316496431827545166015625">
        <ele>1551.199951171875</ele>
        <time>2021-08-17T18:26:32.000Z</time>
      </trkpt>
      <trkpt lat="43.07719149626791477203369140625" lon="-6.07028801925480365753173828125">
        <ele>1551.4000244140625</ele>
        <time>2021-08-17T18:26:34.000Z</time>
      </trkpt>
      <trkpt lat="43.0771798454225063323974609375" lon="-6.070240996778011322021484375">
        <ele>1552.199951171875</ele>
        <time>2021-08-17T18:26:38.000Z</time>
      </trkpt>
      <trkpt lat="43.07717657648026943206787109375" lon="-6.07023118995130062103271484375">
        <ele>1552.5999755859375</ele>
        <time>2021-08-17T18:26:39.000Z</time>
      </trkpt>
      <trkpt lat="43.0771620757877826690673828125" lon="-6.070190705358982086181640625">
        <ele>1553.5999755859375</ele>
        <time>2021-08-17T18:26:45.000Z</time>
      </trkpt>
      <trkpt lat="43.0771721340715885162353515625" lon="-6.07016421854496002197265625">
        <ele>1554.5999755859375</ele>
        <time>2021-08-17T18:26:50.000Z</time>
      </trkpt>
      <trkpt lat="43.0771728046238422393798828125" lon="-6.07016430236399173736572265625">
        <ele>1555</ele>
        <time>2021-08-17T18:26:51.000Z</time>
      </trkpt>
      <trkpt lat="43.07717942632734775543212890625" lon="-6.07017234899103641510009765625">
        <ele>1555.800048828125</ele>
        <time>2021-08-17T18:26:59.000Z</time>
      </trkpt>
      <trkpt lat="43.07717573828995227813720703125" lon="-6.070168912410736083984375">
        <ele>1556</ele>
        <time>2021-08-17T18:27:01.000Z</time>
      </trkpt>
      <trkpt lat="43.0771389417350292205810546875" lon="-6.0701549984514713287353515625">
        <ele>1556.800048828125</ele>
        <time>2021-08-17T18:27:08.000Z</time>
      </trkpt>
      <trkpt lat="43.077124021947383880615234375" lon="-6.0701372288167476654052734375">
        <ele>1557.5999755859375</ele>
        <time>2021-08-17T18:27:10.000Z</time>
      </trkpt>
      <trkpt lat="43.0771171487867832183837890625" lon="-6.0701278410851955413818359375">
        <ele>1558</ele>
        <time>2021-08-17T18:27:12.000Z</time>
      </trkpt>
      <trkpt lat="43.07710893452167510986328125" lon="-6.0701120831072330474853515625">
        <ele>1559</ele>
        <time>2021-08-17T18:27:15.000Z</time>
      </trkpt>
      <trkpt lat="43.0770749039947986602783203125" lon="-6.0700993426144123077392578125">
        <ele>1560.4000244140625</ele>
        <time>2021-08-17T18:27:21.000Z</time>
      </trkpt>
      <trkpt lat="43.07704967446625232696533203125" lon="-6.07006740756332874298095703125">
        <ele>1561.4000244140625</ele>
        <time>2021-08-17T18:27:25.000Z</time>
      </trkpt>
      <trkpt lat="43.07704129256308078765869140625" lon="-6.07005014084279537200927734375">
        <ele>1562</ele>
        <time>2021-08-17T18:27:27.000Z</time>
      </trkpt>
      <trkpt lat="43.0770356766879558563232421875" lon="-6.0700292699038982391357421875">
        <ele>1562.5999755859375</ele>
        <time>2021-08-17T18:27:30.000Z</time>
      </trkpt>
      <trkpt lat="43.07706333696842193603515625" lon="-6.0699910484254360198974609375">
        <ele>1563.199951171875</ele>
        <time>2021-08-17T18:27:36.000Z</time>
      </trkpt>
      <trkpt lat="43.07707129977643489837646484375" lon="-6.06997369788587093353271484375">
        <ele>1563.5999755859375</ele>
        <time>2021-08-17T18:27:38.000Z</time>
      </trkpt>
      <trkpt lat="43.0770935118198394775390625" lon="-6.06994830071926116943359375">
        <ele>1564.800048828125</ele>
        <time>2021-08-17T18:27:42.000Z</time>
      </trkpt>
      <trkpt lat="43.07711823843419551849365234375" lon="-6.06991167180240154266357421875">
        <ele>1565.800048828125</ele>
        <time>2021-08-17T18:27:47.000Z</time>
      </trkpt>
      <trkpt lat="43.0771369300782680511474609375" lon="-6.06990848667919635772705078125">
        <ele>1566.199951171875</ele>
        <time>2021-08-17T18:27:49.000Z</time>
      </trkpt>
      <trkpt lat="43.07714992202818393707275390625" lon="-6.0698961652815341949462890625">
        <ele>1566.800048828125</ele>
        <time>2021-08-17T18:27:51.000Z</time>
      </trkpt>
      <trkpt lat="43.0771892331540584564208984375" lon="-6.06985366903245449066162109375">
        <ele>1568</ele>
        <time>2021-08-17T18:27:58.000Z</time>
      </trkpt>
      <trkpt lat="43.07721513323485851287841796875" lon="-6.06981829740107059478759765625">
        <ele>1568.5999755859375</ele>
        <time>2021-08-17T18:28:02.000Z</time>
      </trkpt>
      <trkpt lat="43.07722116820514202117919921875" lon="-6.0698106698691844940185546875">
        <ele>1569</ele>
        <time>2021-08-17T18:28:03.000Z</time>
      </trkpt>
      <trkpt lat="43.077227286994457244873046875" lon="-6.069806478917598724365234375">
        <ele>1569.5999755859375</ele>
        <time>2021-08-17T18:28:04.000Z</time>
      </trkpt>
      <trkpt lat="43.077239692211151123046875" lon="-6.069795750081539154052734375">
        <ele>1570.199951171875</ele>
        <time>2021-08-17T18:28:06.000Z</time>
      </trkpt>
      <trkpt lat="43.07727992534637451171875" lon="-6.0697758011519908905029296875">
        <ele>1571.4000244140625</ele>
        <time>2021-08-17T18:28:11.000Z</time>
      </trkpt>
      <trkpt lat="43.0773062445223331451416015625" lon="-6.06974252499639987945556640625">
        <ele>1572.5999755859375</ele>
        <time>2021-08-17T18:28:16.000Z</time>
      </trkpt>
      <trkpt lat="43.07732124812901020050048828125" lon="-6.06973749585449695587158203125">
        <ele>1573</ele>
        <time>2021-08-17T18:28:18.000Z</time>
      </trkpt>
      <trkpt lat="43.0773588828742504119873046875" lon="-6.06973146088421344757080078125">
        <ele>1573.800048828125</ele>
        <time>2021-08-17T18:28:22.000Z</time>
      </trkpt>
      <trkpt lat="43.0774145387113094329833984375" lon="-6.069725342094898223876953125">
        <ele>1574.800048828125</ele>
        <time>2021-08-17T18:28:29.000Z</time>
      </trkpt>
      <trkpt lat="43.0774339847266674041748046875" lon="-6.06972567737102508544921875">
        <ele>1575.4000244140625</ele>
        <time>2021-08-17T18:28:31.000Z</time>
      </trkpt>
      <trkpt lat="43.07745267637073993682861328125" lon="-6.069730706512928009033203125">
        <ele>1576</ele>
        <time>2021-08-17T18:28:33.000Z</time>
      </trkpt>
      <trkpt lat="43.0774839408695697784423828125" lon="-6.06969323940575122833251953125">
        <ele>1577</ele>
        <time>2021-08-17T18:28:38.000Z</time>
      </trkpt>
      <trkpt lat="43.07748855091631412506103515625" lon="-6.069677732884883880615234375">
        <ele>1577.199951171875</ele>
        <time>2021-08-17T18:28:39.000Z</time>
      </trkpt>
      <trkpt lat="43.07751134969294071197509765625" lon="-6.06963180005550384521484375">
        <ele>1578.199951171875</ele>
        <time>2021-08-17T18:28:43.000Z</time>
      </trkpt>
      <trkpt lat="43.0775154568254947662353515625" lon="-6.0696150362491607666015625">
        <ele>1578.5999755859375</ele>
        <time>2021-08-17T18:28:44.000Z</time>
      </trkpt>
      <trkpt lat="43.07752660475671291351318359375" lon="-6.06956885196268558502197265625">
        <ele>1579.4000244140625</ele>
        <time>2021-08-17T18:28:48.000Z</time>
      </trkpt>
      <trkpt lat="43.07752945460379123687744140625" lon="-6.06955560855567455291748046875">
        <ele>1579.4000244140625</ele>
        <time>2021-08-17T18:28:49.000Z</time>
      </trkpt>
      <trkpt lat="43.077522329986095428466796875" lon="-6.0694460570812225341796875">
        <ele>1580.4000244140625</ele>
        <time>2021-08-17T18:28:57.000Z</time>
      </trkpt>
      <trkpt lat="43.0775328911840915679931640625" lon="-6.06939978897571563720703125">
        <ele>1580.199951171875</ele>
        <time>2021-08-17T18:29:01.000Z</time>
      </trkpt>
      <trkpt lat="43.07754806242883205413818359375" lon="-6.06933952309191226959228515625">
        <ele>1579.800048828125</ele>
        <time>2021-08-17T18:29:07.000Z</time>
      </trkpt>
      <trkpt lat="43.0775521695613861083984375" lon="-6.06932862661778926849365234375">
        <ele>1580</ele>
        <time>2021-08-17T18:29:10.000Z</time>
      </trkpt>
      <trkpt lat="43.07755895890295505523681640625" lon="-6.06927431188523769378662109375">
        <ele>1580</ele>
        <time>2021-08-17T18:29:15.000Z</time>
      </trkpt>
      <trkpt lat="43.077583014965057373046875" lon="-6.0692246071994304656982421875">
        <ele>1580</ele>
        <time>2021-08-17T18:29:19.000Z</time>
      </trkpt>
      <trkpt lat="43.0776210688054561614990234375" lon="-6.06914791278541088104248046875">
        <ele>1580.800048828125</ele>
        <time>2021-08-17T18:29:26.000Z</time>
      </trkpt>
      <trkpt lat="43.07763598859310150146484375" lon="-6.069119833409786224365234375">
        <ele>1581</ele>
        <time>2021-08-17T18:29:28.000Z</time>
      </trkpt>
      <trkpt lat="43.07764160446822643280029296875" lon="-6.06910851784050464630126953125">
        <ele>1581.199951171875</ele>
        <time>2021-08-17T18:29:29.000Z</time>
      </trkpt>
      <trkpt lat="43.0776609666645526885986328125" lon="-6.06909242458641529083251953125">
        <ele>1581.4000244140625</ele>
        <time>2021-08-17T18:29:31.000Z</time>
      </trkpt>
      <trkpt lat="43.0777310393750667572021484375" lon="-6.06901262886822223663330078125">
        <ele>1582.5999755859375</ele>
        <time>2021-08-17T18:29:40.000Z</time>
      </trkpt>
      <trkpt lat="43.0777575261890888214111328125" lon="-6.06896384619176387786865234375">
        <ele>1583.800048828125</ele>
        <time>2021-08-17T18:29:45.000Z</time>
      </trkpt>
      <trkpt lat="43.07778082787990570068359375" lon="-6.06890819035470485687255859375">
        <ele>1584.800048828125</ele>
        <time>2021-08-17T18:29:50.000Z</time>
      </trkpt>
      <trkpt lat="43.07779532857239246368408203125" lon="-6.06889209710061550140380859375">
        <ele>1585.199951171875</ele>
        <time>2021-08-17T18:29:52.000Z</time>
      </trkpt>
      <trkpt lat="43.0778172053396701812744140625" lon="-6.068877764046192169189453125">
        <ele>1585.800048828125</ele>
        <time>2021-08-17T18:29:56.000Z</time>
      </trkpt>
      <trkpt lat="43.07782131247222423553466796875" lon="-6.0688801109790802001953125">
        <ele>1585.800048828125</ele>
        <time>2021-08-17T18:29:57.000Z</time>
      </trkpt>
      <trkpt lat="43.07782910764217376708984375" lon="-6.06887181289494037628173828125">
        <ele>1586</ele>
        <time>2021-08-17T18:29:59.000Z</time>
      </trkpt>
      <trkpt lat="43.07783790864050388336181640625" lon="-6.0688534565269947052001953125">
        <ele>1586.199951171875</ele>
        <time>2021-08-17T18:30:02.000Z</time>
      </trkpt>
      <trkpt lat="43.07783455587923526763916015625" lon="-6.0688336752355098724365234375">
        <ele>1586.800048828125</ele>
        <time>2021-08-17T18:30:05.000Z</time>
      </trkpt>
      <trkpt lat="43.07782315649092197418212890625" lon="-6.068823449313640594482421875">
        <ele>1587</ele>
        <time>2021-08-17T18:30:07.000Z</time>
      </trkpt>
      <trkpt lat="43.077840171754360198974609375" lon="-6.06880056671798229217529296875">
        <ele>1587.199951171875</ele>
        <time>2021-08-17T18:30:11.000Z</time>
      </trkpt>
      <trkpt lat="43.077850900590419769287109375" lon="-6.068775169551372528076171875">
        <ele>1587.800048828125</ele>
        <time>2021-08-17T18:30:22.000Z</time>
      </trkpt>
      <trkpt lat="43.0778753757476806640625" lon="-6.0687662847340106964111328125">
        <ele>1587.800048828125</ele>
        <time>2021-08-17T18:30:25.000Z</time>
      </trkpt>
      <trkpt lat="43.07790362276136875152587890625" lon="-6.0687183402478694915771484375">
        <ele>1588</ele>
        <time>2021-08-17T18:30:30.000Z</time>
      </trkpt>
      <trkpt lat="43.077906556427478790283203125" lon="-6.068694032728672027587890625">
        <ele>1588</ele>
        <time>2021-08-17T18:30:32.000Z</time>
      </trkpt>
      <trkpt lat="43.07790513150393962860107421875" lon="-6.06865270994603633880615234375">
        <ele>1588</ele>
        <time>2021-08-17T18:30:36.000Z</time>
      </trkpt>
      <trkpt lat="43.07790286839008331298828125" lon="-6.06859906576573848724365234375">
        <ele>1588.800048828125</ele>
        <time>2021-08-17T18:30:40.000Z</time>
      </trkpt>
      <trkpt lat="43.0779000185430049896240234375" lon="-6.06856838800013065338134765625">
        <ele>1589</ele>
        <time>2021-08-17T18:30:42.000Z</time>
      </trkpt>
      <trkpt lat="43.0779100768268108367919921875" lon="-6.06848658062517642974853515625">
        <ele>1589.4000244140625</ele>
        <time>2021-08-17T18:30:48.000Z</time>
      </trkpt>
      <trkpt lat="43.07792005129158496856689453125" lon="-6.0684544779360294342041015625">
        <ele>1589.4000244140625</ele>
        <time>2021-08-17T18:30:51.000Z</time>
      </trkpt>
      <trkpt lat="43.077926672995090484619140625" lon="-6.06843042187392711639404296875">
        <ele>1589.199951171875</ele>
        <time>2021-08-17T18:30:53.000Z</time>
      </trkpt>
      <trkpt lat="43.07793362997472286224365234375" lon="-6.06839530169963836669921875">
        <ele>1589.4000244140625</ele>
        <time>2021-08-17T18:30:57.000Z</time>
      </trkpt>
      <trkpt lat="43.0779332108795642852783203125" lon="-6.0683904401957988739013671875">
        <ele>1589.4000244140625</ele>
        <time>2021-08-17T18:30:58.000Z</time>
      </trkpt>
      <trkpt lat="43.0779429338872432708740234375" lon="-6.0683813877403736114501953125">
        <ele>1589.5999755859375</ele>
        <time>2021-08-17T18:31:01.000Z</time>
      </trkpt>
      <trkpt lat="43.077945448458194732666015625" lon="-6.0683746822178363800048828125">
        <ele>1589.4000244140625</ele>
        <time>2021-08-17T18:31:03.000Z</time>
      </trkpt>
      <trkpt lat="43.0779456160962581634521484375" lon="-6.06837250292301177978515625">
        <ele>1589.199951171875</ele>
        <time>2021-08-17T18:31:07.000Z</time>
      </trkpt>
      <trkpt lat="43.077951483428478240966796875" lon="-6.068379543721675872802734375">
        <ele>1589.199951171875</ele>
        <time>2021-08-17T18:31:11.000Z</time>
      </trkpt>
      <trkpt lat="43.077943436801433563232421875" lon="-6.0683813877403736114501953125">
        <ele>1589.199951171875</ele>
        <time>2021-08-17T18:31:14.000Z</time>
      </trkpt>
      <trkpt lat="43.0779449455440044403076171875" lon="-6.06837878935039043426513671875">
        <ele>1589.4000244140625</ele>
        <time>2021-08-17T18:31:16.000Z</time>
      </trkpt>
      <trkpt lat="43.07794486172497272491455078125" lon="-6.06837845407426357269287109375">
        <ele>1589.4000244140625</ele>
        <time>2021-08-17T18:31:17.000Z</time>
      </trkpt>
      <trkpt lat="43.07794888503849506378173828125" lon="-6.0683736763894557952880859375">
        <ele>1589.5999755859375</ele>
        <time>2021-08-17T18:31:22.000Z</time>
      </trkpt>
      <trkpt lat="43.07794905267655849456787109375" lon="-6.06835833750665187835693359375">
        <ele>1589.5999755859375</ele>
        <time>2021-08-17T18:31:29.000Z</time>
      </trkpt>
      <trkpt lat="43.077960871160030364990234375" lon="-6.0683646239340305328369140625">
        <ele>1589.4000244140625</ele>
        <time>2021-08-17T18:31:32.000Z</time>
      </trkpt>
      <trkpt lat="43.078041337430477142333984375" lon="-6.06831751763820648193359375">
        <ele>1589</ele>
        <time>2021-08-17T18:31:41.000Z</time>
      </trkpt>
      <trkpt lat="43.07808098383247852325439453125" lon="-6.06828575022518634796142578125">
        <ele>1589.199951171875</ele>
        <time>2021-08-17T18:31:46.000Z</time>
      </trkpt>
      <trkpt lat="43.0780847556889057159423828125" lon="-6.06828139163553714752197265625">
        <ele>1589.199951171875</ele>
        <time>2021-08-17T18:31:47.000Z</time>
      </trkpt>
      <trkpt lat="43.07805315591394901275634765625" lon="-6.0683213733136653900146484375">
        <ele>1589.199951171875</ele>
        <time>2021-08-17T18:31:51.000Z</time>
      </trkpt>
      <trkpt lat="43.07801761664450168609619140625" lon="-6.06835079379379749298095703125">
        <ele>1589</ele>
        <time>2021-08-17T18:31:54.000Z</time>
      </trkpt>
      <trkpt lat="43.0780079774558544158935546875" lon="-6.06835775077342987060546875">
        <ele>1589</ele>
        <time>2021-08-17T18:31:55.000Z</time>
      </trkpt>
      <trkpt lat="43.0779962427914142608642578125" lon="-6.06836956925690174102783203125">
        <ele>1589</ele>
        <time>2021-08-17T18:31:57.000Z</time>
      </trkpt>
      <trkpt lat="43.0779840052127838134765625" lon="-6.0683865845203399658203125">
        <ele>1589.199951171875</ele>
        <time>2021-08-17T18:32:00.000Z</time>
      </trkpt>
      <trkpt lat="43.077978976070880889892578125" lon="-6.0683921165764331817626953125">
        <ele>1589.4000244140625</ele>
        <time>2021-08-17T18:32:06.000Z</time>
      </trkpt>
      <trkpt lat="43.07798123918473720550537109375" lon="-6.06838767416775226593017578125">
        <ele>1589.199951171875</ele>
        <time>2021-08-17T18:32:11.000Z</time>
      </trkpt>
      <trkpt lat="43.07797260582447052001953125" lon="-6.0683763585984706878662109375">
        <ele>1589.4000244140625</ele>
        <time>2021-08-17T18:32:16.000Z</time>
      </trkpt>
      <trkpt lat="43.0779690854251384735107421875" lon="-6.06837610714137554168701171875">
        <ele>1589.4000244140625</ele>
        <time>2021-08-17T18:32:20.000Z</time>
      </trkpt>
      <trkpt lat="43.077968917787075042724609375" lon="-6.06837007217109203338623046875">
        <ele>1588.800048828125</ele>
        <time>2021-08-17T18:32:27.000Z</time>
      </trkpt>
      <trkpt lat="43.07797394692897796630859375" lon="-6.068366132676601409912109375">
        <ele>1588.800048828125</ele>
        <time>2021-08-17T18:32:33.000Z</time>
      </trkpt>
      <trkpt lat="43.07798526249825954437255859375" lon="-6.06834911741316318511962890625">
        <ele>1589.4000244140625</ele>
        <time>2021-08-17T18:32:42.000Z</time>
      </trkpt>
      <trkpt lat="43.0779841728508472442626953125" lon="-6.06834643520414829254150390625">
        <ele>1589.4000244140625</ele>
        <time>2021-08-17T18:32:43.000Z</time>
      </trkpt>
      <trkpt lat="43.07798610068857669830322265625" lon="-6.06834576465189456939697265625">
        <ele>1589.4000244140625</ele>
        <time>2021-08-17T18:32:44.000Z</time>
      </trkpt>
      <trkpt lat="43.0779979191720485687255859375" lon="-6.06834006495773792266845703125">
        <ele>1589.5999755859375</ele>
        <time>2021-08-17T18:32:47.000Z</time>
      </trkpt>
      <trkpt lat="43.078012503683567047119140625" lon="-6.0683351196348667144775390625">
        <ele>1589.199951171875</ele>
        <time>2021-08-17T18:32:52.000Z</time>
      </trkpt>
      <trkpt lat="43.07801828719675540924072265625" lon="-6.06833889149129390716552734375">
        <ele>1589.199951171875</ele>
        <time>2021-08-17T18:32:55.000Z</time>
      </trkpt>
      <trkpt lat="43.0780203826725482940673828125" lon="-6.068339981138706207275390625">
        <ele>1588.800048828125</ele>
        <time>2021-08-17T18:32:59.000Z</time>
      </trkpt>
      <trkpt lat="43.07800906710326671600341796875" lon="-6.068348698318004608154296875">
        <ele>1589</ele>
        <time>2021-08-17T18:33:05.000Z</time>
      </trkpt>
      <trkpt lat="43.07799146510660648345947265625" lon="-6.0683569125831127166748046875">
        <ele>1589.199951171875</ele>
        <time>2021-08-17T18:33:14.000Z</time>
      </trkpt>
      <trkpt lat="43.0779633857309818267822265625" lon="-6.06832782737910747528076171875">
        <ele>1589.199951171875</ele>
        <time>2021-08-17T18:33:29.000Z</time>
      </trkpt>
      <trkpt lat="43.07796061970293521881103515625" lon="-6.0683237202465534210205078125">
        <ele>1589.199951171875</ele>
        <time>2021-08-17T18:33:32.000Z</time>
      </trkpt>
      <trkpt lat="43.0779627151787281036376953125" lon="-6.06831743381917476654052734375">
        <ele>1589.199951171875</ele>
        <time>2021-08-17T18:33:40.000Z</time>
      </trkpt>
      <trkpt lat="43.0779858492314815521240234375" lon="-6.06833453290164470672607421875">
        <ele>1589.199951171875</ele>
        <time>2021-08-17T18:33:45.000Z</time>
      </trkpt>
      <trkpt lat="43.07800789363682270050048828125" lon="-6.0683367960155010223388671875">
        <ele>1589.199951171875</ele>
        <time>2021-08-17T18:33:51.000Z</time>
      </trkpt>
      <trkpt lat="43.077999092638492584228515625" lon="-6.06833972968161106109619140625">
        <ele>1589.199951171875</ele>
        <time>2021-08-17T18:33:59.000Z</time>
      </trkpt>
      <trkpt lat="43.077999763190746307373046875" lon="-6.06834006495773792266845703125">
        <ele>1589.199951171875</ele>
        <time>2021-08-17T18:34:08.000Z</time>
      </trkpt>
      <trkpt lat="43.07803974486887454986572265625" lon="-6.06835833750665187835693359375">
        <ele>1589.199951171875</ele>
        <time>2021-08-17T18:34:14.000Z</time>
      </trkpt>
      <trkpt lat="43.07805131189525127410888671875" lon="-6.06836847960948944091796875">
        <ele>1589.199951171875</ele>
        <time>2021-08-17T18:34:15.000Z</time>
      </trkpt>
      <trkpt lat="43.07809389196336269378662109375" lon="-6.06840309686958789825439453125">
        <ele>1589.199951171875</ele>
        <time>2021-08-17T18:34:21.000Z</time>
      </trkpt>
      <trkpt lat="43.07810696773231029510498046875" lon="-6.0684206150472164154052734375">
        <ele>1589</ele>
        <time>2021-08-17T18:34:24.000Z</time>
      </trkpt>
      <trkpt lat="43.07812373153865337371826171875" lon="-6.0684268176555633544921875">
        <ele>1589</ele>
        <time>2021-08-17T18:34:26.000Z</time>
      </trkpt>
      <trkpt lat="43.07814703322947025299072265625" lon="-6.06843159534037113189697265625">
        <ele>1589</ele>
        <time>2021-08-17T18:34:28.000Z</time>
      </trkpt>
      <trkpt lat="43.0781541578471660614013671875" lon="-6.06843553483486175537109375">
        <ele>1589</ele>
        <time>2021-08-17T18:34:29.000Z</time>
      </trkpt>
      <trkpt lat="43.0781725980341434478759765625" lon="-6.06844483874738216400146484375">
        <ele>1589</ele>
        <time>2021-08-17T18:34:31.000Z</time>
      </trkpt>
      <trkpt lat="43.0781826563179492950439453125" lon="-6.06845028698444366455078125">
        <ele>1589</ele>
        <time>2021-08-17T18:34:32.000Z</time>
      </trkpt>
      <trkpt lat="43.0782041139900684356689453125" lon="-6.06846596114337444305419921875">
        <ele>1588.5999755859375</ele>
        <time>2021-08-17T18:34:34.000Z</time>
      </trkpt>
      <trkpt lat="43.0782366357743740081787109375" lon="-6.0684871673583984375">
        <ele>1588.4000244140625</ele>
        <time>2021-08-17T18:34:38.000Z</time>
      </trkpt>
      <trkpt lat="43.078252561390399932861328125" lon="-6.06846101582050323486328125">
        <ele>1588.4000244140625</ele>
        <time>2021-08-17T18:34:42.000Z</time>
      </trkpt>
      <trkpt lat="43.078296482563018798828125" lon="-6.06841566972434520721435546875">
        <ele>1588.5999755859375</ele>
        <time>2021-08-17T18:34:49.000Z</time>
      </trkpt>
      <trkpt lat="43.07836345396935939788818359375" lon="-6.068404018878936767578125">
        <ele>1589.5999755859375</ele>
        <time>2021-08-17T18:35:01.000Z</time>
      </trkpt>
      <trkpt lat="43.07838558219373226165771484375" lon="-6.0683830641210079193115234375">
        <ele>1590.4000244140625</ele>
        <time>2021-08-17T18:35:05.000Z</time>
      </trkpt>
      <trkpt lat="43.078404106199741363525390625" lon="-6.06837459839880466461181640625">
        <ele>1590.800048828125</ele>
        <time>2021-08-17T18:35:08.000Z</time>
      </trkpt>
      <trkpt lat="43.07841651141643524169921875" lon="-6.06835967861115932464599609375">
        <ele>1591.199951171875</ele>
        <time>2021-08-17T18:35:10.000Z</time>
      </trkpt>
      <trkpt lat="43.07842145673930644989013671875" lon="-6.06835163198411464691162109375">
        <ele>1591.5999755859375</ele>
        <time>2021-08-17T18:35:11.000Z</time>
      </trkpt>
      <trkpt lat="43.07842858135700225830078125" lon="-6.06832866556942462921142578125">
        <ele>1592.199951171875</ele>
        <time>2021-08-17T18:35:14.000Z</time>
      </trkpt>
      <trkpt lat="43.0784310959279537200927734375" lon="-6.06830938719213008880615234375">
        <ele>1592.4000244140625</ele>
        <time>2021-08-17T18:35:16.000Z</time>
      </trkpt>
      <trkpt lat="43.07843570597469806671142578125" lon="-6.06829798780381679534912109375">
        <ele>1592.5999755859375</ele>
        <time>2021-08-17T18:35:18.000Z</time>
      </trkpt>
      <trkpt lat="43.07845096103847026824951171875" lon="-6.06829966418445110321044921875">
        <ele>1593</ele>
        <time>2021-08-17T18:35:21.000Z</time>
      </trkpt>
      <trkpt lat="43.07845045812427997589111328125" lon="-6.06829346157610416412353515625">
        <ele>1593.199951171875</ele>
        <time>2021-08-17T18:35:22.000Z</time>
      </trkpt>
      <trkpt lat="43.078443668782711029052734375" lon="-6.06826119124889373779296875">
        <ele>1593.5999755859375</ele>
        <time>2021-08-17T18:35:25.000Z</time>
      </trkpt>
      <trkpt lat="43.07844978757202625274658203125" lon="-6.0682471096515655517578125">
        <ele>1594.199951171875</ele>
        <time>2021-08-17T18:35:29.000Z</time>
      </trkpt>
      <trkpt lat="43.07845833711326122283935546875" lon="-6.06825389899313449859619140625">
        <ele>1594.5999755859375</ele>
        <time>2021-08-17T18:35:33.000Z</time>
      </trkpt>
      <trkpt lat="43.078457079827785491943359375" lon="-6.0682553239166736602783203125">
        <ele>1594.5999755859375</ele>
        <time>2021-08-17T18:35:34.000Z</time>
      </trkpt>
      <trkpt lat="43.07847191579639911651611328125" lon="-6.06820352375507354736328125">
        <ele>1595.199951171875</ele>
        <time>2021-08-17T18:35:41.000Z</time>
      </trkpt>
      <trkpt lat="43.0784971453249454498291015625" lon="-6.0682077147066593170166015625">
        <ele>1595</ele>
        <time>2021-08-17T18:35:44.000Z</time>
      </trkpt>
      <trkpt lat="43.07850762270390987396240234375" lon="-6.06820796616375446319580078125">
        <ele>1594.800048828125</ele>
        <time>2021-08-17T18:35:45.000Z</time>
      </trkpt>
      <trkpt lat="43.078543245792388916015625" lon="-6.06819271109998226165771484375">
        <ele>1594.5999755859375</ele>
        <time>2021-08-17T18:35:50.000Z</time>
      </trkpt>
      <trkpt lat="43.07854969985783100128173828125" lon="-6.0681875981390476226806640625">
        <ele>1595</ele>
        <time>2021-08-17T18:35:52.000Z</time>
      </trkpt>
      <trkpt lat="43.0785494484007358551025390625" lon="-6.06817712076008319854736328125">
        <ele>1595.5999755859375</ele>
        <time>2021-08-17T18:35:55.000Z</time>
      </trkpt>
      <trkpt lat="43.07854659855365753173828125" lon="-6.0681545734405517578125">
        <ele>1596.4000244140625</ele>
        <time>2021-08-17T18:36:00.000Z</time>
      </trkpt>
      <trkpt lat="43.07854215614497661590576171875" lon="-6.06814225204288959503173828125">
        <ele>1596.800048828125</ele>
        <time>2021-08-17T18:36:02.000Z</time>
      </trkpt>
      <trkpt lat="43.07853989303112030029296875" lon="-6.06811593286693096160888671875">
        <ele>1597.800048828125</ele>
        <time>2021-08-17T18:36:06.000Z</time>
      </trkpt>
      <trkpt lat="43.07852916419506072998046875" lon="-6.06807603500783443450927734375">
        <ele>1599</ele>
        <time>2021-08-17T18:36:11.000Z</time>
      </trkpt>
      <trkpt lat="43.07855187915265560150146484375" lon="-6.06805658899247646331787109375">
        <ele>1600</ele>
        <time>2021-08-17T18:36:15.000Z</time>
      </trkpt>
      <trkpt lat="43.07855271734297275543212890625" lon="-6.06804099865257740020751953125">
        <ele>1600.5999755859375</ele>
        <time>2021-08-17T18:36:18.000Z</time>
      </trkpt>
      <trkpt lat="43.078554309904575347900390625" lon="-6.0680159367620944976806640625">
        <ele>1600.800048828125</ele>
        <time>2021-08-17T18:36:22.000Z</time>
      </trkpt>
      <trkpt lat="43.07855640538036823272705078125" lon="-6.06800227425992488861083984375">
        <ele>1601.4000244140625</ele>
        <time>2021-08-17T18:36:25.000Z</time>
      </trkpt>
      <trkpt lat="43.07855070568621158599853515625" lon="-6.068002022802829742431640625">
        <ele>1602.199951171875</ele>
        <time>2021-08-17T18:36:30.000Z</time>
      </trkpt>
      <trkpt lat="43.07854919694364070892333984375" lon="-6.0680042020976543426513671875">
        <ele>1602.4000244140625</ele>
        <time>2021-08-17T18:36:31.000Z</time>
      </trkpt>
      <trkpt lat="43.078551627695560455322265625" lon="-6.068003363907337188720703125">
        <ele>1602.800048828125</ele>
        <time>2021-08-17T18:36:35.000Z</time>
      </trkpt>
      <trkpt lat="43.07855053804814815521240234375" lon="-6.06800545938313007354736328125">
        <ele>1603</ele>
        <time>2021-08-17T18:36:41.000Z</time>
      </trkpt>
      <trkpt lat="43.07854928076267242431640625" lon="-6.06800830923020839691162109375">
        <ele>1603.199951171875</ele>
        <time>2021-08-17T18:36:47.000Z</time>
      </trkpt>
      <trkpt lat="43.07855104096233844757080078125" lon="-6.06800780631601810455322265625">
        <ele>1603.199951171875</ele>
        <time>2021-08-17T18:36:50.000Z</time>
      </trkpt>
      <trkpt lat="43.078539557754993438720703125" lon="-6.067999340593814849853515625">
        <ele>1603.199951171875</ele>
        <time>2021-08-17T18:36:54.000Z</time>
      </trkpt>
      <trkpt lat="43.07851298712193965911865234375" lon="-6.06797561980783939361572265625">
        <ele>1603.4000244140625</ele>
        <time>2021-08-17T18:36:58.000Z</time>
      </trkpt>
      <trkpt lat="43.07850628159940242767333984375" lon="-6.0679666511714458465576171875">
        <ele>1603.4000244140625</ele>
        <time>2021-08-17T18:36:59.000Z</time>
      </trkpt>
      <trkpt lat="43.0784994922578334808349609375" lon="-6.067957095801830291748046875">
        <ele>1603.4000244140625</ele>
        <time>2021-08-17T18:37:00.000Z</time>
      </trkpt>
      <trkpt lat="43.07849169708788394927978515625" lon="-6.0679441876709461212158203125">
        <ele>1603.5999755859375</ele>
        <time>2021-08-17T18:37:01.000Z</time>
      </trkpt>
      <trkpt lat="43.0785082094371318817138671875" lon="-6.06792457401752471923828125">
        <ele>1604.199951171875</ele>
        <time>2021-08-17T18:37:06.000Z</time>
      </trkpt>
      <trkpt lat="43.0785135738551616668701171875" lon="-6.06791795231401920318603515625">
        <ele>1604.5999755859375</ele>
        <time>2021-08-17T18:37:07.000Z</time>
      </trkpt>
      <trkpt lat="43.0785370431840419769287109375" lon="-6.06788434088230133056640625">
        <ele>1605.5999755859375</ele>
        <time>2021-08-17T18:37:13.000Z</time>
      </trkpt>
      <trkpt lat="43.0785692296922206878662109375" lon="-6.06786514632403850555419921875">
        <ele>1606.4000244140625</ele>
        <time>2021-08-17T18:37:17.000Z</time>
      </trkpt>
      <trkpt lat="43.078573755919933319091796875" lon="-6.06785123236477375030517578125">
        <ele>1606.800048828125</ele>
        <time>2021-08-17T18:37:19.000Z</time>
      </trkpt>
      <trkpt lat="43.0785735882818698883056640625" lon="-6.06784553267061710357666015625">
        <ele>1607</ele>
        <time>2021-08-17T18:37:20.000Z</time>
      </trkpt>
      <trkpt lat="43.07857166044414043426513671875" lon="-6.0678432695567607879638671875">
        <ele>1607.199951171875</ele>
        <time>2021-08-17T18:37:21.000Z</time>
      </trkpt>
      <trkpt lat="43.07857903651893138885498046875" lon="-6.067835055291652679443359375">
        <ele>1608</ele>
        <time>2021-08-17T18:37:25.000Z</time>
      </trkpt>
      <trkpt lat="43.0785789526998996734619140625" lon="-6.06783664785325527191162109375">
        <ele>1608.199951171875</ele>
        <time>2021-08-17T18:37:26.000Z</time>
      </trkpt>
      <trkpt lat="43.07858658023178577423095703125" lon="-6.067839078605175018310546875">
        <ele>1608.199951171875</ele>
        <time>2021-08-17T18:37:27.000Z</time>
      </trkpt>
      <trkpt lat="43.07859747670590877532958984375" lon="-6.06783681549131870269775390625">
        <ele>1608.4000244140625</ele>
        <time>2021-08-17T18:37:30.000Z</time>
      </trkpt>
      <trkpt lat="43.0786067806184291839599609375" lon="-6.06781988404691219329833984375">
        <ele>1609.199951171875</ele>
        <time>2021-08-17T18:37:33.000Z</time>
      </trkpt>
      <trkpt lat="43.0786094628274440765380859375" lon="-6.06781720183789730072021484375">
        <ele>1609.4000244140625</ele>
        <time>2021-08-17T18:37:34.000Z</time>
      </trkpt>
      <trkpt lat="43.07861004956066608428955078125" lon="-6.06779155321419239044189453125">
        <ele>1610</ele>
        <time>2021-08-17T18:37:38.000Z</time>
      </trkpt>
      <trkpt lat="43.07859278284013271331787109375" lon="-6.0677792318165302276611328125">
        <ele>1610.199951171875</ele>
        <time>2021-08-17T18:37:40.000Z</time>
      </trkpt>
      <trkpt lat="43.078583814203739166259765625" lon="-6.06777093373239040374755859375">
        <ele>1610.5999755859375</ele>
        <time>2021-08-17T18:37:43.000Z</time>
      </trkpt>
      <trkpt lat="43.07857182808220386505126953125" lon="-6.0677468776702880859375">
        <ele>1611</ele>
        <time>2021-08-17T18:37:48.000Z</time>
      </trkpt>
      <trkpt lat="43.0785816349089145660400390625" lon="-6.0677363164722919464111328125">
        <ele>1611.199951171875</ele>
        <time>2021-08-17T18:37:51.000Z</time>
      </trkpt>
      <trkpt lat="43.0785863287746906280517578125" lon="-6.06772852130234241485595703125">
        <ele>1611.5999755859375</ele>
        <time>2021-08-17T18:37:53.000Z</time>
      </trkpt>
      <trkpt lat="43.0785816349089145660400390625" lon="-6.067730449140071868896484375">
        <ele>1612.4000244140625</ele>
        <time>2021-08-17T18:37:56.000Z</time>
      </trkpt>
      <trkpt lat="43.0785863287746906280517578125" lon="-6.06774411164224147796630859375">
        <ele>1612.5999755859375</ele>
        <time>2021-08-17T18:38:01.000Z</time>
      </trkpt>
      <trkpt lat="43.0785875022411346435546875" lon="-6.0677497275173664093017578125">
        <ele>1612.800048828125</ele>
        <time>2021-08-17T18:38:03.000Z</time>
      </trkpt>
      <trkpt lat="43.0785886757075786590576171875" lon="-6.06775031425058841705322265625">
        <ele>1613</ele>
        <time>2021-08-17T18:38:07.000Z</time>
      </trkpt>
      <trkpt lat="43.0785928666591644287109375" lon="-6.06772030703723430633544921875">
        <ele>1613.4000244140625</ele>
        <time>2021-08-17T18:38:12.000Z</time>
      </trkpt>
      <trkpt lat="43.078592531383037567138671875" lon="-6.0677071474492549896240234375">
        <ele>1614.4000244140625</ele>
        <time>2021-08-17T18:38:16.000Z</time>
      </trkpt>
      <trkpt lat="43.07859194464981555938720703125" lon="-6.0677031241357326507568359375">
        <ele>1614.800048828125</ele>
        <time>2021-08-17T18:38:17.000Z</time>
      </trkpt>
      <trkpt lat="43.07860166765749454498291015625" lon="-6.06764034368097782135009765625">
        <ele>1615.800048828125</ele>
        <time>2021-08-17T18:38:26.000Z</time>
      </trkpt>
      <trkpt lat="43.07860518805682659149169921875" lon="-6.06762056238949298858642578125">
        <ele>1616</ele>
        <time>2021-08-17T18:38:28.000Z</time>
      </trkpt>
      <trkpt lat="43.078609295189380645751953125" lon="-6.0675814189016819000244140625">
        <ele>1617.4000244140625</ele>
        <time>2021-08-17T18:38:31.000Z</time>
      </trkpt>
      <trkpt lat="43.07860652916133403778076171875" lon="-6.0675606317818164825439453125">
        <ele>1618.4000244140625</ele>
        <time>2021-08-17T18:38:34.000Z</time>
      </trkpt>
      <trkpt lat="43.07861004956066608428955078125" lon="-6.0675502382218837738037109375">
        <ele>1618.800048828125</ele>
        <time>2021-08-17T18:38:37.000Z</time>
      </trkpt>
      <trkpt lat="43.07862547226250171661376953125" lon="-6.06752048246562480926513671875">
        <ele>1619.199951171875</ele>
        <time>2021-08-17T18:38:40.000Z</time>
      </trkpt>
      <trkpt lat="43.07862966321408748626708984375" lon="-6.0675093345344066619873046875">
        <ele>1619.5999755859375</ele>
        <time>2021-08-17T18:38:42.000Z</time>
      </trkpt>
      <trkpt lat="43.07862815447151660919189453125" lon="-6.067493744194507598876953125">
        <ele>1620.5999755859375</ele>
        <time>2021-08-17T18:38:45.000Z</time>
      </trkpt>
      <trkpt lat="43.07862463407218456268310546875" lon="-6.0674865357577800750732421875">
        <ele>1620.800048828125</ele>
        <time>2021-08-17T18:38:46.000Z</time>
      </trkpt>
      <trkpt lat="43.0786272324621677398681640625" lon="-6.0674694366753101348876953125">
        <ele>1621.800048828125</ele>
        <time>2021-08-17T18:38:50.000Z</time>
      </trkpt>
      <trkpt lat="43.078639805316925048828125" lon="-6.06742291711270809173583984375">
        <ele>1623</ele>
        <time>2021-08-17T18:38:56.000Z</time>
      </trkpt>
      <trkpt lat="43.0786409787833690643310546875" lon="-6.0674000345170497894287109375">
        <ele>1623.4000244140625</ele>
        <time>2021-08-17T18:38:59.000Z</time>
      </trkpt>
      <trkpt lat="43.07864181697368621826171875" lon="-6.06737933121621608734130859375">
        <ele>1624</ele>
        <time>2021-08-17T18:39:01.000Z</time>
      </trkpt>
      <trkpt lat="43.0786466784775257110595703125" lon="-6.0673286207020282745361328125">
        <ele>1624.800048828125</ele>
        <time>2021-08-17T18:39:07.000Z</time>
      </trkpt>
      <trkpt lat="43.07864441536366939544677734375" lon="-6.06731973588466644287109375">
        <ele>1625</ele>
        <time>2021-08-17T18:39:10.000Z</time>
      </trkpt>
      <trkpt lat="43.07864340953528881072998046875" lon="-6.06731571257114410400390625">
        <ele>1625</ele>
        <time>2021-08-17T18:39:12.000Z</time>
      </trkpt>
      <trkpt lat="43.07865866459906101226806640625" lon="-6.0673145391047000885009765625">
        <ele>1625.4000244140625</ele>
        <time>2021-08-17T18:39:23.000Z</time>
      </trkpt>
      <trkpt lat="43.07866402901709079742431640625" lon="-6.0673088394105434417724609375">
        <ele>1625.4000244140625</ele>
        <time>2021-08-17T18:39:26.000Z</time>
      </trkpt>
      <trkpt lat="43.07866587303578853607177734375" lon="-6.06730707921087741851806640625">
        <ele>1625.4000244140625</ele>
        <time>2021-08-17T18:39:29.000Z</time>
      </trkpt>
      <trkpt lat="43.07866503484547138214111328125" lon="-6.06730707921087741851806640625">
        <ele>1625.199951171875</ele>
        <time>2021-08-17T18:39:32.000Z</time>
      </trkpt>
      <trkpt lat="43.07866595685482025146484375" lon="-6.0673071630299091339111328125">
        <ele>1625.199951171875</ele>
        <time>2021-08-17T18:39:35.000Z</time>
      </trkpt>
      <trkpt lat="43.0786674655973911285400390625" lon="-6.06730657629668712615966796875">
        <ele>1625.199951171875</ele>
        <time>2021-08-17T18:39:37.000Z</time>
      </trkpt>
      <trkpt lat="43.07867140509188175201416015625" lon="-6.0673051513731479644775390625">
        <ele>1625.199951171875</ele>
        <time>2021-08-17T18:39:40.000Z</time>
      </trkpt>
      <trkpt lat="43.0786786973476409912109375" lon="-6.06730322353541851043701171875">
        <ele>1625</ele>
        <time>2021-08-17T18:39:44.000Z</time>
      </trkpt>
      <trkpt lat="43.0786798708140850067138671875" lon="-6.06730389408767223358154296875">
        <ele>1624.5999755859375</ele>
        <time>2021-08-17T18:39:48.000Z</time>
      </trkpt>
      <trkpt lat="43.07868096046149730682373046875" lon="-6.0673007927834987640380859375">
        <ele>1624.800048828125</ele>
        <time>2021-08-17T18:39:51.000Z</time>
      </trkpt>
      <trkpt lat="43.078680373728275299072265625" lon="-6.067302636802196502685546875">
        <ele>1625.4000244140625</ele>
        <time>2021-08-17T18:40:01.000Z</time>
      </trkpt>
      <trkpt lat="43.07867056690156459808349609375" lon="-6.0673029720783233642578125">
        <ele>1625.5999755859375</ele>
        <time>2021-08-17T18:40:08.000Z</time>
      </trkpt>
      <trkpt lat="43.0786557309329509735107421875" lon="-6.06730607338249683380126953125">
        <ele>1626</ele>
        <time>2021-08-17T18:40:11.000Z</time>
      </trkpt>
      <trkpt lat="43.07860585860908031463623046875" lon="-6.0673480667173862457275390625">
        <ele>1625.199951171875</ele>
        <time>2021-08-17T18:40:16.000Z</time>
      </trkpt>
      <trkpt lat="43.07855464518070220947265625" lon="-6.06732686050236225128173828125">
        <ele>1625.800048828125</ele>
        <time>2021-08-17T18:40:22.000Z</time>
      </trkpt>
      <trkpt lat="43.07854098267853260040283203125" lon="-6.06730163097381591796875">
        <ele>1625.800048828125</ele>
        <time>2021-08-17T18:40:24.000Z</time>
      </trkpt>
      <trkpt lat="43.0785055272281169891357421875" lon="-6.06727874837815761566162109375">
        <ele>1626.199951171875</ele>
        <time>2021-08-17T18:40:27.000Z</time>
      </trkpt>
      <trkpt lat="43.07847543619573116302490234375" lon="-6.067302636802196502685546875">
        <ele>1626.5999755859375</ele>
        <time>2021-08-17T18:40:31.000Z</time>
      </trkpt>
      <trkpt lat="43.078440316021442413330078125" lon="-6.06731571257114410400390625">
        <ele>1626.800048828125</ele>
        <time>2021-08-17T18:40:34.000Z</time>
      </trkpt>
      <trkpt lat="43.0784076265990734100341796875" lon="-6.0673165507614612579345703125">
        <ele>1627</ele>
        <time>2021-08-17T18:40:39.000Z</time>
      </trkpt>
      <trkpt lat="43.07837267406284809112548828125" lon="-6.06730540283024311065673828125">
        <ele>1627</ele>
        <time>2021-08-17T18:40:43.000Z</time>
      </trkpt>
      <trkpt lat="43.07832841761410236358642578125" lon="-6.06725276447832584381103515625">
        <ele>1627</ele>
        <time>2021-08-17T18:40:47.000Z</time>
      </trkpt>
      <trkpt lat="43.0783050321042537689208984375" lon="-6.06717950664460659027099609375">
        <ele>1626.800048828125</ele>
        <time>2021-08-17T18:40:52.000Z</time>
      </trkpt>
      <trkpt lat="43.07828717865049839019775390625" lon="-6.06715939007699489593505859375">
        <ele>1626.4000244140625</ele>
        <time>2021-08-17T18:40:56.000Z</time>
      </trkpt>
      <trkpt lat="43.0782715044915676116943359375" lon="-6.067165844142436981201171875">
        <ele>1627.199951171875</ele>
        <time>2021-08-17T18:40:59.000Z</time>
      </trkpt>
      <trkpt lat="43.0782715044915676116943359375" lon="-6.067165844142436981201171875">
        <ele>1627.4000244140625</ele>
        <time>2021-08-17T18:41:00.000Z</time>
      </trkpt>
      <trkpt lat="43.07826085947453975677490234375" lon="-6.067167185246944427490234375">
        <ele>1627.5999755859375</ele>
        <time>2021-08-17T18:41:02.000Z</time>
      </trkpt>
      <trkpt lat="43.07825063355267047882080078125" lon="-6.067161820828914642333984375">
        <ele>1628.199951171875</ele>
        <time>2021-08-17T18:41:07.000Z</time>
      </trkpt>
      <trkpt lat="43.07820755057036876678466796875" lon="-6.0671693645417690277099609375">
        <ele>1629.199951171875</ele>
        <time>2021-08-17T18:41:16.000Z</time>
      </trkpt>
      <trkpt lat="43.07819900102913379669189453125" lon="-6.0671720467507839202880859375">
        <ele>1629.4000244140625</ele>
        <time>2021-08-17T18:41:17.000Z</time>
      </trkpt>
      <trkpt lat="43.0781819857656955718994140625" lon="-6.06718051247298717498779296875">
        <ele>1629.800048828125</ele>
        <time>2021-08-17T18:41:19.000Z</time>
      </trkpt>
      <trkpt lat="43.07814636267721652984619140625" lon="-6.0671889781951904296875">
        <ele>1630.5999755859375</ele>
        <time>2021-08-17T18:41:23.000Z</time>
      </trkpt>
      <trkpt lat="43.0781283415853977203369140625" lon="-6.067198030650615692138671875">
        <ele>1631.199951171875</ele>
        <time>2021-08-17T18:41:26.000Z</time>
      </trkpt>
      <trkpt lat="43.0781259946525096893310546875" lon="-6.06720766983926296234130859375">
        <ele>1631.5999755859375</ele>
        <time>2021-08-17T18:41:29.000Z</time>
      </trkpt>
      <trkpt lat="43.0781383998692035675048828125" lon="-6.06722049415111541748046875">
        <ele>1632</ele>
        <time>2021-08-17T18:41:33.000Z</time>
      </trkpt>
      <trkpt lat="43.078137896955013275146484375" lon="-6.067220158874988555908203125">
        <ele>1632</ele>
        <time>2021-08-17T18:41:34.000Z</time>
      </trkpt>
      <trkpt lat="43.0781310237944126129150390625" lon="-6.06722577475011348724365234375">
        <ele>1632.199951171875</ele>
        <time>2021-08-17T18:41:37.000Z</time>
      </trkpt>
      <trkpt lat="43.078108727931976318359375" lon="-6.0672079212963581085205078125">
        <ele>1632.5999755859375</ele>
        <time>2021-08-17T18:41:43.000Z</time>
      </trkpt>
      <trkpt lat="43.07809724472463130950927734375" lon="-6.06718068011105060577392578125">
        <ele>1632.800048828125</ele>
        <time>2021-08-17T18:41:45.000Z</time>
      </trkpt>
      <trkpt lat="43.07808685116469860076904296875" lon="-6.0671750642359256744384765625">
        <ele>1633.199951171875</ele>
        <time>2021-08-17T18:41:48.000Z</time>
      </trkpt>
      <trkpt lat="43.0780725181102752685546875" lon="-6.06717732734978199005126953125">
        <ele>1633.800048828125</ele>
        <time>2021-08-17T18:41:51.000Z</time>
      </trkpt>
      <trkpt lat="43.07803538627922534942626953125" lon="-6.06720012612640857696533203125">
        <ele>1634.800048828125</ele>
        <time>2021-08-17T18:41:58.000Z</time>
      </trkpt>
      <trkpt lat="43.07803119532763957977294921875" lon="-6.06721915304660797119140625">
        <ele>1635.4000244140625</ele>
        <time>2021-08-17T18:42:01.000Z</time>
      </trkpt>
      <trkpt lat="43.07803002186119556427001953125" lon="-6.06722719967365264892578125">
        <ele>1635.800048828125</ele>
        <time>2021-08-17T18:42:03.000Z</time>
      </trkpt>
      <trkpt lat="43.07803002186119556427001953125" lon="-6.06722719967365264892578125">
        <ele>1635.800048828125</ele>
        <time>2021-08-17T18:42:04.000Z</time>
      </trkpt>
      <trkpt lat="43.0780223943293094635009765625" lon="-6.06722627766430377960205078125">
        <ele>1636</ele>
        <time>2021-08-17T18:42:07.000Z</time>
      </trkpt>
      <trkpt lat="43.0780089832842350006103515625" lon="-6.0672196559607982635498046875">
        <ele>1636.4000244140625</ele>
        <time>2021-08-17T18:42:12.000Z</time>
      </trkpt>
      <trkpt lat="43.07800906710326671600341796875" lon="-6.067191660404205322265625">
        <ele>1637</ele>
        <time>2021-08-17T18:42:17.000Z</time>
      </trkpt>
      <trkpt lat="43.0780311115086078643798828125" lon="-6.0671559534966945648193359375">
        <ele>1637.800048828125</ele>
        <time>2021-08-17T18:42:23.000Z</time>
      </trkpt>
      <trkpt lat="43.07803739793598651885986328125" lon="-6.067149750888347625732421875">
        <ele>1638</ele>
        <time>2021-08-17T18:42:24.000Z</time>
      </trkpt>
      <trkpt lat="43.078015185892581939697265625" lon="-6.0671415366232395172119140625">
        <ele>1638.4000244140625</ele>
        <time>2021-08-17T18:42:29.000Z</time>
      </trkpt>
      <trkpt lat="43.0780029483139514923095703125" lon="-6.0671623237431049346923828125">
        <ele>1639</ele>
        <time>2021-08-17T18:42:32.000Z</time>
      </trkpt>
      <trkpt lat="43.07798526249825954437255859375" lon="-6.0671700350940227508544921875">
        <ele>1639.800048828125</ele>
        <time>2021-08-17T18:42:39.000Z</time>
      </trkpt>
      <trkpt lat="43.0779759585857391357421875" lon="-6.06716592796146869659423828125">
        <ele>1639.5999755859375</ele>
        <time>2021-08-17T18:42:42.000Z</time>
      </trkpt>
      <trkpt lat="43.0779566802084445953369140625" lon="-6.06715486384928226470947265625">
        <ele>1640</ele>
        <time>2021-08-17T18:42:49.000Z</time>
      </trkpt>
      <trkpt lat="43.0779437720775604248046875" lon="-6.0671428777277469635009765625">
        <ele>1640</ele>
        <time>2021-08-17T18:42:52.000Z</time>
      </trkpt>
      <trkpt lat="43.0779265053570270538330078125" lon="-6.0671173967421054840087890625">
        <ele>1640.5999755859375</ele>
        <time>2021-08-17T18:43:02.000Z</time>
      </trkpt>
      <trkpt lat="43.0779234878718852996826171875" lon="-6.067111529409885406494140625">
        <ele>1640.5999755859375</ele>
        <time>2021-08-17T18:43:06.000Z</time>
      </trkpt>
      <trkpt lat="43.0779169499874114990234375" lon="-6.06709920801222324371337890625">
        <ele>1640.5999755859375</ele>
        <time>2021-08-17T18:43:13.000Z</time>
      </trkpt>
      <trkpt lat="43.0779167823493480682373046875" lon="-6.06709711253643035888671875">
        <ele>1640.4000244140625</ele>
        <time>2021-08-17T18:43:15.000Z</time>
      </trkpt>
      <trkpt lat="43.0779169499874114990234375" lon="-6.06709686107933521270751953125">
        <ele>1640.4000244140625</ele>
        <time>2021-08-17T18:43:17.000Z</time>
      </trkpt>
      <trkpt lat="43.0779194645583629608154296875" lon="-6.0670991241931915283203125">
        <ele>1640.5999755859375</ele>
        <time>2021-08-17T18:43:21.000Z</time>
      </trkpt>
      <trkpt lat="43.0779141001403331756591796875" lon="-6.06709719635546207427978515625">
        <ele>1640.5999755859375</ele>
        <time>2021-08-17T18:43:23.000Z</time>
      </trkpt>
      <trkpt lat="43.077879734337329864501953125" lon="-6.06707070954144001007080078125">
        <ele>1640.199951171875</ele>
        <time>2021-08-17T18:43:29.000Z</time>
      </trkpt>
      <trkpt lat="43.07787001132965087890625" lon="-6.0670577175915241241455078125">
        <ele>1640</ele>
        <time>2021-08-17T18:43:32.000Z</time>
      </trkpt>
      <trkpt lat="43.077858947217464447021484375" lon="-6.06703734956681728363037109375">
        <ele>1639.5999755859375</ele>
        <time>2021-08-17T18:43:35.000Z</time>
      </trkpt>
      <trkpt lat="43.07785048149526119232177734375" lon="-6.06703164987266063690185546875">
        <ele>1639.4000244140625</ele>
        <time>2021-08-17T18:43:37.000Z</time>
      </trkpt>
      <trkpt lat="43.07784922420978546142578125" lon="-6.06702947057783603668212890625">
        <ele>1639.4000244140625</ele>
        <time>2021-08-17T18:43:38.000Z</time>
      </trkpt>
      <trkpt lat="43.0778500624001026153564453125" lon="-6.06703215278685092926025390625">
        <ele>1639.199951171875</ele>
        <time>2021-08-17T18:43:39.000Z</time>
      </trkpt>
      <trkpt lat="43.077849559485912322998046875" lon="-6.0670332424342632293701171875">
        <ele>1639.199951171875</ele>
        <time>2021-08-17T18:43:40.000Z</time>
      </trkpt>
      <trkpt lat="43.07784679345786571502685546875" lon="-6.06703139841556549072265625">
        <ele>1639.199951171875</ele>
        <time>2021-08-17T18:43:41.000Z</time>
      </trkpt>
      <trkpt lat="43.0778480507433414459228515625" lon="-6.06703181751072406768798828125">
        <ele>1639</ele>
        <time>2021-08-17T18:43:44.000Z</time>
      </trkpt>
      <trkpt lat="43.07785467244684696197509765625" lon="-6.06702595017850399017333984375">
        <ele>1638.199951171875</ele>
        <time>2021-08-17T18:43:56.000Z</time>
      </trkpt>
      <trkpt lat="43.07785601355135440826416015625" lon="-6.0670101083815097808837890625">
        <ele>1638.5999755859375</ele>
        <time>2021-08-17T18:44:06.000Z</time>
      </trkpt>
      <trkpt lat="43.0778587795794010162353515625" lon="-6.067006923258304595947265625">
        <ele>1638.5999755859375</ele>
        <time>2021-08-17T18:44:07.000Z</time>
      </trkpt>
      <trkpt lat="43.07786003686487674713134765625" lon="-6.06698806397616863250732421875">
        <ele>1640</ele>
        <time>2021-08-17T18:44:14.000Z</time>
      </trkpt>
      <trkpt lat="43.07786104269325733184814453125" lon="-6.06698571704328060150146484375">
        <ele>1640</ele>
        <time>2021-08-17T18:44:15.000Z</time>
      </trkpt>
      <trkpt lat="43.077861964702606201171875" lon="-6.0669832862913608551025390625">
        <ele>1639.800048828125</ele>
        <time>2021-08-17T18:44:18.000Z</time>
      </trkpt>
      <trkpt lat="43.07786338962614536285400390625" lon="-6.06696509756147861480712890625">
        <ele>1640.199951171875</ele>
        <time>2021-08-17T18:44:22.000Z</time>
      </trkpt>
      <trkpt lat="43.07786171324551105499267578125" lon="-6.06695830821990966796875">
        <ele>1640.5999755859375</ele>
        <time>2021-08-17T18:44:24.000Z</time>
      </trkpt>
      <trkpt lat="43.07786003686487674713134765625" lon="-6.06695495545864105224609375">
        <ele>1640.800048828125</ele>
        <time>2021-08-17T18:44:25.000Z</time>
      </trkpt>
      <trkpt lat="43.07786204852163791656494140625" lon="-6.06695604510605335235595703125">
        <ele>1641.199951171875</ele>
        <time>2021-08-17T18:44:26.000Z</time>
      </trkpt>
      <trkpt lat="43.07786590419709682464599609375" lon="-6.066958643496036529541015625">
        <ele>1642.199951171875</ele>
        <time>2021-08-17T18:44:31.000Z</time>
      </trkpt>
      <trkpt lat="43.0778591148555278778076171875" lon="-6.06696560047566890716552734375">
        <ele>1642.4000244140625</ele>
        <time>2021-08-17T18:44:34.000Z</time>
      </trkpt>
      <trkpt lat="43.07785232551395893096923828125" lon="-6.06697582639753818511962890625">
        <ele>1642</ele>
        <time>2021-08-17T18:44:49.000Z</time>
      </trkpt>
      <trkpt lat="43.07785232551395893096923828125" lon="-6.0669836215674877166748046875">
        <ele>1642.199951171875</ele>
        <time>2021-08-17T18:44:52.000Z</time>
      </trkpt>
      <trkpt lat="43.077852241694927215576171875" lon="-6.0669789277017116546630859375">
        <ele>1642.199951171875</ele>
        <time>2021-08-17T18:44:54.000Z</time>
      </trkpt>
      <trkpt lat="43.077850900590419769287109375" lon="-6.06697616167366504669189453125">
        <ele>1642.199951171875</ele>
        <time>2021-08-17T18:44:56.000Z</time>
      </trkpt>
      <trkpt lat="43.0778443627059459686279296875" lon="-6.06698018498718738555908203125">
        <ele>1642.5999755859375</ele>
        <time>2021-08-17T18:45:01.000Z</time>
      </trkpt>
      <trkpt lat="43.07783841155469417572021484375" lon="-6.066986806690692901611328125">
        <ele>1642.5999755859375</ele>
        <time>2021-08-17T18:45:09.000Z</time>
      </trkpt>
      <trkpt lat="43.07783849537372589111328125" lon="-6.06698714196681976318359375">
        <ele>1642.5999755859375</ele>
        <time>2021-08-17T18:45:11.000Z</time>
      </trkpt>
      <trkpt lat="43.07783824391663074493408203125" lon="-6.0669869743287563323974609375">
        <ele>1642.4000244140625</ele>
        <time>2021-08-17T18:45:14.000Z</time>
      </trkpt>
      <trkpt lat="43.07783824391663074493408203125" lon="-6.06698705814778804779052734375">
        <ele>1642.4000244140625</ele>
        <time>2021-08-17T18:45:15.000Z</time>
      </trkpt>
      <trkpt lat="43.07783606462180614471435546875" lon="-6.0669873096048831939697265625">
        <ele>1642.5999755859375</ele>
        <time>2021-08-17T18:45:25.000Z</time>
      </trkpt>
      <trkpt lat="43.07783623225986957550048828125" lon="-6.0669864714145660400390625">
        <ele>1642.800048828125</ele>
        <time>2021-08-17T18:45:32.000Z</time>
      </trkpt>
      <trkpt lat="43.07783623225986957550048828125" lon="-6.0669864714145660400390625">
        <ele>1642.800048828125</ele>
        <time>2021-08-17T18:45:33.000Z</time>
      </trkpt>
      <trkpt lat="43.0778389982879161834716796875" lon="-6.06698504649102687835693359375">
        <ele>1642.800048828125</ele>
        <time>2021-08-17T18:45:40.000Z</time>
      </trkpt>
      <trkpt lat="43.07784075848758220672607421875" lon="-6.0669811069965362548828125">
        <ele>1642.800048828125</ele>
        <time>2021-08-17T18:45:44.000Z</time>
      </trkpt>
      <trkpt lat="43.07784126140177249908447265625" lon="-6.06698035262525081634521484375">
        <ele>1642.800048828125</ele>
        <time>2021-08-17T18:45:45.000Z</time>
      </trkpt>
      <trkpt lat="43.07783187367022037506103515625" lon="-6.06698269955813884735107421875">
        <ele>1642.800048828125</ele>
        <time>2021-08-17T18:45:47.000Z</time>
      </trkpt>
      <trkpt lat="43.077813349664211273193359375" lon="-6.06697976589202880859375">
        <ele>1642.800048828125</ele>
        <time>2021-08-17T18:45:49.000Z</time>
      </trkpt>
      <trkpt lat="43.07778426446020603179931640625" lon="-6.06696593575179576873779296875">
        <ele>1642.800048828125</ele>
        <time>2021-08-17T18:45:54.000Z</time>
      </trkpt>
      <trkpt lat="43.077769763767719268798828125" lon="-6.06696325354278087615966796875">
        <ele>1642.800048828125</ele>
        <time>2021-08-17T18:45:56.000Z</time>
      </trkpt>
      <trkpt lat="43.0777541734278202056884765625" lon="-6.06696476228535175323486328125">
        <ele>1642.800048828125</ele>
        <time>2021-08-17T18:45:58.000Z</time>
      </trkpt>
      <trkpt lat="43.0777535028755664825439453125" lon="-6.066968701779842376708984375">
        <ele>1643</ele>
        <time>2021-08-17T18:46:00.000Z</time>
      </trkpt>
      <trkpt lat="43.0777518264949321746826171875" lon="-6.06696928851306438446044921875">
        <ele>1643.4000244140625</ele>
        <time>2021-08-17T18:46:01.000Z</time>
      </trkpt>
      <trkpt lat="43.0777511559426784515380859375" lon="-6.06696794740855693817138671875">
        <ele>1643.800048828125</ele>
        <time>2021-08-17T18:46:03.000Z</time>
      </trkpt>
      <trkpt lat="43.0777340568602085113525390625" lon="-6.06694917194545269012451171875">
        <ele>1644.199951171875</ele>
        <time>2021-08-17T18:46:07.000Z</time>
      </trkpt>
      <trkpt lat="43.0777189694344997406005859375" lon="-6.06694464571774005889892578125">
        <ele>1644.199951171875</ele>
        <time>2021-08-17T18:46:09.000Z</time>
      </trkpt>
      <trkpt lat="43.07768636383116245269775390625" lon="-6.066931821405887603759765625">
        <ele>1644.199951171875</ele>
        <time>2021-08-17T18:46:13.000Z</time>
      </trkpt>
      <trkpt lat="43.077674210071563720703125" lon="-6.0669220983982086181640625">
        <ele>1644.199951171875</ele>
        <time>2021-08-17T18:46:15.000Z</time>
      </trkpt>
      <trkpt lat="43.0776629783213138580322265625" lon="-6.06691095046699047088623046875">
        <ele>1644.4000244140625</ele>
        <time>2021-08-17T18:46:16.000Z</time>
      </trkpt>
      <trkpt lat="43.07764981873333454132080078125" lon="-6.06690307147800922393798828125">
        <ele>1644.800048828125</ele>
        <time>2021-08-17T18:46:18.000Z</time>
      </trkpt>
      <trkpt lat="43.0776411853730678558349609375" lon="-6.06690173037350177764892578125">
        <ele>1644.800048828125</ele>
        <time>2021-08-17T18:46:19.000Z</time>
      </trkpt>
      <trkpt lat="43.07762417010962963104248046875" lon="-6.0668984614312648773193359375">
        <ele>1645</ele>
        <time>2021-08-17T18:46:21.000Z</time>
      </trkpt>
      <trkpt lat="43.07761779986321926116943359375" lon="-6.06689594686031341552734375">
        <ele>1645.4000244140625</ele>
        <time>2021-08-17T18:46:24.000Z</time>
      </trkpt>
      <trkpt lat="43.077614866197109222412109375" lon="-6.06688982807099819183349609375">
        <ele>1645.4000244140625</ele>
        <time>2021-08-17T18:46:26.000Z</time>
      </trkpt>
      <trkpt lat="43.07761142961680889129638671875" lon="-6.06688329018652439117431640625">
        <ele>1645.199951171875</ele>
        <time>2021-08-17T18:46:29.000Z</time>
      </trkpt>
      <trkpt lat="43.07760857976973056793212890625" lon="-6.06687046587467193603515625">
        <ele>1645.4000244140625</ele>
        <time>2021-08-17T18:46:36.000Z</time>
      </trkpt>
      <trkpt lat="43.07760782539844512939453125" lon="-6.0668682865798473358154296875">
        <ele>1645.5999755859375</ele>
        <time>2021-08-17T18:46:39.000Z</time>
      </trkpt>
      <trkpt lat="43.0776073224842548370361328125" lon="-6.0668652690947055816650390625">
        <ele>1645.800048828125</ele>
        <time>2021-08-17T18:46:44.000Z</time>
      </trkpt>
      <trkpt lat="43.0776096694171428680419921875" lon="-6.06686434708535671234130859375">
        <ele>1645.800048828125</ele>
        <time>2021-08-17T18:46:50.000Z</time>
      </trkpt>
      <trkpt lat="43.07761226780712604522705078125" lon="-6.06686384417116641998291015625">
        <ele>1645.5999755859375</ele>
        <time>2021-08-17T18:47:00.000Z</time>
      </trkpt>
      <trkpt lat="43.07761008851230144500732421875" lon="-6.0668652690947055816650390625">
        <ele>1645.5999755859375</ele>
        <time>2021-08-17T18:47:05.000Z</time>
      </trkpt>
      <trkpt lat="43.07760556228458881378173828125" lon="-6.0668645985424518585205078125">
        <ele>1645.4000244140625</ele>
        <time>2021-08-17T18:47:11.000Z</time>
      </trkpt>
      <trkpt lat="43.0776036344468593597412109375" lon="-6.06686769984662532806396484375">
        <ele>1645.4000244140625</ele>
        <time>2021-08-17T18:47:13.000Z</time>
      </trkpt>
      <trkpt lat="43.0776002816855907440185546875" lon="-6.06687557883560657501220703125">
        <ele>1645.4000244140625</ele>
        <time>2021-08-17T18:47:16.000Z</time>
      </trkpt>
      <trkpt lat="43.0776026286184787750244140625" lon="-6.06687541119754314422607421875">
        <ele>1645.4000244140625</ele>
        <time>2021-08-17T18:47:17.000Z</time>
      </trkpt>
      <trkpt lat="43.0776039697229862213134765625" lon="-6.0668753273785114288330078125">
        <ele>1645.4000244140625</ele>
        <time>2021-08-17T18:47:19.000Z</time>
      </trkpt>
      <trkpt lat="43.07760489173233509063720703125" lon="-6.06687851250171661376953125">
        <ele>1645.199951171875</ele>
        <time>2021-08-17T18:47:21.000Z</time>
      </trkpt>
      <trkpt lat="43.07760589756071567535400390625" lon="-6.06688178144395351409912109375">
        <ele>1645.199951171875</ele>
        <time>2021-08-17T18:47:25.000Z</time>
      </trkpt>
      <trkpt lat="43.07757756672799587249755859375" lon="-6.0668629221618175506591796875">
        <ele>1645.5999755859375</ele>
        <time>2021-08-17T18:47:32.000Z</time>
      </trkpt>
      <trkpt lat="43.077579997479915618896484375" lon="-6.066817827522754669189453125">
        <ele>1646.5999755859375</ele>
        <time>2021-08-17T18:47:38.000Z</time>
      </trkpt>
      <trkpt lat="43.0776032991707324981689453125" lon="-6.06678036041557788848876953125">
        <ele>1646.800048828125</ele>
        <time>2021-08-17T18:47:42.000Z</time>
      </trkpt>
      <trkpt lat="43.0776032991707324981689453125" lon="-6.06678036041557788848876953125">
        <ele>1646.800048828125</ele>
        <time>2021-08-17T18:47:43.000Z</time>
      </trkpt>
      <trkpt lat="43.0775982700288295745849609375" lon="-6.066735684871673583984375">
        <ele>1646.800048828125</ele>
        <time>2021-08-17T18:47:45.000Z</time>
      </trkpt>
      <trkpt lat="43.07759181596338748931884765625" lon="-6.06672805733978748321533203125">
        <ele>1646.5999755859375</ele>
        <time>2021-08-17T18:47:46.000Z</time>
      </trkpt>
      <trkpt lat="43.07758628390729427337646484375" lon="-6.06671581976115703582763671875">
        <ele>1646.5999755859375</ele>
        <time>2021-08-17T18:47:48.000Z</time>
      </trkpt>
      <trkpt lat="43.07757605798542499542236328125" lon="-6.0667103715240955352783203125">
        <ele>1646.5999755859375</ele>
        <time>2021-08-17T18:47:50.000Z</time>
      </trkpt>
      <trkpt lat="43.07756281457841396331787109375" lon="-6.06670509092509746551513671875">
        <ele>1646.5999755859375</ele>
        <time>2021-08-17T18:47:52.000Z</time>
      </trkpt>
      <trkpt lat="43.077555857598781585693359375" lon="-6.06670408509671688079833984375">
        <ele>1646.800048828125</ele>
        <time>2021-08-17T18:47:54.000Z</time>
      </trkpt>
      <trkpt lat="43.077551163733005523681640625" lon="-6.0667013190686702728271484375">
        <ele>1647.199951171875</ele>
        <time>2021-08-17T18:47:56.000Z</time>
      </trkpt>
      <trkpt lat="43.0775489844381809234619140625" lon="-6.06669369153678417205810546875">
        <ele>1647.5999755859375</ele>
        <time>2021-08-17T18:47:58.000Z</time>
      </trkpt>
      <trkpt lat="43.07754655368626117706298828125" lon="-6.06668807566165924072265625">
        <ele>1647.800048828125</ele>
        <time>2021-08-17T18:47:59.000Z</time>
      </trkpt>
      <trkpt lat="43.0775395967066287994384765625" lon="-6.06668681837618350982666015625">
        <ele>1648</ele>
        <time>2021-08-17T18:48:01.000Z</time>
      </trkpt>
      <trkpt lat="43.07753800414502620697021484375" lon="-6.066687740385532379150390625">
        <ele>1648.199951171875</ele>
        <time>2021-08-17T18:48:02.000Z</time>
      </trkpt>
      <trkpt lat="43.077534399926662445068359375" lon="-6.06668966822326183319091796875">
        <ele>1648.199951171875</ele>
        <time>2021-08-17T18:48:03.000Z</time>
      </trkpt>
      <trkpt lat="43.07753146626055240631103515625" lon="-6.066695116460323333740234375">
        <ele>1648.199951171875</ele>
        <time>2021-08-17T18:48:04.000Z</time>
      </trkpt>
      <trkpt lat="43.077529706060886383056640625" lon="-6.0667016543447971343994140625">
        <ele>1648.199951171875</ele>
        <time>2021-08-17T18:48:06.000Z</time>
      </trkpt>
      <trkpt lat="43.0775104276835918426513671875" lon="-6.06670291163027286529541015625">
        <ele>1648.4000244140625</ele>
        <time>2021-08-17T18:48:11.000Z</time>
      </trkpt>
      <trkpt lat="43.0775038897991180419921875" lon="-6.06670358218252658843994140625">
        <ele>1648.800048828125</ele>
        <time>2021-08-17T18:48:12.000Z</time>
      </trkpt>
      <trkpt lat="43.07750053703784942626953125" lon="-6.06670458801090717315673828125">
        <ele>1649</ele>
        <time>2021-08-17T18:48:13.000Z</time>
      </trkpt>
      <trkpt lat="43.0774661712348461151123046875" lon="-6.06670475564897060394287109375">
        <ele>1649.800048828125</ele>
        <time>2021-08-17T18:48:18.000Z</time>
      </trkpt>
      <trkpt lat="43.077432475984096527099609375" lon="-6.06670106761157512664794921875">
        <ele>1650.5999755859375</ele>
        <time>2021-08-17T18:48:22.000Z</time>
      </trkpt>
      <trkpt lat="43.0774205736815929412841796875" lon="-6.06670106761157512664794921875">
        <ele>1650.800048828125</ele>
        <time>2021-08-17T18:48:24.000Z</time>
      </trkpt>
      <trkpt lat="43.077415712177753448486328125" lon="-6.06670056469738483428955078125">
        <ele>1651</ele>
        <time>2021-08-17T18:48:25.000Z</time>
      </trkpt>
      <trkpt lat="43.077404983341693878173828125" lon="-6.06669880449771881103515625">
        <ele>1651.4000244140625</ele>
        <time>2021-08-17T18:48:27.000Z</time>
      </trkpt>
      <trkpt lat="43.07738880626857280731201171875" lon="-6.0667009837925434112548828125">
        <ele>1652.199951171875</ele>
        <time>2021-08-17T18:48:30.000Z</time>
      </trkpt>
      <trkpt lat="43.07738461531698703765869140625" lon="-6.06670081615447998046875">
        <ele>1652.4000244140625</ele>
        <time>2021-08-17T18:48:34.000Z</time>
      </trkpt>
      <trkpt lat="43.077380843460559844970703125" lon="-6.066698133945465087890625">
        <ele>1652.800048828125</ele>
        <time>2021-08-17T18:48:38.000Z</time>
      </trkpt>
      <trkpt lat="43.077341280877590179443359375" lon="-6.0666677914559841156005859375">
        <ele>1653.199951171875</ele>
        <time>2021-08-17T18:48:47.000Z</time>
      </trkpt>
      <trkpt lat="43.077332563698291778564453125" lon="-6.06666795909404754638671875">
        <ele>1653.800048828125</ele>
        <time>2021-08-17T18:48:49.000Z</time>
      </trkpt>
      <trkpt lat="43.0773253552615642547607421875" lon="-6.066660583019256591796875">
        <ele>1654.4000244140625</ele>
        <time>2021-08-17T18:48:51.000Z</time>
      </trkpt>
      <trkpt lat="43.07729442603886127471923828125" lon="-6.0666550509631633758544921875">
        <ele>1655.4000244140625</ele>
        <time>2021-08-17T18:49:00.000Z</time>
      </trkpt>
      <trkpt lat="43.0772919952869415283203125" lon="-6.06665379367768764495849609375">
        <ele>1655.800048828125</ele>
        <time>2021-08-17T18:49:01.000Z</time>
      </trkpt>
      <trkpt lat="43.07728604413568973541259765625" lon="-6.066648177802562713623046875">
        <ele>1656.4000244140625</ele>
        <time>2021-08-17T18:49:03.000Z</time>
      </trkpt>
      <trkpt lat="43.07726207189261913299560546875" lon="-6.0666691325604915618896484375">
        <ele>1657.4000244140625</ele>
        <time>2021-08-17T18:49:11.000Z</time>
      </trkpt>
      <trkpt lat="43.07725788094103336334228515625" lon="-6.066669635474681854248046875">
        <ele>1657.5999755859375</ele>
        <time>2021-08-17T18:49:12.000Z</time>
      </trkpt>
      <trkpt lat="43.0772475712001323699951171875" lon="-6.06666502542793750762939453125">
        <ele>1658.199951171875</ele>
        <time>2021-08-17T18:49:15.000Z</time>
      </trkpt>
      <trkpt lat="43.07723541744053363800048828125" lon="-6.06667600572109222412109375">
        <ele>1658.5999755859375</ele>
        <time>2021-08-17T18:49:19.000Z</time>
      </trkpt>
      <trkpt lat="43.0772271193563938140869140625" lon="-6.06668430380523204803466796875">
        <ele>1659</ele>
        <time>2021-08-17T18:49:22.000Z</time>
      </trkpt>
      <trkpt lat="43.0772008001804351806640625" lon="-6.06666200794279575347900390625">
        <ele>1659.5999755859375</ele>
        <time>2021-08-17T18:49:31.000Z</time>
      </trkpt>
      <trkpt lat="43.07719468139111995697021484375" lon="-6.06665161438286304473876953125">
        <ele>1659.800048828125</ele>
        <time>2021-08-17T18:49:33.000Z</time>
      </trkpt>
      <trkpt lat="43.077191077172756195068359375" lon="-6.0666490159928798675537109375">
        <ele>1659.800048828125</ele>
        <time>2021-08-17T18:49:34.000Z</time>
      </trkpt>
      <trkpt lat="43.07718529365956783294677734375" lon="-6.0666439868509769439697265625">
        <ele>1660</ele>
        <time>2021-08-17T18:49:36.000Z</time>
      </trkpt>
      <trkpt lat="43.07716903276741504669189453125" lon="-6.0666426457464694976806640625">
        <ele>1660.800048828125</ele>
        <time>2021-08-17T18:49:40.000Z</time>
      </trkpt>
      <trkpt lat="43.07716500945389270782470703125" lon="-6.0666431486606597900390625">
        <ele>1661</ele>
        <time>2021-08-17T18:49:42.000Z</time>
      </trkpt>
      <trkpt lat="43.0771560408174991607666015625" lon="-6.0666449926793575286865234375">
        <ele>1661.199951171875</ele>
        <time>2021-08-17T18:49:45.000Z</time>
      </trkpt>
      <trkpt lat="43.0771456472575664520263671875" lon="-6.06664541177451610565185546875">
        <ele>1661.4000244140625</ele>
        <time>2021-08-17T18:49:48.000Z</time>
      </trkpt>
      <trkpt lat="43.07713936083018779754638671875" lon="-6.06664038263261318206787109375">
        <ele>1661.800048828125</ele>
        <time>2021-08-17T18:49:51.000Z</time>
      </trkpt>
      <trkpt lat="43.07712930254638195037841796875" lon="-6.06662412174046039581298828125">
        <ele>1662.199951171875</ele>
        <time>2021-08-17T18:49:57.000Z</time>
      </trkpt>
      <trkpt lat="43.0771174840629100799560546875" lon="-6.06661976315081119537353515625">
        <ele>1662.800048828125</ele>
        <time>2021-08-17T18:50:02.000Z</time>
      </trkpt>
      <trkpt lat="43.0771122872829437255859375" lon="-6.06661523692309856414794921875">
        <ele>1663</ele>
        <time>2021-08-17T18:50:04.000Z</time>
      </trkpt>
      <trkpt lat="43.0770785920321941375732421875" lon="-6.066628396511077880859375">
        <ele>1664</ele>
        <time>2021-08-17T18:50:11.000Z</time>
      </trkpt>
      <trkpt lat="43.07707314379513263702392578125" lon="-6.06662948615849018096923828125">
        <ele>1664</ele>
        <time>2021-08-17T18:50:12.000Z</time>
      </trkpt>
      <trkpt lat="43.077046237885951995849609375" lon="-6.0666433162987232208251953125">
        <ele>1664.5999755859375</ele>
        <time>2021-08-17T18:50:17.000Z</time>
      </trkpt>
      <trkpt lat="43.07703844271600246429443359375" lon="-6.06665412895381450653076171875">
        <ele>1665</ele>
        <time>2021-08-17T18:50:21.000Z</time>
      </trkpt>
      <trkpt lat="43.0770360119640827178955078125" lon="-6.06665463186800479888916015625">
        <ele>1665.199951171875</ele>
        <time>2021-08-17T18:50:22.000Z</time>
      </trkpt>
      <trkpt lat="43.07700625620782375335693359375" lon="-6.0666436515748500823974609375">
        <ele>1666</ele>
        <time>2021-08-17T18:50:27.000Z</time>
      </trkpt>
      <trkpt lat="43.076982535421848297119140625" lon="-6.06666770763695240020751953125">
        <ele>1667</ele>
        <time>2021-08-17T18:50:32.000Z</time>
      </trkpt>
      <trkpt lat="43.0769808590412139892578125" lon="-6.0666738264262676239013671875">
        <ele>1667</ele>
        <time>2021-08-17T18:50:33.000Z</time>
      </trkpt>
      <trkpt lat="43.07697172276675701141357421875" lon="-6.06669268570840358734130859375">
        <ele>1667.800048828125</ele>
        <time>2021-08-17T18:50:41.000Z</time>
      </trkpt>
      <trkpt lat="43.07699636556208133697509765625" lon="-6.0667029954493045806884765625">
        <ele>1668</ele>
        <time>2021-08-17T18:50:53.000Z</time>
      </trkpt>
      <trkpt lat="43.07699938304722309112548828125" lon="-6.06670760549604892730712890625">
        <ele>1668</ele>
        <time>2021-08-17T18:50:55.000Z</time>
      </trkpt>
      <trkpt lat="43.07700525037944316864013671875" lon="-6.066717915236949920654296875">
        <ele>1668</ele>
        <time>2021-08-17T18:51:02.000Z</time>
      </trkpt>
      <trkpt lat="43.0770055018365383148193359375" lon="-6.06671783141791820526123046875">
        <ele>1668</ele>
        <time>2021-08-17T18:51:04.000Z</time>
      </trkpt>
      <trkpt lat="43.077004663646221160888671875" lon="-6.06671598739922046661376953125">
        <ele>1668</ele>
        <time>2021-08-17T18:51:08.000Z</time>
      </trkpt>
      <trkpt lat="43.07699267752468585968017578125" lon="-6.06672051362693309783935546875">
        <ele>1668</ele>
        <time>2021-08-17T18:51:10.000Z</time>
      </trkpt>
      <trkpt lat="43.07698018848896026611328125" lon="-6.0667221061885356903076171875">
        <ele>1667.800048828125</ele>
        <time>2021-08-17T18:51:12.000Z</time>
      </trkpt>
      <trkpt lat="43.0769726447761058807373046875" lon="-6.06672537513077259063720703125">
        <ele>1667.800048828125</ele>
        <time>2021-08-17T18:51:13.000Z</time>
      </trkpt>
      <trkpt lat="43.07695998810231685638427734375" lon="-6.066740043461322784423828125">
        <ele>1667.800048828125</ele>
        <time>2021-08-17T18:51:15.000Z</time>
      </trkpt>
      <trkpt lat="43.0769347585737705230712890625" lon="-6.06674750335514545440673828125">
        <ele>1668</ele>
        <time>2021-08-17T18:51:22.000Z</time>
      </trkpt>
      <trkpt lat="43.07689159177243709564208984375" lon="-6.0667477548122406005859375">
        <ele>1668.199951171875</ele>
        <time>2021-08-17T18:51:26.000Z</time>
      </trkpt>
      <trkpt lat="43.07687315158545970916748046875" lon="-6.06675588525831699371337890625">
        <ele>1668.5999755859375</ele>
        <time>2021-08-17T18:51:29.000Z</time>
      </trkpt>
      <trkpt lat="43.0768506042659282684326171875" lon="-6.06676627881824970245361328125">
        <ele>1669</ele>
        <time>2021-08-17T18:51:31.000Z</time>
      </trkpt>
      <trkpt lat="43.07683526538312435150146484375" lon="-6.06676929630339145660400390625">
        <ele>1669.199951171875</ele>
        <time>2021-08-17T18:51:33.000Z</time>
      </trkpt>
      <trkpt lat="43.07679620571434497833251953125" lon="-6.06675244867801666259765625">
        <ele>1670.4000244140625</ele>
        <time>2021-08-17T18:51:38.000Z</time>
      </trkpt>
      <trkpt lat="43.076763935387134552001953125" lon="-6.06671866960823535919189453125">
        <ele>1671</ele>
        <time>2021-08-17T18:51:41.000Z</time>
      </trkpt>
      <trkpt lat="43.076756894588470458984375" lon="-6.066703163087368011474609375">
        <ele>1671.5999755859375</ele>
        <time>2021-08-17T18:51:43.000Z</time>
      </trkpt>
      <trkpt lat="43.07675362564623355865478515625" lon="-6.0666941106319427490234375">
        <ele>1672.199951171875</ele>
        <time>2021-08-17T18:51:45.000Z</time>
      </trkpt>
      <trkpt lat="43.07674105279147624969482421875" lon="-6.06666862964630126953125">
        <ele>1672.5999755859375</ele>
        <time>2021-08-17T18:51:47.000Z</time>
      </trkpt>
      <trkpt lat="43.07674105279147624969482421875" lon="-6.06666862964630126953125">
        <ele>1672.800048828125</ele>
        <time>2021-08-17T18:51:48.000Z</time>
      </trkpt>
      <trkpt lat="43.0767295695841312408447265625" lon="-6.06662194244563579559326171875">
        <ele>1673.800048828125</ele>
        <time>2021-08-17T18:51:52.000Z</time>
      </trkpt>
      <trkpt lat="43.0767295695841312408447265625" lon="-6.06662194244563579559326171875">
        <ele>1674</ele>
        <time>2021-08-17T18:51:53.000Z</time>
      </trkpt>
      <trkpt lat="43.0767319165170192718505859375" lon="-6.0666171647608280181884765625">
        <ele>1674.199951171875</ele>
        <time>2021-08-17T18:51:54.000Z</time>
      </trkpt>
      <trkpt lat="43.07673216797411441802978515625" lon="-6.06660224497318267822265625">
        <ele>1675</ele>
        <time>2021-08-17T18:51:57.000Z</time>
      </trkpt>
      <trkpt lat="43.076736442744731903076171875" lon="-6.066586486995220184326171875">
        <ele>1675.5999755859375</ele>
        <time>2021-08-17T18:52:01.000Z</time>
      </trkpt>
      <trkpt lat="43.0767332576215267181396484375" lon="-6.06658338569104671478271484375">
        <ele>1676</ele>
        <time>2021-08-17T18:52:02.000Z</time>
      </trkpt>
      <trkpt lat="43.0767332576215267181396484375" lon="-6.06658338569104671478271484375">
        <ele>1676.4000244140625</ele>
        <time>2021-08-17T18:52:03.000Z</time>
      </trkpt>
      <trkpt lat="43.07672076858580112457275390625" lon="-6.06656662188470363616943359375">
        <ele>1677.199951171875</ele>
        <time>2021-08-17T18:52:06.000Z</time>
      </trkpt>
      <trkpt lat="43.076706267893314361572265625" lon="-6.06655798852443695068359375">
        <ele>1677.5999755859375</ele>
        <time>2021-08-17T18:52:08.000Z</time>
      </trkpt>
      <trkpt lat="43.07669193483889102935791015625" lon="-6.06654725968837738037109375">
        <ele>1678.199951171875</ele>
        <time>2021-08-17T18:52:10.000Z</time>
      </trkpt>
      <trkpt lat="43.076678775250911712646484375" lon="-6.066537536680698394775390625">
        <ele>1678.5999755859375</ele>
        <time>2021-08-17T18:52:12.000Z</time>
      </trkpt>
      <trkpt lat="43.07666896842420101165771484375" lon="-6.06653611175715923309326171875">
        <ele>1678.800048828125</ele>
        <time>2021-08-17T18:52:13.000Z</time>
      </trkpt>
      <trkpt lat="43.07664181105792522430419921875" lon="-6.066537536680698394775390625">
        <ele>1679.4000244140625</ele>
        <time>2021-08-17T18:52:16.000Z</time>
      </trkpt>
      <trkpt lat="43.0766219459474086761474609375" lon="-6.066532842814922332763671875">
        <ele>1679.800048828125</ele>
        <time>2021-08-17T18:52:22.000Z</time>
      </trkpt>
      <trkpt lat="43.076621107757091522216796875" lon="-6.066532172262668609619140625">
        <ele>1680.4000244140625</ele>
        <time>2021-08-17T18:52:26.000Z</time>
      </trkpt>
      <trkpt lat="43.07661917991936206817626953125" lon="-6.0665299929678440093994140625">
        <ele>1680</ele>
        <time>2021-08-17T18:52:34.000Z</time>
      </trkpt>
      <trkpt lat="43.0766192637383937835693359375" lon="-6.0665316693484783172607421875">
        <ele>1680</ele>
        <time>2021-08-17T18:52:35.000Z</time>
      </trkpt>
      <trkpt lat="43.0766206048429012298583984375" lon="-6.0665246285498142242431640625">
        <ele>1680</ele>
        <time>2021-08-17T18:52:42.000Z</time>
      </trkpt>
      <trkpt lat="43.0766209401190280914306640625" lon="-6.06652043759822845458984375">
        <ele>1680</ele>
        <time>2021-08-17T18:52:45.000Z</time>
      </trkpt>
      <trkpt lat="43.076622448861598968505859375" lon="-6.0665206052362918853759765625">
        <ele>1679.800048828125</ele>
        <time>2021-08-17T18:52:48.000Z</time>
      </trkpt>
      <trkpt lat="43.07662345468997955322265625" lon="-6.06652353890240192413330078125">
        <ele>1679.800048828125</ele>
        <time>2021-08-17T18:52:50.000Z</time>
      </trkpt>
      <trkpt lat="43.07662152685225009918212890625" lon="-6.06652555055916309356689453125">
        <ele>1680.199951171875</ele>
        <time>2021-08-17T18:52:55.000Z</time>
      </trkpt>
      <trkpt lat="43.07661809027194976806640625" lon="-6.0665222816169261932373046875">
        <ele>1680.4000244140625</ele>
        <time>2021-08-17T18:52:59.000Z</time>
      </trkpt>
      <trkpt lat="43.076616413891315460205078125" lon="-6.0665236227214336395263671875">
        <ele>1680.199951171875</ele>
        <time>2021-08-17T18:53:03.000Z</time>
      </trkpt>
      <trkpt lat="43.0766182579100131988525390625" lon="-6.06652722693979740142822265625">
        <ele>1680</ele>
        <time>2021-08-17T18:53:05.000Z</time>
      </trkpt>
      <trkpt lat="43.07662211358547210693359375" lon="-6.06652990914881229400634765625">
        <ele>1680.199951171875</ele>
        <time>2021-08-17T18:53:09.000Z</time>
      </trkpt>
      <trkpt lat="43.076622784137725830078125" lon="-6.066532172262668609619140625">
        <ele>1680</ele>
        <time>2021-08-17T18:53:12.000Z</time>
      </trkpt>
      <trkpt lat="43.07662253268063068389892578125" lon="-6.066533513367176055908203125">
        <ele>1679.800048828125</ele>
        <time>2021-08-17T18:53:15.000Z</time>
      </trkpt>
      <trkpt lat="43.07662345468997955322265625" lon="-6.06653342954814434051513671875">
        <ele>1679.5999755859375</ele>
        <time>2021-08-17T18:53:19.000Z</time>
      </trkpt>
      <trkpt lat="43.07662345468997955322265625" lon="-6.06653342954814434051513671875">
        <ele>1679.4000244140625</ele>
        <time>2021-08-17T18:53:20.000Z</time>
      </trkpt>
      <trkpt lat="43.0766232870519161224365234375" lon="-6.06653359718620777130126953125">
        <ele>1679.199951171875</ele>
        <time>2021-08-17T18:53:22.000Z</time>
      </trkpt>
      <trkpt lat="43.0766241252422332763671875" lon="-6.0665353573858737945556640625">
        <ele>1679.4000244140625</ele>
        <time>2021-08-17T18:53:28.000Z</time>
      </trkpt>
      <trkpt lat="43.076624460518360137939453125" lon="-6.06653611175715923309326171875">
        <ele>1679.4000244140625</ele>
        <time>2021-08-17T18:53:32.000Z</time>
      </trkpt>
      <trkpt lat="43.07662487961351871490478515625" lon="-6.066536195576190948486328125">
        <ele>1679.4000244140625</ele>
        <time>2021-08-17T18:53:33.000Z</time>
      </trkpt>
      <trkpt lat="43.07662521488964557647705078125" lon="-6.06653627939522266387939453125">
        <ele>1679.4000244140625</ele>
        <time>2021-08-17T18:53:34.000Z</time>
      </trkpt>
      <trkpt lat="43.0766252987086772918701171875" lon="-6.06653653085231781005859375">
        <ele>1679.4000244140625</ele>
        <time>2021-08-17T18:53:36.000Z</time>
      </trkpt>
      <trkpt lat="43.07662487961351871490478515625" lon="-6.0665373690426349639892578125">
        <ele>1679.4000244140625</ele>
        <time>2021-08-17T18:53:43.000Z</time>
      </trkpt>
      <trkpt lat="43.076626472175121307373046875" lon="-6.0665373690426349639892578125">
        <ele>1679.199951171875</ele>
        <time>2021-08-17T18:53:46.000Z</time>
      </trkpt>
      <trkpt lat="43.07662705890834331512451171875" lon="-6.06653694994747638702392578125">
        <ele>1679.800048828125</ele>
        <time>2021-08-17T18:53:52.000Z</time>
      </trkpt>
      <trkpt lat="43.0766152404248714447021484375" lon="-6.066526137292385101318359375">
        <ele>1679.4000244140625</ele>
        <time>2021-08-17T18:53:59.000Z</time>
      </trkpt>
      <trkpt lat="43.076606355607509613037109375" lon="-6.06652186252176761627197265625">
        <ele>1679.199951171875</ele>
        <time>2021-08-17T18:54:01.000Z</time>
      </trkpt>
      <trkpt lat="43.076574839651584625244140625" lon="-6.06652203015983104705810546875">
        <ele>1679.199951171875</ele>
        <time>2021-08-17T18:54:12.000Z</time>
      </trkpt>
      <trkpt lat="43.07657442055642604827880859375" lon="-6.0665226168930530548095703125">
        <ele>1679</ele>
        <time>2021-08-17T18:54:13.000Z</time>
      </trkpt>
      <trkpt lat="43.07657693512737751007080078125" lon="-6.06652337126433849334716796875">
        <ele>1679.199951171875</ele>
        <time>2021-08-17T18:54:15.000Z</time>
      </trkpt>
      <trkpt lat="43.07657257653772830963134765625" lon="-6.0665251314640045166015625">
        <ele>1679.4000244140625</ele>
        <time>2021-08-17T18:54:24.000Z</time>
      </trkpt>
      <trkpt lat="43.07657643221318721771240234375" lon="-6.0665279813110828399658203125">
        <ele>1679</ele>
        <time>2021-08-17T18:54:30.000Z</time>
      </trkpt>
      <trkpt lat="43.07659101672470569610595703125" lon="-6.0665309987962245941162109375">
        <ele>1679.4000244140625</ele>
        <time>2021-08-17T18:54:35.000Z</time>
      </trkpt>
      <trkpt lat="43.07658464647829532623291015625" lon="-6.06652286835014820098876953125">
        <ele>1679.4000244140625</ele>
        <time>2021-08-17T18:54:39.000Z</time>
      </trkpt>
      <trkpt lat="43.0765843950212001800537109375" lon="-6.06652714312076568603515625">
        <ele>1679.199951171875</ele>
        <time>2021-08-17T18:54:44.000Z</time>
      </trkpt>
      <trkpt lat="43.076585233211517333984375" lon="-6.06653309427201747894287109375">
        <ele>1679.199951171875</ele>
        <time>2021-08-17T18:54:56.000Z</time>
      </trkpt>
      <trkpt lat="43.0765850655734539031982421875" lon="-6.0665330104529857635498046875">
        <ele>1679.4000244140625</ele>
        <time>2021-08-17T18:55:03.000Z</time>
      </trkpt>
      <trkpt lat="43.07658028788864612579345703125" lon="-6.06653963215649127960205078125">
        <ele>1679.5999755859375</ele>
        <time>2021-08-17T18:55:12.000Z</time>
      </trkpt>
      <trkpt lat="43.07657944969832897186279296875" lon="-6.06653653085231781005859375">
        <ele>1679.4000244140625</ele>
        <time>2021-08-17T18:55:14.000Z</time>
      </trkpt>
      <trkpt lat="43.076580204069614410400390625" lon="-6.0665360279381275177001953125">
        <ele>1679.4000244140625</ele>
        <time>2021-08-17T18:55:15.000Z</time>
      </trkpt>
      <trkpt lat="43.0765760131180286407470703125" lon="-6.0665269754827022552490234375">
        <ele>1679.5999755859375</ele>
        <time>2021-08-17T18:55:26.000Z</time>
      </trkpt>
      <trkpt lat="43.07658045552670955657958984375" lon="-6.06651666574180126190185546875">
        <ele>1679.199951171875</ele>
        <time>2021-08-17T18:55:38.000Z</time>
      </trkpt>
      <trkpt lat="43.0765783600509166717529296875" lon="-6.06651800684630870819091796875">
        <ele>1679.199951171875</ele>
        <time>2021-08-17T18:55:41.000Z</time>
      </trkpt>
      <trkpt lat="43.07657961733639240264892578125" lon="-6.066515743732452392578125">
        <ele>1679</ele>
        <time>2021-08-17T18:55:44.000Z</time>
      </trkpt>
      <trkpt lat="43.07658012025058269500732421875" lon="-6.06651482172310352325439453125">
        <ele>1679</ele>
        <time>2021-08-17T18:55:49.000Z</time>
      </trkpt>
      <trkpt lat="43.0765740014612674713134765625" lon="-6.0665340162813663482666015625">
        <ele>1679</ele>
        <time>2021-08-17T18:55:58.000Z</time>
      </trkpt>
      <trkpt lat="43.07655279524624347686767578125" lon="-6.06657282449305057525634765625">
        <ele>1679.4000244140625</ele>
        <time>2021-08-17T18:56:06.000Z</time>
      </trkpt>
      <trkpt lat="43.07654893957078456878662109375" lon="-6.066580116748809814453125">
        <ele>1680</ele>
        <time>2021-08-17T18:56:13.000Z</time>
      </trkpt>
      <trkpt lat="43.076548688113689422607421875" lon="-6.066579110920429229736328125">
        <ele>1680</ele>
        <time>2021-08-17T18:56:17.000Z</time>
      </trkpt>
      <trkpt lat="43.07654927484691143035888671875" lon="-6.066577434539794921875">
        <ele>1680</ele>
        <time>2021-08-17T18:56:18.000Z</time>
      </trkpt>
      <trkpt lat="43.0765284039080142974853515625" lon="-6.06658355332911014556884765625">
        <ele>1680</ele>
        <time>2021-08-17T18:56:29.000Z</time>
      </trkpt>
      <trkpt lat="43.07648473419249057769775390625" lon="-6.06663619168102741241455078125">
        <ele>1680</ele>
        <time>2021-08-17T18:56:36.000Z</time>
      </trkpt>
      <trkpt lat="43.07648473419249057769775390625" lon="-6.06663619168102741241455078125">
        <ele>1680</ele>
        <time>2021-08-17T18:56:37.000Z</time>
      </trkpt>
      <trkpt lat="43.07649127207696437835693359375" lon="-6.0666449926793575286865234375">
        <ele>1679.199951171875</ele>
        <time>2021-08-17T18:56:49.000Z</time>
      </trkpt>
      <trkpt lat="43.0764921940863132476806640625" lon="-6.0666466690599918365478515625">
        <ele>1679.4000244140625</ele>
        <time>2021-08-17T18:56:54.000Z</time>
      </trkpt>
      <trkpt lat="43.07649278081953525543212890625" lon="-6.06664717197418212890625">
        <ele>1679.4000244140625</ele>
        <time>2021-08-17T18:56:58.000Z</time>
      </trkpt>
      <trkpt lat="43.0764938704669475555419921875" lon="-6.06664708815515041351318359375">
        <ele>1679.199951171875</ele>
        <time>2021-08-17T18:57:01.000Z</time>
      </trkpt>
      <trkpt lat="43.07647995650768280029296875" lon="-6.066622026264667510986328125">
        <ele>1679</ele>
        <time>2021-08-17T18:57:07.000Z</time>
      </trkpt>
      <trkpt lat="43.07643561623990535736083984375" lon="-6.0666282288730144500732421875">
        <ele>1678.5999755859375</ele>
        <time>2021-08-17T18:57:15.000Z</time>
      </trkpt>
      <trkpt lat="43.07642907835543155670166015625" lon="-6.06663837097585201263427734375">
        <ele>1678.5999755859375</ele>
        <time>2021-08-17T18:57:16.000Z</time>
      </trkpt>
      <trkpt lat="43.07642237283289432525634765625" lon="-6.06664826162159442901611328125">
        <ele>1678.5999755859375</ele>
        <time>2021-08-17T18:57:17.000Z</time>
      </trkpt>
      <trkpt lat="43.0764157511293888092041015625" lon="-6.0666646063327789306640625">
        <ele>1678.5999755859375</ele>
        <time>2021-08-17T18:57:19.000Z</time>
      </trkpt>
      <trkpt lat="43.07640376500785350799560546875" lon="-6.06669000349938869476318359375">
        <ele>1678.5999755859375</ele>
        <time>2021-08-17T18:57:23.000Z</time>
      </trkpt>
      <trkpt lat="43.076402507722377777099609375" lon="-6.06669209897518157958984375">
        <ele>1678.5999755859375</ele>
        <time>2021-08-17T18:57:24.000Z</time>
      </trkpt>
      <trkpt lat="43.07640560902655124664306640625" lon="-6.06669167988002300262451171875">
        <ele>1678.5999755859375</ele>
        <time>2021-08-17T18:57:26.000Z</time>
      </trkpt>
      <trkpt lat="43.07640644721686840057373046875" lon="-6.06669117696583271026611328125">
        <ele>1678.4000244140625</ele>
        <time>2021-08-17T18:57:31.000Z</time>
      </trkpt>
      <trkpt lat="43.07640711776912212371826171875" lon="-6.06669033877551555633544921875">
        <ele>1678.4000244140625</ele>
        <time>2021-08-17T18:57:34.000Z</time>
      </trkpt>
      <trkpt lat="43.076405189931392669677734375" lon="-6.0666976310312747955322265625">
        <ele>1678.199951171875</ele>
        <time>2021-08-17T18:57:39.000Z</time>
      </trkpt>
      <trkpt lat="43.07640024460852146148681640625" lon="-6.06670819222927093505859375">
        <ele>1678</ele>
        <time>2021-08-17T18:57:44.000Z</time>
      </trkpt>
      <trkpt lat="43.076399825513362884521484375" lon="-6.06671012006700038909912109375">
        <ele>1678</ele>
        <time>2021-08-17T18:57:49.000Z</time>
      </trkpt>
      <trkpt lat="43.07639840058982372283935546875" lon="-6.06670710258185863494873046875">
        <ele>1678.800048828125</ele>
        <time>2021-08-17T18:57:55.000Z</time>
      </trkpt>
      <trkpt lat="43.0764100514352321624755859375" lon="-6.066697128117084503173828125">
        <ele>1678.800048828125</ele>
        <time>2021-08-17T18:58:07.000Z</time>
      </trkpt>
      <trkpt lat="43.0764120630919933319091796875" lon="-6.0666972957551479339599609375">
        <ele>1678.5999755859375</ele>
        <time>2021-08-17T18:58:23.000Z</time>
      </trkpt>
      <trkpt lat="43.07640644721686840057373046875" lon="-6.0666915960609912872314453125">
        <ele>1678.5999755859375</ele>
        <time>2021-08-17T18:58:24.000Z</time>
      </trkpt>
      <trkpt lat="43.07635531760752201080322265625" lon="-6.0666915960609912872314453125">
        <ele>1678.4000244140625</ele>
        <time>2021-08-17T18:58:32.000Z</time>
      </trkpt>
      <trkpt lat="43.0763399787247180938720703125" lon="-6.06670525856316089630126953125">
        <ele>1677.800048828125</ele>
        <time>2021-08-17T18:58:35.000Z</time>
      </trkpt>
      <trkpt lat="43.07633821852505207061767578125" lon="-6.06670693494379520416259765625">
        <ele>1677.5999755859375</ele>
        <time>2021-08-17T18:58:36.000Z</time>
      </trkpt>
      <trkpt lat="43.07633067481219768524169921875" lon="-6.06671213172376155853271484375">
        <ele>1677.199951171875</ele>
        <time>2021-08-17T18:58:38.000Z</time>
      </trkpt>
      <trkpt lat="43.07630167342722415924072265625" lon="-6.0667261295020580291748046875">
        <ele>1677.199951171875</ele>
        <time>2021-08-17T18:58:41.000Z</time>
      </trkpt>
      <trkpt lat="43.0762762762606143951416015625" lon="-6.0667680390179157257080078125">
        <ele>1676.800048828125</ele>
        <time>2021-08-17T18:58:45.000Z</time>
      </trkpt>
      <trkpt lat="43.07625808753073215484619140625" lon="-6.0668049193918704986572265625">
        <ele>1676.199951171875</ele>
        <time>2021-08-17T18:58:48.000Z</time>
      </trkpt>
      <trkpt lat="43.0762471072375774383544921875" lon="-6.066815815865993499755859375">
        <ele>1676</ele>
        <time>2021-08-17T18:58:49.000Z</time>
      </trkpt>
      <trkpt lat="43.07623989880084991455078125" lon="-6.0668277181684970855712890625">
        <ele>1675.800048828125</ele>
        <time>2021-08-17T18:58:50.000Z</time>
      </trkpt>
      <trkpt lat="43.0762283317744731903076171875" lon="-6.0668525286018848419189453125">
        <ele>1675.800048828125</ele>
        <time>2021-08-17T18:58:52.000Z</time>
      </trkpt>
      <trkpt lat="43.07620326988399028778076171875" lon="-6.06690525077283382415771484375">
        <ele>1675.199951171875</ele>
        <time>2021-08-17T18:58:56.000Z</time>
      </trkpt>
      <trkpt lat="43.07619941420853137969970703125" lon="-6.0669179074466228485107421875">
        <ele>1675.199951171875</ele>
        <time>2021-08-17T18:58:57.000Z</time>
      </trkpt>
      <trkpt lat="43.07619840838015079498291015625" lon="-6.0669249482452869415283203125">
        <ele>1675.199951171875</ele>
        <time>2021-08-17T18:58:58.000Z</time>
      </trkpt>
      <trkpt lat="43.07619698345661163330078125" lon="-6.06692679226398468017578125">
        <ele>1675.4000244140625</ele>
        <time>2021-08-17T18:59:01.000Z</time>
      </trkpt>
      <trkpt lat="43.076161779463291168212890625" lon="-6.06696643866598606109619140625">
        <ele>1674.800048828125</ele>
        <time>2021-08-17T18:59:07.000Z</time>
      </trkpt>
      <trkpt lat="43.0761237256228923797607421875" lon="-6.06700030155479907989501953125">
        <ele>1674</ele>
        <time>2021-08-17T18:59:11.000Z</time>
      </trkpt>
      <trkpt lat="43.0760972388088703155517578125" lon="-6.0670292191207408905029296875">
        <ele>1673.4000244140625</ele>
        <time>2021-08-17T18:59:14.000Z</time>
      </trkpt>
      <trkpt lat="43.0760885216295719146728515625" lon="-6.06704086996614933013916015625">
        <ele>1673.199951171875</ele>
        <time>2021-08-17T18:59:15.000Z</time>
      </trkpt>
      <trkpt lat="43.07608324103057384490966796875" lon="-6.067052520811557769775390625">
        <ele>1673</ele>
        <time>2021-08-17T18:59:16.000Z</time>
      </trkpt>
      <trkpt lat="43.076079301536083221435546875" lon="-6.067064590752124786376953125">
        <ele>1673</ele>
        <time>2021-08-17T18:59:17.000Z</time>
      </trkpt>
      <trkpt lat="43.07608206756412982940673828125" lon="-6.06709082610905170440673828125">
        <ele>1672.800048828125</ele>
        <time>2021-08-17T18:59:18.000Z</time>
      </trkpt>
      <trkpt lat="43.07608206756412982940673828125" lon="-6.06709082610905170440673828125">
        <ele>1672.5999755859375</ele>
        <time>2021-08-17T18:59:19.000Z</time>
      </trkpt>
      <trkpt lat="43.07610101066529750823974609375" lon="-6.06714162044227123260498046875">
        <ele>1672.4000244140625</ele>
        <time>2021-08-17T18:59:23.000Z</time>
      </trkpt>
      <trkpt lat="43.07611324824392795562744140625" lon="-6.06713910587131977081298828125">
        <ele>1672.4000244140625</ele>
        <time>2021-08-17T18:59:24.000Z</time>
      </trkpt>
      <trkpt lat="43.07615130208432674407958984375" lon="-6.06709853745996952056884765625">
        <ele>1672</ele>
        <time>2021-08-17T18:59:29.000Z</time>
      </trkpt>
      <trkpt lat="43.07616035453975200653076171875" lon="-6.06710105203092098236083984375">
        <ele>1671.5999755859375</ele>
        <time>2021-08-17T18:59:30.000Z</time>
      </trkpt>
      <trkpt lat="43.07616521604359149932861328125" lon="-6.06711764819920063018798828125">
        <ele>1671.199951171875</ele>
        <time>2021-08-17T18:59:31.000Z</time>
      </trkpt>
      <trkpt lat="43.07616521604359149932861328125" lon="-6.06711764819920063018798828125">
        <ele>1670.800048828125</ele>
        <time>2021-08-17T18:59:32.000Z</time>
      </trkpt>
      <trkpt lat="43.0761924572288990020751953125" lon="-6.06717489659786224365234375">
        <ele>1670.199951171875</ele>
        <time>2021-08-17T18:59:36.000Z</time>
      </trkpt>
      <trkpt lat="43.07620293460786342620849609375" lon="-6.067181266844272613525390625">
        <ele>1670</ele>
        <time>2021-08-17T18:59:38.000Z</time>
      </trkpt>
      <trkpt lat="43.07621173560619354248046875" lon="-6.06719057075679302215576171875">
        <ele>1670</ele>
        <time>2021-08-17T18:59:39.000Z</time>
      </trkpt>
      <trkpt lat="43.07624526321887969970703125" lon="-6.06721454299986362457275390625">
        <ele>1669.800048828125</ele>
        <time>2021-08-17T18:59:42.000Z</time>
      </trkpt>
      <trkpt lat="43.0762893520295619964599609375" lon="-6.06721538119018077850341796875">
        <ele>1670</ele>
        <time>2021-08-17T18:59:46.000Z</time>
      </trkpt>
      <trkpt lat="43.0763518810272216796875" lon="-6.0671405307948589324951171875">
        <ele>1670.4000244140625</ele>
        <time>2021-08-17T18:59:52.000Z</time>
      </trkpt>
      <trkpt lat="43.07635347358882427215576171875" lon="-6.06712301261723041534423828125">
        <ele>1670.4000244140625</ele>
        <time>2021-08-17T18:59:53.000Z</time>
      </trkpt>
      <trkpt lat="43.076354898512363433837890625" lon="-6.06710775755345821380615234375">
        <ele>1670.4000244140625</ele>
        <time>2021-08-17T18:59:54.000Z</time>
      </trkpt>
      <trkpt lat="43.0763577483594417572021484375" lon="-6.06707875616848468780517578125">
        <ele>1670.5999755859375</ele>
        <time>2021-08-17T18:59:56.000Z</time>
      </trkpt>
      <trkpt lat="43.0763634480535984039306640625" lon="-6.0670644231140613555908203125">
        <ele>1670.4000244140625</ele>
        <time>2021-08-17T18:59:57.000Z</time>
      </trkpt>
      <trkpt lat="43.07636470533907413482666015625" lon="-6.067050509154796600341796875">
        <ele>1670.4000244140625</ele>
        <time>2021-08-17T18:59:58.000Z</time>
      </trkpt>
      <trkpt lat="43.076358921825885772705078125" lon="-6.06703802011907100677490234375">
        <ele>1670.199951171875</ele>
        <time>2021-08-17T19:00:00.000Z</time>
      </trkpt>
      <trkpt lat="43.07635121047496795654296875" lon="-6.0670305602252483367919921875">
        <ele>1670.199951171875</ele>
        <time>2021-08-17T19:00:02.000Z</time>
      </trkpt>
      <trkpt lat="43.07634274475276470184326171875" lon="-6.06703416444361209869384765625">
        <ele>1670</ele>
        <time>2021-08-17T19:00:04.000Z</time>
      </trkpt>
      <trkpt lat="43.07631843723356723785400390625" lon="-6.06703215278685092926025390625">
        <ele>1669.800048828125</ele>
        <time>2021-08-17T19:00:07.000Z</time>
      </trkpt>
      <trkpt lat="43.07629480026662349700927734375" lon="-6.06698823161423206329345703125">
        <ele>1669.199951171875</ele>
        <time>2021-08-17T19:00:11.000Z</time>
      </trkpt>
      <trkpt lat="43.0762833170592784881591796875" lon="-6.06696660630404949188232421875">
        <ele>1669</ele>
        <time>2021-08-17T19:00:12.000Z</time>
      </trkpt>
      <trkpt lat="43.07627476751804351806640625" lon="-6.06694749556481838226318359375">
        <ele>1668.5999755859375</ele>
        <time>2021-08-17T19:00:14.000Z</time>
      </trkpt>
      <trkpt lat="43.0762585066258907318115234375" lon="-6.06692721135914325714111328125">
        <ele>1669.4000244140625</ele>
        <time>2021-08-17T19:00:22.000Z</time>
      </trkpt>
      <trkpt lat="43.07628055103123188018798828125" lon="-6.0669749043881893157958984375">
        <ele>1669.4000244140625</ele>
        <time>2021-08-17T19:00:25.000Z</time>
      </trkpt>
      <trkpt lat="43.0763000808656215667724609375" lon="-6.06700331903994083404541015625">
        <ele>1668.5999755859375</ele>
        <time>2021-08-17T19:00:28.000Z</time>
      </trkpt>
      <trkpt lat="43.07632438838481903076171875" lon="-6.0670293867588043212890625">
        <ele>1668.800048828125</ele>
        <time>2021-08-17T19:00:32.000Z</time>
      </trkpt>
      <trkpt lat="43.07634492404758930206298828125" lon="-6.0670240223407745361328125">
        <ele>1669.199951171875</ele>
        <time>2021-08-17T19:00:34.000Z</time>
      </trkpt>
      <trkpt lat="43.07636504061520099639892578125" lon="-6.06700516305863857269287109375">
        <ele>1669.800048828125</ele>
        <time>2021-08-17T19:00:36.000Z</time>
      </trkpt>
      <trkpt lat="43.0763926170766353607177734375" lon="-6.06696224771440029144287109375">
        <ele>1670</ele>
        <time>2021-08-17T19:00:40.000Z</time>
      </trkpt>
      <trkpt lat="43.076419271528720855712890625" lon="-6.0669755749404430389404296875">
        <ele>1670.199951171875</ele>
        <time>2021-08-17T19:00:44.000Z</time>
      </trkpt>
      <trkpt lat="43.07643813081085681915283203125" lon="-6.067003570497035980224609375">
        <ele>1670.5999755859375</ele>
        <time>2021-08-17T19:00:47.000Z</time>
      </trkpt>
      <trkpt lat="43.07643963955342769622802734375" lon="-6.06700398959219455718994140625">
        <ele>1670.5999755859375</ele>
        <time>2021-08-17T19:00:49.000Z</time>
      </trkpt>
      <trkpt lat="43.0764442496001720428466796875" lon="-6.0670007206499576568603515625">
        <ele>1670.5999755859375</ele>
        <time>2021-08-17T19:00:51.000Z</time>
      </trkpt>
      <trkpt lat="43.076444752514362335205078125" lon="-6.0669839568436145782470703125">
        <ele>1670.4000244140625</ele>
        <time>2021-08-17T19:00:53.000Z</time>
      </trkpt>
      <trkpt lat="43.0764422379434108734130859375" lon="-6.06699879281222820281982421875">
        <ele>1670.199951171875</ele>
        <time>2021-08-17T19:00:56.000Z</time>
      </trkpt>
      <trkpt lat="43.07644433341920375823974609375" lon="-6.06704187579452991485595703125">
        <ele>1670.199951171875</ele>
        <time>2021-08-17T19:00:59.000Z</time>
      </trkpt>
      <trkpt lat="43.07643461041152477264404296875" lon="-6.0670848749577999114990234375">
        <ele>1670.4000244140625</ele>
        <time>2021-08-17T19:01:02.000Z</time>
      </trkpt>
      <trkpt lat="43.07643695734441280364990234375" lon="-6.06708914972841739654541015625">
        <ele>1670.4000244140625</ele>
        <time>2021-08-17T19:01:03.000Z</time>
      </trkpt>
      <trkpt lat="43.0764372088015079498291015625" lon="-6.06708680279552936553955078125">
        <ele>1670.4000244140625</ele>
        <time>2021-08-17T19:01:04.000Z</time>
      </trkpt>
      <trkpt lat="43.0764465965330600738525390625" lon="-6.067039780318737030029296875">
        <ele>1670.4000244140625</ele>
        <time>2021-08-17T19:01:07.000Z</time>
      </trkpt>
      <trkpt lat="43.0764465965330600738525390625" lon="-6.06703097932040691375732421875">
        <ele>1670.4000244140625</ele>
        <time>2021-08-17T19:01:08.000Z</time>
      </trkpt>
      <trkpt lat="43.07644919492304325103759765625" lon="-6.06702578254044055938720703125">
        <ele>1670.4000244140625</ele>
        <time>2021-08-17T19:01:10.000Z</time>
      </trkpt>
      <trkpt lat="43.076446764171123504638671875" lon="-6.06701455079019069671630859375">
        <ele>1670.800048828125</ele>
        <time>2021-08-17T19:01:13.000Z</time>
      </trkpt>
      <trkpt lat="43.076446764171123504638671875" lon="-6.06701455079019069671630859375">
        <ele>1670.800048828125</ele>
        <time>2021-08-17T19:01:14.000Z</time>
      </trkpt>
      <trkpt lat="43.0764469318091869354248046875" lon="-6.06702494435012340545654296875">
        <ele>1670.800048828125</ele>
        <time>2021-08-17T19:01:15.000Z</time>
      </trkpt>
      <trkpt lat="43.0764484405517578125" lon="-6.06703139841556549072265625">
        <ele>1670.800048828125</ele>
        <time>2021-08-17T19:01:17.000Z</time>
      </trkpt>
      <trkpt lat="43.0764486081898212432861328125" lon="-6.06703533791005611419677734375">
        <ele>1671</ele>
        <time>2021-08-17T19:01:19.000Z</time>
      </trkpt>
      <trkpt lat="43.0763212032616138458251953125" lon="-6.0667046718299388885498046875">
        <ele>1748.800048828125</ele>
        <time>2021-08-18T07:14:51.000Z</time>
      </trkpt>
      <trkpt lat="43.076305277645587921142578125" lon="-6.0667398758232593536376953125">
        <ele>1747.199951171875</ele>
        <time>2021-08-18T07:14:56.000Z</time>
      </trkpt>
      <trkpt lat="43.0762719176709651947021484375" lon="-6.06678840704262256622314453125">
        <ele>1747.4000244140625</ele>
        <time>2021-08-18T07:15:01.000Z</time>
      </trkpt>
      <trkpt lat="43.07623830623924732208251953125" lon="-6.0668813623487949371337890625">
        <ele>1746.4000244140625</ele>
        <time>2021-08-18T07:15:11.000Z</time>
      </trkpt>
      <trkpt lat="43.076233528554439544677734375" lon="-6.06688932515680789947509765625">
        <ele>1746</ele>
        <time>2021-08-18T07:15:13.000Z</time>
      </trkpt>
      <trkpt lat="43.0762149207293987274169921875" lon="-6.06690692715346813201904296875">
        <ele>1746</ele>
        <time>2021-08-18T07:15:16.000Z</time>
      </trkpt>
      <trkpt lat="43.07620729319751262664794921875" lon="-6.06691430322825908660888671875">
        <ele>1746</ele>
        <time>2021-08-18T07:15:17.000Z</time>
      </trkpt>
      <trkpt lat="43.0761978216469287872314453125" lon="-6.0669547878205776214599609375">
        <ele>1745.4000244140625</ele>
        <time>2021-08-18T07:15:21.000Z</time>
      </trkpt>
      <trkpt lat="43.07615339756011962890625" lon="-6.06699644587934017181396484375">
        <ele>1745</ele>
        <time>2021-08-18T07:15:31.000Z</time>
      </trkpt>
      <trkpt lat="43.07615331374108791351318359375" lon="-6.06699912808835506439208984375">
        <ele>1745</ele>
        <time>2021-08-18T07:15:32.000Z</time>
      </trkpt>
      <trkpt lat="43.07614065706729888916015625" lon="-6.0670131258666515350341796875">
        <ele>1744.800048828125</ele>
        <time>2021-08-18T07:15:37.000Z</time>
      </trkpt>
      <trkpt lat="43.076113499701023101806640625" lon="-6.06704623438417911529541015625">
        <ele>1744.4000244140625</ele>
        <time>2021-08-18T07:15:42.000Z</time>
      </trkpt>
      <trkpt lat="43.07607117109000682830810546875" lon="-6.0670723021030426025390625">
        <ele>1744</ele>
        <time>2021-08-18T07:15:48.000Z</time>
      </trkpt>
      <trkpt lat="43.0760489590466022491455078125" lon="-6.06711052358150482177734375">
        <ele>1743.199951171875</ele>
        <time>2021-08-18T07:15:52.000Z</time>
      </trkpt>
      <trkpt lat="43.07603873312473297119140625" lon="-6.06713525019586086273193359375">
        <ele>1743</ele>
        <time>2021-08-18T07:15:54.000Z</time>
      </trkpt>
      <trkpt lat="43.0760164372622966766357421875" lon="-6.06718554161489009857177734375">
        <ele>1743.4000244140625</ele>
        <time>2021-08-18T07:15:58.000Z</time>
      </trkpt>
      <trkpt lat="43.07600126601755619049072265625" lon="-6.06721186079084873199462890625">
        <ele>1743.4000244140625</ele>
        <time>2021-08-18T07:16:00.000Z</time>
      </trkpt>
      <trkpt lat="43.0759788863360881805419921875" lon="-6.06730691157281398773193359375">
        <ele>1743.4000244140625</ele>
        <time>2021-08-18T07:16:07.000Z</time>
      </trkpt>
      <trkpt lat="43.07596287690103054046630859375" lon="-6.06736877001821994781494140625">
        <ele>1743.4000244140625</ele>
        <time>2021-08-18T07:16:12.000Z</time>
      </trkpt>
      <trkpt lat="43.07594980113208293914794921875" lon="-6.06742174364626407623291015625">
        <ele>1743.5999755859375</ele>
        <time>2021-08-18T07:16:16.000Z</time>
      </trkpt>
      <trkpt lat="43.0759413354098796844482421875" lon="-6.0674679279327392578125">
        <ele>1744</ele>
        <time>2021-08-18T07:16:20.000Z</time>
      </trkpt>
      <trkpt lat="43.07593421079218387603759765625" lon="-6.06750355102121829986572265625">
        <ele>1744</ele>
        <time>2021-08-18T07:16:23.000Z</time>
      </trkpt>
      <trkpt lat="43.075935132801532745361328125" lon="-6.06752618215978145599365234375">
        <ele>1744.199951171875</ele>
        <time>2021-08-18T07:16:25.000Z</time>
      </trkpt>
      <trkpt lat="43.0759336240589618682861328125" lon="-6.0675633139908313751220703125">
        <ele>1745</ele>
        <time>2021-08-18T07:16:28.000Z</time>
      </trkpt>
      <trkpt lat="43.07589615695178508758544921875" lon="-6.06770320795476436614990234375">
        <ele>1746.199951171875</ele>
        <time>2021-08-18T07:16:37.000Z</time>
      </trkpt>
      <trkpt lat="43.07587251998484134674072265625" lon="-6.06776095926761627197265625">
        <ele>1746.4000244140625</ele>
        <time>2021-08-18T07:16:41.000Z</time>
      </trkpt>
      <trkpt lat="43.07584854774177074432373046875" lon="-6.0678137652575969696044921875">
        <ele>1746.5999755859375</ele>
        <time>2021-08-18T07:16:45.000Z</time>
      </trkpt>
      <trkpt lat="43.07581669650971889495849609375" lon="-6.06787688098847866058349609375">
        <ele>1747.199951171875</ele>
        <time>2021-08-18T07:16:50.000Z</time>
      </trkpt>
      <trkpt lat="43.07580672204494476318359375" lon="-6.06789900921285152435302734375">
        <ele>1747.199951171875</ele>
        <time>2021-08-18T07:16:52.000Z</time>
      </trkpt>
      <trkpt lat="43.07579389773309230804443359375" lon="-6.06792298145592212677001953125">
        <ele>1747.4000244140625</ele>
        <time>2021-08-18T07:16:54.000Z</time>
      </trkpt>
      <trkpt lat="43.075777553021907806396484375" lon="-6.0679586045444011688232421875">
        <ele>1747.5999755859375</ele>
        <time>2021-08-18T07:16:57.000Z</time>
      </trkpt>
      <trkpt lat="43.0757619626820087432861328125" lon="-6.06799439527094364166259765625">
        <ele>1748</ele>
        <time>2021-08-18T07:17:00.000Z</time>
      </trkpt>
      <trkpt lat="43.07573187164962291717529296875" lon="-6.0680357180535793304443359375">
        <ele>1748.199951171875</ele>
        <time>2021-08-18T07:17:04.000Z</time>
      </trkpt>
      <trkpt lat="43.0757136829197406768798828125" lon="-6.06805373914539813995361328125">
        <ele>1748.4000244140625</ele>
        <time>2021-08-18T07:17:06.000Z</time>
      </trkpt>
      <trkpt lat="43.07567051611840724945068359375" lon="-6.06810805387794971466064453125">
        <ele>1748.5999755859375</ele>
        <time>2021-08-18T07:17:11.000Z</time>
      </trkpt>
      <trkpt lat="43.07561821304261684417724609375" lon="-6.06817133724689483642578125">
        <ele>1749.4000244140625</ele>
        <time>2021-08-18T07:17:17.000Z</time>
      </trkpt>
      <trkpt lat="43.075587451457977294921875" lon="-6.06821785680949687957763671875">
        <ele>1749.800048828125</ele>
        <time>2021-08-18T07:17:21.000Z</time>
      </trkpt>
      <trkpt lat="43.0755244195461273193359375" lon="-6.06829932890832424163818359375">
        <ele>1750.4000244140625</ele>
        <time>2021-08-18T07:17:29.000Z</time>
      </trkpt>
      <trkpt lat="43.07547278702259063720703125" lon="-6.06835934333503246307373046875">
        <ele>1750.800048828125</ele>
        <time>2021-08-18T07:17:35.000Z</time>
      </trkpt>
      <trkpt lat="43.0753599666059017181396484375" lon="-6.06845456175506114959716796875">
        <ele>1750.5999755859375</ele>
        <time>2021-08-18T07:17:46.000Z</time>
      </trkpt>
      <trkpt lat="43.0752908997237682342529296875" lon="-6.06848322786390781402587890625">
        <ele>1751</ele>
        <time>2021-08-18T07:17:52.000Z</time>
      </trkpt>
      <trkpt lat="43.07526047341525554656982421875" lon="-6.0685030929744243621826171875">
        <ele>1751</ele>
        <time>2021-08-18T07:17:55.000Z</time>
      </trkpt>
      <trkpt lat="43.07524387724697589874267578125" lon="-6.06850736774504184722900390625">
        <ele>1751</ele>
        <time>2021-08-18T07:17:57.000Z</time>
      </trkpt>
      <trkpt lat="43.07519107125699520111083984375" lon="-6.06851373799145221710205078125">
        <ele>1751</ele>
        <time>2021-08-18T07:18:02.000Z</time>
      </trkpt>
      <trkpt lat="43.0751541070640087127685546875" lon="-6.06852446682751178741455078125">
        <ele>1750.800048828125</ele>
        <time>2021-08-18T07:18:05.000Z</time>
      </trkpt>
      <trkpt lat="43.0750974453985691070556640625" lon="-6.068551875650882720947265625">
        <ele>1751.199951171875</ele>
        <time>2021-08-18T07:18:10.000Z</time>
      </trkpt>
      <trkpt lat="43.07505629025399684906005859375" lon="-6.06856654398143291473388671875">
        <ele>1751</ele>
        <time>2021-08-18T07:18:14.000Z</time>
      </trkpt>
      <trkpt lat="43.07501102797687053680419921875" lon="-6.0685828886926174163818359375">
        <ele>1750.800048828125</ele>
        <time>2021-08-18T07:18:19.000Z</time>
      </trkpt>
      <trkpt lat="43.07499342598021030426025390625" lon="-6.068583391606807708740234375">
        <ele>1750.800048828125</ele>
        <time>2021-08-18T07:18:21.000Z</time>
      </trkpt>
      <trkpt lat="43.07496693916618824005126953125" lon="-6.068582050502300262451171875">
        <ele>1750.5999755859375</ele>
        <time>2021-08-18T07:18:24.000Z</time>
      </trkpt>
      <trkpt lat="43.07492134161293506622314453125" lon="-6.06856218539178371429443359375">
        <ele>1750.4000244140625</ele>
        <time>2021-08-18T07:18:29.000Z</time>
      </trkpt>
      <trkpt lat="43.07482159696519374847412109375" lon="-6.06855246238410472869873046875">
        <ele>1749.4000244140625</ele>
        <time>2021-08-18T07:18:39.000Z</time>
      </trkpt>
      <trkpt lat="43.07477382011711597442626953125" lon="-6.06856771744787693023681640625">
        <ele>1750.4000244140625</ele>
        <time>2021-08-18T07:18:47.000Z</time>
      </trkpt>
      <trkpt lat="43.0747584812343120574951171875" lon="-6.06856922619044780731201171875">
        <ele>1750.800048828125</ele>
        <time>2021-08-18T07:18:49.000Z</time>
      </trkpt>
      <trkpt lat="43.07473174296319484710693359375" lon="-6.068565957248210906982421875">
        <ele>1751.199951171875</ele>
        <time>2021-08-18T07:18:52.000Z</time>
      </trkpt>
      <trkpt lat="43.07470433413982391357421875" lon="-6.0685802064836025238037109375">
        <ele>1751.5999755859375</ele>
        <time>2021-08-18T07:18:57.000Z</time>
      </trkpt>
      <trkpt lat="43.07470290921628475189208984375" lon="-6.06859135441482067108154296875">
        <ele>1752</ele>
        <time>2021-08-18T07:19:00.000Z</time>
      </trkpt>
      <trkpt lat="43.0746974609792232513427734375" lon="-6.0685936175286769866943359375">
        <ele>1752.5999755859375</ele>
        <time>2021-08-18T07:19:07.000Z</time>
      </trkpt>
      <trkpt lat="43.0746887437999248504638671875" lon="-6.068596802651882171630859375">
        <ele>1752.5999755859375</ele>
        <time>2021-08-18T07:19:08.000Z</time>
      </trkpt>
      <trkpt lat="43.0746726505458354949951171875" lon="-6.06860677711665630340576171875">
        <ele>1752.800048828125</ele>
        <time>2021-08-18T07:19:10.000Z</time>
      </trkpt>
      <trkpt lat="43.07465144433081150054931640625" lon="-6.06862504966557025909423828125">
        <ele>1752.800048828125</ele>
        <time>2021-08-18T07:19:13.000Z</time>
      </trkpt>
      <trkpt lat="43.074621520936489105224609375" lon="-6.06863359920680522918701171875">
        <ele>1752.800048828125</ele>
        <time>2021-08-18T07:19:17.000Z</time>
      </trkpt>
      <trkpt lat="43.07458690367639064788818359375" lon="-6.06863410212099552154541015625">
        <ele>1753.4000244140625</ele>
        <time>2021-08-18T07:19:22.000Z</time>
      </trkpt>
      <trkpt lat="43.07458103634417057037353515625" lon="-6.06863812543451786041259765625">
        <ele>1753.5999755859375</ele>
        <time>2021-08-18T07:19:23.000Z</time>
      </trkpt>
      <trkpt lat="43.07457466609776020050048828125" lon="-6.068643741309642791748046875">
        <ele>1753.5999755859375</ele>
        <time>2021-08-18T07:19:24.000Z</time>
      </trkpt>
      <trkpt lat="43.0745603330433368682861328125" lon="-6.06871373020112514495849609375">
        <ele>1754.5999755859375</ele>
        <time>2021-08-18T07:19:30.000Z</time>
      </trkpt>
      <trkpt lat="43.074553124606609344482421875" lon="-6.06873166747391223907470703125">
        <ele>1754.800048828125</ele>
        <time>2021-08-18T07:19:32.000Z</time>
      </trkpt>
      <trkpt lat="43.0745485983788967132568359375" lon="-6.06875731609761714935302734375">
        <ele>1755</ele>
        <time>2021-08-18T07:19:34.000Z</time>
      </trkpt>
      <trkpt lat="43.07454030029475688934326171875" lon="-6.068802662193775177001953125">
        <ele>1755.5999755859375</ele>
        <time>2021-08-18T07:19:39.000Z</time>
      </trkpt>
      <trkpt lat="43.074531666934490203857421875" lon="-6.06883141212165355682373046875">
        <ele>1755.800048828125</ele>
        <time>2021-08-18T07:19:42.000Z</time>
      </trkpt>
      <trkpt lat="43.07452688924968242645263671875" lon="-6.06884264387190341949462890625">
        <ele>1755.800048828125</ele>
        <time>2021-08-18T07:19:43.000Z</time>
      </trkpt>
      <trkpt lat="43.07451264001429080963134765625" lon="-6.06890869326889514923095703125">
        <ele>1755.199951171875</ele>
        <time>2021-08-18T07:19:49.000Z</time>
      </trkpt>
      <trkpt lat="43.0745105445384979248046875" lon="-6.068927384912967681884765625">
        <ele>1755.199951171875</ele>
        <time>2021-08-18T07:19:50.000Z</time>
      </trkpt>
      <trkpt lat="43.07450207881629467010498046875" lon="-6.06895663775503635406494140625">
        <ele>1755</ele>
        <time>2021-08-18T07:19:52.000Z</time>
      </trkpt>
      <trkpt lat="43.07450115680694580078125" lon="-6.06897407211363315582275390625">
        <ele>1754.800048828125</ele>
        <time>2021-08-18T07:19:53.000Z</time>
      </trkpt>
      <trkpt lat="43.07449889369308948516845703125" lon="-6.068988405168056488037109375">
        <ele>1754.5999755859375</ele>
        <time>2021-08-18T07:19:54.000Z</time>
      </trkpt>
      <trkpt lat="43.0744973011314868927001953125" lon="-6.06901078484952449798583984375">
        <ele>1754.199951171875</ele>
        <time>2021-08-18T07:19:56.000Z</time>
      </trkpt>
      <trkpt lat="43.07449587620794773101806640625" lon="-6.06903023086488246917724609375">
        <ele>1754.199951171875</ele>
        <time>2021-08-18T07:19:58.000Z</time>
      </trkpt>
      <trkpt lat="43.0744875781238079071044921875" lon="-6.0690744034945964813232421875">
        <ele>1754.199951171875</ele>
        <time>2021-08-18T07:20:03.000Z</time>
      </trkpt>
      <trkpt lat="43.07449436746537685394287109375" lon="-6.069105081260204315185546875">
        <ele>1754.199951171875</ele>
        <time>2021-08-18T07:20:06.000Z</time>
      </trkpt>
      <trkpt lat="43.0744962953031063079833984375" lon="-6.06911673210561275482177734375">
        <ele>1754.4000244140625</ele>
        <time>2021-08-18T07:20:07.000Z</time>
      </trkpt>
      <trkpt lat="43.0745006538927555084228515625" lon="-6.0691267065703868865966796875">
        <ele>1754.5999755859375</ele>
        <time>2021-08-18T07:20:08.000Z</time>
      </trkpt>
      <trkpt lat="43.074514232575893402099609375" lon="-6.0691753216087818145751953125">
        <ele>1755.199951171875</ele>
        <time>2021-08-18T07:20:12.000Z</time>
      </trkpt>
      <trkpt lat="43.07453543879091739654541015625" lon="-6.06923223473131656646728515625">
        <ele>1755.4000244140625</ele>
        <time>2021-08-18T07:20:17.000Z</time>
      </trkpt>
      <trkpt lat="43.07453325949609279632568359375" lon="-6.0693107731640338897705078125">
        <ele>1755.5999755859375</ele>
        <time>2021-08-18T07:20:23.000Z</time>
      </trkpt>
      <trkpt lat="43.0745392106473445892333984375" lon="-6.0693816840648651123046875">
        <ele>1755.4000244140625</ele>
        <time>2021-08-18T07:20:28.000Z</time>
      </trkpt>
      <trkpt lat="43.0745641887187957763671875" lon="-6.06945837847888469696044921875">
        <ele>1755.800048828125</ele>
        <time>2021-08-18T07:20:35.000Z</time>
      </trkpt>
      <trkpt lat="43.07456226088106632232666015625" lon="-6.06951436959207057952880859375">
        <ele>1756.5999755859375</ele>
        <time>2021-08-18T07:20:39.000Z</time>
      </trkpt>
      <trkpt lat="43.07452571578323841094970703125" lon="-6.06959500350058078765869140625">
        <ele>1756.800048828125</ele>
        <time>2021-08-18T07:20:43.000Z</time>
      </trkpt>
      <trkpt lat="43.07451096363365650177001953125" lon="-6.06969089247286319732666015625">
        <ele>1756.800048828125</ele>
        <time>2021-08-18T07:20:50.000Z</time>
      </trkpt>
      <trkpt lat="43.0745231173932552337646484375" lon="-6.0697288624942302703857421875">
        <ele>1757</ele>
        <time>2021-08-18T07:20:54.000Z</time>
      </trkpt>
      <trkpt lat="43.07454700581729412078857421875" lon="-6.06980002485215663909912109375">
        <ele>1757.4000244140625</ele>
        <time>2021-08-18T07:21:01.000Z</time>
      </trkpt>
      <trkpt lat="43.0745656974613666534423828125" lon="-6.069857776165008544921875">
        <ele>1757.800048828125</ele>
        <time>2021-08-18T07:21:06.000Z</time>
      </trkpt>
      <trkpt lat="43.07458707131445407867431640625" lon="-6.06994687579572200775146484375">
        <ele>1757.800048828125</ele>
        <time>2021-08-18T07:21:14.000Z</time>
      </trkpt>
      <trkpt lat="43.0745888315141201019287109375" lon="-6.06997487135231494903564453125">
        <ele>1758</ele>
        <time>2021-08-18T07:21:16.000Z</time>
      </trkpt>
      <trkpt lat="43.0746071040630340576171875" lon="-6.07012138701975345611572265625">
        <ele>1759.199951171875</ele>
        <time>2021-08-18T07:21:27.000Z</time>
      </trkpt>
      <trkpt lat="43.074610792100429534912109375" lon="-6.07013144530355930328369140625">
        <ele>1759.4000244140625</ele>
        <time>2021-08-18T07:21:28.000Z</time>
      </trkpt>
      <trkpt lat="43.07460844516754150390625" lon="-6.0701648890972137451171875">
        <ele>1759.800048828125</ele>
        <time>2021-08-18T07:21:31.000Z</time>
      </trkpt>
      <trkpt lat="43.0746136419475078582763671875" lon="-6.07019514776766300201416015625">
        <ele>1760.199951171875</ele>
        <time>2021-08-18T07:21:34.000Z</time>
      </trkpt>
      <trkpt lat="43.074617497622966766357421875" lon="-6.0702059604227542877197265625">
        <ele>1760.4000244140625</ele>
        <time>2021-08-18T07:21:35.000Z</time>
      </trkpt>
      <trkpt lat="43.07461976073682308197021484375" lon="-6.07024258933961391448974609375">
        <ele>1760.800048828125</ele>
        <time>2021-08-18T07:21:38.000Z</time>
      </trkpt>
      <trkpt lat="43.074598722159862518310546875" lon="-6.07027796097099781036376953125">
        <ele>1760.800048828125</ele>
        <time>2021-08-18T07:21:41.000Z</time>
      </trkpt>
      <trkpt lat="43.07458036579191684722900390625" lon="-6.07030428014695644378662109375">
        <ele>1761.4000244140625</ele>
        <time>2021-08-18T07:21:44.000Z</time>
      </trkpt>
      <trkpt lat="43.07457651011645793914794921875" lon="-6.07031618244946002960205078125">
        <ele>1761.5999755859375</ele>
        <time>2021-08-18T07:21:46.000Z</time>
      </trkpt>
      <trkpt lat="43.07456108741462230682373046875" lon="-6.070353649556636810302734375">
        <ele>1762.5999755859375</ele>
        <time>2021-08-18T07:21:50.000Z</time>
      </trkpt>
      <trkpt lat="43.074553124606609344482421875" lon="-6.07039011083543300628662109375">
        <ele>1763.800048828125</ele>
        <time>2021-08-18T07:21:54.000Z</time>
      </trkpt>
      <trkpt lat="43.07455253787338733673095703125" lon="-6.070415675640106201171875">
        <ele>1764.800048828125</ele>
        <time>2021-08-18T07:21:57.000Z</time>
      </trkpt>
      <trkpt lat="43.0745556391775608062744140625" lon="-6.07041877694427967071533203125">
        <ele>1765</ele>
        <time>2021-08-18T07:21:58.000Z</time>
      </trkpt>
      <trkpt lat="43.074555806815624237060546875" lon="-6.07042280025780200958251953125">
        <ele>1765</ele>
        <time>2021-08-18T07:21:59.000Z</time>
      </trkpt>
      <trkpt lat="43.07454918511211872100830078125" lon="-6.0704218782484531402587890625">
        <ele>1765.199951171875</ele>
        <time>2021-08-18T07:22:08.000Z</time>
      </trkpt>
      <trkpt lat="43.07454700581729412078857421875" lon="-6.07041944749653339385986328125">
        <ele>1765</ele>
        <time>2021-08-18T07:22:10.000Z</time>
      </trkpt>
      <trkpt lat="43.07454206049442291259765625" lon="-6.0704134963452816009521484375">
        <ele>1765</ele>
        <time>2021-08-18T07:22:12.000Z</time>
      </trkpt>
      <trkpt lat="43.0745355226099491119384765625" lon="-6.07041156850755214691162109375">
        <ele>1765.199951171875</ele>
        <time>2021-08-18T07:22:15.000Z</time>
      </trkpt>
      <trkpt lat="43.074519932270050048828125" lon="-6.07041441835463047027587890625">
        <ele>1766</ele>
        <time>2021-08-18T07:22:19.000Z</time>
      </trkpt>
      <trkpt lat="43.074514567852020263671875" lon="-6.07041475363075733184814453125">
        <ele>1766.4000244140625</ele>
        <time>2021-08-18T07:22:21.000Z</time>
      </trkpt>
      <trkpt lat="43.07451196946203708648681640625" lon="-6.07041307725012302398681640625">
        <ele>1766.5999755859375</ele>
        <time>2021-08-18T07:22:22.000Z</time>
      </trkpt>
      <trkpt lat="43.07450979016721248626708984375" lon="-6.07041223905980587005615234375">
        <ele>1767</ele>
        <time>2021-08-18T07:22:23.000Z</time>
      </trkpt>
      <trkpt lat="43.07450643740594387054443359375" lon="-6.0704138316214084625244140625">
        <ele>1767.4000244140625</ele>
        <time>2021-08-18T07:22:24.000Z</time>
      </trkpt>
      <trkpt lat="43.07449369691312313079833984375" lon="-6.0704654641449451446533203125">
        <ele>1768.4000244140625</ele>
        <time>2021-08-18T07:22:29.000Z</time>
      </trkpt>
      <trkpt lat="43.07447944767773151397705078125" lon="-6.0705135762691497802734375">
        <ele>1769.199951171875</ele>
        <time>2021-08-18T07:22:34.000Z</time>
      </trkpt>
      <trkpt lat="43.0744755081832408905029296875" lon="-6.07053168118000030517578125">
        <ele>1769.5999755859375</ele>
        <time>2021-08-18T07:22:36.000Z</time>
      </trkpt>
      <trkpt lat="43.07447508908808231353759765625" lon="-6.07055909000337123870849609375">
        <ele>1770.5999755859375</ele>
        <time>2021-08-18T07:22:39.000Z</time>
      </trkpt>
      <trkpt lat="43.074474334716796875" lon="-6.07058222405612468719482421875">
        <ele>1771.5999755859375</ele>
        <time>2021-08-18T07:22:43.000Z</time>
      </trkpt>
      <trkpt lat="43.07447475381195545196533203125" lon="-6.070589683949947357177734375">
        <ele>1771.5999755859375</ele>
        <time>2021-08-18T07:22:45.000Z</time>
      </trkpt>
      <trkpt lat="43.0744783580303192138671875" lon="-6.07059060595929622650146484375">
        <ele>1771.800048828125</ele>
        <time>2021-08-18T07:22:47.000Z</time>
      </trkpt>
      <trkpt lat="43.0744677968323230743408203125" lon="-6.07058859430253505706787109375">
        <ele>1771.800048828125</ele>
        <time>2021-08-18T07:22:54.000Z</time>
      </trkpt>
      <trkpt lat="43.07446519844233989715576171875" lon="-6.0705859959125518798828125">
        <ele>1771.800048828125</ele>
        <time>2021-08-18T07:22:56.000Z</time>
      </trkpt>
      <trkpt lat="43.07446033693850040435791015625" lon="-6.07057920657098293304443359375">
        <ele>1771.800048828125</ele>
        <time>2021-08-18T07:22:59.000Z</time>
      </trkpt>
      <trkpt lat="43.07445824146270751953125" lon="-6.0705727525055408477783203125">
        <ele>1771.800048828125</ele>
        <time>2021-08-18T07:23:01.000Z</time>
      </trkpt>
      <trkpt lat="43.0744560621678829193115234375" lon="-6.070566885173320770263671875">
        <ele>1771.800048828125</ele>
        <time>2021-08-18T07:23:03.000Z</time>
      </trkpt>
      <trkpt lat="43.07450585067272186279296875" lon="-6.0706035979092121124267578125">
        <ele>1771.800048828125</ele>
        <time>2021-08-18T07:23:05.000Z</time>
      </trkpt>
      <trkpt lat="43.074518255889415740966796875" lon="-6.0705901868641376495361328125">
        <ele>1771.800048828125</ele>
        <time>2021-08-18T07:23:09.000Z</time>
      </trkpt>
      <trkpt lat="43.07450492866337299346923828125" lon="-6.0705871693789958953857421875">
        <ele>1771.800048828125</ele>
        <time>2021-08-18T07:23:13.000Z</time>
      </trkpt>
      <trkpt lat="43.074508197605609893798828125" lon="-6.07058071531355381011962890625">
        <ele>1771.5999755859375</ele>
        <time>2021-08-18T07:23:17.000Z</time>
      </trkpt>
      <trkpt lat="43.0745105445384979248046875" lon="-6.070576943457126617431640625">
        <ele>1771.5999755859375</ele>
        <time>2021-08-18T07:23:19.000Z</time>
      </trkpt>
      <trkpt lat="43.07451213710010051727294921875" lon="-6.07056462205946445465087890625">
        <ele>1771.4000244140625</ele>
        <time>2021-08-18T07:23:22.000Z</time>
      </trkpt>
      <trkpt lat="43.07443150319159030914306640625" lon="-6.070574261248111724853515625">
        <ele>1771.800048828125</ele>
        <time>2021-08-18T07:23:25.000Z</time>
      </trkpt>
      <trkpt lat="43.0743953771889209747314453125" lon="-6.0705821402370929718017578125">
        <ele>1772.800048828125</ele>
        <time>2021-08-18T07:23:29.000Z</time>
      </trkpt>
      <trkpt lat="43.07437115348875522613525390625" lon="-6.0705888457596302032470703125">
        <ele>1773</ele>
        <time>2021-08-18T07:23:33.000Z</time>
      </trkpt>
      <trkpt lat="43.0743460915982723236083984375" lon="-6.07058130204677581787109375">
        <ele>1773.800048828125</ele>
        <time>2021-08-18T07:23:38.000Z</time>
      </trkpt>
      <trkpt lat="43.07433175854384899139404296875" lon="-6.07058524154126644134521484375">
        <ele>1774.4000244140625</ele>
        <time>2021-08-18T07:23:41.000Z</time>
      </trkpt>
      <trkpt lat="43.0743149109184741973876953125" lon="-6.07059043832123279571533203125">
        <ele>1775</ele>
        <time>2021-08-18T07:23:45.000Z</time>
      </trkpt>
      <trkpt lat="43.07430208660662174224853515625" lon="-6.0705921985208988189697265625">
        <ele>1775.5999755859375</ele>
        <time>2021-08-18T07:23:47.000Z</time>
      </trkpt>
      <trkpt lat="43.074282221496105194091796875" lon="-6.07060904614627361297607421875">
        <ele>1776</ele>
        <time>2021-08-18T07:23:50.000Z</time>
      </trkpt>
      <trkpt lat="43.0742622725665569305419921875" lon="-6.0706237144768238067626953125">
        <ele>1776.5999755859375</ele>
        <time>2021-08-18T07:23:53.000Z</time>
      </trkpt>
      <trkpt lat="43.07425682432949542999267578125" lon="-6.07062513940036296844482421875">
        <ele>1776.5999755859375</ele>
        <time>2021-08-18T07:23:54.000Z</time>
      </trkpt>
      <trkpt lat="43.0742525495588779449462890625" lon="-6.07062580995261669158935546875">
        <ele>1776.800048828125</ele>
        <time>2021-08-18T07:23:55.000Z</time>
      </trkpt>
      <trkpt lat="43.0742485262453556060791015625" lon="-6.0706277377903461456298828125">
        <ele>1777.199951171875</ele>
        <time>2021-08-18T07:23:56.000Z</time>
      </trkpt>
      <trkpt lat="43.0742394737899303436279296875" lon="-6.070627905428409576416015625">
        <ele>1777.5999755859375</ele>
        <time>2021-08-18T07:23:58.000Z</time>
      </trkpt>
      <trkpt lat="43.074211813509464263916015625" lon="-6.070646345615386962890625">
        <ele>1778</ele>
        <time>2021-08-18T07:24:03.000Z</time>
      </trkpt>
      <trkpt lat="43.07420812547206878662109375" lon="-6.0706498660147190093994140625">
        <ele>1778.199951171875</ele>
        <time>2021-08-18T07:24:04.000Z</time>
      </trkpt>
      <trkpt lat="43.07419731281697750091552734375" lon="-6.070661433041095733642578125">
        <ele>1778.4000244140625</ele>
        <time>2021-08-18T07:24:06.000Z</time>
      </trkpt>
      <trkpt lat="43.0741797946393489837646484375" lon="-6.0706745088100433349609375">
        <ele>1778.5999755859375</ele>
        <time>2021-08-18T07:24:09.000Z</time>
      </trkpt>
      <trkpt lat="43.074174262583255767822265625" lon="-6.07067660428583621978759765625">
        <ele>1778.4000244140625</ele>
        <time>2021-08-18T07:24:10.000Z</time>
      </trkpt>
      <trkpt lat="43.07414400391280651092529296875" lon="-6.0707145743072032928466796875">
        <ele>1777.5999755859375</ele>
        <time>2021-08-18T07:24:17.000Z</time>
      </trkpt>
      <trkpt lat="43.074141405522823333740234375" lon="-6.07073427177965641021728515625">
        <ele>1777</ele>
        <time>2021-08-18T07:24:20.000Z</time>
      </trkpt>
      <trkpt lat="43.07411349378526210784912109375" lon="-6.07079495675861835479736328125">
        <ele>1776</ele>
        <time>2021-08-18T07:24:26.000Z</time>
      </trkpt>
      <trkpt lat="43.074099831283092498779296875" lon="-6.0708278976380825042724609375">
        <ele>1775.5999755859375</ele>
        <time>2021-08-18T07:24:29.000Z</time>
      </trkpt>
      <trkpt lat="43.074095807969570159912109375" lon="-6.07083636336028575897216796875">
        <ele>1775.5999755859375</ele>
        <time>2021-08-18T07:24:30.000Z</time>
      </trkpt>
      <trkpt lat="43.07408935390412807464599609375" lon="-6.0708550550043582916259765625">
        <ele>1775.5999755859375</ele>
        <time>2021-08-18T07:24:32.000Z</time>
      </trkpt>
      <trkpt lat="43.074085414409637451171875" lon="-6.0708661191165447235107421875">
        <ele>1775.5999755859375</ele>
        <time>2021-08-18T07:24:33.000Z</time>
      </trkpt>
      <trkpt lat="43.0740718357264995574951171875" lon="-6.07089302502572536468505859375">
        <ele>1776.4000244140625</ele>
        <time>2021-08-18T07:24:37.000Z</time>
      </trkpt>
      <trkpt lat="43.0740671418607234954833984375" lon="-6.07092621736228466033935546875">
        <ele>1777</ele>
        <time>2021-08-18T07:24:42.000Z</time>
      </trkpt>
      <trkpt lat="43.07406839914619922637939453125" lon="-6.070935688912868499755859375">
        <ele>1777</ele>
        <time>2021-08-18T07:24:43.000Z</time>
      </trkpt>
      <trkpt lat="43.0740671418607234954833984375" lon="-6.0709469206631183624267578125">
        <ele>1777</ele>
        <time>2021-08-18T07:24:44.000Z</time>
      </trkpt>
      <trkpt lat="43.07405834086239337921142578125" lon="-6.07097516767680644989013671875">
        <ele>1777</ele>
        <time>2021-08-18T07:24:47.000Z</time>
      </trkpt>
      <trkpt lat="43.0740493722259998321533203125" lon="-6.07099863700568675994873046875">
        <ele>1777</ele>
        <time>2021-08-18T07:24:50.000Z</time>
      </trkpt>
      <trkpt lat="43.0740322731435298919677734375" lon="-6.07104691676795482635498046875">
        <ele>1777.5999755859375</ele>
        <time>2021-08-18T07:24:57.000Z</time>
      </trkpt>
      <trkpt lat="43.07400830090045928955078125" lon="-6.07112252153456211090087890625">
        <ele>1778.199951171875</ele>
        <time>2021-08-18T07:25:05.000Z</time>
      </trkpt>
      <trkpt lat="43.07399631477892398834228515625" lon="-6.07117063365876674652099609375">
        <ele>1778.800048828125</ele>
        <time>2021-08-18T07:25:10.000Z</time>
      </trkpt>
      <trkpt lat="43.0739746056497097015380859375" lon="-6.0711921751499176025390625">
        <ele>1778.800048828125</ele>
        <time>2021-08-18T07:25:13.000Z</time>
      </trkpt>
      <trkpt lat="43.073967397212982177734375" lon="-6.07119745574891567230224609375">
        <ele>1778.800048828125</ele>
        <time>2021-08-18T07:25:14.000Z</time>
      </trkpt>
      <trkpt lat="43.07395708747208118438720703125" lon="-6.071202568709850311279296875">
        <ele>1779.4000244140625</ele>
        <time>2021-08-18T07:25:16.000Z</time>
      </trkpt>
      <trkpt lat="43.07394635863602161407470703125" lon="-6.07121237553656101226806640625">
        <ele>1780</ele>
        <time>2021-08-18T07:25:18.000Z</time>
      </trkpt>
      <trkpt lat="43.07393713854253292083740234375" lon="-6.07121891342103481292724609375">
        <ele>1780.5999755859375</ele>
        <time>2021-08-18T07:25:20.000Z</time>
      </trkpt>
      <trkpt lat="43.0739280022680759429931640625" lon="-6.071225702762603759765625">
        <ele>1781</ele>
        <time>2021-08-18T07:25:22.000Z</time>
      </trkpt>
      <trkpt lat="43.073924481868743896484375" lon="-6.07123039662837982177734375">
        <ele>1781.5999755859375</ele>
        <time>2021-08-18T07:25:24.000Z</time>
      </trkpt>
      <trkpt lat="43.07392221875488758087158203125" lon="-6.0712342523038387298583984375">
        <ele>1781.800048828125</ele>
        <time>2021-08-18T07:25:25.000Z</time>
      </trkpt>
      <trkpt lat="43.07392087765038013458251953125" lon="-6.0712379403412342071533203125">
        <ele>1782</ele>
        <time>2021-08-18T07:25:26.000Z</time>
      </trkpt>
      <trkpt lat="43.0739057064056396484375" lon="-6.07124875299632549285888671875">
        <ele>1782.4000244140625</ele>
        <time>2021-08-18T07:25:29.000Z</time>
      </trkpt>
      <trkpt lat="43.07389975525438785552978515625" lon="-6.07125378213822841644287109375">
        <ele>1782.5999755859375</ele>
        <time>2021-08-18T07:25:30.000Z</time>
      </trkpt>
      <trkpt lat="43.073894977569580078125" lon="-6.07125847600400447845458984375">
        <ele>1782.800048828125</ele>
        <time>2021-08-18T07:25:31.000Z</time>
      </trkpt>
      <trkpt lat="43.0738901160657405853271484375" lon="-6.07126400806009769439697265625">
        <ele>1783</ele>
        <time>2021-08-18T07:25:32.000Z</time>
      </trkpt>
      <trkpt lat="43.0738756991922855377197265625" lon="-6.07127725146710872650146484375">
        <ele>1783.5999755859375</ele>
        <time>2021-08-18T07:25:35.000Z</time>
      </trkpt>
      <trkpt lat="43.07386773638427257537841796875" lon="-6.07128395698964595794677734375">
        <ele>1784.199951171875</ele>
        <time>2021-08-18T07:25:37.000Z</time>
      </trkpt>
      <trkpt lat="43.07386555708944797515869140625" lon="-6.07128697447478771209716796875">
        <ele>1784.5999755859375</ele>
        <time>2021-08-18T07:25:41.000Z</time>
      </trkpt>
      <trkpt lat="43.073861114680767059326171875" lon="-6.071287058293819427490234375">
        <ele>1784.800048828125</ele>
        <time>2021-08-18T07:25:43.000Z</time>
      </trkpt>
      <trkpt lat="43.0738579295575618743896484375" lon="-6.07128965668380260467529296875">
        <ele>1784.800048828125</ele>
        <time>2021-08-18T07:25:44.000Z</time>
      </trkpt>
      <trkpt lat="43.073851726949214935302734375" lon="-6.071289740502834320068359375">
        <ele>1785.199951171875</ele>
        <time>2021-08-18T07:25:46.000Z</time>
      </trkpt>
      <trkpt lat="43.07383689098060131072998046875" lon="-6.07128295116126537322998046875">
        <ele>1785.800048828125</ele>
        <time>2021-08-18T07:25:50.000Z</time>
      </trkpt>
      <trkpt lat="43.0738317780196666717529296875" lon="-6.0712805204093456268310546875">
        <ele>1786.199951171875</ele>
        <time>2021-08-18T07:25:52.000Z</time>
      </trkpt>
      <trkpt lat="43.0738274194300174713134765625" lon="-6.07126954011619091033935546875">
        <ele>1786.5999755859375</ele>
        <time>2021-08-18T07:25:54.000Z</time>
      </trkpt>
      <trkpt lat="43.0738240666687488555908203125" lon="-6.071263253688812255859375">
        <ele>1786.800048828125</ele>
        <time>2021-08-18T07:25:55.000Z</time>
      </trkpt>
      <trkpt lat="43.07381191290915012359619140625" lon="-6.07125721871852874755859375">
        <ele>1787.199951171875</ele>
        <time>2021-08-18T07:25:57.000Z</time>
      </trkpt>
      <trkpt lat="43.07379045523703098297119140625" lon="-6.07125931419432163238525390625">
        <ele>1787.800048828125</ele>
        <time>2021-08-18T07:26:02.000Z</time>
      </trkpt>
      <trkpt lat="43.0737881921231746673583984375" lon="-6.07126803137362003326416015625">
        <ele>1788</ele>
        <time>2021-08-18T07:26:04.000Z</time>
      </trkpt>
      <trkpt lat="43.07378240860998630523681640625" lon="-6.07127289287745952606201171875">
        <ele>1789</ele>
        <time>2021-08-18T07:26:07.000Z</time>
      </trkpt>
      <trkpt lat="43.0737777985632419586181640625" lon="-6.07127356342971324920654296875">
        <ele>1789.199951171875</ele>
        <time>2021-08-18T07:26:08.000Z</time>
      </trkpt>
      <trkpt lat="43.0737610347568988800048828125" lon="-6.07127423398196697235107421875">
        <ele>1790.199951171875</ele>
        <time>2021-08-18T07:26:13.000Z</time>
      </trkpt>
      <trkpt lat="43.0737459473311901092529296875" lon="-6.0712828673422336578369140625">
        <ele>1790.800048828125</ele>
        <time>2021-08-18T07:26:18.000Z</time>
      </trkpt>
      <trkpt lat="43.07373999617993831634521484375" lon="-6.0713048279285430908203125">
        <ele>1791.5999755859375</ele>
        <time>2021-08-18T07:26:22.000Z</time>
      </trkpt>
      <trkpt lat="43.073717616498470306396484375" lon="-6.071354784071445465087890625">
        <ele>1792.5999755859375</ele>
        <time>2021-08-18T07:26:35.000Z</time>
      </trkpt>
      <trkpt lat="43.07372055016458034515380859375" lon="-6.0713147185742855072021484375">
        <ele>1792.5999755859375</ele>
        <time>2021-08-18T07:26:37.000Z</time>
      </trkpt>
      <trkpt lat="43.0737385712563991546630859375" lon="-6.07130960561335086822509765625">
        <ele>1792.800048828125</ele>
        <time>2021-08-18T07:26:39.000Z</time>
      </trkpt>
      <trkpt lat="43.0737308599054813385009765625" lon="-6.07131396420300006866455078125">
        <ele>1792.5999755859375</ele>
        <time>2021-08-18T07:26:44.000Z</time>
      </trkpt>
      <trkpt lat="43.07373194955289363861083984375" lon="-6.07131597585976123809814453125">
        <ele>1792.5999755859375</ele>
        <time>2021-08-18T07:26:49.000Z</time>
      </trkpt>
      <trkpt lat="43.07373111136257648468017578125" lon="-6.071315892040729522705078125">
        <ele>1792.4000244140625</ele>
        <time>2021-08-18T07:26:51.000Z</time>
      </trkpt>
      <trkpt lat="43.0737301893532276153564453125" lon="-6.07131547294557094573974609375">
        <ele>1792.4000244140625</ele>
        <time>2021-08-18T07:26:53.000Z</time>
      </trkpt>
      <trkpt lat="43.07372977025806903839111328125" lon="-6.0713157244026660919189453125">
        <ele>1792.199951171875</ele>
        <time>2021-08-18T07:26:55.000Z</time>
      </trkpt>
      <trkpt lat="43.0737288482487201690673828125" lon="-6.07131622731685638427734375">
        <ele>1792.4000244140625</ele>
        <time>2021-08-18T07:26:58.000Z</time>
      </trkpt>
      <trkpt lat="43.07372893206775188446044921875" lon="-6.07131622731685638427734375">
        <ele>1792.4000244140625</ele>
        <time>2021-08-18T07:26:59.000Z</time>
      </trkpt>
      <trkpt lat="43.0737248249351978302001953125" lon="-6.071315892040729522705078125">
        <ele>1792.4000244140625</ele>
        <time>2021-08-18T07:27:03.000Z</time>
      </trkpt>
      <trkpt lat="43.07372289709746837615966796875" lon="-6.0713143832981586456298828125">
        <ele>1792.4000244140625</ele>
        <time>2021-08-18T07:27:05.000Z</time>
      </trkpt>
      <trkpt lat="43.07372272945940494537353515625" lon="-6.07131421566009521484375">
        <ele>1792.4000244140625</ele>
        <time>2021-08-18T07:27:06.000Z</time>
      </trkpt>
      <trkpt lat="43.07372289709746837615966796875" lon="-6.0713143832981586456298828125">
        <ele>1792.199951171875</ele>
        <time>2021-08-18T07:27:07.000Z</time>
      </trkpt>
      <trkpt lat="43.07372222654521465301513671875" lon="-6.0713147185742855072021484375">
        <ele>1792.199951171875</ele>
        <time>2021-08-18T07:27:08.000Z</time>
      </trkpt>
      <trkpt lat="43.0737221427261829376220703125" lon="-6.0713150538504123687744140625">
        <ele>1792.4000244140625</ele>
        <time>2021-08-18T07:27:10.000Z</time>
      </trkpt>
      <trkpt lat="43.07372055016458034515380859375" lon="-6.07131488621234893798828125">
        <ele>1792.5999755859375</ele>
        <time>2021-08-18T07:27:12.000Z</time>
      </trkpt>
      <trkpt lat="43.073720298707485198974609375" lon="-6.0713147185742855072021484375">
        <ele>1792.5999755859375</ele>
        <time>2021-08-18T07:27:13.000Z</time>
      </trkpt>
      <trkpt lat="43.073718957602977752685546875" lon="-6.07131421566009521484375">
        <ele>1792.5999755859375</ele>
        <time>2021-08-18T07:27:14.000Z</time>
      </trkpt>
      <trkpt lat="43.0737171135842800140380859375" lon="-6.07131295837461948394775390625">
        <ele>1792.5999755859375</ele>
        <time>2021-08-18T07:27:16.000Z</time>
      </trkpt>
      <trkpt lat="43.073715604841709136962890625" lon="-6.07130340300500392913818359375">
        <ele>1792.4000244140625</ele>
        <time>2021-08-18T07:27:27.000Z</time>
      </trkpt>
      <trkpt lat="43.07371501810848712921142578125" lon="-6.0713003017008304595947265625">
        <ele>1792.4000244140625</ele>
        <time>2021-08-18T07:27:37.000Z</time>
      </trkpt>
      <trkpt lat="43.073714934289455413818359375" lon="-6.07129803858697414398193359375">
        <ele>1792.5999755859375</ele>
        <time>2021-08-18T07:27:46.000Z</time>
      </trkpt>
      <trkpt lat="43.07370118796825408935546875" lon="-6.07131622731685638427734375">
        <ele>1792.800048828125</ele>
        <time>2021-08-18T07:28:04.000Z</time>
      </trkpt>
      <trkpt lat="43.07369087822735309600830078125" lon="-6.07130348682403564453125">
        <ele>1793.4000244140625</ele>
        <time>2021-08-18T07:28:07.000Z</time>
      </trkpt>
      <trkpt lat="43.07368149049580097198486328125" lon="-6.0712969489395618438720703125">
        <ele>1793.5999755859375</ele>
        <time>2021-08-18T07:28:09.000Z</time>
      </trkpt>
      <trkpt lat="43.07366120629012584686279296875" lon="-6.07130742631852626800537109375">
        <ele>1794.199951171875</ele>
        <time>2021-08-18T07:28:13.000Z</time>
      </trkpt>
      <trkpt lat="43.07364142499864101409912109375" lon="-6.0713385231792926788330078125">
        <ele>1794.800048828125</ele>
        <time>2021-08-18T07:28:19.000Z</time>
      </trkpt>
      <trkpt lat="43.07362985797226428985595703125" lon="-6.0713579691946506500244140625">
        <ele>1795.5999755859375</ele>
        <time>2021-08-18T07:28:22.000Z</time>
      </trkpt>
      <trkpt lat="43.07362566702067852020263671875" lon="-6.07136241160333156585693359375">
        <ele>1795.800048828125</ele>
        <time>2021-08-18T07:28:23.000Z</time>
      </trkpt>
      <trkpt lat="43.0736205540597438812255859375" lon="-6.071364842355251312255859375">
        <ele>1796.199951171875</ele>
        <time>2021-08-18T07:28:24.000Z</time>
      </trkpt>
      <trkpt lat="43.07361309416592121124267578125" lon="-6.07136894948780536651611328125">
        <ele>1796.199951171875</ele>
        <time>2021-08-18T07:28:25.000Z</time>
      </trkpt>
      <trkpt lat="43.07359783910214900970458984375" lon="-6.07137179933488368988037109375">
        <ele>1796.5999755859375</ele>
        <time>2021-08-18T07:28:27.000Z</time>
      </trkpt>
      <trkpt lat="43.07358090765774250030517578125" lon="-6.0713784210383892059326171875">
        <ele>1797</ele>
        <time>2021-08-18T07:28:30.000Z</time>
      </trkpt>
      <trkpt lat="43.07356431148946285247802734375" lon="-6.0713821090757846832275390625">
        <ele>1798</ele>
        <time>2021-08-18T07:28:34.000Z</time>
      </trkpt>
      <trkpt lat="43.07356347329914569854736328125" lon="-6.07138864696025848388671875">
        <ele>1798.4000244140625</ele>
        <time>2021-08-18T07:28:36.000Z</time>
      </trkpt>
      <trkpt lat="43.0735637247562408447265625" lon="-6.071403063833713531494140625">
        <ele>1799</ele>
        <time>2021-08-18T07:28:39.000Z</time>
      </trkpt>
      <trkpt lat="43.07356297038495540618896484375" lon="-6.07140566222369670867919921875">
        <ele>1799.199951171875</ele>
        <time>2021-08-18T07:28:40.000Z</time>
      </trkpt>
      <trkpt lat="43.07355760596692562103271484375" lon="-6.07141471467912197113037109375">
        <ele>1799.800048828125</ele>
        <time>2021-08-18T07:28:42.000Z</time>
      </trkpt>
      <trkpt lat="43.07355006225407123565673828125" lon="-6.07142125256359577178955078125">
        <ele>1800.4000244140625</ele>
        <time>2021-08-18T07:28:44.000Z</time>
      </trkpt>
      <trkpt lat="43.07354670949280261993408203125" lon="-6.0714270360767841339111328125">
        <ele>1800.5999755859375</ele>
        <time>2021-08-18T07:28:45.000Z</time>
      </trkpt>
      <trkpt lat="43.07354419492185115814208984375" lon="-6.07143768109381198883056640625">
        <ele>1800.800048828125</ele>
        <time>2021-08-18T07:28:47.000Z</time>
      </trkpt>
      <trkpt lat="43.07353883050382137298583984375" lon="-6.07145167887210845947265625">
        <ele>1801.5999755859375</ele>
        <time>2021-08-18T07:28:50.000Z</time>
      </trkpt>
      <trkpt lat="43.0735369026660919189453125" lon="-6.0714548639953136444091796875">
        <ele>1801.800048828125</ele>
        <time>2021-08-18T07:28:51.000Z</time>
      </trkpt>
      <trkpt lat="43.07353086769580841064453125" lon="-6.0714619047939777374267578125">
        <ele>1802.199951171875</ele>
        <time>2021-08-18T07:28:53.000Z</time>
      </trkpt>
      <trkpt lat="43.07352139614522457122802734375" lon="-6.071468107402324676513671875">
        <ele>1802.4000244140625</ele>
        <time>2021-08-18T07:28:55.000Z</time>
      </trkpt>
      <trkpt lat="43.073512427508831024169921875" lon="-6.07147489674389362335205078125">
        <ele>1802.5999755859375</ele>
        <time>2021-08-18T07:28:58.000Z</time>
      </trkpt>
      <trkpt lat="43.073504380881786346435546875" lon="-6.07148411683738231658935546875">
        <ele>1803.800048828125</ele>
        <time>2021-08-18T07:29:03.000Z</time>
      </trkpt>
      <trkpt lat="43.0735112540423870086669921875" lon="-6.07149417512118816375732421875">
        <ele>1805</ele>
        <time>2021-08-18T07:29:06.000Z</time>
      </trkpt>
      <trkpt lat="43.07351334951817989349365234375" lon="-6.07149568386375904083251953125">
        <ele>1805.199951171875</ele>
        <time>2021-08-18T07:29:07.000Z</time>
      </trkpt>
      <trkpt lat="43.0735181272029876708984375" lon="-6.071510352194309234619140625">
        <ele>1806.199951171875</ele>
        <time>2021-08-18T07:29:10.000Z</time>
      </trkpt>
      <trkpt lat="43.07352525182068347930908203125" lon="-6.07152803801000118255615234375">
        <ele>1807.199951171875</ele>
        <time>2021-08-18T07:29:15.000Z</time>
      </trkpt>
      <trkpt lat="43.0735253356397151947021484375" lon="-6.07153105549514293670654296875">
        <ele>1807.4000244140625</ele>
        <time>2021-08-18T07:29:16.000Z</time>
      </trkpt>
      <trkpt lat="43.0735189653933048248291015625" lon="-6.07154689729213714599609375">
        <ele>1808.4000244140625</ele>
        <time>2021-08-18T07:29:21.000Z</time>
      </trkpt>
      <trkpt lat="43.0735166184604167938232421875" lon="-6.07155083678662776947021484375">
        <ele>1809.4000244140625</ele>
        <time>2021-08-18T07:29:24.000Z</time>
      </trkpt>
      <trkpt lat="43.07351636700332164764404296875" lon="-6.07155025005340576171875">
        <ele>1809.5999755859375</ele>
        <time>2021-08-18T07:29:26.000Z</time>
      </trkpt>
      <trkpt lat="43.07352424599230289459228515625" lon="-6.07155050151050090789794921875">
        <ele>1809.800048828125</ele>
        <time>2021-08-18T07:29:33.000Z</time>
      </trkpt>
      <trkpt lat="43.07352541945874691009521484375" lon="-6.07155050151050090789794921875">
        <ele>1809.5999755859375</ele>
        <time>2021-08-18T07:29:42.000Z</time>
      </trkpt>
      <trkpt lat="43.073526509106159210205078125" lon="-6.07154949568212032318115234375">
        <ele>1809.5999755859375</ele>
        <time>2021-08-18T07:29:47.000Z</time>
      </trkpt>
      <trkpt lat="43.07352810166776180267333984375" lon="-6.0715517587959766387939453125">
        <ele>1809.5999755859375</ele>
        <time>2021-08-18T07:29:52.000Z</time>
      </trkpt>
      <trkpt lat="43.0735250003635883331298828125" lon="-6.0715544410049915313720703125">
        <ele>1809.800048828125</ele>
        <time>2021-08-18T07:29:58.000Z</time>
      </trkpt>
      <trkpt lat="43.0735089071094989776611328125" lon="-6.07156701385974884033203125">
        <ele>1810.4000244140625</ele>
        <time>2021-08-18T07:30:02.000Z</time>
      </trkpt>
      <trkpt lat="43.0734941549599170684814453125" lon="-6.07157506048679351806640625">
        <ele>1810.800048828125</ele>
        <time>2021-08-18T07:30:05.000Z</time>
      </trkpt>
      <trkpt lat="43.0734921433031558990478515625" lon="-6.071575395762920379638671875">
        <ele>1811</ele>
        <time>2021-08-18T07:30:06.000Z</time>
      </trkpt>
      <trkpt lat="43.07349105365574359893798828125" lon="-6.07157506048679351806640625">
        <ele>1811</ele>
        <time>2021-08-18T07:30:08.000Z</time>
      </trkpt>
      <trkpt lat="43.0734897963702678680419921875" lon="-6.071576736867427825927734375">
        <ele>1811</ele>
        <time>2021-08-18T07:30:09.000Z</time>
      </trkpt>
      <trkpt lat="43.0734877847135066986083984375" lon="-6.071578748524188995361328125">
        <ele>1811.199951171875</ele>
        <time>2021-08-18T07:30:10.000Z</time>
      </trkpt>
      <trkpt lat="43.07348124682903289794921875" lon="-6.07158419676125049591064453125">
        <ele>1811.199951171875</ele>
        <time>2021-08-18T07:30:12.000Z</time>
      </trkpt>
      <trkpt lat="43.073479570448398590087890625" lon="-6.07158537022769451141357421875">
        <ele>1811.199951171875</ele>
        <time>2021-08-18T07:30:13.000Z</time>
      </trkpt>
      <trkpt lat="43.073476888239383697509765625" lon="-6.07158905826508998870849609375">
        <ele>1811.199951171875</ele>
        <time>2021-08-18T07:30:16.000Z</time>
      </trkpt>
      <trkpt lat="43.07347764261066913604736328125" lon="-6.0715986974537372589111328125">
        <ele>1811</ele>
        <time>2021-08-18T07:30:25.000Z</time>
      </trkpt>
      <trkpt lat="43.07347856462001800537109375" lon="-6.071601547300815582275390625">
        <ele>1811</ele>
        <time>2021-08-18T07:30:29.000Z</time>
      </trkpt>
      <trkpt lat="43.0734814144670963287353515625" lon="-6.07159894891083240509033203125">
        <ele>1811.199951171875</ele>
        <time>2021-08-18T07:30:41.000Z</time>
      </trkpt>
      <trkpt lat="43.0734805762767791748046875" lon="-6.07160129584372043609619140625">
        <ele>1811</ele>
        <time>2021-08-18T07:30:44.000Z</time>
      </trkpt>
      <trkpt lat="43.07345517911016941070556640625" lon="-6.0716147907078266143798828125">
        <ele>1811.199951171875</ele>
        <time>2021-08-18T07:30:58.000Z</time>
      </trkpt>
      <trkpt lat="43.0734458751976490020751953125" lon="-6.0716305486857891082763671875">
        <ele>1811.4000244140625</ele>
        <time>2021-08-18T07:31:00.000Z</time>
      </trkpt>
      <trkpt lat="43.073404468595981597900390625" lon="-6.0716912336647510528564453125">
        <ele>1812.5999755859375</ele>
        <time>2021-08-18T07:31:08.000Z</time>
      </trkpt>
      <trkpt lat="43.073394410312175750732421875" lon="-6.07170791365206241607666015625">
        <ele>1813</ele>
        <time>2021-08-18T07:31:10.000Z</time>
      </trkpt>
      <trkpt lat="43.07338896207511425018310546875" lon="-6.071715541183948516845703125">
        <ele>1813.199951171875</ele>
        <time>2021-08-18T07:31:11.000Z</time>
      </trkpt>
      <trkpt lat="43.073383681476116180419921875" lon="-6.0717351548373699188232421875">
        <ele>1813.4000244140625</ele>
        <time>2021-08-18T07:31:13.000Z</time>
      </trkpt>
      <trkpt lat="43.0733821727335453033447265625" lon="-6.07174269855022430419921875">
        <ele>1813.5999755859375</ele>
        <time>2021-08-18T07:31:14.000Z</time>
      </trkpt>
      <trkpt lat="43.07337638922035694122314453125" lon="-6.0717492364346981048583984375">
        <ele>1814</ele>
        <time>2021-08-18T07:31:16.000Z</time>
      </trkpt>
      <trkpt lat="43.07336993515491485595703125" lon="-6.07175451703369617462158203125">
        <ele>1814.4000244140625</ele>
        <time>2021-08-18T07:31:17.000Z</time>
      </trkpt>
      <trkpt lat="43.07336415164172649383544921875" lon="-6.07175719924271106719970703125">
        <ele>1814.5999755859375</ele>
        <time>2021-08-18T07:31:18.000Z</time>
      </trkpt>
      <trkpt lat="43.07336079888045787811279296875" lon="-6.07176038436591625213623046875">
        <ele>1814.800048828125</ele>
        <time>2021-08-18T07:31:19.000Z</time>
      </trkpt>
      <trkpt lat="43.07335761375725269317626953125" lon="-6.071765162050724029541015625">
        <ele>1815</ele>
        <time>2021-08-18T07:31:20.000Z</time>
      </trkpt>
      <trkpt lat="43.07335191406309604644775390625" lon="-6.07177094556391239166259765625">
        <ele>1815.199951171875</ele>
        <time>2021-08-18T07:31:21.000Z</time>
      </trkpt>
      <trkpt lat="43.07334043085575103759765625" lon="-6.0717727057635784149169921875">
        <ele>1815.4000244140625</ele>
        <time>2021-08-18T07:31:23.000Z</time>
      </trkpt>
      <trkpt lat="43.073329366743564605712890625" lon="-6.07177329249680042266845703125">
        <ele>1815.800048828125</ele>
        <time>2021-08-18T07:31:25.000Z</time>
      </trkpt>
      <trkpt lat="43.07332425378262996673583984375" lon="-6.07177429832518100738525390625">
        <ele>1816</ele>
        <time>2021-08-18T07:31:26.000Z</time>
      </trkpt>
      <trkpt lat="43.0733169615268707275390625" lon="-6.07177228666841983795166015625">
        <ele>1816.5999755859375</ele>
        <time>2021-08-18T07:31:28.000Z</time>
      </trkpt>
      <trkpt lat="43.073313273489475250244140625" lon="-6.07177999801933765411376953125">
        <ele>1817</ele>
        <time>2021-08-18T07:31:30.000Z</time>
      </trkpt>
      <trkpt lat="43.073311261832714080810546875" lon="-6.071785949170589447021484375">
        <ele>1817.4000244140625</ele>
        <time>2021-08-18T07:31:31.000Z</time>
      </trkpt>
      <trkpt lat="43.07330598123371601104736328125" lon="-6.07179508544504642486572265625">
        <ele>1818.199951171875</ele>
        <time>2021-08-18T07:31:33.000Z</time>
      </trkpt>
      <trkpt lat="43.07330396957695484161376953125" lon="-6.07187622226774692535400390625">
        <ele>1818.800048828125</ele>
        <time>2021-08-18T07:31:42.000Z</time>
      </trkpt>
      <trkpt lat="43.0733035504817962646484375" lon="-6.071892566978931427001953125">
        <ele>1818.800048828125</ele>
        <time>2021-08-18T07:31:44.000Z</time>
      </trkpt>
      <trkpt lat="43.07329525239765644073486328125" lon="-6.0719182156026363372802734375">
        <ele>1819.4000244140625</ele>
        <time>2021-08-18T07:31:48.000Z</time>
      </trkpt>
      <trkpt lat="43.0732852779328823089599609375" lon="-6.071924082934856414794921875">
        <ele>1820.4000244140625</ele>
        <time>2021-08-18T07:31:53.000Z</time>
      </trkpt>
      <trkpt lat="43.0732836015522480010986328125" lon="-6.07192433439195156097412109375">
        <ele>1820.5999755859375</ele>
        <time>2021-08-18T07:31:54.000Z</time>
      </trkpt>
      <trkpt lat="43.0732748843729496002197265625" lon="-6.071918047964572906494140625">
        <ele>1821.199951171875</ele>
        <time>2021-08-18T07:31:59.000Z</time>
      </trkpt>
      <trkpt lat="43.07327329181134700775146484375" lon="-6.07191796414554119110107421875">
        <ele>1821.4000244140625</ele>
        <time>2021-08-18T07:32:00.000Z</time>
      </trkpt>
      <trkpt lat="43.073272705078125" lon="-6.07191612012684345245361328125">
        <ele>1821.4000244140625</ele>
        <time>2021-08-18T07:32:02.000Z</time>
      </trkpt>
      <trkpt lat="43.0732681788504123687744140625" lon="-6.071914024651050567626953125">
        <ele>1821.5999755859375</ele>
        <time>2021-08-18T07:32:07.000Z</time>
      </trkpt>
      <trkpt lat="43.073263652622699737548828125" lon="-6.0719128511846065521240234375">
        <ele>1821.4000244140625</ele>
        <time>2021-08-18T07:32:14.000Z</time>
      </trkpt>
      <trkpt lat="43.07326407171785831451416015625" lon="-6.07191033661365509033203125">
        <ele>1821.4000244140625</ele>
        <time>2021-08-18T07:32:17.000Z</time>
      </trkpt>
      <trkpt lat="43.07326507754623889923095703125" lon="-6.07190824113786220550537109375">
        <ele>1821.5999755859375</ele>
        <time>2021-08-18T07:32:22.000Z</time>
      </trkpt>
      <trkpt lat="43.0732658319175243377685546875" lon="-6.0719074867665767669677734375">
        <ele>1821.5999755859375</ele>
        <time>2021-08-18T07:32:24.000Z</time>
      </trkpt>
      <trkpt lat="43.07326775975525379180908203125" lon="-6.07190807349979877471923828125">
        <ele>1821.5999755859375</ele>
        <time>2021-08-18T07:32:26.000Z</time>
      </trkpt>
      <trkpt lat="43.07326457463204860687255859375" lon="-6.07190673239529132843017578125">
        <ele>1821.5999755859375</ele>
        <time>2021-08-18T07:32:29.000Z</time>
      </trkpt>
      <trkpt lat="43.0732671730220317840576171875" lon="-6.07188108377158641815185546875">
        <ele>1822.199951171875</ele>
        <time>2021-08-18T07:32:35.000Z</time>
      </trkpt>
      <trkpt lat="43.07326591573655605316162109375" lon="-6.07187605462968349456787109375">
        <ele>1822.4000244140625</ele>
        <time>2021-08-18T07:32:36.000Z</time>
      </trkpt>
      <trkpt lat="43.07326105423271656036376953125" lon="-6.07186683453619480133056640625">
        <ele>1822.4000244140625</ele>
        <time>2021-08-18T07:32:38.000Z</time>
      </trkpt>
      <trkpt lat="43.07325518690049648284912109375" lon="-6.07186817564070224761962890625">
        <ele>1822.5999755859375</ele>
        <time>2021-08-18T07:32:41.000Z</time>
      </trkpt>
      <trkpt lat="43.07325535453855991363525390625" lon="-6.07186817564070224761962890625">
        <ele>1822.5999755859375</ele>
        <time>2021-08-18T07:32:42.000Z</time>
      </trkpt>
      <trkpt lat="43.07325669564306735992431640625" lon="-6.071870438754558563232421875">
        <ele>1822.5999755859375</ele>
        <time>2021-08-18T07:32:44.000Z</time>
      </trkpt>
      <trkpt lat="43.0732561089098453521728515625" lon="-6.07186817564070224761962890625">
        <ele>1822.5999755859375</ele>
        <time>2021-08-18T07:32:47.000Z</time>
      </trkpt>
      <trkpt lat="43.07326390407979488372802734375" lon="-6.071866415441036224365234375">
        <ele>1823.199951171875</ele>
        <time>2021-08-18T07:33:00.000Z</time>
      </trkpt>
      <trkpt lat="43.07326826266944408416748046875" lon="-6.0718696005642414093017578125">
        <ele>1822.800048828125</ele>
        <time>2021-08-18T07:33:03.000Z</time>
      </trkpt>
      <trkpt lat="43.0732651613652706146240234375" lon="-6.071866415441036224365234375">
        <ele>1822.4000244140625</ele>
        <time>2021-08-18T07:33:12.000Z</time>
      </trkpt>
      <trkpt lat="43.07325937785208225250244140625" lon="-6.07187186367809772491455078125">
        <ele>1822.4000244140625</ele>
        <time>2021-08-18T07:33:13.000Z</time>
      </trkpt>
      <trkpt lat="43.07321964763104915618896484375" lon="-6.0719297826290130615234375">
        <ele>1824</ele>
        <time>2021-08-18T07:33:23.000Z</time>
      </trkpt>
      <trkpt lat="43.07321713306009769439697265625" lon="-6.07192751951515674591064453125">
        <ele>1823.5999755859375</ele>
        <time>2021-08-18T07:33:25.000Z</time>
      </trkpt>
      <trkpt lat="43.0732118524610996246337890625" lon="-6.07192936353385448455810546875">
        <ele>1824</ele>
        <time>2021-08-18T07:33:28.000Z</time>
      </trkpt>
      <trkpt lat="43.0731974355876445770263671875" lon="-6.07193858362734317779541015625">
        <ele>1824.199951171875</ele>
        <time>2021-08-18T07:33:42.000Z</time>
      </trkpt>
      <trkpt lat="43.07319559156894683837890625" lon="-6.07193690724670886993408203125">
        <ele>1824.199951171875</ele>
        <time>2021-08-18T07:33:47.000Z</time>
      </trkpt>
      <trkpt lat="43.07319517247378826141357421875" lon="-6.0719383321702480316162109375">
        <ele>1824.199951171875</ele>
        <time>2021-08-18T07:33:50.000Z</time>
      </trkpt>
      <trkpt lat="43.07319601066410541534423828125" lon="-6.0719379968941211700439453125">
        <ele>1824.5999755859375</ele>
        <time>2021-08-18T07:34:00.000Z</time>
      </trkpt>
      <trkpt lat="43.07319500483572483062744140625" lon="-6.07193858362734317779541015625">
        <ele>1824.199951171875</ele>
        <time>2021-08-18T07:34:08.000Z</time>
      </trkpt>
      <trkpt lat="43.0731954239308834075927734375" lon="-6.07193808071315288543701171875">
        <ele>1824.199951171875</ele>
        <time>2021-08-18T07:34:09.000Z</time>
      </trkpt>
      <trkpt lat="43.07319500483572483062744140625" lon="-6.07193808071315288543701171875">
        <ele>1824.4000244140625</ele>
        <time>2021-08-18T07:34:10.000Z</time>
      </trkpt>
      <trkpt lat="43.07319517247378826141357421875" lon="-6.0719378292560577392578125">
        <ele>1824.4000244140625</ele>
        <time>2021-08-18T07:34:11.000Z</time>
      </trkpt>
      <trkpt lat="43.073195256292819976806640625" lon="-6.071937493979930877685546875">
        <ele>1824.4000244140625</ele>
        <time>2021-08-18T07:34:12.000Z</time>
      </trkpt>
      <trkpt lat="43.07319466955959796905517578125" lon="-6.07193849980831146240234375">
        <ele>1824.5999755859375</ele>
        <time>2021-08-18T07:34:16.000Z</time>
      </trkpt>
      <trkpt lat="43.07319425046443939208984375" lon="-6.07193824835121631622314453125">
        <ele>1824.5999755859375</ele>
        <time>2021-08-18T07:34:21.000Z</time>
      </trkpt>
      <trkpt lat="43.0731940828263759613037109375" lon="-6.071933470666408538818359375">
        <ele>1824.4000244140625</ele>
        <time>2021-08-18T07:34:34.000Z</time>
      </trkpt>
      <trkpt lat="43.07319500483572483062744140625" lon="-6.07193422503769397735595703125">
        <ele>1824.199951171875</ele>
        <time>2021-08-18T07:34:40.000Z</time>
      </trkpt>
      <trkpt lat="43.07319483719766139984130859375" lon="-6.0719346441328525543212890625">
        <ele>1824.199951171875</ele>
        <time>2021-08-18T07:34:48.000Z</time>
      </trkpt>
      <trkpt lat="43.073196597397327423095703125" lon="-6.07193523086607456207275390625">
        <ele>1824.199951171875</ele>
        <time>2021-08-18T07:35:02.000Z</time>
      </trkpt>
      <trkpt lat="43.07319668121635913848876953125" lon="-6.0719353146851062774658203125">
        <ele>1824.199951171875</ele>
        <time>2021-08-18T07:35:06.000Z</time>
      </trkpt>
      <trkpt lat="43.07319668121635913848876953125" lon="-6.07193590141832828521728515625">
        <ele>1824.199951171875</ele>
        <time>2021-08-18T07:35:17.000Z</time>
      </trkpt>
      <trkpt lat="43.0731803365051746368408203125" lon="-6.07195459306240081787109375">
        <ele>1825</ele>
        <time>2021-08-18T07:35:34.000Z</time>
      </trkpt>
      <trkpt lat="43.0731766484677791595458984375" lon="-6.0719619691371917724609375">
        <ele>1825</ele>
        <time>2021-08-18T07:35:36.000Z</time>
      </trkpt>
      <trkpt lat="43.07315477170050144195556640625" lon="-6.0719983465969562530517578125">
        <ele>1826</ele>
        <time>2021-08-18T07:35:44.000Z</time>
      </trkpt>
      <trkpt lat="43.07314035482704639434814453125" lon="-6.07201854698359966278076171875">
        <ele>1827</ele>
        <time>2021-08-18T07:35:48.000Z</time>
      </trkpt>
      <trkpt lat="43.07312258519232273101806640625" lon="-6.0720466263592243194580078125">
        <ele>1828</ele>
        <time>2021-08-18T07:35:52.000Z</time>
      </trkpt>
      <trkpt lat="43.07311805896461009979248046875" lon="-6.07205249369144439697265625">
        <ele>1828.4000244140625</ele>
        <time>2021-08-18T07:35:53.000Z</time>
      </trkpt>
      <trkpt lat="43.0731105990707874298095703125" lon="-6.07205810956656932830810546875">
        <ele>1828.5999755859375</ele>
        <time>2021-08-18T07:35:54.000Z</time>
      </trkpt>
      <trkpt lat="43.07309710420668125152587890625" lon="-6.07207152061164379119873046875">
        <ele>1829</ele>
        <time>2021-08-18T07:35:56.000Z</time>
      </trkpt>
      <trkpt lat="43.0730836093425750732421875" lon="-6.0720855183899402618408203125">
        <ele>1829.4000244140625</ele>
        <time>2021-08-18T07:35:58.000Z</time>
      </trkpt>
      <trkpt lat="43.07307447306811809539794921875" lon="-6.0720962472259998321533203125">
        <ele>1830</ele>
        <time>2021-08-18T07:36:00.000Z</time>
      </trkpt>
      <trkpt lat="43.0730619840323925018310546875" lon="-6.0721202194690704345703125">
        <ele>1830.800048828125</ele>
        <time>2021-08-18T07:36:03.000Z</time>
      </trkpt>
      <trkpt lat="43.07304630987346172332763671875" lon="-6.07214771211147308349609375">
        <ele>1831.800048828125</ele>
        <time>2021-08-18T07:36:06.000Z</time>
      </trkpt>
      <trkpt lat="43.07302585802972316741943359375" lon="-6.07217243872582912445068359375">
        <ele>1832.5999755859375</ele>
        <time>2021-08-18T07:36:10.000Z</time>
      </trkpt>
      <trkpt lat="43.07301261462271213531494140625" lon="-6.07218383811414241790771484375">
        <ele>1832.800048828125</ele>
        <time>2021-08-18T07:36:12.000Z</time>
      </trkpt>
      <trkpt lat="43.07300515472888946533203125" lon="-6.07218953780829906463623046875">
        <ele>1833.4000244140625</ele>
        <time>2021-08-18T07:36:14.000Z</time>
      </trkpt>
      <trkpt lat="43.073001466691493988037109375" lon="-6.07219188474118709564208984375">
        <ele>1833.5999755859375</ele>
        <time>2021-08-18T07:36:15.000Z</time>
      </trkpt>
      <trkpt lat="43.0730004608631134033203125" lon="-6.0721985064446926116943359375">
        <ele>1834</ele>
        <time>2021-08-18T07:36:16.000Z</time>
      </trkpt>
      <trkpt lat="43.0729982815682888031005859375" lon="-6.07220512814819812774658203125">
        <ele>1834.199951171875</ele>
        <time>2021-08-18T07:36:17.000Z</time>
      </trkpt>
      <trkpt lat="43.07299199514091014862060546875" lon="-6.0722229816019535064697265625">
        <ele>1834.5999755859375</ele>
        <time>2021-08-18T07:36:19.000Z</time>
      </trkpt>
      <trkpt lat="43.07297791354358196258544921875" lon="-6.0722447745501995086669921875">
        <ele>1835</ele>
        <time>2021-08-18T07:36:22.000Z</time>
      </trkpt>
      <trkpt lat="43.072969950735569000244140625" lon="-6.07228961773216724395751953125">
        <ele>1835.5999755859375</ele>
        <time>2021-08-18T07:36:27.000Z</time>
      </trkpt>
      <trkpt lat="43.072958551347255706787109375" lon="-6.07230328023433685302734375">
        <ele>1836</ele>
        <time>2021-08-18T07:36:29.000Z</time>
      </trkpt>
      <trkpt lat="43.07291664183139801025390625" lon="-6.072329767048358917236328125">
        <ele>1837.199951171875</ele>
        <time>2021-08-18T07:36:36.000Z</time>
      </trkpt>
      <trkpt lat="43.07290649972856044769287109375" lon="-6.0723554156720638275146484375">
        <ele>1838.199951171875</ele>
        <time>2021-08-18T07:36:40.000Z</time>
      </trkpt>
      <trkpt lat="43.07290616445243358612060546875" lon="-6.072359271347522735595703125">
        <ele>1838.4000244140625</ele>
        <time>2021-08-18T07:36:41.000Z</time>
      </trkpt>
      <trkpt lat="43.072888813912868499755859375" lon="-6.0723577626049518585205078125">
        <ele>1839.4000244140625</ele>
        <time>2021-08-18T07:36:51.000Z</time>
      </trkpt>
      <trkpt lat="43.07288772426545619964599609375" lon="-6.07235801406204700469970703125">
        <ele>1839.4000244140625</ele>
        <time>2021-08-18T07:36:52.000Z</time>
      </trkpt>
      <trkpt lat="43.07289627380669116973876953125" lon="-6.07236203737556934356689453125">
        <ele>1839.4000244140625</ele>
        <time>2021-08-18T07:37:06.000Z</time>
      </trkpt>
      <trkpt lat="43.0728973634541034698486328125" lon="-6.07236228883266448974609375">
        <ele>1839.4000244140625</ele>
        <time>2021-08-18T07:37:07.000Z</time>
      </trkpt>
      <trkpt lat="43.07290096767246723175048828125" lon="-6.072359941899776458740234375">
        <ele>1839</ele>
        <time>2021-08-18T07:37:12.000Z</time>
      </trkpt>
      <trkpt lat="43.0728976987302303314208984375" lon="-6.072357594966888427734375">
        <ele>1839.199951171875</ele>
        <time>2021-08-18T07:37:15.000Z</time>
      </trkpt>
      <trkpt lat="43.072886802256107330322265625" lon="-6.07235784642398357391357421875">
        <ele>1839.4000244140625</ele>
        <time>2021-08-18T07:37:19.000Z</time>
      </trkpt>
      <trkpt lat="43.07287565432488918304443359375" lon="-6.0723602771759033203125">
        <ele>1839.4000244140625</ele>
        <time>2021-08-18T07:37:25.000Z</time>
      </trkpt>
      <trkpt lat="43.072867356240749359130859375" lon="-6.07236170209944248199462890625">
        <ele>1839.4000244140625</ele>
        <time>2021-08-18T07:37:29.000Z</time>
      </trkpt>
      <trkpt lat="43.07286190800368785858154296875" lon="-6.072365976870059967041015625">
        <ele>1839.4000244140625</ele>
        <time>2021-08-18T07:37:33.000Z</time>
      </trkpt>
      <trkpt lat="43.07286157272756099700927734375" lon="-6.0723651386797428131103515625">
        <ele>1839.4000244140625</ele>
        <time>2021-08-18T07:37:36.000Z</time>
      </trkpt>
      <trkpt lat="43.07287313975393772125244140625" lon="-6.07237025164067745208740234375">
        <ele>1839.199951171875</ele>
        <time>2021-08-18T07:37:38.000Z</time>
      </trkpt>
      <trkpt lat="43.0728738941252231597900390625" lon="-6.07238919474184513092041015625">
        <ele>1839.199951171875</ele>
        <time>2021-08-18T07:37:42.000Z</time>
      </trkpt>
      <trkpt lat="43.07286693714559078216552734375" lon="-6.0724070481956005096435546875">
        <ele>1840.4000244140625</ele>
        <time>2021-08-18T07:37:46.000Z</time>
      </trkpt>
      <trkpt lat="43.072857297956943511962890625" lon="-6.07242129743099212646484375">
        <ele>1841.199951171875</ele>
        <time>2021-08-18T07:37:49.000Z</time>
      </trkpt>
      <trkpt lat="43.07285570539534091949462890625" lon="-6.072422303259372711181640625">
        <ele>1841.4000244140625</ele>
        <time>2021-08-18T07:37:50.000Z</time>
      </trkpt>
      <trkpt lat="43.0728556215763092041015625" lon="-6.07242423109710216522216796875">
        <ele>1841.5999755859375</ele>
        <time>2021-08-18T07:37:51.000Z</time>
      </trkpt>
      <trkpt lat="43.072845228016376495361328125" lon="-6.072437055408954620361328125">
        <ele>1842.4000244140625</ele>
        <time>2021-08-18T07:37:54.000Z</time>
      </trkpt>
      <trkpt lat="43.0728447251021862030029296875" lon="-6.072442419826984405517578125">
        <ele>1842.5999755859375</ele>
        <time>2021-08-18T07:37:55.000Z</time>
      </trkpt>
      <trkpt lat="43.07284363545477390289306640625" lon="-6.0724529810249805450439453125">
        <ele>1843.199951171875</ele>
        <time>2021-08-18T07:37:57.000Z</time>
      </trkpt>
      <trkpt lat="43.07284262962639331817626953125" lon="-6.07245725579559803009033203125">
        <ele>1843.4000244140625</ele>
        <time>2021-08-18T07:37:58.000Z</time>
      </trkpt>
      <trkpt lat="43.0728423781692981719970703125" lon="-6.0724623687565326690673828125">
        <ele>1843.5999755859375</ele>
        <time>2021-08-18T07:37:59.000Z</time>
      </trkpt>
      <trkpt lat="43.0728395283222198486328125" lon="-6.0724677331745624542236328125">
        <ele>1843.800048828125</ele>
        <time>2021-08-18T07:38:00.000Z</time>
      </trkpt>
      <trkpt lat="43.072835505008697509765625" lon="-6.07247938401997089385986328125">
        <ele>1844.4000244140625</ele>
        <time>2021-08-18T07:38:03.000Z</time>
      </trkpt>
      <trkpt lat="43.07282787747681140899658203125" lon="-6.07248374260962009429931640625">
        <ele>1844.5999755859375</ele>
        <time>2021-08-18T07:38:05.000Z</time>
      </trkpt>
      <trkpt lat="43.07282653637230396270751953125" lon="-6.0724875144660472869873046875">
        <ele>1844.800048828125</ele>
        <time>2021-08-18T07:38:06.000Z</time>
      </trkpt>
      <trkpt lat="43.07281664572656154632568359375" lon="-6.07251374982297420501708984375">
        <ele>1845.800048828125</ele>
        <time>2021-08-18T07:38:10.000Z</time>
      </trkpt>
      <trkpt lat="43.0727870576083660125732421875" lon="-6.0725505463778972625732421875">
        <ele>1846.5999755859375</ele>
        <time>2021-08-18T07:38:16.000Z</time>
      </trkpt>
      <trkpt lat="43.072780855000019073486328125" lon="-6.07255934737622737884521484375">
        <ele>1846.800048828125</ele>
        <time>2021-08-18T07:38:17.000Z</time>
      </trkpt>
      <trkpt lat="43.072771131992340087890625" lon="-6.0725763626396656036376953125">
        <ele>1847.199951171875</ele>
        <time>2021-08-18T07:38:19.000Z</time>
      </trkpt>
      <trkpt lat="43.07274355553090572357177734375" lon="-6.07262606732547283172607421875">
        <ele>1847.800048828125</ele>
        <time>2021-08-18T07:38:25.000Z</time>
      </trkpt>
      <trkpt lat="43.07273819111287593841552734375" lon="-6.07263453304767608642578125">
        <ele>1848</ele>
        <time>2021-08-18T07:38:26.000Z</time>
      </trkpt>
      <trkpt lat="43.0727310664951801300048828125" lon="-6.07265288941562175750732421875">
        <ele>1848.4000244140625</ele>
        <time>2021-08-18T07:38:28.000Z</time>
      </trkpt>
      <trkpt lat="43.072722852230072021484375" lon="-6.07267183251678943634033203125">
        <ele>1849</ele>
        <time>2021-08-18T07:38:34.000Z</time>
      </trkpt>
      <trkpt lat="43.07272218167781829833984375" lon="-6.07267300598323345184326171875">
        <ele>1849</ele>
        <time>2021-08-18T07:38:35.000Z</time>
      </trkpt>
      <trkpt lat="43.07270265184342861175537109375" lon="-6.07272095046937465667724609375">
        <ele>1850.199951171875</ele>
        <time>2021-08-18T07:38:46.000Z</time>
      </trkpt>
      <trkpt lat="43.07268622331321239471435546875" lon="-6.07274450361728668212890625">
        <ele>1850.800048828125</ele>
        <time>2021-08-18T07:38:49.000Z</time>
      </trkpt>
      <trkpt lat="43.07268186472356319427490234375" lon="-6.07275380752980709075927734375">
        <ele>1851.4000244140625</ele>
        <time>2021-08-18T07:38:51.000Z</time>
      </trkpt>
      <trkpt lat="43.07266560383141040802001953125" lon="-6.07275548391044139862060546875">
        <ele>1852.4000244140625</ele>
        <time>2021-08-18T07:38:55.000Z</time>
      </trkpt>
      <trkpt lat="43.07266811840236186981201171875" lon="-6.07277878560125827789306640625">
        <ele>1853</ele>
        <time>2021-08-18T07:38:59.000Z</time>
      </trkpt>
      <trkpt lat="43.07266694493591785430908203125" lon="-6.07278683222830295562744140625">
        <ele>1853.800048828125</ele>
        <time>2021-08-18T07:39:01.000Z</time>
      </trkpt>
      <trkpt lat="43.072660155594348907470703125" lon="-6.07278599403798580169677734375">
        <ele>1854.199951171875</ele>
        <time>2021-08-18T07:39:04.000Z</time>
      </trkpt>
      <trkpt lat="43.07265780866146087646484375" lon="-6.07278532348573207855224609375">
        <ele>1854.800048828125</ele>
        <time>2021-08-18T07:39:07.000Z</time>
      </trkpt>
      <trkpt lat="43.07265722192823886871337890625" lon="-6.0727828927338123321533203125">
        <ele>1855.4000244140625</ele>
        <time>2021-08-18T07:39:13.000Z</time>
      </trkpt>
      <trkpt lat="43.07265789248049259185791015625" lon="-6.07278096489608287811279296875">
        <ele>1855.4000244140625</ele>
        <time>2021-08-18T07:39:14.000Z</time>
      </trkpt>
      <trkpt lat="43.07265873067080974578857421875" lon="-6.07277912087738513946533203125">
        <ele>1855.199951171875</ele>
        <time>2021-08-18T07:39:16.000Z</time>
      </trkpt>
      <trkpt lat="43.0726569704711437225341796875" lon="-6.0727765224874019622802734375">
        <ele>1855.199951171875</ele>
        <time>2021-08-18T07:39:19.000Z</time>
      </trkpt>
      <trkpt lat="43.07265001349151134490966796875" lon="-6.0727854073047637939453125">
        <ele>1855</ele>
        <time>2021-08-18T07:39:21.000Z</time>
      </trkpt>
      <trkpt lat="43.07262637652456760406494140625" lon="-6.072811894118785858154296875">
        <ele>1855</ele>
        <time>2021-08-18T07:39:26.000Z</time>
      </trkpt>
      <trkpt lat="43.07261765934526920318603515625" lon="-6.07282404787838459014892578125">
        <ele>1855.4000244140625</ele>
        <time>2021-08-18T07:39:28.000Z</time>
      </trkpt>
      <trkpt lat="43.07260475121438503265380859375" lon="-6.07284885831177234649658203125">
        <ele>1856</ele>
        <time>2021-08-18T07:39:33.000Z</time>
      </trkpt>
      <trkpt lat="43.0725664459168910980224609375" lon="-6.07288666069507598876953125">
        <ele>1857</ele>
        <time>2021-08-18T07:39:42.000Z</time>
      </trkpt>
      <trkpt lat="43.07255663909018039703369140625" lon="-6.072885654866695404052734375">
        <ele>1857.4000244140625</ele>
        <time>2021-08-18T07:39:44.000Z</time>
      </trkpt>
      <trkpt lat="43.07255378924310207366943359375" lon="-6.072884984314441680908203125">
        <ele>1857.5999755859375</ele>
        <time>2021-08-18T07:39:45.000Z</time>
      </trkpt>
      <trkpt lat="43.07255077175796031951904296875" lon="-6.0729087889194488525390625">
        <ele>1858</ele>
        <time>2021-08-18T07:39:47.000Z</time>
      </trkpt>
      <trkpt lat="43.07254456914961338043212890625" lon="-6.072931252419948577880859375">
        <ele>1858.800048828125</ele>
        <time>2021-08-18T07:39:52.000Z</time>
      </trkpt>
      <trkpt lat="43.0725443176925182342529296875" lon="-6.07293234206736087799072265625">
        <ele>1859</ele>
        <time>2021-08-18T07:39:53.000Z</time>
      </trkpt>
      <trkpt lat="43.07254381477832794189453125" lon="-6.07293200679123401641845703125">
        <ele>1859.5999755859375</ele>
        <time>2021-08-18T07:39:55.000Z</time>
      </trkpt>
      <trkpt lat="43.072544820606708526611328125" lon="-6.0729361139237880706787109375">
        <ele>1860</ele>
        <time>2021-08-18T07:39:57.000Z</time>
      </trkpt>
      <trkpt lat="43.0725429765880107879638671875" lon="-6.072936616837978363037109375">
        <ele>1860.199951171875</ele>
        <time>2021-08-18T07:40:03.000Z</time>
      </trkpt>
      <trkpt lat="43.07254641316831111907958984375" lon="-6.0729351080954074859619140625">
        <ele>1860.199951171875</ele>
        <time>2021-08-18T07:40:05.000Z</time>
      </trkpt>
      <trkpt lat="43.07255311869084835052490234375" lon="-6.07293737120926380157470703125">
        <ele>1860.4000244140625</ele>
        <time>2021-08-18T07:40:20.000Z</time>
      </trkpt>
      <trkpt lat="43.0725376121699810028076171875" lon="-6.07295371592044830322265625">
        <ele>1860.199951171875</ele>
        <time>2021-08-18T07:40:24.000Z</time>
      </trkpt>
      <trkpt lat="43.0725242011249065399169921875" lon="-6.072967462241649627685546875">
        <ele>1861</ele>
        <time>2021-08-18T07:40:28.000Z</time>
      </trkpt>
      <trkpt lat="43.07251833379268646240234375" lon="-6.07296846807003021240234375">
        <ele>1861.199951171875</ele>
        <time>2021-08-18T07:40:29.000Z</time>
      </trkpt>
      <trkpt lat="43.072501905262470245361328125" lon="-6.07297651469707489013671875">
        <ele>1861.800048828125</ele>
        <time>2021-08-18T07:40:31.000Z</time>
      </trkpt>
      <trkpt lat="43.072478771209716796875" lon="-6.0729937814176082611083984375">
        <ele>1862.199951171875</ele>
        <time>2021-08-18T07:40:34.000Z</time>
      </trkpt>
      <trkpt lat="43.07244784198701381683349609375" lon="-6.072999648749828338623046875">
        <ele>1862.5999755859375</ele>
        <time>2021-08-18T07:40:38.000Z</time>
      </trkpt>
      <trkpt lat="43.07242051698267459869384765625" lon="-6.073033176362514495849609375">
        <ele>1863.4000244140625</ele>
        <time>2021-08-18T07:40:44.000Z</time>
      </trkpt>
      <trkpt lat="43.0723969638347625732421875" lon="-6.0730494372546672821044921875">
        <ele>1864.199951171875</ele>
        <time>2021-08-18T07:40:48.000Z</time>
      </trkpt>
      <trkpt lat="43.07239319197833538055419921875" lon="-6.073054634034633636474609375">
        <ele>1864.4000244140625</ele>
        <time>2021-08-18T07:40:49.000Z</time>
      </trkpt>
      <trkpt lat="43.07238061912357807159423828125" lon="-6.073070727288722991943359375">
        <ele>1865.199951171875</ele>
        <time>2021-08-18T07:40:53.000Z</time>
      </trkpt>
      <trkpt lat="43.07237760163843631744384765625" lon="-6.07307617552578449249267578125">
        <ele>1865.5999755859375</ele>
        <time>2021-08-18T07:40:54.000Z</time>
      </trkpt>
      <trkpt lat="43.072370477020740509033203125" lon="-6.073097549378871917724609375">
        <ele>1866.5999755859375</ele>
        <time>2021-08-18T07:40:58.000Z</time>
      </trkpt>
      <trkpt lat="43.0723696388304233551025390625" lon="-6.0730997286736965179443359375">
        <ele>1867</ele>
        <time>2021-08-18T07:41:00.000Z</time>
      </trkpt>
      <trkpt lat="43.07236318476498126983642578125" lon="-6.07310517691075801849365234375">
        <ele>1867.199951171875</ele>
        <time>2021-08-18T07:41:02.000Z</time>
      </trkpt>
      <trkpt lat="43.07235245592892169952392578125" lon="-6.07311867177486419677734375">
        <ele>1867.800048828125</ele>
        <time>2021-08-18T07:41:06.000Z</time>
      </trkpt>
      <trkpt lat="43.0723471753299236297607421875" lon="-6.07312059961259365081787109375">
        <ele>1868</ele>
        <time>2021-08-18T07:41:07.000Z</time>
      </trkpt>
      <trkpt lat="43.07234130799770355224609375" lon="-6.07311590574681758880615234375">
        <ele>1868.4000244140625</ele>
        <time>2021-08-18T07:41:09.000Z</time>
      </trkpt>
      <trkpt lat="43.0723287351429462432861328125" lon="-6.07312277890741825103759765625">
        <ele>1869</ele>
        <time>2021-08-18T07:41:11.000Z</time>
      </trkpt>
      <trkpt lat="43.07232831604778766632080078125" lon="-6.07312738895416259765625">
        <ele>1869.4000244140625</ele>
        <time>2021-08-18T07:41:12.000Z</time>
      </trkpt>
      <trkpt lat="43.07232680730521678924560546875" lon="-6.07313602231442928314208984375">
        <ele>1870.199951171875</ele>
        <time>2021-08-18T07:41:15.000Z</time>
      </trkpt>
      <trkpt lat="43.072318844497203826904296875" lon="-6.0731406323611736297607421875">
        <ele>1870.5999755859375</ele>
        <time>2021-08-18T07:41:17.000Z</time>
      </trkpt>
      <trkpt lat="43.072308786213397979736328125" lon="-6.07313283719122409820556640625">
        <ele>1871.199951171875</ele>
        <time>2021-08-18T07:41:20.000Z</time>
      </trkpt>
      <trkpt lat="43.0722968839108943939208984375" lon="-6.0731356032192707061767578125">
        <ele>1871.4000244140625</ele>
        <time>2021-08-18T07:41:22.000Z</time>
      </trkpt>
      <trkpt lat="43.07229244150221347808837890625" lon="-6.07316116802394390106201171875">
        <ele>1872.4000244140625</ele>
        <time>2021-08-18T07:41:26.000Z</time>
      </trkpt>
      <trkpt lat="43.0722724087536334991455078125" lon="-6.07317172922194004058837890625">
        <ele>1873.199951171875</ele>
        <time>2021-08-18T07:41:31.000Z</time>
      </trkpt>
      <trkpt lat="43.07226813398301601409912109375" lon="-6.07317374087870121002197265625">
        <ele>1873.5999755859375</ele>
        <time>2021-08-18T07:41:32.000Z</time>
      </trkpt>
      <trkpt lat="43.07224349118769168853759765625" lon="-6.0731689631938934326171875">
        <ele>1874.800048828125</ele>
        <time>2021-08-18T07:41:37.000Z</time>
      </trkpt>
      <trkpt lat="43.07222270406782627105712890625" lon="-6.0731647722423076629638671875">
        <ele>1875.800048828125</ele>
        <time>2021-08-18T07:41:41.000Z</time>
      </trkpt>
      <trkpt lat="43.072203509509563446044921875" lon="-6.07316167093813419342041015625">
        <ele>1876.5999755859375</ele>
        <time>2021-08-18T07:41:44.000Z</time>
      </trkpt>
      <trkpt lat="43.07219571433961391448974609375" lon="-6.0731607489287853240966796875">
        <ele>1877.199951171875</ele>
        <time>2021-08-18T07:41:46.000Z</time>
      </trkpt>
      <trkpt lat="43.0721587501466274261474609375" lon="-6.073177345097064971923828125">
        <ele>1878.199951171875</ele>
        <time>2021-08-18T07:41:52.000Z</time>
      </trkpt>
      <trkpt lat="43.0721356160938739776611328125" lon="-6.07318597845733165740966796875">
        <ele>1879.199951171875</ele>
        <time>2021-08-18T07:41:56.000Z</time>
      </trkpt>
      <trkpt lat="43.07213016785681247711181640625" lon="-6.0732056759297847747802734375">
        <ele>1880</ele>
        <time>2021-08-18T07:41:59.000Z</time>
      </trkpt>
      <trkpt lat="43.07213075459003448486328125" lon="-6.073220260441303253173828125">
        <ele>1880.5999755859375</ele>
        <time>2021-08-18T07:42:01.000Z</time>
      </trkpt>
      <trkpt lat="43.07214290834963321685791015625" lon="-6.07324917800724506378173828125">
        <ele>1881.5999755859375</ele>
        <time>2021-08-18T07:42:05.000Z</time>
      </trkpt>
      <trkpt lat="43.07215497829020023345947265625" lon="-6.073292680084705352783203125">
        <ele>1882.199951171875</ele>
        <time>2021-08-18T07:42:10.000Z</time>
      </trkpt>
      <trkpt lat="43.0721641145646572113037109375" lon="-6.07330977916717529296875">
        <ele>1882.5999755859375</ele>
        <time>2021-08-18T07:42:12.000Z</time>
      </trkpt>
      <trkpt lat="43.07215414009988307952880859375" lon="-6.07334355823695659637451171875">
        <ele>1883.5999755859375</ele>
        <time>2021-08-18T07:42:16.000Z</time>
      </trkpt>
      <trkpt lat="43.07215045206248760223388671875" lon="-6.07334892265498638153076171875">
        <ele>1883.5999755859375</ele>
        <time>2021-08-18T07:42:17.000Z</time>
      </trkpt>
      <trkpt lat="43.072137124836444854736328125" lon="-6.07337574474513530731201171875">
        <ele>1884.800048828125</ele>
        <time>2021-08-18T07:42:21.000Z</time>
      </trkpt>
      <trkpt lat="43.0721222050487995147705078125" lon="-6.07338915579020977020263671875">
        <ele>1885.800048828125</ele>
        <time>2021-08-18T07:42:25.000Z</time>
      </trkpt>
      <trkpt lat="43.0721158348023891448974609375" lon="-6.07338781468570232391357421875">
        <ele>1886.199951171875</ele>
        <time>2021-08-18T07:42:27.000Z</time>
      </trkpt>
      <trkpt lat="43.0720970593392848968505859375" lon="-6.07336518354713916778564453125">
        <ele>1887.199951171875</ele>
        <time>2021-08-18T07:42:31.000Z</time>
      </trkpt>
      <trkpt lat="43.07206847704946994781494140625" lon="-6.073397286236286163330078125">
        <ele>1888.4000244140625</ele>
        <time>2021-08-18T07:42:36.000Z</time>
      </trkpt>
      <trkpt lat="43.07206210680305957794189453125" lon="-6.07340843416750431060791015625">
        <ele>1888.5999755859375</ele>
        <time>2021-08-18T07:42:38.000Z</time>
      </trkpt>
      <trkpt lat="43.07204534299671649932861328125" lon="-6.0734336636960506439208984375">
        <ele>1889.4000244140625</ele>
        <time>2021-08-18T07:42:41.000Z</time>
      </trkpt>
      <trkpt lat="43.0719894357025623321533203125" lon="-6.0734668560326099395751953125">
        <ele>1890</ele>
        <time>2021-08-18T07:42:48.000Z</time>
      </trkpt>
      <trkpt lat="43.07198817841708660125732421875" lon="-6.073462665081024169921875">
        <ele>1890</ele>
        <time>2021-08-18T07:42:49.000Z</time>
      </trkpt>
      <trkpt lat="43.07199689559638500213623046875" lon="-6.07342234812676906585693359375">
        <ele>1890</ele>
        <time>2021-08-18T07:42:55.000Z</time>
      </trkpt>
      <trkpt lat="43.07199974544346332550048828125" lon="-6.0734125413000583648681640625">
        <ele>1890.4000244140625</ele>
        <time>2021-08-18T07:42:58.000Z</time>
      </trkpt>
      <trkpt lat="43.07200158946216106414794921875" lon="-6.07341161929070949554443359375">
        <ele>1890.5999755859375</ele>
        <time>2021-08-18T07:43:02.000Z</time>
      </trkpt>
      <trkpt lat="43.07200460694730281829833984375" lon="-6.0734162293374538421630859375">
        <ele>1890.5999755859375</ele>
        <time>2021-08-18T07:43:05.000Z</time>
      </trkpt>
      <trkpt lat="43.072004020214080810546875" lon="-6.07341396622359752655029296875">
        <ele>1890.5999755859375</ele>
        <time>2021-08-18T07:43:11.000Z</time>
      </trkpt>
      <trkpt lat="43.07200762443244457244873046875" lon="-6.073426790535449981689453125">
        <ele>1890.5999755859375</ele>
        <time>2021-08-18T07:43:16.000Z</time>
      </trkpt>
      <trkpt lat="43.07200209237635135650634765625" lon="-6.07344464398920536041259765625">
        <ele>1890.199951171875</ele>
        <time>2021-08-18T07:43:19.000Z</time>
      </trkpt>
      <trkpt lat="43.071968816220760345458984375" lon="-6.0734896548092365264892578125">
        <ele>1890.199951171875</ele>
        <time>2021-08-18T07:43:25.000Z</time>
      </trkpt>
      <trkpt lat="43.07196135632693767547607421875" lon="-6.07349552214145660400390625">
        <ele>1890.199951171875</ele>
        <time>2021-08-18T07:43:26.000Z</time>
      </trkpt>
      <trkpt lat="43.07193771935999393463134765625" lon="-6.073514632880687713623046875">
        <ele>1890.199951171875</ele>
        <time>2021-08-18T07:43:28.000Z</time>
      </trkpt>
      <trkpt lat="43.071875609457492828369140625" lon="-6.0735500045120716094970703125">
        <ele>1890.4000244140625</ele>
        <time>2021-08-18T07:43:35.000Z</time>
      </trkpt>
      <trkpt lat="43.0718663893640041351318359375" lon="-6.073556877672672271728515625">
        <ele>1890.4000244140625</ele>
        <time>2021-08-18T07:43:36.000Z</time>
      </trkpt>
      <trkpt lat="43.071799166500568389892578125" lon="-6.07360272668302059173583984375">
        <ele>1891.199951171875</ele>
        <time>2021-08-18T07:43:44.000Z</time>
      </trkpt>
      <trkpt lat="43.071775026619434356689453125" lon="-6.07362653128802776336669921875">
        <ele>1891.4000244140625</ele>
        <time>2021-08-18T07:43:47.000Z</time>
      </trkpt>
      <trkpt lat="43.07176186703145503997802734375" lon="-6.07366140000522136688232421875">
        <ele>1892</ele>
        <time>2021-08-18T07:43:50.000Z</time>
      </trkpt>
      <trkpt lat="43.07175650261342525482177734375" lon="-6.07367145828902721405029296875">
        <ele>1892</ele>
        <time>2021-08-18T07:43:51.000Z</time>
      </trkpt>
      <trkpt lat="43.0717336200177669525146484375" lon="-6.07374404557049274444580078125">
        <ele>1892.199951171875</ele>
        <time>2021-08-18T07:43:58.000Z</time>
      </trkpt>
      <trkpt lat="43.0717306025326251983642578125" lon="-6.07376106083393096923828125">
        <ele>1892.5999755859375</ele>
        <time>2021-08-18T07:44:00.000Z</time>
      </trkpt>
      <trkpt lat="43.0717289261519908905029296875" lon="-6.07377086766064167022705078125">
        <ele>1892.5999755859375</ele>
        <time>2021-08-18T07:44:01.000Z</time>
      </trkpt>
      <trkpt lat="43.07172750122845172882080078125" lon="-6.073784865438938140869140625">
        <ele>1892.5999755859375</ele>
        <time>2021-08-18T07:44:02.000Z</time>
      </trkpt>
      <trkpt lat="43.07172666303813457489013671875" lon="-6.0737991146743297576904296875">
        <ele>1892.800048828125</ele>
        <time>2021-08-18T07:44:03.000Z</time>
      </trkpt>
      <trkpt lat="43.07172238826751708984375" lon="-6.07384261675179004669189453125">
        <ele>1892.800048828125</ele>
        <time>2021-08-18T07:44:08.000Z</time>
      </trkpt>
      <trkpt lat="43.0717210471630096435546875" lon="-6.07384814880788326263427734375">
        <ele>1892.800048828125</ele>
        <time>2021-08-18T07:44:09.000Z</time>
      </trkpt>
      <trkpt lat="43.071708641946315765380859375" lon="-6.07387413270771503448486328125">
        <ele>1893.4000244140625</ele>
        <time>2021-08-18T07:44:18.000Z</time>
      </trkpt>
      <trkpt lat="43.07170830667018890380859375" lon="-6.07387614436447620391845703125">
        <ele>1893.4000244140625</ele>
        <time>2021-08-18T07:44:20.000Z</time>
      </trkpt>
      <trkpt lat="43.07171073742210865020751953125" lon="-6.0738651640713214874267578125">
        <ele>1893.4000244140625</ele>
        <time>2021-08-18T07:44:24.000Z</time>
      </trkpt>
      <trkpt lat="43.07170654647052288055419921875" lon="-6.07385820709168910980224609375">
        <ele>1893</ele>
        <time>2021-08-18T07:44:33.000Z</time>
      </trkpt>
      <trkpt lat="43.071704618632793426513671875" lon="-6.07385384850203990936279296875">
        <ele>1893.199951171875</ele>
        <time>2021-08-18T07:44:37.000Z</time>
      </trkpt>
      <trkpt lat="43.07170386426150798797607421875" lon="-6.07385233975946903228759765625">
        <ele>1893.5999755859375</ele>
        <time>2021-08-18T07:44:38.000Z</time>
      </trkpt>
      <trkpt lat="43.07170520536601543426513671875" lon="-6.07384999282658100128173828125">
        <ele>1894.4000244140625</ele>
        <time>2021-08-18T07:44:50.000Z</time>
      </trkpt>
      <trkpt lat="43.0717049539089202880859375" lon="-6.07384932227432727813720703125">
        <ele>1894.4000244140625</ele>
        <time>2021-08-18T07:44:52.000Z</time>
      </trkpt>
      <trkpt lat="43.07170487008988857269287109375" lon="-6.07384915463626384735107421875">
        <ele>1894.4000244140625</ele>
        <time>2021-08-18T07:44:53.000Z</time>
      </trkpt>
      <trkpt lat="43.07170503772795200347900390625" lon="-6.07384915463626384735107421875">
        <ele>1894.4000244140625</ele>
        <time>2021-08-18T07:44:56.000Z</time>
      </trkpt>
      <trkpt lat="43.07171543128788471221923828125" lon="-6.0738232545554637908935546875">
        <ele>1893.199951171875</ele>
        <time>2021-08-18T07:45:01.000Z</time>
      </trkpt>
      <trkpt lat="43.07170621119439601898193359375" lon="-6.07380171306431293487548828125">
        <ele>1892.5999755859375</ele>
        <time>2021-08-18T07:45:04.000Z</time>
      </trkpt>
      <trkpt lat="43.0716893635690212249755859375" lon="-6.0738021321594715118408203125">
        <ele>1893</ele>
        <time>2021-08-18T07:45:08.000Z</time>
      </trkpt>
      <trkpt lat="43.0716900341212749481201171875" lon="-6.0738038085401058197021484375">
        <ele>1893.4000244140625</ele>
        <time>2021-08-18T07:45:15.000Z</time>
      </trkpt>
      <trkpt lat="43.0716893635690212249755859375" lon="-6.0738011263310909271240234375">
        <ele>1893.199951171875</ele>
        <time>2021-08-18T07:45:18.000Z</time>
      </trkpt>
      <trkpt lat="43.07168693281710147857666015625" lon="-6.0737957619130611419677734375">
        <ele>1893</ele>
        <time>2021-08-18T07:45:23.000Z</time>
      </trkpt>
      <trkpt lat="43.0716853402554988861083984375" lon="-6.073800288140773773193359375">
        <ele>1893.199951171875</ele>
        <time>2021-08-18T07:45:32.000Z</time>
      </trkpt>
      <trkpt lat="43.07168642990291118621826171875" lon="-6.07380003668367862701416015625">
        <ele>1893.199951171875</ele>
        <time>2021-08-18T07:45:34.000Z</time>
      </trkpt>
      <trkpt lat="43.07168676517903804779052734375" lon="-6.0737997852265834808349609375">
        <ele>1893</ele>
        <time>2021-08-18T07:45:35.000Z</time>
      </trkpt>
      <trkpt lat="43.07168860919773578643798828125" lon="-6.07379785738885402679443359375">
        <ele>1893</ele>
        <time>2021-08-18T07:45:38.000Z</time>
      </trkpt>
      <trkpt lat="43.07169967330992221832275390625" lon="-6.07380070723593235015869140625">
        <ele>1893</ele>
        <time>2021-08-18T07:45:45.000Z</time>
      </trkpt>
      <trkpt lat="43.07170160114765167236328125" lon="-6.0737940855324268341064453125">
        <ele>1893</ele>
        <time>2021-08-18T07:45:50.000Z</time>
      </trkpt>
      <trkpt lat="43.0717041157186031341552734375" lon="-6.07380204834043979644775390625">
        <ele>1893</ele>
        <time>2021-08-18T07:45:57.000Z</time>
      </trkpt>
      <trkpt lat="43.07170696556568145751953125" lon="-6.07380053959786891937255859375">
        <ele>1893</ele>
        <time>2021-08-18T07:46:05.000Z</time>
      </trkpt>
      <trkpt lat="43.07170704938471317291259765625" lon="-6.0738001205027103424072265625">
        <ele>1893</ele>
        <time>2021-08-18T07:46:06.000Z</time>
      </trkpt>
      <trkpt lat="43.0717076361179351806640625" lon="-6.07379919849336147308349609375">
        <ele>1893</ele>
        <time>2021-08-18T07:46:20.000Z</time>
      </trkpt>
      <trkpt lat="43.0717074684798717498779296875" lon="-6.0737984441220760345458984375">
        <ele>1893</ele>
        <time>2021-08-18T07:46:21.000Z</time>
      </trkpt>
      <trkpt lat="43.0717074684798717498779296875" lon="-6.07379785738885402679443359375">
        <ele>1893</ele>
        <time>2021-08-18T07:46:22.000Z</time>
      </trkpt>
      <trkpt lat="43.07170738466084003448486328125" lon="-6.07379727065563201904296875">
        <ele>1893</ele>
        <time>2021-08-18T07:46:23.000Z</time>
      </trkpt>
      <trkpt lat="43.0717071332037448883056640625" lon="-6.07379727065563201904296875">
        <ele>1893</ele>
        <time>2021-08-18T07:46:25.000Z</time>
      </trkpt>
      <trkpt lat="43.07170696556568145751953125" lon="-6.07379651628434658050537109375">
        <ele>1893</ele>
        <time>2021-08-18T07:46:31.000Z</time>
      </trkpt>
      <trkpt lat="43.071708977222442626953125" lon="-6.07379567809402942657470703125">
        <ele>1893</ele>
        <time>2021-08-18T07:46:33.000Z</time>
      </trkpt>
      <trkpt lat="43.071710653603076934814453125" lon="-6.07379199005663394927978515625">
        <ele>1893</ele>
        <time>2021-08-18T07:46:35.000Z</time>
      </trkpt>
      <trkpt lat="43.07170755229890346527099609375" lon="-6.07378109358251094818115234375">
        <ele>1893</ele>
        <time>2021-08-18T07:46:37.000Z</time>
      </trkpt>
      <trkpt lat="43.071707971394062042236328125" lon="-6.0737749747931957244873046875">
        <ele>1893</ele>
        <time>2021-08-18T07:46:38.000Z</time>
      </trkpt>
      <trkpt lat="43.07168743573129177093505859375" lon="-6.07375167310237884521484375">
        <ele>1893</ele>
        <time>2021-08-18T07:46:47.000Z</time>
      </trkpt>
      <trkpt lat="43.071675784885883331298828125" lon="-6.07375033199787139892578125">
        <ele>1893</ele>
        <time>2021-08-18T07:46:49.000Z</time>
      </trkpt>
      <trkpt lat="43.07167067192494869232177734375" lon="-6.0737478174269199371337890625">
        <ele>1893</ele>
        <time>2021-08-18T07:46:52.000Z</time>
      </trkpt>
      <trkpt lat="43.0716712586581707000732421875" lon="-6.0737484879791736602783203125">
        <ele>1893</ele>
        <time>2021-08-18T07:46:53.000Z</time>
      </trkpt>
      <trkpt lat="43.07167151011526584625244140625" lon="-6.07374857179820537567138671875">
        <ele>1893</ele>
        <time>2021-08-18T07:46:56.000Z</time>
      </trkpt>
      <trkpt lat="43.07166581042110919952392578125" lon="-6.0737441293895244598388671875">
        <ele>1893</ele>
        <time>2021-08-18T07:47:11.000Z</time>
      </trkpt>
      <trkpt lat="43.0716672353446483612060546875" lon="-6.0737441293895244598388671875">
        <ele>1893</ele>
        <time>2021-08-18T07:47:13.000Z</time>
      </trkpt>
      <trkpt lat="43.0716652236878871917724609375" lon="-6.07371739111840724945068359375">
        <ele>1893</ele>
        <time>2021-08-18T07:47:18.000Z</time>
      </trkpt>
      <trkpt lat="43.0716645531356334686279296875" lon="-6.07370875775814056396484375">
        <ele>1893</ele>
        <time>2021-08-18T07:47:21.000Z</time>
      </trkpt>
      <trkpt lat="43.0716581828892230987548828125" lon="-6.073708422482013702392578125">
        <ele>1893</ele>
        <time>2021-08-18T07:47:34.000Z</time>
      </trkpt>
      <trkpt lat="43.0716585181653499603271484375" lon="-6.07370867393910884857177734375">
        <ele>1893</ele>
        <time>2021-08-18T07:47:35.000Z</time>
      </trkpt>
      <trkpt lat="43.07165910489857196807861328125" lon="-6.0737092606723308563232421875">
        <ele>1893</ele>
        <time>2021-08-18T07:47:38.000Z</time>
      </trkpt>
      <trkpt lat="43.071659021079540252685546875" lon="-6.0737049020826816558837890625">
        <ele>1893</ele>
        <time>2021-08-18T07:47:43.000Z</time>
      </trkpt>
      <trkpt lat="43.07166002690792083740234375" lon="-6.07370263896882534027099609375">
        <ele>1893</ele>
        <time>2021-08-18T07:47:45.000Z</time>
      </trkpt>
      <trkpt lat="43.07165776379406452178955078125" lon="-6.07370967976748943328857421875">
        <ele>1893</ele>
        <time>2021-08-18T07:47:48.000Z</time>
      </trkpt>
      <trkpt lat="43.0716526508331298828125" lon="-6.0737142898142337799072265625">
        <ele>1893</ele>
        <time>2021-08-18T07:47:53.000Z</time>
      </trkpt>
      <trkpt lat="43.0716467835009098052978515625" lon="-6.073709763586521148681640625">
        <ele>1893</ele>
        <time>2021-08-18T07:48:01.000Z</time>
      </trkpt>
      <trkpt lat="43.071645610034465789794921875" lon="-6.0737102665007114410400390625">
        <ele>1893</ele>
        <time>2021-08-18T07:48:06.000Z</time>
      </trkpt>
      <trkpt lat="43.071646951138973236083984375" lon="-6.07370649464428424835205078125">
        <ele>1893</ele>
        <time>2021-08-18T07:48:11.000Z</time>
      </trkpt>
      <trkpt lat="43.07164728641510009765625" lon="-6.07370607554912567138671875">
        <ele>1893</ele>
        <time>2021-08-18T07:48:12.000Z</time>
      </trkpt>
      <trkpt lat="43.0716524831950664520263671875" lon="-6.0736961849033832550048828125">
        <ele>1893</ele>
        <time>2021-08-18T07:48:20.000Z</time>
      </trkpt>
      <trkpt lat="43.07165273465216159820556640625" lon="-6.0736955143511295318603515625">
        <ele>1893</ele>
        <time>2021-08-18T07:48:22.000Z</time>
      </trkpt>
      <trkpt lat="43.071649968624114990234375" lon="-6.07366709969937801361083984375">
        <ele>1893</ele>
        <time>2021-08-18T07:48:26.000Z</time>
      </trkpt>
      <trkpt lat="43.07165306992828845977783203125" lon="-6.0736140422523021697998046875">
        <ele>1893</ele>
        <time>2021-08-18T07:48:31.000Z</time>
      </trkpt>
      <trkpt lat="43.0716642178595066070556640625" lon="-6.0735939256846904754638671875">
        <ele>1893</ele>
        <time>2021-08-18T07:48:33.000Z</time>
      </trkpt>
      <trkpt lat="43.07167318649590015411376953125" lon="-6.07357020489871501922607421875">
        <ele>1893</ele>
        <time>2021-08-18T07:48:35.000Z</time>
      </trkpt>
      <trkpt lat="43.0716850049793720245361328125" lon="-6.07354388572275638580322265625">
        <ele>1893</ele>
        <time>2021-08-18T07:48:37.000Z</time>
      </trkpt>
      <trkpt lat="43.0716955661773681640625" lon="-6.07350935228168964385986328125">
        <ele>1893</ele>
        <time>2021-08-18T07:48:41.000Z</time>
      </trkpt>
      <trkpt lat="43.07170000858604907989501953125" lon="-6.07350516133010387420654296875">
        <ele>1893</ele>
        <time>2021-08-18T07:48:44.000Z</time>
      </trkpt>
      <trkpt lat="43.07170151732861995697021484375" lon="-6.0735050775110721588134765625">
        <ele>1893</ele>
        <time>2021-08-18T07:48:45.000Z</time>
      </trkpt>
      <trkpt lat="43.0717049539089202880859375" lon="-6.073510609567165374755859375">
        <ele>1892.5999755859375</ele>
        <time>2021-08-18T07:48:52.000Z</time>
      </trkpt>
      <trkpt lat="43.07170721702277660369873046875" lon="-6.07350583188235759735107421875">
        <ele>1892.5999755859375</ele>
        <time>2021-08-18T07:48:57.000Z</time>
      </trkpt>
      <trkpt lat="43.07170738466084003448486328125" lon="-6.07350482605397701263427734375">
        <ele>1892.5999755859375</ele>
        <time>2021-08-18T07:49:00.000Z</time>
      </trkpt>
      <trkpt lat="43.071707971394062042236328125" lon="-6.073503904044628143310546875">
        <ele>1892.800048828125</ele>
        <time>2021-08-18T07:49:03.000Z</time>
      </trkpt>
      <trkpt lat="43.07171224616467952728271484375" lon="-6.073505580425262451171875">
        <ele>1892.5999755859375</ele>
        <time>2021-08-18T07:49:19.000Z</time>
      </trkpt>
      <trkpt lat="43.07171191088855266571044921875" lon="-6.0735091008245944976806640625">
        <ele>1892.5999755859375</ele>
        <time>2021-08-18T07:49:21.000Z</time>
      </trkpt>
      <trkpt lat="43.07171124033629894256591796875" lon="-6.073514632880687713623046875">
        <ele>1892.4000244140625</ele>
        <time>2021-08-18T07:49:25.000Z</time>
      </trkpt>
      <trkpt lat="43.07170721702277660369873046875" lon="-6.0735203325748443603515625">
        <ele>1893</ele>
        <time>2021-08-18T07:49:38.000Z</time>
      </trkpt>
      <trkpt lat="43.07170738466084003448486328125" lon="-6.07351672835648059844970703125">
        <ele>1892.4000244140625</ele>
        <time>2021-08-18T07:49:56.000Z</time>
      </trkpt>
      <trkpt lat="43.07170771993696689605712890625" lon="-6.07351287268102169036865234375">
        <ele>1892.4000244140625</ele>
        <time>2021-08-18T07:49:57.000Z</time>
      </trkpt>
      <trkpt lat="43.0717084743082523345947265625" lon="-6.07351136393845081329345703125">
        <ele>1892.4000244140625</ele>
        <time>2021-08-18T07:49:59.000Z</time>
      </trkpt>
      <trkpt lat="43.07170922867953777313232421875" lon="-6.0735117830336093902587890625">
        <ele>1892.4000244140625</ele>
        <time>2021-08-18T07:50:00.000Z</time>
      </trkpt>
      <trkpt lat="43.071711324155330657958984375" lon="-6.07349292375147342681884765625">
        <ele>1892.4000244140625</ele>
        <time>2021-08-18T07:50:07.000Z</time>
      </trkpt>
      <trkpt lat="43.0717141740024089813232421875" lon="-6.07345084659755229949951171875">
        <ele>1892.4000244140625</ele>
        <time>2021-08-18T07:50:12.000Z</time>
      </trkpt>
      <trkpt lat="43.0717245675623416900634765625" lon="-6.073386557400226593017578125">
        <ele>1892.4000244140625</ele>
        <time>2021-08-18T07:50:17.000Z</time>
      </trkpt>
      <trkpt lat="43.07172574102878570556640625" lon="-6.07329879887402057647705078125">
        <ele>1891.4000244140625</ele>
        <time>2021-08-18T07:50:24.000Z</time>
      </trkpt>
      <trkpt lat="43.07172532193362712860107421875" lon="-6.07329293154180049896240234375">
        <ele>1891.199951171875</ele>
        <time>2021-08-18T07:50:25.000Z</time>
      </trkpt>
      <trkpt lat="43.0717198736965656280517578125" lon="-6.0733003914356231689453125">
        <ele>1891</ele>
        <time>2021-08-18T07:50:27.000Z</time>
      </trkpt>
      <trkpt lat="43.07173403911292552947998046875" lon="-6.073371469974517822265625">
        <ele>1891</ele>
        <time>2021-08-18T07:50:34.000Z</time>
      </trkpt>
      <trkpt lat="43.07173311710357666015625" lon="-6.073372475802898406982421875">
        <ele>1891</ele>
        <time>2021-08-18T07:50:35.000Z</time>
      </trkpt>
      <trkpt lat="43.071722723543643951416015625" lon="-6.073337607085704803466796875">
        <ele>1890.800048828125</ele>
        <time>2021-08-18T07:50:40.000Z</time>
      </trkpt>
      <trkpt lat="43.071706630289554595947265625" lon="-6.0733287222683429718017578125">
        <ele>1891</ele>
        <time>2021-08-18T07:50:48.000Z</time>
      </trkpt>
      <trkpt lat="43.07170956395566463470458984375" lon="-6.07334439642727375030517578125">
        <ele>1891</ele>
        <time>2021-08-18T07:50:49.000Z</time>
      </trkpt>
      <trkpt lat="43.07169145904481410980224609375" lon="-6.0734497569501399993896484375">
        <ele>1891.4000244140625</ele>
        <time>2021-08-18T07:50:55.000Z</time>
      </trkpt>
      <trkpt lat="43.07169129140675067901611328125" lon="-6.0734671913087368011474609375">
        <ele>1891.4000244140625</ele>
        <time>2021-08-18T07:50:56.000Z</time>
      </trkpt>
      <trkpt lat="43.07168140076100826263427734375" lon="-6.07355721294879913330078125">
        <ele>1893</ele>
        <time>2021-08-18T07:51:01.000Z</time>
      </trkpt>
      <trkpt lat="43.07168416678905487060546875" lon="-6.0735738091170787811279296875">
        <ele>1893</ele>
        <time>2021-08-18T07:51:02.000Z</time>
      </trkpt>
      <trkpt lat="43.07169028557837009429931640625" lon="-6.07362099923193454742431640625">
        <ele>1893.5999755859375</ele>
        <time>2021-08-18T07:51:05.000Z</time>
      </trkpt>
      <trkpt lat="43.07168777100741863250732421875" lon="-6.07368688099086284637451171875">
        <ele>1893.5999755859375</ele>
        <time>2021-08-18T07:51:09.000Z</time>
      </trkpt>
      <trkpt lat="43.0716870166361331939697265625" lon="-6.0737032257020473480224609375">
        <ele>1893.5999755859375</ele>
        <time>2021-08-18T07:51:10.000Z</time>
      </trkpt>
      <trkpt lat="43.0716866813600063323974609375" lon="-6.0737196542322635650634765625">
        <ele>1893.5999755859375</ele>
        <time>2021-08-18T07:51:11.000Z</time>
      </trkpt>
      <trkpt lat="43.071687854826450347900390625" lon="-6.07376416213810443878173828125">
        <ele>1893.800048828125</ele>
        <time>2021-08-18T07:51:14.000Z</time>
      </trkpt>
      <trkpt lat="43.0716888606548309326171875" lon="-6.0737764835357666015625">
        <ele>1894</ele>
        <time>2021-08-18T07:51:16.000Z</time>
      </trkpt>
      <trkpt lat="43.071687519550323486328125" lon="-6.07377774082124233245849609375">
        <ele>1894.199951171875</ele>
        <time>2021-08-18T07:51:17.000Z</time>
      </trkpt>
      <trkpt lat="43.07169313542544841766357421875" lon="-6.073776818811893463134765625">
        <ele>1894.4000244140625</ele>
        <time>2021-08-18T07:51:22.000Z</time>
      </trkpt>
      <trkpt lat="43.07169112376868724822998046875" lon="-6.07378176413476467132568359375">
        <ele>1894.199951171875</ele>
        <time>2021-08-18T07:51:23.000Z</time>
      </trkpt>
      <trkpt lat="43.0716888606548309326171875" lon="-6.0737877152860164642333984375">
        <ele>1894.199951171875</ele>
        <time>2021-08-18T07:51:24.000Z</time>
      </trkpt>
      <trkpt lat="43.0716880224645137786865234375" lon="-6.07379861176013946533203125">
        <ele>1894</ele>
        <time>2021-08-18T07:51:27.000Z</time>
      </trkpt>
      <trkpt lat="43.0716876871883869171142578125" lon="-6.073798947036266326904296875">
        <ele>1894</ele>
        <time>2021-08-18T07:51:28.000Z</time>
      </trkpt>
      <trkpt lat="43.07168760336935520172119140625" lon="-6.07380053959786891937255859375">
        <ele>1893.800048828125</ele>
        <time>2021-08-18T07:51:29.000Z</time>
      </trkpt>
      <trkpt lat="43.0716863460838794708251953125" lon="-6.0737997852265834808349609375">
        <ele>1893.800048828125</ele>
        <time>2021-08-18T07:51:30.000Z</time>
      </trkpt>
      <trkpt lat="43.07168659754097461700439453125" lon="-6.07379869557917118072509765625">
        <ele>1893.800048828125</ele>
        <time>2021-08-18T07:51:31.000Z</time>
      </trkpt>
      <trkpt lat="43.07168760336935520172119140625" lon="-6.07379718683660030364990234375">
        <ele>1893.800048828125</ele>
        <time>2021-08-18T07:51:32.000Z</time>
      </trkpt>
      <trkpt lat="43.07168844155967235565185546875" lon="-6.07379701919853687286376953125">
        <ele>1893.800048828125</ele>
        <time>2021-08-18T07:51:33.000Z</time>
      </trkpt>
      <trkpt lat="43.07168894447386264801025390625" lon="-6.0737967677414417266845703125">
        <ele>1893.800048828125</ele>
        <time>2021-08-18T07:51:34.000Z</time>
      </trkpt>
      <trkpt lat="43.07168877683579921722412109375" lon="-6.07379592955112457275390625">
        <ele>1893.800048828125</ele>
        <time>2021-08-18T07:51:35.000Z</time>
      </trkpt>
      <trkpt lat="43.0716896988451480865478515625" lon="-6.07379324734210968017578125">
        <ele>1894</ele>
        <time>2021-08-18T07:51:38.000Z</time>
      </trkpt>
      <trkpt lat="43.07169615291059017181396484375" lon="-6.073794923722743988037109375">
        <ele>1894.199951171875</ele>
        <time>2021-08-18T07:51:44.000Z</time>
      </trkpt>
      <trkpt lat="43.0716953985393047332763671875" lon="-6.0737950913608074188232421875">
        <ele>1894.199951171875</ele>
        <time>2021-08-18T07:51:48.000Z</time>
      </trkpt>
      <trkpt lat="43.0716953985393047332763671875" lon="-6.0737954266369342803955078125">
        <ele>1894</ele>
        <time>2021-08-18T07:51:50.000Z</time>
      </trkpt>
      <trkpt lat="43.07169623672962188720703125" lon="-6.0737944208085536956787109375">
        <ele>1894</ele>
        <time>2021-08-18T07:51:53.000Z</time>
      </trkpt>
      <trkpt lat="43.07169648818671703338623046875" lon="-6.07379416935145854949951171875">
        <ele>1894</ele>
        <time>2021-08-18T07:51:56.000Z</time>
      </trkpt>
      <trkpt lat="43.0716950632631778717041015625" lon="-6.073792241513729095458984375">
        <ele>1894</ele>
        <time>2021-08-18T07:52:04.000Z</time>
      </trkpt>
      <trkpt lat="43.0716947279870510101318359375" lon="-6.07379299588501453399658203125">
        <ele>1894</ele>
        <time>2021-08-18T07:52:07.000Z</time>
      </trkpt>
      <trkpt lat="43.071695230901241302490234375" lon="-6.07379299588501453399658203125">
        <ele>1894.199951171875</ele>
        <time>2021-08-18T07:52:10.000Z</time>
      </trkpt>
      <trkpt lat="43.07169363833963871002197265625" lon="-6.07379458844661712646484375">
        <ele>1894.199951171875</ele>
        <time>2021-08-18T07:52:13.000Z</time>
      </trkpt>
      <trkpt lat="43.07169229723513126373291015625" lon="-6.0737907327711582183837890625">
        <ele>1893.800048828125</ele>
        <time>2021-08-18T07:52:19.000Z</time>
      </trkpt>
      <trkpt lat="43.07169447652995586395263671875" lon="-6.07378846965730190277099609375">
        <ele>1894</ele>
        <time>2021-08-18T07:52:25.000Z</time>
      </trkpt>
      <trkpt lat="43.071691207587718963623046875" lon="-6.07379400171339511871337890625">
        <ele>1894</ele>
        <time>2021-08-18T07:52:35.000Z</time>
      </trkpt>
      <trkpt lat="43.07169380597770214080810546875" lon="-6.0737917385995388031005859375">
        <ele>1894</ele>
        <time>2021-08-18T07:52:39.000Z</time>
      </trkpt>
      <trkpt lat="43.07171911932528018951416015625" lon="-6.073784194886684417724609375">
        <ele>1894</ele>
        <time>2021-08-18T07:52:49.000Z</time>
      </trkpt>
      <trkpt lat="43.0717398226261138916015625" lon="-6.0737887211143970489501953125">
        <ele>1894</ele>
        <time>2021-08-18T07:52:58.000Z</time>
      </trkpt>
      <trkpt lat="43.07174141518771648406982421875" lon="-6.07378629036247730255126953125">
        <ele>1894</ele>
        <time>2021-08-18T07:53:01.000Z</time>
      </trkpt>
      <trkpt lat="43.0717420019209384918212890625" lon="-6.07378461398184299468994140625">
        <ele>1894</ele>
        <time>2021-08-18T07:53:02.000Z</time>
      </trkpt>
      <trkpt lat="43.07175667025148868560791015625" lon="-6.073781512677669525146484375">
        <ele>1894</ele>
        <time>2021-08-18T07:53:08.000Z</time>
      </trkpt>
      <trkpt lat="43.07180394418537616729736328125" lon="-6.0737665928900241851806640625">
        <ele>1894</ele>
        <time>2021-08-18T07:53:20.000Z</time>
      </trkpt>
      <trkpt lat="43.07170889340341091156005859375" lon="-6.07375427149236202239990234375">
        <ele>1894</ele>
        <time>2021-08-18T07:53:30.000Z</time>
      </trkpt>
      <trkpt lat="43.0717094801366329193115234375" lon="-6.07375410385429859161376953125">
        <ele>1894</ele>
        <time>2021-08-18T07:53:34.000Z</time>
      </trkpt>
      <trkpt lat="43.0717098154127597808837890625" lon="-6.073752678930759429931640625">
        <ele>1894</ele>
        <time>2021-08-18T07:53:40.000Z</time>
      </trkpt>
      <trkpt lat="43.071711324155330657958984375" lon="-6.0737538523972034454345703125">
        <ele>1894</ele>
        <time>2021-08-18T07:53:43.000Z</time>
      </trkpt>
      <trkpt lat="43.0717111565172672271728515625" lon="-6.07375309802591800689697265625">
        <ele>1894</ele>
        <time>2021-08-18T07:53:45.000Z</time>
      </trkpt>
      <trkpt lat="43.0717108212411403656005859375" lon="-6.073752343654632568359375">
        <ele>1894</ele>
        <time>2021-08-18T07:53:50.000Z</time>
      </trkpt>
      <trkpt lat="43.07171358726918697357177734375" lon="-6.07374890707433223724365234375">
        <ele>1894</ele>
        <time>2021-08-18T07:54:00.000Z</time>
      </trkpt>
      <trkpt lat="43.0717138387262821197509765625" lon="-6.0737501643598079681396484375">
        <ele>1894</ele>
        <time>2021-08-18T07:54:03.000Z</time>
      </trkpt>
      <trkpt lat="43.07171392254531383514404296875" lon="-6.07374991290271282196044921875">
        <ele>1894</ele>
        <time>2021-08-18T07:54:04.000Z</time>
      </trkpt>
      <trkpt lat="43.07171769440174102783203125" lon="-6.07375997118651866912841796875">
        <ele>1894</ele>
        <time>2021-08-18T07:54:20.000Z</time>
      </trkpt>
      <trkpt lat="43.07172398082911968231201171875" lon="-6.0737565346062183380126953125">
        <ele>1894</ele>
        <time>2021-08-18T07:54:43.000Z</time>
      </trkpt>
      <trkpt lat="43.0716876871883869171142578125" lon="-6.073718480765819549560546875">
        <ele>1894</ele>
        <time>2021-08-18T07:54:53.000Z</time>
      </trkpt>
      <trkpt lat="43.07167519815266132354736328125" lon="-6.0736904852092266082763671875">
        <ele>1894</ele>
        <time>2021-08-18T07:54:57.000Z</time>
      </trkpt>
      <trkpt lat="43.0716692470014095306396484375" lon="-6.07369459234178066253662109375">
        <ele>1894</ele>
        <time>2021-08-18T07:55:00.000Z</time>
      </trkpt>
      <trkpt lat="43.0716648884117603302001953125" lon="-6.07369777746498584747314453125">
        <ele>1894</ele>
        <time>2021-08-18T07:55:02.000Z</time>
      </trkpt>
      <trkpt lat="43.07164669968187808990478515625" lon="-6.0736660100519657135009765625">
        <ele>1894</ele>
        <time>2021-08-18T07:55:11.000Z</time>
      </trkpt>
      <trkpt lat="43.0716219730675220489501953125" lon="-6.07363541610538959503173828125">
        <ele>1894</ele>
        <time>2021-08-18T07:55:14.000Z</time>
      </trkpt>
      <trkpt lat="43.07158232666552066802978515625" lon="-6.07358814217150211334228515625">
        <ele>1893.5999755859375</ele>
        <time>2021-08-18T07:55:20.000Z</time>
      </trkpt>
      <trkpt lat="43.0715006031095981597900390625" lon="-6.0735084302723407745361328125">
        <ele>1893.4000244140625</ele>
        <time>2021-08-18T07:55:30.000Z</time>
      </trkpt>
      <trkpt lat="43.0714070610702037811279296875" lon="-6.07344078831374645233154296875">
        <ele>1893.800048828125</ele>
        <time>2021-08-18T07:55:43.000Z</time>
      </trkpt>
      <trkpt lat="43.0713980086147785186767578125" lon="-6.07342972420156002044677734375">
        <ele>1893.5999755859375</ele>
        <time>2021-08-18T07:55:45.000Z</time>
      </trkpt>
      <trkpt lat="43.0713936500251293182373046875" lon="-6.07342620380222797393798828125">
        <ele>1893.5999755859375</ele>
        <time>2021-08-18T07:55:46.000Z</time>
      </trkpt>
      <trkpt lat="43.07137881405651569366455078125" lon="-6.07341966591775417327880859375">
        <ele>1893.5999755859375</ele>
        <time>2021-08-18T07:55:48.000Z</time>
      </trkpt>
      <trkpt lat="43.071361966431140899658203125" lon="-6.0734115354716777801513671875">
        <ele>1893.4000244140625</ele>
        <time>2021-08-18T07:55:53.000Z</time>
      </trkpt>
      <trkpt lat="43.0713571049273014068603515625" lon="-6.07341547496616840362548828125">
        <ele>1893.199951171875</ele>
        <time>2021-08-18T07:55:57.000Z</time>
      </trkpt>
      <trkpt lat="43.0713460408151149749755859375" lon="-6.07342218048870563507080078125">
        <ele>1893.4000244140625</ele>
        <time>2021-08-18T07:56:07.000Z</time>
      </trkpt>
      <trkpt lat="43.071322403848171234130859375" lon="-6.07342083938419818878173828125">
        <ele>1893.199951171875</ele>
        <time>2021-08-18T07:56:10.000Z</time>
      </trkpt>
      <trkpt lat="43.07127177715301513671875" lon="-6.073424108326435089111328125">
        <ele>1892</ele>
        <time>2021-08-18T07:56:16.000Z</time>
      </trkpt>
      <trkpt lat="43.0712437815964221954345703125" lon="-6.07342670671641826629638671875">
        <ele>1891.5999755859375</ele>
        <time>2021-08-18T07:56:20.000Z</time>
      </trkpt>
      <trkpt lat="43.07122508995234966278076171875" lon="-6.07342167757451534271240234375">
        <ele>1891</ele>
        <time>2021-08-18T07:56:23.000Z</time>
      </trkpt>
      <trkpt lat="43.07120614685118198394775390625" lon="-6.0734353400766849517822265625">
        <ele>1890.4000244140625</ele>
        <time>2021-08-18T07:56:26.000Z</time>
      </trkpt>
      <trkpt lat="43.0711938254535198211669921875" lon="-6.07344129122793674468994140625">
        <ele>1890</ele>
        <time>2021-08-18T07:56:28.000Z</time>
      </trkpt>
      <trkpt lat="43.07118636555969715118408203125" lon="-6.07344011776149272918701171875">
        <ele>1889.800048828125</ele>
        <time>2021-08-18T07:56:29.000Z</time>
      </trkpt>
      <trkpt lat="43.0711676739156246185302734375" lon="-6.07343357987701892852783203125">
        <ele>1889.5999755859375</ele>
        <time>2021-08-18T07:56:31.000Z</time>
      </trkpt>
      <trkpt lat="43.071134984493255615234375" lon="-6.073448918759822845458984375">
        <ele>1888.800048828125</ele>
        <time>2021-08-18T07:56:35.000Z</time>
      </trkpt>
      <trkpt lat="43.07112702168524265289306640625" lon="-6.073452942073345184326171875">
        <ele>1888.800048828125</ele>
        <time>2021-08-18T07:56:37.000Z</time>
      </trkpt>
      <trkpt lat="43.0711244232952594757080078125" lon="-6.07345503754913806915283203125">
        <ele>1888.800048828125</ele>
        <time>2021-08-18T07:56:38.000Z</time>
      </trkpt>
      <trkpt lat="43.07112199254333972930908203125" lon="-6.0734588094055652618408203125">
        <ele>1888.800048828125</ele>
        <time>2021-08-18T07:56:40.000Z</time>
      </trkpt>
      <trkpt lat="43.07112568058073520660400390625" lon="-6.0734443925321102142333984375">
        <ele>1888.199951171875</ele>
        <time>2021-08-18T07:56:50.000Z</time>
      </trkpt>
      <trkpt lat="43.07111822068691253662109375" lon="-6.0734484158456325531005859375">
        <ele>1888</ele>
        <time>2021-08-18T07:56:52.000Z</time>
      </trkpt>
      <trkpt lat="43.07110640220344066619873046875" lon="-6.07345386408269405364990234375">
        <ele>1887.5999755859375</ele>
        <time>2021-08-18T07:56:54.000Z</time>
      </trkpt>
      <trkpt lat="43.0710741318762302398681640625" lon="-6.07345285825431346893310546875">
        <ele>1887</ele>
        <time>2021-08-18T07:56:58.000Z</time>
      </trkpt>
      <trkpt lat="43.07104974053800106048583984375" lon="-6.073452942073345184326171875">
        <ele>1886.5999755859375</ele>
        <time>2021-08-18T07:57:01.000Z</time>
      </trkpt>
      <trkpt lat="43.070999868214130401611328125" lon="-6.07346710748970508575439453125">
        <ele>1886</ele>
        <time>2021-08-18T07:57:07.000Z</time>
      </trkpt>
      <trkpt lat="43.0709688551723957061767578125" lon="-6.07347297482192516326904296875">
        <ele>1885.4000244140625</ele>
        <time>2021-08-18T07:57:11.000Z</time>
      </trkpt>
      <trkpt lat="43.0709628202021121978759765625" lon="-6.073478758335113525390625">
        <ele>1885.199951171875</ele>
        <time>2021-08-18T07:57:12.000Z</time>
      </trkpt>
      <trkpt lat="43.0709363333880901336669921875" lon="-6.07349141500890254974365234375">
        <ele>1885</ele>
        <time>2021-08-18T07:57:16.000Z</time>
      </trkpt>
      <trkpt lat="43.0709001235663890838623046875" lon="-6.07346962206065654754638671875">
        <ele>1884.5999755859375</ele>
        <time>2021-08-18T07:57:20.000Z</time>
      </trkpt>
      <trkpt lat="43.07089283131062984466552734375" lon="-6.07346543110907077789306640625">
        <ele>1884.199951171875</ele>
        <time>2021-08-18T07:57:21.000Z</time>
      </trkpt>
      <trkpt lat="43.070883192121982574462890625" lon="-6.0734641738235950469970703125">
        <ele>1884</ele>
        <time>2021-08-18T07:57:22.000Z</time>
      </trkpt>
      <trkpt lat="43.07085779495537281036376953125" lon="-6.07346861623227596282958984375">
        <ele>1883.199951171875</ele>
        <time>2021-08-18T07:57:25.000Z</time>
      </trkpt>
      <trkpt lat="43.0708273686468601226806640625" lon="-6.073465012013912200927734375">
        <ele>1882.5999755859375</ele>
        <time>2021-08-18T07:57:29.000Z</time>
      </trkpt>
      <trkpt lat="43.070812784135341644287109375" lon="-6.0734532773494720458984375">
        <ele>1882.4000244140625</ele>
        <time>2021-08-18T07:57:32.000Z</time>
      </trkpt>
      <trkpt lat="43.0708090960979461669921875" lon="-6.0734507627785205841064453125">
        <ele>1882.4000244140625</ele>
        <time>2021-08-18T07:57:33.000Z</time>
      </trkpt>
      <trkpt lat="43.070796020328998565673828125" lon="-6.07344615273177623748779296875">
        <ele>1882.199951171875</ele>
        <time>2021-08-18T07:57:37.000Z</time>
      </trkpt>
      <trkpt lat="43.07077498175203800201416015625" lon="-6.07343743555247783660888671875">
        <ele>1881</ele>
        <time>2021-08-18T07:57:41.000Z</time>
      </trkpt>
      <trkpt lat="43.070740364491939544677734375" lon="-6.07341773808002471923828125">
        <ele>1880</ele>
        <time>2021-08-18T07:57:45.000Z</time>
      </trkpt>
      <trkpt lat="43.070720918476581573486328125" lon="-6.0733977891504764556884765625">
        <ele>1879.199951171875</ele>
        <time>2021-08-18T07:57:49.000Z</time>
      </trkpt>
      <trkpt lat="43.0707116983830928802490234375" lon="-6.0733930952847003936767578125">
        <ele>1879</ele>
        <time>2021-08-18T07:57:54.000Z</time>
      </trkpt>
      <trkpt lat="43.070712201297283172607421875" lon="-6.07339351437985897064208984375">
        <ele>1879</ele>
        <time>2021-08-18T07:57:55.000Z</time>
      </trkpt>
      <trkpt lat="43.0706952698528766632080078125" lon="-6.0733652673661708831787109375">
        <ele>1878.5999755859375</ele>
        <time>2021-08-18T07:58:02.000Z</time>
      </trkpt>
      <trkpt lat="43.07068680413067340850830078125" lon="-6.07336099259555339813232421875">
        <ele>1878.4000244140625</ele>
        <time>2021-08-18T07:58:03.000Z</time>
      </trkpt>
      <trkpt lat="43.070646487176418304443359375" lon="-6.0733189992606639862060546875">
        <ele>1877.5999755859375</ele>
        <time>2021-08-18T07:58:08.000Z</time>
      </trkpt>
      <trkpt lat="43.07061153464019298553466796875" lon="-6.07329930178821086883544921875">
        <ele>1876.5999755859375</ele>
        <time>2021-08-18T07:58:12.000Z</time>
      </trkpt>
      <trkpt lat="43.07060399092733860015869140625" lon="-6.0732928477227687835693359375">
        <ele>1876.4000244140625</ele>
        <time>2021-08-18T07:58:13.000Z</time>
      </trkpt>
      <trkpt lat="43.0705355107784271240234375" lon="-6.07319687493145465850830078125">
        <ele>1876.199951171875</ele>
        <time>2021-08-18T07:58:22.000Z</time>
      </trkpt>
      <trkpt lat="43.07051732204854488372802734375" lon="-6.0731823742389678955078125">
        <ele>1876.4000244140625</ele>
        <time>2021-08-18T07:58:24.000Z</time>
      </trkpt>
      <trkpt lat="43.07043702341616153717041015625" lon="-6.07309050858020782470703125">
        <ele>1876</ele>
        <time>2021-08-18T07:58:34.000Z</time>
      </trkpt>
      <trkpt lat="43.070410452783107757568359375" lon="-6.07307441532611846923828125">
        <ele>1875.800048828125</ele>
        <time>2021-08-18T07:58:37.000Z</time>
      </trkpt>
      <trkpt lat="43.0703968740999698638916015625" lon="-6.07306309975683689117431640625">
        <ele>1875.5999755859375</ele>
        <time>2021-08-18T07:58:39.000Z</time>
      </trkpt>
      <trkpt lat="43.070354126393795013427734375" lon="-6.0730631835758686065673828125">
        <ele>1875</ele>
        <time>2021-08-18T07:58:44.000Z</time>
      </trkpt>
      <trkpt lat="43.07033895514905452728271484375" lon="-6.07306997291743755340576171875">
        <ele>1874.4000244140625</ele>
        <time>2021-08-18T07:58:46.000Z</time>
      </trkpt>
      <trkpt lat="43.07033493183553218841552734375" lon="-6.0730708949267864227294921875">
        <ele>1874</ele>
        <time>2021-08-18T07:58:47.000Z</time>
      </trkpt>
      <trkpt lat="43.07033258490264415740966796875" lon="-6.07307684607803821563720703125">
        <ele>1873.5999755859375</ele>
        <time>2021-08-18T07:58:50.000Z</time>
      </trkpt>
      <trkpt lat="43.07032956741750240325927734375" lon="-6.07307952828705310821533203125">
        <ele>1873.199951171875</ele>
        <time>2021-08-18T07:58:52.000Z</time>
      </trkpt>
      <trkpt lat="43.07032336480915546417236328125" lon="-6.07308573089540004730224609375">
        <ele>1873.4000244140625</ele>
        <time>2021-08-18T07:58:53.000Z</time>
      </trkpt>
      <trkpt lat="43.070271648466587066650390625" lon="-6.0730856470763683319091796875">
        <ele>1872</ele>
        <time>2021-08-18T07:59:01.000Z</time>
      </trkpt>
      <trkpt lat="43.07025094516575336456298828125" lon="-6.0730876587331295013427734375">
        <ele>1871.199951171875</ele>
        <time>2021-08-18T07:59:04.000Z</time>
      </trkpt>
      <trkpt lat="43.07024407200515270233154296875" lon="-6.07308841310441493988037109375">
        <ele>1871</ele>
        <time>2021-08-18T07:59:05.000Z</time>
      </trkpt>
      <trkpt lat="43.0702114664018154144287109375" lon="-6.07309210114181041717529296875">
        <ele>1869.800048828125</ele>
        <time>2021-08-18T07:59:09.000Z</time>
      </trkpt>
      <trkpt lat="43.07017366401851177215576171875" lon="-6.073075421154499053955078125">
        <ele>1868.800048828125</ele>
        <time>2021-08-18T07:59:13.000Z</time>
      </trkpt>
      <trkpt lat="43.0701330117881298065185546875" lon="-6.073059998452663421630859375">
        <ele>1867.5999755859375</ele>
        <time>2021-08-18T07:59:17.000Z</time>
      </trkpt>
      <trkpt lat="43.07006545364856719970703125" lon="-6.0730564780533313751220703125">
        <ele>1866.4000244140625</ele>
        <time>2021-08-18T07:59:25.000Z</time>
      </trkpt>
      <trkpt lat="43.0700455047190189361572265625" lon="-6.07305698096752166748046875">
        <ele>1866.199951171875</ele>
        <time>2021-08-18T07:59:30.000Z</time>
      </trkpt>
      <trkpt lat="43.070002086460590362548828125" lon="-6.07308589853346347808837890625">
        <ele>1865.4000244140625</ele>
        <time>2021-08-18T07:59:38.000Z</time>
      </trkpt>
      <trkpt lat="43.0700005777180194854736328125" lon="-6.07308891601860523223876953125">
        <ele>1865.199951171875</ele>
        <time>2021-08-18T07:59:39.000Z</time>
      </trkpt>
      <trkpt lat="43.069996051490306854248046875" lon="-6.0730772651731967926025390625">
        <ele>1864.4000244140625</ele>
        <time>2021-08-18T07:59:51.000Z</time>
      </trkpt>
      <trkpt lat="43.069994710385799407958984375" lon="-6.07307374477386474609375">
        <ele>1864.4000244140625</ele>
        <time>2021-08-18T07:59:52.000Z</time>
      </trkpt>
      <trkpt lat="43.0699747614562511444091796875" lon="-6.07305890880525112152099609375">
        <ele>1864.199951171875</ele>
        <time>2021-08-18T07:59:58.000Z</time>
      </trkpt>
      <trkpt lat="43.069965206086635589599609375" lon="-6.07306796126067638397216796875">
        <ele>1864.4000244140625</ele>
        <time>2021-08-18T08:00:07.000Z</time>
      </trkpt>
      <trkpt lat="43.069965206086635589599609375" lon="-6.07306745834648609161376953125">
        <ele>1864.5999755859375</ele>
        <time>2021-08-18T08:00:10.000Z</time>
      </trkpt>
      <trkpt lat="43.06995942257344722747802734375" lon="-6.07305723242461681365966796875">
        <ele>1864</ele>
        <time>2021-08-18T08:00:23.000Z</time>
      </trkpt>
      <trkpt lat="43.06989924050867557525634765625" lon="-6.07301347889006137847900390625">
        <ele>1863.4000244140625</ele>
        <time>2021-08-18T08:00:34.000Z</time>
      </trkpt>
      <trkpt lat="43.06988717056810855865478515625" lon="-6.0729924403131008148193359375">
        <ele>1863.199951171875</ele>
        <time>2021-08-18T08:00:36.000Z</time>
      </trkpt>
      <trkpt lat="43.069878034293651580810546875" lon="-6.07294608838856220245361328125">
        <ele>1863.199951171875</ele>
        <time>2021-08-18T08:00:40.000Z</time>
      </trkpt>
      <trkpt lat="43.0698771961033344268798828125" lon="-6.0729149915277957916259765625">
        <ele>1863.5999755859375</ele>
        <time>2021-08-18T08:00:43.000Z</time>
      </trkpt>
      <trkpt lat="43.06986873038113117218017578125" lon="-6.07288422994315624237060546875">
        <ele>1864.4000244140625</ele>
        <time>2021-08-18T08:00:46.000Z</time>
      </trkpt>
      <trkpt lat="43.06984425522387027740478515625" lon="-6.0728291608393192291259765625">
        <ele>1864.199951171875</ele>
        <time>2021-08-18T08:00:52.000Z</time>
      </trkpt>
      <trkpt lat="43.0698426626622676849365234375" lon="-6.07282974757254123687744140625">
        <ele>1864.199951171875</ele>
        <time>2021-08-18T08:00:53.000Z</time>
      </trkpt>
      <trkpt lat="43.06984542869031429290771484375" lon="-6.07282857410609722137451171875">
        <ele>1864</ele>
        <time>2021-08-18T08:00:54.000Z</time>
      </trkpt>
      <trkpt lat="43.06985381059348583221435546875" lon="-6.07284299097955226898193359375">
        <ele>1864.4000244140625</ele>
        <time>2021-08-18T08:01:04.000Z</time>
      </trkpt>
      <trkpt lat="43.06985531933605670928955078125" lon="-6.07284349389374256134033203125">
        <ele>1864.4000244140625</ele>
        <time>2021-08-18T08:01:07.000Z</time>
      </trkpt>
      <trkpt lat="43.06983738206326961517333984375" lon="-6.07276621274650096893310546875">
        <ele>1864.4000244140625</ele>
        <time>2021-08-18T08:01:15.000Z</time>
      </trkpt>
      <trkpt lat="43.0698138289153575897216796875" lon="-6.0727433301508426666259765625">
        <ele>1864.4000244140625</ele>
        <time>2021-08-18T08:01:18.000Z</time>
      </trkpt>
      <trkpt lat="43.0697605200111865997314453125" lon="-6.07271902263164520263671875">
        <ele>1864.199951171875</ele>
        <time>2021-08-18T08:01:24.000Z</time>
      </trkpt>
      <trkpt lat="43.06971852667629718780517578125" lon="-6.0726688988506793975830078125">
        <ele>1863.800048828125</ele>
        <time>2021-08-18T08:01:30.000Z</time>
      </trkpt>
      <trkpt lat="43.06968919001519680023193359375" lon="-6.07263998128473758697509765625">
        <ele>1863.5999755859375</ele>
        <time>2021-08-18T08:01:35.000Z</time>
      </trkpt>
      <trkpt lat="43.06964660994708538055419921875" lon="-6.0726125724613666534423828125">
        <ele>1863.199951171875</ele>
        <time>2021-08-18T08:01:41.000Z</time>
      </trkpt>
      <trkpt lat="43.06961878202855587005615234375" lon="-6.07259606011211872100830078125">
        <ele>1862.800048828125</ele>
        <time>2021-08-18T08:01:44.000Z</time>
      </trkpt>
      <trkpt lat="43.06960553862154483795166015625" lon="-6.0725894384086132049560546875">
        <ele>1862.800048828125</ele>
        <time>2021-08-18T08:01:46.000Z</time>
      </trkpt>
      <trkpt lat="43.06959833018481731414794921875" lon="-6.072585918009281158447265625">
        <ele>1862.5999755859375</ele>
        <time>2021-08-18T08:01:47.000Z</time>
      </trkpt>
      <trkpt lat="43.0695751123130321502685546875" lon="-6.07257057912647724151611328125">
        <ele>1862.199951171875</ele>
        <time>2021-08-18T08:01:50.000Z</time>
      </trkpt>
      <trkpt lat="43.069546781480312347412109375" lon="-6.07255146838724613189697265625">
        <ele>1862</ele>
        <time>2021-08-18T08:01:53.000Z</time>
      </trkpt>
      <trkpt lat="43.0694855935871601104736328125" lon="-6.0725026018917560577392578125">
        <ele>1861.4000244140625</ele>
        <time>2021-08-18T08:02:00.000Z</time>
      </trkpt>
      <trkpt lat="43.06944963522255420684814453125" lon="-6.07248743064701557159423828125">
        <ele>1861</ele>
        <time>2021-08-18T08:02:05.000Z</time>
      </trkpt>
      <trkpt lat="43.0693974159657955169677734375" lon="-6.07245750725269317626953125">
        <ele>1860</ele>
        <time>2021-08-18T08:02:12.000Z</time>
      </trkpt>
      <trkpt lat="43.0693913809955120086669921875" lon="-6.07244971208274364471435546875">
        <ele>1859.800048828125</ele>
        <time>2021-08-18T08:02:13.000Z</time>
      </trkpt>
      <trkpt lat="43.06936883367598056793212890625" lon="-6.0724331997334957122802734375">
        <ele>1859.199951171875</ele>
        <time>2021-08-18T08:02:16.000Z</time>
      </trkpt>
      <trkpt lat="43.069354332983493804931640625" lon="-6.07243043370544910430908203125">
        <ele>1859</ele>
        <time>2021-08-18T08:02:18.000Z</time>
      </trkpt>
      <trkpt lat="43.069344274699687957763671875" lon="-6.07242909260094165802001953125">
        <ele>1858.800048828125</ele>
        <time>2021-08-18T08:02:19.000Z</time>
      </trkpt>
      <trkpt lat="43.06930798105895519256591796875" lon="-6.07243143953382968902587890625">
        <ele>1858.4000244140625</ele>
        <time>2021-08-18T08:02:23.000Z</time>
      </trkpt>
      <trkpt lat="43.06928417645394802093505859375" lon="-6.0724246501922607421875">
        <ele>1857.800048828125</ele>
        <time>2021-08-18T08:02:26.000Z</time>
      </trkpt>
      <trkpt lat="43.0692676641047000885009765625" lon="-6.0724171064794063568115234375">
        <ele>1857.199951171875</ele>
        <time>2021-08-18T08:02:28.000Z</time>
      </trkpt>
      <trkpt lat="43.06923505850136280059814453125" lon="-6.07238483615219593048095703125">
        <ele>1856.5999755859375</ele>
        <time>2021-08-18T08:02:32.000Z</time>
      </trkpt>
      <trkpt lat="43.069190047681331634521484375" lon="-6.07234678231179714202880859375">
        <ele>1855.800048828125</ele>
        <time>2021-08-18T08:02:37.000Z</time>
      </trkpt>
      <trkpt lat="43.06917638517916202545166015625" lon="-6.07233437709510326385498046875">
        <ele>1855.5999755859375</ele>
        <time>2021-08-18T08:02:38.000Z</time>
      </trkpt>
      <trkpt lat="43.06909826584160327911376953125" lon="-6.07230671681463718414306640625">
        <ele>1854.5999755859375</ele>
        <time>2021-08-18T08:02:45.000Z</time>
      </trkpt>
      <trkpt lat="43.06904830969870090484619140625" lon="-6.0722933895885944366455078125">
        <ele>1854.5999755859375</ele>
        <time>2021-08-18T08:02:50.000Z</time>
      </trkpt>
      <trkpt lat="43.068988211452960968017578125" lon="-6.07225944288074970245361328125">
        <ele>1854.4000244140625</ele>
        <time>2021-08-18T08:02:56.000Z</time>
      </trkpt>
      <trkpt lat="43.0689354054629802703857421875" lon="-6.07222457416355609893798828125">
        <ele>1854</ele>
        <time>2021-08-18T08:03:01.000Z</time>
      </trkpt>
      <trkpt lat="43.06889810599386692047119140625" lon="-6.0722015239298343658447265625">
        <ele>1853.800048828125</ele>
        <time>2021-08-18T08:03:05.000Z</time>
      </trkpt>
      <trkpt lat="43.06887899525463581085205078125" lon="-6.07219104655086994171142578125">
        <ele>1853.4000244140625</ele>
        <time>2021-08-18T08:03:07.000Z</time>
      </trkpt>
      <trkpt lat="43.0688361637294292449951171875" lon="-6.07216338627040386199951171875">
        <ele>1852.5999755859375</ele>
        <time>2021-08-18T08:03:11.000Z</time>
      </trkpt>
      <trkpt lat="43.0688261054456233978271484375" lon="-6.07215835712850093841552734375">
        <ele>1852.4000244140625</ele>
        <time>2021-08-18T08:03:12.000Z</time>
      </trkpt>
      <trkpt lat="43.06877187453210353851318359375" lon="-6.07213052920997142791748046875">
        <ele>1851.5999755859375</ele>
        <time>2021-08-18T08:03:17.000Z</time>
      </trkpt>
      <trkpt lat="43.06872979737818241119384765625" lon="-6.0720918886363506317138671875">
        <ele>1851.4000244140625</ele>
        <time>2021-08-18T08:03:21.000Z</time>
      </trkpt>
      <trkpt lat="43.06870129890739917755126953125" lon="-6.07207537628710269927978515625">
        <ele>1851.4000244140625</ele>
        <time>2021-08-18T08:03:24.000Z</time>
      </trkpt>
      <trkpt lat="43.06864145211875438690185546875" lon="-6.0720397531986236572265625">
        <ele>1851.199951171875</ele>
        <time>2021-08-18T08:03:30.000Z</time>
      </trkpt>
      <trkpt lat="43.06862602941691875457763671875" lon="-6.072024665772914886474609375">
        <ele>1851</ele>
        <time>2021-08-18T08:03:32.000Z</time>
      </trkpt>
      <trkpt lat="43.06861731223762035369873046875" lon="-6.072015278041362762451171875">
        <ele>1851</ele>
        <time>2021-08-18T08:03:33.000Z</time>
      </trkpt>
      <trkpt lat="43.0685816891491413116455078125" lon="-6.07198099605739116668701171875">
        <ele>1850.4000244140625</ele>
        <time>2021-08-18T08:03:37.000Z</time>
      </trkpt>
      <trkpt lat="43.06854237802326679229736328125" lon="-6.07192081399261951446533203125">
        <ele>1849.5999755859375</ele>
        <time>2021-08-18T08:03:42.000Z</time>
      </trkpt>
      <trkpt lat="43.0685089342296123504638671875" lon="-6.0719002783298492431640625">
        <ele>1849.199951171875</ele>
        <time>2021-08-18T08:03:45.000Z</time>
      </trkpt>
      <trkpt lat="43.068472556769847869873046875" lon="-6.07186968438327312469482421875">
        <ele>1848.800048828125</ele>
        <time>2021-08-18T08:03:49.000Z</time>
      </trkpt>
      <trkpt lat="43.06840742938220500946044921875" lon="-6.07182911597192287445068359375">
        <ele>1848.800048828125</ele>
        <time>2021-08-18T08:03:56.000Z</time>
      </trkpt>
      <trkpt lat="43.0683972872793674468994140625" lon="-6.07182811014354228973388671875">
        <ele>1848.800048828125</ele>
        <time>2021-08-18T08:03:57.000Z</time>
      </trkpt>
      <trkpt lat="43.068388067185878753662109375" lon="-6.071824841201305389404296875">
        <ele>1848.800048828125</ele>
        <time>2021-08-18T08:03:58.000Z</time>
      </trkpt>
      <trkpt lat="43.06835177354514598846435546875" lon="-6.0717864520847797393798828125">
        <ele>1848.199951171875</ele>
        <time>2021-08-18T08:04:03.000Z</time>
      </trkpt>
      <trkpt lat="43.0683392845094203948974609375" lon="-6.0717680118978023529052734375">
        <ele>1847.800048828125</ele>
        <time>2021-08-18T08:04:05.000Z</time>
      </trkpt>
      <trkpt lat="43.068312294781208038330078125" lon="-6.07174244709312915802001953125">
        <ele>1847</ele>
        <time>2021-08-18T08:04:08.000Z</time>
      </trkpt>
      <trkpt lat="43.06825303472578525543212890625" lon="-6.07168276794254779815673828125">
        <ele>1846.4000244140625</ele>
        <time>2021-08-18T08:04:14.000Z</time>
      </trkpt>
      <trkpt lat="43.0681920982897281646728515625" lon="-6.0715715400874614715576171875">
        <ele>1846</ele>
        <time>2021-08-18T08:04:22.000Z</time>
      </trkpt>
      <trkpt lat="43.0681590735912322998046875" lon="-6.0715152136981487274169921875">
        <ele>1844.800048828125</ele>
        <time>2021-08-18T08:04:27.000Z</time>
      </trkpt>
      <trkpt lat="43.0681538768112659454345703125" lon="-6.07150155119597911834716796875">
        <ele>1844.5999755859375</ele>
        <time>2021-08-18T08:04:28.000Z</time>
      </trkpt>
      <trkpt lat="43.068147003650665283203125" lon="-6.07147791422903537750244140625">
        <ele>1844.199951171875</ele>
        <time>2021-08-18T08:04:30.000Z</time>
      </trkpt>
      <trkpt lat="43.06814775802195072174072265625" lon="-6.07147020287811756134033203125">
        <ele>1844.199951171875</ele>
        <time>2021-08-18T08:04:31.000Z</time>
      </trkpt>
      <trkpt lat="43.06814708746969699859619140625" lon="-6.07146366499364376068115234375">
        <ele>1843.5999755859375</ele>
        <time>2021-08-18T08:04:33.000Z</time>
      </trkpt>
      <trkpt lat="43.06814406998455524444580078125" lon="-6.0714505054056644439697265625">
        <ele>1843</ele>
        <time>2021-08-18T08:04:35.000Z</time>
      </trkpt>
      <trkpt lat="43.06814021430909633636474609375" lon="-6.07144363224506378173828125">
        <ele>1842.5999755859375</ele>
        <time>2021-08-18T08:04:36.000Z</time>
      </trkpt>
      <trkpt lat="43.068117164075374603271484375" lon="-6.0713646747171878814697265625">
        <ele>1841.4000244140625</ele>
        <time>2021-08-18T08:04:44.000Z</time>
      </trkpt>
      <trkpt lat="43.06810869835317134857177734375" lon="-6.0713274590671062469482421875">
        <ele>1840.4000244140625</ele>
        <time>2021-08-18T08:04:47.000Z</time>
      </trkpt>
      <trkpt lat="43.068107105791568756103515625" lon="-6.071315892040729522705078125">
        <ele>1840.199951171875</ele>
        <time>2021-08-18T08:04:48.000Z</time>
      </trkpt>
      <trkpt lat="43.0680935271084308624267578125" lon="-6.0712573863565921783447265625">
        <ele>1838.800048828125</ele>
        <time>2021-08-18T08:04:53.000Z</time>
      </trkpt>
      <trkpt lat="43.068087659776210784912109375" lon="-6.07121153734624385833740234375">
        <ele>1837.800048828125</ele>
        <time>2021-08-18T08:04:57.000Z</time>
      </trkpt>
      <trkpt lat="43.06808690540492534637451171875" lon="-6.071202568709850311279296875">
        <ele>1837.5999755859375</ele>
        <time>2021-08-18T08:04:58.000Z</time>
      </trkpt>
      <trkpt lat="43.06808372028172016143798828125" lon="-6.0711819492280483245849609375">
        <ele>1837.199951171875</ele>
        <time>2021-08-18T08:05:00.000Z</time>
      </trkpt>
      <trkpt lat="43.0680781044065952301025390625" lon="-6.0711470805108547210693359375">
        <ele>1836.5999755859375</ele>
        <time>2021-08-18T08:05:04.000Z</time>
      </trkpt>
      <trkpt lat="43.06807315908372402191162109375" lon="-6.07109083794057369232177734375">
        <ele>1835.4000244140625</ele>
        <time>2021-08-18T08:05:09.000Z</time>
      </trkpt>
      <trkpt lat="43.06806930340826511383056640625" lon="-6.07107105664908885955810546875">
        <ele>1835</ele>
        <time>2021-08-18T08:05:11.000Z</time>
      </trkpt>
      <trkpt lat="43.06806511245667934417724609375" lon="-6.0710505209863185882568359375">
        <ele>1834.4000244140625</ele>
        <time>2021-08-18T08:05:13.000Z</time>
      </trkpt>
      <trkpt lat="43.06805773638188838958740234375" lon="-6.070997714996337890625">
        <ele>1833.4000244140625</ele>
        <time>2021-08-18T08:05:18.000Z</time>
      </trkpt>
      <trkpt lat="43.068055808544158935546875" lon="-6.0709603317081928253173828125">
        <ele>1832.4000244140625</ele>
        <time>2021-08-18T08:05:22.000Z</time>
      </trkpt>
      <trkpt lat="43.0680502764880657196044921875" lon="-6.0709539614617824554443359375">
        <ele>1832.4000244140625</ele>
        <time>2021-08-18T08:05:23.000Z</time>
      </trkpt>
      <trkpt lat="43.06806343607604503631591796875" lon="-6.070947088301181793212890625">
        <ele>1832</ele>
        <time>2021-08-18T08:05:26.000Z</time>
      </trkpt>
      <trkpt lat="43.06807299144566059112548828125" lon="-6.0709132254123687744140625">
        <ele>1831.4000244140625</ele>
        <time>2021-08-18T08:05:30.000Z</time>
      </trkpt>
      <trkpt lat="43.068102411925792694091796875" lon="-6.07087433338165283203125">
        <ele>1830.199951171875</ele>
        <time>2021-08-18T08:05:36.000Z</time>
      </trkpt>
      <trkpt lat="43.06811548769474029541015625" lon="-6.07089067809283733367919921875">
        <ele>1829.800048828125</ele>
        <time>2021-08-18T08:05:38.000Z</time>
      </trkpt>
      <trkpt lat="43.068122528493404388427734375" lon="-6.07091733254492282867431640625">
        <ele>1829.4000244140625</ele>
        <time>2021-08-18T08:05:41.000Z</time>
      </trkpt>
      <trkpt lat="43.0681253783404827117919921875" lon="-6.07092387042939662933349609375">
        <ele>1829.199951171875</ele>
        <time>2021-08-18T08:05:42.000Z</time>
      </trkpt>
      <trkpt lat="43.0681357719004154205322265625" lon="-6.070908196270465850830078125">
        <ele>1828.199951171875</ele>
        <time>2021-08-18T08:05:47.000Z</time>
      </trkpt>
      <trkpt lat="43.06814004667103290557861328125" lon="-6.07089922763407230377197265625">
        <ele>1828</ele>
        <time>2021-08-18T08:05:48.000Z</time>
      </trkpt>
      <trkpt lat="43.068161420524120330810546875" lon="-6.07086603529751300811767578125">
        <ele>1827</ele>
        <time>2021-08-18T08:05:55.000Z</time>
      </trkpt>
      <trkpt lat="43.06817323900759220123291015625" lon="-6.07086167670786380767822265625">
        <ele>1826.4000244140625</ele>
        <time>2021-08-18T08:05:58.000Z</time>
      </trkpt>
      <trkpt lat="43.0681880749762058258056640625" lon="-6.07087743468582630157470703125">
        <ele>1826.199951171875</ele>
        <time>2021-08-18T08:06:01.000Z</time>
      </trkpt>
      <trkpt lat="43.0681957863271236419677734375" lon="-6.0708879120647907257080078125">
        <ele>1825.800048828125</ele>
        <time>2021-08-18T08:06:03.000Z</time>
      </trkpt>
      <trkpt lat="43.06820324622094631195068359375" lon="-6.0709244571626186370849609375">
        <ele>1825.199951171875</ele>
        <time>2021-08-18T08:06:07.000Z</time>
      </trkpt>
      <trkpt lat="43.06822101585566997528076171875" lon="-6.070943735539913177490234375">
        <ele>1824.800048828125</ele>
        <time>2021-08-18T08:06:11.000Z</time>
      </trkpt>
      <trkpt lat="43.068237192928791046142578125" lon="-6.0709633491933345794677734375">
        <ele>1823.5999755859375</ele>
        <time>2021-08-18T08:06:15.000Z</time>
      </trkpt>
      <trkpt lat="43.0682601593434810638427734375" lon="-6.0709963738918304443359375">
        <ele>1823</ele>
        <time>2021-08-18T08:06:20.000Z</time>
      </trkpt>
      <trkpt lat="43.06827298365533351898193359375" lon="-6.0709881596267223358154296875">
        <ele>1822.199951171875</ele>
        <time>2021-08-18T08:06:24.000Z</time>
      </trkpt>
      <trkpt lat="43.06827164255082607269287109375" lon="-6.07097625732421875">
        <ele>1821.5999755859375</ele>
        <time>2021-08-18T08:06:27.000Z</time>
      </trkpt>
      <trkpt lat="43.06827281601727008819580078125" lon="-6.07095991261303424835205078125">
        <ele>1821.199951171875</ele>
        <time>2021-08-18T08:06:30.000Z</time>
      </trkpt>
      <trkpt lat="43.06827482767403125762939453125" lon="-6.07092462480068206787109375">
        <ele>1820.199951171875</ele>
        <time>2021-08-18T08:06:36.000Z</time>
      </trkpt>
      <trkpt lat="43.06829678826034069061279296875" lon="-6.0709294863045215606689453125">
        <ele>1819</ele>
        <time>2021-08-18T08:06:41.000Z</time>
      </trkpt>
      <trkpt lat="43.06830651126801967620849609375" lon="-6.070923618972301483154296875">
        <ele>1818.199951171875</ele>
        <time>2021-08-18T08:06:45.000Z</time>
      </trkpt>
      <trkpt lat="43.06830936111509799957275390625" lon="-6.07092420570552349090576171875">
        <ele>1818</ele>
        <time>2021-08-18T08:06:46.000Z</time>
      </trkpt>
      <trkpt lat="43.068306259810924530029296875" lon="-6.0709293186664581298828125">
        <ele>1817.199951171875</ele>
        <time>2021-08-18T08:06:55.000Z</time>
      </trkpt>
      <trkpt lat="43.0683101154863834381103515625" lon="-6.0709358565509319305419921875">
        <ele>1817.4000244140625</ele>
        <time>2021-08-18T08:07:06.000Z</time>
      </trkpt>
      <trkpt lat="43.06831506080925464630126953125" lon="-6.0709274746477603912353515625">
        <ele>1817.199951171875</ele>
        <time>2021-08-18T08:07:11.000Z</time>
      </trkpt>
      <trkpt lat="43.06831858120858669281005859375" lon="-6.0709244571626186370849609375">
        <ele>1817</ele>
        <time>2021-08-18T08:07:13.000Z</time>
      </trkpt>
      <trkpt lat="43.0683342553675174713134765625" lon="-6.0708721540868282318115234375">
        <ele>1815.800048828125</ele>
        <time>2021-08-18T08:07:18.000Z</time>
      </trkpt>
      <trkpt lat="43.06836359202861785888671875" lon="-6.07084105722606182098388671875">
        <ele>1814.5999755859375</ele>
        <time>2021-08-18T08:07:23.000Z</time>
      </trkpt>
      <trkpt lat="43.068404160439968109130859375" lon="-6.070822365581989288330078125">
        <ele>1813.5999755859375</ele>
        <time>2021-08-18T08:07:29.000Z</time>
      </trkpt>
      <trkpt lat="43.0684321559965610504150390625" lon="-6.07077551074326038360595703125">
        <ele>1812.4000244140625</ele>
        <time>2021-08-18T08:07:33.000Z</time>
      </trkpt>
      <trkpt lat="43.06843576021492481231689453125" lon="-6.0707591660320758819580078125">
        <ele>1812</ele>
        <time>2021-08-18T08:07:35.000Z</time>
      </trkpt>
      <trkpt lat="43.0684375204145908355712890625" lon="-6.07072337530553340911865234375">
        <ele>1811.4000244140625</ele>
        <time>2021-08-18T08:07:41.000Z</time>
      </trkpt>
      <trkpt lat="43.06844950653612613677978515625" lon="-6.07071817852556705474853515625">
        <ele>1810</ele>
        <time>2021-08-18T08:07:45.000Z</time>
      </trkpt>
      <trkpt lat="43.06845336221158504486083984375" lon="-6.0707145743072032928466796875">
        <ele>1809.5999755859375</ele>
        <time>2021-08-18T08:07:46.000Z</time>
      </trkpt>
      <trkpt lat="43.06846040301024913787841796875" lon="-6.0707051865756511688232421875">
        <ele>1809</ele>
        <time>2021-08-18T08:07:48.000Z</time>
      </trkpt>
      <trkpt lat="43.0684874765574932098388671875" lon="-6.07068565674126148223876953125">
        <ele>1808</ele>
        <time>2021-08-18T08:07:52.000Z</time>
      </trkpt>
      <trkpt lat="43.068493343889713287353515625" lon="-6.07068029232323169708251953125">
        <ele>1807.800048828125</ele>
        <time>2021-08-18T08:07:53.000Z</time>
      </trkpt>
      <trkpt lat="43.068515472114086151123046875" lon="-6.07066922821104526519775390625">
        <ele>1806.5999755859375</ele>
        <time>2021-08-18T08:07:57.000Z</time>
      </trkpt>
      <trkpt lat="43.06853030808269977569580078125" lon="-6.0706548951566219329833984375">
        <ele>1806</ele>
        <time>2021-08-18T08:08:00.000Z</time>
      </trkpt>
      <trkpt lat="43.068558387458324432373046875" lon="-6.07064877636730670928955078125">
        <ele>1805.4000244140625</ele>
        <time>2021-08-18T08:08:02.000Z</time>
      </trkpt>
      <trkpt lat="43.068574480712413787841796875" lon="-6.07061617076396942138671875">
        <ele>1804.199951171875</ele>
        <time>2021-08-18T08:08:09.000Z</time>
      </trkpt>
      <trkpt lat="43.0685748159885406494140625" lon="-6.0706101357936859130859375">
        <ele>1804</ele>
        <time>2021-08-18T08:08:10.000Z</time>
      </trkpt>
      <trkpt lat="43.06858076713979244232177734375" lon="-6.07056998647749423980712890625">
        <ele>1803</ele>
        <time>2021-08-18T08:08:15.000Z</time>
      </trkpt>
      <trkpt lat="43.06858713738620281219482421875" lon="-6.07053210027515888214111328125">
        <ele>1802</ele>
        <time>2021-08-18T08:08:20.000Z</time>
      </trkpt>
      <trkpt lat="43.068592585623264312744140625" lon="-6.07049304060637950897216796875">
        <ele>1800.800048828125</ele>
        <time>2021-08-18T08:08:24.000Z</time>
      </trkpt>
      <trkpt lat="43.06861496530473232269287109375" lon="-6.07045096345245838165283203125">
        <ele>1799.4000244140625</ele>
        <time>2021-08-18T08:08:29.000Z</time>
      </trkpt>
      <trkpt lat="43.0686266161501407623291015625" lon="-6.07041425071656703948974609375">
        <ele>1798.199951171875</ele>
        <time>2021-08-18T08:08:33.000Z</time>
      </trkpt>
      <trkpt lat="43.06863944046199321746826171875" lon="-6.07038692571222782135009765625">
        <ele>1797.4000244140625</ele>
        <time>2021-08-18T08:08:36.000Z</time>
      </trkpt>
      <trkpt lat="43.06864413432776927947998046875" lon="-6.07037208974361419677734375">
        <ele>1797</ele>
        <time>2021-08-18T08:08:38.000Z</time>
      </trkpt>
      <trkpt lat="43.068645559251308441162109375" lon="-6.070364378392696380615234375">
        <ele>1796.800048828125</ele>
        <time>2021-08-18T08:08:39.000Z</time>
      </trkpt>
      <trkpt lat="43.068644888699054718017578125" lon="-6.07034551911056041717529296875">
        <ele>1796.199951171875</ele>
        <time>2021-08-18T08:08:41.000Z</time>
      </trkpt>
      <trkpt lat="43.06864128448069095611572265625" lon="-6.07033546082675457000732421875">
        <ele>1795.800048828125</ele>
        <time>2021-08-18T08:08:42.000Z</time>
      </trkpt>
      <trkpt lat="43.06863181293010711669921875" lon="-6.07028516940772533416748046875">
        <ele>1795</ele>
        <time>2021-08-18T08:08:46.000Z</time>
      </trkpt>
      <trkpt lat="43.06863038800656795501708984375" lon="-6.0702703334391117095947265625">
        <ele>1794.800048828125</ele>
        <time>2021-08-18T08:08:47.000Z</time>
      </trkpt>
      <trkpt lat="43.06863139383494853973388671875" lon="-6.070202775299549102783203125">
        <ele>1793.5999755859375</ele>
        <time>2021-08-18T08:08:52.000Z</time>
      </trkpt>
      <trkpt lat="43.06862250901758670806884765625" lon="-6.0701405815780162811279296875">
        <ele>1792.800048828125</ele>
        <time>2021-08-18T08:08:56.000Z</time>
      </trkpt>
      <trkpt lat="43.068612702190876007080078125" lon="-6.07009112834930419921875">
        <ele>1792.5999755859375</ele>
        <time>2021-08-18T08:08:59.000Z</time>
      </trkpt>
      <trkpt lat="43.0685776658356189727783203125" lon="-6.07003069482743740081787109375">
        <ele>1792</ele>
        <time>2021-08-18T08:09:04.000Z</time>
      </trkpt>
      <trkpt lat="43.06857188232243061065673828125" lon="-6.07001862488687038421630859375">
        <ele>1792</ele>
        <time>2021-08-18T08:09:05.000Z</time>
      </trkpt>
      <trkpt lat="43.06853416375815868377685546875" lon="-6.0699498094618320465087890625">
        <ele>1792</ele>
        <time>2021-08-18T08:09:12.000Z</time>
      </trkpt>
      <trkpt lat="43.0685337446630001068115234375" lon="-6.0699494741857051849365234375">
        <ele>1792</ele>
        <time>2021-08-18T08:09:13.000Z</time>
      </trkpt>
      <trkpt lat="43.068533577024936676025390625" lon="-6.069949977099895477294921875">
        <ele>1792</ele>
        <time>2021-08-18T08:09:14.000Z</time>
      </trkpt>
      <trkpt lat="43.06853097863495349884033203125" lon="-6.06994293630123138427734375">
        <ele>1792</ele>
        <time>2021-08-18T08:09:17.000Z</time>
      </trkpt>
      <trkpt lat="43.06852745823562145233154296875" lon="-6.0699377395212650299072265625">
        <ele>1791.4000244140625</ele>
        <time>2021-08-18T08:09:22.000Z</time>
      </trkpt>
      <trkpt lat="43.06852645240724086761474609375" lon="-6.06993648223578929901123046875">
        <ele>1791.4000244140625</ele>
        <time>2021-08-18T08:09:28.000Z</time>
      </trkpt>
      <trkpt lat="43.06852611713111400604248046875" lon="-6.06993648223578929901123046875">
        <ele>1791.4000244140625</ele>
        <time>2021-08-18T08:09:29.000Z</time>
      </trkpt>
      <trkpt lat="43.06852796114981174468994140625" lon="-6.06991209089756011962890625">
        <ele>1791.4000244140625</ele>
        <time>2021-08-18T08:09:32.000Z</time>
      </trkpt>
      <trkpt lat="43.06853064335882663726806640625" lon="-6.06986381113529205322265625">
        <ele>1790.4000244140625</ele>
        <time>2021-08-18T08:09:36.000Z</time>
      </trkpt>
      <trkpt lat="43.068524859845638275146484375" lon="-6.06983430683612823486328125">
        <ele>1790.199951171875</ele>
        <time>2021-08-18T08:09:38.000Z</time>
      </trkpt>
      <trkpt lat="43.06851488538086414337158203125" lon="-6.06977286748588085174560546875">
        <ele>1790</ele>
        <time>2021-08-18T08:09:43.000Z</time>
      </trkpt>
      <trkpt lat="43.0685035698115825653076171875" lon="-6.06973615474998950958251953125">
        <ele>1789.4000244140625</ele>
        <time>2021-08-18T08:09:47.000Z</time>
      </trkpt>
      <trkpt lat="43.0684774182736873626708984375" lon="-6.06968603096902370452880859375">
        <ele>1789</ele>
        <time>2021-08-18T08:09:52.000Z</time>
      </trkpt>
      <trkpt lat="43.06846962310373783111572265625" lon="-6.069673039019107818603515625">
        <ele>1789</ele>
        <time>2021-08-18T08:09:53.000Z</time>
      </trkpt>
      <trkpt lat="43.06845788843929767608642578125" lon="-6.0696510784327983856201171875">
        <ele>1788.800048828125</ele>
        <time>2021-08-18T08:09:55.000Z</time>
      </trkpt>
      <trkpt lat="43.06843274272978305816650390625" lon="-6.0695639066398143768310546875">
        <ele>1788.5999755859375</ele>
        <time>2021-08-18T08:10:01.000Z</time>
      </trkpt>
      <trkpt lat="43.0684103630483150482177734375" lon="-6.0695240087807178497314453125">
        <ele>1788.4000244140625</ele>
        <time>2021-08-18T08:10:05.000Z</time>
      </trkpt>
      <trkpt lat="43.06840776465833187103271484375" lon="-6.06951487250626087188720703125">
        <ele>1788.4000244140625</ele>
        <time>2021-08-18T08:10:06.000Z</time>
      </trkpt>
      <trkpt lat="43.06840977631509304046630859375" lon="-6.06949777342379093170166015625">
        <ele>1788.199951171875</ele>
        <time>2021-08-18T08:10:07.000Z</time>
      </trkpt>
      <trkpt lat="43.06840357370674610137939453125" lon="-6.06946072541177272796630859375">
        <ele>1788</ele>
        <time>2021-08-18T08:10:10.000Z</time>
      </trkpt>
      <trkpt lat="43.06838965974748134613037109375" lon="-6.0694043152034282684326171875">
        <ele>1787.800048828125</ele>
        <time>2021-08-18T08:10:14.000Z</time>
      </trkpt>
      <trkpt lat="43.06833601556718349456787109375" lon="-6.069277413189411163330078125">
        <ele>1787.800048828125</ele>
        <time>2021-08-18T08:10:25.000Z</time>
      </trkpt>
      <trkpt lat="43.06833165697753429412841796875" lon="-6.06926509179174900054931640625">
        <ele>1787.800048828125</ele>
        <time>2021-08-18T08:10:26.000Z</time>
      </trkpt>
      <trkpt lat="43.0683060921728610992431640625" lon="-6.06920273043215274810791015625">
        <ele>1787.199951171875</ele>
        <time>2021-08-18T08:10:31.000Z</time>
      </trkpt>
      <trkpt lat="43.0682893283665180206298828125" lon="-6.06913265772163867950439453125">
        <ele>1787.199951171875</ele>
        <time>2021-08-18T08:10:36.000Z</time>
      </trkpt>
      <trkpt lat="43.06825420819222927093505859375" lon="-6.0690469108521938323974609375">
        <ele>1786.5999755859375</ele>
        <time>2021-08-18T08:10:43.000Z</time>
      </trkpt>
      <trkpt lat="43.0682330019772052764892578125" lon="-6.0689845494925975799560546875">
        <ele>1787</ele>
        <time>2021-08-18T08:10:48.000Z</time>
      </trkpt>
      <trkpt lat="43.068227469921112060546875" lon="-6.06897206045687198638916015625">
        <ele>1787</ele>
        <time>2021-08-18T08:10:49.000Z</time>
      </trkpt>
      <trkpt lat="43.06822386570274829864501953125" lon="-6.06896116398274898529052734375">
        <ele>1787</ele>
        <time>2021-08-18T08:10:50.000Z</time>
      </trkpt>
      <trkpt lat="43.06821866892278194427490234375" lon="-6.06895127333700656890869140625">
        <ele>1787</ele>
        <time>2021-08-18T08:10:51.000Z</time>
      </trkpt>
      <trkpt lat="43.0682153999805450439453125" lon="-6.068940125405788421630859375">
        <ele>1787</ele>
        <time>2021-08-18T08:10:52.000Z</time>
      </trkpt>
      <trkpt lat="43.06820676662027835845947265625" lon="-6.06892864219844341278076171875">
        <ele>1786.5999755859375</ele>
        <time>2021-08-18T08:10:54.000Z</time>
      </trkpt>
      <trkpt lat="43.0682019889354705810546875" lon="-6.06891632080078125">
        <ele>1786.4000244140625</ele>
        <time>2021-08-18T08:10:56.000Z</time>
      </trkpt>
      <trkpt lat="43.06820056401193141937255859375" lon="-6.06890626251697540283203125">
        <ele>1786.199951171875</ele>
        <time>2021-08-18T08:10:57.000Z</time>
      </trkpt>
      <trkpt lat="43.068198971450328826904296875" lon="-6.06889461167156696319580078125">
        <ele>1786.199951171875</ele>
        <time>2021-08-18T08:10:58.000Z</time>
      </trkpt>
      <trkpt lat="43.068159408867359161376953125" lon="-6.06884398497641086578369140625">
        <ele>1785.5999755859375</ele>
        <time>2021-08-18T08:11:07.000Z</time>
      </trkpt>
      <trkpt lat="43.06813015602529048919677734375" lon="-6.06880811043083667755126953125">
        <ele>1785.199951171875</ele>
        <time>2021-08-18T08:11:11.000Z</time>
      </trkpt>
      <trkpt lat="43.0681230314075946807861328125" lon="-6.06880090199410915374755859375">
        <ele>1785.199951171875</ele>
        <time>2021-08-18T08:11:12.000Z</time>
      </trkpt>
      <trkpt lat="43.06807014159858226776123046875" lon="-6.068744659423828125">
        <ele>1784.199951171875</ele>
        <time>2021-08-18T08:11:19.000Z</time>
      </trkpt>
      <trkpt lat="43.06804851628839969635009765625" lon="-6.0686950385570526123046875">
        <ele>1783</ele>
        <time>2021-08-18T08:11:24.000Z</time>
      </trkpt>
      <trkpt lat="43.06801448576152324676513671875" lon="-6.06867022812366485595703125">
        <ele>1782.4000244140625</ele>
        <time>2021-08-18T08:11:28.000Z</time>
      </trkpt>
      <trkpt lat="43.06799788959324359893798828125" lon="-6.06864097528159618377685546875">
        <ele>1782</ele>
        <time>2021-08-18T08:11:31.000Z</time>
      </trkpt>
      <trkpt lat="43.06795195676386356353759765625" lon="-6.06860023923218250274658203125">
        <ele>1781</ele>
        <time>2021-08-18T08:11:37.000Z</time>
      </trkpt>
      <trkpt lat="43.0679436586797237396240234375" lon="-6.0685946233570575714111328125">
        <ele>1780.800048828125</ele>
        <time>2021-08-18T08:11:38.000Z</time>
      </trkpt>
      <trkpt lat="43.06790225207805633544921875" lon="-6.06856671161949634552001953125">
        <ele>1780.199951171875</ele>
        <time>2021-08-18T08:11:43.000Z</time>
      </trkpt>
      <trkpt lat="43.06788607500493526458740234375" lon="-6.06855145655572414398193359375">
        <ele>1780</ele>
        <time>2021-08-18T08:11:45.000Z</time>
      </trkpt>
      <trkpt lat="43.0678688921034336090087890625" lon="-6.06853804551064968109130859375">
        <ele>1779.800048828125</ele>
        <time>2021-08-18T08:11:47.000Z</time>
      </trkpt>
      <trkpt lat="43.0678605102002620697021484375" lon="-6.068529076874256134033203125">
        <ele>1779.800048828125</ele>
        <time>2021-08-18T08:11:48.000Z</time>
      </trkpt>
      <trkpt lat="43.0678534694015979766845703125" lon="-6.0685211978852748870849609375">
        <ele>1779.5999755859375</ele>
        <time>2021-08-18T08:11:49.000Z</time>
      </trkpt>
      <trkpt lat="43.0678377114236354827880859375" lon="-6.0684997402131557464599609375">
        <ele>1779.4000244140625</ele>
        <time>2021-08-18T08:11:51.000Z</time>
      </trkpt>
      <trkpt lat="43.06781969033181667327880859375" lon="-6.06848071329295635223388671875">
        <ele>1778.800048828125</ele>
        <time>2021-08-18T08:11:53.000Z</time>
      </trkpt>
      <trkpt lat="43.06780795566737651824951171875" lon="-6.06847451068460941314697265625">
        <ele>1778.4000244140625</ele>
        <time>2021-08-18T08:11:54.000Z</time>
      </trkpt>
      <trkpt lat="43.0677867494523525238037109375" lon="-6.06848205439746379852294921875">
        <ele>1778</ele>
        <time>2021-08-18T08:11:56.000Z</time>
      </trkpt>
      <trkpt lat="43.0677674710750579833984375" lon="-6.068475432693958282470703125">
        <ele>1777.800048828125</ele>
        <time>2021-08-18T08:11:58.000Z</time>
      </trkpt>
      <trkpt lat="43.067758083343505859375" lon="-6.06846864335238933563232421875">
        <ele>1777.800048828125</ele>
        <time>2021-08-18T08:11:59.000Z</time>
      </trkpt>
      <trkpt lat="43.0677190236747264862060546875" lon="-6.0684434138238430023193359375">
        <ele>1777</ele>
        <time>2021-08-18T08:12:03.000Z</time>
      </trkpt>
      <trkpt lat="43.067710138857364654541015625" lon="-6.06843327172100543975830078125">
        <ele>1776.5999755859375</ele>
        <time>2021-08-18T08:12:04.000Z</time>
      </trkpt>
      <trkpt lat="43.06768901646137237548828125" lon="-6.06840510852634906768798828125">
        <ele>1776</ele>
        <time>2021-08-18T08:12:07.000Z</time>
      </trkpt>
      <trkpt lat="43.06767602451145648956298828125" lon="-6.06838834472000598907470703125">
        <ele>1775.4000244140625</ele>
        <time>2021-08-18T08:12:09.000Z</time>
      </trkpt>
      <trkpt lat="43.06766889989376068115234375" lon="-6.06837644241750240325927734375">
        <ele>1775.199951171875</ele>
        <time>2021-08-18T08:12:10.000Z</time>
      </trkpt>
      <trkpt lat="43.0676476098597049713134765625" lon="-6.068301759660243988037109375">
        <ele>1774.4000244140625</ele>
        <time>2021-08-18T08:12:15.000Z</time>
      </trkpt>
      <trkpt lat="43.06763109751045703887939453125" lon="-6.06824769638478755950927734375">
        <ele>1774</ele>
        <time>2021-08-18T08:12:20.000Z</time>
      </trkpt>
      <trkpt lat="43.067625649273395538330078125" lon="-6.06821249239146709442138671875">
        <ele>1773.4000244140625</ele>
        <time>2021-08-18T08:12:23.000Z</time>
      </trkpt>
      <trkpt lat="43.06760645471513271331787109375" lon="-6.0681520588696002960205078125">
        <ele>1772.199951171875</ele>
        <time>2021-08-18T08:12:28.000Z</time>
      </trkpt>
      <trkpt lat="43.06759287603199481964111328125" lon="-6.06812615878880023956298828125">
        <ele>1772</ele>
        <time>2021-08-18T08:12:30.000Z</time>
      </trkpt>
      <trkpt lat="43.06753772310912609100341796875" lon="-6.06803898699581623077392578125">
        <ele>1771</ele>
        <time>2021-08-18T08:12:38.000Z</time>
      </trkpt>
      <trkpt lat="43.06753453798592090606689453125" lon="-6.06802674941718578338623046875">
        <ele>1771</ele>
        <time>2021-08-18T08:12:39.000Z</time>
      </trkpt>
      <trkpt lat="43.0675302632153034210205078125" lon="-6.06801518239080905914306640625">
        <ele>1770.800048828125</ele>
        <time>2021-08-18T08:12:40.000Z</time>
      </trkpt>
      <trkpt lat="43.067497573792934417724609375" lon="-6.0679589398205280303955078125">
        <ele>1770</ele>
        <time>2021-08-18T08:12:45.000Z</time>
      </trkpt>
      <trkpt lat="43.06749212555587291717529296875" lon="-6.06794737279415130615234375">
        <ele>1769.800048828125</ele>
        <time>2021-08-18T08:12:46.000Z</time>
      </trkpt>
      <trkpt lat="43.067486844956874847412109375" lon="-6.0679267533123493194580078125">
        <ele>1769.5999755859375</ele>
        <time>2021-08-18T08:12:48.000Z</time>
      </trkpt>
      <trkpt lat="43.0674846656620502471923828125" lon="-6.0678957402706146240234375">
        <ele>1769</ele>
        <time>2021-08-18T08:12:52.000Z</time>
      </trkpt>
      <trkpt lat="43.06748525239527225494384765625" lon="-6.0678892023861408233642578125">
        <ele>1769</ele>
        <time>2021-08-18T08:12:53.000Z</time>
      </trkpt>
      <trkpt lat="43.06749162264168262481689453125" lon="-6.06783882714807987213134765625">
        <ele>1767.800048828125</ele>
        <time>2021-08-18T08:12:58.000Z</time>
      </trkpt>
      <trkpt lat="43.06748894043266773223876953125" lon="-6.067776046693325042724609375">
        <ele>1767.199951171875</ele>
        <time>2021-08-18T08:13:03.000Z</time>
      </trkpt>
      <trkpt lat="43.06748877279460430145263671875" lon="-6.06774394400417804718017578125">
        <ele>1766.800048828125</ele>
        <time>2021-08-18T08:13:06.000Z</time>
      </trkpt>
      <trkpt lat="43.0674866773188114166259765625" lon="-6.06771536171436309814453125">
        <ele>1766.199951171875</ele>
        <time>2021-08-18T08:13:09.000Z</time>
      </trkpt>
      <trkpt lat="43.0674799717962741851806640625" lon="-6.067657358944416046142578125">
        <ele>1765.800048828125</ele>
        <time>2021-08-18T08:13:14.000Z</time>
      </trkpt>
      <trkpt lat="43.06747921742498874664306640625" lon="-6.06764352880418300628662109375">
        <ele>1765.4000244140625</ele>
        <time>2021-08-18T08:13:15.000Z</time>
      </trkpt>
      <trkpt lat="43.06747552938759326934814453125" lon="-6.06757814995944499969482421875">
        <ele>1764.5999755859375</ele>
        <time>2021-08-18T08:13:20.000Z</time>
      </trkpt>
      <trkpt lat="43.0674689076840877532958984375" lon="-6.067499108612537384033203125">
        <ele>1763.5999755859375</ele>
        <time>2021-08-18T08:13:27.000Z</time>
      </trkpt>
      <trkpt lat="43.06745641864836215972900390625" lon="-6.06741470284759998321533203125">
        <ele>1762.4000244140625</ele>
        <time>2021-08-18T08:13:34.000Z</time>
      </trkpt>
      <trkpt lat="43.06745038367807865142822265625" lon="-6.0674017108976840972900390625">
        <ele>1762.199951171875</ele>
        <time>2021-08-18T08:13:35.000Z</time>
      </trkpt>
      <trkpt lat="43.0674337036907672882080078125" lon="-6.06736759655177593231201171875">
        <ele>1762</ele>
        <time>2021-08-18T08:13:38.000Z</time>
      </trkpt>
      <trkpt lat="43.06741165928542613983154296875" lon="-6.06730557046830654144287109375">
        <ele>1761.5999755859375</ele>
        <time>2021-08-18T08:13:44.000Z</time>
      </trkpt>
      <trkpt lat="43.06741668842732906341552734375" lon="-6.06727950274944305419921875">
        <ele>1761.5999755859375</ele>
        <time>2021-08-18T08:13:46.000Z</time>
      </trkpt>
      <trkpt lat="43.06741953827440738677978515625" lon="-6.0672605596482753753662109375">
        <ele>1761.199951171875</ele>
        <time>2021-08-18T08:13:48.000Z</time>
      </trkpt>
      <trkpt lat="43.06739590130746364593505859375" lon="-6.06715838424861431121826171875">
        <ele>1760.5999755859375</ele>
        <time>2021-08-18T08:13:57.000Z</time>
      </trkpt>
      <trkpt lat="43.06739003397524356842041015625" lon="-6.06713625602424144744873046875">
        <ele>1760</ele>
        <time>2021-08-18T08:13:59.000Z</time>
      </trkpt>
      <trkpt lat="43.06738324463367462158203125" lon="-6.067100800573825836181640625">
        <ele>1759</ele>
        <time>2021-08-18T08:14:02.000Z</time>
      </trkpt>
      <trkpt lat="43.0673678219318389892578125" lon="-6.0670530237257480621337890625">
        <ele>1758</ele>
        <time>2021-08-18T08:14:06.000Z</time>
      </trkpt>
      <trkpt lat="43.06736220605671405792236328125" lon="-6.06703768484294414520263671875">
        <ele>1757.800048828125</ele>
        <time>2021-08-18T08:14:08.000Z</time>
      </trkpt>
      <trkpt lat="43.067353405058383941650390625" lon="-6.06696174480020999908447265625">
        <ele>1757.199951171875</ele>
        <time>2021-08-18T08:14:15.000Z</time>
      </trkpt>
      <trkpt lat="43.06735047139227390289306640625" lon="-6.0669393651187419891357421875">
        <ele>1756.800048828125</ele>
        <time>2021-08-18T08:14:17.000Z</time>
      </trkpt>
      <trkpt lat="43.0673626251518726348876953125" lon="-6.06685646809637546539306640625">
        <ele>1755.5999755859375</ele>
        <time>2021-08-18T08:14:24.000Z</time>
      </trkpt>
      <trkpt lat="43.06736220605671405792236328125" lon="-6.06684364378452301025390625">
        <ele>1755.4000244140625</ele>
        <time>2021-08-18T08:14:25.000Z</time>
      </trkpt>
      <trkpt lat="43.06736472062766551971435546875" lon="-6.06680433265864849090576171875">
        <ele>1755</ele>
        <time>2021-08-18T08:14:28.000Z</time>
      </trkpt>
      <trkpt lat="43.0673639662563800811767578125" lon="-6.06677399016916751861572265625">
        <ele>1754.5999755859375</ele>
        <time>2021-08-18T08:14:31.000Z</time>
      </trkpt>
      <trkpt lat="43.06735851801931858062744140625" lon="-6.06672554276883602142333984375">
        <ele>1753.800048828125</ele>
        <time>2021-08-18T08:14:36.000Z</time>
      </trkpt>
      <trkpt lat="43.067356757819652557373046875" lon="-6.066713221371173858642578125">
        <ele>1753.800048828125</ele>
        <time>2021-08-18T08:14:37.000Z</time>
      </trkpt>
      <trkpt lat="43.06735633872449398040771484375" lon="-6.06669972650706768035888671875">
        <ele>1753.5999755859375</ele>
        <time>2021-08-18T08:14:38.000Z</time>
      </trkpt>
      <trkpt lat="43.06735365651547908782958984375" lon="-6.0666895844042301177978515625">
        <ele>1753.4000244140625</ele>
        <time>2021-08-18T08:14:39.000Z</time>
      </trkpt>
      <trkpt lat="43.06732834316790103912353515625" lon="-6.06661431491374969482421875">
        <ele>1752.5999755859375</ele>
        <time>2021-08-18T08:14:46.000Z</time>
      </trkpt>
      <trkpt lat="43.06732415221631526947021484375" lon="-6.06660584919154644012451171875">
        <ele>1752.4000244140625</ele>
        <time>2021-08-18T08:14:48.000Z</time>
      </trkpt>
      <trkpt lat="43.06732130236923694610595703125" lon="-6.06660065241158008575439453125">
        <ele>1752</ele>
        <time>2021-08-18T08:14:50.000Z</time>
      </trkpt>
      <trkpt lat="43.06731275282800197601318359375" lon="-6.066554300487041473388671875">
        <ele>1751.4000244140625</ele>
        <time>2021-08-18T08:14:56.000Z</time>
      </trkpt>
      <trkpt lat="43.06730973534286022186279296875" lon="-6.06651113368570804595947265625">
        <ele>1750.800048828125</ele>
        <time>2021-08-18T08:15:00.000Z</time>
      </trkpt>
      <trkpt lat="43.06730906479060649871826171875" lon="-6.06648213230073451995849609375">
        <ele>1750.199951171875</ele>
        <time>2021-08-18T08:15:03.000Z</time>
      </trkpt>
      <trkpt lat="43.0673123337328433990478515625" lon="-6.066446006298065185546875">
        <ele>1749.4000244140625</ele>
        <time>2021-08-18T08:15:07.000Z</time>
      </trkpt>
      <trkpt lat="43.067313842475414276123046875" lon="-6.06643737293779850006103515625">
        <ele>1749.199951171875</ele>
        <time>2021-08-18T08:15:08.000Z</time>
      </trkpt>
      <trkpt lat="43.06731543503701686859130859375" lon="-6.06637601740658283233642578125">
        <ele>1748.199951171875</ele>
        <time>2021-08-18T08:15:14.000Z</time>
      </trkpt>
      <trkpt lat="43.0673166923224925994873046875" lon="-6.06633997522294521331787109375">
        <ele>1747.5999755859375</ele>
        <time>2021-08-18T08:15:17.000Z</time>
      </trkpt>
      <trkpt lat="43.0673187039792537689208984375" lon="-6.0663187690079212188720703125">
        <ele>1747.199951171875</ele>
        <time>2021-08-18T08:15:19.000Z</time>
      </trkpt>
      <trkpt lat="43.0673160217702388763427734375" lon="-6.0662493668496608734130859375">
        <ele>1746</ele>
        <time>2021-08-18T08:15:25.000Z</time>
      </trkpt>
      <trkpt lat="43.06731753051280975341796875" lon="-6.06620100326836109161376953125">
        <ele>1745.4000244140625</ele>
        <time>2021-08-18T08:15:29.000Z</time>
      </trkpt>
      <trkpt lat="43.0673146806657314300537109375" lon="-6.0661802999675273895263671875">
        <ele>1745</ele>
        <time>2021-08-18T08:15:31.000Z</time>
      </trkpt>
      <trkpt lat="43.06730772368609905242919921875" lon="-6.06613478623330593109130859375">
        <ele>1744.199951171875</ele>
        <time>2021-08-18T08:15:35.000Z</time>
      </trkpt>
      <trkpt lat="43.0673036165535449981689453125" lon="-6.0661082156002521514892578125">
        <ele>1743.800048828125</ele>
        <time>2021-08-18T08:15:37.000Z</time>
      </trkpt>
      <trkpt lat="43.06729481555521488189697265625" lon="-6.06606521643698215484619140625">
        <ele>1743.4000244140625</ele>
        <time>2021-08-18T08:15:40.000Z</time>
      </trkpt>
      <trkpt lat="43.06728668510913848876953125" lon="-6.06602112762629985809326171875">
        <ele>1743</ele>
        <time>2021-08-18T08:15:44.000Z</time>
      </trkpt>
      <trkpt lat="43.0672846734523773193359375" lon="-6.06600738130509853363037109375">
        <ele>1742.800048828125</ele>
        <time>2021-08-18T08:15:45.000Z</time>
      </trkpt>
      <trkpt lat="43.0672794766724109649658203125" lon="-6.06596832163631916046142578125">
        <ele>1742.199951171875</ele>
        <time>2021-08-18T08:15:48.000Z</time>
      </trkpt>
      <trkpt lat="43.06727620773017406463623046875" lon="-6.065941415727138519287109375">
        <ele>1741.800048828125</ele>
        <time>2021-08-18T08:15:50.000Z</time>
      </trkpt>
      <trkpt lat="43.06727436371147632598876953125" lon="-6.06593261472880840301513671875">
        <ele>1741.4000244140625</ele>
        <time>2021-08-18T08:15:51.000Z</time>
      </trkpt>
      <trkpt lat="43.06727520190179347991943359375" lon="-6.06589707545936107635498046875">
        <ele>1740.5999755859375</ele>
        <time>2021-08-18T08:15:54.000Z</time>
      </trkpt>
      <trkpt lat="43.06726925075054168701171875" lon="-6.06585784815251827239990234375">
        <ele>1740</ele>
        <time>2021-08-18T08:15:57.000Z</time>
      </trkpt>
      <trkpt lat="43.0672677420079708099365234375" lon="-6.06584611348807811737060546875">
        <ele>1740</ele>
        <time>2021-08-18T08:15:58.000Z</time>
      </trkpt>
      <trkpt lat="43.06726698763668537139892578125" lon="-6.06580537743866443634033203125">
        <ele>1739.5999755859375</ele>
        <time>2021-08-18T08:16:01.000Z</time>
      </trkpt>
      <trkpt lat="43.06725122965872287750244140625" lon="-6.06576003134250640869140625">
        <ele>1739</ele>
        <time>2021-08-18T08:16:05.000Z</time>
      </trkpt>
      <trkpt lat="43.06723915971815586090087890625" lon="-6.065692640841007232666015625">
        <ele>1738.5999755859375</ele>
        <time>2021-08-18T08:16:10.000Z</time>
      </trkpt>
      <trkpt lat="43.067238070070743560791015625" lon="-6.0656780563294887542724609375">
        <ele>1738.199951171875</ele>
        <time>2021-08-18T08:16:11.000Z</time>
      </trkpt>
      <trkpt lat="43.0672372318804264068603515625" lon="-6.06563019566237926483154296875">
        <ele>1737.4000244140625</ele>
        <time>2021-08-18T08:16:14.000Z</time>
      </trkpt>
      <trkpt lat="43.0672348849475383758544921875" lon="-6.065559871494770050048828125">
        <ele>1736.800048828125</ele>
        <time>2021-08-18T08:16:19.000Z</time>
      </trkpt>
      <trkpt lat="43.067240752279758453369140625" lon="-6.0655342228710651397705078125">
        <ele>1736.4000244140625</ele>
        <time>2021-08-18T08:16:21.000Z</time>
      </trkpt>
      <trkpt lat="43.06724938564002513885498046875" lon="-6.06548636220395565032958984375">
        <ele>1735.5999755859375</ele>
        <time>2021-08-18T08:16:25.000Z</time>
      </trkpt>
      <trkpt lat="43.0672523193061351776123046875" lon="-6.0654654912650585174560546875">
        <ele>1735.199951171875</ele>
        <time>2021-08-18T08:16:27.000Z</time>
      </trkpt>
      <trkpt lat="43.067254163324832916259765625" lon="-6.0654185526072978973388671875">
        <ele>1734</ele>
        <time>2021-08-18T08:16:31.000Z</time>
      </trkpt>
      <trkpt lat="43.0672620423138141632080078125" lon="-6.06540136970579624176025390625">
        <ele>1733.5999755859375</ele>
        <time>2021-08-18T08:16:33.000Z</time>
      </trkpt>
      <trkpt lat="43.0672664009034633636474609375" lon="-6.065370775759220123291015625">
        <ele>1732.800048828125</ele>
        <time>2021-08-18T08:16:36.000Z</time>
      </trkpt>
      <trkpt lat="43.06726933456957340240478515625" lon="-6.065358035266399383544921875">
        <ele>1732.5999755859375</ele>
        <time>2021-08-18T08:16:37.000Z</time>
      </trkpt>
      <trkpt lat="43.06727000512182712554931640625" lon="-6.06530749239027500152587890625">
        <ele>1731.800048828125</ele>
        <time>2021-08-18T08:16:41.000Z</time>
      </trkpt>
      <trkpt lat="43.06726866401731967926025390625" lon="-6.065255105495452880859375">
        <ele>1731.199951171875</ele>
        <time>2021-08-18T08:16:45.000Z</time>
      </trkpt>
      <trkpt lat="43.06727419607341289520263671875" lon="-6.06521629728376865386962890625">
        <ele>1730.5999755859375</ele>
        <time>2021-08-18T08:16:48.000Z</time>
      </trkpt>
      <trkpt lat="43.06727285496890544891357421875" lon="-6.0652026347815990447998046875">
        <ele>1730.4000244140625</ele>
        <time>2021-08-18T08:16:49.000Z</time>
      </trkpt>
      <trkpt lat="43.06726346723735332489013671875" lon="-6.0651198215782642364501953125">
        <ele>1729.5999755859375</ele>
        <time>2021-08-18T08:16:56.000Z</time>
      </trkpt>
      <trkpt lat="43.06726681999862194061279296875" lon="-6.06508537195622920989990234375">
        <ele>1729</ele>
        <time>2021-08-18T08:16:59.000Z</time>
      </trkpt>
      <trkpt lat="43.067275620996952056884765625" lon="-6.0650564543902873992919921875">
        <ele>1728.4000244140625</ele>
        <time>2021-08-18T08:17:02.000Z</time>
      </trkpt>
      <trkpt lat="43.06728257797658443450927734375" lon="-6.06501697562634944915771484375">
        <ele>1727.199951171875</ele>
        <time>2021-08-18T08:17:06.000Z</time>
      </trkpt>
      <trkpt lat="43.06728375144302845001220703125" lon="-6.065008006989955902099609375">
        <ele>1727</ele>
        <time>2021-08-18T08:17:07.000Z</time>
      </trkpt>
      <trkpt lat="43.0672851763665676116943359375" lon="-6.06499887071549892425537109375">
        <ele>1726.5999755859375</ele>
        <time>2021-08-18T08:17:08.000Z</time>
      </trkpt>
      <trkpt lat="43.06728458963334560394287109375" lon="-6.06498830951750278472900390625">
        <ele>1726.4000244140625</ele>
        <time>2021-08-18T08:17:09.000Z</time>
      </trkpt>
      <trkpt lat="43.0672838352620601654052734375" lon="-6.064975149929523468017578125">
        <ele>1726.199951171875</ele>
        <time>2021-08-18T08:17:10.000Z</time>
      </trkpt>
      <trkpt lat="43.06727821938693523406982421875" lon="-6.0649372637271881103515625">
        <ele>1725.199951171875</ele>
        <time>2021-08-18T08:17:14.000Z</time>
      </trkpt>
      <trkpt lat="43.06728442199528217315673828125" lon="-6.06488429009914398193359375">
        <ele>1724.4000244140625</ele>
        <time>2021-08-18T08:17:19.000Z</time>
      </trkpt>
      <trkpt lat="43.0672891996800899505615234375" lon="-6.06487582437694072723388671875">
        <ele>1724</ele>
        <time>2021-08-18T08:17:20.000Z</time>
      </trkpt>
      <trkpt lat="43.06730520911514759063720703125" lon="-6.064827628433704376220703125">
        <ele>1723</ele>
        <time>2021-08-18T08:17:25.000Z</time>
      </trkpt>
      <trkpt lat="43.0673059634864330291748046875" lon="-6.06478513218462467193603515625">
        <ele>1722</ele>
        <time>2021-08-18T08:17:31.000Z</time>
      </trkpt>
      <trkpt lat="43.067303784191608428955078125" lon="-6.06477624736726284027099609375">
        <ele>1722</ele>
        <time>2021-08-18T08:17:32.000Z</time>
      </trkpt>
      <trkpt lat="43.0672982521355152130126953125" lon="-6.064727045595645904541015625">
        <ele>1721</ele>
        <time>2021-08-18T08:17:37.000Z</time>
      </trkpt>
      <trkpt lat="43.0672975815832614898681640625" lon="-6.0646658577024936676025390625">
        <ele>1719.800048828125</ele>
        <time>2021-08-18T08:17:42.000Z</time>
      </trkpt>
      <trkpt lat="43.0672992579638957977294921875" lon="-6.06465521268546581268310546875">
        <ele>1719.5999755859375</ele>
        <time>2021-08-18T08:17:43.000Z</time>
      </trkpt>
      <trkpt lat="43.067295737564563751220703125" lon="-6.0645840503275394439697265625">
        <ele>1718.800048828125</ele>
        <time>2021-08-18T08:17:49.000Z</time>
      </trkpt>
      <trkpt lat="43.0672982521355152130126953125" lon="-6.06456032954156398773193359375">
        <ele>1718.4000244140625</ele>
        <time>2021-08-18T08:17:51.000Z</time>
      </trkpt>
      <trkpt lat="43.06730370037257671356201171875" lon="-6.0645357705652713775634765625">
        <ele>1717.5999755859375</ele>
        <time>2021-08-18T08:17:53.000Z</time>
      </trkpt>
      <trkpt lat="43.0673183687031269073486328125" lon="-6.0644995607435703277587890625">
        <ele>1716.800048828125</ele>
        <time>2021-08-18T08:17:56.000Z</time>
      </trkpt>
      <trkpt lat="43.0673183687031269073486328125" lon="-6.064487993717193603515625">
        <ele>1716.5999755859375</ele>
        <time>2021-08-18T08:17:57.000Z</time>
      </trkpt>
      <trkpt lat="43.06732415221631526947021484375" lon="-6.06441632844507694244384765625">
        <ele>1715.4000244140625</ele>
        <time>2021-08-18T08:18:03.000Z</time>
      </trkpt>
      <trkpt lat="43.0673227272927761077880859375" lon="-6.0643329285085201263427734375">
        <ele>1714.4000244140625</ele>
        <time>2021-08-18T08:18:09.000Z</time>
      </trkpt>
      <trkpt lat="43.06732398457825183868408203125" lon="-6.064320020377635955810546875">
        <ele>1714.199951171875</ele>
        <time>2021-08-18T08:18:10.000Z</time>
      </trkpt>
      <trkpt lat="43.06732800789177417755126953125" lon="-6.06429629959166049957275390625">
        <ele>1713.5999755859375</ele>
        <time>2021-08-18T08:18:12.000Z</time>
      </trkpt>
      <trkpt lat="43.0673290975391864776611328125" lon="-6.06427232734858989715576171875">
        <ele>1713.199951171875</ele>
        <time>2021-08-18T08:18:14.000Z</time>
      </trkpt>
      <trkpt lat="43.0673609487712383270263671875" lon="-6.06416068039834499359130859375">
        <ele>1712</ele>
        <time>2021-08-18T08:18:22.000Z</time>
      </trkpt>
      <trkpt lat="43.0673636309802532196044921875" lon="-6.06414559297263622283935546875">
        <ele>1711.800048828125</ele>
        <time>2021-08-18T08:18:23.000Z</time>
      </trkpt>
      <trkpt lat="43.06736857630312442779541015625" lon="-6.06408909894526004791259765625">
        <ele>1711</ele>
        <time>2021-08-18T08:18:27.000Z</time>
      </trkpt>
      <trkpt lat="43.067393638193607330322265625" lon="-6.06397041119635105133056640625">
        <ele>1710.199951171875</ele>
        <time>2021-08-18T08:18:36.000Z</time>
      </trkpt>
      <trkpt lat="43.06740176863968372344970703125" lon="-6.06394409202039241790771484375">
        <ele>1709.800048828125</ele>
        <time>2021-08-18T08:18:38.000Z</time>
      </trkpt>
      <trkpt lat="43.06743999011814594268798828125" lon="-6.0638699121773242950439453125">
        <ele>1709</ele>
        <time>2021-08-18T08:18:44.000Z</time>
      </trkpt>
      <trkpt lat="43.06746647693216800689697265625" lon="-6.0638189502060413360595703125">
        <ele>1709</ele>
        <time>2021-08-18T08:18:49.000Z</time>
      </trkpt>
      <trkpt lat="43.0674749426543712615966796875" lon="-6.06378768570721149444580078125">
        <ele>1708.800048828125</ele>
        <time>2021-08-18T08:18:52.000Z</time>
      </trkpt>
      <trkpt lat="43.06751710362732410430908203125" lon="-6.06369213201105594635009765625">
        <ele>1708.4000244140625</ele>
        <time>2021-08-18T08:19:00.000Z</time>
      </trkpt>
      <trkpt lat="43.0675191991031169891357421875" lon="-6.06367704458534717559814453125">
        <ele>1708.199951171875</ele>
        <time>2021-08-18T08:19:01.000Z</time>
      </trkpt>
      <trkpt lat="43.0675269104540348052978515625" lon="-6.0636298544704914093017578125">
        <ele>1707.800048828125</ele>
        <time>2021-08-18T08:19:05.000Z</time>
      </trkpt>
      <trkpt lat="43.06754895485937595367431640625" lon="-6.063569001853466033935546875">
        <ele>1706.800048828125</ele>
        <time>2021-08-18T08:19:11.000Z</time>
      </trkpt>
      <trkpt lat="43.06755498982965946197509765625" lon="-6.0635115019977092742919921875">
        <ele>1705.800048828125</ele>
        <time>2021-08-18T08:19:16.000Z</time>
      </trkpt>
      <trkpt lat="43.067543841898441314697265625" lon="-6.06344335712492465972900390625">
        <ele>1704.800048828125</ele>
        <time>2021-08-18T08:19:22.000Z</time>
      </trkpt>
      <trkpt lat="43.06754417717456817626953125" lon="-6.06343463994562625885009765625">
        <ele>1704.5999755859375</ele>
        <time>2021-08-18T08:19:23.000Z</time>
      </trkpt>
      <trkpt lat="43.06751945056021213531494140625" lon="-6.06336406432092189788818359375">
        <ele>1703.4000244140625</ele>
        <time>2021-08-18T08:19:31.000Z</time>
      </trkpt>
      <trkpt lat="43.06751173920929431915283203125" lon="-6.06333975680172443389892578125">
        <ele>1702.4000244140625</ele>
        <time>2021-08-18T08:19:35.000Z</time>
      </trkpt>
      <trkpt lat="43.06750788353383541107177734375" lon="-6.06333196163177490234375">
        <ele>1702.199951171875</ele>
        <time>2021-08-18T08:19:36.000Z</time>
      </trkpt>
      <trkpt lat="43.06748290546238422393798828125" lon="-6.0632717795670032501220703125">
        <ele>1701.199951171875</ele>
        <time>2021-08-18T08:19:42.000Z</time>
      </trkpt>
      <trkpt lat="43.06746236979961395263671875" lon="-6.06322693638503551483154296875">
        <ele>1700</ele>
        <time>2021-08-18T08:19:47.000Z</time>
      </trkpt>
      <trkpt lat="43.06745742447674274444580078125" lon="-6.06320782564580440521240234375">
        <ele>1699.800048828125</ele>
        <time>2021-08-18T08:19:49.000Z</time>
      </trkpt>
      <trkpt lat="43.06742641143500804901123046875" lon="-6.0631267726421356201171875">
        <ele>1699</ele>
        <time>2021-08-18T08:19:57.000Z</time>
      </trkpt>
      <trkpt lat="43.06742188520729541778564453125" lon="-6.0630950890481472015380859375">
        <ele>1699</ele>
        <time>2021-08-18T08:19:59.000Z</time>
      </trkpt>
      <trkpt lat="43.06741115637123584747314453125" lon="-6.06298972852528095245361328125">
        <ele>1698</ele>
        <time>2021-08-18T08:20:06.000Z</time>
      </trkpt>
      <trkpt lat="43.06741048581898212432861328125" lon="-6.06294547207653522491455078125">
        <ele>1697.5999755859375</ele>
        <time>2021-08-18T08:20:09.000Z</time>
      </trkpt>
      <trkpt lat="43.067439906299114227294921875" lon="-6.0628805123269557952880859375">
        <ele>1696.800048828125</ele>
        <time>2021-08-18T08:20:14.000Z</time>
      </trkpt>
      <trkpt lat="43.067469410598278045654296875" lon="-6.06285360641777515411376953125">
        <ele>1696.4000244140625</ele>
        <time>2021-08-18T08:20:18.000Z</time>
      </trkpt>
      <trkpt lat="43.06747586466372013092041015625" lon="-6.0628436319530010223388671875">
        <ele>1696.199951171875</ele>
        <time>2021-08-18T08:20:19.000Z</time>
      </trkpt>
      <trkpt lat="43.067491538822650909423828125" lon="-6.0628080926835536956787109375">
        <ele>1695.800048828125</ele>
        <time>2021-08-18T08:20:22.000Z</time>
      </trkpt>
      <trkpt lat="43.067510984838008880615234375" lon="-6.06275520287454128265380859375">
        <ele>1694.800048828125</ele>
        <time>2021-08-18T08:20:27.000Z</time>
      </trkpt>
      <trkpt lat="43.0675195343792438507080078125" lon="-6.06273827143013477325439453125">
        <ele>1694</ele>
        <time>2021-08-18T08:20:29.000Z</time>
      </trkpt>
      <trkpt lat="43.06752271950244903564453125" lon="-6.0627293027937412261962890625">
        <ele>1693.5999755859375</ele>
        <time>2021-08-18T08:20:30.000Z</time>
      </trkpt>
      <trkpt lat="43.06754308752715587615966796875" lon="-6.0626954399049282073974609375">
        <ele>1692.5999755859375</ele>
        <time>2021-08-18T08:20:34.000Z</time>
      </trkpt>
      <trkpt lat="43.0675661377608776092529296875" lon="-6.06267146766185760498046875">
        <ele>1692</ele>
        <time>2021-08-18T08:20:37.000Z</time>
      </trkpt>
      <trkpt lat="43.06757980026304721832275390625" lon="-6.06265093199908733367919921875">
        <ele>1691.4000244140625</ele>
        <time>2021-08-18T08:20:39.000Z</time>
      </trkpt>
      <trkpt lat="43.0675855837762355804443359375" lon="-6.06264204718172550201416015625">
        <ele>1691.199951171875</ele>
        <time>2021-08-18T08:20:40.000Z</time>
      </trkpt>
      <trkpt lat="43.06760896928608417510986328125" lon="-6.062613464891910552978515625">
        <ele>1690.4000244140625</ele>
        <time>2021-08-18T08:20:44.000Z</time>
      </trkpt>
      <trkpt lat="43.06761550717055797576904296875" lon="-6.0626022331416606903076171875">
        <ele>1690.199951171875</ele>
        <time>2021-08-18T08:20:45.000Z</time>
      </trkpt>
      <trkpt lat="43.0676355399191379547119140625" lon="-6.06256124563515186309814453125">
        <ele>1689.199951171875</ele>
        <time>2021-08-18T08:20:49.000Z</time>
      </trkpt>
      <trkpt lat="43.0676717497408390045166015625" lon="-6.06251430697739124298095703125">
        <ele>1688.199951171875</ele>
        <time>2021-08-18T08:20:54.000Z</time>
      </trkpt>
      <trkpt lat="43.067677281796932220458984375" lon="-6.06250693090260028839111328125">
        <ele>1688</ele>
        <time>2021-08-18T08:20:55.000Z</time>
      </trkpt>
      <trkpt lat="43.06769513525068759918212890625" lon="-6.06246569193899631500244140625">
        <ele>1687</ele>
        <time>2021-08-18T08:21:00.000Z</time>
      </trkpt>
      <trkpt lat="43.06771575473248958587646484375" lon="-6.0624520294368267059326171875">
        <ele>1686</ele>
        <time>2021-08-18T08:21:05.000Z</time>
      </trkpt>
      <trkpt lat="43.067726232111454010009765625" lon="-6.062444150447845458984375">
        <ele>1686</ele>
        <time>2021-08-18T08:21:07.000Z</time>
      </trkpt>
      <trkpt lat="43.06773461401462554931640625" lon="-6.06242747046053409576416015625">
        <ele>1685.5999755859375</ele>
        <time>2021-08-18T08:21:09.000Z</time>
      </trkpt>
      <trkpt lat="43.06773469783365726470947265625" lon="-6.06238237582147121429443359375">
        <ele>1684.800048828125</ele>
        <time>2021-08-18T08:21:14.000Z</time>
      </trkpt>
      <trkpt lat="43.0677475221455097198486328125" lon="-6.0623504407703876495361328125">
        <ele>1684</ele>
        <time>2021-08-18T08:21:18.000Z</time>
      </trkpt>
      <trkpt lat="43.06775481440126895904541015625" lon="-6.06233191676437854766845703125">
        <ele>1683.800048828125</ele>
        <time>2021-08-18T08:21:20.000Z</time>
      </trkpt>
      <trkpt lat="43.06777744553983211517333984375" lon="-6.0622931085526943206787109375">
        <ele>1682.5999755859375</ele>
        <time>2021-08-18T08:21:25.000Z</time>
      </trkpt>
      <trkpt lat="43.06779253296554088592529296875" lon="-6.0622441582381725311279296875">
        <ele>1681.4000244140625</ele>
        <time>2021-08-18T08:21:30.000Z</time>
      </trkpt>
      <trkpt lat="43.0677924491465091705322265625" lon="-6.06223502196371555328369140625">
        <ele>1681.199951171875</ele>
        <time>2021-08-18T08:21:31.000Z</time>
      </trkpt>
      <trkpt lat="43.067812733352184295654296875" lon="-6.06221021153032779693603515625">
        <ele>1680.4000244140625</ele>
        <time>2021-08-18T08:21:35.000Z</time>
      </trkpt>
      <trkpt lat="43.0678289942443370819091796875" lon="-6.0621678829193115234375">
        <ele>1679.4000244140625</ele>
        <time>2021-08-18T08:21:40.000Z</time>
      </trkpt>
      <trkpt lat="43.06783444248139858245849609375" lon="-6.06216276995837688446044921875">
        <ele>1679.4000244140625</ele>
        <time>2021-08-18T08:21:41.000Z</time>
      </trkpt>
      <trkpt lat="43.06786662898957729339599609375" lon="-6.06213443912565708160400390625">
        <ele>1678.4000244140625</ele>
        <time>2021-08-18T08:21:47.000Z</time>
      </trkpt>
      <trkpt lat="43.06789596565067768096923828125" lon="-6.06212027370929718017578125">
        <ele>1677.199951171875</ele>
        <time>2021-08-18T08:21:52.000Z</time>
      </trkpt>
      <trkpt lat="43.06793041527271270751953125" lon="-6.06213125400245189666748046875">
        <ele>1676</ele>
        <time>2021-08-18T08:21:57.000Z</time>
      </trkpt>
      <trkpt lat="43.06796704418957233428955078125" lon="-6.06214709579944610595703125">
        <ele>1675</ele>
        <time>2021-08-18T08:22:01.000Z</time>
      </trkpt>
      <trkpt lat="43.068008534610271453857421875" lon="-6.062104515731334686279296875">
        <ele>1674.199951171875</ele>
        <time>2021-08-18T08:22:08.000Z</time>
      </trkpt>
      <trkpt lat="43.06800954043865203857421875" lon="-6.06208716519176959991455078125">
        <ele>1674</ele>
        <time>2021-08-18T08:22:10.000Z</time>
      </trkpt>
      <trkpt lat="43.06800358928740024566650390625" lon="-6.06206302531063556671142578125">
        <ele>1673.4000244140625</ele>
        <time>2021-08-18T08:22:13.000Z</time>
      </trkpt>
      <trkpt lat="43.0680043436586856842041015625" lon="-6.06202111579477787017822265625">
        <ele>1672.800048828125</ele>
        <time>2021-08-18T08:22:18.000Z</time>
      </trkpt>
      <trkpt lat="43.0680087022483348846435546875" lon="-6.06201491318643093109130859375">
        <ele>1672.5999755859375</ele>
        <time>2021-08-18T08:22:19.000Z</time>
      </trkpt>
      <trkpt lat="43.06802806444466114044189453125" lon="-6.06198239140212535858154296875">
        <ele>1671.5999755859375</ele>
        <time>2021-08-18T08:22:24.000Z</time>
      </trkpt>
      <trkpt lat="43.068050779402256011962890625" lon="-6.06194500811398029327392578125">
        <ele>1670.5999755859375</ele>
        <time>2021-08-18T08:22:29.000Z</time>
      </trkpt>
      <trkpt lat="43.0680901743471622467041015625" lon="-6.061894632875919342041015625">
        <ele>1669.199951171875</ele>
        <time>2021-08-18T08:22:36.000Z</time>
      </trkpt>
      <trkpt lat="43.06810786016285419464111328125" lon="-6.061863116919994354248046875">
        <ele>1668.4000244140625</ele>
        <time>2021-08-18T08:22:41.000Z</time>
      </trkpt>
      <trkpt lat="43.068111129105091094970703125" lon="-6.06185800395905971527099609375">
        <ele>1668.199951171875</ele>
        <time>2021-08-18T08:22:42.000Z</time>
      </trkpt>
      <trkpt lat="43.06812462396919727325439453125" lon="-6.0618245601654052734375">
        <ele>1667.199951171875</ele>
        <time>2021-08-18T08:22:46.000Z</time>
      </trkpt>
      <trkpt lat="43.06817374192178249359130859375" lon="-6.06178005225956439971923828125">
        <ele>1666</ele>
        <time>2021-08-18T08:22:53.000Z</time>
      </trkpt>
      <trkpt lat="43.06819989345967769622802734375" lon="-6.06176429428160190582275390625">
        <ele>1665</ele>
        <time>2021-08-18T08:22:57.000Z</time>
      </trkpt>
      <trkpt lat="43.06822369806468486785888671875" lon="-6.0617395676672458648681640625">
        <ele>1664.199951171875</ele>
        <time>2021-08-18T08:23:02.000Z</time>
      </trkpt>
      <trkpt lat="43.06822839193046092987060546875" lon="-6.0617338679730892181396484375">
        <ele>1664</ele>
        <time>2021-08-18T08:23:03.000Z</time>
      </trkpt>
      <trkpt lat="43.0682336725294589996337890625" lon="-6.06172640807926654815673828125">
        <ele>1663.800048828125</ele>
        <time>2021-08-18T08:23:04.000Z</time>
      </trkpt>
      <trkpt lat="43.06824289262294769287109375" lon="-6.0616889409720897674560546875">
        <ele>1662.800048828125</ele>
        <time>2021-08-18T08:23:09.000Z</time>
      </trkpt>
      <trkpt lat="43.06826493702828884124755859375" lon="-6.06167075224220752716064453125">
        <ele>1662.199951171875</ele>
        <time>2021-08-18T08:23:13.000Z</time>
      </trkpt>
      <trkpt lat="43.0682759173214435577392578125" lon="-6.06163747608661651611328125">
        <ele>1661.5999755859375</ele>
        <time>2021-08-18T08:23:17.000Z</time>
      </trkpt>
      <trkpt lat="43.06832277216017246246337890625" lon="-6.06160755269229412078857421875">
        <ele>1660.5999755859375</ele>
        <time>2021-08-18T08:23:24.000Z</time>
      </trkpt>
      <trkpt lat="43.06832746602594852447509765625" lon="-6.06160185299813747406005859375">
        <ele>1660.4000244140625</ele>
        <time>2021-08-18T08:23:25.000Z</time>
      </trkpt>
      <trkpt lat="43.06835680268704891204833984375" lon="-6.06154602952301502227783203125">
        <ele>1659.5999755859375</ele>
        <time>2021-08-18T08:23:32.000Z</time>
      </trkpt>
      <trkpt lat="43.06835579685866832733154296875" lon="-6.06152306310832500457763671875">
        <ele>1658.5999755859375</ele>
        <time>2021-08-18T08:23:36.000Z</time>
      </trkpt>
      <trkpt lat="43.06835361756384372711181640625" lon="-6.06152038089931011199951171875">
        <ele>1658.4000244140625</ele>
        <time>2021-08-18T08:23:37.000Z</time>
      </trkpt>
      <trkpt lat="43.06836719624698162078857421875" lon="-6.06150738894939422607421875">
        <ele>1658.199951171875</ele>
        <time>2021-08-18T08:23:42.000Z</time>
      </trkpt>
      <trkpt lat="43.06837205775082111358642578125" lon="-6.0614777170121669769287109375">
        <ele>1657.5999755859375</ele>
        <time>2021-08-18T08:23:46.000Z</time>
      </trkpt>
      <trkpt lat="43.06837993673980236053466796875" lon="-6.06146774254739284515380859375">
        <ele>1657.199951171875</ele>
        <time>2021-08-18T08:23:48.000Z</time>
      </trkpt>
      <trkpt lat="43.0683838762342929840087890625" lon="-6.06146288104355335235595703125">
        <ele>1657.199951171875</ele>
        <time>2021-08-18T08:23:49.000Z</time>
      </trkpt>
      <trkpt lat="43.0683986283838748931884765625" lon="-6.06143404729664325714111328125">
        <ele>1656</ele>
        <time>2021-08-18T08:23:54.000Z</time>
      </trkpt>
      <trkpt lat="43.068390749394893646240234375" lon="-6.06141376309096813201904296875">
        <ele>1655.5999755859375</ele>
        <time>2021-08-18T08:23:57.000Z</time>
      </trkpt>
      <trkpt lat="43.06837893091142177581787109375" lon="-6.06130161322653293609619140625">
        <ele>1655.199951171875</ele>
        <time>2021-08-18T08:24:09.000Z</time>
      </trkpt>
      <trkpt lat="43.0683771707117557525634765625" lon="-6.06129323132336139678955078125">
        <ele>1655</ele>
        <time>2021-08-18T08:24:10.000Z</time>
      </trkpt>
      <trkpt lat="43.06838898919522762298583984375" lon="-6.06125056743621826171875">
        <ele>1653.800048828125</ele>
        <time>2021-08-18T08:24:16.000Z</time>
      </trkpt>
      <trkpt lat="43.068400137126445770263671875" lon="-6.06119248084723949432373046875">
        <ele>1653</ele>
        <time>2021-08-18T08:24:22.000Z</time>
      </trkpt>
      <trkpt lat="43.06840374134480953216552734375" lon="-6.06117068789899349212646484375">
        <ele>1652.5999755859375</ele>
        <time>2021-08-18T08:24:24.000Z</time>
      </trkpt>
      <trkpt lat="43.06840893812477588653564453125" lon="-6.06112240813672542572021484375">
        <ele>1652.199951171875</ele>
        <time>2021-08-18T08:24:29.000Z</time>
      </trkpt>
      <trkpt lat="43.06841296143829822540283203125" lon="-6.0610975138843059539794921875">
        <ele>1651.5999755859375</ele>
        <time>2021-08-18T08:24:32.000Z</time>
      </trkpt>
      <trkpt lat="43.0684180743992328643798828125" lon="-6.06107211671769618988037109375">
        <ele>1650.5999755859375</ele>
        <time>2021-08-18T08:24:35.000Z</time>
      </trkpt>
      <trkpt lat="43.06842117570340633392333984375" lon="-6.06106272898614406585693359375">
        <ele>1650.4000244140625</ele>
        <time>2021-08-18T08:24:36.000Z</time>
      </trkpt>
      <trkpt lat="43.068441040813922882080078125" lon="-6.061020903289318084716796875">
        <ele>1649.199951171875</ele>
        <time>2021-08-18T08:24:42.000Z</time>
      </trkpt>
      <trkpt lat="43.06845839135348796844482421875" lon="-6.06099600903689861297607421875">
        <ele>1648.199951171875</ele>
        <time>2021-08-18T08:24:47.000Z</time>
      </trkpt>
      <trkpt lat="43.06848831474781036376953125" lon="-6.060992069542407989501953125">
        <ele>1647</ele>
        <time>2021-08-18T08:24:52.000Z</time>
      </trkpt>
      <trkpt lat="43.068500719964504241943359375" lon="-6.060962565243244171142578125">
        <ele>1646</ele>
        <time>2021-08-18T08:24:57.000Z</time>
      </trkpt>
      <trkpt lat="43.0685039050877094268798828125" lon="-6.06095259077847003936767578125">
        <ele>1645.800048828125</ele>
        <time>2021-08-18T08:24:58.000Z</time>
      </trkpt>
      <trkpt lat="43.06850683875381946563720703125" lon="-6.06091302819550037384033203125">
        <ele>1644.800048828125</ele>
        <time>2021-08-18T08:25:03.000Z</time>
      </trkpt>
      <trkpt lat="43.0685132928192615509033203125" lon="-6.06090481393039226531982421875">
        <ele>1644.5999755859375</ele>
        <time>2021-08-18T08:25:05.000Z</time>
      </trkpt>
      <trkpt lat="43.06852729059755802154541015625" lon="-6.06090649031102657318115234375">
        <ele>1644.199951171875</ele>
        <time>2021-08-18T08:25:07.000Z</time>
      </trkpt>
      <trkpt lat="43.06853282265365123748779296875" lon="-6.06090481393039226531982421875">
        <ele>1643.800048828125</ele>
        <time>2021-08-18T08:25:09.000Z</time>
      </trkpt>
      <trkpt lat="43.06853349320590496063232421875" lon="-6.0608973540365695953369140625">
        <ele>1643.5999755859375</ele>
        <time>2021-08-18T08:25:10.000Z</time>
      </trkpt>
      <trkpt lat="43.0685370974242687225341796875" lon="-6.060881428420543670654296875">
        <ele>1643</ele>
        <time>2021-08-18T08:25:13.000Z</time>
      </trkpt>
      <trkpt lat="43.06854438968002796173095703125" lon="-6.0608621500432491302490234375">
        <ele>1642.5999755859375</ele>
        <time>2021-08-18T08:25:17.000Z</time>
      </trkpt>
      <trkpt lat="43.06855679489672183990478515625" lon="-6.06083926744759082794189453125">
        <ele>1641.4000244140625</ele>
        <time>2021-08-18T08:25:22.000Z</time>
      </trkpt>
      <trkpt lat="43.06856819428503513336181640625" lon="-6.0608068294823169708251953125">
        <ele>1640.4000244140625</ele>
        <time>2021-08-18T08:25:27.000Z</time>
      </trkpt>
      <trkpt lat="43.068569786846637725830078125" lon="-6.0607994534075260162353515625">
        <ele>1640.199951171875</ele>
        <time>2021-08-18T08:25:28.000Z</time>
      </trkpt>
      <trkpt lat="43.0685748159885406494140625" lon="-6.0607746429741382598876953125">
        <ele>1639.199951171875</ele>
        <time>2021-08-18T08:25:32.000Z</time>
      </trkpt>
      <trkpt lat="43.06857724674046039581298828125" lon="-6.06076181866228580474853515625">
        <ele>1638.800048828125</ele>
        <time>2021-08-18T08:25:38.000Z</time>
      </trkpt>
      <trkpt lat="43.06858160533010959625244140625" lon="-6.060751341283321380615234375">
        <ele>1638.5999755859375</ele>
        <time>2021-08-18T08:25:41.000Z</time>
      </trkpt>
      <trkpt lat="43.06858621537685394287109375" lon="-6.0607476532459259033203125">
        <ele>1638.199951171875</ele>
        <time>2021-08-18T08:25:42.000Z</time>
      </trkpt>
      <trkpt lat="43.06861060671508312225341796875" lon="-6.0607277043163776397705078125">
        <ele>1637</ele>
        <time>2021-08-18T08:25:47.000Z</time>
      </trkpt>
      <trkpt lat="43.0686182342469692230224609375" lon="-6.0607049055397510528564453125">
        <ele>1635.800048828125</ele>
        <time>2021-08-18T08:25:50.000Z</time>
      </trkpt>
      <trkpt lat="43.0686235986649990081787109375" lon="-6.06064279563724994659423828125">
        <ele>1634.5999755859375</ele>
        <time>2021-08-18T08:25:58.000Z</time>
      </trkpt>
      <trkpt lat="43.06863642297685146331787109375" lon="-6.0606180690228939056396484375">
        <ele>1633.800048828125</ele>
        <time>2021-08-18T08:26:02.000Z</time>
      </trkpt>
      <trkpt lat="43.06864296086132526397705078125" lon="-6.0606076754629611968994140625">
        <ele>1633.5999755859375</ele>
        <time>2021-08-18T08:26:04.000Z</time>
      </trkpt>
      <trkpt lat="43.06864480488002300262451171875" lon="-6.06058009900152683258056640625">
        <ele>1632.4000244140625</ele>
        <time>2021-08-18T08:26:08.000Z</time>
      </trkpt>
      <trkpt lat="43.068640530109405517578125" lon="-6.0605295561254024505615234375">
        <ele>1631.4000244140625</ele>
        <time>2021-08-18T08:26:13.000Z</time>
      </trkpt>
      <trkpt lat="43.06861965917050838470458984375" lon="-6.060471050441265106201171875">
        <ele>1630.4000244140625</ele>
        <time>2021-08-18T08:26:20.000Z</time>
      </trkpt>
      <trkpt lat="43.0686088465154170989990234375" lon="-6.06042402796447277069091796875">
        <ele>1629.4000244140625</ele>
        <time>2021-08-18T08:26:25.000Z</time>
      </trkpt>
      <trkpt lat="43.0686108581721782684326171875" lon="-6.060412041842937469482421875">
        <ele>1629.199951171875</ele>
        <time>2021-08-18T08:26:26.000Z</time>
      </trkpt>
      <trkpt lat="43.0686091817915439605712890625" lon="-6.06039888225495815277099609375">
        <ele>1629</ele>
        <time>2021-08-18T08:26:27.000Z</time>
      </trkpt>
      <trkpt lat="43.06860138662159442901611328125" lon="-6.06035211123526096343994140625">
        <ele>1628.4000244140625</ele>
        <time>2021-08-18T08:26:31.000Z</time>
      </trkpt>
      <trkpt lat="43.06859501637518405914306640625" lon="-6.06032713316380977630615234375">
        <ele>1628.199951171875</ele>
        <time>2021-08-18T08:26:33.000Z</time>
      </trkpt>
      <trkpt lat="43.0685863830149173736572265625" lon="-6.0602740757167339324951171875">
        <ele>1627.5999755859375</ele>
        <time>2021-08-18T08:26:39.000Z</time>
      </trkpt>
      <trkpt lat="43.0685816891491413116455078125" lon="-6.06026292778551578521728515625">
        <ele>1627.199951171875</ele>
        <time>2021-08-18T08:26:41.000Z</time>
      </trkpt>
      <trkpt lat="43.06854992173612117767333984375" lon="-6.06022370047867298126220703125">
        <ele>1626.4000244140625</ele>
        <time>2021-08-18T08:26:49.000Z</time>
      </trkpt>
      <trkpt lat="43.06855377741158008575439453125" lon="-6.06018614955246448516845703125">
        <ele>1626</ele>
        <time>2021-08-18T08:26:53.000Z</time>
      </trkpt>
      <trkpt lat="43.06854640133678913116455078125" lon="-6.06014776043593883514404296875">
        <ele>1624.800048828125</ele>
        <time>2021-08-18T08:26:57.000Z</time>
      </trkpt>
      <trkpt lat="43.06849300861358642578125" lon="-6.06010015122592449188232421875">
        <ele>1624.5999755859375</ele>
        <time>2021-08-18T08:27:06.000Z</time>
      </trkpt>
      <trkpt lat="43.06846685707569122314453125" lon="-6.06006310321390628814697265625">
        <ele>1623.5999755859375</ele>
        <time>2021-08-18T08:27:11.000Z</time>
      </trkpt>
      <trkpt lat="43.06846844963729381561279296875" lon="-6.060031838715076446533203125">
        <ele>1623.199951171875</ele>
        <time>2021-08-18T08:27:13.000Z</time>
      </trkpt>
      <trkpt lat="43.06846710853278636932373046875" lon="-6.060003004968166351318359375">
        <ele>1622.800048828125</ele>
        <time>2021-08-18T08:27:15.000Z</time>
      </trkpt>
      <trkpt lat="43.0684660188853740692138671875" lon="-6.05999101884663105010986328125">
        <ele>1622.5999755859375</ele>
        <time>2021-08-18T08:27:16.000Z</time>
      </trkpt>
      <trkpt lat="43.06846492923796176910400390625" lon="-6.059965454041957855224609375">
        <ele>1622</ele>
        <time>2021-08-18T08:27:18.000Z</time>
      </trkpt>
      <trkpt lat="43.06845721788704395294189453125" lon="-6.059922873973846435546875">
        <ele>1621.4000244140625</ele>
        <time>2021-08-18T08:27:21.000Z</time>
      </trkpt>
      <trkpt lat="43.0684452317655086517333984375" lon="-6.059880964457988739013671875">
        <ele>1621</ele>
        <time>2021-08-18T08:27:24.000Z</time>
      </trkpt>
      <trkpt lat="43.06841866113245487213134765625" lon="-6.05980108492076396942138671875">
        <ele>1620.800048828125</ele>
        <time>2021-08-18T08:27:30.000Z</time>
      </trkpt>
      <trkpt lat="43.06840541772544384002685546875" lon="-6.05973989702761173248291015625">
        <ele>1620.5999755859375</ele>
        <time>2021-08-18T08:27:35.000Z</time>
      </trkpt>
      <trkpt lat="43.068379350006580352783203125" lon="-6.05972313322126865386962890625">
        <ele>1620.800048828125</ele>
        <time>2021-08-18T08:27:39.000Z</time>
      </trkpt>
      <trkpt lat="43.06837457232177257537841796875" lon="-6.0597242228686809539794921875">
        <ele>1621</ele>
        <time>2021-08-18T08:27:40.000Z</time>
      </trkpt>
      <trkpt lat="43.06836518459022045135498046875" lon="-6.0597257316112518310546875">
        <ele>1621</ele>
        <time>2021-08-18T08:27:44.000Z</time>
      </trkpt>
      <trkpt lat="43.06836350820958614349365234375" lon="-6.059718020260334014892578125">
        <ele>1621</ele>
        <time>2021-08-18T08:27:52.000Z</time>
      </trkpt>
      <trkpt lat="43.06836225092411041259765625" lon="-6.05971701443195343017578125">
        <ele>1621</ele>
        <time>2021-08-18T08:27:53.000Z</time>
      </trkpt>
      <trkpt lat="43.068359233438968658447265625" lon="-6.0597165115177631378173828125">
        <ele>1620.4000244140625</ele>
        <time>2021-08-18T08:27:56.000Z</time>
      </trkpt>
      <trkpt lat="43.06834992952644824981689453125" lon="-6.05971810407936573028564453125">
        <ele>1620.4000244140625</ele>
        <time>2021-08-18T08:28:02.000Z</time>
      </trkpt>
      <trkpt lat="43.0683480016887187957763671875" lon="-6.05972506105899810791015625">
        <ele>1621</ele>
        <time>2021-08-18T08:28:06.000Z</time>
      </trkpt>
      <trkpt lat="43.0683355964720249176025390625" lon="-6.0597310960292816162109375">
        <ele>1620.800048828125</ele>
        <time>2021-08-18T08:28:19.000Z</time>
      </trkpt>
      <trkpt lat="43.06833433918654918670654296875" lon="-6.059734113514423370361328125">
        <ele>1620.800048828125</ele>
        <time>2021-08-18T08:28:22.000Z</time>
      </trkpt>
      <trkpt lat="43.06834121234714984893798828125" lon="-6.05973520316183567047119140625">
        <ele>1620.5999755859375</ele>
        <time>2021-08-18T08:28:27.000Z</time>
      </trkpt>
      <trkpt lat="43.06839820928871631622314453125" lon="-6.05972866527736186981201171875">
        <ele>1620.4000244140625</ele>
        <time>2021-08-18T08:28:34.000Z</time>
      </trkpt>
      <trkpt lat="43.06840407662093639373779296875" lon="-6.05972883291542530059814453125">
        <ele>1620.4000244140625</ele>
        <time>2021-08-18T08:28:35.000Z</time>
      </trkpt>
      <trkpt lat="43.06840927340090274810791015625" lon="-6.05973369441926479339599609375">
        <ele>1620.4000244140625</ele>
        <time>2021-08-18T08:28:40.000Z</time>
      </trkpt>
      <trkpt lat="43.06840877048671245574951171875" lon="-6.05973553843796253204345703125">
        <ele>1620.4000244140625</ele>
        <time>2021-08-18T08:28:41.000Z</time>
      </trkpt>
      <trkpt lat="43.06840910576283931732177734375" lon="-6.059737466275691986083984375">
        <ele>1620.199951171875</ele>
        <time>2021-08-18T08:28:42.000Z</time>
      </trkpt>
      <trkpt lat="43.06840474717319011688232421875" lon="-6.05973855592310428619384765625">
        <ele>1620.199951171875</ele>
        <time>2021-08-18T08:28:44.000Z</time>
      </trkpt>
      <trkpt lat="43.06840457953512668609619140625" lon="-6.05973788537085056304931640625">
        <ele>1620</ele>
        <time>2021-08-18T08:28:45.000Z</time>
      </trkpt>
      <trkpt lat="43.06840441189706325531005859375" lon="-6.05973771773278713226318359375">
        <ele>1620</ele>
        <time>2021-08-18T08:28:46.000Z</time>
      </trkpt>
      <trkpt lat="43.0684039928019046783447265625" lon="-6.05973671190440654754638671875">
        <ele>1620</ele>
        <time>2021-08-18T08:28:47.000Z</time>
      </trkpt>
      <trkpt lat="43.068406842648983001708984375" lon="-6.0596809722483158111572265625">
        <ele>1620.4000244140625</ele>
        <time>2021-08-18T08:28:55.000Z</time>
      </trkpt>
      <trkpt lat="43.068415224552154541015625" lon="-6.0596511326730251312255859375">
        <ele>1620</ele>
        <time>2021-08-18T08:29:03.000Z</time>
      </trkpt>
      <trkpt lat="43.068412877619266510009765625" lon="-6.05965088121592998504638671875">
        <ele>1620</ele>
        <time>2021-08-18T08:29:05.000Z</time>
      </trkpt>
      <trkpt lat="43.06840742938220500946044921875" lon="-6.059651635587215423583984375">
        <ele>1620.4000244140625</ele>
        <time>2021-08-18T08:29:07.000Z</time>
      </trkpt>
      <trkpt lat="43.0683999694883823394775390625" lon="-6.0596551559865474700927734375">
        <ele>1620.4000244140625</ele>
        <time>2021-08-18T08:29:12.000Z</time>
      </trkpt>
      <trkpt lat="43.06839921511709690093994140625" lon="-6.0596541501581668853759765625">
        <ele>1620.4000244140625</ele>
        <time>2021-08-18T08:29:14.000Z</time>
      </trkpt>
      <trkpt lat="43.06840072385966777801513671875" lon="-6.05965775437653064727783203125">
        <ele>1620.4000244140625</ele>
        <time>2021-08-18T08:29:19.000Z</time>
      </trkpt>
      <trkpt lat="43.068397454917430877685546875" lon="-6.05965540744364261627197265625">
        <ele>1620.5999755859375</ele>
        <time>2021-08-18T08:29:24.000Z</time>
      </trkpt>
      <trkpt lat="43.068396784365177154541015625" lon="-6.05965306051075458526611328125">
        <ele>1620.5999755859375</ele>
        <time>2021-08-18T08:29:33.000Z</time>
      </trkpt>
      <trkpt lat="43.0683962814509868621826171875" lon="-6.0596534796059131622314453125">
        <ele>1620.5999755859375</ele>
        <time>2021-08-18T08:29:34.000Z</time>
      </trkpt>
      <trkpt lat="43.0683557130396366119384765625" lon="-6.05965130031108856201171875">
        <ele>1620.199951171875</ele>
        <time>2021-08-18T08:29:43.000Z</time>
      </trkpt>
      <trkpt lat="43.06833081878721714019775390625" lon="-6.05963260866701602935791015625">
        <ele>1620.5999755859375</ele>
        <time>2021-08-18T08:29:53.000Z</time>
      </trkpt>
      <trkpt lat="43.06838639080524444580078125" lon="-6.05965892784297466278076171875">
        <ele>1620.5999755859375</ele>
        <time>2021-08-18T08:30:00.000Z</time>
      </trkpt>
      <trkpt lat="43.06838898919522762298583984375" lon="-6.059673093259334564208984375">
        <ele>1620.5999755859375</ele>
        <time>2021-08-18T08:30:05.000Z</time>
      </trkpt>
      <trkpt lat="43.06838094256818294525146484375" lon="-6.0596719197928905487060546875">
        <ele>1620.199951171875</ele>
        <time>2021-08-18T08:30:09.000Z</time>
      </trkpt>
      <trkpt lat="43.06838278658688068389892578125" lon="-6.0596722550690174102783203125">
        <ele>1620.4000244140625</ele>
        <time>2021-08-18T08:30:18.000Z</time>
      </trkpt>
      <trkpt lat="43.068383373320102691650390625" lon="-6.05967066250741481781005859375">
        <ele>1620.4000244140625</ele>
        <time>2021-08-18T08:30:19.000Z</time>
      </trkpt>
      <trkpt lat="43.06838077493011951446533203125" lon="-6.059667058289051055908203125">
        <ele>1620.4000244140625</ele>
        <time>2021-08-18T08:30:22.000Z</time>
      </trkpt>
      <trkpt lat="43.06837968528270721435546875" lon="-6.0596699081361293792724609375">
        <ele>1620</ele>
        <time>2021-08-18T08:30:28.000Z</time>
      </trkpt>
      <trkpt lat="43.06837675161659717559814453125" lon="-6.05966739356517791748046875">
        <ele>1620.4000244140625</ele>
        <time>2021-08-18T08:30:31.000Z</time>
      </trkpt>
      <trkpt lat="43.06838127784430980682373046875" lon="-6.05966865085065364837646484375">
        <ele>1620.5999755859375</ele>
        <time>2021-08-18T08:30:35.000Z</time>
      </trkpt>
      <trkpt lat="43.06838345713913440704345703125" lon="-6.059668399393558502197265625">
        <ele>1620.5999755859375</ele>
        <time>2021-08-18T08:30:37.000Z</time>
      </trkpt>
      <trkpt lat="43.06838228367269039154052734375" lon="-6.0596715845167636871337890625">
        <ele>1620.4000244140625</ele>
        <time>2021-08-18T08:30:40.000Z</time>
      </trkpt>
      <trkpt lat="43.0683816969394683837890625" lon="-6.0596735961735248565673828125">
        <ele>1620.4000244140625</ele>
        <time>2021-08-18T08:30:42.000Z</time>
      </trkpt>
      <trkpt lat="43.068380691111087799072265625" lon="-6.059677787125110626220703125">
        <ele>1620.199951171875</ele>
        <time>2021-08-18T08:30:44.000Z</time>
      </trkpt>
      <trkpt lat="43.06838161312043666839599609375" lon="-6.05968373827636241912841796875">
        <ele>1620.199951171875</ele>
        <time>2021-08-18T08:30:53.000Z</time>
      </trkpt>
      <trkpt lat="43.068380691111087799072265625" lon="-6.05968239717185497283935546875">
        <ele>1620</ele>
        <time>2021-08-18T08:30:56.000Z</time>
      </trkpt>
      <trkpt lat="43.0683790147304534912109375" lon="-6.05968038551509380340576171875">
        <ele>1619.5999755859375</ele>
        <time>2021-08-18T08:31:01.000Z</time>
      </trkpt>
      <trkpt lat="43.06837909854948520660400390625" lon="-6.05968038551509380340576171875">
        <ele>1619.4000244140625</ele>
        <time>2021-08-18T08:31:02.000Z</time>
      </trkpt>
      <trkpt lat="43.06837809272110462188720703125" lon="-6.059671752154827117919921875">
        <ele>1619.5999755859375</ele>
        <time>2021-08-18T08:31:15.000Z</time>
      </trkpt>
      <trkpt lat="43.06837658397853374481201171875" lon="-6.05966663919389247894287109375">
        <ele>1619.5999755859375</ele>
        <time>2021-08-18T08:31:19.000Z</time>
      </trkpt>
      <trkpt lat="43.0683855526149272918701171875" lon="-6.0596534796059131622314453125">
        <ele>1619.5999755859375</ele>
        <time>2021-08-18T08:31:24.000Z</time>
      </trkpt>
      <trkpt lat="43.06839175522327423095703125" lon="-6.05965473689138889312744140625">
        <ele>1619.5999755859375</ele>
        <time>2021-08-18T08:31:26.000Z</time>
      </trkpt>
      <trkpt lat="43.0683966167271137237548828125" lon="-6.05964467860758304595947265625">
        <ele>1619.5999755859375</ele>
        <time>2021-08-18T08:31:29.000Z</time>
      </trkpt>
      <trkpt lat="43.06839904747903347015380859375" lon="-6.0596447624266147613525390625">
        <ele>1619.5999755859375</ele>
        <time>2021-08-18T08:31:31.000Z</time>
      </trkpt>
      <trkpt lat="43.06841732002794742584228515625" lon="-6.0596575029194355010986328125">
        <ele>1619.5999755859375</ele>
        <time>2021-08-18T08:31:39.000Z</time>
      </trkpt>
      <trkpt lat="43.06842503137886524200439453125" lon="-6.05966898612678050994873046875">
        <ele>1619.5999755859375</ele>
        <time>2021-08-18T08:31:44.000Z</time>
      </trkpt>
      <trkpt lat="43.0684117041528224945068359375" lon="-6.05965004302561283111572265625">
        <ele>1619.5999755859375</ele>
        <time>2021-08-18T08:31:56.000Z</time>
      </trkpt>
      <trkpt lat="43.06841631419956684112548828125" lon="-6.05964987538754940032958984375">
        <ele>1619.5999755859375</ele>
        <time>2021-08-18T08:31:57.000Z</time>
      </trkpt>
      <trkpt lat="43.068416230380535125732421875" lon="-6.05964182876050472259521484375">
        <ele>1619.5999755859375</ele>
        <time>2021-08-18T08:32:03.000Z</time>
      </trkpt>
      <trkpt lat="43.0684170685708522796630859375" lon="-6.059642247855663299560546875">
        <ele>1619.5999755859375</ele>
        <time>2021-08-18T08:32:04.000Z</time>
      </trkpt>
      <trkpt lat="43.06841681711375713348388671875" lon="-6.059640236198902130126953125">
        <ele>1619.5999755859375</ele>
        <time>2021-08-18T08:32:07.000Z</time>
      </trkpt>
      <trkpt lat="43.0684187449514865875244140625" lon="-6.0596279986202716827392578125">
        <ele>1619.5999755859375</ele>
        <time>2021-08-18T08:32:15.000Z</time>
      </trkpt>
      <trkpt lat="43.068437688052654266357421875" lon="-6.05959908105432987213134765625">
        <ele>1619.5999755859375</ele>
        <time>2021-08-18T08:32:21.000Z</time>
      </trkpt>
      <trkpt lat="43.068439699709415435791015625" lon="-6.059597991406917572021484375">
        <ele>1619.5999755859375</ele>
        <time>2021-08-18T08:32:22.000Z</time>
      </trkpt>
      <trkpt lat="43.06843978352844715118408203125" lon="-6.0595931299030780792236328125">
        <ele>1619.5999755859375</ele>
        <time>2021-08-18T08:32:25.000Z</time>
      </trkpt>
      <trkpt lat="43.068442046642303466796875" lon="-6.05958717875182628631591796875">
        <ele>1619.5999755859375</ele>
        <time>2021-08-18T08:32:32.000Z</time>
      </trkpt>
      <trkpt lat="43.06844003498554229736328125" lon="-6.0595820657908916473388671875">
        <ele>1619.5999755859375</ele>
        <time>2021-08-18T08:32:37.000Z</time>
      </trkpt>
      <trkpt lat="43.06843609549105167388916015625" lon="-6.05957812629640102386474609375">
        <ele>1619.5999755859375</ele>
        <time>2021-08-18T08:32:48.000Z</time>
      </trkpt>
      <trkpt lat="43.06844464503228664398193359375" lon="-6.0595817305147647857666015625">
        <ele>1619.5999755859375</ele>
        <time>2021-08-18T08:33:03.000Z</time>
      </trkpt>
      <trkpt lat="43.06844565086066722869873046875" lon="-6.05958231724798679351806640625">
        <ele>1619.5999755859375</ele>
        <time>2021-08-18T08:33:04.000Z</time>
      </trkpt>
      <trkpt lat="43.068439029157161712646484375" lon="-6.059585250914096832275390625">
        <ele>1619.5999755859375</ele>
        <time>2021-08-18T08:33:18.000Z</time>
      </trkpt>
      <trkpt lat="43.0684415437281131744384765625" lon="-6.05958533473312854766845703125">
        <ele>1619.5999755859375</ele>
        <time>2021-08-18T08:33:23.000Z</time>
      </trkpt>
      <trkpt lat="43.0684489198029041290283203125" lon="-6.05955834500491619110107421875">
        <ele>1619.5999755859375</ele>
        <time>2021-08-18T08:33:35.000Z</time>
      </trkpt>
      <trkpt lat="43.0684971995651721954345703125" lon="-6.0595357976853847503662109375">
        <ele>1619.5999755859375</ele>
        <time>2021-08-18T08:33:43.000Z</time>
      </trkpt>
      <trkpt lat="43.06851941160857677459716796875" lon="-6.0595163516700267791748046875">
        <ele>1619.5999755859375</ele>
        <time>2021-08-18T08:33:46.000Z</time>
      </trkpt>
      <trkpt lat="43.06854053400456905364990234375" lon="-6.05951375328004360198974609375">
        <ele>1618.4000244140625</ele>
        <time>2021-08-18T08:33:49.000Z</time>
      </trkpt>
      <trkpt lat="43.0685468204319477081298828125" lon="-6.0595150105655193328857421875">
        <ele>1618</ele>
        <time>2021-08-18T08:33:50.000Z</time>
      </trkpt>
      <trkpt lat="43.06858076713979244232177734375" lon="-6.05951853096485137939453125">
        <ele>1617.4000244140625</ele>
        <time>2021-08-18T08:33:54.000Z</time>
      </trkpt>
      <trkpt lat="43.06858261115849018096923828125" lon="-6.0595153458416461944580078125">
        <ele>1617.199951171875</ele>
        <time>2021-08-18T08:33:55.000Z</time>
      </trkpt>
      <trkpt lat="43.06858613155782222747802734375" lon="-6.0595129989087581634521484375">
        <ele>1617.199951171875</ele>
        <time>2021-08-18T08:33:56.000Z</time>
      </trkpt>
      <trkpt lat="43.06859049014747142791748046875" lon="-6.05950905941426753997802734375">
        <ele>1617.199951171875</ele>
        <time>2021-08-18T08:33:58.000Z</time>
      </trkpt>
      <trkpt lat="43.06862267665565013885498046875" lon="-6.0594995878636837005615234375">
        <ele>1616.4000244140625</ele>
        <time>2021-08-18T08:34:08.000Z</time>
      </trkpt>
      <trkpt lat="43.06863072328269481658935546875" lon="-6.05950285680592060089111328125">
        <ele>1616.199951171875</ele>
        <time>2021-08-18T08:34:09.000Z</time>
      </trkpt>
      <trkpt lat="43.06869626976549625396728515625" lon="-6.05950419791042804718017578125">
        <ele>1615.199951171875</ele>
        <time>2021-08-18T08:34:18.000Z</time>
      </trkpt>
      <trkpt lat="43.068704903125762939453125" lon="-6.059502772986888885498046875">
        <ele>1615.199951171875</ele>
        <time>2021-08-18T08:34:19.000Z</time>
      </trkpt>
      <trkpt lat="43.06874890811741352081298828125" lon="-6.0594848357141017913818359375">
        <ele>1614.800048828125</ele>
        <time>2021-08-18T08:34:25.000Z</time>
      </trkpt>
      <trkpt lat="43.068768940865993499755859375" lon="-6.05948089621961116790771484375">
        <ele>1614.5999755859375</ele>
        <time>2021-08-18T08:34:27.000Z</time>
      </trkpt>
      <trkpt lat="43.06879936717450618743896484375" lon="-6.05947603471577167510986328125">
        <ele>1614.4000244140625</ele>
        <time>2021-08-18T08:34:30.000Z</time>
      </trkpt>
      <trkpt lat="43.068818561732769012451171875" lon="-6.05946966446936130523681640625">
        <ele>1614</ele>
        <time>2021-08-18T08:34:32.000Z</time>
      </trkpt>
      <trkpt lat="43.0688653327524662017822265625" lon="-6.05945373885333538055419921875">
        <ele>1613</ele>
        <time>2021-08-18T08:34:38.000Z</time>
      </trkpt>
      <trkpt lat="43.0688993632793426513671875" lon="-6.05943806469440460205078125">
        <ele>1612.4000244140625</ele>
        <time>2021-08-18T08:34:42.000Z</time>
      </trkpt>
      <trkpt lat="43.06890673935413360595703125" lon="-6.059432365000247955322265625">
        <ele>1612.199951171875</ele>
        <time>2021-08-18T08:34:43.000Z</time>
      </trkpt>
      <trkpt lat="43.06892224587500095367431640625" lon="-6.05942021124064922332763671875">
        <ele>1611.800048828125</ele>
        <time>2021-08-18T08:34:45.000Z</time>
      </trkpt>
      <trkpt lat="43.0689605511724948883056640625" lon="-6.05941484682261943817138671875">
        <ele>1611.199951171875</ele>
        <time>2021-08-18T08:34:49.000Z</time>
      </trkpt>
      <trkpt lat="43.0689934082329273223876953125" lon="-6.05941928923130035400390625">
        <ele>1610.800048828125</ele>
        <time>2021-08-18T08:34:53.000Z</time>
      </trkpt>
      <trkpt lat="43.06900086812674999237060546875" lon="-6.0594174452126026153564453125">
        <ele>1610.5999755859375</ele>
        <time>2021-08-18T08:34:54.000Z</time>
      </trkpt>
      <trkpt lat="43.06904227472841739654541015625" lon="-6.0594253242015838623046875">
        <ele>1609.800048828125</ele>
        <time>2021-08-18T08:35:00.000Z</time>
      </trkpt>
      <trkpt lat="43.069088123738765716552734375" lon="-6.05945507995784282684326171875">
        <ele>1608.800048828125</ele>
        <time>2021-08-18T08:35:06.000Z</time>
      </trkpt>
      <trkpt lat="43.06909583508968353271484375" lon="-6.05945860035717487335205078125">
        <ele>1608.5999755859375</ele>
        <time>2021-08-18T08:35:07.000Z</time>
      </trkpt>
      <trkpt lat="43.06912139989435672760009765625" lon="-6.05948005802929401397705078125">
        <ele>1607.4000244140625</ele>
        <time>2021-08-18T08:35:11.000Z</time>
      </trkpt>
      <trkpt lat="43.0691519938409328460693359375" lon="-6.059497408568859100341796875">
        <ele>1606.4000244140625</ele>
        <time>2021-08-18T08:35:17.000Z</time>
      </trkpt>
      <trkpt lat="43.06915157474577426910400390625" lon="-6.05948894284665584564208984375">
        <ele>1606</ele>
        <time>2021-08-18T08:35:19.000Z</time>
      </trkpt>
      <trkpt lat="43.06915308348834514617919921875" lon="-6.05946044437587261199951171875">
        <ele>1605.199951171875</ele>
        <time>2021-08-18T08:35:23.000Z</time>
      </trkpt>
      <trkpt lat="43.06914486922323703765869140625" lon="-6.059405542910099029541015625">
        <ele>1604.199951171875</ele>
        <time>2021-08-18T08:35:29.000Z</time>
      </trkpt>
      <trkpt lat="43.06913816370069980621337890625" lon="-6.0593785531818866729736328125">
        <ele>1604</ele>
        <time>2021-08-18T08:35:32.000Z</time>
      </trkpt>
      <trkpt lat="43.06912676431238651275634765625" lon="-6.0593242384493350982666015625">
        <ele>1602.800048828125</ele>
        <time>2021-08-18T08:35:39.000Z</time>
      </trkpt>
      <trkpt lat="43.0691434442996978759765625" lon="-6.05928140692412853240966796875">
        <ele>1602</ele>
        <time>2021-08-18T08:35:45.000Z</time>
      </trkpt>
      <trkpt lat="43.06915408931672573089599609375" lon="-6.0592850111424922943115234375">
        <ele>1601.800048828125</ele>
        <time>2021-08-18T08:35:47.000Z</time>
      </trkpt>
      <trkpt lat="43.06918568909168243408203125" lon="-6.05931225232779979705810546875">
        <ele>1601</ele>
        <time>2021-08-18T08:35:53.000Z</time>
      </trkpt>
      <trkpt lat="43.06919147260487079620361328125" lon="-6.05931778438389301300048828125">
        <ele>1600.5999755859375</ele>
        <time>2021-08-18T08:35:54.000Z</time>
      </trkpt>
      <trkpt lat="43.069213517010211944580078125" lon="-6.0593524016439914703369140625">
        <ele>1599.4000244140625</ele>
        <time>2021-08-18T08:35:59.000Z</time>
      </trkpt>
      <trkpt lat="43.06923128664493560791015625" lon="-6.05938064865767955780029296875">
        <ele>1598.800048828125</ele>
        <time>2021-08-18T08:36:03.000Z</time>
      </trkpt>
      <trkpt lat="43.06924075819551944732666015625" lon="-6.0593815706670284271240234375">
        <ele>1598.5999755859375</ele>
        <time>2021-08-18T08:36:04.000Z</time>
      </trkpt>
      <trkpt lat="43.069249056279659271240234375" lon="-6.059384755790233612060546875">
        <ele>1598.4000244140625</ele>
        <time>2021-08-18T08:36:05.000Z</time>
      </trkpt>
      <trkpt lat="43.06927897967398166656494140625" lon="-6.05941518209874629974365234375">
        <ele>1597</ele>
        <time>2021-08-18T08:36:10.000Z</time>
      </trkpt>
      <trkpt lat="43.0693018622696399688720703125" lon="-6.059451140463352203369140625">
        <ele>1596</ele>
        <time>2021-08-18T08:36:14.000Z</time>
      </trkpt>
      <trkpt lat="43.0693137645721435546875" lon="-6.05947284959256649017333984375">
        <ele>1595.5999755859375</ele>
        <time>2021-08-18T08:36:16.000Z</time>
      </trkpt>
      <trkpt lat="43.06932784616947174072265625" lon="-6.05949112214148044586181640625">
        <ele>1595</ele>
        <time>2021-08-18T08:36:18.000Z</time>
      </trkpt>
      <trkpt lat="43.06938744150102138519287109375" lon="-6.0595126636326313018798828125">
        <ele>1593.800048828125</ele>
        <time>2021-08-18T08:36:25.000Z</time>
      </trkpt>
      <trkpt lat="43.06940571404993534088134765625" lon="-6.05950419791042804718017578125">
        <ele>1593.5999755859375</ele>
        <time>2021-08-18T08:36:27.000Z</time>
      </trkpt>
      <trkpt lat="43.06945986114442348480224609375" lon="-6.059450805187225341796875">
        <ele>1592.5999755859375</ele>
        <time>2021-08-18T08:36:34.000Z</time>
      </trkpt>
      <trkpt lat="43.06948450393974781036376953125" lon="-6.0594291798770427703857421875">
        <ele>1591.800048828125</ele>
        <time>2021-08-18T08:36:37.000Z</time>
      </trkpt>
      <trkpt lat="43.06949959136545658111572265625" lon="-6.059415601193904876708984375">
        <ele>1591.5999755859375</ele>
        <time>2021-08-18T08:36:39.000Z</time>
      </trkpt>
      <trkpt lat="43.06954284198582172393798828125" lon="-6.0593648068606853485107421875">
        <ele>1590.4000244140625</ele>
        <time>2021-08-18T08:36:46.000Z</time>
      </trkpt>
      <trkpt lat="43.0695886909961700439453125" lon="-6.0593212209641933441162109375">
        <ele>1589</ele>
        <time>2021-08-18T08:36:52.000Z</time>
      </trkpt>
      <trkpt lat="43.069627247750759124755859375" lon="-6.0592970810830593109130859375">
        <ele>1588</ele>
        <time>2021-08-18T08:36:56.000Z</time>
      </trkpt>
      <trkpt lat="43.06967259384691715240478515625" lon="-6.0592648945748805999755859375">
        <ele>1586.800048828125</ele>
        <time>2021-08-18T08:37:01.000Z</time>
      </trkpt>
      <trkpt lat="43.06969824247062206268310546875" lon="-6.05924368835985660552978515625">
        <ele>1586.4000244140625</ele>
        <time>2021-08-18T08:37:04.000Z</time>
      </trkpt>
      <trkpt lat="43.0697243101894855499267578125" lon="-6.0592283494770526885986328125">
        <ele>1585.800048828125</ele>
        <time>2021-08-18T08:37:07.000Z</time>
      </trkpt>
      <trkpt lat="43.06976831518113613128662109375" lon="-6.05919674970209598541259765625">
        <ele>1585.4000244140625</ele>
        <time>2021-08-18T08:37:12.000Z</time>
      </trkpt>
      <trkpt lat="43.069798909127712249755859375" lon="-6.0591753758490085601806640625">
        <ele>1585.199951171875</ele>
        <time>2021-08-18T08:37:16.000Z</time>
      </trkpt>
      <trkpt lat="43.06985414586961269378662109375" lon="-6.0591254197061061859130859375">
        <ele>1585</ele>
        <time>2021-08-18T08:37:22.000Z</time>
      </trkpt>
      <trkpt lat="43.06989873759448528289794921875" lon="-6.05910186655819416046142578125">
        <ele>1585</ele>
        <time>2021-08-18T08:37:27.000Z</time>
      </trkpt>
      <trkpt lat="43.06996881030499935150146484375" lon="-6.05909029953181743621826171875">
        <ele>1585</ele>
        <time>2021-08-18T08:37:33.000Z</time>
      </trkpt>
      <trkpt lat="43.07000334374606609344482421875" lon="-6.0590912215411663055419921875">
        <ele>1585.199951171875</ele>
        <time>2021-08-18T08:37:36.000Z</time>
      </trkpt>
      <trkpt lat="43.0700240470468997955322265625" lon="-6.05908996425569057464599609375">
        <ele>1585.199951171875</ele>
        <time>2021-08-18T08:37:38.000Z</time>
      </trkpt>
      <trkpt lat="43.0700699798762798309326171875" lon="-6.059089712798595428466796875">
        <ele>1585</ele>
        <time>2021-08-18T08:37:42.000Z</time>
      </trkpt>
      <trkpt lat="43.07009973563253879547119140625" lon="-6.05908812023699283599853515625">
        <ele>1584.800048828125</ele>
        <time>2021-08-18T08:37:45.000Z</time>
      </trkpt>
      <trkpt lat="43.07016243226826190948486328125" lon="-6.059102118015289306640625">
        <ele>1585</ele>
        <time>2021-08-18T08:37:51.000Z</time>
      </trkpt>
      <trkpt lat="43.070197217166423797607421875" lon="-6.05910169892013072967529296875">
        <ele>1584.5999755859375</ele>
        <time>2021-08-18T08:37:54.000Z</time>
      </trkpt>
      <trkpt lat="43.07022512890398502349853515625" lon="-6.05910019017755985260009765625">
        <ele>1584.5999755859375</ele>
        <time>2021-08-18T08:37:57.000Z</time>
      </trkpt>
      <trkpt lat="43.07023686356842517852783203125" lon="-6.0590954124927520751953125">
        <ele>1584.5999755859375</ele>
        <time>2021-08-18T08:37:58.000Z</time>
      </trkpt>
      <trkpt lat="43.07031330652534961700439453125" lon="-6.05904201976954936981201171875">
        <ele>1584.5999755859375</ele>
        <time>2021-08-18T08:38:06.000Z</time>
      </trkpt>
      <trkpt lat="43.07035370729863643646240234375" lon="-6.05900580994784832000732421875">
        <ele>1584.4000244140625</ele>
        <time>2021-08-18T08:38:10.000Z</time>
      </trkpt>
      <trkpt lat="43.07038974948227405548095703125" lon="-6.05896406807005405426025390625">
        <ele>1584.199951171875</ele>
        <time>2021-08-18T08:38:14.000Z</time>
      </trkpt>
      <trkpt lat="43.07040919549763202667236328125" lon="-6.0589470528066158294677734375">
        <ele>1584.199951171875</ele>
        <time>2021-08-18T08:38:17.000Z</time>
      </trkpt>
      <trkpt lat="43.07041757740080356597900390625" lon="-6.0589410178363323211669921875">
        <ele>1584.199951171875</ele>
        <time>2021-08-18T08:38:18.000Z</time>
      </trkpt>
      <trkpt lat="43.07042998261749744415283203125" lon="-6.0589282773435115814208984375">
        <ele>1584</ele>
        <time>2021-08-18T08:38:20.000Z</time>
      </trkpt>
      <trkpt lat="43.0704377777874469757080078125" lon="-6.0589188896119594573974609375">
        <ele>1584</ele>
        <time>2021-08-18T08:38:22.000Z</time>
      </trkpt>
      <trkpt lat="43.07043350301682949066162109375" lon="-6.058910004794597625732421875">
        <ele>1584</ele>
        <time>2021-08-18T08:38:23.000Z</time>
      </trkpt>
      <trkpt lat="43.07043962180614471435546875" lon="-6.05889567174017429351806640625">
        <ele>1583.800048828125</ele>
        <time>2021-08-18T08:38:24.000Z</time>
      </trkpt>
      <trkpt lat="43.0704528652131557464599609375" lon="-6.05885594151914119720458984375">
        <ele>1583.5999755859375</ele>
        <time>2021-08-18T08:38:27.000Z</time>
      </trkpt>
      <trkpt lat="43.07044875808060169219970703125" lon="-6.05880531482398509979248046875">
        <ele>1583</ele>
        <time>2021-08-18T08:38:31.000Z</time>
      </trkpt>
      <trkpt lat="43.07043534703552722930908203125" lon="-6.058779247105121612548828125">
        <ele>1582.800048828125</ele>
        <time>2021-08-18T08:38:33.000Z</time>
      </trkpt>
      <trkpt lat="43.07042646221816539764404296875" lon="-6.05875468812882900238037109375">
        <ele>1582.5999755859375</ele>
        <time>2021-08-18T08:38:35.000Z</time>
      </trkpt>
      <trkpt lat="43.0704210139811038970947265625" lon="-6.0587425343692302703857421875">
        <ele>1582.4000244140625</ele>
        <time>2021-08-18T08:38:36.000Z</time>
      </trkpt>
      <trkpt lat="43.0704062618315219879150390625" lon="-6.05870322324335575103759765625">
        <ele>1581.5999755859375</ele>
        <time>2021-08-18T08:38:39.000Z</time>
      </trkpt>
      <trkpt lat="43.070399053394794464111328125" lon="-6.0586895607411861419677734375">
        <ele>1581.4000244140625</ele>
        <time>2021-08-18T08:38:41.000Z</time>
      </trkpt>
      <trkpt lat="43.07038991712033748626708984375" lon="-6.05868302285671234130859375">
        <ele>1581</ele>
        <time>2021-08-18T08:38:42.000Z</time>
      </trkpt>
      <trkpt lat="43.0703794397413730621337890625" lon="-6.05866030789911746978759765625">
        <ele>1580.5999755859375</ele>
        <time>2021-08-18T08:38:45.000Z</time>
      </trkpt>
      <trkpt lat="43.07037466205656528472900390625" lon="-6.05865142308175563812255859375">
        <ele>1580.4000244140625</ele>
        <time>2021-08-18T08:38:46.000Z</time>
      </trkpt>
      <trkpt lat="43.07036980055272579193115234375" lon="-6.058640778064727783203125">
        <ele>1580.199951171875</ele>
        <time>2021-08-18T08:38:47.000Z</time>
      </trkpt>
      <trkpt lat="43.0703683756291866302490234375" lon="-6.05863247998058795928955078125">
        <ele>1580</ele>
        <time>2021-08-18T08:38:48.000Z</time>
      </trkpt>
      <trkpt lat="43.070357143878936767578125" lon="-6.05860255658626556396484375">
        <ele>1579.4000244140625</ele>
        <time>2021-08-18T08:38:51.000Z</time>
      </trkpt>
      <trkpt lat="43.07035253383219242095947265625" lon="-6.0585919953882694244384765625">
        <ele>1579</ele>
        <time>2021-08-18T08:38:52.000Z</time>
      </trkpt>
      <trkpt lat="43.07033367455005645751953125" lon="-6.05854430235922336578369140625">
        <ele>1578</ele>
        <time>2021-08-18T08:38:57.000Z</time>
      </trkpt>
      <trkpt lat="43.07030810974538326263427734375" lon="-6.0584957711398601531982421875">
        <ele>1577</ele>
        <time>2021-08-18T08:39:03.000Z</time>
      </trkpt>
      <trkpt lat="43.070303499698638916015625" lon="-6.05848948471248149871826171875">
        <ele>1576.5999755859375</ele>
        <time>2021-08-18T08:39:04.000Z</time>
      </trkpt>
      <trkpt lat="43.0702986381947994232177734375" lon="-6.05848445557057857513427734375">
        <ele>1576.4000244140625</ele>
        <time>2021-08-18T08:39:05.000Z</time>
      </trkpt>
      <trkpt lat="43.07028137147426605224609375" lon="-6.0584592260420322418212890625">
        <ele>1575.5999755859375</ele>
        <time>2021-08-18T08:39:08.000Z</time>
      </trkpt>
      <trkpt lat="43.070259578526020050048828125" lon="-6.05843818746507167816162109375">
        <ele>1575</ele>
        <time>2021-08-18T08:39:11.000Z</time>
      </trkpt>
      <trkpt lat="43.07023619301617145538330078125" lon="-6.0584141314029693603515625">
        <ele>1574.5999755859375</ele>
        <time>2021-08-18T08:39:14.000Z</time>
      </trkpt>
      <trkpt lat="43.07022747583687305450439453125" lon="-6.0584062524139881134033203125">
        <ele>1574.4000244140625</ele>
        <time>2021-08-18T08:39:15.000Z</time>
      </trkpt>
      <trkpt lat="43.0702171660959720611572265625" lon="-6.05839828960597515106201171875">
        <ele>1574.199951171875</ele>
        <time>2021-08-18T08:39:16.000Z</time>
      </trkpt>
      <trkpt lat="43.07019763626158237457275390625" lon="-6.05837163515388965606689453125">
        <ele>1573.5999755859375</ele>
        <time>2021-08-18T08:39:19.000Z</time>
      </trkpt>
      <trkpt lat="43.07013510726392269134521484375" lon="-6.05831690132617950439453125">
        <ele>1572.5999755859375</ele>
        <time>2021-08-18T08:39:26.000Z</time>
      </trkpt>
      <trkpt lat="43.0701331794261932373046875" lon="-6.0583157278597354888916015625">
        <ele>1572.4000244140625</ele>
        <time>2021-08-18T08:39:27.000Z</time>
      </trkpt>
      <trkpt lat="43.07011767290532588958740234375" lon="-6.05832033790647983551025390625">
        <ele>1572</ele>
        <time>2021-08-18T08:39:34.000Z</time>
      </trkpt>
      <trkpt lat="43.0701278150081634521484375" lon="-6.05832452885806560516357421875">
        <ele>1572</ele>
        <time>2021-08-18T08:39:39.000Z</time>
      </trkpt>
      <trkpt lat="43.070144914090633392333984375" lon="-6.05830491520464420318603515625">
        <ele>1571.800048828125</ele>
        <time>2021-08-18T08:39:45.000Z</time>
      </trkpt>
      <trkpt lat="43.07015472091734409332275390625" lon="-6.05828815139830112457275390625">
        <ele>1571.4000244140625</ele>
        <time>2021-08-18T08:39:47.000Z</time>
      </trkpt>
      <trkpt lat="43.07018137536942958831787109375" lon="-6.05825663544237613677978515625">
        <ele>1570.199951171875</ele>
        <time>2021-08-18T08:39:52.000Z</time>
      </trkpt>
      <trkpt lat="43.07019746862351894378662109375" lon="-6.058233417570590972900390625">
        <ele>1569.4000244140625</ele>
        <time>2021-08-18T08:39:55.000Z</time>
      </trkpt>
      <trkpt lat="43.0702097900211811065673828125" lon="-6.0582201741635799407958984375">
        <ele>1569</ele>
        <time>2021-08-18T08:39:57.000Z</time>
      </trkpt>
      <trkpt lat="43.0702404677867889404296875" lon="-6.058179102838039398193359375">
        <ele>1568</ele>
        <time>2021-08-18T08:40:03.000Z</time>
      </trkpt>
      <trkpt lat="43.07026335038244724273681640625" lon="-6.05816133320331573486328125">
        <ele>1567.199951171875</ele>
        <time>2021-08-18T08:40:06.000Z</time>
      </trkpt>
      <trkpt lat="43.07027759961783885955810546875" lon="-6.0581485927104949951171875">
        <ele>1566.800048828125</ele>
        <time>2021-08-18T08:40:09.000Z</time>
      </trkpt>
      <trkpt lat="43.07028765790164470672607421875" lon="-6.058144904673099517822265625">
        <ele>1566.5999755859375</ele>
        <time>2021-08-18T08:40:10.000Z</time>
      </trkpt>
      <trkpt lat="43.0703046731650829315185546875" lon="-6.05813048779964447021484375">
        <ele>1566.5999755859375</ele>
        <time>2021-08-18T08:40:12.000Z</time>
      </trkpt>
      <trkpt lat="43.07035739533603191375732421875" lon="-6.0580976307392120361328125">
        <ele>1566</ele>
        <time>2021-08-18T08:40:18.000Z</time>
      </trkpt>
      <trkpt lat="43.07036309503018856048583984375" lon="-6.05809503234922885894775390625">
        <ele>1565.800048828125</ele>
        <time>2021-08-18T08:40:19.000Z</time>
      </trkpt>
      <trkpt lat="43.0703750811517238616943359375" lon="-6.05807994492352008819580078125">
        <ele>1565.4000244140625</ele>
        <time>2021-08-18T08:40:21.000Z</time>
      </trkpt>
      <trkpt lat="43.070416487753391265869140625" lon="-6.0580548830330371856689453125">
        <ele>1564.5999755859375</ele>
        <time>2021-08-18T08:40:26.000Z</time>
      </trkpt>
      <trkpt lat="43.07045278139412403106689453125" lon="-6.0579978860914707183837890625">
        <ele>1563.5999755859375</ele>
        <time>2021-08-18T08:40:33.000Z</time>
      </trkpt>
      <trkpt lat="43.07045496068894863128662109375" lon="-6.0579898394644260406494140625">
        <ele>1563.4000244140625</ele>
        <time>2021-08-18T08:40:34.000Z</time>
      </trkpt>
      <trkpt lat="43.07049854658544063568115234375" lon="-6.0579445771872997283935546875">
        <ele>1562.5999755859375</ele>
        <time>2021-08-18T08:40:41.000Z</time>
      </trkpt>
      <trkpt lat="43.0705113708972930908203125" lon="-6.0579375363886356353759765625">
        <ele>1562.199951171875</ele>
        <time>2021-08-18T08:40:43.000Z</time>
      </trkpt>
      <trkpt lat="43.0705205909907817840576171875" lon="-6.0579204373061656951904296875">
        <ele>1561.800048828125</ele>
        <time>2021-08-18T08:40:45.000Z</time>
      </trkpt>
      <trkpt lat="43.07052972726523876190185546875" lon="-6.05789906345307826995849609375">
        <ele>1561.5999755859375</ele>
        <time>2021-08-18T08:40:47.000Z</time>
      </trkpt>
      <trkpt lat="43.07053743861615657806396484375" lon="-6.05788598768413066864013671875">
        <ele>1561.199951171875</ele>
        <time>2021-08-18T08:40:49.000Z</time>
      </trkpt>
      <trkpt lat="43.07056526653468608856201171875" lon="-6.05785556137561798095703125">
        <ele>1560.5999755859375</ele>
        <time>2021-08-18T08:40:54.000Z</time>
      </trkpt>
      <trkpt lat="43.0705730617046356201171875" lon="-6.05785346589982509613037109375">
        <ele>1560.4000244140625</ele>
        <time>2021-08-18T08:40:55.000Z</time>
      </trkpt>
      <trkpt lat="43.07058085687458515167236328125" lon="-6.05785028077661991119384765625">
        <ele>1560</ele>
        <time>2021-08-18T08:40:56.000Z</time>
      </trkpt>
      <trkpt lat="43.0706184916198253631591796875" lon="-6.0578401386737823486328125">
        <ele>1559.199951171875</ele>
        <time>2021-08-18T08:41:01.000Z</time>
      </trkpt>
      <trkpt lat="43.07063902728259563446044921875" lon="-6.05783142149448394775390625">
        <ele>1558.5999755859375</ele>
        <time>2021-08-18T08:41:03.000Z</time>
      </trkpt>
      <trkpt lat="43.0706583894789218902587890625" lon="-6.05782697908580303192138671875">
        <ele>1558.199951171875</ele>
        <time>2021-08-18T08:41:05.000Z</time>
      </trkpt>
      <trkpt lat="43.07066618464887142181396484375" lon="-6.057826392352581024169921875">
        <ele>1558.199951171875</ele>
        <time>2021-08-18T08:41:06.000Z</time>
      </trkpt>
      <trkpt lat="43.0707420408725738525390625" lon="-6.05780920945107936859130859375">
        <ele>1557</ele>
        <time>2021-08-18T08:41:14.000Z</time>
      </trkpt>
      <trkpt lat="43.07079040445387363433837890625" lon="-6.05780635960400104522705078125">
        <ele>1556</ele>
        <time>2021-08-18T08:41:18.000Z</time>
      </trkpt>
      <trkpt lat="43.070822171866893768310546875" lon="-6.05780786834657192230224609375">
        <ele>1555.5999755859375</ele>
        <time>2021-08-18T08:41:21.000Z</time>
      </trkpt>
      <trkpt lat="43.0708494968712329864501953125" lon="-6.057820357382297515869140625">
        <ele>1555</ele>
        <time>2021-08-18T08:41:25.000Z</time>
      </trkpt>
      <trkpt lat="43.07085444219410419464111328125" lon="-6.057823710143566131591796875">
        <ele>1554.800048828125</ele>
        <time>2021-08-18T08:41:26.000Z</time>
      </trkpt>
      <trkpt lat="43.07087673805654048919677734375" lon="-6.05783435516059398651123046875">
        <ele>1554.199951171875</ele>
        <time>2021-08-18T08:41:29.000Z</time>
      </trkpt>
      <trkpt lat="43.07088109664618968963623046875" lon="-6.05783720500767230987548828125">
        <ele>1554.199951171875</ele>
        <time>2021-08-18T08:41:30.000Z</time>
      </trkpt>
      <trkpt lat="43.07091479189693927764892578125" lon="-6.05784349143505096435546875">
        <ele>1553.800048828125</ele>
        <time>2021-08-18T08:41:34.000Z</time>
      </trkpt>
      <trkpt lat="43.07091973721981048583984375" lon="-6.057845838367938995361328125">
        <ele>1553.4000244140625</ele>
        <time>2021-08-18T08:41:35.000Z</time>
      </trkpt>
      <trkpt lat="43.07092233560979366302490234375" lon="-6.05784558691084384918212890625">
        <ele>1553.199951171875</ele>
        <time>2021-08-18T08:41:36.000Z</time>
      </trkpt>
      <trkpt lat="43.07094798423349857330322265625" lon="-6.05783100239932537078857421875">
        <ele>1552.5999755859375</ele>
        <time>2021-08-18T08:41:40.000Z</time>
      </trkpt>
      <trkpt lat="43.07096072472631931304931640625" lon="-6.05782731436192989349365234375">
        <ele>1552.199951171875</ele>
        <time>2021-08-18T08:41:42.000Z</time>
      </trkpt>
      <trkpt lat="43.070998527109622955322265625" lon="-6.0578134842216968536376953125">
        <ele>1551.4000244140625</ele>
        <time>2021-08-18T08:41:47.000Z</time>
      </trkpt>
      <trkpt lat="43.071028701961040496826171875" lon="-6.0578339360654354095458984375">
        <ele>1550.4000244140625</ele>
        <time>2021-08-18T08:41:53.000Z</time>
      </trkpt>
      <trkpt lat="43.0710727907717227935791015625" lon="-6.05786168016493320465087890625">
        <ele>1549.199951171875</ele>
        <time>2021-08-18T08:42:00.000Z</time>
      </trkpt>
      <trkpt lat="43.07110271416604518890380859375" lon="-6.0578594170510768890380859375">
        <ele>1549</ele>
        <time>2021-08-18T08:42:04.000Z</time>
      </trkpt>
      <trkpt lat="43.071132637560367584228515625" lon="-6.05785765685141086578369140625">
        <ele>1548.199951171875</ele>
        <time>2021-08-18T08:42:08.000Z</time>
      </trkpt>
      <trkpt lat="43.07115937583148479461669921875" lon="-6.05787358246743679046630859375">
        <ele>1547.4000244140625</ele>
        <time>2021-08-18T08:42:12.000Z</time>
      </trkpt>
      <trkpt lat="43.07117320597171783447265625" lon="-6.057876683771610260009765625">
        <ele>1547</ele>
        <time>2021-08-18T08:42:14.000Z</time>
      </trkpt>
      <trkpt lat="43.07118183933198451995849609375" lon="-6.0578781925141811370849609375">
        <ele>1546.800048828125</ele>
        <time>2021-08-18T08:42:15.000Z</time>
      </trkpt>
      <trkpt lat="43.0712105892598628997802734375" lon="-6.05787098407745361328125">
        <ele>1546</ele>
        <time>2021-08-18T08:42:18.000Z</time>
      </trkpt>
      <trkpt lat="43.07122525759041309356689453125" lon="-6.05786453001201152801513671875">
        <ele>1545.5999755859375</ele>
        <time>2021-08-18T08:42:20.000Z</time>
      </trkpt>
      <trkpt lat="43.0712353996932506561279296875" lon="-6.05786168016493320465087890625">
        <ele>1545.4000244140625</ele>
        <time>2021-08-18T08:42:21.000Z</time>
      </trkpt>
      <trkpt lat="43.0712488107383251190185546875" lon="-6.05784726329147815704345703125">
        <ele>1545</ele>
        <time>2021-08-18T08:42:23.000Z</time>
      </trkpt>
      <trkpt lat="43.0712575279176235198974609375" lon="-6.05784055776894092559814453125">
        <ele>1544.800048828125</ele>
        <time>2021-08-18T08:42:24.000Z</time>
      </trkpt>
      <trkpt lat="43.07126616127789020538330078125" lon="-6.0578349418938159942626953125">
        <ele>1544.5999755859375</ele>
        <time>2021-08-18T08:42:25.000Z</time>
      </trkpt>
      <trkpt lat="43.07129197753965854644775390625" lon="-6.0578114725649356842041015625">
        <ele>1543.800048828125</ele>
        <time>2021-08-18T08:42:29.000Z</time>
      </trkpt>
      <trkpt lat="43.07136640883982181549072265625" lon="-6.057804934680461883544921875">
        <ele>1542.800048828125</ele>
        <time>2021-08-18T08:42:36.000Z</time>
      </trkpt>
      <trkpt lat="43.07144067250192165374755859375" lon="-6.0577757656574249267578125">
        <ele>1541.800048828125</ele>
        <time>2021-08-18T08:42:43.000Z</time>
      </trkpt>
      <trkpt lat="43.0714747868478298187255859375" lon="-6.0577561520040035247802734375">
        <ele>1541.5999755859375</ele>
        <time>2021-08-18T08:42:46.000Z</time>
      </trkpt>
      <trkpt lat="43.0714831687510013580322265625" lon="-6.0577504523098468780517578125">
        <ele>1541.5999755859375</ele>
        <time>2021-08-18T08:42:47.000Z</time>
      </trkpt>
      <trkpt lat="43.0715398304164409637451171875" lon="-6.0577175952494144439697265625">
        <ele>1540.5999755859375</ele>
        <time>2021-08-18T08:42:53.000Z</time>
      </trkpt>
      <trkpt lat="43.07160160504281520843505859375" lon="-6.05769353918731212615966796875">
        <ele>1539.5999755859375</ele>
        <time>2021-08-18T08:42:59.000Z</time>
      </trkpt>
      <trkpt lat="43.0716109089553356170654296875" lon="-6.05769286863505840301513671875">
        <ele>1539.4000244140625</ele>
        <time>2021-08-18T08:43:00.000Z</time>
      </trkpt>
      <trkpt lat="43.07167880237102508544921875" lon="-6.05767945758998394012451171875">
        <ele>1538.4000244140625</ele>
        <time>2021-08-18T08:43:09.000Z</time>
      </trkpt>
      <trkpt lat="43.07171174325048923492431640625" lon="-6.05765573680400848388671875">
        <ele>1537.800048828125</ele>
        <time>2021-08-18T08:43:14.000Z</time>
      </trkpt>
      <trkpt lat="43.0717222206294536590576171875" lon="-6.05764157138764858245849609375">
        <ele>1537.5999755859375</ele>
        <time>2021-08-18T08:43:16.000Z</time>
      </trkpt>
      <trkpt lat="43.0717264115810394287109375" lon="-6.057632602751255035400390625">
        <ele>1537.199951171875</ele>
        <time>2021-08-18T08:43:17.000Z</time>
      </trkpt>
      <trkpt lat="43.07174158282577991485595703125" lon="-6.0576247237622737884521484375">
        <ele>1536.800048828125</ele>
        <time>2021-08-18T08:43:20.000Z</time>
      </trkpt>
      <trkpt lat="43.0717668123543262481689453125" lon="-6.0576320998370647430419921875">
        <ele>1536.199951171875</ele>
        <time>2021-08-18T08:43:24.000Z</time>
      </trkpt>
      <trkpt lat="43.07180578820407390594482421875" lon="-6.05762698687613010406494140625">
        <ele>1535</ele>
        <time>2021-08-18T08:43:31.000Z</time>
      </trkpt>
      <trkpt lat="43.071819953620433807373046875" lon="-6.05762614868581295013427734375">
        <ele>1534.800048828125</ele>
        <time>2021-08-18T08:43:33.000Z</time>
      </trkpt>
      <trkpt lat="43.07185758836567401885986328125" lon="-6.05761625804007053375244140625">
        <ele>1533.800048828125</ele>
        <time>2021-08-18T08:43:39.000Z</time>
      </trkpt>
      <trkpt lat="43.07188139297068119049072265625" lon="-6.0576240532100200653076171875">
        <ele>1533.199951171875</ele>
        <time>2021-08-18T08:43:42.000Z</time>
      </trkpt>
      <trkpt lat="43.071900419890880584716796875" lon="-6.05762933380901813507080078125">
        <ele>1532.5999755859375</ele>
        <time>2021-08-18T08:43:45.000Z</time>
      </trkpt>
      <trkpt lat="43.0719374679028987884521484375" lon="-6.0576274059712886810302734375">
        <ele>1531.5999755859375</ele>
        <time>2021-08-18T08:43:51.000Z</time>
      </trkpt>
      <trkpt lat="43.07197510264813899993896484375" lon="-6.057629249989986419677734375">
        <ele>1530.5999755859375</ele>
        <time>2021-08-18T08:43:56.000Z</time>
      </trkpt>
      <trkpt lat="43.07199153117835521697998046875" lon="-6.05761826969683170318603515625">
        <ele>1530.199951171875</ele>
        <time>2021-08-18T08:43:58.000Z</time>
      </trkpt>
      <trkpt lat="43.0720229633152484893798828125" lon="-6.05760787613689899444580078125">
        <ele>1529.4000244140625</ele>
        <time>2021-08-18T08:44:03.000Z</time>
      </trkpt>
      <trkpt lat="43.0720390565693378448486328125" lon="-6.05760955251753330230712890625">
        <ele>1528.4000244140625</ele>
        <time>2021-08-18T08:44:08.000Z</time>
      </trkpt>
      <trkpt lat="43.0720484443008899688720703125" lon="-6.05761961080133914947509765625">
        <ele>1528.199951171875</ele>
        <time>2021-08-18T08:44:11.000Z</time>
      </trkpt>
      <trkpt lat="43.07208306156098842620849609375" lon="-6.05762631632387638092041015625">
        <ele>1527.199951171875</ele>
        <time>2021-08-18T08:44:16.000Z</time>
      </trkpt>
      <trkpt lat="43.07210451923310756683349609375" lon="-6.05763905681669712066650390625">
        <ele>1526.800048828125</ele>
        <time>2021-08-18T08:44:19.000Z</time>
      </trkpt>
      <trkpt lat="43.072118349373340606689453125" lon="-6.057648360729217529296875">
        <ele>1526.199951171875</ele>
        <time>2021-08-18T08:44:21.000Z</time>
      </trkpt>
      <trkpt lat="43.0721366219222545623779296875" lon="-6.05766202323138713836669921875">
        <ele>1525.800048828125</ele>
        <time>2021-08-18T08:44:24.000Z</time>
      </trkpt>
      <trkpt lat="43.0721513740718364715576171875" lon="-6.0576832294464111328125">
        <ele>1525</ele>
        <time>2021-08-18T08:44:27.000Z</time>
      </trkpt>
      <trkpt lat="43.072155229747295379638671875" lon="-6.05769337154924869537353515625">
        <ele>1525</ele>
        <time>2021-08-18T08:44:28.000Z</time>
      </trkpt>
      <trkpt lat="43.07218330912292003631591796875" lon="-6.0577222891151905059814453125">
        <ele>1524.199951171875</ele>
        <time>2021-08-18T08:44:33.000Z</time>
      </trkpt>
      <trkpt lat="43.07218984700739383697509765625" lon="-6.0577248036861419677734375">
        <ele>1524</ele>
        <time>2021-08-18T08:44:34.000Z</time>
      </trkpt>
      <trkpt lat="43.07220007292926311492919921875" lon="-6.05773561634123325347900390625">
        <ele>1523.5999755859375</ele>
        <time>2021-08-18T08:44:36.000Z</time>
      </trkpt>
      <trkpt lat="43.07221516035497188568115234375" lon="-6.0577476024627685546875">
        <ele>1523</ele>
        <time>2021-08-18T08:44:38.000Z</time>
      </trkpt>
      <trkpt lat="43.072222955524921417236328125" lon="-6.0577543079853057861328125">
        <ele>1522.800048828125</ele>
        <time>2021-08-18T08:44:39.000Z</time>
      </trkpt>
      <trkpt lat="43.07224717922508716583251953125" lon="-6.05779093690216541290283203125">
        <ele>1522.199951171875</ele>
        <time>2021-08-18T08:44:43.000Z</time>
      </trkpt>
      <trkpt lat="43.07225547730922698974609375" lon="-6.05780082754790782928466796875">
        <ele>1522.199951171875</ele>
        <time>2021-08-18T08:44:44.000Z</time>
      </trkpt>
      <trkpt lat="43.072268553078174591064453125" lon="-6.05782010592520236968994140625">
        <ele>1522</ele>
        <time>2021-08-18T08:44:46.000Z</time>
      </trkpt>
      <trkpt lat="43.07229839265346527099609375" lon="-6.05784072540700435638427734375">
        <ele>1520.800048828125</ele>
        <time>2021-08-18T08:44:50.000Z</time>
      </trkpt>
      <trkpt lat="43.07232965715229511260986328125" lon="-6.05785480700433254241943359375">
        <ele>1519.800048828125</ele>
        <time>2021-08-18T08:44:54.000Z</time>
      </trkpt>
      <trkpt lat="43.07234038598835468292236328125" lon="-6.05785765685141086578369140625">
        <ele>1519.800048828125</ele>
        <time>2021-08-18T08:44:55.000Z</time>
      </trkpt>
      <trkpt lat="43.0723513662815093994140625" lon="-6.05785430409014225006103515625">
        <ele>1519.5999755859375</ele>
        <time>2021-08-18T08:44:56.000Z</time>
      </trkpt>
      <trkpt lat="43.07239688001573085784912109375" lon="-6.057861261069774627685546875">
        <ele>1519</ele>
        <time>2021-08-18T08:45:01.000Z</time>
      </trkpt>
      <trkpt lat="43.07241498492658138275146484375" lon="-6.0578669607639312744140625">
        <ele>1518.4000244140625</ele>
        <time>2021-08-18T08:45:03.000Z</time>
      </trkpt>
      <trkpt lat="43.0724425613880157470703125" lon="-6.057879365980625152587890625">
        <ele>1517.800048828125</ele>
        <time>2021-08-18T08:45:06.000Z</time>
      </trkpt>
      <trkpt lat="43.07244993746280670166015625" lon="-6.05788213200867176055908203125">
        <ele>1517.5999755859375</ele>
        <time>2021-08-18T08:45:07.000Z</time>
      </trkpt>
      <trkpt lat="43.07248078286647796630859375" lon="-6.05790426023304462432861328125">
        <ele>1517.199951171875</ele>
        <time>2021-08-18T08:45:11.000Z</time>
      </trkpt>
      <trkpt lat="43.07253199629485607147216796875" lon="-6.05796393938362598419189453125">
        <ele>1516.199951171875</ele>
        <time>2021-08-18T08:45:18.000Z</time>
      </trkpt>
      <trkpt lat="43.072555549442768096923828125" lon="-6.05796259827911853790283203125">
        <ele>1516</ele>
        <time>2021-08-18T08:45:20.000Z</time>
      </trkpt>
      <trkpt lat="43.07260424830019474029541015625" lon="-6.0579720698297023773193359375">
        <ele>1515.4000244140625</ele>
        <time>2021-08-18T08:45:25.000Z</time>
      </trkpt>
      <trkpt lat="43.0726247839629650115966796875" lon="-6.0579817928373813629150390625">
        <ele>1515.199951171875</ele>
        <time>2021-08-18T08:45:27.000Z</time>
      </trkpt>
      <trkpt lat="43.07263224385678768157958984375" lon="-6.05798430740833282470703125">
        <ele>1515</ele>
        <time>2021-08-18T08:45:28.000Z</time>
      </trkpt>
      <trkpt lat="43.07270742952823638916015625" lon="-6.058030240237712860107421875">
        <ele>1514</ele>
        <time>2021-08-18T08:45:36.000Z</time>
      </trkpt>
      <trkpt lat="43.0727267079055309295654296875" lon="-6.0580386221408843994140625">
        <ele>1513.800048828125</ele>
        <time>2021-08-18T08:45:38.000Z</time>
      </trkpt>
      <trkpt lat="43.0727515183389186859130859375" lon="-6.0580545477569103240966796875">
        <ele>1513.4000244140625</ele>
        <time>2021-08-18T08:45:41.000Z</time>
      </trkpt>
      <trkpt lat="43.07276937179267406463623046875" lon="-6.05806418694555759429931640625">
        <ele>1513</ele>
        <time>2021-08-18T08:45:43.000Z</time>
      </trkpt>
      <trkpt lat="43.0728380195796489715576171875" lon="-6.05810634791851043701171875">
        <ele>1511.800048828125</ele>
        <time>2021-08-18T08:45:51.000Z</time>
      </trkpt>
      <trkpt lat="43.0728899873793125152587890625" lon="-6.05814926326274871826171875">
        <ele>1510.800048828125</ele>
        <time>2021-08-18T08:46:00.000Z</time>
      </trkpt>
      <trkpt lat="43.07289786636829376220703125" lon="-6.0581541247665882110595703125">
        <ele>1510.5999755859375</ele>
        <time>2021-08-18T08:46:01.000Z</time>
      </trkpt>
      <trkpt lat="43.0729526840150356292724609375" lon="-6.05821095407009124755859375">
        <ele>1509.800048828125</ele>
        <time>2021-08-18T08:46:08.000Z</time>
      </trkpt>
      <trkpt lat="43.0729677714407444000244140625" lon="-6.058218665421009063720703125">
        <ele>1509.4000244140625</ele>
        <time>2021-08-18T08:46:10.000Z</time>
      </trkpt>
      <trkpt lat="43.07298227213323116302490234375" lon="-6.05823785997927188873291015625">
        <ele>1509</ele>
        <time>2021-08-18T08:46:13.000Z</time>
      </trkpt>
      <trkpt lat="43.0729888938367366790771484375" lon="-6.0582409612834453582763671875">
        <ele>1508.800048828125</ele>
        <time>2021-08-18T08:46:14.000Z</time>
      </trkpt>
      <trkpt lat="43.07302518747746944427490234375" lon="-6.058284379541873931884765625">
        <ele>1507.800048828125</ele>
        <time>2021-08-18T08:46:22.000Z</time>
      </trkpt>
      <trkpt lat="43.07302770204842090606689453125" lon="-6.058287732303142547607421875">
        <ele>1507.5999755859375</ele>
        <time>2021-08-18T08:46:23.000Z</time>
      </trkpt>
      <trkpt lat="43.07303859852254390716552734375" lon="-6.058297790586948394775390625">
        <ele>1507.4000244140625</ele>
        <time>2021-08-18T08:46:25.000Z</time>
      </trkpt>
      <trkpt lat="43.07307631708681583404541015625" lon="-6.0583309829235076904296875">
        <ele>1506.5999755859375</ele>
        <time>2021-08-18T08:46:32.000Z</time>
      </trkpt>
      <trkpt lat="43.07308671064674854278564453125" lon="-6.05834682472050189971923828125">
        <ele>1506.4000244140625</ele>
        <time>2021-08-18T08:46:34.000Z</time>
      </trkpt>
      <trkpt lat="43.07309241034090518951416015625" lon="-6.05835042893886566162109375">
        <ele>1506.199951171875</ele>
        <time>2021-08-18T08:46:35.000Z</time>
      </trkpt>
      <trkpt lat="43.07311722077429294586181640625" lon="-6.05835520662367343902587890625">
        <ele>1505.5999755859375</ele>
        <time>2021-08-18T08:46:38.000Z</time>
      </trkpt>
      <trkpt lat="43.07312509976327419281005859375" lon="-6.05835185386240482330322265625">
        <ele>1505.4000244140625</ele>
        <time>2021-08-18T08:46:39.000Z</time>
      </trkpt>
      <trkpt lat="43.07316181249916553497314453125" lon="-6.05833559297025203704833984375">
        <ele>1504.800048828125</ele>
        <time>2021-08-18T08:46:45.000Z</time>
      </trkpt>
      <trkpt lat="43.07317681610584259033203125" lon="-6.05832670815289020538330078125">
        <ele>1504.199951171875</ele>
        <time>2021-08-18T08:46:48.000Z</time>
      </trkpt>
      <trkpt lat="43.07318293489515781402587890625" lon="-6.05832469649612903594970703125">
        <ele>1504</ele>
        <time>2021-08-18T08:46:49.000Z</time>
      </trkpt>
      <trkpt lat="43.073208667337894439697265625" lon="-6.0583264566957950592041015625">
        <ele>1503</ele>
        <time>2021-08-18T08:46:54.000Z</time>
      </trkpt>
      <trkpt lat="43.07325803674757480621337890625" lon="-6.0583120398223400115966796875">
        <ele>1501.800048828125</ele>
        <time>2021-08-18T08:47:02.000Z</time>
      </trkpt>
      <trkpt lat="43.07327203452587127685546875" lon="-6.05830575339496135711669921875">
        <ele>1501.199951171875</ele>
        <time>2021-08-18T08:47:04.000Z</time>
      </trkpt>
      <trkpt lat="43.07328016497194766998291015625" lon="-6.0583006404340267181396484375">
        <ele>1500.800048828125</ele>
        <time>2021-08-18T08:47:07.000Z</time>
      </trkpt>
      <trkpt lat="43.07331369258463382720947265625" lon="-6.0582882352173328399658203125">
        <ele>1499.800048828125</ele>
        <time>2021-08-18T08:47:13.000Z</time>
      </trkpt>
      <trkpt lat="43.073334395885467529296875" lon="-6.05828479863703250885009765625">
        <ele>1499.4000244140625</ele>
        <time>2021-08-18T08:47:16.000Z</time>
      </trkpt>
      <trkpt lat="43.07335652410984039306640625" lon="-6.0582805238664150238037109375">
        <ele>1498.5999755859375</ele>
        <time>2021-08-18T08:47:19.000Z</time>
      </trkpt>
      <trkpt lat="43.0733858607709407806396484375" lon="-6.058292090892791748046875">
        <ele>1498.199951171875</ele>
        <time>2021-08-18T08:47:22.000Z</time>
      </trkpt>
      <trkpt lat="43.07340639643371105194091796875" lon="-6.05828496627509593963623046875">
        <ele>1498</ele>
        <time>2021-08-18T08:47:24.000Z</time>
      </trkpt>
      <trkpt lat="43.07341285049915313720703125" lon="-6.05827088467776775360107421875">
        <ele>1497.5999755859375</ele>
        <time>2021-08-18T08:47:26.000Z</time>
      </trkpt>
      <trkpt lat="43.07341595180332660675048828125" lon="-6.05826996266841888427734375">
        <ele>1497.5999755859375</ele>
        <time>2021-08-18T08:47:27.000Z</time>
      </trkpt>
      <trkpt lat="43.0734183825552463531494140625" lon="-6.05821539647877216339111328125">
        <ele>1496.4000244140625</ele>
        <time>2021-08-18T08:47:34.000Z</time>
      </trkpt>
      <trkpt lat="43.07341779582202434539794921875" lon="-6.05820852331817150115966796875">
        <ele>1496.199951171875</ele>
        <time>2021-08-18T08:47:35.000Z</time>
      </trkpt>
      <trkpt lat="43.0734143592417240142822265625" lon="-6.05819276534020900726318359375">
        <ele>1495.800048828125</ele>
        <time>2021-08-18T08:47:37.000Z</time>
      </trkpt>
      <trkpt lat="43.073412515223026275634765625" lon="-6.0581853054463863372802734375">
        <ele>1495.5999755859375</ele>
        <time>2021-08-18T08:47:38.000Z</time>
      </trkpt>
      <trkpt lat="43.07342064566910266876220703125" lon="-6.058163344860076904296875">
        <ele>1495.4000244140625</ele>
        <time>2021-08-18T08:47:41.000Z</time>
      </trkpt>
      <trkpt lat="43.07341980747878551483154296875" lon="-6.05810173787176609039306640625">
        <ele>1494.199951171875</ele>
        <time>2021-08-18T08:47:48.000Z</time>
      </trkpt>
      <trkpt lat="43.07341687381267547607421875" lon="-6.05808782391250133514404296875">
        <ele>1493.199951171875</ele>
        <time>2021-08-18T08:47:53.000Z</time>
      </trkpt>
      <trkpt lat="43.07340773753821849822998046875" lon="-6.05805412866175174713134765625">
        <ele>1492.5999755859375</ele>
        <time>2021-08-18T08:47:58.000Z</time>
      </trkpt>
      <trkpt lat="43.073398433625698089599609375" lon="-6.05803401209414005279541015625">
        <ele>1492</ele>
        <time>2021-08-18T08:48:01.000Z</time>
      </trkpt>
      <trkpt lat="43.0733925662934780120849609375" lon="-6.058008112013339996337890625">
        <ele>1491</ele>
        <time>2021-08-18T08:48:05.000Z</time>
      </trkpt>
      <trkpt lat="43.073391728103160858154296875" lon="-6.05797785334289073944091796875">
        <ele>1490</ele>
        <time>2021-08-18T08:48:11.000Z</time>
      </trkpt>
      <trkpt lat="43.07339030317962169647216796875" lon="-6.05797114782035350799560546875">
        <ele>1490</ele>
        <time>2021-08-18T08:48:12.000Z</time>
      </trkpt>
      <trkpt lat="43.07339751161634922027587890625" lon="-6.0579563118517398834228515625">
        <ele>1489.5999755859375</ele>
        <time>2021-08-18T08:48:15.000Z</time>
      </trkpt>
      <trkpt lat="43.07341209612786769866943359375" lon="-6.05793762020766735076904296875">
        <ele>1488.800048828125</ele>
        <time>2021-08-18T08:48:21.000Z</time>
      </trkpt>
      <trkpt lat="43.07343321852385997772216796875" lon="-6.057928316295146942138671875">
        <ele>1487.800048828125</ele>
        <time>2021-08-18T08:48:26.000Z</time>
      </trkpt>
      <trkpt lat="43.07344931177794933319091796875" lon="-6.05793024413287639617919921875">
        <ele>1487.4000244140625</ele>
        <time>2021-08-18T08:48:28.000Z</time>
      </trkpt>
      <trkpt lat="43.07347546331584453582763671875" lon="-6.05792152695357799530029296875">
        <ele>1487</ele>
        <time>2021-08-18T08:48:33.000Z</time>
      </trkpt>
      <trkpt lat="43.0734857730567455291748046875" lon="-6.05792420916259288787841796875">
        <ele>1486.5999755859375</ele>
        <time>2021-08-18T08:48:35.000Z</time>
      </trkpt>
      <trkpt lat="43.07349910028278827667236328125" lon="-6.05791633017361164093017578125">
        <ele>1485.800048828125</ele>
        <time>2021-08-18T08:48:38.000Z</time>
      </trkpt>
      <trkpt lat="43.0735233239829540252685546875" lon="-6.0579100437462329864501953125">
        <ele>1485.4000244140625</ele>
        <time>2021-08-18T08:48:42.000Z</time>
      </trkpt>
      <trkpt lat="43.073528520762920379638671875" lon="-6.05791247449815273284912109375">
        <ele>1485.4000244140625</ele>
        <time>2021-08-18T08:48:43.000Z</time>
      </trkpt>
      <trkpt lat="43.07353514246642589569091796875" lon="-6.05791666544973850250244140625">
        <ele>1485.199951171875</ele>
        <time>2021-08-18T08:48:44.000Z</time>
      </trkpt>
      <trkpt lat="43.0735565163195133209228515625" lon="-6.05792932212352752685546875">
        <ele>1484.199951171875</ele>
        <time>2021-08-18T08:48:48.000Z</time>
      </trkpt>
      <trkpt lat="43.0735669098794460296630859375" lon="-6.0579268075525760650634765625">
        <ele>1483.800048828125</ele>
        <time>2021-08-18T08:48:50.000Z</time>
      </trkpt>
      <trkpt lat="43.0735742859542369842529296875" lon="-6.05792722664773464202880859375">
        <ele>1483.5999755859375</ele>
        <time>2021-08-18T08:48:52.000Z</time>
      </trkpt>
      <trkpt lat="43.07358593679964542388916015625" lon="-6.0579164139926433563232421875">
        <ele>1482.800048828125</ele>
        <time>2021-08-18T08:48:56.000Z</time>
      </trkpt>
      <trkpt lat="43.07359255850315093994140625" lon="-6.05789034627377986907958984375">
        <ele>1481.800048828125</ele>
        <time>2021-08-18T08:49:02.000Z</time>
      </trkpt>
      <trkpt lat="43.073590211570262908935546875" lon="-6.05788238346576690673828125">
        <ele>1481.800048828125</ele>
        <time>2021-08-18T08:49:03.000Z</time>
      </trkpt>
      <trkpt lat="43.073621056973934173583984375" lon="-6.05785329826176166534423828125">
        <ele>1480.5999755859375</ele>
        <time>2021-08-18T08:49:10.000Z</time>
      </trkpt>
      <trkpt lat="43.073635809123516082763671875" lon="-6.05786570347845554351806640625">
        <ele>1480</ele>
        <time>2021-08-18T08:49:14.000Z</time>
      </trkpt>
      <trkpt lat="43.07364578358829021453857421875" lon="-6.05787760578095912933349609375">
        <ele>1479.5999755859375</ele>
        <time>2021-08-18T08:49:16.000Z</time>
      </trkpt>
      <trkpt lat="43.07367864064872264862060546875" lon="-6.05788112618029117584228515625">
        <ele>1478.800048828125</ele>
        <time>2021-08-18T08:49:25.000Z</time>
      </trkpt>
      <trkpt lat="43.07368299923837184906005859375" lon="-6.057879030704498291015625">
        <ele>1478.5999755859375</ele>
        <time>2021-08-18T08:49:26.000Z</time>
      </trkpt>
      <trkpt lat="43.073695488274097442626953125" lon="-6.05790560133755207061767578125">
        <ele>1477.5999755859375</ele>
        <time>2021-08-18T08:49:33.000Z</time>
      </trkpt>
      <trkpt lat="43.0737037025392055511474609375" lon="-6.0579144023358821868896484375">
        <ele>1477.4000244140625</ele>
        <time>2021-08-18T08:49:35.000Z</time>
      </trkpt>
      <trkpt lat="43.073726333677768707275390625" lon="-6.05795270763337612152099609375">
        <ele>1476.4000244140625</ele>
        <time>2021-08-18T08:49:41.000Z</time>
      </trkpt>
      <trkpt lat="43.073755167424678802490234375" lon="-6.05798288248479366302490234375">
        <ele>1475.199951171875</ele>
        <time>2021-08-18T08:49:47.000Z</time>
      </trkpt>
      <trkpt lat="43.07375877164304256439208984375" lon="-6.0579848103225231170654296875">
        <ele>1475</ele>
        <time>2021-08-18T08:49:49.000Z</time>
      </trkpt>
      <trkpt lat="43.073759190738201141357421875" lon="-6.05798673816025257110595703125">
        <ele>1474.5999755859375</ele>
        <time>2021-08-18T08:49:52.000Z</time>
      </trkpt>
      <trkpt lat="43.07375927455723285675048828125" lon="-6.05799780227243900299072265625">
        <ele>1474.199951171875</ele>
        <time>2021-08-18T08:49:55.000Z</time>
      </trkpt>
      <trkpt lat="43.073763214051723480224609375" lon="-6.05802529491484165191650390625">
        <ele>1473.5999755859375</ele>
        <time>2021-08-18T08:49:59.000Z</time>
      </trkpt>
      <trkpt lat="43.07377419434487819671630859375" lon="-6.05804256163537502288818359375">
        <ele>1473.199951171875</ele>
        <time>2021-08-18T08:50:01.000Z</time>
      </trkpt>
      <trkpt lat="43.07380638085305690765380859375" lon="-6.0580907575786113739013671875">
        <ele>1472</ele>
        <time>2021-08-18T08:50:09.000Z</time>
      </trkpt>
      <trkpt lat="43.073817528784275054931640625" lon="-6.058100648224353790283203125">
        <ele>1471.5999755859375</ele>
        <time>2021-08-18T08:50:11.000Z</time>
      </trkpt>
      <trkpt lat="43.07385834865272045135498046875" lon="-6.05814079754054546356201171875">
        <ele>1471</ele>
        <time>2021-08-18T08:50:18.000Z</time>
      </trkpt>
      <trkpt lat="43.07386346161365509033203125" lon="-6.0581799410283565521240234375">
        <ele>1470</ele>
        <time>2021-08-18T08:50:23.000Z</time>
      </trkpt>
      <trkpt lat="43.0738726817071437835693359375" lon="-6.0582049190998077392578125">
        <ele>1469.800048828125</ele>
        <time>2021-08-18T08:50:27.000Z</time>
      </trkpt>
      <trkpt lat="43.07387947104871273040771484375" lon="-6.0582382790744304656982421875">
        <ele>1468.800048828125</ele>
        <time>2021-08-18T08:50:34.000Z</time>
      </trkpt>
      <trkpt lat="43.07386614382266998291015625" lon="-6.058274991810321807861328125">
        <ele>1468.199951171875</ele>
        <time>2021-08-18T08:50:38.000Z</time>
      </trkpt>
      <trkpt lat="43.0738629586994647979736328125" lon="-6.0583076812326908111572265625">
        <ele>1467.5999755859375</ele>
        <time>2021-08-18T08:50:41.000Z</time>
      </trkpt>
      <trkpt lat="43.0738780461251735687255859375" lon="-6.05832922272384166717529296875">
        <ele>1466.5999755859375</ele>
        <time>2021-08-18T08:50:48.000Z</time>
      </trkpt>
      <trkpt lat="43.07388651184737682342529296875" lon="-6.05832771398127079010009765625">
        <ele>1466.5999755859375</ele>
        <time>2021-08-18T08:50:49.000Z</time>
      </trkpt>
      <trkpt lat="43.07394769974052906036376953125" lon="-6.05833911336958408355712890625">
        <ele>1465.199951171875</ele>
        <time>2021-08-18T08:50:55.000Z</time>
      </trkpt>
      <trkpt lat="43.07397418655455112457275390625" lon="-6.05833341367542743682861328125">
        <ele>1464.199951171875</ele>
        <time>2021-08-18T08:50:59.000Z</time>
      </trkpt>
      <trkpt lat="43.07398005388677120208740234375" lon="-6.05833240784704685211181640625">
        <ele>1464.199951171875</ele>
        <time>2021-08-18T08:51:00.000Z</time>
      </trkpt>
      <trkpt lat="43.0740054510533809661865234375" lon="-6.058327294886112213134765625">
        <ele>1463.5999755859375</ele>
        <time>2021-08-18T08:51:04.000Z</time>
      </trkpt>
      <trkpt lat="43.07403378188610076904296875" lon="-6.05831715278327465057373046875">
        <ele>1463</ele>
        <time>2021-08-18T08:51:08.000Z</time>
      </trkpt>
      <trkpt lat="43.07407175190746784210205078125" lon="-6.05828546918928623199462890625">
        <ele>1462.199951171875</ele>
        <time>2021-08-18T08:51:15.000Z</time>
      </trkpt>
      <trkpt lat="43.0740802176296710968017578125" lon="-6.05827976949512958526611328125">
        <ele>1461.800048828125</ele>
        <time>2021-08-18T08:51:16.000Z</time>
      </trkpt>
      <trkpt lat="43.074127323925495147705078125" lon="-6.0582666099071502685546875">
        <ele>1460.800048828125</ele>
        <time>2021-08-18T08:51:25.000Z</time>
      </trkpt>
      <trkpt lat="43.07412656955420970916748046875" lon="-6.058262251317501068115234375">
        <ele>1460.800048828125</ele>
        <time>2021-08-18T08:51:35.000Z</time>
      </trkpt>
      <trkpt lat="43.0741238035261631011962890625" lon="-6.058255545794963836669921875">
        <ele>1460.800048828125</ele>
        <time>2021-08-18T08:51:38.000Z</time>
      </trkpt>
      <trkpt lat="43.07412925176322460174560546875" lon="-6.05825613252818584442138671875">
        <ele>1460.800048828125</ele>
        <time>2021-08-18T08:51:40.000Z</time>
      </trkpt>
      <trkpt lat="43.07415892370045185089111328125" lon="-6.05824959464371204376220703125">
        <ele>1460.5999755859375</ele>
        <time>2021-08-18T08:51:45.000Z</time>
      </trkpt>
      <trkpt lat="43.07418507523834705352783203125" lon="-6.0582305677235126495361328125">
        <ele>1459.800048828125</ele>
        <time>2021-08-18T08:51:50.000Z</time>
      </trkpt>
      <trkpt lat="43.07422564364969730377197265625" lon="-6.05823735706508159637451171875">
        <ele>1459</ele>
        <time>2021-08-18T08:51:54.000Z</time>
      </trkpt>
      <trkpt lat="43.07425615377724170684814453125" lon="-6.0582399554550647735595703125">
        <ele>1458.800048828125</ele>
        <time>2021-08-18T08:51:57.000Z</time>
      </trkpt>
      <trkpt lat="43.07427627034485340118408203125" lon="-6.05824121274054050445556640625">
        <ele>1458.5999755859375</ele>
        <time>2021-08-18T08:51:59.000Z</time>
      </trkpt>
      <trkpt lat="43.074360005557537078857421875" lon="-6.05825965292751789093017578125">
        <ele>1457.5999755859375</ele>
        <time>2021-08-18T08:52:07.000Z</time>
      </trkpt>
      <trkpt lat="43.07436746545135974884033203125" lon="-6.05826015584170818328857421875">
        <ele>1457.4000244140625</ele>
        <time>2021-08-18T08:52:08.000Z</time>
      </trkpt>
      <trkpt lat="43.07444005273282527923583984375" lon="-6.05827876366674900054931640625">
        <ele>1457</ele>
        <time>2021-08-18T08:52:15.000Z</time>
      </trkpt>
      <trkpt lat="43.07449646294116973876953125" lon="-6.05826166458427906036376953125">
        <ele>1456.5999755859375</ele>
        <time>2021-08-18T08:52:20.000Z</time>
      </trkpt>
      <trkpt lat="43.0745033361017704010009765625" lon="-6.0582580603659152984619140625">
        <ele>1456.4000244140625</ele>
        <time>2021-08-18T08:52:21.000Z</time>
      </trkpt>
      <trkpt lat="43.07453393004834651947021484375" lon="-6.05813643895089626312255859375">
        <ele>1456</ele>
        <time>2021-08-18T08:52:30.000Z</time>
      </trkpt>
      <trkpt lat="43.074593357741832733154296875" lon="-6.058065779507160186767578125">
        <ele>1455.4000244140625</ele>
        <time>2021-08-18T08:52:38.000Z</time>
      </trkpt>
      <trkpt lat="43.07462126947939395904541015625" lon="-6.0580220259726047515869140625">
        <ele>1454.5999755859375</ele>
        <time>2021-08-18T08:52:42.000Z</time>
      </trkpt>
      <trkpt lat="43.07463350705802440643310546875" lon="-6.058010123670101165771484375">
        <ele>1454.5999755859375</ele>
        <time>2021-08-18T08:52:45.000Z</time>
      </trkpt>
      <trkpt lat="43.0746548809111118316650390625" lon="-6.05799864046275615692138671875">
        <ele>1454.4000244140625</ele>
        <time>2021-08-18T08:52:48.000Z</time>
      </trkpt>
      <trkpt lat="43.0746827088296413421630859375" lon="-6.0579888336360454559326171875">
        <ele>1453.5999755859375</ele>
        <time>2021-08-18T08:52:52.000Z</time>
      </trkpt>
      <trkpt lat="43.07469469495117664337158203125" lon="-6.05797282420098781585693359375">
        <ele>1453.199951171875</ele>
        <time>2021-08-18T08:52:54.000Z</time>
      </trkpt>
      <trkpt lat="43.07469989173114299774169921875" lon="-6.05796611867845058441162109375">
        <ele>1453.199951171875</ele>
        <time>2021-08-18T08:52:56.000Z</time>
      </trkpt>
      <trkpt lat="43.0747397057712078094482421875" lon="-6.05794197879731655120849609375">
        <ele>1453</ele>
        <time>2021-08-18T08:53:03.000Z</time>
      </trkpt>
      <trkpt lat="43.07479812763631343841552734375" lon="-6.05791616253554821014404296875">
        <ele>1452.800048828125</ele>
        <time>2021-08-18T08:53:10.000Z</time>
      </trkpt>
      <trkpt lat="43.074834086000919342041015625" lon="-6.05789571069180965423583984375">
        <ele>1453</ele>
        <time>2021-08-18T08:53:14.000Z</time>
      </trkpt>
      <trkpt lat="43.07493139989674091339111328125" lon="-6.0578748397529125213623046875">
        <ele>1454</ele>
        <time>2021-08-18T08:53:26.000Z</time>
      </trkpt>
      <trkpt lat="43.07494816370308399200439453125" lon="-6.0578723251819610595703125">
        <ele>1454</ele>
        <time>2021-08-18T08:53:28.000Z</time>
      </trkpt>
      <trkpt lat="43.07496316730976104736328125" lon="-6.057873666286468505859375">
        <ele>1454.199951171875</ele>
        <time>2021-08-18T08:53:30.000Z</time>
      </trkpt>
      <trkpt lat="43.07499644346535205841064453125" lon="-6.05787299573421478271484375">
        <ele>1454.199951171875</ele>
        <time>2021-08-18T08:53:34.000Z</time>
      </trkpt>
      <trkpt lat="43.07503064163029193878173828125" lon="-6.05788431130349636077880859375">
        <ele>1454.4000244140625</ele>
        <time>2021-08-18T08:53:38.000Z</time>
      </trkpt>
      <trkpt lat="43.07506483979523181915283203125" lon="-6.0578822158277034759521484375">
        <ele>1454.4000244140625</ele>
        <time>2021-08-18T08:53:41.000Z</time>
      </trkpt>
      <trkpt lat="43.07510222308337688446044921875" lon="-6.057882048189640045166015625">
        <ele>1454.5999755859375</ele>
        <time>2021-08-18T08:53:45.000Z</time>
      </trkpt>
      <trkpt lat="43.07512653060257434844970703125" lon="-6.0578798688948154449462890625">
        <ele>1454.800048828125</ele>
        <time>2021-08-18T08:53:48.000Z</time>
      </trkpt>
      <trkpt lat="43.075131475925445556640625" lon="-6.0578723251819610595703125">
        <ele>1454.800048828125</ele>
        <time>2021-08-18T08:53:49.000Z</time>
      </trkpt>
      <trkpt lat="43.07514966465532779693603515625" lon="-6.05784676037728786468505859375">
        <ele>1454.4000244140625</ele>
        <time>2021-08-18T08:53:53.000Z</time>
      </trkpt>
      <trkpt lat="43.07516835629940032958984375" lon="-6.0578295774757862091064453125">
        <ele>1453.800048828125</ele>
        <time>2021-08-18T08:53:58.000Z</time>
      </trkpt>
      <trkpt lat="43.075196184217929840087890625" lon="-6.05782513506710529327392578125">
        <ele>1453</ele>
        <time>2021-08-18T08:54:03.000Z</time>
      </trkpt>
      <trkpt lat="43.0752240121364593505859375" lon="-6.05782178230583667755126953125">
        <ele>1452.5999755859375</ele>
        <time>2021-08-18T08:54:07.000Z</time>
      </trkpt>
      <trkpt lat="43.07524488307535648345947265625" lon="-6.05782731436192989349365234375">
        <ele>1452.4000244140625</ele>
        <time>2021-08-18T08:54:09.000Z</time>
      </trkpt>
      <trkpt lat="43.07525812648236751556396484375" lon="-6.05782815255224704742431640625">
        <ele>1452</ele>
        <time>2021-08-18T08:54:11.000Z</time>
      </trkpt>
      <trkpt lat="43.07527170516550540924072265625" lon="-6.0578292421996593475341796875">
        <ele>1451.800048828125</ele>
        <time>2021-08-18T08:54:14.000Z</time>
      </trkpt>
      <trkpt lat="43.0753167159855365753173828125" lon="-6.05782178230583667755126953125">
        <ele>1450.800048828125</ele>
        <time>2021-08-18T08:54:22.000Z</time>
      </trkpt>
      <trkpt lat="43.07538569904863834381103515625" lon="-6.05781935155391693115234375">
        <ele>1449.800048828125</ele>
        <time>2021-08-18T08:54:30.000Z</time>
      </trkpt>
      <trkpt lat="43.07539206929504871368408203125" lon="-6.05782127939164638519287109375">
        <ele>1449.800048828125</ele>
        <time>2021-08-18T08:54:31.000Z</time>
      </trkpt>
      <trkpt lat="43.0754602141678333282470703125" lon="-6.05782873928546905517578125">
        <ele>1448.5999755859375</ele>
        <time>2021-08-18T08:54:41.000Z</time>
      </trkpt>
      <trkpt lat="43.07545845396816730499267578125" lon="-6.0578054375946521759033203125">
        <ele>1448.199951171875</ele>
        <time>2021-08-18T08:54:44.000Z</time>
      </trkpt>
      <trkpt lat="43.07546314783394336700439453125" lon="-6.05779563076794147491455078125">
        <ele>1447.5999755859375</ele>
        <time>2021-08-18T08:54:48.000Z</time>
      </trkpt>
      <trkpt lat="43.07548829354345798492431640625" lon="-6.057774759829044342041015625">
        <ele>1446.800048828125</ele>
        <time>2021-08-18T08:54:53.000Z</time>
      </trkpt>
      <trkpt lat="43.07549416087567806243896484375" lon="-6.057773418724536895751953125">
        <ele>1446.5999755859375</ele>
        <time>2021-08-18T08:54:54.000Z</time>
      </trkpt>
      <trkpt lat="43.07550103403627872467041015625" lon="-6.05778045952320098876953125">
        <ele>1446.199951171875</ele>
        <time>2021-08-18T08:54:56.000Z</time>
      </trkpt>
      <trkpt lat="43.0755078233778476715087890625" lon="-6.05778473429381847381591796875">
        <ele>1446</ele>
        <time>2021-08-18T08:54:57.000Z</time>
      </trkpt>
      <trkpt lat="43.07552349753677845001220703125" lon="-6.05779361911118030548095703125">
        <ele>1445.5999755859375</ele>
        <time>2021-08-18T08:54:59.000Z</time>
      </trkpt>
      <trkpt lat="43.07552718557417392730712890625" lon="-6.0577947087585926055908203125">
        <ele>1445.5999755859375</ele>
        <time>2021-08-18T08:55:00.000Z</time>
      </trkpt>
      <trkpt lat="43.07556205429136753082275390625" lon="-6.0578302480280399322509765625">
        <ele>1444.4000244140625</ele>
        <time>2021-08-18T08:55:07.000Z</time>
      </trkpt>
      <trkpt lat="43.07557378895580768585205078125" lon="-6.0578362829983234405517578125">
        <ele>1444.199951171875</ele>
        <time>2021-08-18T08:55:09.000Z</time>
      </trkpt>
      <trkpt lat="43.07558787055313587188720703125" lon="-6.0578453354537487030029296875">
        <ele>1444</ele>
        <time>2021-08-18T08:55:11.000Z</time>
      </trkpt>
      <trkpt lat="43.07560094632208347320556640625" lon="-6.0578537173569202423095703125">
        <ele>1443.5999755859375</ele>
        <time>2021-08-18T08:55:13.000Z</time>
      </trkpt>
      <trkpt lat="43.07561737485229969024658203125" lon="-6.057857573032379150390625">
        <ele>1443.4000244140625</ele>
        <time>2021-08-18T08:55:15.000Z</time>
      </trkpt>
      <trkpt lat="43.07568811811506748199462890625" lon="-6.0578902624547481536865234375">
        <ele>1442.199951171875</ele>
        <time>2021-08-18T08:55:23.000Z</time>
      </trkpt>
      <trkpt lat="43.0756955780088901519775390625" lon="-6.05789252556860446929931640625">
        <ele>1442</ele>
        <time>2021-08-18T08:55:24.000Z</time>
      </trkpt>
      <trkpt lat="43.07572633959352970123291015625" lon="-6.0579023323953151702880859375">
        <ele>1441.199951171875</ele>
        <time>2021-08-18T08:55:28.000Z</time>
      </trkpt>
      <trkpt lat="43.07578249834477901458740234375" lon="-6.05791993439197540283203125">
        <ele>1440.4000244140625</ele>
        <time>2021-08-18T08:55:36.000Z</time>
      </trkpt>
      <trkpt lat="43.0757897906005382537841796875" lon="-6.05791834183037281036376953125">
        <ele>1440.199951171875</ele>
        <time>2021-08-18T08:55:37.000Z</time>
      </trkpt>
      <trkpt lat="43.07579725049436092376708984375" lon="-6.05791616253554821014404296875">
        <ele>1440.199951171875</ele>
        <time>2021-08-18T08:55:38.000Z</time>
      </trkpt>
      <trkpt lat="43.07583731599152088165283203125" lon="-6.05791549198329448699951171875">
        <ele>1439</ele>
        <time>2021-08-18T08:55:43.000Z</time>
      </trkpt>
      <trkpt lat="43.07586371898651123046875" lon="-6.05792169459164142608642578125">
        <ele>1438.5999755859375</ele>
        <time>2021-08-18T08:55:46.000Z</time>
      </trkpt>
      <trkpt lat="43.07589800097048282623291015625" lon="-6.0579160787165164947509765625">
        <ele>1438.199951171875</ele>
        <time>2021-08-18T08:55:50.000Z</time>
      </trkpt>
      <trkpt lat="43.0759118311107158660888671875" lon="-6.05791968293488025665283203125">
        <ele>1438</ele>
        <time>2021-08-18T08:55:52.000Z</time>
      </trkpt>
      <trkpt lat="43.07594527490437030792236328125" lon="-6.05792504735291004180908203125">
        <ele>1437</ele>
        <time>2021-08-18T08:55:57.000Z</time>
      </trkpt>
      <trkpt lat="43.07602440007030963897705078125" lon="-6.05792521499097347259521484375">
        <ele>1436</ele>
        <time>2021-08-18T08:56:06.000Z</time>
      </trkpt>
      <trkpt lat="43.07606463320553302764892578125" lon="-6.05790384113788604736328125">
        <ele>1436</ele>
        <time>2021-08-18T08:56:18.000Z</time>
      </trkpt>
      <trkpt lat="43.07606211863458156585693359375" lon="-6.05790090747177600860595703125">
        <ele>1436</ele>
        <time>2021-08-18T08:56:19.000Z</time>
      </trkpt>
      <trkpt lat="43.0760596878826618194580078125" lon="-6.05788431130349636077880859375">
        <ele>1435.199951171875</ele>
        <time>2021-08-18T08:56:22.000Z</time>
      </trkpt>
      <trkpt lat="43.0760546587407588958740234375" lon="-6.0578781925141811370849609375">
        <ele>1434.800048828125</ele>
        <time>2021-08-18T08:56:24.000Z</time>
      </trkpt>
      <trkpt lat="43.07605725713074207305908203125" lon="-6.05787039734423160552978515625">
        <ele>1436</ele>
        <time>2021-08-18T08:56:30.000Z</time>
      </trkpt>
      <trkpt lat="43.07605641894042491912841796875" lon="-6.0578775219619274139404296875">
        <ele>1436</ele>
        <time>2021-08-18T08:56:35.000Z</time>
      </trkpt>
      <trkpt lat="43.0760620348155498504638671875" lon="-6.057880036532878875732421875">
        <ele>1436</ele>
        <time>2021-08-18T08:56:37.000Z</time>
      </trkpt>
      <trkpt lat="43.07608701288700103759765625" lon="-6.057902164757251739501953125">
        <ele>1435</ele>
        <time>2021-08-18T08:56:47.000Z</time>
      </trkpt>
      <trkpt lat="43.07610712945461273193359375" lon="-6.0579093731939792633056640625">
        <ele>1434.4000244140625</ele>
        <time>2021-08-18T08:56:51.000Z</time>
      </trkpt>
      <trkpt lat="43.07613202370703220367431640625" lon="-6.057912893593311309814453125">
        <ele>1433.800048828125</ele>
        <time>2021-08-18T08:56:54.000Z</time>
      </trkpt>
      <trkpt lat="43.07620142586529254913330078125" lon="-6.05792001821100711822509765625">
        <ele>1432.5999755859375</ele>
        <time>2021-08-18T08:57:02.000Z</time>
      </trkpt>
      <trkpt lat="43.0762427486479282379150390625" lon="-6.05792756192386150360107421875">
        <ele>1431.800048828125</ele>
        <time>2021-08-18T08:57:06.000Z</time>
      </trkpt>
      <trkpt lat="43.07624953798949718475341796875" lon="-6.05793443508446216583251953125">
        <ele>1431.5999755859375</ele>
        <time>2021-08-18T08:57:07.000Z</time>
      </trkpt>
      <trkpt lat="43.07625691406428813934326171875" lon="-6.0579415597021579742431640625">
        <ele>1431.4000244140625</ele>
        <time>2021-08-18T08:57:08.000Z</time>
      </trkpt>
      <trkpt lat="43.07626881636679172515869140625" lon="-6.05795036070048809051513671875">
        <ele>1431</ele>
        <time>2021-08-18T08:57:10.000Z</time>
      </trkpt>
      <trkpt lat="43.0762782879173755645751953125" lon="-6.0579486005008220672607421875">
        <ele>1430.800048828125</ele>
        <time>2021-08-18T08:57:12.000Z</time>
      </trkpt>
      <trkpt lat="43.07628390379250049591064453125" lon="-6.05794943869113922119140625">
        <ele>1430.5999755859375</ele>
        <time>2021-08-18T08:57:13.000Z</time>
      </trkpt>
      <trkpt lat="43.076306618750095367431640625" lon="-6.05795606039464473724365234375">
        <ele>1430</ele>
        <time>2021-08-18T08:57:16.000Z</time>
      </trkpt>
      <trkpt lat="43.0763383023440837860107421875" lon="-6.05795773677527904510498046875">
        <ele>1429.4000244140625</ele>
        <time>2021-08-18T08:57:20.000Z</time>
      </trkpt>
      <trkpt lat="43.07637878693640232086181640625" lon="-6.0580112971365451812744140625">
        <ele>1428.4000244140625</ele>
        <time>2021-08-18T08:57:29.000Z</time>
      </trkpt>
      <trkpt lat="43.07642840780317783355712890625" lon="-6.05802931822836399078369140625">
        <ele>1427.800048828125</ele>
        <time>2021-08-18T08:57:34.000Z</time>
      </trkpt>
      <trkpt lat="43.0764445848762989044189453125" lon="-6.05803753249347209930419921875">
        <ele>1427.4000244140625</ele>
        <time>2021-08-18T08:57:37.000Z</time>
      </trkpt>
      <trkpt lat="43.076450116932392120361328125" lon="-6.0580391250550746917724609375">
        <ele>1427.199951171875</ele>
        <time>2021-08-18T08:57:38.000Z</time>
      </trkpt>
      <trkpt lat="43.07645891793072223663330078125" lon="-6.05803803540766239166259765625">
        <ele>1426.800048828125</ele>
        <time>2021-08-18T08:57:40.000Z</time>
      </trkpt>
      <trkpt lat="43.0764824710786342620849609375" lon="-6.05804557912051677703857421875">
        <ele>1426.199951171875</ele>
        <time>2021-08-18T08:57:46.000Z</time>
      </trkpt>
      <trkpt lat="43.07649093680083751678466796875" lon="-6.05804926715791225433349609375">
        <ele>1426</ele>
        <time>2021-08-18T08:57:48.000Z</time>
      </trkpt>
      <trkpt lat="43.0764953792095184326171875" lon="-6.0580518655478954315185546875">
        <ele>1426</ele>
        <time>2021-08-18T08:57:49.000Z</time>
      </trkpt>
      <trkpt lat="43.07652647607028484344482421875" lon="-6.05805932544171810150146484375">
        <ele>1425</ele>
        <time>2021-08-18T08:57:54.000Z</time>
      </trkpt>
      <trkpt lat="43.07660459540784358978271484375" lon="-6.0580810345709323883056640625">
        <ele>1423.800048828125</ele>
        <time>2021-08-18T08:58:01.000Z</time>
      </trkpt>
      <trkpt lat="43.0766293220221996307373046875" lon="-6.0580796934664249420166015625">
        <ele>1423.199951171875</ele>
        <time>2021-08-18T08:58:05.000Z</time>
      </trkpt>
      <trkpt lat="43.0766434036195278167724609375" lon="-6.0580941103398799896240234375">
        <ele>1423.199951171875</ele>
        <time>2021-08-18T08:58:07.000Z</time>
      </trkpt>
      <trkpt lat="43.07665538974106311798095703125" lon="-6.05811716057360172271728515625">
        <ele>1422.800048828125</ele>
        <time>2021-08-18T08:58:10.000Z</time>
      </trkpt>
      <trkpt lat="43.076666034758090972900390625" lon="-6.05817767791450023651123046875">
        <ele>1421.5999755859375</ele>
        <time>2021-08-18T08:58:16.000Z</time>
      </trkpt>
      <trkpt lat="43.0766749195754528045654296875" lon="-6.0581903345882892608642578125">
        <ele>1421.5999755859375</ele>
        <time>2021-08-18T08:58:17.000Z</time>
      </trkpt>
      <trkpt lat="43.07673300616443157196044921875" lon="-6.05824825353920459747314453125">
        <ele>1420.4000244140625</ele>
        <time>2021-08-18T08:58:24.000Z</time>
      </trkpt>
      <trkpt lat="43.07677022181451320648193359375" lon="-6.058304496109485626220703125">
        <ele>1420</ele>
        <time>2021-08-18T08:58:28.000Z</time>
      </trkpt>
      <trkpt lat="43.0767882429063320159912109375" lon="-6.0583398677408695220947265625">
        <ele>1420</ele>
        <time>2021-08-18T08:58:31.000Z</time>
      </trkpt>
      <trkpt lat="43.07683157734572887420654296875" lon="-6.05839175172150135040283203125">
        <ele>1419.5999755859375</ele>
        <time>2021-08-18T08:58:37.000Z</time>
      </trkpt>
      <trkpt lat="43.07685538195073604583740234375" lon="-6.05841924436390399932861328125">
        <ele>1419.4000244140625</ele>
        <time>2021-08-18T08:58:40.000Z</time>
      </trkpt>
      <trkpt lat="43.07690617628395557403564453125" lon="-6.0584887303411960601806640625">
        <ele>1420.5999755859375</ele>
        <time>2021-08-18T08:58:48.000Z</time>
      </trkpt>
      <trkpt lat="43.07693861424922943115234375" lon="-6.05853550136089324951171875">
        <ele>1421.800048828125</ele>
        <time>2021-08-18T08:58:53.000Z</time>
      </trkpt>
      <trkpt lat="43.0769709683954715728759765625" lon="-6.0585504211485385894775390625">
        <ele>1422.4000244140625</ele>
        <time>2021-08-18T08:58:57.000Z</time>
      </trkpt>
      <trkpt lat="43.07698379270732402801513671875" lon="-6.0585551150143146514892578125">
        <ele>1422.5999755859375</ele>
        <time>2021-08-18T08:58:59.000Z</time>
      </trkpt>
      <trkpt lat="43.07699938304722309112548828125" lon="-6.05856366455554962158203125">
        <ele>1422.800048828125</ele>
        <time>2021-08-18T08:59:01.000Z</time>
      </trkpt>
      <trkpt lat="43.07700742967426776885986328125" lon="-6.05856844224035739898681640625">
        <ele>1423</ele>
        <time>2021-08-18T08:59:02.000Z</time>
      </trkpt>
      <trkpt lat="43.07701195590198040008544921875" lon="-6.05857581831514835357666015625">
        <ele>1423.199951171875</ele>
        <time>2021-08-18T08:59:03.000Z</time>
      </trkpt>
      <trkpt lat="43.0770195834338665008544921875" lon="-6.0585846193134784698486328125">
        <ele>1423.4000244140625</ele>
        <time>2021-08-18T08:59:04.000Z</time>
      </trkpt>
      <trkpt lat="43.077025115489959716796875" lon="-6.05859543196856975555419921875">
        <ele>1423.5999755859375</ele>
        <time>2021-08-18T08:59:05.000Z</time>
      </trkpt>
      <trkpt lat="43.0770299769937992095947265625" lon="-6.05860046111047267913818359375">
        <ele>1423.5999755859375</ele>
        <time>2021-08-18T08:59:06.000Z</time>
      </trkpt>
      <trkpt lat="43.07703517377376556396484375" lon="-6.05860599316656589508056640625">
        <ele>1423.800048828125</ele>
        <time>2021-08-18T08:59:07.000Z</time>
      </trkpt>
      <trkpt lat="43.077041544020175933837890625" lon="-6.05861068703234195709228515625">
        <ele>1424</ele>
        <time>2021-08-18T08:59:08.000Z</time>
      </trkpt>
      <trkpt lat="43.0770571343600749969482421875" lon="-6.0586214996874332427978515625">
        <ele>1424.4000244140625</ele>
        <time>2021-08-18T08:59:11.000Z</time>
      </trkpt>
      <trkpt lat="43.07706191204488277435302734375" lon="-6.05862476862967014312744140625">
        <ele>1424.4000244140625</ele>
        <time>2021-08-18T08:59:12.000Z</time>
      </trkpt>
      <trkpt lat="43.07706593535840511322021484375" lon="-6.058629043400287628173828125">
        <ele>1424.5999755859375</ele>
        <time>2021-08-18T08:59:14.000Z</time>
      </trkpt>
      <trkpt lat="43.0770774185657501220703125" lon="-6.0586379282176494598388671875">
        <ele>1425</ele>
        <time>2021-08-18T08:59:17.000Z</time>
      </trkpt>
      <trkpt lat="43.07709493674337863922119140625" lon="-6.05864538811147212982177734375">
        <ele>1426.199951171875</ele>
        <time>2021-08-18T08:59:21.000Z</time>
      </trkpt>
      <trkpt lat="43.07709963060915470123291015625" lon="-6.05864454992115497589111328125">
        <ele>1426.4000244140625</ele>
        <time>2021-08-18T08:59:22.000Z</time>
      </trkpt>
      <trkpt lat="43.07711488567292690277099609375" lon="-6.05865561403334140777587890625">
        <ele>1427.199951171875</ele>
        <time>2021-08-18T08:59:26.000Z</time>
      </trkpt>
      <trkpt lat="43.07728067971765995025634765625" lon="-6.05874027125537395477294921875">
        <ele>1429.199951171875</ele>
        <time>2021-08-18T08:59:51.000Z</time>
      </trkpt>
      <trkpt lat="43.07733063586056232452392578125" lon="-6.05872484855353832244873046875">
        <ele>1429.199951171875</ele>
        <time>2021-08-18T08:59:53.000Z</time>
      </trkpt>
      <trkpt lat="43.07734631001949310302734375" lon="-6.0587137006223201751708984375">
        <ele>1429</ele>
        <time>2021-08-18T08:59:54.000Z</time>
      </trkpt>
      <trkpt lat="43.07741764001548290252685546875" lon="-6.05871177278459072113037109375">
        <ele>1428</ele>
        <time>2021-08-18T09:00:06.000Z</time>
      </trkpt>
      <trkpt lat="43.07741747237741947174072265625" lon="-6.0587023012340068817138671875">
        <ele>1428</ele>
        <time>2021-08-18T09:00:14.000Z</time>
      </trkpt>
      <trkpt lat="43.0774162150919437408447265625" lon="-6.0586962662637233734130859375">
        <ele>1428.199951171875</ele>
        <time>2021-08-18T09:00:17.000Z</time>
      </trkpt>
      <trkpt lat="43.077411688864231109619140625" lon="-6.0586949251592159271240234375">
        <ele>1428.199951171875</ele>
        <time>2021-08-18T09:00:21.000Z</time>
      </trkpt>
      <trkpt lat="43.0774068273603916168212890625" lon="-6.05869132094085216522216796875">
        <ele>1428.199951171875</ele>
        <time>2021-08-18T09:00:23.000Z</time>
      </trkpt>
      <trkpt lat="43.07739936746656894683837890625" lon="-6.0586982779204845428466796875">
        <ele>1428.199951171875</ele>
        <time>2021-08-18T09:00:29.000Z</time>
      </trkpt>
      <trkpt lat="43.077400624752044677734375" lon="-6.058697439730167388916015625">
        <ele>1428.199951171875</ele>
        <time>2021-08-18T09:00:30.000Z</time>
      </trkpt>
      <trkpt lat="43.07740758173167705535888671875" lon="-6.0586959309875965118408203125">
        <ele>1428.199951171875</ele>
        <time>2021-08-18T09:00:31.000Z</time>
      </trkpt>
      <trkpt lat="43.0774219147861003875732421875" lon="-6.05869098566472530364990234375">
        <ele>1428</ele>
        <time>2021-08-18T09:00:33.000Z</time>
      </trkpt>
      <trkpt lat="43.0774306319653987884521484375" lon="-6.05868964456021785736083984375">
        <ele>1428</ele>
        <time>2021-08-18T09:00:34.000Z</time>
      </trkpt>
      <trkpt lat="43.07746835052967071533203125" lon="-6.05870448052883148193359375">
        <ele>1428</ele>
        <time>2021-08-18T09:00:38.000Z</time>
      </trkpt>
      <trkpt lat="43.077506907284259796142578125" lon="-6.05870892293751239776611328125">
        <ele>1427.4000244140625</ele>
        <time>2021-08-18T09:00:42.000Z</time>
      </trkpt>
      <trkpt lat="43.07754370383918285369873046875" lon="-6.05870020575821399688720703125">
        <ele>1427.199951171875</ele>
        <time>2021-08-18T09:00:45.000Z</time>
      </trkpt>
      <trkpt lat="43.077614195644855499267578125" lon="-6.05869165621697902679443359375">
        <ele>1427.5999755859375</ele>
        <time>2021-08-18T09:00:53.000Z</time>
      </trkpt>
      <trkpt lat="43.07762836106121540069580078125" lon="-6.05868578888475894927978515625">
        <ele>1427.800048828125</ele>
        <time>2021-08-18T09:00:55.000Z</time>
      </trkpt>
      <trkpt lat="43.07762618176639080047607421875" lon="-6.0586877167224884033203125">
        <ele>1427.800048828125</ele>
        <time>2021-08-18T09:00:56.000Z</time>
      </trkpt>
      <trkpt lat="43.07762928307056427001953125" lon="-6.058690734207630157470703125">
        <ele>1428</ele>
        <time>2021-08-18T09:00:57.000Z</time>
      </trkpt>
      <trkpt lat="43.077662475407123565673828125" lon="-6.05870255269110202789306640625">
        <ele>1429</ele>
        <time>2021-08-18T09:01:03.000Z</time>
      </trkpt>
      <trkpt lat="43.07768720202147960662841796875" lon="-6.0587140358984470367431640625">
        <ele>1429.199951171875</ele>
        <time>2021-08-18T09:01:06.000Z</time>
      </trkpt>
      <trkpt lat="43.07770304381847381591796875" lon="-6.05872065760195255279541015625">
        <ele>1429</ele>
        <time>2021-08-18T09:01:08.000Z</time>
      </trkpt>
      <trkpt lat="43.07778074406087398529052734375" lon="-6.05873205699026584625244140625">
        <ele>1428.4000244140625</ele>
        <time>2021-08-18T09:01:17.000Z</time>
      </trkpt>
      <trkpt lat="43.07780119590461254119873046875" lon="-6.0587346553802490234375">
        <ele>1428.4000244140625</ele>
        <time>2021-08-18T09:01:20.000Z</time>
      </trkpt>
      <trkpt lat="43.07781997136771678924560546875" lon="-6.058724261820316314697265625">
        <ele>1427.5999755859375</ele>
        <time>2021-08-18T09:01:24.000Z</time>
      </trkpt>
      <trkpt lat="43.077829442918300628662109375" lon="-6.05872727930545806884765625">
        <ele>1427.199951171875</ele>
        <time>2021-08-18T09:01:26.000Z</time>
      </trkpt>
      <trkpt lat="43.07786774821579456329345703125" lon="-6.0587143711745738983154296875">
        <ele>1426.4000244140625</ele>
        <time>2021-08-18T09:01:33.000Z</time>
      </trkpt>
      <trkpt lat="43.07788367383182048797607421875" lon="-6.058696769177913665771484375">
        <ele>1426</ele>
        <time>2021-08-18T09:01:35.000Z</time>
      </trkpt>
      <trkpt lat="43.07791896164417266845703125" lon="-6.05865008197724819183349609375">
        <ele>1425.199951171875</ele>
        <time>2021-08-18T09:01:43.000Z</time>
      </trkpt>
      <trkpt lat="43.07793078012764453887939453125" lon="-6.05863767676055431365966796875">
        <ele>1425</ele>
        <time>2021-08-18T09:01:45.000Z</time>
      </trkpt>
      <trkpt lat="43.07795391418039798736572265625" lon="-6.0585705377161502838134765625">
        <ele>1424</ele>
        <time>2021-08-18T09:01:54.000Z</time>
      </trkpt>
      <trkpt lat="43.0779593624174594879150390625" lon="-6.058566682040691375732421875">
        <ele>1423.800048828125</ele>
        <time>2021-08-18T09:01:55.000Z</time>
      </trkpt>
      <trkpt lat="43.0780049599707126617431640625" lon="-6.05853273533284664154052734375">
        <ele>1423</ele>
        <time>2021-08-18T09:02:02.000Z</time>
      </trkpt>
      <trkpt lat="43.07802348397672176361083984375" lon="-6.05853617191314697265625">
        <ele>1423</ele>
        <time>2021-08-18T09:02:04.000Z</time>
      </trkpt>
      <trkpt lat="43.078033626079559326171875" lon="-6.05853960849344730377197265625">
        <ele>1422.800048828125</ele>
        <time>2021-08-18T09:02:05.000Z</time>
      </trkpt>
      <trkpt lat="43.07805684395134449005126953125" lon="-6.05854212306439876556396484375">
        <ele>1422.5999755859375</ele>
        <time>2021-08-18T09:02:08.000Z</time>
      </trkpt>
      <trkpt lat="43.07807679288089275360107421875" lon="-6.05854966677725315093994140625">
        <ele>1422.4000244140625</ele>
        <time>2021-08-18T09:02:10.000Z</time>
      </trkpt>
      <trkpt lat="43.0781340412795543670654296875" lon="-6.0585524328052997589111328125">
        <ele>1422.199951171875</ele>
        <time>2021-08-18T09:02:16.000Z</time>
      </trkpt>
      <trkpt lat="43.07815968990325927734375" lon="-6.05855016969144344329833984375">
        <ele>1422</ele>
        <time>2021-08-18T09:02:19.000Z</time>
      </trkpt>
      <trkpt lat="43.07818139903247356414794921875" lon="-6.05854681693017482757568359375">
        <ele>1421.800048828125</ele>
        <time>2021-08-18T09:02:22.000Z</time>
      </trkpt>
      <trkpt lat="43.07819212786853313446044921875" lon="-6.0585294663906097412109375">
        <ele>1421.800048828125</ele>
        <time>2021-08-18T09:02:25.000Z</time>
      </trkpt>
      <trkpt lat="43.0782034434378147125244140625" lon="-6.05852317996323108673095703125">
        <ele>1421.800048828125</ele>
        <time>2021-08-18T09:02:28.000Z</time>
      </trkpt>
      <trkpt lat="43.07824828661978244781494140625" lon="-6.05850792489945888519287109375">
        <ele>1420.5999755859375</ele>
        <time>2021-08-18T09:02:36.000Z</time>
      </trkpt>
      <trkpt lat="43.0782577581703662872314453125" lon="-6.05849300511181354522705078125">
        <ele>1419.800048828125</ele>
        <time>2021-08-18T09:02:40.000Z</time>
      </trkpt>
      <trkpt lat="43.07826454751193523406982421875" lon="-6.05849300511181354522705078125">
        <ele>1419.5999755859375</ele>
        <time>2021-08-18T09:02:41.000Z</time>
      </trkpt>
      <trkpt lat="43.07829556055366992950439453125" lon="-6.058493591845035552978515625">
        <ele>1419</ele>
        <time>2021-08-18T09:02:45.000Z</time>
      </trkpt>
      <trkpt lat="43.07830561883747577667236328125" lon="-6.05848613195121288299560546875">
        <ele>1418.5999755859375</ele>
        <time>2021-08-18T09:02:47.000Z</time>
      </trkpt>
      <trkpt lat="43.07832489721477031707763671875" lon="-6.05848914943635463714599609375">
        <ele>1418</ele>
        <time>2021-08-18T09:02:50.000Z</time>
      </trkpt>
      <trkpt lat="43.0783506296575069427490234375" lon="-6.05847355909645557403564453125">
        <ele>1417.4000244140625</ele>
        <time>2021-08-18T09:02:53.000Z</time>
      </trkpt>
      <trkpt lat="43.0783908627927303314208984375" lon="-6.05846350081264972686767578125">
        <ele>1416.800048828125</ele>
        <time>2021-08-18T09:02:59.000Z</time>
      </trkpt>
      <trkpt lat="43.07842782698571681976318359375" lon="-6.05844439007341861724853515625">
        <ele>1416.4000244140625</ele>
        <time>2021-08-18T09:03:04.000Z</time>
      </trkpt>
      <trkpt lat="43.0784528888761997222900390625" lon="-6.05843625962734222412109375">
        <ele>1415.800048828125</ele>
        <time>2021-08-18T09:03:07.000Z</time>
      </trkpt>
      <trkpt lat="43.07846018113195896148681640625" lon="-6.05842611752450466156005859375">
        <ele>1415.800048828125</ele>
        <time>2021-08-18T09:03:09.000Z</time>
      </trkpt>
      <trkpt lat="43.078469149768352508544921875" lon="-6.05841480195522308349609375">
        <ele>1415.4000244140625</ele>
        <time>2021-08-18T09:03:11.000Z</time>
      </trkpt>
      <trkpt lat="43.0784703232347965240478515625" lon="-6.0584092698991298675537109375">
        <ele>1415.199951171875</ele>
        <time>2021-08-18T09:03:12.000Z</time>
      </trkpt>
      <trkpt lat="43.0785149149596691131591796875" lon="-6.058388315141201019287109375">
        <ele>1414.199951171875</ele>
        <time>2021-08-18T09:03:20.000Z</time>
      </trkpt>
      <trkpt lat="43.07851977646350860595703125" lon="-6.0583861358463764190673828125">
        <ele>1414</ele>
        <time>2021-08-18T09:03:21.000Z</time>
      </trkpt>
      <trkpt lat="43.07853461243212223052978515625" lon="-6.05837683193385601043701171875">
        <ele>1413</ele>
        <time>2021-08-18T09:03:25.000Z</time>
      </trkpt>
      <trkpt lat="43.07856713421642780303955078125" lon="-6.05837783776223659515380859375">
        <ele>1412</ele>
        <time>2021-08-18T09:03:31.000Z</time>
      </trkpt>
      <trkpt lat="43.07857166044414043426513671875" lon="-6.05838068760931491851806640625">
        <ele>1411.800048828125</ele>
        <time>2021-08-18T09:03:32.000Z</time>
      </trkpt>
      <trkpt lat="43.0786009132862091064453125" lon="-6.058386303484439849853515625">
        <ele>1411.199951171875</ele>
        <time>2021-08-18T09:03:38.000Z</time>
      </trkpt>
      <trkpt lat="43.07861524634063243865966796875" lon="-6.05839275754988193511962890625">
        <ele>1410.800048828125</ele>
        <time>2021-08-18T09:03:40.000Z</time>
      </trkpt>
      <trkpt lat="43.07864047586917877197265625" lon="-6.05840851552784442901611328125">
        <ele>1410.800048828125</ele>
        <time>2021-08-18T09:03:43.000Z</time>
      </trkpt>
      <trkpt lat="43.0786587484180927276611328125" lon="-6.05841773562133312225341796875">
        <ele>1410.5999755859375</ele>
        <time>2021-08-18T09:03:46.000Z</time>
      </trkpt>
      <trkpt lat="43.07867928408086299896240234375" lon="-6.05841807089745998382568359375">
        <ele>1410.4000244140625</ele>
        <time>2021-08-18T09:03:48.000Z</time>
      </trkpt>
      <trkpt lat="43.07870828546583652496337890625" lon="-6.0584248602390289306640625">
        <ele>1410</ele>
        <time>2021-08-18T09:03:52.000Z</time>
      </trkpt>
      <trkpt lat="43.0787130631506443023681640625" lon="-6.0584280453622341156005859375">
        <ele>1409.800048828125</ele>
        <time>2021-08-18T09:03:53.000Z</time>
      </trkpt>
      <trkpt lat="43.078756816685199737548828125" lon="-6.05843751691281795501708984375">
        <ele>1408.800048828125</ele>
        <time>2021-08-18T09:04:00.000Z</time>
      </trkpt>
      <trkpt lat="43.0787636898458003997802734375" lon="-6.058435924351215362548828125">
        <ele>1408.800048828125</ele>
        <time>2021-08-18T09:04:01.000Z</time>
      </trkpt>
      <trkpt lat="43.078768216073513031005859375" lon="-6.0584354214370250701904296875">
        <ele>1408.5999755859375</ele>
        <time>2021-08-18T09:04:02.000Z</time>
      </trkpt>
      <trkpt lat="43.0787727423012256622314453125" lon="-6.0584327392280101776123046875">
        <ele>1408.4000244140625</ele>
        <time>2021-08-18T09:04:03.000Z</time>
      </trkpt>
      <trkpt lat="43.0788074433803558349609375" lon="-6.0584340803325176239013671875">
        <ele>1407.5999755859375</ele>
        <time>2021-08-18T09:04:08.000Z</time>
      </trkpt>
      <trkpt lat="43.07883619330823421478271484375" lon="-6.0584075935184955596923828125">
        <ele>1406.5999755859375</ele>
        <time>2021-08-18T09:04:12.000Z</time>
      </trkpt>
      <trkpt lat="43.07884692214429378509521484375" lon="-6.0584065876901149749755859375">
        <ele>1406.5999755859375</ele>
        <time>2021-08-18T09:04:13.000Z</time>
      </trkpt>
      <trkpt lat="43.07886335067451000213623046875" lon="-6.05840650387108325958251953125">
        <ele>1406.4000244140625</ele>
        <time>2021-08-18T09:04:15.000Z</time>
      </trkpt>
      <trkpt lat="43.0789266340434551239013671875" lon="-6.0584139637649059295654296875">
        <ele>1406</ele>
        <time>2021-08-18T09:04:24.000Z</time>
      </trkpt>
      <trkpt lat="43.078953959047794342041015625" lon="-6.0584052465856075286865234375">
        <ele>1405.4000244140625</ele>
        <time>2021-08-18T09:04:28.000Z</time>
      </trkpt>
      <trkpt lat="43.078990168869495391845703125" lon="-6.0584163106977939605712890625">
        <ele>1404.199951171875</ele>
        <time>2021-08-18T09:04:35.000Z</time>
      </trkpt>
      <trkpt lat="43.07900684885680675506591796875" lon="-6.0584302246570587158203125">
        <ele>1404</ele>
        <time>2021-08-18T09:04:39.000Z</time>
      </trkpt>
      <trkpt lat="43.07903467677533626556396484375" lon="-6.05843894183635711669921875">
        <ele>1403.4000244140625</ele>
        <time>2021-08-18T09:04:43.000Z</time>
      </trkpt>
      <trkpt lat="43.079039789736270904541015625" lon="-6.05844019912183284759521484375">
        <ele>1403.199951171875</ele>
        <time>2021-08-18T09:04:44.000Z</time>
      </trkpt>
      <trkpt lat="43.07905848138034343719482421875" lon="-6.05844288133084774017333984375">
        <ele>1402.4000244140625</ele>
        <time>2021-08-18T09:04:49.000Z</time>
      </trkpt>
      <trkpt lat="43.07906937785446643829345703125" lon="-6.05844371952116489410400390625">
        <ele>1402.199951171875</ele>
        <time>2021-08-18T09:04:51.000Z</time>
      </trkpt>
      <trkpt lat="43.0790724791586399078369140625" lon="-6.05844506062567234039306640625">
        <ele>1402.199951171875</ele>
        <time>2021-08-18T09:04:52.000Z</time>
      </trkpt>
      <trkpt lat="43.0790701322257518768310546875" lon="-6.05839870870113372802734375">
        <ele>1401.199951171875</ele>
        <time>2021-08-18T09:05:00.000Z</time>
      </trkpt>
      <trkpt lat="43.07906837202608585357666015625" lon="-6.05839711613953113555908203125">
        <ele>1401</ele>
        <time>2021-08-18T09:05:01.000Z</time>
      </trkpt>
      <trkpt lat="43.0790550448000431060791015625" lon="-6.058364845812320709228515625">
        <ele>1399.800048828125</ele>
        <time>2021-08-18T09:05:06.000Z</time>
      </trkpt>
      <trkpt lat="43.0790386162698268890380859375" lon="-6.05834464542567729949951171875">
        <ele>1399.199951171875</ele>
        <time>2021-08-18T09:05:10.000Z</time>
      </trkpt>
      <trkpt lat="43.0790340900421142578125" lon="-6.0583309829235076904296875">
        <ele>1398.800048828125</ele>
        <time>2021-08-18T09:05:12.000Z</time>
      </trkpt>
      <trkpt lat="43.0790496803820133209228515625" lon="-6.0583023168146610260009765625">
        <ele>1397.800048828125</ele>
        <time>2021-08-18T09:05:20.000Z</time>
      </trkpt>
      <trkpt lat="43.07905278168618679046630859375" lon="-6.0582996346056461334228515625">
        <ele>1397.5999755859375</ele>
        <time>2021-08-18T09:05:21.000Z</time>
      </trkpt>
      <trkpt lat="43.07906770147383213043212890625" lon="-6.05831690132617950439453125">
        <ele>1397</ele>
        <time>2021-08-18T09:05:25.000Z</time>
      </trkpt>
      <trkpt lat="43.0790842138230800628662109375" lon="-6.058318912982940673828125">
        <ele>1396.5999755859375</ele>
        <time>2021-08-18T09:05:28.000Z</time>
      </trkpt>
      <trkpt lat="43.0790998041629791259765625" lon="-6.05832201428711414337158203125">
        <ele>1396.199951171875</ele>
        <time>2021-08-18T09:05:31.000Z</time>
      </trkpt>
      <trkpt lat="43.07911983691155910491943359375" lon="-6.058325283229351043701171875">
        <ele>1395.5999755859375</ele>
        <time>2021-08-18T09:05:36.000Z</time>
      </trkpt>
      <trkpt lat="43.07914431206881999969482421875" lon="-6.05832167901098728179931640625">
        <ele>1394.5999755859375</ele>
        <time>2021-08-18T09:05:43.000Z</time>
      </trkpt>
      <trkpt lat="43.079151101410388946533203125" lon="-6.0583229362964630126953125">
        <ele>1394.199951171875</ele>
        <time>2021-08-18T09:05:45.000Z</time>
      </trkpt>
      <trkpt lat="43.079164512455463409423828125" lon="-6.0583143867552280426025390625">
        <ele>1394</ele>
        <time>2021-08-18T09:05:49.000Z</time>
      </trkpt>
      <trkpt lat="43.07916878722608089447021484375" lon="-6.05830776505172252655029296875">
        <ele>1393.800048828125</ele>
        <time>2021-08-18T09:05:51.000Z</time>
      </trkpt>
      <trkpt lat="43.07918228209018707275390625" lon="-6.05832335539162158966064453125">
        <ele>1393.4000244140625</ele>
        <time>2021-08-18T09:05:55.000Z</time>
      </trkpt>
      <trkpt lat="43.07918655686080455780029296875" lon="-6.0583288036286830902099609375">
        <ele>1393.199951171875</ele>
        <time>2021-08-18T09:05:56.000Z</time>
      </trkpt>
      <trkpt lat="43.07920214720070362091064453125" lon="-6.058316566050052642822265625">
        <ele>1392.4000244140625</ele>
        <time>2021-08-18T09:06:00.000Z</time>
      </trkpt>
      <trkpt lat="43.0792267061769962310791015625" lon="-6.05830038897693157196044921875">
        <ele>1391.5999755859375</ele>
        <time>2021-08-18T09:06:07.000Z</time>
      </trkpt>
      <trkpt lat="43.079238273203372955322265625" lon="-6.058301143348217010498046875">
        <ele>1391</ele>
        <time>2021-08-18T09:06:09.000Z</time>
      </trkpt>
      <trkpt lat="43.07925696484744548797607421875" lon="-6.0583049990236759185791015625">
        <ele>1390</ele>
        <time>2021-08-18T09:06:16.000Z</time>
      </trkpt>
      <trkpt lat="43.07926903478801250457763671875" lon="-6.0583073459565639495849609375">
        <ele>1389.199951171875</ele>
        <time>2021-08-18T09:06:20.000Z</time>
      </trkpt>
      <trkpt lat="43.079272806644439697265625" lon="-6.05830173008143901824951171875">
        <ele>1389</ele>
        <time>2021-08-18T09:06:21.000Z</time>
      </trkpt>
      <trkpt lat="43.07929032482206821441650390625" lon="-6.05827867984771728515625">
        <ele>1388</ele>
        <time>2021-08-18T09:06:26.000Z</time>
      </trkpt>
      <trkpt lat="43.07929820381104946136474609375" lon="-6.0582840442657470703125">
        <ele>1387.4000244140625</ele>
        <time>2021-08-18T09:06:29.000Z</time>
      </trkpt>
      <trkpt lat="43.07930289767682552337646484375" lon="-6.0582825355231761932373046875">
        <ele>1387.199951171875</ele>
        <time>2021-08-18T09:06:31.000Z</time>
      </trkpt>
      <trkpt lat="43.079312033951282501220703125" lon="-6.0582708008587360382080078125">
        <ele>1387</ele>
        <time>2021-08-18T09:06:34.000Z</time>
      </trkpt>
      <trkpt lat="43.07932016439735889434814453125" lon="-6.0582666099071502685546875">
        <ele>1386.800048828125</ele>
        <time>2021-08-18T09:06:35.000Z</time>
      </trkpt>
      <trkpt lat="43.07932368479669094085693359375" lon="-6.058262921869754791259765625">
        <ele>1386.5999755859375</ele>
        <time>2021-08-18T09:06:36.000Z</time>
      </trkpt>
      <trkpt lat="43.0793262831866741180419921875" lon="-6.058259904384613037109375">
        <ele>1386.4000244140625</ele>
        <time>2021-08-18T09:06:37.000Z</time>
      </trkpt>
      <trkpt lat="43.07934547774493694305419921875" lon="-6.05825428850948810577392578125">
        <ele>1385.800048828125</ele>
        <time>2021-08-18T09:06:41.000Z</time>
      </trkpt>
      <trkpt lat="43.07935570366680622100830078125" lon="-6.0582473315298557281494140625">
        <ele>1385.4000244140625</ele>
        <time>2021-08-18T09:06:44.000Z</time>
      </trkpt>
      <trkpt lat="43.0793722160160541534423828125" lon="-6.0582349263131618499755859375">
        <ele>1384.800048828125</ele>
        <time>2021-08-18T09:06:47.000Z</time>
      </trkpt>
      <trkpt lat="43.079401887953281402587890625" lon="-6.0582411289215087890625">
        <ele>1384.199951171875</ele>
        <time>2021-08-18T09:06:50.000Z</time>
      </trkpt>
      <trkpt lat="43.07941035367548465728759765625" lon="-6.0582456551492214202880859375">
        <ele>1384</ele>
        <time>2021-08-18T09:06:51.000Z</time>
      </trkpt>
      <trkpt lat="43.079419992864131927490234375" lon="-6.0582510195672512054443359375">
        <ele>1383.5999755859375</ele>
        <time>2021-08-18T09:06:52.000Z</time>
      </trkpt>
      <trkpt lat="43.0794431269168853759765625" lon="-6.058240793645381927490234375">
        <ele>1382.800048828125</ele>
        <time>2021-08-18T09:06:55.000Z</time>
      </trkpt>
      <trkpt lat="43.07945779524743556976318359375" lon="-6.05824892409145832061767578125">
        <ele>1382.5999755859375</ele>
        <time>2021-08-18T09:06:57.000Z</time>
      </trkpt>
      <trkpt lat="43.0794632434844970703125" lon="-6.0582510195672512054443359375">
        <ele>1382.5999755859375</ele>
        <time>2021-08-18T09:06:58.000Z</time>
      </trkpt>
      <trkpt lat="43.07950456626713275909423828125" lon="-6.058253534138202667236328125">
        <ele>1381.800048828125</ele>
        <time>2021-08-18T09:07:04.000Z</time>
      </trkpt>
      <trkpt lat="43.0795194022357463836669921875" lon="-6.05825127102434635162353515625">
        <ele>1381.4000244140625</ele>
        <time>2021-08-18T09:07:07.000Z</time>
      </trkpt>
      <trkpt lat="43.07953105308115482330322265625" lon="-6.05824691243469715118408203125">
        <ele>1381.199951171875</ele>
        <time>2021-08-18T09:07:09.000Z</time>
      </trkpt>
      <trkpt lat="43.07953574694693088531494140625" lon="-6.0582493431866168975830078125">
        <ele>1380.4000244140625</ele>
        <time>2021-08-18T09:07:12.000Z</time>
      </trkpt>
      <trkpt lat="43.079562149941921234130859375" lon="-6.05824850499629974365234375">
        <ele>1379.4000244140625</ele>
        <time>2021-08-18T09:07:18.000Z</time>
      </trkpt>
      <trkpt lat="43.07958805002272129058837890625" lon="-6.05825646780431270599365234375">
        <ele>1378.5999755859375</ele>
        <time>2021-08-18T09:07:25.000Z</time>
      </trkpt>
      <trkpt lat="43.079595677554607391357421875" lon="-6.0582493431866168975830078125">
        <ele>1378.4000244140625</ele>
        <time>2021-08-18T09:07:28.000Z</time>
      </trkpt>
      <trkpt lat="43.07960028760135173797607421875" lon="-6.05824976228177547454833984375">
        <ele>1378.4000244140625</ele>
        <time>2021-08-18T09:07:29.000Z</time>
      </trkpt>
      <trkpt lat="43.07962476275861263275146484375" lon="-6.058258228003978729248046875">
        <ele>1377.5999755859375</ele>
        <time>2021-08-18T09:07:33.000Z</time>
      </trkpt>
      <trkpt lat="43.079639934003353118896484375" lon="-6.05825512669980525970458984375">
        <ele>1377.199951171875</ele>
        <time>2021-08-18T09:07:36.000Z</time>
      </trkpt>
      <trkpt lat="43.0796461366117000579833984375" lon="-6.058252863585948944091796875">
        <ele>1376.800048828125</ele>
        <time>2021-08-18T09:07:38.000Z</time>
      </trkpt>
      <trkpt lat="43.0796699412167072296142578125" lon="-6.0582379437983036041259765625">
        <ele>1376</ele>
        <time>2021-08-18T09:07:43.000Z</time>
      </trkpt>
      <trkpt lat="43.07970740832388401031494140625" lon="-6.05821254663169384002685546875">
        <ele>1375</ele>
        <time>2021-08-18T09:07:50.000Z</time>
      </trkpt>
      <trkpt lat="43.07971092872321605682373046875" lon="-6.05819980613887310028076171875">
        <ele>1374.5999755859375</ele>
        <time>2021-08-18T09:07:52.000Z</time>
      </trkpt>
      <trkpt lat="43.0797175504267215728759765625" lon="-6.05818203650414943695068359375">
        <ele>1373.800048828125</ele>
        <time>2021-08-18T09:07:55.000Z</time>
      </trkpt>
      <trkpt lat="43.07973213493824005126953125" lon="-6.05818815529346466064453125">
        <ele>1373.5999755859375</ele>
        <time>2021-08-18T09:07:58.000Z</time>
      </trkpt>
      <trkpt lat="43.079752586781978607177734375" lon="-6.05819192714989185333251953125">
        <ele>1373.199951171875</ele>
        <time>2021-08-18T09:08:02.000Z</time>
      </trkpt>
      <trkpt lat="43.07976507581770420074462890625" lon="-6.05819075368344783782958984375">
        <ele>1372.800048828125</ele>
        <time>2021-08-18T09:08:05.000Z</time>
      </trkpt>
      <trkpt lat="43.0797918140888214111328125" lon="-6.0581876523792743682861328125">
        <ele>1371.5999755859375</ele>
        <time>2021-08-18T09:08:09.000Z</time>
      </trkpt>
      <trkpt lat="43.079836070537567138671875" lon="-6.05818924494087696075439453125">
        <ele>1370.5999755859375</ele>
        <time>2021-08-18T09:08:16.000Z</time>
      </trkpt>
      <trkpt lat="43.079872615635395050048828125" lon="-6.0581915080547332763671875">
        <ele>1369.5999755859375</ele>
        <time>2021-08-18T09:08:22.000Z</time>
      </trkpt>
      <trkpt lat="43.0799123458564281463623046875" lon="-6.05818287469446659088134765625">
        <ele>1368.4000244140625</ele>
        <time>2021-08-18T09:08:28.000Z</time>
      </trkpt>
      <trkpt lat="43.0799163691699504852294921875" lon="-6.0581782646477222442626953125">
        <ele>1368.4000244140625</ele>
        <time>2021-08-18T09:08:29.000Z</time>
      </trkpt>
      <trkpt lat="43.0799291096627712249755859375" lon="-6.0581672005355358123779296875">
        <ele>1367.4000244140625</ele>
        <time>2021-08-18T09:08:33.000Z</time>
      </trkpt>
      <trkpt lat="43.07994713075459003448486328125" lon="-6.05817667208611965179443359375">
        <ele>1366.800048828125</ele>
        <time>2021-08-18T09:08:36.000Z</time>
      </trkpt>
      <trkpt lat="43.07996238581836223602294921875" lon="-6.0581853054463863372802734375">
        <ele>1366.4000244140625</ele>
        <time>2021-08-18T09:08:39.000Z</time>
      </trkpt>
      <trkpt lat="43.080008737742900848388671875" lon="-6.0581668652594089508056640625">
        <ele>1365.800048828125</ele>
        <time>2021-08-18T09:08:46.000Z</time>
      </trkpt>
      <trkpt lat="43.080020807683467864990234375" lon="-6.05815135873854160308837890625">
        <ele>1365.4000244140625</ele>
        <time>2021-08-18T09:08:49.000Z</time>
      </trkpt>
      <trkpt lat="43.080024160444736480712890625" lon="-6.0581457428634166717529296875">
        <ele>1365.199951171875</ele>
        <time>2021-08-18T09:08:50.000Z</time>
      </trkpt>
      <trkpt lat="43.08002675883471965789794921875" lon="-6.05814029462635517120361328125">
        <ele>1364.800048828125</ele>
        <time>2021-08-18T09:08:51.000Z</time>
      </trkpt>
      <trkpt lat="43.0800467915832996368408203125" lon="-6.05811330489814281463623046875">
        <ele>1364</ele>
        <time>2021-08-18T09:08:57.000Z</time>
      </trkpt>
      <trkpt lat="43.0800498090684413909912109375" lon="-6.05811112560331821441650390625">
        <ele>1363.5999755859375</ele>
        <time>2021-08-18T09:08:58.000Z</time>
      </trkpt>
      <trkpt lat="43.08006204664707183837890625" lon="-6.05811263434588909149169921875">
        <ele>1363.199951171875</ele>
        <time>2021-08-18T09:09:00.000Z</time>
      </trkpt>
      <trkpt lat="43.08007319457828998565673828125" lon="-6.05811146087944507598876953125">
        <ele>1362.800048828125</ele>
        <time>2021-08-18T09:09:02.000Z</time>
      </trkpt>
      <trkpt lat="43.08007705025374889373779296875" lon="-6.05810626409947872161865234375">
        <ele>1362.5999755859375</ele>
        <time>2021-08-18T09:09:03.000Z</time>
      </trkpt>
      <trkpt lat="43.08009825646877288818359375" lon="-6.0580910928547382354736328125">
        <ele>1361.800048828125</ele>
        <time>2021-08-18T09:09:08.000Z</time>
      </trkpt>
      <trkpt lat="43.08010571636259555816650390625" lon="-6.05809084139764308929443359375">
        <ele>1361.199951171875</ele>
        <time>2021-08-18T09:09:11.000Z</time>
      </trkpt>
      <trkpt lat="43.0801292695105075836181640625" lon="-6.05809419415891170501708984375">
        <ele>1360.800048828125</ele>
        <time>2021-08-18T09:09:15.000Z</time>
      </trkpt>
      <trkpt lat="43.08014519512653350830078125" lon="-6.05810626409947872161865234375">
        <ele>1360.199951171875</ele>
        <time>2021-08-18T09:09:19.000Z</time>
      </trkpt>
      <trkpt lat="43.08015399612486362457275390625" lon="-6.0581199266016483306884765625">
        <ele>1360</ele>
        <time>2021-08-18T09:09:21.000Z</time>
      </trkpt>
      <trkpt lat="43.0801621265709400177001953125" lon="-6.0581363551318645477294921875">
        <ele>1359.800048828125</ele>
        <time>2021-08-18T09:09:23.000Z</time>
      </trkpt>
      <trkpt lat="43.0801661498844623565673828125" lon="-6.05814549140632152557373046875">
        <ele>1359.800048828125</ele>
        <time>2021-08-18T09:09:24.000Z</time>
      </trkpt>
      <trkpt lat="43.08018207550048828125" lon="-6.058183796703815460205078125">
        <ele>1358.800048828125</ele>
        <time>2021-08-18T09:09:29.000Z</time>
      </trkpt>
      <trkpt lat="43.0801923014223575592041015625" lon="-6.0581834614276885986328125">
        <ele>1358.5999755859375</ele>
        <time>2021-08-18T09:09:31.000Z</time>
      </trkpt>
      <trkpt lat="43.080203197896480560302734375" lon="-6.058197207748889923095703125">
        <ele>1357.4000244140625</ele>
        <time>2021-08-18T09:09:35.000Z</time>
      </trkpt>
      <trkpt lat="43.0802236497402191162109375" lon="-6.058183796703815460205078125">
        <ele>1356.800048828125</ele>
        <time>2021-08-18T09:09:39.000Z</time>
      </trkpt>
      <trkpt lat="43.08023731224238872528076171875" lon="-6.05818279087543487548828125">
        <ele>1356.199951171875</ele>
        <time>2021-08-18T09:09:43.000Z</time>
      </trkpt>
      <trkpt lat="43.0802472867071628570556640625" lon="-6.05817700736224651336669921875">
        <ele>1355.800048828125</ele>
        <time>2021-08-18T09:09:45.000Z</time>
      </trkpt>
      <trkpt lat="43.08025055564939975738525390625" lon="-6.05817063711583614349365234375">
        <ele>1355.800048828125</ele>
        <time>2021-08-18T09:09:46.000Z</time>
      </trkpt>
      <trkpt lat="43.08025474660098552703857421875" lon="-6.058166362345218658447265625">
        <ele>1355.5999755859375</ele>
        <time>2021-08-18T09:09:47.000Z</time>
      </trkpt>
      <trkpt lat="43.08026078157126903533935546875" lon="-6.05815437622368335723876953125">
        <ele>1355</ele>
        <time>2021-08-18T09:09:50.000Z</time>
      </trkpt>
      <trkpt lat="43.08026321232318878173828125" lon="-6.05815152637660503387451171875">
        <ele>1355</ele>
        <time>2021-08-18T09:09:51.000Z</time>
      </trkpt>
      <trkpt lat="43.080269582569599151611328125" lon="-6.05814197100698947906494140625">
        <ele>1354.4000244140625</ele>
        <time>2021-08-18T09:09:54.000Z</time>
      </trkpt>
      <trkpt lat="43.08027000166475772857666015625" lon="-6.05811011977493762969970703125">
        <ele>1354</ele>
        <time>2021-08-18T09:09:58.000Z</time>
      </trkpt>
      <trkpt lat="43.08026648126542568206787109375" lon="-6.05804708786308765411376953125">
        <ele>1352.800048828125</ele>
        <time>2021-08-18T09:10:03.000Z</time>
      </trkpt>
      <trkpt lat="43.08026664890348911285400390625" lon="-6.0580183379352092742919921875">
        <ele>1352</ele>
        <time>2021-08-18T09:10:06.000Z</time>
      </trkpt>
      <trkpt lat="43.08027285151183605194091796875" lon="-6.05801456607878208160400390625">
        <ele>1351.800048828125</ele>
        <time>2021-08-18T09:10:07.000Z</time>
      </trkpt>
      <trkpt lat="43.08028140105307102203369140625" lon="-6.057986654341220855712890625">
        <ele>1351.199951171875</ele>
        <time>2021-08-18T09:10:10.000Z</time>
      </trkpt>
      <trkpt lat="43.08028140105307102203369140625" lon="-6.05794616974890232086181640625">
        <ele>1350.800048828125</ele>
        <time>2021-08-18T09:10:14.000Z</time>
      </trkpt>
      <trkpt lat="43.0802734382450580596923828125" lon="-6.057933680713176727294921875">
        <ele>1350.4000244140625</ele>
        <time>2021-08-18T09:10:16.000Z</time>
      </trkpt>
      <trkpt lat="43.08026011101901531219482421875" lon="-6.05791582725942134857177734375">
        <ele>1350</ele>
        <time>2021-08-18T09:10:19.000Z</time>
      </trkpt>
      <trkpt lat="43.080246113240718841552734375" lon="-6.05788649059832096099853515625">
        <ele>1349.4000244140625</ele>
        <time>2021-08-18T09:10:25.000Z</time>
      </trkpt>
      <trkpt lat="43.08024032972753047943115234375" lon="-6.057871989905834197998046875">
        <ele>1348.5999755859375</ele>
        <time>2021-08-18T09:10:28.000Z</time>
      </trkpt>
      <trkpt lat="43.0802409164607524871826171875" lon="-6.05786620639264583587646484375">
        <ele>1348.4000244140625</ele>
        <time>2021-08-18T09:10:29.000Z</time>
      </trkpt>
      <trkpt lat="43.08024334721267223358154296875" lon="-6.0578614287078380584716796875">
        <ele>1348.4000244140625</ele>
        <time>2021-08-18T09:10:30.000Z</time>
      </trkpt>
      <trkpt lat="43.08025307022035121917724609375" lon="-6.05785815976560115814208984375">
        <ele>1348</ele>
        <time>2021-08-18T09:10:32.000Z</time>
      </trkpt>
      <trkpt lat="43.0802935548126697540283203125" lon="-6.0578651167452335357666015625">
        <ele>1347.199951171875</ele>
        <time>2021-08-18T09:10:40.000Z</time>
      </trkpt>
      <trkpt lat="43.08030478656291961669921875" lon="-6.0578724928200244903564453125">
        <ele>1347</ele>
        <time>2021-08-18T09:10:42.000Z</time>
      </trkpt>
      <trkpt lat="43.08034367859363555908203125" lon="-6.05788665823638439178466796875">
        <ele>1346.4000244140625</ele>
        <time>2021-08-18T09:10:47.000Z</time>
      </trkpt>
      <trkpt lat="43.080357424914836883544921875" lon="-6.05789336375892162322998046875">
        <ele>1346.199951171875</ele>
        <time>2021-08-18T09:10:49.000Z</time>
      </trkpt>
      <trkpt lat="43.08038131333887577056884765625" lon="-6.057919599115848541259765625">
        <ele>1345.800048828125</ele>
        <time>2021-08-18T09:10:52.000Z</time>
      </trkpt>
      <trkpt lat="43.08039405383169651031494140625" lon="-6.057932339608669281005859375">
        <ele>1345.800048828125</ele>
        <time>2021-08-18T09:10:54.000Z</time>
      </trkpt>
      <trkpt lat="43.08039522729814052581787109375" lon="-6.05794248171150684356689453125">
        <ele>1345.5999755859375</ele>
        <time>2021-08-18T09:10:55.000Z</time>
      </trkpt>
      <trkpt lat="43.080397658050060272216796875" lon="-6.05795480310916900634765625">
        <ele>1345.4000244140625</ele>
        <time>2021-08-18T09:10:56.000Z</time>
      </trkpt>
      <trkpt lat="43.08040025644004344940185546875" lon="-6.05797827243804931640625">
        <ele>1345</ele>
        <time>2021-08-18T09:10:58.000Z</time>
      </trkpt>
      <trkpt lat="43.08040930889546871185302734375" lon="-6.0580334253609180450439453125">
        <ele>1344</ele>
        <time>2021-08-18T09:11:04.000Z</time>
      </trkpt>
      <trkpt lat="43.08041081763803958892822265625" lon="-6.05803585611283779144287109375">
        <ele>1344</ele>
        <time>2021-08-18T09:11:05.000Z</time>
      </trkpt>
      <trkpt lat="43.0804172717034816741943359375" lon="-6.05805270373821258544921875">
        <ele>1342.800048828125</ele>
        <time>2021-08-18T09:11:12.000Z</time>
      </trkpt>
      <trkpt lat="43.08042858727276325225830078125" lon="-6.05807357467710971832275390625">
        <ele>1342</ele>
        <time>2021-08-18T09:11:18.000Z</time>
      </trkpt>
      <trkpt lat="43.0804223008453845977783203125" lon="-6.05807189829647541046142578125">
        <ele>1341.800048828125</ele>
        <time>2021-08-18T09:11:20.000Z</time>
      </trkpt>
      <trkpt lat="43.08041333220899105072021484375" lon="-6.058060415089130401611328125">
        <ele>1341.4000244140625</ele>
        <time>2021-08-18T09:11:23.000Z</time>
      </trkpt>
      <trkpt lat="43.0804115720093250274658203125" lon="-6.0580488480627536773681640625">
        <ele>1340.800048828125</ele>
        <time>2021-08-18T09:11:28.000Z</time>
      </trkpt>
      <trkpt lat="43.08042875491082668304443359375" lon="-6.05804323218762874603271484375">
        <ele>1340.4000244140625</ele>
        <time>2021-08-18T09:11:31.000Z</time>
      </trkpt>
      <trkpt lat="43.08042959310114383697509765625" lon="-6.0580367781221866607666015625">
        <ele>1340.4000244140625</ele>
        <time>2021-08-18T09:11:32.000Z</time>
      </trkpt>
      <trkpt lat="43.08044669218361377716064453125" lon="-6.05803082697093486785888671875">
        <ele>1339.5999755859375</ele>
        <time>2021-08-18T09:11:35.000Z</time>
      </trkpt>
      <trkpt lat="43.08045540936291217803955078125" lon="-6.05797315947711467742919921875">
        <ele>1338.5999755859375</ele>
        <time>2021-08-18T09:11:44.000Z</time>
      </trkpt>
      <trkpt lat="43.08045239187777042388916015625" lon="-6.0579596646130084991455078125">
        <ele>1338.4000244140625</ele>
        <time>2021-08-18T09:11:46.000Z</time>
      </trkpt>
      <trkpt lat="43.08044903911650180816650390625" lon="-6.05795203708112239837646484375">
        <ele>1338.199951171875</ele>
        <time>2021-08-18T09:11:47.000Z</time>
      </trkpt>
      <trkpt lat="43.08046580292284488677978515625" lon="-6.0579237900674343109130859375">
        <ele>1337.5999755859375</ele>
        <time>2021-08-18T09:11:51.000Z</time>
      </trkpt>
      <trkpt lat="43.08046697638928890228271484375" lon="-6.05791884474456310272216796875">
        <ele>1337.5999755859375</ele>
        <time>2021-08-18T09:11:52.000Z</time>
      </trkpt>
      <trkpt lat="43.08048407547175884246826171875" lon="-6.057882048189640045166015625">
        <ele>1336.5999755859375</ele>
        <time>2021-08-18T09:11:58.000Z</time>
      </trkpt>
      <trkpt lat="43.08048726059496402740478515625" lon="-6.05787592940032482147216796875">
        <ele>1336.4000244140625</ele>
        <time>2021-08-18T09:11:59.000Z</time>
      </trkpt>
      <trkpt lat="43.080490194261074066162109375" lon="-6.0578627698123455047607421875">
        <ele>1336.199951171875</ele>
        <time>2021-08-18T09:12:01.000Z</time>
      </trkpt>
      <trkpt lat="43.0804997496306896209716796875" lon="-6.05783485807478427886962890625">
        <ele>1335.4000244140625</ele>
        <time>2021-08-18T09:12:07.000Z</time>
      </trkpt>
      <trkpt lat="43.080518357455730438232421875" lon="-6.05781398713588714599609375">
        <ele>1334.5999755859375</ele>
        <time>2021-08-18T09:12:13.000Z</time>
      </trkpt>
      <trkpt lat="43.0805202014744281768798828125" lon="-6.0577876679599285125732421875">
        <ele>1334.4000244140625</ele>
        <time>2021-08-18T09:12:16.000Z</time>
      </trkpt>
      <trkpt lat="43.08054224587976932525634765625" lon="-6.05775472708046436309814453125">
        <ele>1333.4000244140625</ele>
        <time>2021-08-18T09:12:22.000Z</time>
      </trkpt>
      <trkpt lat="43.080549873411655426025390625" lon="-6.05775103904306888580322265625">
        <ele>1333</ele>
        <time>2021-08-18T09:12:24.000Z</time>
      </trkpt>
      <trkpt lat="43.0805500410497188568115234375" lon="-6.05774223804473876953125">
        <ele>1332.4000244140625</ele>
        <time>2021-08-18T09:12:27.000Z</time>
      </trkpt>
      <trkpt lat="43.0805600993335247039794921875" lon="-6.05777509510517120361328125">
        <ele>1331.4000244140625</ele>
        <time>2021-08-18T09:12:36.000Z</time>
      </trkpt>
      <trkpt lat="43.08056227862834930419921875" lon="-6.0577838122844696044921875">
        <ele>1331.199951171875</ele>
        <time>2021-08-18T09:12:38.000Z</time>
      </trkpt>
      <trkpt lat="43.08059404604136943817138671875" lon="-6.05781541205942630767822265625">
        <ele>1330.199951171875</ele>
        <time>2021-08-18T09:12:44.000Z</time>
      </trkpt>
      <trkpt lat="43.0806348659098148345947265625" lon="-6.057826392352581024169921875">
        <ele>1329.199951171875</ele>
        <time>2021-08-18T09:12:49.000Z</time>
      </trkpt>
      <trkpt lat="43.0806398950517177581787109375" lon="-6.0578267276287078857421875">
        <ele>1329.199951171875</ele>
        <time>2021-08-18T09:12:50.000Z</time>
      </trkpt>
      <trkpt lat="43.0806807987391948699951171875" lon="-6.05784005485475063323974609375">
        <ele>1329</ele>
        <time>2021-08-18T09:13:02.000Z</time>
      </trkpt>
      <trkpt lat="43.08068834245204925537109375" lon="-6.0578285716474056243896484375">
        <ele>1329</ele>
        <time>2021-08-18T09:13:03.000Z</time>
      </trkpt>
      <trkpt lat="43.08069999329745769500732421875" lon="-6.0577823035418987274169921875">
        <ele>1328.199951171875</ele>
        <time>2021-08-18T09:13:11.000Z</time>
      </trkpt>
      <trkpt lat="43.080685324966907501220703125" lon="-6.05777635239064693450927734375">
        <ele>1328.4000244140625</ele>
        <time>2021-08-18T09:13:14.000Z</time>
      </trkpt>
      <trkpt lat="43.08067836798727512359619140625" lon="-6.057761348783969879150390625">
        <ele>1328</ele>
        <time>2021-08-18T09:13:20.000Z</time>
      </trkpt>
      <trkpt lat="43.0806740932166576385498046875" lon="-6.0577279888093471527099609375">
        <ele>1327.5999755859375</ele>
        <time>2021-08-18T09:13:25.000Z</time>
      </trkpt>
      <trkpt lat="43.08067484758794307708740234375" lon="-6.05772145092487335205078125">
        <ele>1327.4000244140625</ele>
        <time>2021-08-18T09:13:26.000Z</time>
      </trkpt>
      <trkpt lat="43.08067300356924533843994140625" lon="-6.0577095486223697662353515625">
        <ele>1327.199951171875</ele>
        <time>2021-08-18T09:13:28.000Z</time>
      </trkpt>
      <trkpt lat="43.08067099191248416900634765625" lon="-6.0577018372714519500732421875">
        <ele>1327</ele>
        <time>2021-08-18T09:13:29.000Z</time>
      </trkpt>
      <trkpt lat="43.08064785785973072052001953125" lon="-6.057622544467449188232421875">
        <ele>1326.199951171875</ele>
        <time>2021-08-18T09:13:38.000Z</time>
      </trkpt>
      <trkpt lat="43.08065020479261875152587890625" lon="-6.0576086305081844329833984375">
        <ele>1325.800048828125</ele>
        <time>2021-08-18T09:13:40.000Z</time>
      </trkpt>
      <trkpt lat="43.0806452594697475433349609375" lon="-6.05757820419967174530029296875">
        <ele>1324.5999755859375</ele>
        <time>2021-08-18T09:13:45.000Z</time>
      </trkpt>
      <trkpt lat="43.08062757365405559539794921875" lon="-6.05752967298030853271484375">
        <ele>1323.5999755859375</ele>
        <time>2021-08-18T09:13:51.000Z</time>
      </trkpt>
      <trkpt lat="43.08062522672116756439208984375" lon="-6.0575258173048496246337890625">
        <ele>1323.199951171875</ele>
        <time>2021-08-18T09:13:52.000Z</time>
      </trkpt>
      <trkpt lat="43.0806113965809345245361328125" lon="-6.0575117357075214385986328125">
        <ele>1322.4000244140625</ele>
        <time>2021-08-18T09:13:57.000Z</time>
      </trkpt>
      <trkpt lat="43.08059019036591053009033203125" lon="-6.0574956424534320831298828125">
        <ele>1321.4000244140625</ele>
        <time>2021-08-18T09:14:01.000Z</time>
      </trkpt>
      <trkpt lat="43.080579377710819244384765625" lon="-6.05749153532087802886962890625">
        <ele>1321</ele>
        <time>2021-08-18T09:14:04.000Z</time>
      </trkpt>
      <trkpt lat="43.08056051842868328094482421875" lon="-6.05747628025710582733154296875">
        <ele>1320.4000244140625</ele>
        <time>2021-08-18T09:14:10.000Z</time>
      </trkpt>
      <trkpt lat="43.08055163361132144927978515625" lon="-6.05746840126812458038330078125">
        <ele>1320.199951171875</ele>
        <time>2021-08-18T09:14:12.000Z</time>
      </trkpt>
      <trkpt lat="43.0805590935051441192626953125" lon="-6.0574550740420818328857421875">
        <ele>1319.4000244140625</ele>
        <time>2021-08-18T09:14:17.000Z</time>
      </trkpt>
      <trkpt lat="43.08056336827576160430908203125" lon="-6.0574554093182086944580078125">
        <ele>1319.4000244140625</ele>
        <time>2021-08-18T09:14:18.000Z</time>
      </trkpt>
      <trkpt lat="43.08057325892150402069091796875" lon="-6.05740821920335292816162109375">
        <ele>1318.199951171875</ele>
        <time>2021-08-18T09:14:24.000Z</time>
      </trkpt>
      <trkpt lat="43.0805798806250095367431640625" lon="-6.05739958584308624267578125">
        <ele>1317.800048828125</ele>
        <time>2021-08-18T09:14:28.000Z</time>
      </trkpt>
      <trkpt lat="43.08060980401933193206787109375" lon="-6.057385839521884918212890625">
        <ele>1317.199951171875</ele>
        <time>2021-08-18T09:14:35.000Z</time>
      </trkpt>
      <trkpt lat="43.08063335716724395751953125" lon="-6.0573732666671276092529296875">
        <ele>1316.5999755859375</ele>
        <time>2021-08-18T09:14:39.000Z</time>
      </trkpt>
      <trkpt lat="43.08063612319529056549072265625" lon="-6.05736765079200267791748046875">
        <ele>1316.5999755859375</ele>
        <time>2021-08-18T09:14:40.000Z</time>
      </trkpt>
      <trkpt lat="43.080651797354221343994140625" lon="-6.0573554970324039459228515625">
        <ele>1316.199951171875</ele>
        <time>2021-08-18T09:14:43.000Z</time>
      </trkpt>
      <trkpt lat="43.08068566024303436279296875" lon="-6.057353317737579345703125">
        <ele>1315</ele>
        <time>2021-08-18T09:14:50.000Z</time>
      </trkpt>
      <trkpt lat="43.08070938102900981903076171875" lon="-6.05736580677330493927001953125">
        <ele>1314.199951171875</ele>
        <time>2021-08-18T09:14:54.000Z</time>
      </trkpt>
      <trkpt lat="43.08071943931281566619873046875" lon="-6.05737335048615932464599609375">
        <ele>1314</ele>
        <time>2021-08-18T09:14:56.000Z</time>
      </trkpt>
      <trkpt lat="43.08077123947441577911376953125" lon="-6.0574056208133697509765625">
        <ele>1312.800048828125</ele>
        <time>2021-08-18T09:15:04.000Z</time>
      </trkpt>
      <trkpt lat="43.08079026639461517333984375" lon="-6.057422719895839691162109375">
        <ele>1311.800048828125</ele>
        <time>2021-08-18T09:15:09.000Z</time>
      </trkpt>
      <trkpt lat="43.08079336769878864288330078125" lon="-6.05743034742772579193115234375">
        <ele>1311.5999755859375</ele>
        <time>2021-08-18T09:15:10.000Z</time>
      </trkpt>
      <trkpt lat="43.08082940988242626190185546875" lon="-6.0574681498110294342041015625">
        <ele>1310.5999755859375</ele>
        <time>2021-08-18T09:15:17.000Z</time>
      </trkpt>
      <trkpt lat="43.08085137046873569488525390625" lon="-6.05749882757663726806640625">
        <ele>1309.5999755859375</ele>
        <time>2021-08-18T09:15:23.000Z</time>
      </trkpt>
      <trkpt lat="43.0808641947805881500244140625" lon="-6.0575207881629467010498046875">
        <ele>1309</ele>
        <time>2021-08-18T09:15:27.000Z</time>
      </trkpt>
      <trkpt lat="43.080873079597949981689453125" lon="-6.05752724222838878631591796875">
        <ele>1308.800048828125</ele>
        <time>2021-08-18T09:15:29.000Z</time>
      </trkpt>
      <trkpt lat="43.08087869547307491302490234375" lon="-6.0575284995138645172119140625">
        <ele>1308.4000244140625</ele>
        <time>2021-08-18T09:15:31.000Z</time>
      </trkpt>
      <trkpt lat="43.08088087476789951324462890625" lon="-6.05758038349449634552001953125">
        <ele>1307.800048828125</ele>
        <time>2021-08-18T09:15:37.000Z</time>
      </trkpt>
      <trkpt lat="43.08088682591915130615234375" lon="-6.05759899131953716278076171875">
        <ele>1307.4000244140625</ele>
        <time>2021-08-18T09:15:40.000Z</time>
      </trkpt>
      <trkpt lat="43.08088456280529499053955078125" lon="-6.05762422084808349609375">
        <ele>1306.199951171875</ele>
        <time>2021-08-18T09:15:46.000Z</time>
      </trkpt>
      <trkpt lat="43.080889843404293060302734375" lon="-6.05765649117529392242431640625">
        <ele>1305.199951171875</ele>
        <time>2021-08-18T09:15:50.000Z</time>
      </trkpt>
      <trkpt lat="43.08088674210011959075927734375" lon="-6.05766889639198780059814453125">
        <ele>1305</ele>
        <time>2021-08-18T09:15:51.000Z</time>
      </trkpt>
      <trkpt lat="43.080913312733173370361328125" lon="-6.05771985836327075958251953125">
        <ele>1304.199951171875</ele>
        <time>2021-08-18T09:15:56.000Z</time>
      </trkpt>
      <trkpt lat="43.08091741986572742462158203125" lon="-6.057725138962268829345703125">
        <ele>1304</ele>
        <time>2021-08-18T09:15:57.000Z</time>
      </trkpt>
      <trkpt lat="43.080907277762889862060546875" lon="-6.0577605105936527252197265625">
        <ele>1302.800048828125</ele>
        <time>2021-08-18T09:16:04.000Z</time>
      </trkpt>
      <trkpt lat="43.08090903796255588531494140625" lon="-6.05776176787912845611572265625">
        <ele>1302.4000244140625</ele>
        <time>2021-08-18T09:16:05.000Z</time>
      </trkpt>
      <trkpt lat="43.08091708458960056304931640625" lon="-6.057778112590312957763671875">
        <ele>1301.5999755859375</ele>
        <time>2021-08-18T09:16:09.000Z</time>
      </trkpt>
      <trkpt lat="43.08091624639928340911865234375" lon="-6.05782832019031047821044921875">
        <ele>1300.5999755859375</ele>
        <time>2021-08-18T09:16:15.000Z</time>
      </trkpt>
      <trkpt lat="43.08092513121664524078369140625" lon="-6.05784608982503414154052734375">
        <ele>1300.4000244140625</ele>
        <time>2021-08-18T09:16:17.000Z</time>
      </trkpt>
      <trkpt lat="43.08092663995921611785888671875" lon="-6.05784893967211246490478515625">
        <ele>1300.199951171875</ele>
        <time>2021-08-18T09:16:18.000Z</time>
      </trkpt>
      <trkpt lat="43.0809309147298336029052734375" lon="-6.05785061605274677276611328125">
        <ele>1300</ele>
        <time>2021-08-18T09:16:19.000Z</time>
      </trkpt>
      <trkpt lat="43.08094122447073459625244140625" lon="-6.05785413645207881927490234375">
        <ele>1299.5999755859375</ele>
        <time>2021-08-18T09:16:21.000Z</time>
      </trkpt>
      <trkpt lat="43.08100643567740917205810546875" lon="-6.05788179673254489898681640625">
        <ele>1298.800048828125</ele>
        <time>2021-08-18T09:16:26.000Z</time>
      </trkpt>
      <trkpt lat="43.08103141374886035919189453125" lon="-6.05791817419230937957763671875">
        <ele>1298.4000244140625</ele>
        <time>2021-08-18T09:16:29.000Z</time>
      </trkpt>
      <trkpt lat="43.081039376556873321533203125" lon="-6.0579407215118408203125">
        <ele>1297.800048828125</ele>
        <time>2021-08-18T09:16:32.000Z</time>
      </trkpt>
      <trkpt lat="43.08104901574552059173583984375" lon="-6.05795086361467838287353515625">
        <ele>1297.4000244140625</ele>
        <time>2021-08-18T09:16:34.000Z</time>
      </trkpt>
      <trkpt lat="43.0810551345348358154296875" lon="-6.05797986499965190887451171875">
        <ele>1296.5999755859375</ele>
        <time>2021-08-18T09:16:39.000Z</time>
      </trkpt>
      <trkpt lat="43.08104365132749080657958984375" lon="-6.05799679644405841827392578125">
        <ele>1296.4000244140625</ele>
        <time>2021-08-18T09:16:41.000Z</time>
      </trkpt>
      <trkpt lat="43.0810358561575412750244140625" lon="-6.05801037512719631195068359375">
        <ele>1296.199951171875</ele>
        <time>2021-08-18T09:16:43.000Z</time>
      </trkpt>
      <trkpt lat="43.0810314975678920745849609375" lon="-6.0580233670771121978759765625">
        <ele>1295.800048828125</ele>
        <time>2021-08-18T09:16:45.000Z</time>
      </trkpt>
      <trkpt lat="43.0810449086129665374755859375" lon="-6.05804205872118473052978515625">
        <ele>1295.199951171875</ele>
        <time>2021-08-18T09:16:49.000Z</time>
      </trkpt>
      <trkpt lat="43.0810566432774066925048828125" lon="-6.05805228464305400848388671875">
        <ele>1294.199951171875</ele>
        <time>2021-08-18T09:16:52.000Z</time>
      </trkpt>
      <trkpt lat="43.08106024749577045440673828125" lon="-6.05809570290148258209228515625">
        <ele>1293.199951171875</ele>
        <time>2021-08-18T09:16:57.000Z</time>
      </trkpt>
      <trkpt lat="43.08106142096221446990966796875" lon="-6.058104671537876129150390625">
        <ele>1293</ele>
        <time>2021-08-18T09:16:58.000Z</time>
      </trkpt>
      <trkpt lat="43.0810640193521976470947265625" lon="-6.0581148974597454071044921875">
        <ele>1292.800048828125</ele>
        <time>2021-08-18T09:16:59.000Z</time>
      </trkpt>
      <trkpt lat="43.08111213147640228271484375" lon="-6.05818388052284717559814453125">
        <ele>1292</ele>
        <time>2021-08-18T09:17:04.000Z</time>
      </trkpt>
      <trkpt lat="43.081120513379573822021484375" lon="-6.05819695629179477691650390625">
        <ele>1291.800048828125</ele>
        <time>2021-08-18T09:17:05.000Z</time>
      </trkpt>
      <trkpt lat="43.08114356361329555511474609375" lon="-6.0582500137388706207275390625">
        <ele>1290.800048828125</ele>
        <time>2021-08-18T09:17:09.000Z</time>
      </trkpt>
      <trkpt lat="43.0811297334730625152587890625" lon="-6.058269627392292022705078125">
        <ele>1290.4000244140625</ele>
        <time>2021-08-18T09:17:11.000Z</time>
      </trkpt>
      <trkpt lat="43.08113451115787029266357421875" lon="-6.05827759020030498504638671875">
        <ele>1290.199951171875</ele>
        <time>2021-08-18T09:17:12.000Z</time>
      </trkpt>
      <trkpt lat="43.0811501853168010711669921875" lon="-6.0582939349114894866943359375">
        <ele>1290</ele>
        <time>2021-08-18T09:17:14.000Z</time>
      </trkpt>
      <trkpt lat="43.08115295134484767913818359375" lon="-6.05830910615622997283935546875">
        <ele>1289.5999755859375</ele>
        <time>2021-08-18T09:17:16.000Z</time>
      </trkpt>
      <trkpt lat="43.081149347126483917236328125" lon="-6.0583157278597354888916015625">
        <ele>1289.4000244140625</ele>
        <time>2021-08-18T09:17:17.000Z</time>
      </trkpt>
      <trkpt lat="43.08114842511713504791259765625" lon="-6.05832838453352451324462890625">
        <ele>1289</ele>
        <time>2021-08-18T09:17:19.000Z</time>
      </trkpt>
      <trkpt lat="43.0811421386897563934326171875" lon="-6.0583417117595672607421875">
        <ele>1288.5999755859375</ele>
        <time>2021-08-18T09:17:21.000Z</time>
      </trkpt>
      <trkpt lat="43.08113249950110912322998046875" lon="-6.05836861766874790191650390625">
        <ele>1287.800048828125</ele>
        <time>2021-08-18T09:17:24.000Z</time>
      </trkpt>
      <trkpt lat="43.08113333769142627716064453125" lon="-6.0583723895251750946044921875">
        <ele>1287.5999755859375</ele>
        <time>2021-08-18T09:17:25.000Z</time>
      </trkpt>
      <trkpt lat="43.08113534934818744659423828125" lon="-6.05837414972484111785888671875">
        <ele>1287.4000244140625</ele>
        <time>2021-08-18T09:17:26.000Z</time>
      </trkpt>
      <trkpt lat="43.081159405410289764404296875" lon="-6.0584129579365253448486328125">
        <ele>1286.5999755859375</ele>
        <time>2021-08-18T09:17:31.000Z</time>
      </trkpt>
      <trkpt lat="43.081148006021976470947265625" lon="-6.058405749499797821044921875">
        <ele>1286.4000244140625</ele>
        <time>2021-08-18T09:17:33.000Z</time>
      </trkpt>
      <trkpt lat="43.08114104904234409332275390625" lon="-6.058398373425006866455078125">
        <ele>1285.5999755859375</ele>
        <time>2021-08-18T09:17:38.000Z</time>
      </trkpt>
      <trkpt lat="43.08119234628975391387939453125" lon="-6.0584072582423686981201171875">
        <ele>1285.199951171875</ele>
        <time>2021-08-18T09:17:44.000Z</time>
      </trkpt>
      <trkpt lat="43.08121061883866786956787109375" lon="-6.0584055818617343902587890625">
        <ele>1284</ele>
        <time>2021-08-18T09:17:49.000Z</time>
      </trkpt>
      <trkpt lat="43.08121883310377597808837890625" lon="-6.0584153048694133758544921875">
        <ele>1283.5999755859375</ele>
        <time>2021-08-18T09:17:51.000Z</time>
      </trkpt>
      <trkpt lat="43.081221096217632293701171875" lon="-6.05842678807675838470458984375">
        <ele>1283</ele>
        <time>2021-08-18T09:17:54.000Z</time>
      </trkpt>
      <trkpt lat="43.08122989721596240997314453125" lon="-6.058458387851715087890625">
        <ele>1282.5999755859375</ele>
        <time>2021-08-18T09:17:59.000Z</time>
      </trkpt>
      <trkpt lat="43.08124096132814884185791015625" lon="-6.0584934242069721221923828125">
        <ele>1282</ele>
        <time>2021-08-18T09:18:04.000Z</time>
      </trkpt>
      <trkpt lat="43.08125085197389125823974609375" lon="-6.05851161293685436248779296875">
        <ele>1281.5999755859375</ele>
        <time>2021-08-18T09:18:07.000Z</time>
      </trkpt>
      <trkpt lat="43.0812916718423366546630859375" lon="-6.058558635413646697998046875">
        <ele>1281</ele>
        <time>2021-08-18T09:18:12.000Z</time>
      </trkpt>
      <trkpt lat="43.08129494078457355499267578125" lon="-6.05857045389711856842041015625">
        <ele>1280.5999755859375</ele>
        <time>2021-08-18T09:18:14.000Z</time>
      </trkpt>
      <trkpt lat="43.081318326294422149658203125" lon="-6.0585648380219936370849609375">
        <ele>1280</ele>
        <time>2021-08-18T09:18:20.000Z</time>
      </trkpt>
      <trkpt lat="43.0813148058950901031494140625" lon="-6.0585594736039638519287109375">
        <ele>1280</ele>
        <time>2021-08-18T09:18:21.000Z</time>
      </trkpt>
      <trkpt lat="43.08132461272180080413818359375" lon="-6.05858520604670047760009765625">
        <ele>1279.5999755859375</ele>
        <time>2021-08-18T09:18:26.000Z</time>
      </trkpt>
      <trkpt lat="43.081326372921466827392578125" lon="-6.0586057417094707489013671875">
        <ele>1279.199951171875</ele>
        <time>2021-08-18T09:18:28.000Z</time>
      </trkpt>
      <trkpt lat="43.0813258700072765350341796875" lon="-6.05862669646739959716796875">
        <ele>1278.5999755859375</ele>
        <time>2021-08-18T09:18:30.000Z</time>
      </trkpt>
      <trkpt lat="43.08128421194851398468017578125" lon="-6.05864010751247406005859375">
        <ele>1277.800048828125</ele>
        <time>2021-08-18T09:18:36.000Z</time>
      </trkpt>
      <trkpt lat="43.08127935044467449188232421875" lon="-6.0586399398744106292724609375">
        <ele>1277.5999755859375</ele>
        <time>2021-08-18T09:18:37.000Z</time>
      </trkpt>
      <trkpt lat="43.08128111064434051513671875" lon="-6.0586453042924404144287109375">
        <ele>1276.4000244140625</ele>
        <time>2021-08-18T09:18:41.000Z</time>
      </trkpt>
      <trkpt lat="43.08131338097155094146728515625" lon="-6.0586608946323394775390625">
        <ele>1276.199951171875</ele>
        <time>2021-08-18T09:18:44.000Z</time>
      </trkpt>
      <trkpt lat="43.08131220750510692596435546875" lon="-6.0586608946323394775390625">
        <ele>1276.199951171875</ele>
        <time>2021-08-18T09:18:46.000Z</time>
      </trkpt>
      <trkpt lat="43.08128572069108486175537109375" lon="-6.0586528480052947998046875">
        <ele>1276.4000244140625</ele>
        <time>2021-08-18T09:18:51.000Z</time>
      </trkpt>
      <trkpt lat="43.08128655888140201568603515625" lon="-6.05864941142499446868896484375">
        <ele>1276.4000244140625</ele>
        <time>2021-08-18T09:18:53.000Z</time>
      </trkpt>
      <trkpt lat="43.0813235230743885040283203125" lon="-6.05864304117858409881591796875">
        <ele>1276.5999755859375</ele>
        <time>2021-08-18T09:18:59.000Z</time>
      </trkpt>
      <trkpt lat="43.081320337951183319091796875" lon="-6.05862543918192386627197265625">
        <ele>1276.4000244140625</ele>
        <time>2021-08-18T09:19:08.000Z</time>
      </trkpt>
      <trkpt lat="43.0813101120293140411376953125" lon="-6.0586161352694034576416015625">
        <ele>1276.199951171875</ele>
        <time>2021-08-18T09:19:17.000Z</time>
      </trkpt>
      <trkpt lat="43.08130349032580852508544921875" lon="-6.05863130651414394378662109375">
        <ele>1276.4000244140625</ele>
        <time>2021-08-18T09:19:23.000Z</time>
      </trkpt>
      <trkpt lat="43.08131329715251922607421875" lon="-6.0586255230009555816650390625">
        <ele>1276.4000244140625</ele>
        <time>2021-08-18T09:19:26.000Z</time>
      </trkpt>
      <trkpt lat="43.08124632574617862701416015625" lon="-6.058691404759883880615234375">
        <ele>1276.199951171875</ele>
        <time>2021-08-18T09:19:41.000Z</time>
      </trkpt>
      <trkpt lat="43.08125185780227184295654296875" lon="-6.0586831904947757720947265625">
        <ele>1276.5999755859375</ele>
        <time>2021-08-18T09:19:44.000Z</time>
      </trkpt>
      <trkpt lat="43.08135621249675750732421875" lon="-6.05867229402065277099609375">
        <ele>1276</ele>
        <time>2021-08-18T09:29:30.000Z</time>
      </trkpt>
      <trkpt lat="43.08135227300226688385009765625" lon="-6.05869316495954990386962890625">
        <ele>1276</ele>
        <time>2021-08-18T09:29:33.000Z</time>
      </trkpt>
      <trkpt lat="43.081348501145839691162109375" lon="-6.0586670972406864166259765625">
        <ele>1275.4000244140625</ele>
        <time>2021-08-18T09:29:38.000Z</time>
      </trkpt>
      <trkpt lat="43.08134640567004680633544921875" lon="-6.058657206594944000244140625">
        <ele>1275.199951171875</ele>
        <time>2021-08-18T09:29:39.000Z</time>
      </trkpt>
      <trkpt lat="43.08135688304901123046875" lon="-6.05863834731280803680419921875">
        <ele>1274.4000244140625</ele>
        <time>2021-08-18T09:29:44.000Z</time>
      </trkpt>
      <trkpt lat="43.08135889470577239990234375" lon="-6.05862292461097240447998046875">
        <ele>1274</ele>
        <time>2021-08-18T09:29:46.000Z</time>
      </trkpt>
      <trkpt lat="43.08138370513916015625" lon="-6.0585844516754150390625">
        <ele>1273.4000244140625</ele>
        <time>2021-08-18T09:29:51.000Z</time>
      </trkpt>
      <trkpt lat="43.0813895724713802337646484375" lon="-6.05857548303902149200439453125">
        <ele>1273.199951171875</ele>
        <time>2021-08-18T09:29:52.000Z</time>
      </trkpt>
      <trkpt lat="43.08139384724199771881103515625" lon="-6.05856592766940593719482421875">
        <ele>1273.199951171875</ele>
        <time>2021-08-18T09:29:53.000Z</time>
      </trkpt>
      <trkpt lat="43.081447742879390716552734375" lon="-6.0585655085742473602294921875">
        <ele>1272.4000244140625</ele>
        <time>2021-08-18T09:29:57.000Z</time>
      </trkpt>
      <trkpt lat="43.08144564740359783172607421875" lon="-6.05857196263968944549560546875">
        <ele>1272.199951171875</ele>
        <time>2021-08-18T09:29:59.000Z</time>
      </trkpt>
      <trkpt lat="43.0814458988606929779052734375" lon="-6.0585930012166500091552734375">
        <ele>1272</ele>
        <time>2021-08-18T09:30:06.000Z</time>
      </trkpt>
      <trkpt lat="43.0814559571444988250732421875" lon="-6.0586027242243289947509765625">
        <ele>1271.5999755859375</ele>
        <time>2021-08-18T09:30:08.000Z</time>
      </trkpt>
      <trkpt lat="43.0814710445702075958251953125" lon="-6.05862644501030445098876953125">
        <ele>1271.199951171875</ele>
        <time>2021-08-18T09:30:11.000Z</time>
      </trkpt>
      <trkpt lat="43.081496022641658782958984375" lon="-6.05864723213016986846923828125">
        <ele>1270.800048828125</ele>
        <time>2021-08-18T09:30:13.000Z</time>
      </trkpt>
      <trkpt lat="43.08152594603598117828369140625" lon="-6.0586771555244922637939453125">
        <ele>1270</ele>
        <time>2021-08-18T09:30:17.000Z</time>
      </trkpt>
      <trkpt lat="43.08153399266302585601806640625" lon="-6.05870221741497516632080078125">
        <ele>1269.199951171875</ele>
        <time>2021-08-18T09:30:20.000Z</time>
      </trkpt>
      <trkpt lat="43.08152561075985431671142578125" lon="-6.05872199870645999908447265625">
        <ele>1268.800048828125</ele>
        <time>2021-08-18T09:30:22.000Z</time>
      </trkpt>
      <trkpt lat="43.08150909841060638427734375" lon="-6.05872903950512409210205078125">
        <ele>1268.5999755859375</ele>
        <time>2021-08-18T09:30:24.000Z</time>
      </trkpt>
      <trkpt lat="43.08150700293481349945068359375" lon="-6.0587354935705661773681640625">
        <ele>1268.199951171875</ele>
        <time>2021-08-18T09:30:27.000Z</time>
      </trkpt>
      <trkpt lat="43.08149895630776882171630859375" lon="-6.05874680913984775543212890625">
        <ele>1267.800048828125</ele>
        <time>2021-08-18T09:30:30.000Z</time>
      </trkpt>
      <trkpt lat="43.081512451171875" lon="-6.05875871144235134124755859375">
        <ele>1267.5999755859375</ele>
        <time>2021-08-18T09:30:31.000Z</time>
      </trkpt>
      <trkpt lat="43.0815488286316394805908203125" lon="-6.05881470255553722381591796875">
        <ele>1266.800048828125</ele>
        <time>2021-08-18T09:30:35.000Z</time>
      </trkpt>
      <trkpt lat="43.08155201375484466552734375" lon="-6.05882040224969387054443359375">
        <ele>1266.5999755859375</ele>
        <time>2021-08-18T09:30:36.000Z</time>
      </trkpt>
      <trkpt lat="43.08155293576419353485107421875" lon="-6.05887035839259624481201171875">
        <ele>1265.5999755859375</ele>
        <time>2021-08-18T09:30:42.000Z</time>
      </trkpt>
      <trkpt lat="43.0815394409000873565673828125" lon="-6.0588903911411762237548828125">
        <ele>1265.4000244140625</ele>
        <time>2021-08-18T09:30:44.000Z</time>
      </trkpt>
      <trkpt lat="43.0815307237207889556884765625" lon="-6.058906652033329010009765625">
        <ele>1264.800048828125</ele>
        <time>2021-08-18T09:30:48.000Z</time>
      </trkpt>
      <trkpt lat="43.081525862216949462890625" lon="-6.05890891514718532562255859375">
        <ele>1264.4000244140625</ele>
        <time>2021-08-18T09:30:49.000Z</time>
      </trkpt>
      <trkpt lat="43.08153365738689899444580078125" lon="-6.05893070809543132781982421875">
        <ele>1264</ele>
        <time>2021-08-18T09:30:52.000Z</time>
      </trkpt>
      <trkpt lat="43.08153466321527957916259765625" lon="-6.0589478909969329833984375">
        <ele>1263.800048828125</ele>
        <time>2021-08-18T09:30:54.000Z</time>
      </trkpt>
      <trkpt lat="43.0815370939671993255615234375" lon="-6.05896197259426116943359375">
        <ele>1263.4000244140625</ele>
        <time>2021-08-18T09:30:56.000Z</time>
      </trkpt>
      <trkpt lat="43.0815307237207889556884765625" lon="-6.05897027067840099334716796875">
        <ele>1263.199951171875</ele>
        <time>2021-08-18T09:30:57.000Z</time>
      </trkpt>
      <trkpt lat="43.0815039016306400299072265625" lon="-6.05898720212280750274658203125">
        <ele>1262.4000244140625</ele>
        <time>2021-08-18T09:31:00.000Z</time>
      </trkpt>
      <trkpt lat="43.08149543590843677520751953125" lon="-6.05900128372013568878173828125">
        <ele>1262</ele>
        <time>2021-08-18T09:31:02.000Z</time>
      </trkpt>
      <trkpt lat="43.0814938433468341827392578125" lon="-6.05901586823165416717529296875">
        <ele>1261.5999755859375</ele>
        <time>2021-08-18T09:31:04.000Z</time>
      </trkpt>
      <trkpt lat="43.0814864672720432281494140625" lon="-6.0590288601815700531005859375">
        <ele>1261</ele>
        <time>2021-08-18T09:31:06.000Z</time>
      </trkpt>
      <trkpt lat="43.0814837850630283355712890625" lon="-6.059046797454357147216796875">
        <ele>1260.5999755859375</ele>
        <time>2021-08-18T09:31:08.000Z</time>
      </trkpt>
      <trkpt lat="43.08148722164332866668701171875" lon="-6.05908141471445560455322265625">
        <ele>1260</ele>
        <time>2021-08-18T09:31:11.000Z</time>
      </trkpt>
      <trkpt lat="43.08150683529675006866455078125" lon="-6.05910521931946277618408203125">
        <ele>1259.800048828125</ele>
        <time>2021-08-18T09:31:13.000Z</time>
      </trkpt>
      <trkpt lat="43.0815340764820575714111328125" lon="-6.05913556180894374847412109375">
        <ele>1259.5999755859375</ele>
        <time>2021-08-18T09:31:15.000Z</time>
      </trkpt>
      <trkpt lat="43.0815498344600200653076171875" lon="-6.05916439555585384368896484375">
        <ele>1259.199951171875</ele>
        <time>2021-08-18T09:31:18.000Z</time>
      </trkpt>
      <trkpt lat="43.081548996269702911376953125" lon="-6.0591716878116130828857421875">
        <ele>1259</ele>
        <time>2021-08-18T09:31:19.000Z</time>
      </trkpt>
      <trkpt lat="43.081551007926464080810546875" lon="-6.05917830951511859893798828125">
        <ele>1258.800048828125</ele>
        <time>2021-08-18T09:31:20.000Z</time>
      </trkpt>
      <trkpt lat="43.08155511505901813507080078125" lon="-6.0591887868940830230712890625">
        <ele>1258.5999755859375</ele>
        <time>2021-08-18T09:31:21.000Z</time>
      </trkpt>
      <trkpt lat="43.08156148530542850494384765625" lon="-6.0592038743197917938232421875">
        <ele>1258.5999755859375</ele>
        <time>2021-08-18T09:31:22.000Z</time>
      </trkpt>
      <trkpt lat="43.081569112837314605712890625" lon="-6.05922524817287921905517578125">
        <ele>1258.4000244140625</ele>
        <time>2021-08-18T09:31:23.000Z</time>
      </trkpt>
      <trkpt lat="43.08157925494015216827392578125" lon="-6.05926162563264369964599609375">
        <ele>1257.800048828125</ele>
        <time>2021-08-18T09:31:25.000Z</time>
      </trkpt>
      <trkpt lat="43.0816225893795490264892578125" lon="-6.059335134923458099365234375">
        <ele>1256.5999755859375</ele>
        <time>2021-08-18T09:31:31.000Z</time>
      </trkpt>
      <trkpt lat="43.08164329268038272857666015625" lon="-6.05935801751911640167236328125">
        <ele>1256.199951171875</ele>
        <time>2021-08-18T09:31:35.000Z</time>
      </trkpt>
      <trkpt lat="43.08166600763797760009765625" lon="-6.059361286461353302001953125">
        <ele>1256</ele>
        <time>2021-08-18T09:31:37.000Z</time>
      </trkpt>
      <trkpt lat="43.08168872259557247161865234375" lon="-6.0593547485768795013427734375">
        <ele>1256.199951171875</ele>
        <time>2021-08-18T09:31:39.000Z</time>
      </trkpt>
      <trkpt lat="43.08169106952846050262451171875" lon="-6.059351228177547454833984375">
        <ele>1256.4000244140625</ele>
        <time>2021-08-18T09:31:40.000Z</time>
      </trkpt>
      <trkpt lat="43.0817271955311298370361328125" lon="-6.05933102779090404510498046875">
        <ele>1256.800048828125</ele>
        <time>2021-08-18T09:31:44.000Z</time>
      </trkpt>
      <trkpt lat="43.08173038065433502197265625" lon="-6.0593299381434917449951171875">
        <ele>1257</ele>
        <time>2021-08-18T09:31:45.000Z</time>
      </trkpt>
      <trkpt lat="43.08174186386168003082275390625" lon="-6.05932801030576229095458984375">
        <ele>1257.199951171875</ele>
        <time>2021-08-18T09:31:47.000Z</time>
      </trkpt>
      <trkpt lat="43.08176768012344837188720703125" lon="-6.05932717211544513702392578125">
        <ele>1257.800048828125</ele>
        <time>2021-08-18T09:31:51.000Z</time>
      </trkpt>
      <trkpt lat="43.0817771516740322113037109375" lon="-6.05933320708572864532470703125">
        <ele>1258.199951171875</ele>
        <time>2021-08-18T09:31:53.000Z</time>
      </trkpt>
      <trkpt lat="43.0817806720733642578125" lon="-6.059326417744159698486328125">
        <ele>1258.4000244140625</ele>
        <time>2021-08-18T09:31:55.000Z</time>
      </trkpt>
      <trkpt lat="43.0817831866443157196044921875" lon="-6.05932549573481082916259765625">
        <ele>1258.4000244140625</ele>
        <time>2021-08-18T09:31:56.000Z</time>
      </trkpt>
      <trkpt lat="43.08179165236651897430419921875" lon="-6.05932566337287425994873046875">
        <ele>1258.5999755859375</ele>
        <time>2021-08-18T09:31:57.000Z</time>
      </trkpt>
      <trkpt lat="43.08179835788905620574951171875" lon="-6.05932516045868396759033203125">
        <ele>1258.800048828125</ele>
        <time>2021-08-18T09:31:58.000Z</time>
      </trkpt>
      <trkpt lat="43.0818079970777034759521484375" lon="-6.05932272970676422119140625">
        <ele>1259</ele>
        <time>2021-08-18T09:32:00.000Z</time>
      </trkpt>
      <trkpt lat="43.0818183906376361846923828125" lon="-6.059327423572540283203125">
        <ele>1259</ele>
        <time>2021-08-18T09:32:01.000Z</time>
      </trkpt>
      <trkpt lat="43.0818351544439792633056640625" lon="-6.059331111609935760498046875">
        <ele>1259.199951171875</ele>
        <time>2021-08-18T09:32:02.000Z</time>
      </trkpt>
      <trkpt lat="43.08185317553579807281494140625" lon="-6.05933773331344127655029296875">
        <ele>1259.199951171875</ele>
        <time>2021-08-18T09:32:03.000Z</time>
      </trkpt>
      <trkpt lat="43.08188728988170623779296875" lon="-6.0593529045581817626953125">
        <ele>1259.199951171875</ele>
        <time>2021-08-18T09:32:05.000Z</time>
      </trkpt>
      <trkpt lat="43.0818941630423069000244140625" lon="-6.05935625731945037841796875">
        <ele>1259.199951171875</ele>
        <time>2021-08-18T09:32:06.000Z</time>
      </trkpt>
      <trkpt lat="43.0819243378937244415283203125" lon="-6.05936137028038501739501953125">
        <ele>1259.199951171875</ele>
        <time>2021-08-18T09:32:09.000Z</time>
      </trkpt>
      <trkpt lat="43.0819471366703510284423828125" lon="-6.0593587718904018402099609375">
        <ele>1258.800048828125</ele>
        <time>2021-08-18T09:32:12.000Z</time>
      </trkpt>
      <trkpt lat="43.081948645412921905517578125" lon="-6.0593503899872303009033203125">
        <ele>1258.800048828125</ele>
        <time>2021-08-18T09:32:13.000Z</time>
      </trkpt>
      <trkpt lat="43.08194839395582675933837890625" lon="-6.05934293009340763092041015625">
        <ele>1258.4000244140625</ele>
        <time>2021-08-18T09:32:15.000Z</time>
      </trkpt>
      <trkpt lat="43.0819498188793659210205078125" lon="-6.0593366436660289764404296875">
        <ele>1257.800048828125</ele>
        <time>2021-08-18T09:32:18.000Z</time>
      </trkpt>
      <trkpt lat="43.08195023797452449798583984375" lon="-6.05932700447738170623779296875">
        <ele>1257.800048828125</ele>
        <time>2021-08-18T09:32:19.000Z</time>
      </trkpt>
      <trkpt lat="43.08195007033646106719970703125" lon="-6.05931510217487812042236328125">
        <ele>1257.5999755859375</ele>
        <time>2021-08-18T09:32:20.000Z</time>
      </trkpt>
      <trkpt lat="43.0819523334503173828125" lon="-6.059308983385562896728515625">
        <ele>1257.4000244140625</ele>
        <time>2021-08-18T09:32:21.000Z</time>
      </trkpt>
      <trkpt lat="43.08196783997118473052978515625" lon="-6.05930487625300884246826171875">
        <ele>1257.4000244140625</ele>
        <time>2021-08-18T09:32:23.000Z</time>
      </trkpt>
      <trkpt lat="43.08201326988637447357177734375" lon="-6.05929314158856868743896484375">
        <ele>1256.5999755859375</ele>
        <time>2021-08-18T09:32:28.000Z</time>
      </trkpt>
      <trkpt lat="43.08201695792376995086669921875" lon="-6.059295572340488433837890625">
        <ele>1256.4000244140625</ele>
        <time>2021-08-18T09:32:29.000Z</time>
      </trkpt>
      <trkpt lat="43.0820366553962230682373046875" lon="-6.05928526259958744049072265625">
        <ele>1255.800048828125</ele>
        <time>2021-08-18T09:32:32.000Z</time>
      </trkpt>
      <trkpt lat="43.0820500664412975311279296875" lon="-6.05926967225968837738037109375">
        <ele>1255.4000244140625</ele>
        <time>2021-08-18T09:32:34.000Z</time>
      </trkpt>
      <trkpt lat="43.082067668437957763671875" lon="-6.0592588596045970916748046875">
        <ele>1255</ele>
        <time>2021-08-18T09:32:37.000Z</time>
      </trkpt>
      <trkpt lat="43.08208887465298175811767578125" lon="-6.0592213086783885955810546875">
        <ele>1254.4000244140625</ele>
        <time>2021-08-18T09:32:41.000Z</time>
      </trkpt>
      <trkpt lat="43.0821013636887073516845703125" lon="-6.05917294509708881378173828125">
        <ele>1253.4000244140625</ele>
        <time>2021-08-18T09:32:46.000Z</time>
      </trkpt>
      <trkpt lat="43.08210547082126140594482421875" lon="-6.05916716158390045166015625">
        <ele>1253.199951171875</ele>
        <time>2021-08-18T09:32:47.000Z</time>
      </trkpt>
      <trkpt lat="43.0821087397634983062744140625" lon="-6.0591579414904117584228515625">
        <ele>1252.800048828125</ele>
        <time>2021-08-18T09:32:49.000Z</time>
      </trkpt>
      <trkpt lat="43.082137741148471832275390625" lon="-6.05912617407739162445068359375">
        <ele>1252.199951171875</ele>
        <time>2021-08-18T09:32:53.000Z</time>
      </trkpt>
      <trkpt lat="43.08214654214680194854736328125" lon="-6.0591180436313152313232421875">
        <ele>1252.199951171875</ele>
        <time>2021-08-18T09:32:54.000Z</time>
      </trkpt>
      <trkpt lat="43.0821912176907062530517578125" lon="-6.05906733311712741851806640625">
        <ele>1251.4000244140625</ele>
        <time>2021-08-18T09:33:00.000Z</time>
      </trkpt>
      <trkpt lat="43.08222231455147266387939453125" lon="-6.05904721654951572418212890625">
        <ele>1251.199951171875</ele>
        <time>2021-08-18T09:33:03.000Z</time>
      </trkpt>
      <trkpt lat="43.08223664760589599609375" lon="-6.05904168449342250823974609375">
        <ele>1251</ele>
        <time>2021-08-18T09:33:04.000Z</time>
      </trkpt>
      <trkpt lat="43.08229900896549224853515625" lon="-6.05899374000728130340576171875">
        <ele>1250.199951171875</ele>
        <time>2021-08-18T09:33:10.000Z</time>
      </trkpt>
      <trkpt lat="43.08231434784829616546630859375" lon="-6.05898083187639713287353515625">
        <ele>1250.199951171875</ele>
        <time>2021-08-18T09:33:12.000Z</time>
      </trkpt>
      <trkpt lat="43.08232490904629230499267578125" lon="-6.0589708574116230010986328125">
        <ele>1250</ele>
        <time>2021-08-18T09:33:15.000Z</time>
      </trkpt>
      <trkpt lat="43.0823384039103984832763671875" lon="-6.0589559376239776611328125">
        <ele>1249.800048828125</ele>
        <time>2021-08-18T09:33:18.000Z</time>
      </trkpt>
      <trkpt lat="43.0823380686342716217041015625" lon="-6.058952920138835906982421875">
        <ele>1249.800048828125</ele>
        <time>2021-08-18T09:33:19.000Z</time>
      </trkpt>
      <trkpt lat="43.08233412913978099822998046875" lon="-6.0589478909969329833984375">
        <ele>1249.5999755859375</ele>
        <time>2021-08-18T09:33:20.000Z</time>
      </trkpt>
      <trkpt lat="43.08234686963260173797607421875" lon="-6.05892869643867015838623046875">
        <ele>1249</ele>
        <time>2021-08-18T09:33:23.000Z</time>
      </trkpt>
      <trkpt lat="43.08239196427166461944580078125" lon="-6.05891059152781963348388671875">
        <ele>1248.5999755859375</ele>
        <time>2021-08-18T09:33:26.000Z</time>
      </trkpt>
      <trkpt lat="43.0824289284646511077880859375" lon="-6.05887672863900661468505859375">
        <ele>1248.199951171875</ele>
        <time>2021-08-18T09:33:30.000Z</time>
      </trkpt>
      <trkpt lat="43.0824366398155689239501953125" lon="-6.058870442211627960205078125">
        <ele>1248.199951171875</ele>
        <time>2021-08-18T09:33:31.000Z</time>
      </trkpt>
      <trkpt lat="43.08244426734745502471923828125" lon="-6.0588669218122959136962890625">
        <ele>1248</ele>
        <time>2021-08-18T09:33:32.000Z</time>
      </trkpt>
      <trkpt lat="43.08246589265763759613037109375" lon="-6.0588722862303256988525390625">
        <ele>1247.800048828125</ele>
        <time>2021-08-18T09:33:34.000Z</time>
      </trkpt>
      <trkpt lat="43.082468993961811065673828125" lon="-6.0588732920587062835693359375">
        <ele>1247.800048828125</ele>
        <time>2021-08-18T09:33:35.000Z</time>
      </trkpt>
      <trkpt lat="43.08247335255146026611328125" lon="-6.05887203477323055267333984375">
        <ele>1247.5999755859375</ele>
        <time>2021-08-18T09:33:37.000Z</time>
      </trkpt>
      <trkpt lat="43.0824896134436130523681640625" lon="-6.0588528402149677276611328125">
        <ele>1247.199951171875</ele>
        <time>2021-08-18T09:33:41.000Z</time>
      </trkpt>
      <trkpt lat="43.0824933014810085296630859375" lon="-6.05884688906371593475341796875">
        <ele>1247.199951171875</ele>
        <time>2021-08-18T09:33:42.000Z</time>
      </trkpt>
      <trkpt lat="43.08249724097549915313720703125" lon="-6.0588370822370052337646484375">
        <ele>1247</ele>
        <time>2021-08-18T09:33:44.000Z</time>
      </trkpt>
      <trkpt lat="43.08253495953977108001708984375" lon="-6.05884286575019359588623046875">
        <ele>1246.800048828125</ele>
        <time>2021-08-18T09:33:50.000Z</time>
      </trkpt>
      <trkpt lat="43.0825999192893505096435546875" lon="-6.05883129872381687164306640625">
        <ele>1246</ele>
        <time>2021-08-18T09:33:56.000Z</time>
      </trkpt>
      <trkpt lat="43.08260436169803142547607421875" lon="-6.0588327236473560333251953125">
        <ele>1245.800048828125</ele>
        <time>2021-08-18T09:33:57.000Z</time>
      </trkpt>
      <trkpt lat="43.08262229897081851959228515625" lon="-6.0588283650577068328857421875">
        <ele>1245.5999755859375</ele>
        <time>2021-08-18T09:33:59.000Z</time>
      </trkpt>
      <trkpt lat="43.08263889513909816741943359375" lon="-6.0588253475725650787353515625">
        <ele>1245.5999755859375</ele>
        <time>2021-08-18T09:34:01.000Z</time>
      </trkpt>
      <trkpt lat="43.08265381492674350738525390625" lon="-6.0588256828486919403076171875">
        <ele>1245.4000244140625</ele>
        <time>2021-08-18T09:34:03.000Z</time>
      </trkpt>
      <trkpt lat="43.082702346146106719970703125" lon="-6.05883884243667125701904296875">
        <ele>1245.4000244140625</ele>
        <time>2021-08-18T09:34:08.000Z</time>
      </trkpt>
      <trkpt lat="43.08272522874176502227783203125" lon="-6.05883012525737285614013671875">
        <ele>1245.5999755859375</ele>
        <time>2021-08-18T09:34:12.000Z</time>
      </trkpt>
      <trkpt lat="43.08272254653275012969970703125" lon="-6.0588271915912628173828125">
        <ele>1245.5999755859375</ele>
        <time>2021-08-18T09:34:13.000Z</time>
      </trkpt>
      <trkpt lat="43.0826884321868419647216796875" lon="-6.05876809917390346527099609375">
        <ele>1245.199951171875</ele>
        <time>2021-08-18T09:34:18.000Z</time>
      </trkpt>
      <trkpt lat="43.08269002474844455718994140625" lon="-6.05875602923333644866943359375">
        <ele>1245.199951171875</ele>
        <time>2021-08-18T09:34:19.000Z</time>
      </trkpt>
      <trkpt lat="43.08269522152841091156005859375" lon="-6.0587408579885959625244140625">
        <ele>1245</ele>
        <time>2021-08-18T09:34:21.000Z</time>
      </trkpt>
      <trkpt lat="43.08271768502891063690185546875" lon="-6.05872233398258686065673828125">
        <ele>1244.800048828125</ele>
        <time>2021-08-18T09:34:22.000Z</time>
      </trkpt>
      <trkpt lat="43.0827578343451023101806640625" lon="-6.05869132094085216522216796875">
        <ele>1244.800048828125</ele>
        <time>2021-08-18T09:34:24.000Z</time>
      </trkpt>
      <trkpt lat="43.08276898227632045745849609375" lon="-6.05868578888475894927978515625">
        <ele>1244.800048828125</ele>
        <time>2021-08-18T09:34:25.000Z</time>
      </trkpt>
      <trkpt lat="43.08281005360186100006103515625" lon="-6.05869148857891559600830078125">
        <ele>1244.5999755859375</ele>
        <time>2021-08-18T09:34:27.000Z</time>
      </trkpt>
      <trkpt lat="43.08286964893341064453125" lon="-6.0586902312934398651123046875">
        <ele>1244.199951171875</ele>
        <time>2021-08-18T09:34:34.000Z</time>
      </trkpt>
      <trkpt lat="43.0828869156539440155029296875" lon="-6.05868763290345668792724609375">
        <ele>1244</ele>
        <time>2021-08-18T09:34:35.000Z</time>
      </trkpt>
      <trkpt lat="43.08289303444325923919677734375" lon="-6.0586835257709026336669921875">
        <ele>1243.5999755859375</ele>
        <time>2021-08-18T09:34:36.000Z</time>
      </trkpt>
      <trkpt lat="43.082912899553775787353515625" lon="-6.058680005371570587158203125">
        <ele>1242.5999755859375</ele>
        <time>2021-08-18T09:34:41.000Z</time>
      </trkpt>
      <trkpt lat="43.08292672969400882720947265625" lon="-6.0586811788380146026611328125">
        <ele>1242.199951171875</ele>
        <time>2021-08-18T09:34:44.000Z</time>
      </trkpt>
      <trkpt lat="43.082949779927730560302734375" lon="-6.05868092738091945648193359375">
        <ele>1242</ele>
        <time>2021-08-18T09:34:46.000Z</time>
      </trkpt>
      <trkpt lat="43.08298473246395587921142578125" lon="-6.0586932487785816192626953125">
        <ele>1241.5999755859375</ele>
        <time>2021-08-18T09:34:49.000Z</time>
      </trkpt>
      <trkpt lat="43.0830096267163753509521484375" lon="-6.05872484855353832244873046875">
        <ele>1240.800048828125</ele>
        <time>2021-08-18T09:34:52.000Z</time>
      </trkpt>
      <trkpt lat="43.0830116383731365203857421875" lon="-6.0587328113615512847900390625">
        <ele>1240.5999755859375</ele>
        <time>2021-08-18T09:34:53.000Z</time>
      </trkpt>
      <trkpt lat="43.0830223672091960906982421875" lon="-6.0587418638169765472412109375">
        <ele>1240.4000244140625</ele>
        <time>2021-08-18T09:34:55.000Z</time>
      </trkpt>
      <trkpt lat="43.08305136859416961669921875" lon="-6.0587494075298309326171875">
        <ele>1239.800048828125</ele>
        <time>2021-08-18T09:35:00.000Z</time>
      </trkpt>
      <trkpt lat="43.08306167833507061004638671875" lon="-6.058746390044689178466796875">
        <ele>1239.199951171875</ele>
        <time>2021-08-18T09:35:02.000Z</time>
      </trkpt>
      <trkpt lat="43.08306972496211528778076171875" lon="-6.0587494075298309326171875">
        <ele>1239</ele>
        <time>2021-08-18T09:35:03.000Z</time>
      </trkpt>
      <trkpt lat="43.08309889398515224456787109375" lon="-6.0587683506309986114501953125">
        <ele>1238.199951171875</ele>
        <time>2021-08-18T09:35:06.000Z</time>
      </trkpt>
      <trkpt lat="43.083106018602848052978515625" lon="-6.05878117494285106658935546875">
        <ele>1238</ele>
        <time>2021-08-18T09:35:07.000Z</time>
      </trkpt>
      <trkpt lat="43.0831123888492584228515625" lon="-6.05879341252148151397705078125">
        <ele>1237.800048828125</ele>
        <time>2021-08-18T09:35:08.000Z</time>
      </trkpt>
      <trkpt lat="43.0831293202936649322509765625" lon="-6.05881654657423496246337890625">
        <ele>1237.4000244140625</ele>
        <time>2021-08-18T09:35:10.000Z</time>
      </trkpt>
      <trkpt lat="43.0831390433013439178466796875" lon="-6.0588236711919307708740234375">
        <ele>1237.4000244140625</ele>
        <time>2021-08-18T09:35:11.000Z</time>
      </trkpt>
      <trkpt lat="43.0831574834883213043212890625" lon="-6.058840937912464141845703125">
        <ele>1237.199951171875</ele>
        <time>2021-08-18T09:35:13.000Z</time>
      </trkpt>
      <trkpt lat="43.08321473188698291778564453125" lon="-6.0588967613875865936279296875">
        <ele>1236</ele>
        <time>2021-08-18T09:35:20.000Z</time>
      </trkpt>
      <trkpt lat="43.08322370052337646484375" lon="-6.05890841223299503326416015625">
        <ele>1235.800048828125</ele>
        <time>2021-08-18T09:35:21.000Z</time>
      </trkpt>
      <trkpt lat="43.08326686732470989227294921875" lon="-6.05897647328674793243408203125">
        <ele>1235.800048828125</ele>
        <time>2021-08-18T09:35:27.000Z</time>
      </trkpt>
      <trkpt lat="43.0832694657146930694580078125" lon="-6.05898384936153888702392578125">
        <ele>1235.800048828125</ele>
        <time>2021-08-18T09:35:28.000Z</time>
      </trkpt>
      <trkpt lat="43.08328279294073581695556640625" lon="-6.0590211488306522369384765625">
        <ele>1235.4000244140625</ele>
        <time>2021-08-18T09:35:33.000Z</time>
      </trkpt>
      <trkpt lat="43.083300478756427764892578125" lon="-6.0590496473014354705810546875">
        <ele>1235</ele>
        <time>2021-08-18T09:35:37.000Z</time>
      </trkpt>
      <trkpt lat="43.08332151733338832855224609375" lon="-6.05906615965068340301513671875">
        <ele>1234.5999755859375</ele>
        <time>2021-08-18T09:35:39.000Z</time>
      </trkpt>
      <trkpt lat="43.083439953625202178955078125" lon="-6.05912424623966217041015625">
        <ele>1233.800048828125</ele>
        <time>2021-08-18T09:35:49.000Z</time>
      </trkpt>
      <trkpt lat="43.08347356505692005157470703125" lon="-6.05915048159658908843994140625">
        <ele>1233.5999755859375</ele>
        <time>2021-08-18T09:35:52.000Z</time>
      </trkpt>
      <trkpt lat="43.083487562835216522216796875" lon="-6.05915567837655544281005859375">
        <ele>1233.199951171875</ele>
        <time>2021-08-18T09:35:54.000Z</time>
      </trkpt>
      <trkpt lat="43.08349250815808773040771484375" lon="-6.059160120785236358642578125">
        <ele>1233</ele>
        <time>2021-08-18T09:35:55.000Z</time>
      </trkpt>
      <trkpt lat="43.08349954895675182342529296875" lon="-6.059166491031646728515625">
        <ele>1232.800048828125</ele>
        <time>2021-08-18T09:35:56.000Z</time>
      </trkpt>
      <trkpt lat="43.0835199169814586639404296875" lon="-6.0591780580580234527587890625">
        <ele>1232.800048828125</ele>
        <time>2021-08-18T09:35:58.000Z</time>
      </trkpt>
      <trkpt lat="43.0835702084004878997802734375" lon="-6.0591941513121128082275390625">
        <ele>1232.5999755859375</ele>
        <time>2021-08-18T09:36:04.000Z</time>
      </trkpt>
      <trkpt lat="43.08358303271234035491943359375" lon="-6.0592032037675380706787109375">
        <ele>1232.4000244140625</ele>
        <time>2021-08-18T09:36:06.000Z</time>
      </trkpt>
      <trkpt lat="43.0835936777293682098388671875" lon="-6.0592082329094409942626953125">
        <ele>1232.4000244140625</ele>
        <time>2021-08-18T09:36:07.000Z</time>
      </trkpt>
      <trkpt lat="43.0836032330989837646484375" lon="-6.05921016074717044830322265625">
        <ele>1232.4000244140625</ele>
        <time>2021-08-18T09:36:08.000Z</time>
      </trkpt>
      <trkpt lat="43.0836117826402187347412109375" lon="-6.05920563451945781707763671875">
        <ele>1232.4000244140625</ele>
        <time>2021-08-18T09:36:09.000Z</time>
      </trkpt>
      <trkpt lat="43.0836218409240245819091796875" lon="-6.0592001862823963165283203125">
        <ele>1232.4000244140625</ele>
        <time>2021-08-18T09:36:10.000Z</time>
      </trkpt>
      <trkpt lat="43.08366567827761173248291015625" lon="-6.05916473083198070526123046875">
        <ele>1231.800048828125</ele>
        <time>2021-08-18T09:36:15.000Z</time>
      </trkpt>
      <trkpt lat="43.0836734734475612640380859375" lon="-6.05915911495685577392578125">
        <ele>1231.800048828125</ele>
        <time>2021-08-18T09:36:16.000Z</time>
      </trkpt>
      <trkpt lat="43.08367774821817874908447265625" lon="-6.05914930813014507293701171875">
        <ele>1231.5999755859375</ele>
        <time>2021-08-18T09:36:18.000Z</time>
      </trkpt>
      <trkpt lat="43.0836939252912998199462890625" lon="-6.05916154570877552032470703125">
        <ele>1231</ele>
        <time>2021-08-18T09:36:22.000Z</time>
      </trkpt>
      <trkpt lat="43.08370440267026424407958984375" lon="-6.0591659881174564361572265625">
        <ele>1230.5999755859375</ele>
        <time>2021-08-18T09:36:24.000Z</time>
      </trkpt>
      <trkpt lat="43.0837197415530681610107421875" lon="-6.05917118489742279052734375">
        <ele>1229.800048828125</ele>
        <time>2021-08-18T09:36:27.000Z</time>
      </trkpt>
      <trkpt lat="43.083730638027191162109375" lon="-6.0591736994683742523193359375">
        <ele>1229.4000244140625</ele>
        <time>2021-08-18T09:36:29.000Z</time>
      </trkpt>
      <trkpt lat="43.08374346233904361724853515625" lon="-6.05916473083198070526123046875">
        <ele>1229.199951171875</ele>
        <time>2021-08-18T09:36:32.000Z</time>
      </trkpt>
      <trkpt lat="43.083757124841213226318359375" lon="-6.059166155755519866943359375">
        <ele>1229</ele>
        <time>2021-08-18T09:36:34.000Z</time>
      </trkpt>
      <trkpt lat="43.08376559056341648101806640625" lon="-6.05916204862296581268310546875">
        <ele>1228.800048828125</ele>
        <time>2021-08-18T09:36:36.000Z</time>
      </trkpt>
      <trkpt lat="43.0837683565914630889892578125" lon="-6.05915911495685577392578125">
        <ele>1228.5999755859375</ele>
        <time>2021-08-18T09:36:37.000Z</time>
      </trkpt>
      <trkpt lat="43.08377397246658802032470703125" lon="-6.05915769003331661224365234375">
        <ele>1228.199951171875</ele>
        <time>2021-08-18T09:36:38.000Z</time>
      </trkpt>
      <trkpt lat="43.08377816341817378997802734375" lon="-6.05915375053882598876953125">
        <ele>1228</ele>
        <time>2021-08-18T09:36:40.000Z</time>
      </trkpt>
      <trkpt lat="43.0837854556739330291748046875" lon="-6.05915852822363376617431640625">
        <ele>1227.5999755859375</ele>
        <time>2021-08-18T09:36:44.000Z</time>
      </trkpt>
      <trkpt lat="43.0837911553680896759033203125" lon="-6.0591629706323146820068359375">
        <ele>1227.4000244140625</ele>
        <time>2021-08-18T09:36:45.000Z</time>
      </trkpt>
      <trkpt lat="43.08380263857543468475341796875" lon="-6.05916808359324932098388671875">
        <ele>1227.4000244140625</ele>
        <time>2021-08-18T09:36:46.000Z</time>
      </trkpt>
      <trkpt lat="43.08382761664688587188720703125" lon="-6.0591850988566875457763671875">
        <ele>1227.199951171875</ele>
        <time>2021-08-18T09:36:49.000Z</time>
      </trkpt>
      <trkpt lat="43.08383457362651824951171875" lon="-6.05918937362730503082275390625">
        <ele>1227.199951171875</ele>
        <time>2021-08-18T09:36:50.000Z</time>
      </trkpt>
      <trkpt lat="43.0839235894381999969482421875" lon="-6.059177555143833160400390625">
        <ele>1227.800048828125</ele>
        <time>2021-08-18T09:36:57.000Z</time>
      </trkpt>
      <trkpt lat="43.08396399021148681640625" lon="-6.0591475479304790496826171875">
        <ele>1228</ele>
        <time>2021-08-18T09:37:00.000Z</time>
      </trkpt>
      <trkpt lat="43.08397362940013408660888671875" lon="-6.0591391660273075103759765625">
        <ele>1228</ele>
        <time>2021-08-18T09:37:01.000Z</time>
      </trkpt>
      <trkpt lat="43.08398854918777942657470703125" lon="-6.05913187377154827117919921875">
        <ele>1228.199951171875</ele>
        <time>2021-08-18T09:37:02.000Z</time>
      </trkpt>
      <trkpt lat="43.084039427340030670166015625" lon="-6.05908359400928020477294921875">
        <ele>1227.5999755859375</ele>
        <time>2021-08-18T09:37:07.000Z</time>
      </trkpt>
      <trkpt lat="43.08404688723385334014892578125" lon="-6.0590766370296478271484375">
        <ele>1227.4000244140625</ele>
        <time>2021-08-18T09:37:08.000Z</time>
      </trkpt>
      <trkpt lat="43.08408158831298351287841796875" lon="-6.05901855044066905975341796875">
        <ele>1226</ele>
        <time>2021-08-18T09:37:15.000Z</time>
      </trkpt>
      <trkpt lat="43.08409231714904308319091796875" lon="-6.0589990206062793731689453125">
        <ele>1226</ele>
        <time>2021-08-18T09:37:17.000Z</time>
      </trkpt>
      <trkpt lat="43.0841012857854366302490234375" lon="-6.0589946620166301727294921875">
        <ele>1225.800048828125</ele>
        <time>2021-08-18T09:37:18.000Z</time>
      </trkpt>
      <trkpt lat="43.084107823669910430908203125" lon="-6.0589899681508541107177734375">
        <ele>1225.5999755859375</ele>
        <time>2021-08-18T09:37:19.000Z</time>
      </trkpt>
      <trkpt lat="43.084158785641193389892578125" lon="-6.05897429399192333221435546875">
        <ele>1225</ele>
        <time>2021-08-18T09:37:23.000Z</time>
      </trkpt>
      <trkpt lat="43.084196336567401885986328125" lon="-6.05897144414484500885009765625">
        <ele>1224.5999755859375</ele>
        <time>2021-08-18T09:37:26.000Z</time>
      </trkpt>
      <trkpt lat="43.08422374539077281951904296875" lon="-6.058968007564544677734375">
        <ele>1224.4000244140625</ele>
        <time>2021-08-18T09:37:28.000Z</time>
      </trkpt>
      <trkpt lat="43.0842384137213230133056640625" lon="-6.0589607991278171539306640625">
        <ele>1224.199951171875</ele>
        <time>2021-08-18T09:37:30.000Z</time>
      </trkpt>
      <trkpt lat="43.08424872346222400665283203125" lon="-6.05895551852881908416748046875">
        <ele>1224</ele>
        <time>2021-08-18T09:37:32.000Z</time>
      </trkpt>
      <trkpt lat="43.08425542898476123809814453125" lon="-6.05895459651947021484375">
        <ele>1223.800048828125</ele>
        <time>2021-08-18T09:37:33.000Z</time>
      </trkpt>
      <trkpt lat="43.08428585529327392578125" lon="-6.058952920138835906982421875">
        <ele>1223.199951171875</ele>
        <time>2021-08-18T09:37:37.000Z</time>
      </trkpt>
      <trkpt lat="43.08430052362382411956787109375" lon="-6.05894529260694980621337890625">
        <ele>1222.5999755859375</ele>
        <time>2021-08-18T09:37:39.000Z</time>
      </trkpt>
      <trkpt lat="43.08433078229427337646484375" lon="-6.05894914828240871429443359375">
        <ele>1222.4000244140625</ele>
        <time>2021-08-18T09:37:44.000Z</time>
      </trkpt>
      <trkpt lat="43.08433505706489086151123046875" lon="-6.0589504055678844451904296875">
        <ele>1222.199951171875</ele>
        <time>2021-08-18T09:37:45.000Z</time>
      </trkpt>
      <trkpt lat="43.08436959050595760345458984375" lon="-6.0589450411498546600341796875">
        <ele>1222</ele>
        <time>2021-08-18T09:37:49.000Z</time>
      </trkpt>
      <trkpt lat="43.0843839235603809356689453125" lon="-6.0589425265789031982421875">
        <ele>1221.800048828125</ele>
        <time>2021-08-18T09:37:51.000Z</time>
      </trkpt>
      <trkpt lat="43.08440680615603923797607421875" lon="-6.05894613079726696014404296875">
        <ele>1221.5999755859375</ele>
        <time>2021-08-18T09:37:53.000Z</time>
      </trkpt>
      <trkpt lat="43.0844087339937686920166015625" lon="-6.05894613079726696014404296875">
        <ele>1221.5999755859375</ele>
        <time>2021-08-18T09:37:54.000Z</time>
      </trkpt>
      <trkpt lat="43.08442809619009494781494140625" lon="-6.05893154628574848175048828125">
        <ele>1221.199951171875</ele>
        <time>2021-08-18T09:37:58.000Z</time>
      </trkpt>
      <trkpt lat="43.08445391245186328887939453125" lon="-6.05892500840127468109130859375">
        <ele>1221.199951171875</ele>
        <time>2021-08-18T09:38:01.000Z</time>
      </trkpt>
      <trkpt lat="43.0845005996525287628173828125" lon="-6.0589245893061161041259765625">
        <ele>1221</ele>
        <time>2021-08-18T09:38:05.000Z</time>
      </trkpt>
      <trkpt lat="43.0845220573246479034423828125" lon="-6.05892534367740154266357421875">
        <ele>1221.199951171875</ele>
        <time>2021-08-18T09:38:07.000Z</time>
      </trkpt>
      <trkpt lat="43.0845619551837444305419921875" lon="-6.05892601422965526580810546875">
        <ele>1221</ele>
        <time>2021-08-18T09:38:11.000Z</time>
      </trkpt>
      <trkpt lat="43.08457075618207454681396484375" lon="-6.0589245893061161041259765625">
        <ele>1221</ele>
        <time>2021-08-18T09:38:12.000Z</time>
      </trkpt>
      <trkpt lat="43.0845817364752292633056640625" lon="-6.0589255951344966888427734375">
        <ele>1221</ele>
        <time>2021-08-18T09:38:13.000Z</time>
      </trkpt>
      <trkpt lat="43.08466605842113494873046875" lon="-6.058919392526149749755859375">
        <ele>1220.800048828125</ele>
        <time>2021-08-18T09:38:20.000Z</time>
      </trkpt>
      <trkpt lat="43.0846779607236385345458984375" lon="-6.0589198954403400421142578125">
        <ele>1220.800048828125</ele>
        <time>2021-08-18T09:38:21.000Z</time>
      </trkpt>
      <trkpt lat="43.08471224270761013031005859375" lon="-6.05890774168074131011962890625">
        <ele>1220.5999755859375</ele>
        <time>2021-08-18T09:38:23.000Z</time>
      </trkpt>
      <trkpt lat="43.08473655022680759429931640625" lon="-6.05889600701630115509033203125">
        <ele>1220.5999755859375</ele>
        <time>2021-08-18T09:38:24.000Z</time>
      </trkpt>
      <trkpt lat="43.084789104759693145751953125" lon="-6.0588625632226467132568359375">
        <ele>1220.5999755859375</ele>
        <time>2021-08-18T09:38:28.000Z</time>
      </trkpt>
      <trkpt lat="43.08481466956436634063720703125" lon="-6.05881218798458576202392578125">
        <ele>1220.5999755859375</ele>
        <time>2021-08-18T09:38:31.000Z</time>
      </trkpt>
      <trkpt lat="43.08481852523982524871826171875" lon="-6.0587519221007823944091796875">
        <ele>1220.800048828125</ele>
        <time>2021-08-18T09:38:36.000Z</time>
      </trkpt>
      <trkpt lat="43.08485590852797031402587890625" lon="-6.05867506004869937896728515625">
        <ele>1220.800048828125</ele>
        <time>2021-08-18T09:38:43.000Z</time>
      </trkpt>
      <trkpt lat="43.08486479334533214569091796875" lon="-6.0586637444794178009033203125">
        <ele>1220.800048828125</ele>
        <time>2021-08-18T09:38:44.000Z</time>
      </trkpt>
      <trkpt lat="43.08487921021878719329833984375" lon="-6.0586501657962799072265625">
        <ele>1220.800048828125</ele>
        <time>2021-08-18T09:38:45.000Z</time>
      </trkpt>
      <trkpt lat="43.0848962254822254180908203125" lon="-6.0586339049041271209716796875">
        <ele>1220.800048828125</ele>
        <time>2021-08-18T09:38:46.000Z</time>
      </trkpt>
      <trkpt lat="43.08493117801845073699951171875" lon="-6.0585343278944492340087890625">
        <ele>1221.199951171875</ele>
        <time>2021-08-18T09:38:52.000Z</time>
      </trkpt>
      <trkpt lat="43.08495439589023590087890625" lon="-6.05850289575755596160888671875">
        <ele>1221.4000244140625</ele>
        <time>2021-08-18T09:38:56.000Z</time>
      </trkpt>
      <trkpt lat="43.08497074060142040252685546875" lon="-6.058456040918827056884765625">
        <ele>1222</ele>
        <time>2021-08-18T09:39:01.000Z</time>
      </trkpt>
      <trkpt lat="43.08498767204582691192626953125" lon="-6.05843081139028072357177734375">
        <ele>1222.4000244140625</ele>
        <time>2021-08-18T09:39:04.000Z</time>
      </trkpt>
      <trkpt lat="43.0849958024919033050537109375" lon="-6.05842058546841144561767578125">
        <ele>1222.4000244140625</ele>
        <time>2021-08-18T09:39:05.000Z</time>
      </trkpt>
      <trkpt lat="43.085009716451168060302734375" lon="-6.05839527212083339691162109375">
        <ele>1222.5999755859375</ele>
        <time>2021-08-18T09:39:07.000Z</time>
      </trkpt>
      <trkpt lat="43.08503511361777782440185546875" lon="-6.0583680309355258941650390625">
        <ele>1222.800048828125</ele>
        <time>2021-08-18T09:39:10.000Z</time>
      </trkpt>
      <trkpt lat="43.0850541405379772186279296875" lon="-6.058301143348217010498046875">
        <ele>1223</ele>
        <time>2021-08-18T09:39:15.000Z</time>
      </trkpt>
      <trkpt lat="43.08505455963313579559326171875" lon="-6.05827440507709980010986328125">
        <ele>1223</ele>
        <time>2021-08-18T09:39:17.000Z</time>
      </trkpt>
      <trkpt lat="43.08505355380475521087646484375" lon="-6.058258898556232452392578125">
        <ele>1223.199951171875</ele>
        <time>2021-08-18T09:39:18.000Z</time>
      </trkpt>
      <trkpt lat="43.085052967071533203125" lon="-6.058242805302143096923828125">
        <ele>1223.199951171875</ele>
        <time>2021-08-18T09:39:19.000Z</time>
      </trkpt>
      <trkpt lat="43.0850531347095966339111328125" lon="-6.05823048390448093414306640625">
        <ele>1223.199951171875</ele>
        <time>2021-08-18T09:39:20.000Z</time>
      </trkpt>
      <trkpt lat="43.08505942113697528839111328125" lon="-6.05821254663169384002685546875">
        <ele>1223.199951171875</ele>
        <time>2021-08-18T09:39:22.000Z</time>
      </trkpt>
      <trkpt lat="43.08506570756435394287109375" lon="-6.05813719332218170166015625">
        <ele>1223.4000244140625</ele>
        <time>2021-08-18T09:39:26.000Z</time>
      </trkpt>
      <trkpt lat="43.08507484383881092071533203125" lon="-6.058112047612667083740234375">
        <ele>1223.800048828125</ele>
        <time>2021-08-18T09:39:28.000Z</time>
      </trkpt>
      <trkpt lat="43.08507853187620639801025390625" lon="-6.0580625943839550018310546875">
        <ele>1224.199951171875</ele>
        <time>2021-08-18T09:39:31.000Z</time>
      </trkpt>
      <trkpt lat="43.08508305810391902923583984375" lon="-6.0580480098724365234375">
        <ele>1224.199951171875</ele>
        <time>2021-08-18T09:39:32.000Z</time>
      </trkpt>
      <trkpt lat="43.0850393883883953094482421875" lon="-6.0579697228968143463134765625">
        <ele>1224.5999755859375</ele>
        <time>2021-08-18T09:39:37.000Z</time>
      </trkpt>
      <trkpt lat="43.0850273184478282928466796875" lon="-6.05794851668179035186767578125">
        <ele>1224.4000244140625</ele>
        <time>2021-08-18T09:39:39.000Z</time>
      </trkpt>
      <trkpt lat="43.08503746055066585540771484375" lon="-6.05793762020766735076904296875">
        <ele>1224.4000244140625</ele>
        <time>2021-08-18T09:39:41.000Z</time>
      </trkpt>
      <trkpt lat="43.08505321852862834930419921875" lon="-6.05791884474456310272216796875">
        <ele>1224.4000244140625</ele>
        <time>2021-08-18T09:39:45.000Z</time>
      </trkpt>
      <trkpt lat="43.08506495319306850433349609375" lon="-6.05791515670716762542724609375">
        <ele>1224.4000244140625</ele>
        <time>2021-08-18T09:39:47.000Z</time>
      </trkpt>
      <trkpt lat="43.08506830595433712005615234375" lon="-6.05788649059832096099853515625">
        <ele>1224.4000244140625</ele>
        <time>2021-08-18T09:39:52.000Z</time>
      </trkpt>
      <trkpt lat="43.08509211055934429168701171875" lon="-6.05784223414957523345947265625">
        <ele>1224.5999755859375</ele>
        <time>2021-08-18T09:39:56.000Z</time>
      </trkpt>
      <trkpt lat="43.08510300703346729278564453125" lon="-6.05783066712319850921630859375">
        <ele>1224.5999755859375</ele>
        <time>2021-08-18T09:39:57.000Z</time>
      </trkpt>
      <trkpt lat="43.085112310945987701416015625" lon="-6.0578195191919803619384765625">
        <ele>1224.800048828125</ele>
        <time>2021-08-18T09:39:58.000Z</time>
      </trkpt>
      <trkpt lat="43.08509948663413524627685546875" lon="-6.057637296617031097412109375">
        <ele>1225.199951171875</ele>
        <time>2021-08-18T09:40:06.000Z</time>
      </trkpt>
      <trkpt lat="43.0850836448371410369873046875" lon="-6.05751818977296352386474609375">
        <ele>1225.5999755859375</ele>
        <time>2021-08-18T09:40:11.000Z</time>
      </trkpt>
      <trkpt lat="43.08510837145149707794189453125" lon="-6.05747661553323268890380859375">
        <ele>1225.5999755859375</ele>
        <time>2021-08-18T09:40:16.000Z</time>
      </trkpt>
      <trkpt lat="43.08514173142611980438232421875" lon="-6.0574832372367382049560546875">
        <ele>1225.4000244140625</ele>
        <time>2021-08-18T09:40:19.000Z</time>
      </trkpt>
      <trkpt lat="43.08516561985015869140625" lon="-6.057487763464450836181640625">
        <ele>1224.5999755859375</ele>
        <time>2021-08-18T09:40:22.000Z</time>
      </trkpt>
      <trkpt lat="43.08518716134130954742431640625" lon="-6.0574604384601116180419921875">
        <ele>1223.800048828125</ele>
        <time>2021-08-18T09:40:27.000Z</time>
      </trkpt>
      <trkpt lat="43.08521012775599956512451171875" lon="-6.057462282478809356689453125">
        <ele>1223.5999755859375</ele>
        <time>2021-08-18T09:40:29.000Z</time>
      </trkpt>
      <trkpt lat="43.08524818159639835357666015625" lon="-6.0574592649936676025390625">
        <ele>1222.800048828125</ele>
        <time>2021-08-18T09:40:36.000Z</time>
      </trkpt>
      <trkpt lat="43.08526326902210712432861328125" lon="-6.0574423335492610931396484375">
        <ele>1222.5999755859375</ele>
        <time>2021-08-18T09:40:37.000Z</time>
      </trkpt>
      <trkpt lat="43.085263855755329132080078125" lon="-6.05743101797997951507568359375">
        <ele>1222.4000244140625</ele>
        <time>2021-08-18T09:40:41.000Z</time>
      </trkpt>
      <trkpt lat="43.0852623470127582550048828125" lon="-6.05742833577096462249755859375">
        <ele>1222</ele>
        <time>2021-08-18T09:40:43.000Z</time>
      </trkpt>
      <trkpt lat="43.085274584591388702392578125" lon="-6.05742682702839374542236328125">
        <ele>1221.800048828125</ele>
        <time>2021-08-18T09:40:44.000Z</time>
      </trkpt>
      <trkpt lat="43.08528296649456024169921875" lon="-6.0574225522577762603759765625">
        <ele>1221.800048828125</ele>
        <time>2021-08-18T09:40:45.000Z</time>
      </trkpt>
      <trkpt lat="43.08529101312160491943359375" lon="-6.05742112733423709869384765625">
        <ele>1221.5999755859375</ele>
        <time>2021-08-18T09:40:46.000Z</time>
      </trkpt>
      <trkpt lat="43.08531020767986774444580078125" lon="-6.05741827748715877532958984375">
        <ele>1221.4000244140625</ele>
        <time>2021-08-18T09:40:48.000Z</time>
      </trkpt>
      <trkpt lat="43.0853332579135894775390625" lon="-6.05741442181169986724853515625">
        <ele>1221.4000244140625</ele>
        <time>2021-08-18T09:40:50.000Z</time>
      </trkpt>
      <trkpt lat="43.0853223614394664764404296875" lon="-6.0574138350784778594970703125">
        <ele>1221</ele>
        <time>2021-08-18T09:40:52.000Z</time>
      </trkpt>
      <trkpt lat="43.0853304080665111541748046875" lon="-6.05740536935627460479736328125">
        <ele>1220.800048828125</ele>
        <time>2021-08-18T09:40:53.000Z</time>
      </trkpt>
      <trkpt lat="43.08536737225949764251708984375" lon="-6.05740117840468883514404296875">
        <ele>1220.5999755859375</ele>
        <time>2021-08-18T09:40:55.000Z</time>
      </trkpt>
      <trkpt lat="43.08541732840240001678466796875" lon="-6.05741458944976329803466796875">
        <ele>1220.4000244140625</ele>
        <time>2021-08-18T09:40:58.000Z</time>
      </trkpt>
      <trkpt lat="43.08543174527585506439208984375" lon="-6.05741676874458789825439453125">
        <ele>1220.4000244140625</ele>
        <time>2021-08-18T09:40:59.000Z</time>
      </trkpt>
      <trkpt lat="43.0854742415249347686767578125" lon="-6.05741433799266815185546875">
        <ele>1220.4000244140625</ele>
        <time>2021-08-18T09:41:02.000Z</time>
      </trkpt>
      <trkpt lat="43.0854888260364532470703125" lon="-6.0574131645262241363525390625">
        <ele>1220.4000244140625</ele>
        <time>2021-08-18T09:41:03.000Z</time>
      </trkpt>
      <trkpt lat="43.085512630641460418701171875" lon="-6.05740855447947978973388671875">
        <ele>1220</ele>
        <time>2021-08-18T09:41:06.000Z</time>
      </trkpt>
      <trkpt lat="43.0855252034962177276611328125" lon="-6.05739715509116649627685546875">
        <ele>1219.800048828125</ele>
        <time>2021-08-18T09:41:08.000Z</time>
      </trkpt>
      <trkpt lat="43.08555864728987216949462890625" lon="-6.0574044473469257354736328125">
        <ele>1219.5999755859375</ele>
        <time>2021-08-18T09:41:11.000Z</time>
      </trkpt>
      <trkpt lat="43.08556719683110713958740234375" lon="-6.0574061237275600433349609375">
        <ele>1219.5999755859375</ele>
        <time>2021-08-18T09:41:12.000Z</time>
      </trkpt>
      <trkpt lat="43.0855986289680004119873046875" lon="-6.0574121586978435516357421875">
        <ele>1219.5999755859375</ele>
        <time>2021-08-18T09:41:15.000Z</time>
      </trkpt>
      <trkpt lat="43.08560659177601337432861328125" lon="-6.05741777457296848297119140625">
        <ele>1219.4000244140625</ele>
        <time>2021-08-18T09:41:16.000Z</time>
      </trkpt>
      <trkpt lat="43.08563944883644580841064453125" lon="-6.05743872933089733123779296875">
        <ele>1219.199951171875</ele>
        <time>2021-08-18T09:41:19.000Z</time>
      </trkpt>
      <trkpt lat="43.08568269945681095123291015625" lon="-6.057461611926555633544921875">
        <ele>1218.800048828125</ele>
        <time>2021-08-18T09:41:23.000Z</time>
      </trkpt>
      <trkpt lat="43.08570516295731067657470703125" lon="-6.057474352419376373291015625">
        <ele>1218.5999755859375</ele>
        <time>2021-08-18T09:41:25.000Z</time>
      </trkpt>
      <trkpt lat="43.08572595007717609405517578125" lon="-6.057481057941913604736328125">
        <ele>1218.4000244140625</ele>
        <time>2021-08-18T09:41:27.000Z</time>
      </trkpt>
      <trkpt lat="43.08575763367116451263427734375" lon="-6.05748474597930908203125">
        <ele>1218.199951171875</ele>
        <time>2021-08-18T09:41:30.000Z</time>
      </trkpt>
      <trkpt lat="43.08576978743076324462890625" lon="-6.05748550035059452056884765625">
        <ele>1218.199951171875</ele>
        <time>2021-08-18T09:41:31.000Z</time>
      </trkpt>
      <trkpt lat="43.085819743573665618896484375" lon="-6.05748533271253108978271484375">
        <ele>1217.5999755859375</ele>
        <time>2021-08-18T09:41:36.000Z</time>
      </trkpt>
      <trkpt lat="43.08583013713359832763671875" lon="-6.05748533271253108978271484375">
        <ele>1217.5999755859375</ele>
        <time>2021-08-18T09:41:37.000Z</time>
      </trkpt>
      <trkpt lat="43.08585402555763721466064453125" lon="-6.05748675763607025146484375">
        <ele>1217.4000244140625</ele>
        <time>2021-08-18T09:41:39.000Z</time>
      </trkpt>
      <trkpt lat="43.08587883599102497100830078125" lon="-6.05749673210084438323974609375">
        <ele>1217.4000244140625</ele>
        <time>2021-08-18T09:41:42.000Z</time>
      </trkpt>
      <trkpt lat="43.08602862060070037841796875" lon="-6.0575278289616107940673828125">
        <ele>1217</ele>
        <time>2021-08-18T09:41:54.000Z</time>
      </trkpt>
      <trkpt lat="43.08603624813258647918701171875" lon="-6.05752833187580108642578125">
        <ele>1217</ele>
        <time>2021-08-18T09:41:55.000Z</time>
      </trkpt>
      <trkpt lat="43.0860467255115509033203125" lon="-6.0575298406183719635009765625">
        <ele>1217.199951171875</ele>
        <time>2021-08-18T09:41:56.000Z</time>
      </trkpt>
      <trkpt lat="43.08609240688383579254150390625" lon="-6.0575449280440807342529296875">
        <ele>1217.800048828125</ele>
        <time>2021-08-18T09:42:01.000Z</time>
      </trkpt>
      <trkpt lat="43.086112439632415771484375" lon="-6.057556830346584320068359375">
        <ele>1217.800048828125</ele>
        <time>2021-08-18T09:42:04.000Z</time>
      </trkpt>
      <trkpt lat="43.08612383902072906494140625" lon="-6.05756680481135845184326171875">
        <ele>1217.800048828125</ele>
        <time>2021-08-18T09:42:06.000Z</time>
      </trkpt>
      <trkpt lat="43.08613196946680545806884765625" lon="-6.057573594152927398681640625">
        <ele>1217.5999755859375</ele>
        <time>2021-08-18T09:42:07.000Z</time>
      </trkpt>
      <trkpt lat="43.0861602164804935455322265625" lon="-6.05759278871119022369384765625">
        <ele>1217.199951171875</ele>
        <time>2021-08-18T09:42:11.000Z</time>
      </trkpt>
      <trkpt lat="43.0861862003803253173828125" lon="-6.05759136378765106201171875">
        <ele>1216.199951171875</ele>
        <time>2021-08-18T09:42:16.000Z</time>
      </trkpt>
      <trkpt lat="43.08619081042706966400146484375" lon="-6.0575928725302219390869140625">
        <ele>1216</ele>
        <time>2021-08-18T09:42:17.000Z</time>
      </trkpt>
      <trkpt lat="43.08621142990887165069580078125" lon="-6.05759597383439540863037109375">
        <ele>1215.199951171875</ele>
        <time>2021-08-18T09:42:21.000Z</time>
      </trkpt>
      <trkpt lat="43.0862453766167163848876953125" lon="-6.05759262107312679290771484375">
        <ele>1214.199951171875</ele>
        <time>2021-08-18T09:42:25.000Z</time>
      </trkpt>
      <trkpt lat="43.08625317178666591644287109375" lon="-6.05759094469249248504638671875">
        <ele>1214</ele>
        <time>2021-08-18T09:42:26.000Z</time>
      </trkpt>
      <trkpt lat="43.0862715281546115875244140625" lon="-6.05758708901703357696533203125">
        <ele>1213.800048828125</ele>
        <time>2021-08-18T09:42:28.000Z</time>
      </trkpt>
      <trkpt lat="43.08629256673157215118408203125" lon="-6.05758306570351123809814453125">
        <ele>1212.800048828125</ele>
        <time>2021-08-18T09:42:31.000Z</time>
      </trkpt>
      <trkpt lat="43.0863364040851593017578125" lon="-6.05759228579699993133544921875">
        <ele>1211.800048828125</ele>
        <time>2021-08-18T09:42:36.000Z</time>
      </trkpt>
      <trkpt lat="43.08635777793824672698974609375" lon="-6.05759463272988796234130859375">
        <ele>1211</ele>
        <time>2021-08-18T09:42:40.000Z</time>
      </trkpt>
      <trkpt lat="43.08636683039367198944091796875" lon="-6.05759949423372745513916015625">
        <ele>1210.5999755859375</ele>
        <time>2021-08-18T09:42:41.000Z</time>
      </trkpt>
      <trkpt lat="43.0863801576197147369384765625" lon="-6.05761106126010417938232421875">
        <ele>1210.4000244140625</ele>
        <time>2021-08-18T09:42:43.000Z</time>
      </trkpt>
      <trkpt lat="43.08640572242438793182373046875" lon="-6.0576314292848110198974609375">
        <ele>1209.800048828125</ele>
        <time>2021-08-18T09:42:46.000Z</time>
      </trkpt>
      <trkpt lat="43.0864150263369083404541015625" lon="-6.0576377995312213897705078125">
        <ele>1209.5999755859375</ele>
        <time>2021-08-18T09:42:47.000Z</time>
      </trkpt>
      <trkpt lat="43.08643824420869350433349609375" lon="-6.05764894746243953704833984375">
        <ele>1209</ele>
        <time>2021-08-18T09:42:50.000Z</time>
      </trkpt>
      <trkpt lat="43.086482919752597808837890625" lon="-6.0576535575091838836669921875">
        <ele>1208.5999755859375</ele>
        <time>2021-08-18T09:42:55.000Z</time>
      </trkpt>
      <trkpt lat="43.0865013599395751953125" lon="-6.0576512105762958526611328125">
        <ele>1208.199951171875</ele>
        <time>2021-08-18T09:42:58.000Z</time>
      </trkpt>
      <trkpt lat="43.0865129269659519195556640625" lon="-6.05765917338430881500244140625">
        <ele>1208</ele>
        <time>2021-08-18T09:43:00.000Z</time>
      </trkpt>
      <trkpt lat="43.086527846753597259521484375" lon="-6.0576725006103515625">
        <ele>1207.5999755859375</ele>
        <time>2021-08-18T09:43:02.000Z</time>
      </trkpt>
      <trkpt lat="43.0865357257425785064697265625" lon="-6.05767560191452503204345703125">
        <ele>1207.4000244140625</ele>
        <time>2021-08-18T09:43:03.000Z</time>
      </trkpt>
      <trkpt lat="43.0865826644003391265869140625" lon="-6.05767979286611080169677734375">
        <ele>1206.4000244140625</ele>
        <time>2021-08-18T09:43:10.000Z</time>
      </trkpt>
      <trkpt lat="43.086590208113193511962890625" lon="-6.05768255889415740966796875">
        <ele>1206.199951171875</ele>
        <time>2021-08-18T09:43:11.000Z</time>
      </trkpt>
      <trkpt lat="43.08659632690250873565673828125" lon="-6.0576840676367282867431640625">
        <ele>1205.800048828125</ele>
        <time>2021-08-18T09:43:12.000Z</time>
      </trkpt>
      <trkpt lat="43.0866046249866485595703125" lon="-6.05768448673188686370849609375">
        <ele>1205.800048828125</ele>
        <time>2021-08-18T09:43:13.000Z</time>
      </trkpt>
      <trkpt lat="43.08665080927312374114990234375" lon="-6.05768616311252117156982421875">
        <ele>1205.199951171875</ele>
        <time>2021-08-18T09:43:17.000Z</time>
      </trkpt>
      <trkpt lat="43.08668668381869792938232421875" lon="-6.0576952993869781494140625">
        <ele>1204.5999755859375</ele>
        <time>2021-08-18T09:43:21.000Z</time>
      </trkpt>
      <trkpt lat="43.08672021143138408660888671875" lon="-6.05769890360534191131591796875">
        <ele>1204</ele>
        <time>2021-08-18T09:43:24.000Z</time>
      </trkpt>
      <trkpt lat="43.086744435131549835205078125" lon="-6.05769940651953220367431640625">
        <ele>1203.800048828125</ele>
        <time>2021-08-18T09:43:26.000Z</time>
      </trkpt>
      <trkpt lat="43.08675189502537250518798828125" lon="-6.05769865214824676513671875">
        <ele>1203.800048828125</ele>
        <time>2021-08-18T09:43:27.000Z</time>
      </trkpt>
      <trkpt lat="43.08677854947745800018310546875" lon="-6.05768431909382343292236328125">
        <ele>1203.199951171875</ele>
        <time>2021-08-18T09:43:30.000Z</time>
      </trkpt>
      <trkpt lat="43.08678575791418552398681640625" lon="-6.05768431909382343292236328125">
        <ele>1202.800048828125</ele>
        <time>2021-08-18T09:43:31.000Z</time>
      </trkpt>
      <trkpt lat="43.08679564855992794036865234375" lon="-6.0576832294464111328125">
        <ele>1202.5999755859375</ele>
        <time>2021-08-18T09:43:32.000Z</time>
      </trkpt>
      <trkpt lat="43.0868116579949855804443359375" lon="-6.05768247507512569427490234375">
        <ele>1202.4000244140625</ele>
        <time>2021-08-18T09:43:34.000Z</time>
      </trkpt>
      <trkpt lat="43.0868192017078399658203125" lon="-6.0576792061328887939453125">
        <ele>1202.199951171875</ele>
        <time>2021-08-18T09:43:35.000Z</time>
      </trkpt>
      <trkpt lat="43.0868445150554180145263671875" lon="-6.057682894170284271240234375">
        <ele>1201.800048828125</ele>
        <time>2021-08-18T09:43:38.000Z</time>
      </trkpt>
      <trkpt lat="43.08686052449047565460205078125" lon="-6.05767325498163700103759765625">
        <ele>1201.4000244140625</ele>
        <time>2021-08-18T09:43:40.000Z</time>
      </trkpt>
      <trkpt lat="43.08686639182269573211669921875" lon="-6.05767208151519298553466796875">
        <ele>1201.199951171875</ele>
        <time>2021-08-18T09:43:41.000Z</time>
      </trkpt>
      <trkpt lat="43.08687510900199413299560546875" lon="-6.05766805820167064666748046875">
        <ele>1201</ele>
        <time>2021-08-18T09:43:42.000Z</time>
      </trkpt>
      <trkpt lat="43.086885921657085418701171875" lon="-6.057669818401336669921875">
        <ele>1201</ele>
        <time>2021-08-18T09:43:43.000Z</time>
      </trkpt>
      <trkpt lat="43.08692741207778453826904296875" lon="-6.05766789056360721588134765625">
        <ele>1200.800048828125</ele>
        <time>2021-08-18T09:43:47.000Z</time>
      </trkpt>
      <trkpt lat="43.086935542523860931396484375" lon="-6.0576684772968292236328125">
        <ele>1200.5999755859375</ele>
        <time>2021-08-18T09:43:48.000Z</time>
      </trkpt>
      <trkpt lat="43.08696077205240726470947265625" lon="-6.05766403488814830780029296875">
        <ele>1200.199951171875</ele>
        <time>2021-08-18T09:43:51.000Z</time>
      </trkpt>
      <trkpt lat="43.0869746021926403045654296875" lon="-6.057658083736896514892578125">
        <ele>1200.199951171875</ele>
        <time>2021-08-18T09:43:53.000Z</time>
      </trkpt>
      <trkpt lat="43.08699027635157108306884765625" lon="-6.0576605983078479766845703125">
        <ele>1199.800048828125</ele>
        <time>2021-08-18T09:43:55.000Z</time>
      </trkpt>
      <trkpt lat="43.08702799491584300994873046875" lon="-6.05764140374958515167236328125">
        <ele>1199</ele>
        <time>2021-08-18T09:44:00.000Z</time>
      </trkpt>
      <trkpt lat="43.08703738264739513397216796875" lon="-6.0576377995312213897705078125">
        <ele>1198.800048828125</ele>
        <time>2021-08-18T09:44:01.000Z</time>
      </trkpt>
      <trkpt lat="43.08704492636024951934814453125" lon="-6.05762623250484466552734375">
        <ele>1198.5999755859375</ele>
        <time>2021-08-18T09:44:02.000Z</time>
      </trkpt>
      <trkpt lat="43.0870527215301990509033203125" lon="-6.05762363411486148834228515625">
        <ele>1198.4000244140625</ele>
        <time>2021-08-18T09:44:03.000Z</time>
      </trkpt>
      <trkpt lat="43.08706940151751041412353515625" lon="-6.05760016478598117828369140625">
        <ele>1198.199951171875</ele>
        <time>2021-08-18T09:44:05.000Z</time>
      </trkpt>
      <trkpt lat="43.0870869196951389312744140625" lon="-6.05759404599666595458984375">
        <ele>1197.5999755859375</ele>
        <time>2021-08-18T09:44:08.000Z</time>
      </trkpt>
      <trkpt lat="43.08710527606308460235595703125" lon="-6.057595722377300262451171875">
        <ele>1197.5999755859375</ele>
        <time>2021-08-18T09:44:10.000Z</time>
      </trkpt>
      <trkpt lat="43.08712086640298366546630859375" lon="-6.057605445384979248046875">
        <ele>1197.199951171875</ele>
        <time>2021-08-18T09:44:13.000Z</time>
      </trkpt>
      <trkpt lat="43.0871328525245189666748046875" lon="-6.05761307291686534881591796875">
        <ele>1196.800048828125</ele>
        <time>2021-08-18T09:44:15.000Z</time>
      </trkpt>
      <trkpt lat="43.08714534156024456024169921875" lon="-6.05761977843940258026123046875">
        <ele>1196.4000244140625</ele>
        <time>2021-08-18T09:44:17.000Z</time>
      </trkpt>
      <trkpt lat="43.0871519632637500762939453125" lon="-6.057621203362941741943359375">
        <ele>1196.199951171875</ele>
        <time>2021-08-18T09:44:18.000Z</time>
      </trkpt>
      <trkpt lat="43.0871650390326976776123046875" lon="-6.0576287470757961273193359375">
        <ele>1196</ele>
        <time>2021-08-18T09:44:20.000Z</time>
      </trkpt>
      <trkpt lat="43.087174929678440093994140625" lon="-6.05763218365609645843505859375">
        <ele>1195.800048828125</ele>
        <time>2021-08-18T09:44:21.000Z</time>
      </trkpt>
      <trkpt lat="43.08718825690448284149169921875" lon="-6.0576438345015048980712890625">
        <ele>1195.5999755859375</ele>
        <time>2021-08-18T09:44:23.000Z</time>
      </trkpt>
      <trkpt lat="43.0872134864330291748046875" lon="-6.057640649378299713134765625">
        <ele>1195.4000244140625</ele>
        <time>2021-08-18T09:44:25.000Z</time>
      </trkpt>
      <trkpt lat="43.0872324295341968536376953125" lon="-6.057660095393657684326171875">
        <ele>1194.5999755859375</ele>
        <time>2021-08-18T09:44:29.000Z</time>
      </trkpt>
      <trkpt lat="43.08724676258862018585205078125" lon="-6.0576649568974971771240234375">
        <ele>1194.199951171875</ele>
        <time>2021-08-18T09:44:31.000Z</time>
      </trkpt>
      <trkpt lat="43.0872743390500545501708984375" lon="-6.05766537599265575408935546875">
        <ele>1194</ele>
        <time>2021-08-18T09:44:33.000Z</time>
      </trkpt>
      <trkpt lat="43.0873068608343601226806640625" lon="-6.05766386725008487701416015625">
        <ele>1193.4000244140625</ele>
        <time>2021-08-18T09:44:35.000Z</time>
      </trkpt>
      <trkpt lat="43.0873296596109867095947265625" lon="-6.0576585866510868072509765625">
        <ele>1193.199951171875</ele>
        <time>2021-08-18T09:44:37.000Z</time>
      </trkpt>
      <trkpt lat="43.0873370356857776641845703125" lon="-6.0576559044420719146728515625">
        <ele>1193</ele>
        <time>2021-08-18T09:44:38.000Z</time>
      </trkpt>
      <trkpt lat="43.087353967130184173583984375" lon="-6.0576569102704524993896484375">
        <ele>1192.800048828125</ele>
        <time>2021-08-18T09:44:40.000Z</time>
      </trkpt>
      <trkpt lat="43.08740568347275257110595703125" lon="-6.057654730975627899169921875">
        <ele>1192.4000244140625</ele>
        <time>2021-08-18T09:44:44.000Z</time>
      </trkpt>
      <trkpt lat="43.087427057325839996337890625" lon="-6.05765498243272304534912109375">
        <ele>1192</ele>
        <time>2021-08-18T09:44:47.000Z</time>
      </trkpt>
      <trkpt lat="43.08745027519762516021728515625" lon="-6.05765707790851593017578125">
        <ele>1191.800048828125</ele>
        <time>2021-08-18T09:44:50.000Z</time>
      </trkpt>
      <trkpt lat="43.087462596595287322998046875" lon="-6.0576555691659450531005859375">
        <ele>1191.5999755859375</ele>
        <time>2021-08-18T09:44:52.000Z</time>
      </trkpt>
      <trkpt lat="43.08750006370246410369873046875" lon="-6.05767191387712955474853515625">
        <ele>1191.5999755859375</ele>
        <time>2021-08-18T09:45:04.000Z</time>
      </trkpt>
      <trkpt lat="43.08751045726239681243896484375" lon="-6.0576723329722881317138671875">
        <ele>1191</ele>
        <time>2021-08-18T09:45:07.000Z</time>
      </trkpt>
      <trkpt lat="43.087542392313480377197265625" lon="-6.05768130160868167877197265625">
        <ele>1191.199951171875</ele>
        <time>2021-08-18T09:45:15.000Z</time>
      </trkpt>
      <trkpt lat="43.087576925754547119140625" lon="-6.05766805820167064666748046875">
        <ele>1190.199951171875</ele>
        <time>2021-08-18T09:45:20.000Z</time>
      </trkpt>
      <trkpt lat="43.087614476680755615234375" lon="-6.05766504071652889251708984375">
        <ele>1190</ele>
        <time>2021-08-18T09:45:23.000Z</time>
      </trkpt>
      <trkpt lat="43.08766686357557773590087890625" lon="-6.0576595924794673919677734375">
        <ele>1188.800048828125</ele>
        <time>2021-08-18T09:45:29.000Z</time>
      </trkpt>
      <trkpt lat="43.087704665958881378173828125" lon="-6.05760452337563037872314453125">
        <ele>1188.4000244140625</ele>
        <time>2021-08-18T09:45:35.000Z</time>
      </trkpt>
      <trkpt lat="43.08771573007106781005859375" lon="-6.0575861670076847076416015625">
        <ele>1188.199951171875</ele>
        <time>2021-08-18T09:45:37.000Z</time>
      </trkpt>
      <trkpt lat="43.08772503398358821868896484375" lon="-6.0575831495225429534912109375">
        <ele>1187.800048828125</ele>
        <time>2021-08-18T09:45:39.000Z</time>
      </trkpt>
      <trkpt lat="43.08773760683834552764892578125" lon="-6.05757853947579860687255859375">
        <ele>1187.199951171875</ele>
        <time>2021-08-18T09:45:43.000Z</time>
      </trkpt>
      <trkpt lat="43.0878392793238162994384765625" lon="-6.05756345205008983612060546875">
        <ele>1187</ele>
        <time>2021-08-18T09:45:50.000Z</time>
      </trkpt>
      <trkpt lat="43.0878604017198085784912109375" lon="-6.05756579898297786712646484375">
        <ele>1186.800048828125</ele>
        <time>2021-08-18T09:45:51.000Z</time>
      </trkpt>
      <trkpt lat="43.08787641115486621856689453125" lon="-6.05757066048681735992431640625">
        <ele>1186.800048828125</ele>
        <time>2021-08-18T09:45:52.000Z</time>
      </trkpt>
      <trkpt lat="43.0879215896129608154296875" lon="-6.05757133103907108306884765625">
        <ele>1186.5999755859375</ele>
        <time>2021-08-18T09:45:55.000Z</time>
      </trkpt>
      <trkpt lat="43.088000379502773284912109375" lon="-6.0575794614851474761962890625">
        <ele>1185.5999755859375</ele>
        <time>2021-08-18T09:46:02.000Z</time>
      </trkpt>
      <trkpt lat="43.088013119995594024658203125" lon="-6.0575759410858154296875">
        <ele>1185.4000244140625</ele>
        <time>2021-08-18T09:46:03.000Z</time>
      </trkpt>
      <trkpt lat="43.08804522268474102020263671875" lon="-6.05757954530417919158935546875">
        <ele>1185.199951171875</ele>
        <time>2021-08-18T09:46:05.000Z</time>
      </trkpt>
      <trkpt lat="43.0881173908710479736328125" lon="-6.05759044177830219268798828125">
        <ele>1185</ele>
        <time>2021-08-18T09:46:11.000Z</time>
      </trkpt>
      <trkpt lat="43.08813373558223247528076171875" lon="-6.0575720854103565216064453125">
        <ele>1184.800048828125</ele>
        <time>2021-08-18T09:46:13.000Z</time>
      </trkpt>
      <trkpt lat="43.08814731426537036895751953125" lon="-6.0575781203806400299072265625">
        <ele>1184.5999755859375</ele>
        <time>2021-08-18T09:46:15.000Z</time>
      </trkpt>
      <trkpt lat="43.0881576240062713623046875" lon="-6.05758197605609893798828125">
        <ele>1184.5999755859375</ele>
        <time>2021-08-18T09:46:16.000Z</time>
      </trkpt>
      <trkpt lat="43.0881763994693756103515625" lon="-6.05758658610284328460693359375">
        <ele>1184.4000244140625</ele>
        <time>2021-08-18T09:46:18.000Z</time>
      </trkpt>
      <trkpt lat="43.0882114358246326446533203125" lon="-6.05761592276394367218017578125">
        <ele>1184</ele>
        <time>2021-08-18T09:46:23.000Z</time>
      </trkpt>
      <trkpt lat="43.0882359109818935394287109375" lon="-6.0576223768293857574462890625">
        <ele>1183.4000244140625</ele>
        <time>2021-08-18T09:46:26.000Z</time>
      </trkpt>
      <trkpt lat="43.0882751382887363433837890625" lon="-6.057626903057098388671875">
        <ele>1182.4000244140625</ele>
        <time>2021-08-18T09:46:31.000Z</time>
      </trkpt>
      <trkpt lat="43.0882868729531764984130859375" lon="-6.0576277412474155426025390625">
        <ele>1182</ele>
        <time>2021-08-18T09:46:32.000Z</time>
      </trkpt>
      <trkpt lat="43.08834068477153778076171875" lon="-6.05763369239866733551025390625">
        <ele>1181</ele>
        <time>2021-08-18T09:46:37.000Z</time>
      </trkpt>
      <trkpt lat="43.088406063616275787353515625" lon="-6.0576470196247100830078125">
        <ele>1180.199951171875</ele>
        <time>2021-08-18T09:46:44.000Z</time>
      </trkpt>
      <trkpt lat="43.0884327180683612823486328125" lon="-6.0576525516808032989501953125">
        <ele>1179.800048828125</ele>
        <time>2021-08-18T09:46:46.000Z</time>
      </trkpt>
      <trkpt lat="43.08850237168371677398681640625" lon="-6.05766772292554378509521484375">
        <ele>1178.800048828125</ele>
        <time>2021-08-18T09:46:53.000Z</time>
      </trkpt>
      <trkpt lat="43.0885436944663524627685546875" lon="-6.05767476372420787811279296875">
        <ele>1177.5999755859375</ele>
        <time>2021-08-18T09:46:58.000Z</time>
      </trkpt>
      <trkpt lat="43.088553249835968017578125" lon="-6.05767979286611080169677734375">
        <ele>1177.4000244140625</ele>
        <time>2021-08-18T09:46:59.000Z</time>
      </trkpt>
      <trkpt lat="43.0886087380349636077880859375" lon="-6.05770275928080081939697265625">
        <ele>1176.4000244140625</ele>
        <time>2021-08-18T09:47:04.000Z</time>
      </trkpt>
      <trkpt lat="43.0886710993945598602294921875" lon="-6.0577494464814662933349609375">
        <ele>1175.199951171875</ele>
        <time>2021-08-18T09:47:10.000Z</time>
      </trkpt>
      <trkpt lat="43.08870010077953338623046875" lon="-6.0577698983252048492431640625">
        <ele>1174.5999755859375</ele>
        <time>2021-08-18T09:47:14.000Z</time>
      </trkpt>
      <trkpt lat="43.08871661312878131866455078125" lon="-6.05777936987578868865966796875">
        <ele>1174</ele>
        <time>2021-08-18T09:47:17.000Z</time>
      </trkpt>
      <trkpt lat="43.0887384898960590362548828125" lon="-6.0577937029302120208740234375">
        <ele>1172.800048828125</ele>
        <time>2021-08-18T09:47:21.000Z</time>
      </trkpt>
      <trkpt lat="43.08877076022326946258544921875" lon="-6.057810299098491668701171875">
        <ele>1171.800048828125</ele>
        <time>2021-08-18T09:47:27.000Z</time>
      </trkpt>
      <trkpt lat="43.0887968279421329498291015625" lon="-6.05781625024974346160888671875">
        <ele>1171</ele>
        <time>2021-08-18T09:47:31.000Z</time>
      </trkpt>
      <trkpt lat="43.08880127035081386566162109375" lon="-6.0578245483338832855224609375">
        <ele>1171</ele>
        <time>2021-08-18T09:47:32.000Z</time>
      </trkpt>
      <trkpt lat="43.0888065509498119354248046875" lon="-6.0578289069235324859619140625">
        <ele>1170.800048828125</ele>
        <time>2021-08-18T09:47:34.000Z</time>
      </trkpt>
      <trkpt lat="43.088821470737457275390625" lon="-6.05783854611217975616455078125">
        <ele>1170.199951171875</ele>
        <time>2021-08-18T09:47:39.000Z</time>
      </trkpt>
      <trkpt lat="43.0888494662940502166748046875" lon="-6.05783754028379917144775390625">
        <ele>1170</ele>
        <time>2021-08-18T09:47:43.000Z</time>
      </trkpt>
      <trkpt lat="43.088865391910076141357421875" lon="-6.05784508399665355682373046875">
        <ele>1169.5999755859375</ele>
        <time>2021-08-18T09:47:45.000Z</time>
      </trkpt>
      <trkpt lat="43.08886639773845672607421875" lon="-6.0578540526330471038818359375">
        <ele>1169.4000244140625</ele>
        <time>2021-08-18T09:47:46.000Z</time>
      </trkpt>
      <trkpt lat="43.0888799764215946197509765625" lon="-6.05785950087010860443115234375">
        <ele>1169</ele>
        <time>2021-08-18T09:47:48.000Z</time>
      </trkpt>
      <trkpt lat="43.0889000929892063140869140625" lon="-6.0578825511038303375244140625">
        <ele>1168.5999755859375</ele>
        <time>2021-08-18T09:47:51.000Z</time>
      </trkpt>
      <trkpt lat="43.08892632834613323211669921875" lon="-6.05798087082803249359130859375">
        <ele>1167.5999755859375</ele>
        <time>2021-08-18T09:48:00.000Z</time>
      </trkpt>
      <trkpt lat="43.0889674834907054901123046875" lon="-6.0580475069582462310791015625">
        <ele>1166.5999755859375</ele>
        <time>2021-08-18T09:48:06.000Z</time>
      </trkpt>
      <trkpt lat="43.0889684893190860748291015625" lon="-6.05805094353854656219482421875">
        <ele>1166.4000244140625</ele>
        <time>2021-08-18T09:48:07.000Z</time>
      </trkpt>
      <trkpt lat="43.0889715068042278289794921875" lon="-6.05806821025907993316650390625">
        <ele>1166</ele>
        <time>2021-08-18T09:48:09.000Z</time>
      </trkpt>
      <trkpt lat="43.08897326700389385223388671875" lon="-6.05807692743837833404541015625">
        <ele>1165.5999755859375</ele>
        <time>2021-08-18T09:48:10.000Z</time>
      </trkpt>
      <trkpt lat="43.08896924369037151336669921875" lon="-6.0580920986831188201904296875">
        <ele>1165.4000244140625</ele>
        <time>2021-08-18T09:48:11.000Z</time>
      </trkpt>
      <trkpt lat="43.08896924369037151336669921875" lon="-6.0581024922430515289306640625">
        <ele>1165.199951171875</ele>
        <time>2021-08-18T09:48:12.000Z</time>
      </trkpt>
      <trkpt lat="43.08896672911942005157470703125" lon="-6.05813560076057910919189453125">
        <ele>1164.5999755859375</ele>
        <time>2021-08-18T09:48:15.000Z</time>
      </trkpt>
      <trkpt lat="43.0889614485204219818115234375" lon="-6.0581578128039836883544921875">
        <ele>1164.199951171875</ele>
        <time>2021-08-18T09:48:17.000Z</time>
      </trkpt>
      <trkpt lat="43.0889689922332763671875" lon="-6.0582238622009754180908203125">
        <ele>1163.199951171875</ele>
        <time>2021-08-18T09:48:23.000Z</time>
      </trkpt>
      <trkpt lat="43.08897712267935276031494140625" lon="-6.05823148973286151885986328125">
        <ele>1163.199951171875</ele>
        <time>2021-08-18T09:48:24.000Z</time>
      </trkpt>
      <trkpt lat="43.08898131363093852996826171875" lon="-6.05824791826307773590087890625">
        <ele>1163</ele>
        <time>2021-08-18T09:48:26.000Z</time>
      </trkpt>
      <trkpt lat="43.08899841271340847015380859375" lon="-6.05826996266841888427734375">
        <ele>1162.800048828125</ele>
        <time>2021-08-18T09:48:28.000Z</time>
      </trkpt>
      <trkpt lat="43.08901769109070301055908203125" lon="-6.05828915722668170928955078125">
        <ele>1162.199951171875</ele>
        <time>2021-08-18T09:48:30.000Z</time>
      </trkpt>
      <trkpt lat="43.08902188204228878021240234375" lon="-6.05829519219696521759033203125">
        <ele>1162</ele>
        <time>2021-08-18T09:48:31.000Z</time>
      </trkpt>
      <trkpt lat="43.0890258215367794036865234375" lon="-6.05830508284270763397216796875">
        <ele>1161.800048828125</ele>
        <time>2021-08-18T09:48:32.000Z</time>
      </trkpt>
      <trkpt lat="43.08903462253510951995849609375" lon="-6.05832939036190509796142578125">
        <ele>1161</ele>
        <time>2021-08-18T09:48:35.000Z</time>
      </trkpt>
      <trkpt lat="43.08902959339320659637451171875" lon="-6.0583417117595672607421875">
        <ele>1160.800048828125</ele>
        <time>2021-08-18T09:48:36.000Z</time>
      </trkpt>
      <trkpt lat="43.08906932361423969268798828125" lon="-6.0583992116153240203857421875">
        <ele>1160</ele>
        <time>2021-08-18T09:48:42.000Z</time>
      </trkpt>
      <trkpt lat="43.08907737024128437042236328125" lon="-6.05840415693819522857666015625">
        <ele>1159.800048828125</ele>
        <time>2021-08-18T09:48:43.000Z</time>
      </trkpt>
      <trkpt lat="43.0891082994639873504638671875" lon="-6.0584127902984619140625">
        <ele>1159.4000244140625</ele>
        <time>2021-08-18T09:48:46.000Z</time>
      </trkpt>
      <trkpt lat="43.089129924774169921875" lon="-6.05842175893485546112060546875">
        <ele>1159.199951171875</ele>
        <time>2021-08-18T09:48:48.000Z</time>
      </trkpt>
      <trkpt lat="43.0891512148082256317138671875" lon="-6.0584330745041370391845703125">
        <ele>1159</ele>
        <time>2021-08-18T09:48:50.000Z</time>
      </trkpt>
      <trkpt lat="43.0891954712569713592529296875" lon="-6.0584570467472076416015625">
        <ele>1158</ele>
        <time>2021-08-18T09:48:55.000Z</time>
      </trkpt>
      <trkpt lat="43.08922447264194488525390625" lon="-6.05847808532416820526123046875">
        <ele>1157.4000244140625</ele>
        <time>2021-08-18T09:48:58.000Z</time>
      </trkpt>
      <trkpt lat="43.08925791643559932708740234375" lon="-6.05851261876523494720458984375">
        <ele>1156.800048828125</ele>
        <time>2021-08-18T09:49:02.000Z</time>
      </trkpt>
      <trkpt lat="43.08926495723426342010498046875" lon="-6.05852150358259677886962890625">
        <ele>1156.800048828125</ele>
        <time>2021-08-18T09:49:03.000Z</time>
      </trkpt>
      <trkpt lat="43.089277446269989013671875" lon="-6.058568693697452545166015625">
        <ele>1156.199951171875</ele>
        <time>2021-08-18T09:49:07.000Z</time>
      </trkpt>
      <trkpt lat="43.0892896838486194610595703125" lon="-6.05859157629311084747314453125">
        <ele>1155.800048828125</ele>
        <time>2021-08-18T09:49:09.000Z</time>
      </trkpt>
      <trkpt lat="43.0892950482666492462158203125" lon="-6.0586010478436946868896484375">
        <ele>1155.5999755859375</ele>
        <time>2021-08-18T09:49:10.000Z</time>
      </trkpt>
      <trkpt lat="43.08929882012307643890380859375" lon="-6.0586292110383510589599609375">
        <ele>1155</ele>
        <time>2021-08-18T09:49:13.000Z</time>
      </trkpt>
      <trkpt lat="43.0893252231180667877197265625" lon="-6.05865108780562877655029296875">
        <ele>1154.800048828125</ele>
        <time>2021-08-18T09:49:16.000Z</time>
      </trkpt>
      <trkpt lat="43.08934307657182216644287109375" lon="-6.05866156518459320068359375">
        <ele>1154.5999755859375</ele>
        <time>2021-08-18T09:49:17.000Z</time>
      </trkpt>
      <trkpt lat="43.08938942849636077880859375" lon="-6.05874999426305294036865234375">
        <ele>1153.5999755859375</ele>
        <time>2021-08-18T09:49:24.000Z</time>
      </trkpt>
      <trkpt lat="43.08938833884894847869873046875" lon="-6.0587653331458568572998046875">
        <ele>1153.4000244140625</ele>
        <time>2021-08-18T09:49:25.000Z</time>
      </trkpt>
      <trkpt lat="43.089391104876995086669921875" lon="-6.058794669806957244873046875">
        <ele>1153.199951171875</ele>
        <time>2021-08-18T09:49:27.000Z</time>
      </trkpt>
      <trkpt lat="43.08942371048033237457275390625" lon="-6.0588427819311618804931640625">
        <ele>1152.5999755859375</ele>
        <time>2021-08-18T09:49:31.000Z</time>
      </trkpt>
      <trkpt lat="43.08943024836480617523193359375" lon="-6.0588540136814117431640625">
        <ele>1152.199951171875</ele>
        <time>2021-08-18T09:49:32.000Z</time>
      </trkpt>
      <trkpt lat="43.08944617398083209991455078125" lon="-6.05888527818024158477783203125">
        <ele>1151.5999755859375</ele>
        <time>2021-08-18T09:49:36.000Z</time>
      </trkpt>
      <trkpt lat="43.08944835327565670013427734375" lon="-6.05889022350311279296875">
        <ele>1151.4000244140625</ele>
        <time>2021-08-18T09:49:37.000Z</time>
      </trkpt>
      <trkpt lat="43.0894504487514495849609375" lon="-6.05889399535953998565673828125">
        <ele>1151.199951171875</ele>
        <time>2021-08-18T09:49:38.000Z</time>
      </trkpt>
      <trkpt lat="43.08945455588400363922119140625" lon="-6.05890489183366298675537109375">
        <ele>1150.800048828125</ele>
        <time>2021-08-18T09:49:40.000Z</time>
      </trkpt>
      <trkpt lat="43.0894680507481098175048828125" lon="-6.05891092680394649505615234375">
        <ele>1150.5999755859375</ele>
        <time>2021-08-18T09:49:43.000Z</time>
      </trkpt>
      <trkpt lat="43.0894707329571247100830078125" lon="-6.0589145310223102569580078125">
        <ele>1150.4000244140625</ele>
        <time>2021-08-18T09:49:44.000Z</time>
      </trkpt>
      <trkpt lat="43.08947836048901081085205078125" lon="-6.05891997925937175750732421875">
        <ele>1150.199951171875</ele>
        <time>2021-08-18T09:49:45.000Z</time>
      </trkpt>
      <trkpt lat="43.08948598802089691162109375" lon="-6.05891847051680088043212890625">
        <ele>1149.800048828125</ele>
        <time>2021-08-18T09:49:47.000Z</time>
      </trkpt>
      <trkpt lat="43.08952395804226398468017578125" lon="-6.05891863815486431121826171875">
        <ele>1149</ele>
        <time>2021-08-18T09:49:51.000Z</time>
      </trkpt>
      <trkpt lat="43.089534938335418701171875" lon="-6.05891914106905460357666015625">
        <ele>1148.800048828125</ele>
        <time>2021-08-18T09:49:52.000Z</time>
      </trkpt>
      <trkpt lat="43.0895515345036983489990234375" lon="-6.05892500840127468109130859375">
        <ele>1148.4000244140625</ele>
        <time>2021-08-18T09:49:54.000Z</time>
      </trkpt>
      <trkpt lat="43.08957659639418125152587890625" lon="-6.058931462466716766357421875">
        <ele>1148</ele>
        <time>2021-08-18T09:49:56.000Z</time>
      </trkpt>
      <trkpt lat="43.0895937792956829071044921875" lon="-6.0589292831718921661376953125">
        <ele>1147.800048828125</ele>
        <time>2021-08-18T09:49:58.000Z</time>
      </trkpt>
      <trkpt lat="43.08960157446563243865966796875" lon="-6.0589356534183025360107421875">
        <ele>1147.4000244140625</ele>
        <time>2021-08-18T09:50:01.000Z</time>
      </trkpt>
      <trkpt lat="43.089599311351776123046875" lon="-6.05893590487539768218994140625">
        <ele>1146.5999755859375</ele>
        <time>2021-08-18T09:50:03.000Z</time>
      </trkpt>
      <trkpt lat="43.089607022702693939208984375" lon="-6.05893271975219249725341796875">
        <ele>1146</ele>
        <time>2021-08-18T09:50:05.000Z</time>
      </trkpt>
      <trkpt lat="43.08961280621588230133056640625" lon="-6.05893674306571483612060546875">
        <ele>1145.4000244140625</ele>
        <time>2021-08-18T09:50:07.000Z</time>
      </trkpt>
      <trkpt lat="43.0896221101284027099609375" lon="-6.05893104337155818939208984375">
        <ele>1145.199951171875</ele>
        <time>2021-08-18T09:50:08.000Z</time>
      </trkpt>
      <trkpt lat="43.08964650146663188934326171875" lon="-6.05892685241997241973876953125">
        <ele>1144.5999755859375</ele>
        <time>2021-08-18T09:50:11.000Z</time>
      </trkpt>
      <trkpt lat="43.08966024778783321380615234375" lon="-6.058919727802276611328125">
        <ele>1144.4000244140625</ele>
        <time>2021-08-18T09:50:12.000Z</time>
      </trkpt>
      <trkpt lat="43.089690841734409332275390625" lon="-6.058906652033329010009765625">
        <ele>1143.5999755859375</ele>
        <time>2021-08-18T09:50:15.000Z</time>
      </trkpt>
      <trkpt lat="43.0897014029324054718017578125" lon="-6.0589031316339969635009765625">
        <ele>1143.4000244140625</ele>
        <time>2021-08-18T09:50:16.000Z</time>
      </trkpt>
      <trkpt lat="43.089709617197513580322265625" lon="-6.058900617063045501708984375">
        <ele>1143.199951171875</ele>
        <time>2021-08-18T09:50:17.000Z</time>
      </trkpt>
      <trkpt lat="43.0897339247167110443115234375" lon="-6.058899946510791778564453125">
        <ele>1143</ele>
        <time>2021-08-18T09:50:18.000Z</time>
      </trkpt>
      <trkpt lat="43.08976384811103343963623046875" lon="-6.05891377665102481842041015625">
        <ele>1142.199951171875</ele>
        <time>2021-08-18T09:50:21.000Z</time>
      </trkpt>
      <trkpt lat="43.08977164328098297119140625" lon="-6.05892819352447986602783203125">
        <ele>1141.5999755859375</ele>
        <time>2021-08-18T09:50:23.000Z</time>
      </trkpt>
      <trkpt lat="43.089775331318378448486328125" lon="-6.05893515050411224365234375">
        <ele>1141.5999755859375</ele>
        <time>2021-08-18T09:50:24.000Z</time>
      </trkpt>
      <trkpt lat="43.089790754020214080810546875" lon="-6.0589621402323246002197265625">
        <ele>1141.199951171875</ele>
        <time>2021-08-18T09:50:26.000Z</time>
      </trkpt>
      <trkpt lat="43.08981112204492092132568359375" lon="-6.0589892975986003875732421875">
        <ele>1140.199951171875</ele>
        <time>2021-08-18T09:50:29.000Z</time>
      </trkpt>
      <trkpt lat="43.0898281373083591461181640625" lon="-6.05900111608207225799560546875">
        <ele>1140</ele>
        <time>2021-08-18T09:50:30.000Z</time>
      </trkpt>
      <trkpt lat="43.08984029106795787811279296875" lon="-6.05900983326137065887451171875">
        <ele>1140</ele>
        <time>2021-08-18T09:50:31.000Z</time>
      </trkpt>
      <trkpt lat="43.08991388417780399322509765625" lon="-6.05906934477388858795166015625">
        <ele>1139</ele>
        <time>2021-08-18T09:50:37.000Z</time>
      </trkpt>
      <trkpt lat="43.08993919752538204193115234375" lon="-6.05908024124801158905029296875">
        <ele>1138.5999755859375</ele>
        <time>2021-08-18T09:50:39.000Z</time>
      </trkpt>
      <trkpt lat="43.09007246978580951690673828125" lon="-6.0591482184827327728271484375">
        <ele>1138.800048828125</ele>
        <time>2021-08-18T09:50:48.000Z</time>
      </trkpt>
      <trkpt lat="43.09017204679548740386962890625" lon="-6.05916305445134639739990234375">
        <ele>1138</ele>
        <time>2021-08-18T09:50:55.000Z</time>
      </trkpt>
      <trkpt lat="43.090187720954418182373046875" lon="-6.05916908942162990570068359375">
        <ele>1138</ele>
        <time>2021-08-18T09:50:56.000Z</time>
      </trkpt>
      <trkpt lat="43.09020758606493473052978515625" lon="-6.059180907905101776123046875">
        <ele>1137.800048828125</ele>
        <time>2021-08-18T09:50:58.000Z</time>
      </trkpt>
      <trkpt lat="43.09022963047027587890625" lon="-6.05919105000793933868408203125">
        <ele>1137.5999755859375</ele>
        <time>2021-08-18T09:51:00.000Z</time>
      </trkpt>
      <trkpt lat="43.090250082314014434814453125" lon="-6.05920278467237949371337890625">
        <ele>1137.4000244140625</ele>
        <time>2021-08-18T09:51:03.000Z</time>
      </trkpt>
      <trkpt lat="43.09026726521551609039306640625" lon="-6.05921468697488307952880859375">
        <ele>1136.800048828125</ele>
        <time>2021-08-18T09:51:05.000Z</time>
      </trkpt>
      <trkpt lat="43.09031009674072265625" lon="-6.05924762785434722900390625">
        <ele>1135.800048828125</ele>
        <time>2021-08-18T09:51:09.000Z</time>
      </trkpt>
      <trkpt lat="43.09031789191067218780517578125" lon="-6.0592534951865673065185546875">
        <ele>1135.4000244140625</ele>
        <time>2021-08-18T09:51:10.000Z</time>
      </trkpt>
      <trkpt lat="43.090319149196147918701171875" lon="-6.05926799587905406951904296875">
        <ele>1135</ele>
        <time>2021-08-18T09:51:12.000Z</time>
      </trkpt>
      <trkpt lat="43.09032007120549678802490234375" lon="-6.05927520431578159332275390625">
        <ele>1134.800048828125</ele>
        <time>2021-08-18T09:51:13.000Z</time>
      </trkpt>
      <trkpt lat="43.09032543562352657318115234375" lon="-6.05928677134215831756591796875">
        <ele>1134.4000244140625</ele>
        <time>2021-08-18T09:51:15.000Z</time>
      </trkpt>
      <trkpt lat="43.0903293751180171966552734375" lon="-6.0592930577695369720458984375">
        <ele>1134.4000244140625</ele>
        <time>2021-08-18T09:51:16.000Z</time>
      </trkpt>
      <trkpt lat="43.090347312390804290771484375" lon="-6.05931074358522891998291015625">
        <ele>1133.800048828125</ele>
        <time>2021-08-18T09:51:19.000Z</time>
      </trkpt>
      <trkpt lat="43.09035225771367549896240234375" lon="-6.05931937694549560546875">
        <ele>1133.4000244140625</ele>
        <time>2021-08-18T09:51:20.000Z</time>
      </trkpt>
      <trkpt lat="43.0903592146933078765869140625" lon="-6.059320382773876190185546875">
        <ele>1133</ele>
        <time>2021-08-18T09:51:21.000Z</time>
      </trkpt>
      <trkpt lat="43.090387545526027679443359375" lon="-6.05935902334749698638916015625">
        <ele>1132.4000244140625</ele>
        <time>2021-08-18T09:51:24.000Z</time>
      </trkpt>
      <trkpt lat="43.090418390929698944091796875" lon="-6.05938919819891452789306640625">
        <ele>1132</ele>
        <time>2021-08-18T09:51:26.000Z</time>
      </trkpt>
      <trkpt lat="43.09045049361884593963623046875" lon="-6.059431023895740509033203125">
        <ele>1131</ele>
        <time>2021-08-18T09:51:29.000Z</time>
      </trkpt>
      <trkpt lat="43.0904804170131683349609375" lon="-6.059469915926456451416015625">
        <ele>1130</ele>
        <time>2021-08-18T09:51:33.000Z</time>
      </trkpt>
      <trkpt lat="43.09048921801149845123291015625" lon="-6.05948575772345066070556640625">
        <ele>1129.5999755859375</ele>
        <time>2021-08-18T09:51:35.000Z</time>
      </trkpt>
      <trkpt lat="43.0905023775994777679443359375" lon="-6.05949648655951023101806640625">
        <ele>1129.4000244140625</ele>
        <time>2021-08-18T09:51:37.000Z</time>
      </trkpt>
      <trkpt lat="43.09051469899713993072509765625" lon="-6.05950738303363323211669921875">
        <ele>1129</ele>
        <time>2021-08-18T09:51:39.000Z</time>
      </trkpt>
      <trkpt lat="43.0905268527567386627197265625" lon="-6.05952523648738861083984375">
        <ele>1128.5999755859375</ele>
        <time>2021-08-18T09:51:41.000Z</time>
      </trkpt>
      <trkpt lat="43.09053473174571990966796875" lon="-6.0595394857227802276611328125">
        <ele>1128.4000244140625</ele>
        <time>2021-08-18T09:51:42.000Z</time>
      </trkpt>
      <trkpt lat="43.09055241756141185760498046875" lon="-6.0595756955444812774658203125">
        <ele>1128</ele>
        <time>2021-08-18T09:51:45.000Z</time>
      </trkpt>
      <trkpt lat="43.090586364269256591796875" lon="-6.05966010130941867828369140625">
        <ele>1127</ele>
        <time>2021-08-18T09:51:50.000Z</time>
      </trkpt>
      <trkpt lat="43.09058812446892261505126953125" lon="-6.05967267416417598724365234375">
        <ele>1126.800048828125</ele>
        <time>2021-08-18T09:51:51.000Z</time>
      </trkpt>
      <trkpt lat="43.09059365652501583099365234375" lon="-6.059699915349483489990234375">
        <ele>1126.4000244140625</ele>
        <time>2021-08-18T09:51:53.000Z</time>
      </trkpt>
      <trkpt lat="43.09060840867459774017333984375" lon="-6.0597513802349567413330078125">
        <ele>1125.800048828125</ele>
        <time>2021-08-18T09:51:56.000Z</time>
      </trkpt>
      <trkpt lat="43.0906193889677524566650390625" lon="-6.05982321314513683319091796875">
        <ele>1124.800048828125</ele>
        <time>2021-08-18T09:52:01.000Z</time>
      </trkpt>
      <trkpt lat="43.090620227158069610595703125" lon="-6.05983846820890903472900390625">
        <ele>1124.4000244140625</ele>
        <time>2021-08-18T09:52:02.000Z</time>
      </trkpt>
      <trkpt lat="43.09062282554805278778076171875" lon="-6.0598533041775226593017578125">
        <ele>1124.4000244140625</ele>
        <time>2021-08-18T09:52:03.000Z</time>
      </trkpt>
      <trkpt lat="43.0906287766993045806884765625" lon="-6.059869565069675445556640625">
        <ele>1124.199951171875</ele>
        <time>2021-08-18T09:52:04.000Z</time>
      </trkpt>
      <trkpt lat="43.09063397347927093505859375" lon="-6.059943996369838714599609375">
        <ele>1123.4000244140625</ele>
        <time>2021-08-18T09:52:09.000Z</time>
      </trkpt>
      <trkpt lat="43.0906368233263492584228515625" lon="-6.05996084399521350860595703125">
        <ele>1123.199951171875</ele>
        <time>2021-08-18T09:52:10.000Z</time>
      </trkpt>
      <trkpt lat="43.09062995016574859619140625" lon="-6.0600283183157444000244140625">
        <ele>1122.800048828125</ele>
        <time>2021-08-18T09:52:14.000Z</time>
      </trkpt>
      <trkpt lat="43.09062198735773563385009765625" lon="-6.06008288450539112091064453125">
        <ele>1122.4000244140625</ele>
        <time>2021-08-18T09:52:17.000Z</time>
      </trkpt>
      <trkpt lat="43.09059667401015758514404296875" lon="-6.060223616659641265869140625">
        <ele>1121.4000244140625</ele>
        <time>2021-08-18T09:52:25.000Z</time>
      </trkpt>
      <trkpt lat="43.0905885435640811920166015625" lon="-6.06025571934878826141357421875">
        <ele>1121.4000244140625</ele>
        <time>2021-08-18T09:52:27.000Z</time>
      </trkpt>
      <trkpt lat="43.09059902094304561614990234375" lon="-6.0603629238903522491455078125">
        <ele>1121</ele>
        <time>2021-08-18T09:52:35.000Z</time>
      </trkpt>
      <trkpt lat="43.09060455299913883209228515625" lon="-6.0603729821741580963134765625">
        <ele>1121</ele>
        <time>2021-08-18T09:52:36.000Z</time>
      </trkpt>
      <trkpt lat="43.09064872562885284423828125" lon="-6.06045437045395374298095703125">
        <ele>1120.800048828125</ele>
        <time>2021-08-18T09:52:42.000Z</time>
      </trkpt>
      <trkpt lat="43.0906954966485500335693359375" lon="-6.06056434102356433868408203125">
        <ele>1120.800048828125</ele>
        <time>2021-08-18T09:52:49.000Z</time>
      </trkpt>
      <trkpt lat="43.09071921743452548980712890625" lon="-6.06061144731938838958740234375">
        <ele>1120.4000244140625</ele>
        <time>2021-08-18T09:52:54.000Z</time>
      </trkpt>
      <trkpt lat="43.0907182954251766204833984375" lon="-6.06062754057347774505615234375">
        <ele>1120.199951171875</ele>
        <time>2021-08-18T09:52:55.000Z</time>
      </trkpt>
      <trkpt lat="43.09072894044220447540283203125" lon="-6.06064371764659881591796875">
        <ele>1119.800048828125</ele>
        <time>2021-08-18T09:52:56.000Z</time>
      </trkpt>
      <trkpt lat="43.09073321521282196044921875" lon="-6.0606874711811542510986328125">
        <ele>1119</ele>
        <time>2021-08-18T09:52:59.000Z</time>
      </trkpt>
      <trkpt lat="43.09072592295706272125244140625" lon="-6.0606995411217212677001953125">
        <ele>1118.800048828125</ele>
        <time>2021-08-18T09:53:00.000Z</time>
      </trkpt>
      <trkpt lat="43.090712092816829681396484375" lon="-6.06072661466896533966064453125">
        <ele>1118.5999755859375</ele>
        <time>2021-08-18T09:53:02.000Z</time>
      </trkpt>
      <trkpt lat="43.0906820856034755706787109375" lon="-6.060770452022552490234375">
        <ele>1118</ele>
        <time>2021-08-18T09:53:05.000Z</time>
      </trkpt>
      <trkpt lat="43.09069071896374225616455078125" lon="-6.06080657802522182464599609375">
        <ele>1117.4000244140625</ele>
        <time>2021-08-18T09:53:08.000Z</time>
      </trkpt>
      <trkpt lat="43.09068216942250728607177734375" lon="-6.060827784240245819091796875">
        <ele>1117.199951171875</ele>
        <time>2021-08-18T09:53:10.000Z</time>
      </trkpt>
      <trkpt lat="43.09067898429930210113525390625" lon="-6.06087044812738895416259765625">
        <ele>1116.800048828125</ele>
        <time>2021-08-18T09:53:13.000Z</time>
      </trkpt>
      <trkpt lat="43.09067579917609691619873046875" lon="-6.06088704429566860198974609375">
        <ele>1116.800048828125</ele>
        <time>2021-08-18T09:53:14.000Z</time>
      </trkpt>
      <trkpt lat="43.0906787328422069549560546875" lon="-6.060954518616199493408203125">
        <ele>1116.5999755859375</ele>
        <time>2021-08-18T09:53:19.000Z</time>
      </trkpt>
      <trkpt lat="43.0906794033944606781005859375" lon="-6.0609660856425762176513671875">
        <ele>1116.5999755859375</ele>
        <time>2021-08-18T09:53:20.000Z</time>
      </trkpt>
      <trkpt lat="43.09069432318210601806640625" lon="-6.0610341466963291168212890625">
        <ele>1115.5999755859375</ele>
        <time>2021-08-18T09:53:24.000Z</time>
      </trkpt>
      <trkpt lat="43.090720809996128082275390625" lon="-6.06107530184090137481689453125">
        <ele>1114.800048828125</ele>
        <time>2021-08-18T09:53:26.000Z</time>
      </trkpt>
      <trkpt lat="43.09073279611766338348388671875" lon="-6.06110882945358753204345703125">
        <ele>1114.4000244140625</ele>
        <time>2021-08-18T09:53:28.000Z</time>
      </trkpt>
      <trkpt lat="43.09075559489428997039794921875" lon="-6.06118594296276569366455078125">
        <ele>1113.4000244140625</ele>
        <time>2021-08-18T09:53:32.000Z</time>
      </trkpt>
      <trkpt lat="43.0907545052468776702880859375" lon="-6.06120287440717220306396484375">
        <ele>1113.199951171875</ele>
        <time>2021-08-18T09:53:33.000Z</time>
      </trkpt>
      <trkpt lat="43.0907719396054744720458984375" lon="-6.06133229099214076995849609375">
        <ele>1112.800048828125</ele>
        <time>2021-08-18T09:53:40.000Z</time>
      </trkpt>
      <trkpt lat="43.09073480777442455291748046875" lon="-6.06142365373671054840087890625">
        <ele>1112.4000244140625</ele>
        <time>2021-08-18T09:53:45.000Z</time>
      </trkpt>
      <trkpt lat="43.090739585459232330322265625" lon="-6.06146103702485561370849609375">
        <ele>1112.4000244140625</ele>
        <time>2021-08-18T09:53:47.000Z</time>
      </trkpt>
      <trkpt lat="43.09072877280414104461669921875" lon="-6.06159447692334651947021484375">
        <ele>1112.4000244140625</ele>
        <time>2021-08-18T09:53:55.000Z</time>
      </trkpt>
      <trkpt lat="43.09071787633001804351806640625" lon="-6.06167762540280818939208984375">
        <ele>1112.800048828125</ele>
        <time>2021-08-18T09:54:00.000Z</time>
      </trkpt>
      <trkpt lat="43.0907137691974639892578125" lon="-6.06169757433235645294189453125">
        <ele>1112.800048828125</ele>
        <time>2021-08-18T09:54:01.000Z</time>
      </trkpt>
      <trkpt lat="43.09067018330097198486328125" lon="-6.06185062788426876068115234375">
        <ele>1113</ele>
        <time>2021-08-18T09:54:10.000Z</time>
      </trkpt>
      <trkpt lat="43.09067261405289173126220703125" lon="-6.061952970921993255615234375">
        <ele>1112.5999755859375</ele>
        <time>2021-08-18T09:54:17.000Z</time>
      </trkpt>
      <trkpt lat="43.09068568982183933258056640625" lon="-6.06199211440980434417724609375">
        <ele>1112.199951171875</ele>
        <time>2021-08-18T09:54:20.000Z</time>
      </trkpt>
      <trkpt lat="43.09071569703519344329833984375" lon="-6.06204441748559474945068359375">
        <ele>1111.5999755859375</ele>
        <time>2021-08-18T09:54:24.000Z</time>
      </trkpt>
      <trkpt lat="43.09070505201816558837890625" lon="-6.06207869946956634521484375">
        <ele>1111.4000244140625</ele>
        <time>2021-08-18T09:54:27.000Z</time>
      </trkpt>
      <trkpt lat="43.09070915915071964263916015625" lon="-6.0621130652725696563720703125">
        <ele>1110.800048828125</ele>
        <time>2021-08-18T09:54:30.000Z</time>
      </trkpt>
      <trkpt lat="43.09072776697576045989990234375" lon="-6.062157489359378814697265625">
        <ele>1110.199951171875</ele>
        <time>2021-08-18T09:54:33.000Z</time>
      </trkpt>
      <trkpt lat="43.09074402786791324615478515625" lon="-6.0621906816959381103515625">
        <ele>1110</ele>
        <time>2021-08-18T09:54:35.000Z</time>
      </trkpt>
      <trkpt lat="43.0907521583139896392822265625" lon="-6.0622243769466876983642578125">
        <ele>1109.800048828125</ele>
        <time>2021-08-18T09:54:37.000Z</time>
      </trkpt>
      <trkpt lat="43.09073044918477535247802734375" lon="-6.062267124652862548828125">
        <ele>1109.199951171875</ele>
        <time>2021-08-18T09:54:40.000Z</time>
      </trkpt>
      <trkpt lat="43.09073531068861484527587890625" lon="-6.06229252181947231292724609375">
        <ele>1108.800048828125</ele>
        <time>2021-08-18T09:54:42.000Z</time>
      </trkpt>
      <trkpt lat="43.0907379090785980224609375" lon="-6.06233694590628147125244140625">
        <ele>1108.4000244140625</ele>
        <time>2021-08-18T09:54:45.000Z</time>
      </trkpt>
      <trkpt lat="43.09073925018310546875" lon="-6.0623521171510219573974609375">
        <ele>1108.199951171875</ele>
        <time>2021-08-18T09:54:46.000Z</time>
      </trkpt>
      <trkpt lat="43.0907407589256763458251953125" lon="-6.06236410327255725860595703125">
        <ele>1108</ele>
        <time>2021-08-18T09:54:47.000Z</time>
      </trkpt>
      <trkpt lat="43.0907566845417022705078125" lon="-6.06243182905018329620361328125">
        <ele>1107.5999755859375</ele>
        <time>2021-08-18T09:54:53.000Z</time>
      </trkpt>
      <trkpt lat="43.09076481498777866363525390625" lon="-6.06244607828557491302490234375">
        <ele>1107.4000244140625</ele>
        <time>2021-08-18T09:54:54.000Z</time>
      </trkpt>
      <trkpt lat="43.09076984412968158721923828125" lon="-6.0624594055116176605224609375">
        <ele>1107.199951171875</ele>
        <time>2021-08-18T09:54:56.000Z</time>
      </trkpt>
      <trkpt lat="43.0908125080168247222900390625" lon="-6.06248899362981319427490234375">
        <ele>1106</ele>
        <time>2021-08-18T09:54:59.000Z</time>
      </trkpt>
      <trkpt lat="43.090828768908977508544921875" lon="-6.062506847083568572998046875">
        <ele>1105.5999755859375</ele>
        <time>2021-08-18T09:55:01.000Z</time>
      </trkpt>
      <trkpt lat="43.0908748693764209747314453125" lon="-6.0625415481626987457275390625">
        <ele>1105</ele>
        <time>2021-08-18T09:55:05.000Z</time>
      </trkpt>
      <trkpt lat="43.090892471373081207275390625" lon="-6.06256577186286449432373046875">
        <ele>1104.5999755859375</ele>
        <time>2021-08-18T09:55:07.000Z</time>
      </trkpt>
      <trkpt lat="43.09092407114803791046142578125" lon="-6.06260047294199466705322265625">
        <ele>1103.5999755859375</ele>
        <time>2021-08-18T09:55:11.000Z</time>
      </trkpt>
      <trkpt lat="43.0909430980682373046875" lon="-6.06261103413999080657958984375">
        <ele>1103.4000244140625</ele>
        <time>2021-08-18T09:55:13.000Z</time>
      </trkpt>
      <trkpt lat="43.09095558710396289825439453125" lon="-6.06262452900409698486328125">
        <ele>1103.4000244140625</ele>
        <time>2021-08-18T09:55:15.000Z</time>
      </trkpt>
      <trkpt lat="43.09095793403685092926025390625" lon="-6.0626314021646976470947265625">
        <ele>1103.4000244140625</ele>
        <time>2021-08-18T09:55:16.000Z</time>
      </trkpt>
      <trkpt lat="43.09096212498843669891357421875" lon="-6.06267280876636505126953125">
        <ele>1103.199951171875</ele>
        <time>2021-08-18T09:55:21.000Z</time>
      </trkpt>
      <trkpt lat="43.0909687466919422149658203125" lon="-6.0626944340765476226806640625">
        <ele>1102.800048828125</ele>
        <time>2021-08-18T09:55:23.000Z</time>
      </trkpt>
      <trkpt lat="43.09097302146255970001220703125" lon="-6.06270625256001949310302734375">
        <ele>1102.4000244140625</ele>
        <time>2021-08-18T09:55:24.000Z</time>
      </trkpt>
      <trkpt lat="43.090978972613811492919921875" lon="-6.062718071043491363525390625">
        <ele>1102</ele>
        <time>2021-08-18T09:55:25.000Z</time>
      </trkpt>
      <trkpt lat="43.0909855104982852935791015625" lon="-6.0627289675176143646240234375">
        <ele>1101.800048828125</ele>
        <time>2021-08-18T09:55:26.000Z</time>
      </trkpt>
      <trkpt lat="43.09100822545588016510009765625" lon="-6.0627512633800506591796875">
        <ele>1101.199951171875</ele>
        <time>2021-08-18T09:55:28.000Z</time>
      </trkpt>
      <trkpt lat="43.09101677499711513519287109375" lon="-6.06275889091193675994873046875">
        <ele>1101</ele>
        <time>2021-08-18T09:55:29.000Z</time>
      </trkpt>
      <trkpt lat="43.09103186242282390594482421875" lon="-6.06276802718639373779296875">
        <ele>1100.800048828125</ele>
        <time>2021-08-18T09:55:30.000Z</time>
      </trkpt>
      <trkpt lat="43.0910649709403514862060546875" lon="-6.06282477267086505889892578125">
        <ele>1100.199951171875</ele>
        <time>2021-08-18T09:55:35.000Z</time>
      </trkpt>
      <trkpt lat="43.09106907807290554046630859375" lon="-6.062831394374370574951171875">
        <ele>1100</ele>
        <time>2021-08-18T09:55:36.000Z</time>
      </trkpt>
      <trkpt lat="43.09107528068125247955322265625" lon="-6.06284036301076412200927734375">
        <ele>1100</ele>
        <time>2021-08-18T09:55:37.000Z</time>
      </trkpt>
      <trkpt lat="43.09108735062181949615478515625" lon="-6.0628520138561725616455078125">
        <ele>1099.800048828125</ele>
        <time>2021-08-18T09:55:38.000Z</time>
      </trkpt>
      <trkpt lat="43.09110763482749462127685546875" lon="-6.0628754831850528717041015625">
        <ele>1099.5999755859375</ele>
        <time>2021-08-18T09:55:40.000Z</time>
      </trkpt>
      <trkpt lat="43.09115390293300151824951171875" lon="-6.06291848234832286834716796875">
        <ele>1099.4000244140625</ele>
        <time>2021-08-18T09:55:43.000Z</time>
      </trkpt>
      <trkpt lat="43.09116211719810962677001953125" lon="-6.0629522614181041717529296875">
        <ele>1099.199951171875</ele>
        <time>2021-08-18T09:55:45.000Z</time>
      </trkpt>
      <trkpt lat="43.09118776582181453704833984375" lon="-6.062982939183712005615234375">
        <ele>1099.199951171875</ele>
        <time>2021-08-18T09:55:48.000Z</time>
      </trkpt>
      <trkpt lat="43.09121710248291492462158203125" lon="-6.06300632469356060028076171875">
        <ele>1099</ele>
        <time>2021-08-18T09:55:51.000Z</time>
      </trkpt>
      <trkpt lat="43.091225065290927886962890625" lon="-6.06301479041576385498046875">
        <ele>1099</ele>
        <time>2021-08-18T09:55:52.000Z</time>
      </trkpt>
      <trkpt lat="43.09123571030795574188232421875" lon="-6.063041277229785919189453125">
        <ele>1098.5999755859375</ele>
        <time>2021-08-18T09:55:54.000Z</time>
      </trkpt>
      <trkpt lat="43.0912435054779052734375" lon="-6.0630545206367969512939453125">
        <ele>1098.4000244140625</ele>
        <time>2021-08-18T09:55:55.000Z</time>
      </trkpt>
      <trkpt lat="43.09129253961145877838134765625" lon="-6.06311562471091747283935546875">
        <ele>1098</ele>
        <time>2021-08-18T09:55:59.000Z</time>
      </trkpt>
      <trkpt lat="43.0913687311112880706787109375" lon="-6.063174046576023101806640625">
        <ele>1097.800048828125</ele>
        <time>2021-08-18T09:56:04.000Z</time>
      </trkpt>
      <trkpt lat="43.09140703640878200531005859375" lon="-6.06320480816066265106201171875">
        <ele>1097.5999755859375</ele>
        <time>2021-08-18T09:56:07.000Z</time>
      </trkpt>
      <trkpt lat="43.09144861064851284027099609375" lon="-6.063227690756320953369140625">
        <ele>1097.4000244140625</ele>
        <time>2021-08-18T09:56:11.000Z</time>
      </trkpt>
      <trkpt lat="43.09145866893231868743896484375" lon="-6.0632335580885410308837890625">
        <ele>1097.4000244140625</ele>
        <time>2021-08-18T09:56:12.000Z</time>
      </trkpt>
      <trkpt lat="43.091475181281566619873046875" lon="-6.06324219144880771636962890625">
        <ele>1097.199951171875</ele>
        <time>2021-08-18T09:56:14.000Z</time>
      </trkpt>
      <trkpt lat="43.09147241525352001190185546875" lon="-6.06324546039104461669921875">
        <ele>1097</ele>
        <time>2021-08-18T09:56:15.000Z</time>
      </trkpt>
      <trkpt lat="43.09149806387722492218017578125" lon="-6.06325979344546794891357421875">
        <ele>1096.800048828125</ele>
        <time>2021-08-18T09:56:19.000Z</time>
      </trkpt>
      <trkpt lat="43.0915149115025997161865234375" lon="-6.063261218369007110595703125">
        <ele>1096.800048828125</ele>
        <time>2021-08-18T09:56:21.000Z</time>
      </trkpt>
      <trkpt lat="43.09153653681278228759765625" lon="-6.06325392611324787139892578125">
        <ele>1096.800048828125</ele>
        <time>2021-08-18T09:56:23.000Z</time>
      </trkpt>
      <trkpt lat="43.09155003167688846588134765625" lon="-6.063232719898223876953125">
        <ele>1097</ele>
        <time>2021-08-18T09:56:26.000Z</time>
      </trkpt>
      <trkpt lat="43.0915541388094425201416015625" lon="-6.0632193088531494140625">
        <ele>1097.199951171875</ele>
        <time>2021-08-18T09:56:27.000Z</time>
      </trkpt>
      <trkpt lat="43.0915688909590244293212890625" lon="-6.0631926544010639190673828125">
        <ele>1097.199951171875</ele>
        <time>2021-08-18T09:56:29.000Z</time>
      </trkpt>
      <trkpt lat="43.09161373414099216461181640625" lon="-6.063114702701568603515625">
        <ele>1097.800048828125</ele>
        <time>2021-08-18T09:56:36.000Z</time>
      </trkpt>
      <trkpt lat="43.09161071665585041046142578125" lon="-6.06310573406517505645751953125">
        <ele>1098</ele>
        <time>2021-08-18T09:56:37.000Z</time>
      </trkpt>
      <trkpt lat="43.09162915684282779693603515625" lon="-6.0630940832197666168212890625">
        <ele>1098.800048828125</ele>
        <time>2021-08-18T09:56:40.000Z</time>
      </trkpt>
      <trkpt lat="43.09164022095501422882080078125" lon="-6.06309534050524234771728515625">
        <ele>1099</ele>
        <time>2021-08-18T09:56:41.000Z</time>
      </trkpt>
      <trkpt lat="43.091659583151340484619140625" lon="-6.06309592723846435546875">
        <ele>1099.199951171875</ele>
        <time>2021-08-18T09:56:43.000Z</time>
      </trkpt>
      <trkpt lat="43.0916728265583515167236328125" lon="-6.06309232302010059356689453125">
        <ele>1099.4000244140625</ele>
        <time>2021-08-18T09:56:45.000Z</time>
      </trkpt>
      <trkpt lat="43.09168363921344280242919921875" lon="-6.06309081427752971649169921875">
        <ele>1099.800048828125</ele>
        <time>2021-08-18T09:56:47.000Z</time>
      </trkpt>
      <trkpt lat="43.0917033366858959197998046875" lon="-6.063088886439800262451171875">
        <ele>1100</ele>
        <time>2021-08-18T09:56:49.000Z</time>
      </trkpt>
      <trkpt lat="43.091711215674877166748046875" lon="-6.06308586895465850830078125">
        <ele>1100.199951171875</ele>
        <time>2021-08-18T09:56:50.000Z</time>
      </trkpt>
      <trkpt lat="43.0917237885296344757080078125" lon="-6.06307782232761383056640625">
        <ele>1100.5999755859375</ele>
        <time>2021-08-18T09:56:52.000Z</time>
      </trkpt>
      <trkpt lat="43.09174063615500926971435546875" lon="-6.063068769872188568115234375">
        <ele>1100.800048828125</ele>
        <time>2021-08-18T09:56:54.000Z</time>
      </trkpt>
      <trkpt lat="43.0917663685977458953857421875" lon="-6.06305904686450958251953125">
        <ele>1101</ele>
        <time>2021-08-18T09:56:56.000Z</time>
      </trkpt>
      <trkpt lat="43.09177734889090061187744140625" lon="-6.06305410154163837432861328125">
        <ele>1101.199951171875</ele>
        <time>2021-08-18T09:56:57.000Z</time>
      </trkpt>
      <trkpt lat="43.09180266223847866058349609375" lon="-6.0630409419536590576171875">
        <ele>1101.5999755859375</ele>
        <time>2021-08-18T09:56:59.000Z</time>
      </trkpt>
      <trkpt lat="43.09182445518672466278076171875" lon="-6.06301504187285900115966796875">
        <ele>1102</ele>
        <time>2021-08-18T09:57:01.000Z</time>
      </trkpt>
      <trkpt lat="43.09185027144849300384521484375" lon="-6.06297866441309452056884765625">
        <ele>1102.199951171875</ele>
        <time>2021-08-18T09:57:04.000Z</time>
      </trkpt>
      <trkpt lat="43.09189352206885814666748046875" lon="-6.0629207454621791839599609375">
        <ele>1102.5999755859375</ele>
        <time>2021-08-18T09:57:09.000Z</time>
      </trkpt>
      <trkpt lat="43.0919242836534976959228515625" lon="-6.06285209767520427703857421875">
        <ele>1103.4000244140625</ele>
        <time>2021-08-18T09:57:15.000Z</time>
      </trkpt>
      <trkpt lat="43.0919363535940647125244140625" lon="-6.0628129541873931884765625">
        <ele>1103.199951171875</ele>
        <time>2021-08-18T09:57:18.000Z</time>
      </trkpt>
      <trkpt lat="43.0919516086578369140625" lon="-6.0627727210521697998046875">
        <ele>1103.199951171875</ele>
        <time>2021-08-18T09:57:22.000Z</time>
      </trkpt>
      <trkpt lat="43.09196745045483112335205078125" lon="-6.06269602663815021514892578125">
        <ele>1103</ele>
        <time>2021-08-18T09:57:27.000Z</time>
      </trkpt>
      <trkpt lat="43.09198522008955478668212890625" lon="-6.06260248459875583648681640625">
        <ele>1102.800048828125</ele>
        <time>2021-08-18T09:57:32.000Z</time>
      </trkpt>
      <trkpt lat="43.09200667776167392730712890625" lon="-6.06255873106420040130615234375">
        <ele>1102.4000244140625</ele>
        <time>2021-08-18T09:57:35.000Z</time>
      </trkpt>
      <trkpt lat="43.09201170690357685089111328125" lon="-6.0625452362000942230224609375">
        <ele>1102.4000244140625</ele>
        <time>2021-08-18T09:57:36.000Z</time>
      </trkpt>
      <trkpt lat="43.0920352600514888763427734375" lon="-6.06250978074967861175537109375">
        <ele>1102</ele>
        <time>2021-08-18T09:57:39.000Z</time>
      </trkpt>
      <trkpt lat="43.09205110184848308563232421875" lon="-6.06247893534600734710693359375">
        <ele>1102</ele>
        <time>2021-08-18T09:57:43.000Z</time>
      </trkpt>
      <trkpt lat="43.09208999387919902801513671875" lon="-6.06244943104684352874755859375">
        <ele>1102</ele>
        <time>2021-08-18T09:57:47.000Z</time>
      </trkpt>
      <trkpt lat="43.0921138823032379150390625" lon="-6.06242612935602664947509765625">
        <ele>1101.800048828125</ele>
        <time>2021-08-18T09:57:50.000Z</time>
      </trkpt>
      <trkpt lat="43.09212796390056610107421875" lon="-6.06241020374000072479248046875">
        <ele>1101.800048828125</ele>
        <time>2021-08-18T09:57:52.000Z</time>
      </trkpt>
      <trkpt lat="43.0921479128301143646240234375" lon="-6.06239897198975086212158203125">
        <ele>1101.800048828125</ele>
        <time>2021-08-18T09:57:54.000Z</time>
      </trkpt>
      <trkpt lat="43.0921728909015655517578125" lon="-6.06238639913499355316162109375">
        <ele>1101.800048828125</ele>
        <time>2021-08-18T09:57:57.000Z</time>
      </trkpt>
      <trkpt lat="43.09217582456767559051513671875" lon="-6.0623806156218051910400390625">
        <ele>1101.800048828125</ele>
        <time>2021-08-18T09:57:58.000Z</time>
      </trkpt>
      <trkpt lat="43.092190325260162353515625" lon="-6.06237064115703105926513671875">
        <ele>1101.800048828125</ele>
        <time>2021-08-18T09:58:00.000Z</time>
      </trkpt>
      <trkpt lat="43.0922156386077404022216796875" lon="-6.0623574815690517425537109375">
        <ele>1102</ele>
        <time>2021-08-18T09:58:02.000Z</time>
      </trkpt>
      <trkpt lat="43.09224992059171199798583984375" lon="-6.0623387061059474945068359375">
        <ele>1102</ele>
        <time>2021-08-18T09:58:04.000Z</time>
      </trkpt>
      <trkpt lat="43.0922934226691722869873046875" lon="-6.062327809631824493408203125">
        <ele>1102.199951171875</ele>
        <time>2021-08-18T09:58:07.000Z</time>
      </trkpt>
      <trkpt lat="43.09237196110188961029052734375" lon="-6.0623501054942607879638671875">
        <ele>1102.199951171875</ele>
        <time>2021-08-18T09:58:13.000Z</time>
      </trkpt>
      <trkpt lat="43.09239727444946765899658203125" lon="-6.06236561201512813568115234375">
        <ele>1102.199951171875</ele>
        <time>2021-08-18T09:58:16.000Z</time>
      </trkpt>
      <trkpt lat="43.09247128665447235107421875" lon="-6.06239863671362400054931640625">
        <ele>1101.800048828125</ele>
        <time>2021-08-18T09:58:22.000Z</time>
      </trkpt>
      <trkpt lat="43.0924798361957073211669921875" lon="-6.06239922344684600830078125">
        <ele>1101.800048828125</ele>
        <time>2021-08-18T09:58:23.000Z</time>
      </trkpt>
      <trkpt lat="43.0925234220921993255615234375" lon="-6.06238153763115406036376953125">
        <ele>1102</ele>
        <time>2021-08-18T09:58:29.000Z</time>
      </trkpt>
      <trkpt lat="43.0925328098237514495849609375" lon="-6.062374077737331390380859375">
        <ele>1102</ele>
        <time>2021-08-18T09:58:30.000Z</time>
      </trkpt>
      <trkpt lat="43.092593662440776824951171875" lon="-6.06228464283049106597900390625">
        <ele>1102.4000244140625</ele>
        <time>2021-08-18T09:58:37.000Z</time>
      </trkpt>
      <trkpt lat="43.092605732381343841552734375" lon="-6.0622220300137996673583984375">
        <ele>1102.800048828125</ele>
        <time>2021-08-18T09:58:42.000Z</time>
      </trkpt>
      <trkpt lat="43.09260581620037555694580078125" lon="-6.06218908913433551788330078125">
        <ele>1103</ele>
        <time>2021-08-18T09:58:44.000Z</time>
      </trkpt>
      <trkpt lat="43.0926105938851833343505859375" lon="-6.0621459223330020904541015625">
        <ele>1103.4000244140625</ele>
        <time>2021-08-18T09:58:47.000Z</time>
      </trkpt>
      <trkpt lat="43.092597015202045440673828125" lon="-6.06209035031497478485107421875">
        <ele>1103.5999755859375</ele>
        <time>2021-08-18T09:58:51.000Z</time>
      </trkpt>
      <trkpt lat="43.09262752532958984375" lon="-6.0619573295116424560546875">
        <ele>1104.199951171875</ele>
        <time>2021-08-18T09:59:00.000Z</time>
      </trkpt>
      <trkpt lat="43.09262995608150959014892578125" lon="-6.06194148771464824676513671875">
        <ele>1104.5999755859375</ele>
        <time>2021-08-18T09:59:01.000Z</time>
      </trkpt>
      <trkpt lat="43.09263221919536590576171875" lon="-6.061932183802127838134765625">
        <ele>1104.800048828125</ele>
        <time>2021-08-18T09:59:02.000Z</time>
      </trkpt>
      <trkpt lat="43.09263666160404682159423828125" lon="-6.0619092173874378204345703125">
        <ele>1104.800048828125</ele>
        <time>2021-08-18T09:59:04.000Z</time>
      </trkpt>
      <trkpt lat="43.0926583707332611083984375" lon="-6.061846353113651275634765625">
        <ele>1105.199951171875</ele>
        <time>2021-08-18T09:59:08.000Z</time>
      </trkpt>
      <trkpt lat="43.092676140367984771728515625" lon="-6.06182464398443698883056640625">
        <ele>1105.5999755859375</ele>
        <time>2021-08-18T09:59:10.000Z</time>
      </trkpt>
      <trkpt lat="43.0926960892975330352783203125" lon="-6.061784662306308746337890625">
        <ele>1106.4000244140625</ele>
        <time>2021-08-18T09:59:15.000Z</time>
      </trkpt>
      <trkpt lat="43.09270706959068775177001953125" lon="-6.061771921813488006591796875">
        <ele>1106.800048828125</ele>
        <time>2021-08-18T09:59:17.000Z</time>
      </trkpt>
      <trkpt lat="43.0927388370037078857421875" lon="-6.06174551881849765777587890625">
        <ele>1107.4000244140625</ele>
        <time>2021-08-18T09:59:20.000Z</time>
      </trkpt>
      <trkpt lat="43.09275551699101924896240234375" lon="-6.06173562817275524139404296875">
        <ele>1107.5999755859375</ele>
        <time>2021-08-18T09:59:22.000Z</time>
      </trkpt>
      <trkpt lat="43.09276071377098560333251953125" lon="-6.0617321915924549102783203125">
        <ele>1107.800048828125</ele>
        <time>2021-08-18T09:59:23.000Z</time>
      </trkpt>
      <trkpt lat="43.09276574291288852691650390625" lon="-6.0617278330028057098388671875">
        <ele>1108</ele>
        <time>2021-08-18T09:59:24.000Z</time>
      </trkpt>
      <trkpt lat="43.092778734862804412841796875" lon="-6.0617191158235073089599609375">
        <ele>1108.199951171875</ele>
        <time>2021-08-18T09:59:26.000Z</time>
      </trkpt>
      <trkpt lat="43.0927903018891811370849609375" lon="-6.06171819381415843963623046875">
        <ele>1108.199951171875</ele>
        <time>2021-08-18T09:59:27.000Z</time>
      </trkpt>
      <trkpt lat="43.09280396439135074615478515625" lon="-6.06171400286257266998291015625">
        <ele>1108.4000244140625</ele>
        <time>2021-08-18T09:59:28.000Z</time>
      </trkpt>
      <trkpt lat="43.09285358525812625885009765625" lon="-6.06170562095940113067626953125">
        <ele>1108.5999755859375</ele>
        <time>2021-08-18T09:59:31.000Z</time>
      </trkpt>
      <trkpt lat="43.09286531992256641387939453125" lon="-6.0616979934275150299072265625">
        <ele>1108.5999755859375</ele>
        <time>2021-08-18T09:59:32.000Z</time>
      </trkpt>
      <trkpt lat="43.09287755750119686126708984375" lon="-6.06169070117175579071044921875">
        <ele>1108.800048828125</ele>
        <time>2021-08-18T09:59:33.000Z</time>
      </trkpt>
      <trkpt lat="43.09300328604876995086669921875" lon="-6.06162632815539836883544921875">
        <ele>1109.5999755859375</ele>
        <time>2021-08-18T09:59:42.000Z</time>
      </trkpt>
      <trkpt lat="43.09304737485945224761962890625" lon="-6.06160051189363002777099609375">
        <ele>1110</ele>
        <time>2021-08-18T09:59:47.000Z</time>
      </trkpt>
      <trkpt lat="43.09309515170753002166748046875" lon="-6.06158425100147724151611328125">
        <ele>1110.5999755859375</ele>
        <time>2021-08-18T09:59:51.000Z</time>
      </trkpt>
      <trkpt lat="43.0931396596133708953857421875" lon="-6.06157218106091022491455078125">
        <ele>1111</ele>
        <time>2021-08-18T09:59:55.000Z</time>
      </trkpt>
      <trkpt lat="43.093177713453769683837890625" lon="-6.06153261847794055938720703125">
        <ele>1111.4000244140625</ele>
        <time>2021-08-18T09:59:59.000Z</time>
      </trkpt>
      <trkpt lat="43.0932352133095264434814453125" lon="-6.06150395236909389495849609375">
        <ele>1112.199951171875</ele>
        <time>2021-08-18T10:00:05.000Z</time>
      </trkpt>
      <trkpt lat="43.0932885222136974334716796875" lon="-6.0614921338856220245361328125">
        <ele>1112.5999755859375</ele>
        <time>2021-08-18T10:00:09.000Z</time>
      </trkpt>
      <trkpt lat="43.0933371372520923614501953125" lon="-6.06146422214806079864501953125">
        <ele>1112.5999755859375</ele>
        <time>2021-08-18T10:00:14.000Z</time>
      </trkpt>
      <trkpt lat="43.09335079975426197052001953125" lon="-6.061456091701984405517578125">
        <ele>1112.5999755859375</ele>
        <time>2021-08-18T10:00:15.000Z</time>
      </trkpt>
      <trkpt lat="43.093429841101169586181640625" lon="-6.06139314360916614532470703125">
        <ele>1112.199951171875</ele>
        <time>2021-08-18T10:00:21.000Z</time>
      </trkpt>
      <trkpt lat="43.09350385330617427825927734375" lon="-6.06130932457745075225830078125">
        <ele>1111.5999755859375</ele>
        <time>2021-08-18T10:00:29.000Z</time>
      </trkpt>
      <trkpt lat="43.09351139701902866363525390625" lon="-6.06129792518913745880126953125">
        <ele>1111.5999755859375</ele>
        <time>2021-08-18T10:00:30.000Z</time>
      </trkpt>
      <trkpt lat="43.09353151358664035797119140625" lon="-6.06127043254673480987548828125">
        <ele>1111.800048828125</ele>
        <time>2021-08-18T10:00:32.000Z</time>
      </trkpt>
      <trkpt lat="43.093550540506839752197265625" lon="-6.06124277226626873016357421875">
        <ele>1111.800048828125</ele>
        <time>2021-08-18T10:00:34.000Z</time>
      </trkpt>
      <trkpt lat="43.093565963208675384521484375" lon="-6.06120388023555278778076171875">
        <ele>1112</ele>
        <time>2021-08-18T10:00:37.000Z</time>
      </trkpt>
      <trkpt lat="43.09357233345508575439453125" lon="-6.0611870326101779937744140625">
        <ele>1112.199951171875</ele>
        <time>2021-08-18T10:00:38.000Z</time>
      </trkpt>
      <trkpt lat="43.093585073947906494140625" lon="-6.06111821718513965606689453125">
        <ele>1112.800048828125</ele>
        <time>2021-08-18T10:00:42.000Z</time>
      </trkpt>
      <trkpt lat="43.0935922823846340179443359375" lon="-6.06108871288597583770751953125">
        <ele>1113.4000244140625</ele>
        <time>2021-08-18T10:00:44.000Z</time>
      </trkpt>
      <trkpt lat="43.09359488077461719512939453125" lon="-6.06107044033706188201904296875">
        <ele>1113.5999755859375</ele>
        <time>2021-08-18T10:00:45.000Z</time>
      </trkpt>
      <trkpt lat="43.09363134205341339111328125" lon="-6.0609939135611057281494140625">
        <ele>1114.4000244140625</ele>
        <time>2021-08-18T10:00:51.000Z</time>
      </trkpt>
      <trkpt lat="43.09363863430917263031005859375" lon="-6.06097941286861896514892578125">
        <ele>1114.4000244140625</ele>
        <time>2021-08-18T10:00:52.000Z</time>
      </trkpt>
      <trkpt lat="43.09370568953454494476318359375" lon="-6.060918308794498443603515625">
        <ele>1114.800048828125</ele>
        <time>2021-08-18T10:00:58.000Z</time>
      </trkpt>
      <trkpt lat="43.09372345916926860809326171875" lon="-6.06091252528131008148193359375">
        <ele>1114.800048828125</ele>
        <time>2021-08-18T10:00:59.000Z</time>
      </trkpt>
      <trkpt lat="43.09374424628913402557373046875" lon="-6.06090615503489971160888671875">
        <ele>1115</ele>
        <time>2021-08-18T10:01:01.000Z</time>
      </trkpt>
      <trkpt lat="43.093751706182956695556640625" lon="-6.06090389192104339599609375">
        <ele>1114.800048828125</ele>
        <time>2021-08-18T10:01:02.000Z</time>
      </trkpt>
      <trkpt lat="43.0937595851719379425048828125" lon="-6.06090414337813854217529296875">
        <ele>1114.800048828125</ele>
        <time>2021-08-18T10:01:03.000Z</time>
      </trkpt>
      <trkpt lat="43.09377894736826419830322265625" lon="-6.06090120971202850341796875">
        <ele>1114.800048828125</ele>
        <time>2021-08-18T10:01:05.000Z</time>
      </trkpt>
      <trkpt lat="43.0938621796667575836181640625" lon="-6.06088922359049320220947265625">
        <ele>1114.800048828125</ele>
        <time>2021-08-18T10:01:12.000Z</time>
      </trkpt>
      <trkpt lat="43.093867711722850799560546875" lon="-6.06087983585894107818603515625">
        <ele>1114.800048828125</ele>
        <time>2021-08-18T10:01:13.000Z</time>
      </trkpt>
      <trkpt lat="43.09386963956058025360107421875" lon="-6.0608644969761371612548828125">
        <ele>1114.800048828125</ele>
        <time>2021-08-18T10:01:14.000Z</time>
      </trkpt>
      <trkpt lat="43.09386947192251682281494140625" lon="-6.0608333162963390350341796875">
        <ele>1115</ele>
        <time>2021-08-18T10:01:16.000Z</time>
      </trkpt>
      <trkpt lat="43.09386393986642360687255859375" lon="-6.06076567433774471282958984375">
        <ele>1115</ele>
        <time>2021-08-18T10:01:20.000Z</time>
      </trkpt>
      <trkpt lat="43.09386293403804302215576171875" lon="-6.06071521528065204620361328125">
        <ele>1115.199951171875</ele>
        <time>2021-08-18T10:01:23.000Z</time>
      </trkpt>
      <trkpt lat="43.09386176057159900665283203125" lon="-6.0607008822262287139892578125">
        <ele>1115.4000244140625</ele>
        <time>2021-08-18T10:01:24.000Z</time>
      </trkpt>
      <trkpt lat="43.0938613414764404296875" lon="-6.060633994638919830322265625">
        <ele>1116.199951171875</ele>
        <time>2021-08-18T10:01:28.000Z</time>
      </trkpt>
      <trkpt lat="43.093862347304821014404296875" lon="-6.060615889728069305419921875">
        <ele>1116.4000244140625</ele>
        <time>2021-08-18T10:01:29.000Z</time>
      </trkpt>
      <trkpt lat="43.09386511333286762237548828125" lon="-6.06060071848332881927490234375">
        <ele>1116.5999755859375</ele>
        <time>2021-08-18T10:01:30.000Z</time>
      </trkpt>
      <trkpt lat="43.0938685499131679534912109375" lon="-6.06056015007197856903076171875">
        <ele>1117</ele>
        <time>2021-08-18T10:01:33.000Z</time>
      </trkpt>
      <trkpt lat="43.09387600980699062347412109375" lon="-6.06054707430303096771240234375">
        <ele>1117.199951171875</ele>
        <time>2021-08-18T10:01:34.000Z</time>
      </trkpt>
      <trkpt lat="43.093884475529193878173828125" lon="-6.0605319030582904815673828125">
        <ele>1117.5999755859375</ele>
        <time>2021-08-18T10:01:35.000Z</time>
      </trkpt>
      <trkpt lat="43.09390618465840816497802734375" lon="-6.06049795635044574737548828125">
        <ele>1117.800048828125</ele>
        <time>2021-08-18T10:01:37.000Z</time>
      </trkpt>
      <trkpt lat="43.09392462484538555145263671875" lon="-6.06046342290937900543212890625">
        <ele>1118</ele>
        <time>2021-08-18T10:01:39.000Z</time>
      </trkpt>
      <trkpt lat="43.09394105337560176849365234375" lon="-6.06041614897549152374267578125">
        <ele>1118.5999755859375</ele>
        <time>2021-08-18T10:01:42.000Z</time>
      </trkpt>
      <trkpt lat="43.09394516050815582275390625" lon="-6.0604024864733219146728515625">
        <ele>1118.800048828125</ele>
        <time>2021-08-18T10:01:43.000Z</time>
      </trkpt>
      <trkpt lat="43.093954212963581085205078125" lon="-6.06037373654544353485107421875">
        <ele>1119.199951171875</ele>
        <time>2021-08-18T10:01:45.000Z</time>
      </trkpt>
      <trkpt lat="43.09396670199930667877197265625" lon="-6.060346662998199462890625">
        <ele>1119.4000244140625</ele>
        <time>2021-08-18T10:01:47.000Z</time>
      </trkpt>
      <trkpt lat="43.093971647322177886962890625" lon="-6.06033383868634700775146484375">
        <ele>1119.5999755859375</ele>
        <time>2021-08-18T10:01:48.000Z</time>
      </trkpt>
      <trkpt lat="43.0939858965575695037841796875" lon="-6.0602945275604724884033203125">
        <ele>1120.199951171875</ele>
        <time>2021-08-18T10:01:51.000Z</time>
      </trkpt>
      <trkpt lat="43.09398111887276172637939453125" lon="-6.06028019450604915618896484375">
        <ele>1120.4000244140625</ele>
        <time>2021-08-18T10:01:53.000Z</time>
      </trkpt>
      <trkpt lat="43.0939801968634128570556640625" lon="-6.06027893722057342529296875">
        <ele>1120.5999755859375</ele>
        <time>2021-08-18T10:01:54.000Z</time>
      </trkpt>
      <trkpt lat="43.09397122822701930999755859375" lon="-6.06027784757316112518310546875">
        <ele>1121.4000244140625</ele>
        <time>2021-08-18T10:02:01.000Z</time>
      </trkpt>
      <trkpt lat="43.09396636672317981719970703125" lon="-6.0602666996419429779052734375">
        <ele>1121</ele>
        <time>2021-08-18T10:02:08.000Z</time>
      </trkpt>
      <trkpt lat="43.0939667858183383941650390625" lon="-6.0602680407464504241943359375">
        <ele>1121</ele>
        <time>2021-08-18T10:02:09.000Z</time>
      </trkpt>
      <trkpt lat="43.09396720491349697113037109375" lon="-6.060262508690357208251953125">
        <ele>1121</ele>
        <time>2021-08-18T10:02:11.000Z</time>
      </trkpt>
      <trkpt lat="43.093988411128520965576171875" lon="-6.06023543514311313629150390625">
        <ele>1120.800048828125</ele>
        <time>2021-08-18T10:02:14.000Z</time>
      </trkpt>
      <trkpt lat="43.0939833819866180419921875" lon="-6.06020760722458362579345703125">
        <ele>1120.800048828125</ele>
        <time>2021-08-18T10:02:16.000Z</time>
      </trkpt>
      <trkpt lat="43.09398078359663486480712890625" lon="-6.060196124017238616943359375">
        <ele>1120.800048828125</ele>
        <time>2021-08-18T10:02:17.000Z</time>
      </trkpt>
      <trkpt lat="43.09397558681666851043701171875" lon="-6.0601889155805110931396484375">
        <ele>1120.5999755859375</ele>
        <time>2021-08-18T10:02:18.000Z</time>
      </trkpt>
      <trkpt lat="43.09399017132818698883056640625" lon="-6.06013384647667407989501953125">
        <ele>1120</ele>
        <time>2021-08-18T10:02:23.000Z</time>
      </trkpt>
      <trkpt lat="43.09398832730948925018310546875" lon="-6.06010819785296916961669921875">
        <ele>1120</ele>
        <time>2021-08-18T10:02:25.000Z</time>
      </trkpt>
      <trkpt lat="43.09399218298494815826416015625" lon="-6.06007249094545841217041015625">
        <ele>1119.5999755859375</ele>
        <time>2021-08-18T10:02:28.000Z</time>
      </trkpt>
      <trkpt lat="43.0940147303044795989990234375" lon="-6.06003217399120330810546875">
        <ele>1118.800048828125</ele>
        <time>2021-08-18T10:02:32.000Z</time>
      </trkpt>
      <trkpt lat="43.09402403421700000762939453125" lon="-6.06001113541424274444580078125">
        <ele>1118.4000244140625</ele>
        <time>2021-08-18T10:02:34.000Z</time>
      </trkpt>
      <trkpt lat="43.0940298177301883697509765625" lon="-6.0600006580352783203125">
        <ele>1118.4000244140625</ele>
        <time>2021-08-18T10:02:35.000Z</time>
      </trkpt>
      <trkpt lat="43.094046413898468017578125" lon="-6.05993938632309436798095703125">
        <ele>1118.5999755859375</ele>
        <time>2021-08-18T10:02:41.000Z</time>
      </trkpt>
      <trkpt lat="43.09405303560197353363037109375" lon="-6.05990879237651824951171875">
        <ele>1118.5999755859375</ele>
        <time>2021-08-18T10:02:44.000Z</time>
      </trkpt>
      <trkpt lat="43.09406477026641368865966796875" lon="-6.0598720796406269073486328125">
        <ele>1118.5999755859375</ele>
        <time>2021-08-18T10:02:47.000Z</time>
      </trkpt>
      <trkpt lat="43.094089664518833160400390625" lon="-6.05979538522660732269287109375">
        <ele>1119.4000244140625</ele>
        <time>2021-08-18T10:02:53.000Z</time>
      </trkpt>
      <trkpt lat="43.094098381698131561279296875" lon="-6.0597671382129192352294921875">
        <ele>1119.5999755859375</ele>
        <time>2021-08-18T10:02:55.000Z</time>
      </trkpt>
      <trkpt lat="43.0941384471952915191650390625" lon="-6.05970385484397411346435546875">
        <ele>1120</ele>
        <time>2021-08-18T10:03:01.000Z</time>
      </trkpt>
      <trkpt lat="43.09419058263301849365234375" lon="-6.05966378934681415557861328125">
        <ele>1120.5999755859375</ele>
        <time>2021-08-18T10:03:06.000Z</time>
      </trkpt>
      <trkpt lat="43.0942718870937824249267578125" lon="-6.0596330277621746063232421875">
        <ele>1120.800048828125</ele>
        <time>2021-08-18T10:03:13.000Z</time>
      </trkpt>
      <trkpt lat="43.09437565505504608154296875" lon="-6.05958265252411365509033203125">
        <ele>1120.4000244140625</ele>
        <time>2021-08-18T10:03:22.000Z</time>
      </trkpt>
      <trkpt lat="43.0943862162530422210693359375" lon="-6.0595813952386379241943359375">
        <ele>1120.4000244140625</ele>
        <time>2021-08-18T10:03:23.000Z</time>
      </trkpt>
      <trkpt lat="43.0944261141121387481689453125" lon="-6.0595468617975711822509765625">
        <ele>1119.800048828125</ele>
        <time>2021-08-18T10:03:28.000Z</time>
      </trkpt>
      <trkpt lat="43.094433657824993133544921875" lon="-6.059514172375202178955078125">
        <ele>1119.5999755859375</ele>
        <time>2021-08-18T10:03:31.000Z</time>
      </trkpt>
      <trkpt lat="43.094449751079082489013671875" lon="-6.05945927090942859649658203125">
        <ele>1119.4000244140625</ele>
        <time>2021-08-18T10:03:35.000Z</time>
      </trkpt>
      <trkpt lat="43.09447355568408966064453125" lon="-6.05938165448606014251708984375">
        <ele>1119.4000244140625</ele>
        <time>2021-08-18T10:03:40.000Z</time>
      </trkpt>
      <trkpt lat="43.09450884349644184112548828125" lon="-6.05928291566669940948486328125">
        <ele>1120</ele>
        <time>2021-08-18T10:03:46.000Z</time>
      </trkpt>
      <trkpt lat="43.09452376328408718109130859375" lon="-6.0592270083725452423095703125">
        <ele>1120.4000244140625</ele>
        <time>2021-08-18T10:03:49.000Z</time>
      </trkpt>
      <trkpt lat="43.09453189373016357421875" lon="-6.05920580215752124786376953125">
        <ele>1120.5999755859375</ele>
        <time>2021-08-18T10:03:51.000Z</time>
      </trkpt>
      <trkpt lat="43.094556368887424468994140625" lon="-6.05914863757789134979248046875">
        <ele>1120.800048828125</ele>
        <time>2021-08-18T10:03:55.000Z</time>
      </trkpt>
      <trkpt lat="43.09456516988575458526611328125" lon="-6.05913572944700717926025390625">
        <ele>1120.800048828125</ele>
        <time>2021-08-18T10:03:56.000Z</time>
      </trkpt>
      <trkpt lat="43.09459903277456760406494140625" lon="-6.05902257375419139862060546875">
        <ele>1121</ele>
        <time>2021-08-18T10:04:02.000Z</time>
      </trkpt>
      <trkpt lat="43.09460322372615337371826171875" lon="-6.059015952050685882568359375">
        <ele>1121.199951171875</ele>
        <time>2021-08-18T10:04:03.000Z</time>
      </trkpt>
      <trkpt lat="43.09460322372615337371826171875" lon="-6.05901251547038555145263671875">
        <ele>1121.199951171875</ele>
        <time>2021-08-18T10:04:04.000Z</time>
      </trkpt>
      <trkpt lat="43.09460137970745563507080078125" lon="-6.05900631286203861236572265625">
        <ele>1121.199951171875</ele>
        <time>2021-08-18T10:04:05.000Z</time>
      </trkpt>
      <trkpt lat="43.094599284231662750244140625" lon="-6.05900413356721401214599609375">
        <ele>1121.4000244140625</ele>
        <time>2021-08-18T10:04:06.000Z</time>
      </trkpt>
      <trkpt lat="43.09459568001329898834228515625" lon="-6.05899223126471042633056640625">
        <ele>1121.5999755859375</ele>
        <time>2021-08-18T10:04:10.000Z</time>
      </trkpt>
      <trkpt lat="43.094592578709125518798828125" lon="-6.05898485518991947174072265625">
        <ele>1122</ele>
        <time>2021-08-18T10:04:12.000Z</time>
      </trkpt>
      <trkpt lat="43.09459132142364978790283203125" lon="-6.05897798202931880950927734375">
        <ele>1122.199951171875</ele>
        <time>2021-08-18T10:04:15.000Z</time>
      </trkpt>
      <trkpt lat="43.0945909023284912109375" lon="-6.05897647328674793243408203125">
        <ele>1122.199951171875</ele>
        <time>2021-08-18T10:04:16.000Z</time>
      </trkpt>
      <trkpt lat="43.09458998031914234161376953125" lon="-6.05897177942097187042236328125">
        <ele>1122</ele>
        <time>2021-08-18T10:04:20.000Z</time>
      </trkpt>
      <trkpt lat="43.094588555395603179931640625" lon="-6.05895199812948703765869140625">
        <ele>1121.800048828125</ele>
        <time>2021-08-18T10:04:28.000Z</time>
      </trkpt>
      <trkpt lat="43.09458629228174686431884765625" lon="-6.05894386768341064453125">
        <ele>1121.800048828125</ele>
        <time>2021-08-18T10:04:32.000Z</time>
      </trkpt>
      <trkpt lat="43.0945909023284912109375" lon="-6.05891427956521511077880859375">
        <ele>1121.5999755859375</ele>
        <time>2021-08-18T10:04:39.000Z</time>
      </trkpt>
      <trkpt lat="43.0945528484880924224853515625" lon="-6.05895484797656536102294921875">
        <ele>1121.800048828125</ele>
        <time>2021-08-18T10:04:45.000Z</time>
      </trkpt>
      <trkpt lat="43.0945558659732341766357421875" lon="-6.0589747130870819091796875">
        <ele>1121.5999755859375</ele>
        <time>2021-08-18T10:04:47.000Z</time>
      </trkpt>
      <trkpt lat="43.0945471487939357757568359375" lon="-6.0590070672333240509033203125">
        <ele>1121.5999755859375</ele>
        <time>2021-08-18T10:04:49.000Z</time>
      </trkpt>
      <trkpt lat="43.0945602245628833770751953125" lon="-6.05902324430644512176513671875">
        <ele>1121.5999755859375</ele>
        <time>2021-08-18T10:04:50.000Z</time>
      </trkpt>
      <trkpt lat="43.09455444104969501495361328125" lon="-6.05904201976954936981201171875">
        <ele>1122</ele>
        <time>2021-08-18T10:04:56.000Z</time>
      </trkpt>
      <trkpt lat="43.09456751681864261627197265625" lon="-6.059032045304775238037109375">
        <ele>1122.4000244140625</ele>
        <time>2021-08-18T10:05:02.000Z</time>
      </trkpt>
      <trkpt lat="43.09457011520862579345703125" lon="-6.05903665535151958465576171875">
        <ele>1122.4000244140625</ele>
        <time>2021-08-18T10:05:06.000Z</time>
      </trkpt>
      <trkpt lat="43.09456768445670604705810546875" lon="-6.05903766117990016937255859375">
        <ele>1122.199951171875</ele>
        <time>2021-08-18T10:05:10.000Z</time>
      </trkpt>
      <trkpt lat="43.0945655889809131622314453125" lon="-6.059007234871387481689453125">
        <ele>1122.199951171875</ele>
        <time>2021-08-18T10:05:22.000Z</time>
      </trkpt>
      <trkpt lat="43.094598948955535888671875" lon="-6.05892098508775234222412109375">
        <ele>1122.199951171875</ele>
        <time>2021-08-18T10:05:31.000Z</time>
      </trkpt>
      <trkpt lat="43.09463675133883953094482421875" lon="-6.05884395539760589599609375">
        <ele>1121.4000244140625</ele>
        <time>2021-08-18T10:05:37.000Z</time>
      </trkpt>
      <trkpt lat="43.09464245103299617767333984375" lon="-6.05883079580962657928466796875">
        <ele>1121.199951171875</ele>
        <time>2021-08-18T10:05:38.000Z</time>
      </trkpt>
      <trkpt lat="43.094647563993930816650390625" lon="-6.0588002018630504608154296875">
        <ele>1120.800048828125</ele>
        <time>2021-08-18T10:05:40.000Z</time>
      </trkpt>
      <trkpt lat="43.094660975039005279541015625" lon="-6.05877011083066463470458984375">
        <ele>1120.800048828125</ele>
        <time>2021-08-18T10:05:43.000Z</time>
      </trkpt>
      <trkpt lat="43.0946775712072849273681640625" lon="-6.05875678360462188720703125">
        <ele>1120.800048828125</ele>
        <time>2021-08-18T10:05:46.000Z</time>
      </trkpt>
      <trkpt lat="43.09470330365002155303955078125" lon="-6.05875519104301929473876953125">
        <ele>1120.800048828125</ele>
        <time>2021-08-18T10:05:54.000Z</time>
      </trkpt>
      <trkpt lat="43.09469207189977169036865234375" lon="-6.05875074863433837890625">
        <ele>1120.800048828125</ele>
        <time>2021-08-18T10:06:04.000Z</time>
      </trkpt>
      <trkpt lat="43.09468084014952182769775390625" lon="-6.0587455518543720245361328125">
        <ele>1120.800048828125</ele>
        <time>2021-08-18T10:06:07.000Z</time>
      </trkpt>
      <trkpt lat="43.094673715531826019287109375" lon="-6.05874312110245227813720703125">
        <ele>1120.800048828125</ele>
        <time>2021-08-18T10:06:08.000Z</time>
      </trkpt>
      <trkpt lat="43.09466374106705188751220703125" lon="-6.05872920714318752288818359375">
        <ele>1120.5999755859375</ele>
        <time>2021-08-18T10:06:10.000Z</time>
      </trkpt>
      <trkpt lat="43.09466357342898845672607421875" lon="-6.0586620680987834930419921875">
        <ele>1120.4000244140625</ele>
        <time>2021-08-18T10:06:16.000Z</time>
      </trkpt>
      <trkpt lat="43.094721995294094085693359375" lon="-6.0585732199251651763916015625">
        <ele>1120.199951171875</ele>
        <time>2021-08-18T10:06:25.000Z</time>
      </trkpt>
      <trkpt lat="43.09474387206137180328369140625" lon="-6.0585638321936130523681640625">
        <ele>1120.199951171875</ele>
        <time>2021-08-18T10:06:27.000Z</time>
      </trkpt>
      <trkpt lat="43.0947717837989330291748046875" lon="-6.0585484094917774200439453125">
        <ele>1120</ele>
        <time>2021-08-18T10:06:30.000Z</time>
      </trkpt>
      <trkpt lat="43.09486976824700832366943359375" lon="-6.0585306398570537567138671875">
        <ele>1120.5999755859375</ele>
        <time>2021-08-18T10:06:41.000Z</time>
      </trkpt>
      <trkpt lat="43.09490195475518703460693359375" lon="-6.05853189714252948760986328125">
        <ele>1120.800048828125</ele>
        <time>2021-08-18T10:06:44.000Z</time>
      </trkpt>
      <trkpt lat="43.0949250049889087677001953125" lon="-6.05853105895221233367919921875">
        <ele>1120.800048828125</ele>
        <time>2021-08-18T10:06:46.000Z</time>
      </trkpt>
      <trkpt lat="43.09494151733815670013427734375" lon="-6.0585349984467029571533203125">
        <ele>1120.800048828125</ele>
        <time>2021-08-18T10:06:47.000Z</time>
      </trkpt>
      <trkpt lat="43.09496968053281307220458984375" lon="-6.05854178778827190399169921875">
        <ele>1121.199951171875</ele>
        <time>2021-08-18T10:06:49.000Z</time>
      </trkpt>
      <trkpt lat="43.0950329639017581939697265625" lon="-6.058537848293781280517578125">
        <ele>1121.5999755859375</ele>
        <time>2021-08-18T10:06:54.000Z</time>
      </trkpt>
      <trkpt lat="43.09505953453481197357177734375" lon="-6.05853189714252948760986328125">
        <ele>1121.4000244140625</ele>
        <time>2021-08-18T10:06:56.000Z</time>
      </trkpt>
      <trkpt lat="43.09520957060158252716064453125" lon="-6.05849199928343296051025390625">
        <ele>1121.5999755859375</ele>
        <time>2021-08-18T10:07:09.000Z</time>
      </trkpt>
      <trkpt lat="43.0952230654656887054443359375" lon="-6.0584837011992931365966796875">
        <ele>1121.800048828125</ele>
        <time>2021-08-18T10:07:10.000Z</time>
      </trkpt>
      <trkpt lat="43.09532524086534976959228515625" lon="-6.0584570467472076416015625">
        <ele>1122</ele>
        <time>2021-08-18T10:07:18.000Z</time>
      </trkpt>
      <trkpt lat="43.09534099884331226348876953125" lon="-6.05845495127141475677490234375">
        <ele>1122</ele>
        <time>2021-08-18T10:07:19.000Z</time>
      </trkpt>
      <trkpt lat="43.09537871740758419036865234375" lon="-6.0584427975118160247802734375">
        <ele>1122.4000244140625</ele>
        <time>2021-08-18T10:07:22.000Z</time>
      </trkpt>
      <trkpt lat="43.09541190974414348602294921875" lon="-6.05843089520931243896484375">
        <ele>1122.5999755859375</ele>
        <time>2021-08-18T10:07:25.000Z</time>
      </trkpt>
      <trkpt lat="43.0954369716346263885498046875" lon="-6.0584320686757564544677734375">
        <ele>1122.800048828125</ele>
        <time>2021-08-18T10:07:27.000Z</time>
      </trkpt>
      <trkpt lat="43.09558088891208171844482421875" lon="-6.0584072582423686981201171875">
        <ele>1123.199951171875</ele>
        <time>2021-08-18T10:07:39.000Z</time>
      </trkpt>
      <trkpt lat="43.09570209123194217681884765625" lon="-6.05828898958861827850341796875">
        <ele>1122.4000244140625</ele>
        <time>2021-08-18T10:07:50.000Z</time>
      </trkpt>
      <trkpt lat="43.0957098864018917083740234375" lon="-6.05827641673386096954345703125">
        <ele>1122.4000244140625</ele>
        <time>2021-08-18T10:07:51.000Z</time>
      </trkpt>
      <trkpt lat="43.09574333019554615020751953125" lon="-6.058186478912830352783203125">
        <ele>1122.199951171875</ele>
        <time>2021-08-18T10:07:56.000Z</time>
      </trkpt>
      <trkpt lat="43.09578021056950092315673828125" lon="-6.05810726992785930633544921875">
        <ele>1122</ele>
        <time>2021-08-18T10:08:00.000Z</time>
      </trkpt>
      <trkpt lat="43.0957943759858608245849609375" lon="-6.05807818472385406494140625">
        <ele>1122</ele>
        <time>2021-08-18T10:08:02.000Z</time>
      </trkpt>
      <trkpt lat="43.0958051048219203948974609375" lon="-6.05805077590048313140869140625">
        <ele>1121.800048828125</ele>
        <time>2021-08-18T10:08:04.000Z</time>
      </trkpt>
      <trkpt lat="43.09580988250672817230224609375" lon="-6.05803937651216983795166015625">
        <ele>1121.5999755859375</ele>
        <time>2021-08-18T10:08:05.000Z</time>
      </trkpt>
      <trkpt lat="43.09581734240055084228515625" lon="-6.05802479200065135955810546875">
        <ele>1121.5999755859375</ele>
        <time>2021-08-18T10:08:06.000Z</time>
      </trkpt>
      <trkpt lat="43.09585087001323699951171875" lon="-6.05797491967678070068359375">
        <ele>1121.4000244140625</ele>
        <time>2021-08-18T10:08:10.000Z</time>
      </trkpt>
      <trkpt lat="43.09589470736682415008544921875" lon="-6.057926975190639495849609375">
        <ele>1120.800048828125</ele>
        <time>2021-08-18T10:08:15.000Z</time>
      </trkpt>
      <trkpt lat="43.0959040112793445587158203125" lon="-6.0579130612313747406005859375">
        <ele>1120.5999755859375</ele>
        <time>2021-08-18T10:08:16.000Z</time>
      </trkpt>
      <trkpt lat="43.095937035977840423583984375" lon="-6.05785899795591831207275390625">
        <ele>1120.4000244140625</ele>
        <time>2021-08-18T10:08:19.000Z</time>
      </trkpt>
      <trkpt lat="43.0959660373628139495849609375" lon="-6.0578074492514133453369140625">
        <ele>1120.4000244140625</ele>
        <time>2021-08-18T10:08:23.000Z</time>
      </trkpt>
      <trkpt lat="43.0959881655871868133544921875" lon="-6.05772237293422222137451171875">
        <ele>1120.199951171875</ele>
        <time>2021-08-18T10:08:30.000Z</time>
      </trkpt>
      <trkpt lat="43.09598891995847225189208984375" lon="-6.05771449394524097442626953125">
        <ele>1120.199951171875</ele>
        <time>2021-08-18T10:08:31.000Z</time>
      </trkpt>
      <trkpt lat="43.0959935300052165985107421875" lon="-6.05770242400467395782470703125">
        <ele>1120.4000244140625</ele>
        <time>2021-08-18T10:08:32.000Z</time>
      </trkpt>
      <trkpt lat="43.0960004031658172607421875" lon="-6.05768616311252117156982421875">
        <ele>1120.4000244140625</ele>
        <time>2021-08-18T10:08:33.000Z</time>
      </trkpt>
      <trkpt lat="43.09605999849736690521240234375" lon="-6.0576121509075164794921875">
        <ele>1120.800048828125</ele>
        <time>2021-08-18T10:08:39.000Z</time>
      </trkpt>
      <trkpt lat="43.09612386859953403472900390625" lon="-6.0575343668460845947265625">
        <ele>1121</ele>
        <time>2021-08-18T10:08:46.000Z</time>
      </trkpt>
      <trkpt lat="43.0961376987397670745849609375" lon="-6.05751316063106060028076171875">
        <ele>1121.199951171875</ele>
        <time>2021-08-18T10:08:48.000Z</time>
      </trkpt>
      <trkpt lat="43.09616292826831340789794921875" lon="-6.05748902074992656707763671875">
        <ele>1121</ele>
        <time>2021-08-18T10:08:51.000Z</time>
      </trkpt>
      <trkpt lat="43.0962188355624675750732421875" lon="-6.057457588613033294677734375">
        <ele>1121</ele>
        <time>2021-08-18T10:08:55.000Z</time>
      </trkpt>
      <trkpt lat="43.0963039956986904144287109375" lon="-6.05738793499767780303955078125">
        <ele>1121.4000244140625</ele>
        <time>2021-08-18T10:09:02.000Z</time>
      </trkpt>
      <trkpt lat="43.0963247828185558319091796875" lon="-6.05736295692622661590576171875">
        <ele>1121.199951171875</ele>
        <time>2021-08-18T10:09:04.000Z</time>
      </trkpt>
      <trkpt lat="43.09634464792907238006591796875" lon="-6.05733982287347316741943359375">
        <ele>1121.199951171875</ele>
        <time>2021-08-18T10:09:06.000Z</time>
      </trkpt>
      <trkpt lat="43.09635370038449764251708984375" lon="-6.05733261443674564361572265625">
        <ele>1121.199951171875</ele>
        <time>2021-08-18T10:09:07.000Z</time>
      </trkpt>
      <trkpt lat="43.09640365652740001678466796875" lon="-6.05730034410953521728515625">
        <ele>1121.4000244140625</ele>
        <time>2021-08-18T10:09:12.000Z</time>
      </trkpt>
      <trkpt lat="43.0964954383671283721923828125" lon="-6.05720219202339649200439453125">
        <ele>1121.5999755859375</ele>
        <time>2021-08-18T10:09:21.000Z</time>
      </trkpt>
      <trkpt lat="43.0965085141360759735107421875" lon="-6.05718861334025859832763671875">
        <ele>1121.5999755859375</ele>
        <time>2021-08-18T10:09:22.000Z</time>
      </trkpt>
      <trkpt lat="43.09652687050402164459228515625" lon="-6.057166568934917449951171875">
        <ele>1121.800048828125</ele>
        <time>2021-08-18T10:09:24.000Z</time>
      </trkpt>
      <trkpt lat="43.096594512462615966796875" lon="-6.057095490396022796630859375">
        <ele>1121.800048828125</ele>
        <time>2021-08-18T10:09:30.000Z</time>
      </trkpt>
      <trkpt lat="43.09660532511770725250244140625" lon="-6.05708283372223377227783203125">
        <ele>1121.800048828125</ele>
        <time>2021-08-18T10:09:31.000Z</time>
      </trkpt>
      <trkpt lat="43.09666601009666919708251953125" lon="-6.05700337328016757965087890625">
        <ele>1121.800048828125</ele>
        <time>2021-08-18T10:09:37.000Z</time>
      </trkpt>
      <trkpt lat="43.09672283940017223358154296875" lon="-6.05691167525947093963623046875">
        <ele>1121.800048828125</ele>
        <time>2021-08-18T10:09:45.000Z</time>
      </trkpt>
      <trkpt lat="43.0967525951564311981201171875" lon="-6.05688736774027347564697265625">
        <ele>1121.5999755859375</ele>
        <time>2021-08-18T10:09:48.000Z</time>
      </trkpt>
      <trkpt lat="43.0968065746128559112548828125" lon="-6.05683623813092708587646484375">
        <ele>1121.4000244140625</ele>
        <time>2021-08-18T10:09:53.000Z</time>
      </trkpt>
      <trkpt lat="43.0968927405774593353271484375" lon="-6.05675845406949520111083984375">
        <ele>1121.4000244140625</ele>
        <time>2021-08-18T10:10:01.000Z</time>
      </trkpt>
      <trkpt lat="43.09695216827094554901123046875" lon="-6.0566661693155765533447265625">
        <ele>1121.5999755859375</ele>
        <time>2021-08-18T10:10:07.000Z</time>
      </trkpt>
      <trkpt lat="43.09696524403989315032958984375" lon="-6.05664999224245548248291015625">
        <ele>1121.800048828125</ele>
        <time>2021-08-18T10:10:08.000Z</time>
      </trkpt>
      <trkpt lat="43.097070939838886260986328125" lon="-6.05655896477401256561279296875">
        <ele>1121.5999755859375</ele>
        <time>2021-08-18T10:10:16.000Z</time>
      </trkpt>
      <trkpt lat="43.09714763425290584564208984375" lon="-6.0564777441322803497314453125">
        <ele>1121.800048828125</ele>
        <time>2021-08-18T10:10:24.000Z</time>
      </trkpt>
      <trkpt lat="43.09717454016208648681640625" lon="-6.05644798837602138519287109375">
        <ele>1121.800048828125</ele>
        <time>2021-08-18T10:10:27.000Z</time>
      </trkpt>
      <trkpt lat="43.09723556041717529296875" lon="-6.0564170591533184051513671875">
        <ele>1121.199951171875</ele>
        <time>2021-08-18T10:10:32.000Z</time>
      </trkpt>
      <trkpt lat="43.09729146771132946014404296875" lon="-6.056394092738628387451171875">
        <ele>1120.4000244140625</ele>
        <time>2021-08-18T10:10:36.000Z</time>
      </trkpt>
      <trkpt lat="43.09730194509029388427734375" lon="-6.05639333836734294891357421875">
        <ele>1120.199951171875</ele>
        <time>2021-08-18T10:10:37.000Z</time>
      </trkpt>
      <trkpt lat="43.09730957262217998504638671875" lon="-6.05639032088220119476318359375">
        <ele>1120</ele>
        <time>2021-08-18T10:10:38.000Z</time>
      </trkpt>
      <trkpt lat="43.09734075330197811126708984375" lon="-6.05637791566550731658935546875">
        <ele>1119.4000244140625</ele>
        <time>2021-08-18T10:10:41.000Z</time>
      </trkpt>
      <trkpt lat="43.0973587743937969207763671875" lon="-6.05637238360941410064697265625">
        <ele>1119</ele>
        <time>2021-08-18T10:10:43.000Z</time>
      </trkpt>
      <trkpt lat="43.09737629257142543792724609375" lon="-6.05636450462043285369873046875">
        <ele>1118.4000244140625</ele>
        <time>2021-08-18T10:10:45.000Z</time>
      </trkpt>
      <trkpt lat="43.0973849259316921234130859375" lon="-6.056361235678195953369140625">
        <ele>1118.199951171875</ele>
        <time>2021-08-18T10:10:46.000Z</time>
      </trkpt>
      <trkpt lat="43.097420297563076019287109375" lon="-6.0563402809202671051025390625">
        <ele>1117.5999755859375</ele>
        <time>2021-08-18T10:10:49.000Z</time>
      </trkpt>
      <trkpt lat="43.097441755235195159912109375" lon="-6.056340448558330535888671875">
        <ele>1117.199951171875</ele>
        <time>2021-08-18T10:10:51.000Z</time>
      </trkpt>
      <trkpt lat="43.097455166280269622802734375" lon="-6.05634673498570919036865234375">
        <ele>1116.800048828125</ele>
        <time>2021-08-18T10:10:53.000Z</time>
      </trkpt>
      <trkpt lat="43.0974600277841091156005859375" lon="-6.05634807609021663665771484375">
        <ele>1116.800048828125</ele>
        <time>2021-08-18T10:10:54.000Z</time>
      </trkpt>
      <trkpt lat="43.09747436083853244781494140625" lon="-6.05635427869856357574462890625">
        <ele>1116.199951171875</ele>
        <time>2021-08-18T10:10:56.000Z</time>
      </trkpt>
      <trkpt lat="43.0974828265607357025146484375" lon="-6.05635796673595905303955078125">
        <ele>1116</ele>
        <time>2021-08-18T10:10:57.000Z</time>
      </trkpt>
      <trkpt lat="43.0975066311657428741455078125" lon="-6.056380011141300201416015625">
        <ele>1115.199951171875</ele>
        <time>2021-08-18T10:11:00.000Z</time>
      </trkpt>
      <trkpt lat="43.0975247360765933990478515625" lon="-6.0563972778618335723876953125">
        <ele>1115</ele>
        <time>2021-08-18T10:11:02.000Z</time>
      </trkpt>
      <trkpt lat="43.0975317768752574920654296875" lon="-6.05640842579305171966552734375">
        <ele>1115</ele>
        <time>2021-08-18T10:11:03.000Z</time>
      </trkpt>
      <trkpt lat="43.0975552462041378021240234375" lon="-6.0564381815493106842041015625">
        <ele>1114.5999755859375</ele>
        <time>2021-08-18T10:11:06.000Z</time>
      </trkpt>
      <trkpt lat="43.0975721776485443115234375" lon="-6.0564707033336162567138671875">
        <ele>1113.5999755859375</ele>
        <time>2021-08-18T10:11:09.000Z</time>
      </trkpt>
      <trkpt lat="43.0975998379290103912353515625" lon="-6.05652107857167720794677734375">
        <ele>1112.5999755859375</ele>
        <time>2021-08-18T10:11:13.000Z</time>
      </trkpt>
      <trkpt lat="43.09761567972600460052490234375" lon="-6.05654664337635040283203125">
        <ele>1112.199951171875</ele>
        <time>2021-08-18T10:11:15.000Z</time>
      </trkpt>
      <trkpt lat="43.09763051569461822509765625" lon="-6.05658595450222492218017578125">
        <ele>1111.4000244140625</ele>
        <time>2021-08-18T10:11:18.000Z</time>
      </trkpt>
      <trkpt lat="43.097669072449207305908203125" lon="-6.05667480267584323883056640625">
        <ele>1110.4000244140625</ele>
        <time>2021-08-18T10:11:23.000Z</time>
      </trkpt>
      <trkpt lat="43.09771106578409671783447265625" lon="-6.056739427149295806884765625">
        <ele>1109.800048828125</ele>
        <time>2021-08-18T10:11:28.000Z</time>
      </trkpt>
      <trkpt lat="43.0977195315062999725341796875" lon="-6.0567526705563068389892578125">
        <ele>1109.800048828125</ele>
        <time>2021-08-18T10:11:29.000Z</time>
      </trkpt>
      <trkpt lat="43.0977289192378520965576171875" lon="-6.056781001389026641845703125">
        <ele>1109.5999755859375</ele>
        <time>2021-08-18T10:11:31.000Z</time>
      </trkpt>
      <trkpt lat="43.0977567471563816070556640625" lon="-6.05682752095162868499755859375">
        <ele>1109.4000244140625</ele>
        <time>2021-08-18T10:11:35.000Z</time>
      </trkpt>
      <trkpt lat="43.097772337496280670166015625" lon="-6.0568592883646488189697265625">
        <ele>1108.800048828125</ele>
        <time>2021-08-18T10:11:37.000Z</time>
      </trkpt>
      <trkpt lat="43.09778030030429363250732421875" lon="-6.05689155869185924530029296875">
        <ele>1108.4000244140625</ele>
        <time>2021-08-18T10:11:39.000Z</time>
      </trkpt>
      <trkpt lat="43.09779790230095386505126953125" lon="-6.05694302357733249664306640625">
        <ele>1108.199951171875</ele>
        <time>2021-08-18T10:11:43.000Z</time>
      </trkpt>
      <trkpt lat="43.09782036580145359039306640625" lon="-6.05702365748584270477294921875">
        <ele>1107.800048828125</ele>
        <time>2021-08-18T10:11:48.000Z</time>
      </trkpt>
      <trkpt lat="43.0978442542254924774169921875" lon="-6.0570540837943553924560546875">
        <ele>1107.5999755859375</ele>
        <time>2021-08-18T10:11:50.000Z</time>
      </trkpt>
      <trkpt lat="43.0978774465620517730712890625" lon="-6.05710990726947784423828125">
        <ele>1107.199951171875</ele>
        <time>2021-08-18T10:11:54.000Z</time>
      </trkpt>
      <trkpt lat="43.0979263968765735626220703125" lon="-6.057200767099857330322265625">
        <ele>1107</ele>
        <time>2021-08-18T10:12:00.000Z</time>
      </trkpt>
      <trkpt lat="43.0980031751096248626708984375" lon="-6.05726991780102252960205078125">
        <ele>1106.800048828125</ele>
        <time>2021-08-18T10:12:07.000Z</time>
      </trkpt>
      <trkpt lat="43.0980229564011096954345703125" lon="-6.05727293528616428375244140625">
        <ele>1106.5999755859375</ele>
        <time>2021-08-18T10:12:09.000Z</time>
      </trkpt>
      <trkpt lat="43.09806109406054019927978515625" lon="-6.0572931356728076934814453125">
        <ele>1106.5999755859375</ele>
        <time>2021-08-18T10:12:12.000Z</time>
      </trkpt>
      <trkpt lat="43.098111636936664581298828125" lon="-6.0573310218751430511474609375">
        <ele>1106.5999755859375</ele>
        <time>2021-08-18T10:12:15.000Z</time>
      </trkpt>
      <trkpt lat="43.0982143990695476531982421875" lon="-6.05738827027380466461181640625">
        <ele>1106.4000244140625</ele>
        <time>2021-08-18T10:12:24.000Z</time>
      </trkpt>
      <trkpt lat="43.098267205059528350830078125" lon="-6.05738944374024868011474609375">
        <ele>1106.199951171875</ele>
        <time>2021-08-18T10:12:29.000Z</time>
      </trkpt>
      <trkpt lat="43.09830081649124622344970703125" lon="-6.0573920421302318572998046875">
        <ele>1106.199951171875</ele>
        <time>2021-08-18T10:12:33.000Z</time>
      </trkpt>
      <trkpt lat="43.0983206816017627716064453125" lon="-6.05739078484475612640380859375">
        <ele>1106.199951171875</ele>
        <time>2021-08-18T10:12:35.000Z</time>
      </trkpt>
      <trkpt lat="43.0983340926468372344970703125" lon="-6.05739396996796131134033203125">
        <ele>1106.199951171875</ele>
        <time>2021-08-18T10:12:36.000Z</time>
      </trkpt>
      <trkpt lat="43.0983880721032619476318359375" lon="-6.0573994182050228118896484375">
        <ele>1106.199951171875</ele>
        <time>2021-08-18T10:12:41.000Z</time>
      </trkpt>
      <trkpt lat="43.0984946899116039276123046875" lon="-6.057397238910198211669921875">
        <ele>1105.5999755859375</ele>
        <time>2021-08-18T10:12:49.000Z</time>
      </trkpt>
      <trkpt lat="43.0985466577112674713134765625" lon="-6.05739665217697620391845703125">
        <ele>1105.4000244140625</ele>
        <time>2021-08-18T10:12:54.000Z</time>
      </trkpt>
      <trkpt lat="43.0985593982040882110595703125" lon="-6.05739866383373737335205078125">
        <ele>1105.199951171875</ele>
        <time>2021-08-18T10:12:55.000Z</time>
      </trkpt>
      <trkpt lat="43.09861999936401844024658203125" lon="-6.0573964007198810577392578125">
        <ele>1104.800048828125</ele>
        <time>2021-08-18T10:12:59.000Z</time>
      </trkpt>
      <trkpt lat="43.0986475758254528045654296875" lon="-6.05739899910986423492431640625">
        <ele>1105</ele>
        <time>2021-08-18T10:13:01.000Z</time>
      </trkpt>
      <trkpt lat="43.09873801656067371368408203125" lon="-6.0573960654437541961669921875">
        <ele>1105.4000244140625</ele>
        <time>2021-08-18T10:13:08.000Z</time>
      </trkpt>
      <trkpt lat="43.0987603962421417236328125" lon="-6.05739749036729335784912109375">
        <ele>1105.4000244140625</ele>
        <time>2021-08-18T10:13:10.000Z</time>
      </trkpt>
      <trkpt lat="43.09887011535465717315673828125" lon="-6.05739262886345386505126953125">
        <ele>1105</ele>
        <time>2021-08-18T10:13:21.000Z</time>
      </trkpt>
      <trkpt lat="43.09887983836233615875244140625" lon="-6.05739179067313671112060546875">
        <ele>1105</ele>
        <time>2021-08-18T10:13:22.000Z</time>
      </trkpt>
      <trkpt lat="43.0988883040845394134521484375" lon="-6.05739329941570758819580078125">
        <ele>1105</ele>
        <time>2021-08-18T10:13:23.000Z</time>
      </trkpt>
      <trkpt lat="43.09893515892326831817626953125" lon="-6.0573943890631198883056640625">
        <ele>1104.5999755859375</ele>
        <time>2021-08-18T10:13:28.000Z</time>
      </trkpt>
      <trkpt lat="43.0989476479589939117431640625" lon="-6.0574047826230525970458984375">
        <ele>1104</ele>
        <time>2021-08-18T10:13:30.000Z</time>
      </trkpt>
      <trkpt lat="43.09897354803979396820068359375" lon="-6.05744409374892711639404296875">
        <ele>1103.199951171875</ele>
        <time>2021-08-18T10:13:35.000Z</time>
      </trkpt>
      <trkpt lat="43.09898092411458492279052734375" lon="-6.05745130218565464019775390625">
        <ele>1103</ele>
        <time>2021-08-18T10:13:36.000Z</time>
      </trkpt>
      <trkpt lat="43.0989942513406276702880859375" lon="-6.05746923945844173431396484375">
        <ele>1102.5999755859375</ele>
        <time>2021-08-18T10:13:38.000Z</time>
      </trkpt>
      <trkpt lat="43.09903155080974102020263671875" lon="-6.0575311817228794097900390625">
        <ele>1102</ele>
        <time>2021-08-18T10:13:44.000Z</time>
      </trkpt>
      <trkpt lat="43.0990723706781864166259765625" lon="-6.0575677268207073211669921875">
        <ele>1101</ele>
        <time>2021-08-18T10:13:49.000Z</time>
      </trkpt>
      <trkpt lat="43.09907513670623302459716796875" lon="-6.05757434852421283721923828125">
        <ele>1100.800048828125</ele>
        <time>2021-08-18T10:13:50.000Z</time>
      </trkpt>
      <trkpt lat="43.099186532199382781982421875" lon="-6.0577004961669445037841796875">
        <ele>1100.199951171875</ele>
        <time>2021-08-18T10:14:03.000Z</time>
      </trkpt>
      <trkpt lat="43.0992205627262592315673828125" lon="-6.0577514581382274627685546875">
        <ele>1099.800048828125</ele>
        <time>2021-08-18T10:14:08.000Z</time>
      </trkpt>
      <trkpt lat="43.099266998469829559326171875" lon="-6.057824380695819854736328125">
        <ele>1099.5999755859375</ele>
        <time>2021-08-18T10:14:14.000Z</time>
      </trkpt>
      <trkpt lat="43.09933782555162906646728515625" lon="-6.05795823968946933746337890625">
        <ele>1099.4000244140625</ele>
        <time>2021-08-18T10:14:25.000Z</time>
      </trkpt>
      <trkpt lat="43.0993563495576381683349609375" lon="-6.05797600932419300079345703125">
        <ele>1099.4000244140625</ele>
        <time>2021-08-18T10:14:27.000Z</time>
      </trkpt>
      <trkpt lat="43.099394738674163818359375" lon="-6.05802127160131931304931640625">
        <ele>1099</ele>
        <time>2021-08-18T10:14:31.000Z</time>
      </trkpt>
      <trkpt lat="43.09940085746347904205322265625" lon="-6.0580263845622539520263671875">
        <ele>1098.800048828125</ele>
        <time>2021-08-18T10:14:32.000Z</time>
      </trkpt>
      <trkpt lat="43.0994391627609729766845703125" lon="-6.0580636002123355865478515625">
        <ele>1098.4000244140625</ele>
        <time>2021-08-18T10:14:37.000Z</time>
      </trkpt>
      <trkpt lat="43.09946372173726558685302734375" lon="-6.0580877400934696197509765625">
        <ele>1098.199951171875</ele>
        <time>2021-08-18T10:14:40.000Z</time>
      </trkpt>
      <trkpt lat="43.09947176836431026458740234375" lon="-6.05809469707310199737548828125">
        <ele>1098.199951171875</ele>
        <time>2021-08-18T10:14:41.000Z</time>
      </trkpt>
      <trkpt lat="43.0995033681392669677734375" lon="-6.0581346787512302398681640625">
        <ele>1098.4000244140625</ele>
        <time>2021-08-18T10:14:45.000Z</time>
      </trkpt>
      <trkpt lat="43.0995290167629718780517578125" lon="-6.05818807147443294525146484375">
        <ele>1098.800048828125</ele>
        <time>2021-08-18T10:14:49.000Z</time>
      </trkpt>
      <trkpt lat="43.099536560475826263427734375" lon="-6.05820156633853912353515625">
        <ele>1098.800048828125</ele>
        <time>2021-08-18T10:14:50.000Z</time>
      </trkpt>
      <trkpt lat="43.09958207421004772186279296875" lon="-6.05828044004738330841064453125">
        <ele>1098.800048828125</ele>
        <time>2021-08-18T10:14:56.000Z</time>
      </trkpt>
      <trkpt lat="43.09960604645311832427978515625" lon="-6.058321930468082427978515625">
        <ele>1099.4000244140625</ele>
        <time>2021-08-18T10:15:00.000Z</time>
      </trkpt>
      <trkpt lat="43.0996238999068737030029296875" lon="-6.0583663545548915863037109375">
        <ele>1099</ele>
        <time>2021-08-18T10:15:04.000Z</time>
      </trkpt>
      <trkpt lat="43.0996859259903430938720703125" lon="-6.05845059268176555633544921875">
        <ele>1098.4000244140625</ele>
        <time>2021-08-18T10:15:11.000Z</time>
      </trkpt>
      <trkpt lat="43.0996966548264026641845703125" lon="-6.0584624111652374267578125">
        <ele>1098.199951171875</ele>
        <time>2021-08-18T10:15:12.000Z</time>
      </trkpt>
      <trkpt lat="43.09970864094793796539306640625" lon="-6.058474145829677581787109375">
        <ele>1098</ele>
        <time>2021-08-18T10:15:13.000Z</time>
      </trkpt>
      <trkpt lat="43.099729008972644805908203125" lon="-6.05851513333618640899658203125">
        <ele>1097.5999755859375</ele>
        <time>2021-08-18T10:15:16.000Z</time>
      </trkpt>
      <trkpt lat="43.09974166564643383026123046875" lon="-6.05856902897357940673828125">
        <ele>1097.4000244140625</ele>
        <time>2021-08-18T10:15:20.000Z</time>
      </trkpt>
      <trkpt lat="43.09974937699735164642333984375" lon="-6.0586328990757465362548828125">
        <ele>1097.4000244140625</ele>
        <time>2021-08-18T10:15:24.000Z</time>
      </trkpt>
      <trkpt lat="43.09975759126245975494384765625" lon="-6.0586748085916042327880859375">
        <ele>1097.4000244140625</ele>
        <time>2021-08-18T10:15:27.000Z</time>
      </trkpt>
      <trkpt lat="43.0997663922607898712158203125" lon="-6.05873289518058300018310546875">
        <ele>1097.4000244140625</ele>
        <time>2021-08-18T10:15:31.000Z</time>
      </trkpt>
      <trkpt lat="43.09976748190820217132568359375" lon="-6.05874815024435520172119140625">
        <ele>1097.199951171875</ele>
        <time>2021-08-18T10:15:32.000Z</time>
      </trkpt>
      <trkpt lat="43.09976949356496334075927734375" lon="-6.05876575224101543426513671875">
        <ele>1097</ele>
        <time>2021-08-18T10:15:33.000Z</time>
      </trkpt>
      <trkpt lat="43.09975809417665004730224609375" lon="-6.05885007418692111968994140625">
        <ele>1096.4000244140625</ele>
        <time>2021-08-18T10:15:39.000Z</time>
      </trkpt>
      <trkpt lat="43.099756501615047454833984375" lon="-6.05886247940361499786376953125">
        <ele>1096.4000244140625</ele>
        <time>2021-08-18T10:15:40.000Z</time>
      </trkpt>
      <trkpt lat="43.0997553281486034393310546875" lon="-6.058895923197269439697265625">
        <ele>1096.199951171875</ele>
        <time>2021-08-18T10:15:43.000Z</time>
      </trkpt>
      <trkpt lat="43.09975893236696720123291015625" lon="-6.058924086391925811767578125">
        <ele>1096.199951171875</ele>
        <time>2021-08-18T10:15:45.000Z</time>
      </trkpt>
      <trkpt lat="43.099770247936248779296875" lon="-6.05899943970143795013427734375">
        <ele>1096.199951171875</ele>
        <time>2021-08-18T10:15:50.000Z</time>
      </trkpt>
      <trkpt lat="43.099779300391674041748046875" lon="-6.05904269032180309295654296875">
        <ele>1095.4000244140625</ele>
        <time>2021-08-18T10:15:54.000Z</time>
      </trkpt>
      <trkpt lat="43.09978860430419445037841796875" lon="-6.05911712162196636199951171875">
        <ele>1094.800048828125</ele>
        <time>2021-08-18T10:16:00.000Z</time>
      </trkpt>
      <trkpt lat="43.099792711436748504638671875" lon="-6.05912801809608936309814453125">
        <ele>1094.5999755859375</ele>
        <time>2021-08-18T10:16:01.000Z</time>
      </trkpt>
      <trkpt lat="43.0997995845973491668701171875" lon="-6.059152744710445404052734375">
        <ele>1094.4000244140625</ele>
        <time>2021-08-18T10:16:03.000Z</time>
      </trkpt>
      <trkpt lat="43.09984199702739715576171875" lon="-6.0592353902757167816162109375">
        <ele>1093.4000244140625</ele>
        <time>2021-08-18T10:16:10.000Z</time>
      </trkpt>
      <trkpt lat="43.09987544082105159759521484375" lon="-6.059268414974212646484375">
        <ele>1093.199951171875</ele>
        <time>2021-08-18T10:16:14.000Z</time>
      </trkpt>
      <trkpt lat="43.10000024735927581787109375" lon="-6.059353910386562347412109375">
        <ele>1093.199951171875</ele>
        <time>2021-08-18T10:16:26.000Z</time>
      </trkpt>
      <trkpt lat="43.10002028010785579681396484375" lon="-6.05935357511043548583984375">
        <ele>1093.4000244140625</ele>
        <time>2021-08-18T10:16:28.000Z</time>
      </trkpt>
    </trkseg>
  </trk>
</gpx>
